<?xml version='1.0' encoding='UTF-8'?><gpx version="1.1" creator="JPX - https://github.com/jenetics/jpx" xmlns="http://www.topografix.com/GPX/1/1"><trk><trkseg><trkpt lat="44.34524262607339" lon="9.912373547613731"><ele>190.0</ele><time>2026-04-11T11:57:51.999Z</time></trkpt><trkpt lat="44.34530887855936" lon="9.91228442035126"><ele>190.0</ele><time>2026-04-11T11:57:54.999Z</time></trkpt><trkpt lat="44.34536457886592" lon="9.91220196814406"><ele>190.0</ele><time>2026-04-11T11:57:56.999Z</time></trkpt><trkpt lat="44.34540814259374" lon="9.912128934328644"><ele>190.0</ele><time>2026-04-11T11:57:58.999Z</time></trkpt><trkpt lat="44.345462171641685" lon="9.9120270385239"><ele>190.0</ele><time>2026-04-11T11:58:00.999Z</time></trkpt><trkpt lat="44.345504811725824" lon="9.911925062052308"><ele>190.0</ele><time>2026-04-11T11:58:02.999Z</time></trkpt><trkpt lat="44.345500072303" lon="9.911791191354428"><ele>190.0</ele><time>2026-04-11T11:58:06.999Z</time></trkpt><trkpt lat="44.34541037930223" lon="9.911736249233487"><ele>190.0</ele><time>2026-04-11T11:58:08.999Z</time></trkpt><trkpt lat="44.34533853881781" lon="9.91172217519486"><ele>190.0</ele><time>2026-04-11T11:58:09.999Z</time></trkpt><trkpt lat="44.345254280438596" lon="9.911721973576102"><ele>190.0</ele><time>2026-04-11T11:58:10.999Z</time></trkpt><trkpt lat="44.34516842252725" lon="9.911726069062423"><ele>190.0</ele><time>2026-04-11T11:58:11.999Z</time></trkpt><trkpt lat="44.345078003532095" lon="9.911732504997133"><ele>190.0</ele><time>2026-04-11T11:58:12.999Z</time></trkpt><trkpt lat="44.34499350202708" lon="9.911740633306843"><ele>190.0</ele><time>2026-04-11T11:58:13.999Z</time></trkpt><trkpt lat="44.344903661375525" lon="9.91174101664943"><ele>190.0</ele><time>2026-04-11T11:58:14.999Z</time></trkpt><trkpt lat="44.34480075175083" lon="9.91174104432251"><ele>190.0</ele><time>2026-04-11T11:58:15.999Z</time></trkpt><trkpt lat="44.34468469033889" lon="9.911724266948536"><ele>190.0</ele><time>2026-04-11T11:58:16.999Z</time></trkpt><trkpt lat="44.34455220197308" lon="9.911704663789566"><ele>190.0</ele><time>2026-04-11T11:58:17.999Z</time></trkpt><trkpt lat="44.34440397641654" lon="9.911671806140525"><ele>189.0</ele><time>2026-04-11T11:58:18.999Z</time></trkpt><trkpt lat="44.344242949747745" lon="9.911638031183951"><ele>188.0</ele><time>2026-04-11T11:58:19.999Z</time></trkpt><trkpt lat="44.34407389218577" lon="9.91159485960269"><ele>187.0</ele><time>2026-04-11T11:58:20.999Z</time></trkpt><trkpt lat="44.34389392575889" lon="9.911544313355355"><ele>186.0</ele><time>2026-04-11T11:58:21.999Z</time></trkpt><trkpt lat="44.343714486320536" lon="9.911486596226933"><ele>185.0</ele><time>2026-04-11T11:58:22.999Z</time></trkpt><trkpt lat="44.34353390961576" lon="9.911414859592602"><ele>184.0</ele><time>2026-04-11T11:58:23.999Z</time></trkpt><trkpt lat="44.34335150328001" lon="9.911351260780913"><ele>184.0</ele><time>2026-04-11T11:58:24.999Z</time></trkpt><trkpt lat="44.34317066570369" lon="9.911293707355878"><ele>184.0</ele><time>2026-04-11T11:58:25.999Z</time></trkpt><trkpt lat="44.34298298478451" lon="9.911236173549632"><ele>184.0</ele><time>2026-04-11T11:58:26.999Z</time></trkpt><trkpt lat="44.34279101828551" lon="9.911178362319607"><ele>184.0</ele><time>2026-04-11T11:58:27.999Z</time></trkpt><trkpt lat="44.342597671889855" lon="9.91112822143708"><ele>184.0</ele><time>2026-04-11T11:58:28.999Z</time></trkpt><trkpt lat="44.342403122076064" lon="9.911104601780623"><ele>184.0</ele><time>2026-04-11T11:58:29.999Z</time></trkpt><trkpt lat="44.34220895702588" lon="9.911096270616655"><ele>183.33333333333334</ele><time>2026-04-11T11:58:30.999Z</time></trkpt><trkpt lat="44.342013367105004" lon="9.911104358343037"><ele>182.66666666666666</ele><time>2026-04-11T11:58:31.999Z</time></trkpt><trkpt lat="44.34182240907251" lon="9.911124354273934"><ele>182.0</ele><time>2026-04-11T11:58:32.999Z</time></trkpt><trkpt lat="44.34163090551685" lon="9.911155156027414"><ele>182.0</ele><time>2026-04-11T11:58:33.999Z</time></trkpt><trkpt lat="44.341441784332496" lon="9.911191923204045"><ele>182.0</ele><time>2026-04-11T11:58:34.999Z</time></trkpt><trkpt lat="44.341253128264405" lon="9.911235237487027"><ele>182.0</ele><time>2026-04-11T11:58:35.999Z</time></trkpt><trkpt lat="44.341068746334074" lon="9.911289232748908"><ele>182.0</ele><time>2026-04-11T11:58:36.999Z</time></trkpt><trkpt lat="44.340888274495036" lon="9.911367742438623"><ele>182.0</ele><time>2026-04-11T11:58:37.999Z</time></trkpt><trkpt lat="44.340710718421995" lon="9.911447082416833"><ele>182.0</ele><time>2026-04-11T11:58:38.999Z</time></trkpt><trkpt lat="44.34053477667552" lon="9.911537872271573"><ele>182.0</ele><time>2026-04-11T11:58:39.999Z</time></trkpt><trkpt lat="44.34035928202411" lon="9.91163282729329"><ele>182.0</ele><time>2026-04-11T11:58:40.999Z</time></trkpt><trkpt lat="44.34018215206231" lon="9.911733222535377"><ele>182.0</ele><time>2026-04-11T11:58:41.999Z</time></trkpt><trkpt lat="44.3400082371796" lon="9.911842723666492"><ele>182.33333333333331</ele><time>2026-04-11T11:58:42.999Z</time></trkpt><trkpt lat="44.339839615234375" lon="9.911967480819392"><ele>182.66666666666666</ele><time>2026-04-11T11:58:44Z</time></trkpt><trkpt lat="44.33967858615736" lon="9.912101300017149"><ele>183.0</ele><time>2026-04-11T11:58:45Z</time></trkpt><trkpt lat="44.33952327221828" lon="9.912241350251483"><ele>182.33333333333334</ele><time>2026-04-11T11:58:46Z</time></trkpt><trkpt lat="44.339367958668575" lon="9.912388991075543"><ele>181.66666666666669</ele><time>2026-04-11T11:58:47Z</time></trkpt><trkpt lat="44.33922015181729" lon="9.912546055527017"><ele>181.0</ele><time>2026-04-11T11:58:48Z</time></trkpt><trkpt lat="44.33908625450157" lon="9.912717368699345"><ele>181.0</ele><time>2026-04-11T11:58:49Z</time></trkpt><trkpt lat="44.33896485871544" lon="9.91290159012368"><ele>181.0</ele><time>2026-04-11T11:58:50Z</time></trkpt><trkpt lat="44.338852578118946" lon="9.913110542869514"><ele>181.0</ele><time>2026-04-11T11:58:51Z</time></trkpt><trkpt lat="44.33873744628624" lon="9.913335796665985"><ele>179.0</ele><time>2026-04-11T11:58:52Z</time></trkpt><trkpt lat="44.33862875682539" lon="9.91353660836295"><ele>177.0</ele><time>2026-04-11T11:58:53Z</time></trkpt><trkpt lat="44.33852942917606" lon="9.913717728827981"><ele>175.0</ele><time>2026-04-11T11:58:54Z</time></trkpt><trkpt lat="44.33843466521818" lon="9.913892031690098"><ele>175.0</ele><time>2026-04-11T11:58:55Z</time></trkpt><trkpt lat="44.33833506533171" lon="9.91406857575427"><ele>175.0</ele><time>2026-04-11T11:58:56Z</time></trkpt><trkpt lat="44.33823301793965" lon="9.914250035423592"><ele>175.0</ele><time>2026-04-11T11:58:57Z</time></trkpt><trkpt lat="44.33812577798707" lon="9.91444216751946"><ele>173.33333333333334</ele><time>2026-04-11T11:58:58Z</time></trkpt><trkpt lat="44.338000631120494" lon="9.9146605006695"><ele>171.66666666666666</ele><time>2026-04-11T11:58:59Z</time></trkpt><trkpt lat="44.33786196364781" lon="9.914909024152582"><ele>170.0</ele><time>2026-04-11T11:59:00Z</time></trkpt><trkpt lat="44.337724354387696" lon="9.915158564502116"><ele>169.66666666666666</ele><time>2026-04-11T11:59:01Z</time></trkpt><trkpt lat="44.33759211006768" lon="9.915396646382872"><ele>169.33333333333334</ele><time>2026-04-11T11:59:02Z</time></trkpt><trkpt lat="44.33746448886276" lon="9.91562609959169"><ele>169.0</ele><time>2026-04-11T11:59:03Z</time></trkpt><trkpt lat="44.3373356218827" lon="9.915858742053798"><ele>168.0</ele><time>2026-04-11T11:59:04Z</time></trkpt><trkpt lat="44.33720696096053" lon="9.916091701776802"><ele>167.0</ele><time>2026-04-11T11:59:05Z</time></trkpt><trkpt lat="44.33709404604576" lon="9.91633937892119"><ele>166.0</ele><time>2026-04-11T11:59:06Z</time></trkpt><trkpt lat="44.33699161903995" lon="9.916604151856856"><ele>165.66666666666669</ele><time>2026-04-11T11:59:07Z</time></trkpt><trkpt lat="44.3368974265419" lon="9.91688676988952"><ele>165.33333333333334</ele><time>2026-04-11T11:59:08Z</time></trkpt><trkpt lat="44.33680512567463" lon="9.917169778149425"><ele>165.0</ele><time>2026-04-11T11:59:09Z</time></trkpt><trkpt lat="44.33671315909648" lon="9.917454056984035"><ele>164.66666666666666</ele><time>2026-04-11T11:59:10Z</time></trkpt><trkpt lat="44.33661933384601" lon="9.917737967448021"><ele>164.33333333333331</ele><time>2026-04-11T11:59:11Z</time></trkpt><trkpt lat="44.33652472723006" lon="9.918024203711546"><ele>164.0</ele><time>2026-04-11T11:59:12Z</time></trkpt><trkpt lat="44.33642978547471" lon="9.918311687666684"><ele>163.5</ele><time>2026-04-11T11:59:13Z</time></trkpt><trkpt lat="44.336335071802544" lon="9.918602973730078"><ele>163.0</ele><time>2026-04-11T11:59:14Z</time></trkpt><trkpt lat="44.336239263433825" lon="9.91888978060689"><ele>163.0</ele><time>2026-04-11T11:59:15Z</time></trkpt><trkpt lat="44.33614058211161" lon="9.919176227482888"><ele>163.0</ele><time>2026-04-11T11:59:16Z</time></trkpt><trkpt lat="44.33604156667551" lon="9.919461822504806"><ele>163.0</ele><time>2026-04-11T11:59:17Z</time></trkpt><trkpt lat="44.335943560192234" lon="9.91974610580475"><ele>163.0</ele><time>2026-04-11T11:59:18Z</time></trkpt><trkpt lat="44.33584640548258" lon="9.920030884174015"><ele>163.0</ele><time>2026-04-11T11:59:19Z</time></trkpt><trkpt lat="44.335750225079956" lon="9.920311044122784"><ele>163.0</ele><time>2026-04-11T11:59:20Z</time></trkpt><trkpt lat="44.33564642593176" lon="9.920580769645051"><ele>163.0</ele><time>2026-04-11T11:59:21Z</time></trkpt><trkpt lat="44.33553370878342" lon="9.92084085444665"><ele>163.33333333333334</ele><time>2026-04-11T11:59:22Z</time></trkpt><trkpt lat="44.3354058490968" lon="9.92109093818108"><ele>163.66666666666666</ele><time>2026-04-11T11:59:23Z</time></trkpt><trkpt lat="44.33526960183034" lon="9.921323009770258"><ele>164.0</ele><time>2026-04-11T11:59:24Z</time></trkpt><trkpt lat="44.335126968617125" lon="9.921549253801127"><ele>164.0</ele><time>2026-04-11T11:59:25Z</time></trkpt><trkpt lat="44.33498182619048" lon="9.921782490238668"><ele>164.0</ele><time>2026-04-11T11:59:26Z</time></trkpt><trkpt lat="44.33483433196556" lon="9.922017341478018"><ele>164.0</ele><time>2026-04-11T11:59:27Z</time></trkpt><trkpt lat="44.33467842562242" lon="9.922253615842603"><ele>164.0</ele><time>2026-04-11T11:59:28Z</time></trkpt><trkpt lat="44.33452995641156" lon="9.92248387080198"><ele>164.0</ele><time>2026-04-11T11:59:29Z</time></trkpt><trkpt lat="44.33439267827744" lon="9.922715555636207"><ele>164.0</ele><time>2026-04-11T11:59:30Z</time></trkpt><trkpt lat="44.33425580389658" lon="9.922930528520775"><ele>164.0</ele><time>2026-04-11T11:59:31Z</time></trkpt><trkpt lat="44.33411500674041" lon="9.92312157341274"><ele>164.0</ele><time>2026-04-11T11:59:32Z</time></trkpt><trkpt lat="44.333981998977116" lon="9.923277265526242"><ele>164.0</ele><time>2026-04-11T11:59:33Z</time></trkpt><trkpt lat="44.33385940455728" lon="9.923417526212361"><ele>162.66666666666666</ele><time>2026-04-11T11:59:34Z</time></trkpt><trkpt lat="44.33375596176418" lon="9.923586347721919"><ele>161.33333333333334</ele><time>2026-04-11T11:59:35Z</time></trkpt><trkpt lat="44.33367796336661" lon="9.923795968843002"><ele>160.0</ele><time>2026-04-11T11:59:36Z</time></trkpt><trkpt lat="44.33361539391604" lon="9.92403298977998"><ele>159.33333333333334</ele><time>2026-04-11T11:59:37Z</time></trkpt><trkpt lat="44.333543039729456" lon="9.924273151202506"><ele>158.66666666666666</ele><time>2026-04-11T11:59:38Z</time></trkpt><trkpt lat="44.33344619775605" lon="9.92451023690071"><ele>158.0</ele><time>2026-04-11T11:59:39Z</time></trkpt><trkpt lat="44.33334252848511" lon="9.924738565101439"><ele>158.0</ele><time>2026-04-11T11:59:40Z</time></trkpt><trkpt lat="44.333251308613995" lon="9.924967891872834"><ele>158.0</ele><time>2026-04-11T11:59:41Z</time></trkpt><trkpt lat="44.33317502078038" lon="9.925191372505065"><ele>158.0</ele><time>2026-04-11T11:59:42Z</time></trkpt><trkpt lat="44.33311469835159" lon="9.925422873317252"><ele>158.66666666666666</ele><time>2026-04-11T11:59:43Z</time></trkpt><trkpt lat="44.33307235158807" lon="9.92567392593918"><ele>159.33333333333334</ele><time>2026-04-11T11:59:44Z</time></trkpt><trkpt lat="44.3330488853006" lon="9.925934519528216"><ele>160.0</ele><time>2026-04-11T11:59:45Z</time></trkpt><trkpt lat="44.33304062859594" lon="9.926200575808835"><ele>158.66666666666669</ele><time>2026-04-11T11:59:46Z</time></trkpt><trkpt lat="44.333036497988516" lon="9.926467271012953"><ele>157.33333333333334</ele><time>2026-04-11T11:59:47Z</time></trkpt><trkpt lat="44.333029934745426" lon="9.926737568970564"><ele>156.0</ele><time>2026-04-11T11:59:48Z</time></trkpt><trkpt lat="44.33301956875501" lon="9.92698655127457"><ele>156.0</ele><time>2026-04-11T11:59:49Z</time></trkpt><trkpt lat="44.3330095581801" lon="9.927217632537529"><ele>156.0</ele><time>2026-04-11T11:59:50Z</time></trkpt><trkpt lat="44.332985405898015" lon="9.927445159421383"><ele>156.0</ele><time>2026-04-11T11:59:51Z</time></trkpt><trkpt lat="44.33292339132486" lon="9.927652967316138"><ele>156.5</ele><time>2026-04-11T11:59:52Z</time></trkpt><trkpt lat="44.33285168300905" lon="9.927847250320209"><ele>157.0</ele><time>2026-04-11T11:59:53Z</time></trkpt><trkpt lat="44.332781219130055" lon="9.928022221859854"><ele>157.5</ele><time>2026-04-11T11:59:54Z</time></trkpt><trkpt lat="44.33271599249474" lon="9.92819021347505"><ele>158.0</ele><time>2026-04-11T11:59:55Z</time></trkpt><trkpt lat="44.33265644379254" lon="9.928349016447884"><ele>158.25</ele><time>2026-04-11T11:59:56Z</time></trkpt><trkpt lat="44.3325995269326" lon="9.928504729210978"><ele>158.5</ele><time>2026-04-11T11:59:57Z</time></trkpt><trkpt lat="44.332546643826646" lon="9.9286474858249"><ele>158.75</ele><time>2026-04-11T11:59:58Z</time></trkpt><trkpt lat="44.33249415195735" lon="9.928783196716175"><ele>159.0</ele><time>2026-04-11T11:59:59Z</time></trkpt><trkpt lat="44.332440660829924" lon="9.928911720040777"><ele>159.0</ele><time>2026-04-11T12:00:00Z</time></trkpt><trkpt lat="44.332388272730725" lon="9.929034723029911"><ele>159.0</ele><time>2026-04-11T12:00:01Z</time></trkpt><trkpt lat="44.332334776114415" lon="9.929153471388206"><ele>159.0</ele><time>2026-04-11T12:00:02Z</time></trkpt><trkpt lat="44.332281595795905" lon="9.929269161866586"><ele>159.0</ele><time>2026-04-11T12:00:03Z</time></trkpt><trkpt lat="44.332232599873066" lon="9.929373173270166"><ele>159.0</ele><time>2026-04-11T12:00:04Z</time></trkpt><trkpt lat="44.33218210472321" lon="9.929479344954805"><ele>158.16666666666666</ele><time>2026-04-11T12:00:05Z</time></trkpt><trkpt lat="44.33213400943697" lon="9.929574410165342"><ele>157.33333333333334</ele><time>2026-04-11T12:00:06Z</time></trkpt><trkpt lat="44.33209296447988" lon="9.929665526860873"><ele>156.5</ele><time>2026-04-11T12:00:07Z</time></trkpt><trkpt lat="44.33203233254506" lon="9.929783797462134"><ele>155.66666666666669</ele><time>2026-04-11T12:00:09Z</time></trkpt><trkpt lat="44.33198095732241" lon="9.92987664278824"><ele>154.83333333333334</ele><time>2026-04-11T12:00:11Z</time></trkpt><trkpt lat="44.331924559848204" lon="9.929971584185887"><ele>154.0</ele><time>2026-04-11T12:00:13Z</time></trkpt><trkpt lat="44.33188150290891" lon="9.930051364014993"><ele>154.0</ele><time>2026-04-11T12:00:14Z</time></trkpt><trkpt lat="44.33182988975949" lon="9.93015859009882"><ele>154.0</ele><time>2026-04-11T12:00:15Z</time></trkpt><trkpt lat="44.33177639024522" lon="9.930299122232762"><ele>154.0</ele><time>2026-04-11T12:00:16Z</time></trkpt><trkpt lat="44.331716653746646" lon="9.930448034968459"><ele>154.0</ele><time>2026-04-11T12:00:17Z</time></trkpt><trkpt lat="44.331649628162424" lon="9.930605653114888"><ele>154.0</ele><time>2026-04-11T12:00:18.001Z</time></trkpt><trkpt lat="44.33157490863271" lon="9.93077043157226"><ele>154.0</ele><time>2026-04-11T12:00:19.001Z</time></trkpt><trkpt lat="44.331493383140284" lon="9.930937236310884"><ele>154.0</ele><time>2026-04-11T12:00:20.001Z</time></trkpt><trkpt lat="44.33141053774478" lon="9.931107554405513"><ele>154.0</ele><time>2026-04-11T12:00:21.001Z</time></trkpt><trkpt lat="44.33132719066646" lon="9.93127740167096"><ele>154.0</ele><time>2026-04-11T12:00:22.001Z</time></trkpt><trkpt lat="44.331242617228575" lon="9.931452794642206"><ele>154.0</ele><time>2026-04-11T12:00:23.001Z</time></trkpt><trkpt lat="44.33115711594199" lon="9.931628800208914"><ele>154.0</ele><time>2026-04-11T12:00:24.001Z</time></trkpt><trkpt lat="44.33106991948433" lon="9.931810958366594"><ele>154.33333333333334</ele><time>2026-04-11T12:00:25.001Z</time></trkpt><trkpt lat="44.33098617758453" lon="9.931991115565573"><ele>154.66666666666666</ele><time>2026-04-11T12:00:26.001Z</time></trkpt><trkpt lat="44.33090200425718" lon="9.93217272991095"><ele>155.0</ele><time>2026-04-11T12:00:27.001Z</time></trkpt><trkpt lat="44.33081734919523" lon="9.932356213914206"><ele>155.0</ele><time>2026-04-11T12:00:28.001Z</time></trkpt><trkpt lat="44.33073720439208" lon="9.932533146549943"><ele>155.0</ele><time>2026-04-11T12:00:29.001Z</time></trkpt><trkpt lat="44.33065781997736" lon="9.932699619841095"><ele>155.0</ele><time>2026-04-11T12:00:30.001Z</time></trkpt><trkpt lat="44.33056438867142" lon="9.93287572213996"><ele>154.75</ele><time>2026-04-11T12:00:31.001Z</time></trkpt><trkpt lat="44.330485530254876" lon="9.933045010098482"><ele>154.5</ele><time>2026-04-11T12:00:32.001Z</time></trkpt><trkpt lat="44.3304061787242" lon="9.933215058029315"><ele>154.25</ele><time>2026-04-11T12:00:33.001Z</time></trkpt><trkpt lat="44.33032780519301" lon="9.933389217870133"><ele>154.0</ele><time>2026-04-11T12:00:34.001Z</time></trkpt><trkpt lat="44.33024214338601" lon="9.93356442955589"><ele>154.66666666666669</ele><time>2026-04-11T12:00:35.001Z</time></trkpt><trkpt lat="44.33015583910032" lon="9.93374338466242"><ele>155.33333333333334</ele><time>2026-04-11T12:00:36.001Z</time></trkpt><trkpt lat="44.33006785504688" lon="9.933926332739398"><ele>156.0</ele><time>2026-04-11T12:00:37.001Z</time></trkpt><trkpt lat="44.3299769197214" lon="9.934111756751939"><ele>156.33333333333334</ele><time>2026-04-11T12:00:38.001Z</time></trkpt><trkpt lat="44.32988443335557" lon="9.934302591748388"><ele>156.66666666666669</ele><time>2026-04-11T12:00:39.001Z</time></trkpt><trkpt lat="44.32978979281805" lon="9.934491029361112"><ele>157.0</ele><time>2026-04-11T12:00:40.001Z</time></trkpt><trkpt lat="44.32969100100768" lon="9.934679067739372"><ele>155.66666666666669</ele><time>2026-04-11T12:00:41.001Z</time></trkpt><trkpt lat="44.32958505164053" lon="9.934867754317512"><ele>154.33333333333334</ele><time>2026-04-11T12:00:42.001Z</time></trkpt><trkpt lat="44.32946781232917" lon="9.935074259196265"><ele>153.0</ele><time>2026-04-11T12:00:43.001Z</time></trkpt><trkpt lat="44.329345859695735" lon="9.935283178857457"><ele>153.0</ele><time>2026-04-11T12:00:44.001Z</time></trkpt><trkpt lat="44.32922347537587" lon="9.935492577051813"><ele>153.0</ele><time>2026-04-11T12:00:45.001Z</time></trkpt><trkpt lat="44.32910509170893" lon="9.93569703367376"><ele>153.0</ele><time>2026-04-11T12:00:46.001Z</time></trkpt><trkpt lat="44.32899159181911" lon="9.935900644457956"><ele>152.66666666666666</ele><time>2026-04-11T12:00:47.001Z</time></trkpt><trkpt lat="44.32888211095457" lon="9.936101853790683"><ele>152.33333333333331</ele><time>2026-04-11T12:00:48.001Z</time></trkpt><trkpt lat="44.32876947370077" lon="9.936306049289568"><ele>152.0</ele><time>2026-04-11T12:00:49.001Z</time></trkpt><trkpt lat="44.328659140524316" lon="9.936506507482582"><ele>152.0</ele><time>2026-04-11T12:00:50.001Z</time></trkpt><trkpt lat="44.32854517899578" lon="9.93670487900691"><ele>152.0</ele><time>2026-04-11T12:00:51.001Z</time></trkpt><trkpt lat="44.32843405349602" lon="9.936904424204373"><ele>152.0</ele><time>2026-04-11T12:00:52.001Z</time></trkpt><trkpt lat="44.32832030205081" lon="9.937108771802805"><ele>152.0</ele><time>2026-04-11T12:00:53.001Z</time></trkpt><trkpt lat="44.32819830181169" lon="9.93732342300474"><ele>152.0</ele><time>2026-04-11T12:00:54.001Z</time></trkpt><trkpt lat="44.32808807848347" lon="9.937517713968667"><ele>152.0</ele><time>2026-04-11T12:00:55.001Z</time></trkpt><trkpt lat="44.327980908064795" lon="9.937699205849848"><ele>152.0</ele><time>2026-04-11T12:00:56.001Z</time></trkpt><trkpt lat="44.3278747049687" lon="9.93789379285863"><ele>152.0</ele><time>2026-04-11T12:00:57.001Z</time></trkpt><trkpt lat="44.32777034378887" lon="9.938082570421694"><ele>152.0</ele><time>2026-04-11T12:00:58.001Z</time></trkpt><trkpt lat="44.32766520699804" lon="9.938268745939922"><ele>152.66666666666666</ele><time>2026-04-11T12:00:59.001Z</time></trkpt><trkpt lat="44.327566487167225" lon="9.938437733217429"><ele>153.33333333333334</ele><time>2026-04-11T12:01:00.001Z</time></trkpt><trkpt lat="44.3274708134994" lon="9.93859818153398"><ele>154.0</ele><time>2026-04-11T12:01:01.001Z</time></trkpt><trkpt lat="44.32735081952853" lon="9.938736113683476"><ele>153.0</ele><time>2026-04-11T12:01:02.001Z</time></trkpt><trkpt lat="44.32720688737849" lon="9.938839880767242"><ele>152.0</ele><time>2026-04-11T12:01:03.001Z</time></trkpt><trkpt lat="44.32705727753559" lon="9.938924558678055"><ele>151.0</ele><time>2026-04-11T12:01:04.001Z</time></trkpt><trkpt lat="44.32689051366268" lon="9.939020432232414"><ele>151.0</ele><time>2026-04-11T12:01:05.001Z</time></trkpt><trkpt lat="44.326726265693665" lon="9.939102575795658"><ele>151.0</ele><time>2026-04-11T12:01:06.001Z</time></trkpt><trkpt lat="44.326566719297105" lon="9.939194053428228"><ele>151.0</ele><time>2026-04-11T12:01:07.001Z</time></trkpt><trkpt lat="44.326405961948424" lon="9.939285079195107"><ele>152.0</ele><time>2026-04-11T12:01:08.001Z</time></trkpt><trkpt lat="44.326241302581245" lon="9.939380160177098"><ele>153.0</ele><time>2026-04-11T12:01:09.001Z</time></trkpt><trkpt lat="44.326066142533186" lon="9.939481576168108"><ele>154.0</ele><time>2026-04-11T12:01:10.001Z</time></trkpt><trkpt lat="44.32589497671688" lon="9.939579272677907"><ele>154.0</ele><time>2026-04-11T12:01:11.001Z</time></trkpt><trkpt lat="44.32573075136912" lon="9.939671484593934"><ele>154.0</ele><time>2026-04-11T12:01:12.001Z</time></trkpt><trkpt lat="44.325567048312955" lon="9.939762699898393"><ele>154.0</ele><time>2026-04-11T12:01:13.001Z</time></trkpt><trkpt lat="44.32539855694807" lon="9.93985906046674"><ele>153.66666666666669</ele><time>2026-04-11T12:01:14.001Z</time></trkpt><trkpt lat="44.325216385980674" lon="9.939958574767354"><ele>153.33333333333334</ele><time>2026-04-11T12:01:15.001Z</time></trkpt><trkpt lat="44.32501333277882" lon="9.940081337962177"><ele>153.0</ele><time>2026-04-11T12:01:16.001Z</time></trkpt><trkpt lat="44.32479736242614" lon="9.940217709974634"><ele>149.5</ele><time>2026-04-11T12:01:17.001Z</time></trkpt><trkpt lat="44.32457674284823" lon="9.940350686885727"><ele>146.0</ele><time>2026-04-11T12:01:18.001Z</time></trkpt><trkpt lat="44.32431482207675" lon="9.940450657345895"><ele>146.0</ele><time>2026-04-11T12:01:19.001Z</time></trkpt><trkpt lat="44.32405904862251" lon="9.940539382193547"><ele>146.0</ele><time>2026-04-11T12:01:20.001Z</time></trkpt><trkpt lat="44.32381179012581" lon="9.940641046450372"><ele>146.0</ele><time>2026-04-11T12:01:21.001Z</time></trkpt><trkpt lat="44.323566352475765" lon="9.94075337077487"><ele>146.0</ele><time>2026-04-11T12:01:22.001Z</time></trkpt><trkpt lat="44.32332508441116" lon="9.940866970378586"><ele>146.5</ele><time>2026-04-11T12:01:23.001Z</time></trkpt><trkpt lat="44.323078762658874" lon="9.940990694845294"><ele>147.0</ele><time>2026-04-11T12:01:24.001Z</time></trkpt><trkpt lat="44.322833185721265" lon="9.941105643489776"><ele>145.5</ele><time>2026-04-11T12:01:25.001Z</time></trkpt><trkpt lat="44.322591612437705" lon="9.94121974486588"><ele>144.0</ele><time>2026-04-11T12:01:26.001Z</time></trkpt><trkpt lat="44.32234650744385" lon="9.941333870330567"><ele>143.5</ele><time>2026-04-11T12:01:27.001Z</time></trkpt><trkpt lat="44.32209510315249" lon="9.941449100483096"><ele>143.0</ele><time>2026-04-11T12:01:28.001Z</time></trkpt><trkpt lat="44.32184326171619" lon="9.94156540304059"><ele>143.0</ele><time>2026-04-11T12:01:29.001Z</time></trkpt><trkpt lat="44.32159296582952" lon="9.941677956595594"><ele>143.0</ele><time>2026-04-11T12:01:30.001Z</time></trkpt><trkpt lat="44.321345178742405" lon="9.941800716534509"><ele>142.5</ele><time>2026-04-11T12:01:31.001Z</time></trkpt><trkpt lat="44.32110276995813" lon="9.941916787909845"><ele>142.0</ele><time>2026-04-11T12:01:32.001Z</time></trkpt><trkpt lat="44.32086002797668" lon="9.942027538395218"><ele>142.0</ele><time>2026-04-11T12:01:33.001Z</time></trkpt><trkpt lat="44.32061895871428" lon="9.942142664764937"><ele>142.0</ele><time>2026-04-11T12:01:34.001Z</time></trkpt><trkpt lat="44.320378780499084" lon="9.942257934813316"><ele>142.0</ele><time>2026-04-11T12:01:35.001Z</time></trkpt><trkpt lat="44.32013937315688" lon="9.942375257400796"><ele>142.0</ele><time>2026-04-11T12:01:36.001Z</time></trkpt><trkpt lat="44.31989742291285" lon="9.942484752294789"><ele>142.0</ele><time>2026-04-11T12:01:37.001Z</time></trkpt><trkpt lat="44.31965180897932" lon="9.942596838598291"><ele>142.0</ele><time>2026-04-11T12:01:38.001Z</time></trkpt><trkpt lat="44.31941011396561" lon="9.942711626014185"><ele>142.0</ele><time>2026-04-11T12:01:39.001Z</time></trkpt><trkpt lat="44.31917208792635" lon="9.94282748217421"><ele>142.0</ele><time>2026-04-11T12:01:40.001Z</time></trkpt><trkpt lat="44.318933508955574" lon="9.94294461433205"><ele>141.5</ele><time>2026-04-11T12:01:41.001Z</time></trkpt><trkpt lat="44.31869523230645" lon="9.943058274885018"><ele>141.0</ele><time>2026-04-11T12:01:42.001Z</time></trkpt><trkpt lat="44.31845568109472" lon="9.943171959799159"><ele>141.0</ele><time>2026-04-11T12:01:43.001Z</time></trkpt><trkpt lat="44.318209880558896" lon="9.943292602877744"><ele>141.0</ele><time>2026-04-11T12:01:44.001Z</time></trkpt><trkpt lat="44.317965774289114" lon="9.943404614023835"><ele>141.0</ele><time>2026-04-11T12:01:45.001Z</time></trkpt><trkpt lat="44.31772115022471" lon="9.9435171320125"><ele>141.0</ele><time>2026-04-11T12:01:46.001Z</time></trkpt><trkpt lat="44.31747371870096" lon="9.943634553134295"><ele>139.5</ele><time>2026-04-11T12:01:47.001Z</time></trkpt><trkpt lat="44.3172289129105" lon="9.943752357633347"><ele>138.0</ele><time>2026-04-11T12:01:48.001Z</time></trkpt><trkpt lat="44.316980083590714" lon="9.943869487879732"><ele>138.0</ele><time>2026-04-11T12:01:49.001Z</time></trkpt><trkpt lat="44.316734255165024" lon="9.943982565979645"><ele>138.0</ele><time>2026-04-11T12:01:50.001Z</time></trkpt><trkpt lat="44.31648846554151" lon="9.944093283039338"><ele>138.5</ele><time>2026-04-11T12:01:51.001Z</time></trkpt><trkpt lat="44.31624474425736" lon="9.944206969634353"><ele>139.0</ele><time>2026-04-11T12:01:52.001Z</time></trkpt><trkpt lat="44.31599952546604" lon="9.944325182306004"><ele>139.0</ele><time>2026-04-11T12:01:53.002Z</time></trkpt><trkpt lat="44.315751377457374" lon="9.944429516998127"><ele>139.0</ele><time>2026-04-11T12:01:54.002Z</time></trkpt><trkpt lat="44.31550758392002" lon="9.944535600756868"><ele>138.0</ele><time>2026-04-11T12:01:55.002Z</time></trkpt><trkpt lat="44.31525555702575" lon="9.944634581359464"><ele>137.0</ele><time>2026-04-11T12:01:56.002Z</time></trkpt><trkpt lat="44.31501366389487" lon="9.944751114796368"><ele>137.0</ele><time>2026-04-11T12:01:57.002Z</time></trkpt><trkpt lat="44.31477556679229" lon="9.94484870084237"><ele>137.0</ele><time>2026-04-11T12:01:58.002Z</time></trkpt><trkpt lat="44.314539022163125" lon="9.944951782915822"><ele>138.0</ele><time>2026-04-11T12:01:59.002Z</time></trkpt><trkpt lat="44.31430222461271" lon="9.945056499789791"><ele>139.0</ele><time>2026-04-11T12:02:00.002Z</time></trkpt><trkpt lat="44.31406691126709" lon="9.945161846052955"><ele>139.5</ele><time>2026-04-11T12:02:01.002Z</time></trkpt><trkpt lat="44.313832612741635" lon="9.945263593365063"><ele>140.0</ele><time>2026-04-11T12:02:02.002Z</time></trkpt><trkpt lat="44.3136025780078" lon="9.945362324458946"><ele>140.0</ele><time>2026-04-11T12:02:03.002Z</time></trkpt><trkpt lat="44.31337066369514" lon="9.945459958603253"><ele>140.0</ele><time>2026-04-11T12:02:04.002Z</time></trkpt><trkpt lat="44.31314240774896" lon="9.945555364605495"><ele>139.66666666666666</ele><time>2026-04-11T12:02:05.002Z</time></trkpt><trkpt lat="44.31292516737819" lon="9.945646731189141"><ele>139.33333333333334</ele><time>2026-04-11T12:02:06.002Z</time></trkpt><trkpt lat="44.31272509989941" lon="9.945738352228794"><ele>139.0</ele><time>2026-04-11T12:02:07.002Z</time></trkpt><trkpt lat="44.31254005082661" lon="9.945818437014163"><ele>139.33333333333334</ele><time>2026-04-11T12:02:08.002Z</time></trkpt><trkpt lat="44.312363869656664" lon="9.945884165534881"><ele>139.66666666666666</ele><time>2026-04-11T12:02:09.002Z</time></trkpt><trkpt lat="44.31219623727173" lon="9.945954965941855"><ele>140.0</ele><time>2026-04-11T12:02:10.002Z</time></trkpt><trkpt lat="44.31202678954048" lon="9.946023018729447"><ele>140.0</ele><time>2026-04-11T12:02:11.002Z</time></trkpt><trkpt lat="44.311863373606855" lon="9.946111656235297"><ele>140.0</ele><time>2026-04-11T12:02:12.002Z</time></trkpt><trkpt lat="44.311712566316004" lon="9.946201218756103"><ele>140.0</ele><time>2026-04-11T12:02:13.002Z</time></trkpt><trkpt lat="44.31157427355332" lon="9.946319984452947"><ele>140.0</ele><time>2026-04-11T12:02:14.002Z</time></trkpt><trkpt lat="44.31144886422545" lon="9.946439598192686"><ele>140.0</ele><time>2026-04-11T12:02:15.002Z</time></trkpt><trkpt lat="44.311331801748764" lon="9.94655310501242"><ele>140.0</ele><time>2026-04-11T12:02:16.002Z</time></trkpt><trkpt lat="44.31121138155449" lon="9.9466465807652"><ele>140.0</ele><time>2026-04-11T12:02:17.002Z</time></trkpt><trkpt lat="44.311072929714165" lon="9.946712949812456"><ele>140.5</ele><time>2026-04-11T12:02:18.002Z</time></trkpt><trkpt lat="44.310923553111905" lon="9.946747098522314"><ele>141.0</ele><time>2026-04-11T12:02:19.002Z</time></trkpt><trkpt lat="44.310775854378484" lon="9.946748087521938"><ele>141.5</ele><time>2026-04-11T12:02:20.002Z</time></trkpt><trkpt lat="44.31062654936237" lon="9.9467234120002"><ele>142.0</ele><time>2026-04-11T12:02:21.002Z</time></trkpt><trkpt lat="44.310484556630556" lon="9.946687706065307"><ele>142.0</ele><time>2026-04-11T12:02:22.002Z</time></trkpt><trkpt lat="44.31035229505266" lon="9.946660367767251"><ele>142.0</ele><time>2026-04-11T12:02:23.002Z</time></trkpt><trkpt lat="44.31022752176714" lon="9.946627415352006"><ele>142.0</ele><time>2026-04-11T12:02:24.002Z</time></trkpt><trkpt lat="44.31009915947485" lon="9.946600267263532"><ele>142.0</ele><time>2026-04-11T12:02:25.002Z</time></trkpt><trkpt lat="44.30996066596033" lon="9.946581903672818"><ele>142.0</ele><time>2026-04-11T12:02:26.002Z</time></trkpt><trkpt lat="44.30981785883776" lon="9.946554726196277"><ele>142.0</ele><time>2026-04-11T12:02:27.002Z</time></trkpt><trkpt lat="44.3096681573886" lon="9.946534716931323"><ele>142.0</ele><time>2026-04-11T12:02:28.002Z</time></trkpt><trkpt lat="44.309523076412894" lon="9.946514347566124"><ele>142.0</ele><time>2026-04-11T12:02:29.002Z</time></trkpt><trkpt lat="44.30938219376681" lon="9.946494191887698"><ele>142.0</ele><time>2026-04-11T12:02:30.002Z</time></trkpt><trkpt lat="44.30923683626596" lon="9.946478660331707"><ele>142.0</ele><time>2026-04-11T12:02:31.002Z</time></trkpt><trkpt lat="44.3090788748598" lon="9.946456525403914"><ele>142.0</ele><time>2026-04-11T12:02:32.002Z</time></trkpt><trkpt lat="44.308895631030694" lon="9.946467505940962"><ele>142.33333333333334</ele><time>2026-04-11T12:02:33.002Z</time></trkpt><trkpt lat="44.30869396240353" lon="9.946495807917719"><ele>142.66666666666666</ele><time>2026-04-11T12:02:34.002Z</time></trkpt><trkpt lat="44.308508265546244" lon="9.946527883363599"><ele>143.0</ele><time>2026-04-11T12:02:35.002Z</time></trkpt><trkpt lat="44.30833939620488" lon="9.946564967000663"><ele>143.0</ele><time>2026-04-11T12:02:36.002Z</time></trkpt><trkpt lat="44.308176958163436" lon="9.946600513622737"><ele>143.0</ele><time>2026-04-11T12:02:37.002Z</time></trkpt><trkpt lat="44.308015015882624" lon="9.946630787266376"><ele>143.0</ele><time>2026-04-11T12:02:38.002Z</time></trkpt><trkpt lat="44.307856823582654" lon="9.946656149670272"><ele>143.0</ele><time>2026-04-11T12:02:39.002Z</time></trkpt><trkpt lat="44.3077011232021" lon="9.946661202645394"><ele>143.0</ele><time>2026-04-11T12:02:40.002Z</time></trkpt><trkpt lat="44.30754789290936" lon="9.946648783996087"><ele>143.0</ele><time>2026-04-11T12:02:41.002Z</time></trkpt><trkpt lat="44.30739157753405" lon="9.946628614829589"><ele>143.0</ele><time>2026-04-11T12:02:42.002Z</time></trkpt><trkpt lat="44.30724402278815" lon="9.94660709202335"><ele>143.0</ele><time>2026-04-11T12:02:43.002Z</time></trkpt><trkpt lat="44.30709508795344" lon="9.946589872571423"><ele>143.0</ele><time>2026-04-11T12:02:44.002Z</time></trkpt><trkpt lat="44.306948540822184" lon="9.946573489656522"><ele>143.0</ele><time>2026-04-11T12:02:45.002Z</time></trkpt><trkpt lat="44.3068057321312" lon="9.946557723948127"><ele>143.0</ele><time>2026-04-11T12:02:46.002Z</time></trkpt><trkpt lat="44.306662673608095" lon="9.94654818319335"><ele>143.0</ele><time>2026-04-11T12:02:47.002Z</time></trkpt><trkpt lat="44.30652057523512" lon="9.946537518733273"><ele>143.0</ele><time>2026-04-11T12:02:48.002Z</time></trkpt><trkpt lat="44.30637798255428" lon="9.94654637309937"><ele>143.0</ele><time>2026-04-11T12:02:49.002Z</time></trkpt><trkpt lat="44.30624297675247" lon="9.946595751162011"><ele>143.25</ele><time>2026-04-11T12:02:50.002Z</time></trkpt><trkpt lat="44.30611462406554" lon="9.94668339199111"><ele>143.5</ele><time>2026-04-11T12:02:51.002Z</time></trkpt><trkpt lat="44.30599325450546" lon="9.946769886133803"><ele>143.75</ele><time>2026-04-11T12:02:52.002Z</time></trkpt><trkpt lat="44.30587578804526" lon="9.94684798883897"><ele>144.0</ele><time>2026-04-11T12:02:53.002Z</time></trkpt><trkpt lat="44.305755697868456" lon="9.946915617157622"><ele>144.5</ele><time>2026-04-11T12:02:54.002Z</time></trkpt><trkpt lat="44.30563393670355" lon="9.946981265784952"><ele>145.0</ele><time>2026-04-11T12:02:55.002Z</time></trkpt><trkpt lat="44.30550553835025" lon="9.947049944856673"><ele>145.5</ele><time>2026-04-11T12:02:56.002Z</time></trkpt><trkpt lat="44.30537383809401" lon="9.947114853972776"><ele>146.0</ele><time>2026-04-11T12:02:57.002Z</time></trkpt><trkpt lat="44.30523711632558" lon="9.947163845429555"><ele>146.0</ele><time>2026-04-11T12:02:58.002Z</time></trkpt><trkpt lat="44.305096538104394" lon="9.94720389126785"><ele>146.0</ele><time>2026-04-11T12:02:59.002Z</time></trkpt><trkpt lat="44.30495620189828" lon="9.947236947213423"><ele>146.0</ele><time>2026-04-11T12:03:00.002Z</time></trkpt><trkpt lat="44.304816120782256" lon="9.947273461914078"><ele>146.0</ele><time>2026-04-11T12:03:01.002Z</time></trkpt><trkpt lat="44.304680740884386" lon="9.947304978045304"><ele>145.5</ele><time>2026-04-11T12:03:02.002Z</time></trkpt><trkpt lat="44.304546375551865" lon="9.947348263168186"><ele>145.0</ele><time>2026-04-11T12:03:03.002Z</time></trkpt><trkpt lat="44.30441224494196" lon="9.94738238862242"><ele>144.5</ele><time>2026-04-11T12:03:04.002Z</time></trkpt><trkpt lat="44.3042790878246" lon="9.947419600982995"><ele>144.0</ele><time>2026-04-11T12:03:05.002Z</time></trkpt><trkpt lat="44.30414244453853" lon="9.947455387086485"><ele>144.0</ele><time>2026-04-11T12:03:06.002Z</time></trkpt><trkpt lat="44.304006769678274" lon="9.947489597824266"><ele>144.0</ele><time>2026-04-11T12:03:07.002Z</time></trkpt><trkpt lat="44.30386774451575" lon="9.947528909768778"><ele>144.0</ele><time>2026-04-11T12:03:08.002Z</time></trkpt><trkpt lat="44.30373097329202" lon="9.947567573741221"><ele>144.0</ele><time>2026-04-11T12:03:09.002Z</time></trkpt><trkpt lat="44.30359633268585" lon="9.947601742050212"><ele>144.25</ele><time>2026-04-11T12:03:10.002Z</time></trkpt><trkpt lat="44.303462664594846" lon="9.94763299140371"><ele>144.5</ele><time>2026-04-11T12:03:11.002Z</time></trkpt><trkpt lat="44.303330327405334" lon="9.947666012215157"><ele>144.75</ele><time>2026-04-11T12:03:12.002Z</time></trkpt><trkpt lat="44.30319920463583" lon="9.947699043228239"><ele>145.0</ele><time>2026-04-11T12:03:13.002Z</time></trkpt><trkpt lat="44.30306369935034" lon="9.947731267137291"><ele>145.0</ele><time>2026-04-11T12:03:14.002Z</time></trkpt><trkpt lat="44.30292492503351" lon="9.94776829012823"><ele>145.0</ele><time>2026-04-11T12:03:15.002Z</time></trkpt><trkpt lat="44.30278418780889" lon="9.947809115726528"><ele>145.0</ele><time>2026-04-11T12:03:16.002Z</time></trkpt><trkpt lat="44.30264525829388" lon="9.947848697586513"><ele>145.0</ele><time>2026-04-11T12:03:17.002Z</time></trkpt><trkpt lat="44.30250551830132" lon="9.947893694495713"><ele>145.0</ele><time>2026-04-11T12:03:18.002Z</time></trkpt><trkpt lat="44.30236282016095" lon="9.947939982958935"><ele>145.0</ele><time>2026-04-11T12:03:19.002Z</time></trkpt><trkpt lat="44.302221421415595" lon="9.947986084582016"><ele>145.0</ele><time>2026-04-11T12:03:20.002Z</time></trkpt><trkpt lat="44.30208133778741" lon="9.948039673086992"><ele>145.0</ele><time>2026-04-11T12:03:21.002Z</time></trkpt><trkpt lat="44.30194019666316" lon="9.948097106662042"><ele>145.25</ele><time>2026-04-11T12:03:22.002Z</time></trkpt><trkpt lat="44.301797083241034" lon="9.948154879104367"><ele>145.5</ele><time>2026-04-11T12:03:23.002Z</time></trkpt><trkpt lat="44.30165438158401" lon="9.948212624910507"><ele>145.75</ele><time>2026-04-11T12:03:24.002Z</time></trkpt><trkpt lat="44.30150922597305" lon="9.948273030887217"><ele>146.0</ele><time>2026-04-11T12:03:25.002Z</time></trkpt><trkpt lat="44.30136426108332" lon="9.948329566025842"><ele>145.0</ele><time>2026-04-11T12:03:26.002Z</time></trkpt><trkpt lat="44.30122094455874" lon="9.948384556505165"><ele>144.0</ele><time>2026-04-11T12:03:27.002Z</time></trkpt><trkpt lat="44.30107812073569" lon="9.948444140273567"><ele>143.0</ele><time>2026-04-11T12:03:28.003Z</time></trkpt><trkpt lat="44.300936260433346" lon="9.948502282909299"><ele>142.0</ele><time>2026-04-11T12:03:29.003Z</time></trkpt><trkpt lat="44.30079275554197" lon="9.948555555103876"><ele>142.0</ele><time>2026-04-11T12:03:30.003Z</time></trkpt><trkpt lat="44.30064903490914" lon="9.948607971771901"><ele>142.0</ele><time>2026-04-11T12:03:31.003Z</time></trkpt><trkpt lat="44.30050470638408" lon="9.948659264194898"><ele>142.0</ele><time>2026-04-11T12:03:32.003Z</time></trkpt><trkpt lat="44.300363582700854" lon="9.94870753176389"><ele>142.0</ele><time>2026-04-11T12:03:33.003Z</time></trkpt><trkpt lat="44.300219592254074" lon="9.948752532238982"><ele>142.0</ele><time>2026-04-11T12:03:34.003Z</time></trkpt><trkpt lat="44.30007926572019" lon="9.948796694417693"><ele>142.0</ele><time>2026-04-11T12:03:35.003Z</time></trkpt><trkpt lat="44.2999346882464" lon="9.948840619355828"><ele>142.0</ele><time>2026-04-11T12:03:36.003Z</time></trkpt><trkpt lat="44.299788834040505" lon="9.948878453181692"><ele>142.0</ele><time>2026-04-11T12:03:37.003Z</time></trkpt><trkpt lat="44.299643076472705" lon="9.948908741256849"><ele>142.0</ele><time>2026-04-11T12:03:38.003Z</time></trkpt><trkpt lat="44.29950382625963" lon="9.948934841857216"><ele>142.0</ele><time>2026-04-11T12:03:39.003Z</time></trkpt><trkpt lat="44.299373413898934" lon="9.94895080838165"><ele>142.0</ele><time>2026-04-11T12:03:40.003Z</time></trkpt><trkpt lat="44.29924142731007" lon="9.94896329064846"><ele>142.0</ele><time>2026-04-11T12:03:41.003Z</time></trkpt><trkpt lat="44.29911255481648" lon="9.94897689437864"><ele>142.0</ele><time>2026-04-11T12:03:42.003Z</time></trkpt><trkpt lat="44.2989882053597" lon="9.948992240090877"><ele>142.0</ele><time>2026-04-11T12:03:43.003Z</time></trkpt><trkpt lat="44.298864492446555" lon="9.94901062173994"><ele>142.0</ele><time>2026-04-11T12:03:44.003Z</time></trkpt><trkpt lat="44.29874515910963" lon="9.949024585889942"><ele>142.0</ele><time>2026-04-11T12:03:45.003Z</time></trkpt><trkpt lat="44.298628074588876" lon="9.949037276047504"><ele>142.25</ele><time>2026-04-11T12:03:46.003Z</time></trkpt><trkpt lat="44.29851390136225" lon="9.94904818189958"><ele>142.5</ele><time>2026-04-11T12:03:47.003Z</time></trkpt><trkpt lat="44.29840054202407" lon="9.949061782699443"><ele>142.75</ele><time>2026-04-11T12:03:48.003Z</time></trkpt><trkpt lat="44.29828667721992" lon="9.949077633392536"><ele>143.0</ele><time>2026-04-11T12:03:49.003Z</time></trkpt><trkpt lat="44.29817163484369" lon="9.949099468875067"><ele>143.0</ele><time>2026-04-11T12:03:50.003Z</time></trkpt><trkpt lat="44.29805375462084" lon="9.949121960266135"><ele>143.0</ele><time>2026-04-11T12:03:51.003Z</time></trkpt><trkpt lat="44.297937412342236" lon="9.949136234231645"><ele>143.0</ele><time>2026-04-11T12:03:52.003Z</time></trkpt><trkpt lat="44.29781991287736" lon="9.949158593701872"><ele>143.0</ele><time>2026-04-11T12:03:53.003Z</time></trkpt><trkpt lat="44.29770417907882" lon="9.949197750011002"><ele>143.25</ele><time>2026-04-11T12:03:54.003Z</time></trkpt><trkpt lat="44.29758684731498" lon="9.949254673471822"><ele>143.5</ele><time>2026-04-11T12:03:55.003Z</time></trkpt><trkpt lat="44.297466574465616" lon="9.949312243560975"><ele>143.75</ele><time>2026-04-11T12:03:56.003Z</time></trkpt><trkpt lat="44.29734801173808" lon="9.949362250160743"><ele>144.0</ele><time>2026-04-11T12:03:57.003Z</time></trkpt><trkpt lat="44.297228704151294" lon="9.94941289594624"><ele>143.5</ele><time>2026-04-11T12:03:58.003Z</time></trkpt><trkpt lat="44.297109529745306" lon="9.949465063361895"><ele>143.0</ele><time>2026-04-11T12:03:59.003Z</time></trkpt><trkpt lat="44.2969934041648" lon="9.949518780046592"><ele>142.5</ele><time>2026-04-11T12:04:00.003Z</time></trkpt><trkpt lat="44.29687789204702" lon="9.949567395653014"><ele>142.0</ele><time>2026-04-11T12:04:01.003Z</time></trkpt><trkpt lat="44.29676521153414" lon="9.94961730649982"><ele>142.0</ele><time>2026-04-11T12:04:02.003Z</time></trkpt><trkpt lat="44.29665630933904" lon="9.949662343967663"><ele>142.0</ele><time>2026-04-11T12:04:03.003Z</time></trkpt><trkpt lat="44.296547883463255" lon="9.949732014246525"><ele>142.0</ele><time>2026-04-11T12:04:04.003Z</time></trkpt><trkpt lat="44.29644768435467" lon="9.949808352852866"><ele>142.0</ele><time>2026-04-11T12:04:05.003Z</time></trkpt><trkpt lat="44.29634758570624" lon="9.949901410510153"><ele>141.6</ele><time>2026-04-11T12:04:06.003Z</time></trkpt><trkpt lat="44.29626373911716" lon="9.9499954962269"><ele>141.2</ele><time>2026-04-11T12:04:07.003Z</time></trkpt><trkpt lat="44.29618580837183" lon="9.9500829647536"><ele>140.8</ele><time>2026-04-11T12:04:08.003Z</time></trkpt><trkpt lat="44.29610958826837" lon="9.950166599978724"><ele>140.4</ele><time>2026-04-11T12:04:09.003Z</time></trkpt><trkpt lat="44.29603610705495" lon="9.950252258041688"><ele>140.0</ele><time>2026-04-11T12:04:10.003Z</time></trkpt><trkpt lat="44.29595752888657" lon="9.950337491082005"><ele>140.0</ele><time>2026-04-11T12:04:11.003Z</time></trkpt><trkpt lat="44.295871887885646" lon="9.950430365930293"><ele>140.0</ele><time>2026-04-11T12:04:12.003Z</time></trkpt><trkpt lat="44.29578088458729" lon="9.9505009096529"><ele>140.0</ele><time>2026-04-11T12:04:13.003Z</time></trkpt><trkpt lat="44.295688535065516" lon="9.950558614008678"><ele>140.0</ele><time>2026-04-11T12:04:14.003Z</time></trkpt><trkpt lat="44.29558936241993" lon="9.95061352474316"><ele>140.0</ele><time>2026-04-11T12:04:15.003Z</time></trkpt><trkpt lat="44.29548052751316" lon="9.950651718577118"><ele>139.0</ele><time>2026-04-11T12:04:16.003Z</time></trkpt><trkpt lat="44.295356613990315" lon="9.950715658884784"><ele>138.0</ele><time>2026-04-11T12:04:17.003Z</time></trkpt><trkpt lat="44.29523044289553" lon="9.950758103995682"><ele>137.0</ele><time>2026-04-11T12:04:18.003Z</time></trkpt><trkpt lat="44.2951237444475" lon="9.950794967152135"><ele>136.0</ele><time>2026-04-11T12:04:19.003Z</time></trkpt><trkpt lat="44.295020785693204" lon="9.950833026504107"><ele>136.0</ele><time>2026-04-11T12:04:20.003Z</time></trkpt><trkpt lat="44.29492138529817" lon="9.950870106027368"><ele>136.0</ele><time>2026-04-11T12:04:21.003Z</time></trkpt><trkpt lat="44.29481660954719" lon="9.950912433392675"><ele>136.0</ele><time>2026-04-11T12:04:22.003Z</time></trkpt><trkpt lat="44.29471815307044" lon="9.950936284192021"><ele>136.0</ele><time>2026-04-11T12:04:23.003Z</time></trkpt><trkpt lat="44.29461893124213" lon="9.950975576588018"><ele>136.0</ele><time>2026-04-11T12:04:24.003Z</time></trkpt><trkpt lat="44.29451455714598" lon="9.9510111612069"><ele>135.25</ele><time>2026-04-11T12:04:25.003Z</time></trkpt><trkpt lat="44.294406013036316" lon="9.95105029387873"><ele>134.5</ele><time>2026-04-11T12:04:26.003Z</time></trkpt><trkpt lat="44.29429351911814" lon="9.951094941552933"><ele>133.75</ele><time>2026-04-11T12:04:27.003Z</time></trkpt><trkpt lat="44.294179159241345" lon="9.951131458963559"><ele>133.0</ele><time>2026-04-11T12:04:28.003Z</time></trkpt><trkpt lat="44.29406523544331" lon="9.95117375085245"><ele>133.0</ele><time>2026-04-11T12:04:29.003Z</time></trkpt><trkpt lat="44.293952870427844" lon="9.95121509143628"><ele>133.0</ele><time>2026-04-11T12:04:30.003Z</time></trkpt><trkpt lat="44.293838698307795" lon="9.951260699506157"><ele>133.0</ele><time>2026-04-11T12:04:31.003Z</time></trkpt><trkpt lat="44.293723577964215" lon="9.951300514417134"><ele>133.0</ele><time>2026-04-11T12:04:32.003Z</time></trkpt><trkpt lat="44.29360693079459" lon="9.951331384129503"><ele>132.0</ele><time>2026-04-11T12:04:33.003Z</time></trkpt><trkpt lat="44.29349341492399" lon="9.951370985668541"><ele>131.0</ele><time>2026-04-11T12:04:34.003Z</time></trkpt><trkpt lat="44.29337844837427" lon="9.951411067651803"><ele>130.0</ele><time>2026-04-11T12:04:35.003Z</time></trkpt><trkpt lat="44.293271853669424" lon="9.951447850072558"><ele>129.0</ele><time>2026-04-11T12:04:36.003Z</time></trkpt><trkpt lat="44.293170520843276" lon="9.951482339162716"><ele>128.83333333333334</ele><time>2026-04-11T12:04:37.003Z</time></trkpt><trkpt lat="44.29308246889761" lon="9.951508939200805"><ele>128.66666666666666</ele><time>2026-04-11T12:04:38.003Z</time></trkpt><trkpt lat="44.2930156707822" lon="9.951563845454496"><ele>128.5</ele><time>2026-04-11T12:04:39.003Z</time></trkpt><trkpt lat="44.29296773941205" lon="9.95163662551018"><ele>128.33333333333331</ele><time>2026-04-11T12:04:40.003Z</time></trkpt><trkpt lat="44.29289541176882" lon="9.951716413081671"><ele>128.16666666666666</ele><time>2026-04-11T12:04:42.003Z</time></trkpt><trkpt lat="44.292830106238654" lon="9.95174713829202"><ele>128.0</ele><time>2026-04-11T12:04:45.003Z</time></trkpt><trkpt lat="44.29267030442035" lon="9.95163787780641"><ele>127.83333333333333</ele><time>2026-04-11T12:06:52.005Z</time></trkpt><trkpt lat="44.2927488465113" lon="9.951708056407979"><ele>127.66666666666666</ele><time>2026-04-11T12:08:37.006Z</time></trkpt><trkpt lat="44.29268119747673" lon="9.951785527300377"><ele>127.5</ele><time>2026-04-11T12:08:45.006Z</time></trkpt><trkpt lat="44.29260614313022" lon="9.95180809963759"><ele>127.33333333333334</ele><time>2026-04-11T12:08:48.006Z</time></trkpt><trkpt lat="44.292542047600094" lon="9.951765520612568"><ele>127.16666666666667</ele><time>2026-04-11T12:08:52.006Z</time></trkpt><trkpt lat="44.29246052952635" lon="9.951771970968124"><ele>127.0</ele><time>2026-04-11T12:09:03.006Z</time></trkpt><trkpt lat="44.292387307481675" lon="9.9517619844446"><ele>127.0</ele><time>2026-04-11T12:09:04.006Z</time></trkpt><trkpt lat="44.29230462949168" lon="9.951769627915912"><ele>126.99999999999999</ele><time>2026-04-11T12:09:05.006Z</time></trkpt><trkpt lat="44.2922162175721" lon="9.951790205628894"><ele>126.99999999999999</ele><time>2026-04-11T12:09:06.006Z</time></trkpt><trkpt lat="44.29210729899992" lon="9.95180228995625"><ele>127.0</ele><time>2026-04-11T12:09:07.006Z</time></trkpt><trkpt lat="44.29199399572367" lon="9.951806711374537"><ele>127.0</ele><time>2026-04-11T12:09:08.006Z</time></trkpt><trkpt lat="44.29187220858337" lon="9.951805835693289"><ele>127.0</ele><time>2026-04-11T12:09:09.006Z</time></trkpt><trkpt lat="44.291747603740475" lon="9.951786380070466"><ele>127.0</ele><time>2026-04-11T12:09:10.006Z</time></trkpt><trkpt lat="44.29160907108113" lon="9.951738541054546"><ele>127.0</ele><time>2026-04-11T12:09:11.006Z</time></trkpt><trkpt lat="44.29143264912572" lon="9.951695777491718"><ele>127.0</ele><time>2026-04-11T12:09:12.006Z</time></trkpt><trkpt lat="44.29126658574442" lon="9.951666590899956"><ele>128.5</ele><time>2026-04-11T12:09:13.006Z</time></trkpt><trkpt lat="44.29113311956278" lon="9.951635156314733"><ele>130.0</ele><time>2026-04-11T12:09:14.006Z</time></trkpt><trkpt lat="44.29101319784972" lon="9.951615684827704"><ele>131.5</ele><time>2026-04-11T12:09:15.006Z</time></trkpt><trkpt lat="44.29090045950703" lon="9.95158985628599"><ele>133.0</ele><time>2026-04-11T12:09:16.006Z</time></trkpt><trkpt lat="44.290795747061146" lon="9.951558652940822"><ele>133.0</ele><time>2026-04-11T12:09:17.006Z</time></trkpt><trkpt lat="44.290704716323205" lon="9.951499697766772"><ele>133.0</ele><time>2026-04-11T12:09:18.006Z</time></trkpt><trkpt lat="44.29063249541824" lon="9.951406815731707"><ele>133.0</ele><time>2026-04-11T12:09:19.006Z</time></trkpt><trkpt lat="44.290572572427855" lon="9.951287157177266"><ele>133.0</ele><time>2026-04-11T12:09:20.006Z</time></trkpt><trkpt lat="44.29051439407982" lon="9.951173526254081"><ele>133.0</ele><time>2026-04-11T12:09:21.006Z</time></trkpt><trkpt lat="44.29046132257767" lon="9.951045020809854"><ele>133.75</ele><time>2026-04-11T12:09:22.006Z</time></trkpt><trkpt lat="44.29040801128225" lon="9.950908692994766"><ele>134.5</ele><time>2026-04-11T12:09:23.006Z</time></trkpt><trkpt lat="44.29034875440607" lon="9.950764090821938"><ele>135.25</ele><time>2026-04-11T12:09:24.006Z</time></trkpt><trkpt lat="44.29028640826823" lon="9.950618977364737"><ele>136.0</ele><time>2026-04-11T12:09:25.006Z</time></trkpt><trkpt lat="44.290222084479076" lon="9.950470044211972"><ele>136.0</ele><time>2026-04-11T12:09:26.006Z</time></trkpt><trkpt lat="44.29016401695002" lon="9.950318653631046"><ele>136.0</ele><time>2026-04-11T12:09:27.006Z</time></trkpt><trkpt lat="44.290104008661714" lon="9.950167441381188"><ele>136.0</ele><time>2026-04-11T12:09:28.006Z</time></trkpt><trkpt lat="44.29004773125771" lon="9.95001205609104"><ele>136.0</ele><time>2026-04-11T12:09:29.006Z</time></trkpt><trkpt lat="44.28999119860983" lon="9.949866952229828"><ele>135.4</ele><time>2026-04-11T12:09:30.006Z</time></trkpt><trkpt lat="44.28993191664805" lon="9.949727937499752"><ele>134.8</ele><time>2026-04-11T12:09:31.006Z</time></trkpt><trkpt lat="44.28987507371529" lon="9.949595511215076"><ele>134.20000000000002</ele><time>2026-04-11T12:09:32.006Z</time></trkpt><trkpt lat="44.289817594553796" lon="9.94946805083496"><ele>133.6</ele><time>2026-04-11T12:09:33.006Z</time></trkpt><trkpt lat="44.28975930935332" lon="9.949340316808923"><ele>133.0</ele><time>2026-04-11T12:09:34.006Z</time></trkpt><trkpt lat="44.28970470605433" lon="9.949210890705215"><ele>133.20000000000002</ele><time>2026-04-11T12:09:35.006Z</time></trkpt><trkpt lat="44.289652466490466" lon="9.949082844352994"><ele>133.4</ele><time>2026-04-11T12:09:36.006Z</time></trkpt><trkpt lat="44.2895994596471" lon="9.948965139532548"><ele>133.60000000000002</ele><time>2026-04-11T12:09:37.006Z</time></trkpt><trkpt lat="44.28954786794849" lon="9.948852687169493"><ele>133.8</ele><time>2026-04-11T12:09:38.006Z</time></trkpt><trkpt lat="44.289497333649734" lon="9.948733859922346"><ele>134.0</ele><time>2026-04-11T12:09:39.006Z</time></trkpt><trkpt lat="44.28944244764972" lon="9.948606889066905"><ele>134.0</ele><time>2026-04-11T12:09:40.006Z</time></trkpt><trkpt lat="44.289384278280046" lon="9.948472255618197"><ele>134.0</ele><time>2026-04-11T12:09:41.006Z</time></trkpt><trkpt lat="44.28931957034597" lon="9.948332612121112"><ele>134.0</ele><time>2026-04-11T12:09:42.006Z</time></trkpt><trkpt lat="44.28923244956699" lon="9.94820771244926"><ele>134.0</ele><time>2026-04-11T12:09:43.006Z</time></trkpt><trkpt lat="44.28912910041805" lon="9.948107140472764"><ele>132.75</ele><time>2026-04-11T12:09:44.006Z</time></trkpt><trkpt lat="44.28901413698384" lon="9.948038018041212"><ele>131.5</ele><time>2026-04-11T12:09:45.006Z</time></trkpt><trkpt lat="44.28889016998387" lon="9.947991520423015"><ele>130.25</ele><time>2026-04-11T12:09:46.006Z</time></trkpt><trkpt lat="44.2887663633421" lon="9.947982488610055"><ele>129.0</ele><time>2026-04-11T12:09:47.007Z</time></trkpt><trkpt lat="44.288636889969176" lon="9.948000883188548"><ele>131.5</ele><time>2026-04-11T12:09:48.007Z</time></trkpt><trkpt lat="44.2884992578131" lon="9.948040509224349"><ele>134.0</ele><time>2026-04-11T12:09:49.007Z</time></trkpt><trkpt lat="44.28836414839746" lon="9.94808989954844"><ele>136.5</ele><time>2026-04-11T12:09:50.007Z</time></trkpt><trkpt lat="44.288229793342786" lon="9.948151984210876"><ele>139.0</ele><time>2026-04-11T12:09:51.007Z</time></trkpt><trkpt lat="44.28809984817681" lon="9.948202611024582"><ele>137.25</ele><time>2026-04-11T12:09:52.007Z</time></trkpt><trkpt lat="44.28796625493404" lon="9.948256105528603"><ele>135.5</ele><time>2026-04-11T12:09:53.007Z</time></trkpt><trkpt lat="44.28783021210926" lon="9.948306112044516"><ele>133.75</ele><time>2026-04-11T12:09:54.007Z</time></trkpt><trkpt lat="44.28770191500766" lon="9.948356914983462"><ele>132.0</ele><time>2026-04-11T12:09:55.007Z</time></trkpt><trkpt lat="44.28757004786397" lon="9.948406995412144"><ele>136.0</ele><time>2026-04-11T12:09:56.007Z</time></trkpt><trkpt lat="44.287430537227166" lon="9.948447240744436"><ele>140.0</ele><time>2026-04-11T12:09:57.007Z</time></trkpt><trkpt lat="44.28728868069297" lon="9.948482780577072"><ele>144.0</ele><time>2026-04-11T12:09:58.007Z</time></trkpt><trkpt lat="44.287149400566946" lon="9.948510005741309"><ele>148.0</ele><time>2026-04-11T12:09:59.007Z</time></trkpt><trkpt lat="44.287010229503636" lon="9.948538039419686"><ele>148.0</ele><time>2026-04-11T12:10:00.007Z</time></trkpt><trkpt lat="44.286873507721445" lon="9.94856591864007"><ele>148.0</ele><time>2026-04-11T12:10:01.007Z</time></trkpt><trkpt lat="44.28673343490739" lon="9.948589590790993"><ele>148.0</ele><time>2026-04-11T12:10:02.007Z</time></trkpt><trkpt lat="44.2865927900482" lon="9.94861510589899"><ele>148.0</ele><time>2026-04-11T12:10:03.007Z</time></trkpt><trkpt lat="44.28646006257257" lon="9.948640841707416"><ele>145.25</ele><time>2026-04-11T12:10:04.007Z</time></trkpt><trkpt lat="44.28633094312852" lon="9.94866800514938"><ele>142.5</ele><time>2026-04-11T12:10:05.007Z</time></trkpt><trkpt lat="44.28620162155342" lon="9.948698211893758"><ele>139.75</ele><time>2026-04-11T12:10:06.007Z</time></trkpt><trkpt lat="44.2860758803949" lon="9.94872994085103"><ele>137.0</ele><time>2026-04-11T12:10:07.007Z</time></trkpt><trkpt lat="44.28595933317437" lon="9.948762470094618"><ele>137.0</ele><time>2026-04-11T12:10:08.007Z</time></trkpt><trkpt lat="44.28585058039925" lon="9.948794516304753"><ele>137.0</ele><time>2026-04-11T12:10:09.007Z</time></trkpt><trkpt lat="44.2857369760091" lon="9.948833927598564"><ele>137.0</ele><time>2026-04-11T12:10:10.007Z</time></trkpt><trkpt lat="44.285625219874376" lon="9.948879451225565"><ele>137.0</ele><time>2026-04-11T12:10:11.007Z</time></trkpt><trkpt lat="44.28551886704521" lon="9.948922201698803"><ele>135.25</ele><time>2026-04-11T12:10:12.007Z</time></trkpt><trkpt lat="44.28540697365922" lon="9.948963408425119"><ele>133.5</ele><time>2026-04-11T12:10:13.007Z</time></trkpt><trkpt lat="44.28529159224776" lon="9.949008445379738"><ele>131.75</ele><time>2026-04-11T12:10:14.007Z</time></trkpt><trkpt lat="44.28517022498886" lon="9.949059010325296"><ele>130.0</ele><time>2026-04-11T12:10:15.007Z</time></trkpt><trkpt lat="44.285034324122044" lon="9.949118464584437"><ele>130.0</ele><time>2026-04-11T12:10:16.007Z</time></trkpt><trkpt lat="44.28487696357319" lon="9.949178937712187"><ele>130.0</ele><time>2026-04-11T12:10:17.007Z</time></trkpt><trkpt lat="44.28470609558241" lon="9.949239425113559"><ele>130.0</ele><time>2026-04-11T12:10:18.007Z</time></trkpt><trkpt lat="44.28453887662323" lon="9.949297304221874"><ele>129.66666666666669</ele><time>2026-04-11T12:10:19.007Z</time></trkpt><trkpt lat="44.284385993515535" lon="9.949353164599472"><ele>129.33333333333334</ele><time>2026-04-11T12:10:20.007Z</time></trkpt><trkpt lat="44.28422898305088" lon="9.949411280412862"><ele>129.0</ele><time>2026-04-11T12:10:21.007Z</time></trkpt><trkpt lat="44.284063893860335" lon="9.94947170844258"><ele>126.66666666666666</ele><time>2026-04-11T12:10:22.007Z</time></trkpt><trkpt lat="44.28389120387253" lon="9.949539514466572"><ele>124.33333333333333</ele><time>2026-04-11T12:10:23.007Z</time></trkpt><trkpt lat="44.28371485780385" lon="9.949614298187225"><ele>122.0</ele><time>2026-04-11T12:10:24.007Z</time></trkpt><trkpt lat="44.28354109681603" lon="9.949703970549157"><ele>122.0</ele><time>2026-04-11T12:10:25.007Z</time></trkpt><trkpt lat="44.28337044888126" lon="9.949823095142715"><ele>122.0</ele><time>2026-04-11T12:10:26.007Z</time></trkpt><trkpt lat="44.283207329716575" lon="9.949961721685032"><ele>122.0</ele><time>2026-04-11T12:10:27.007Z</time></trkpt><trkpt lat="44.28304793620502" lon="9.950113786374857"><ele>120.33333333333333</ele><time>2026-04-11T12:10:28.007Z</time></trkpt><trkpt lat="44.28289853537802" lon="9.950268540539382"><ele>118.66666666666666</ele><time>2026-04-11T12:10:29.007Z</time></trkpt><trkpt lat="44.28275199210932" lon="9.950422686940689"><ele>117.0</ele><time>2026-04-11T12:10:30.007Z</time></trkpt><trkpt lat="44.282600864098384" lon="9.950555869781008"><ele>117.0</ele><time>2026-04-11T12:10:31.007Z</time></trkpt><trkpt lat="44.28243075221714" lon="9.950655141741732"><ele>117.0</ele><time>2026-04-11T12:10:32.007Z</time></trkpt><trkpt lat="44.28224472338996" lon="9.950719119742086"><ele>117.0</ele><time>2026-04-11T12:10:33.007Z</time></trkpt><trkpt lat="44.28204489463405" lon="9.950756454772108"><ele>117.0</ele><time>2026-04-11T12:10:34.007Z</time></trkpt><trkpt lat="44.281839149994425" lon="9.950763350800715"><ele>117.0</ele><time>2026-04-11T12:10:35.007Z</time></trkpt><trkpt lat="44.28163546116585" lon="9.950786697497545"><ele>117.0</ele><time>2026-04-11T12:10:36.007Z</time></trkpt><trkpt lat="44.28143628127326" lon="9.950837362187938"><ele>118.33333333333334</ele><time>2026-04-11T12:10:37.007Z</time></trkpt><trkpt lat="44.28123828918189" lon="9.950923237115273"><ele>119.66666666666667</ele><time>2026-04-11T12:10:38.007Z</time></trkpt><trkpt lat="44.28104894784962" lon="9.951030928405073"><ele>121.0</ele><time>2026-04-11T12:10:39.007Z</time></trkpt><trkpt lat="44.28085977290776" lon="9.951163897349042"><ele>121.0</ele><time>2026-04-11T12:10:40.007Z</time></trkpt><trkpt lat="44.28066934005153" lon="9.951295302378083"><ele>121.0</ele><time>2026-04-11T12:10:41.007Z</time></trkpt><trkpt lat="44.280478010015514" lon="9.951417675392271"><ele>121.0</ele><time>2026-04-11T12:10:42.007Z</time></trkpt><trkpt lat="44.2802939248551" lon="9.951534324910218"><ele>119.33333333333334</ele><time>2026-04-11T12:10:43.007Z</time></trkpt><trkpt lat="44.28010899252761" lon="9.951624646118304"><ele>117.66666666666666</ele><time>2026-04-11T12:10:44.007Z</time></trkpt><trkpt lat="44.27991721388077" lon="9.951681852672982"><ele>116.0</ele><time>2026-04-11T12:10:45.007Z</time></trkpt><trkpt lat="44.27971853139769" lon="9.95171443134677"><ele>120.66666666666666</ele><time>2026-04-11T12:10:46.007Z</time></trkpt><trkpt lat="44.27951960785201" lon="9.951777425992766"><ele>125.33333333333334</ele><time>2026-04-11T12:10:47.007Z</time></trkpt><trkpt lat="44.27930137709344" lon="9.951877685811631"><ele>130.0</ele><time>2026-04-11T12:10:48.007Z</time></trkpt><trkpt lat="44.279065622892766" lon="9.952000424199142"><ele>127.0</ele><time>2026-04-11T12:10:49.007Z</time></trkpt><trkpt lat="44.27881404194528" lon="9.952131301735088"><ele>124.0</ele><time>2026-04-11T12:10:50.007Z</time></trkpt><trkpt lat="44.278563856139726" lon="9.952269262506704"><ele>124.0</ele><time>2026-04-11T12:10:51.007Z</time></trkpt><trkpt lat="44.27831511445658" lon="9.952400844548093"><ele>124.0</ele><time>2026-04-11T12:10:52.007Z</time></trkpt><trkpt lat="44.27807200652236" lon="9.952541874926988"><ele>126.0</ele><time>2026-04-11T12:10:53.007Z</time></trkpt><trkpt lat="44.27785170844889" lon="9.95267898233258"><ele>128.0</ele><time>2026-04-11T12:10:54.007Z</time></trkpt><trkpt lat="44.27764274650163" lon="9.952814369531849"><ele>128.0</ele><time>2026-04-11T12:10:55.007Z</time></trkpt><trkpt lat="44.27743225458127" lon="9.952939422243654"><ele>128.0</ele><time>2026-04-11T12:10:56.007Z</time></trkpt><trkpt lat="44.27722124866157" lon="9.953056679565744"><ele>122.5</ele><time>2026-04-11T12:10:57.007Z</time></trkpt><trkpt lat="44.27698267661662" lon="9.953197398333021"><ele>117.0</ele><time>2026-04-11T12:10:58.007Z</time></trkpt><trkpt lat="44.27671470222082" lon="9.953340683894464"><ele>123.5</ele><time>2026-04-11T12:10:59.007Z</time></trkpt><trkpt lat="44.27642178458649" lon="9.953500504645728"><ele>130.0</ele><time>2026-04-11T12:11:00.007Z</time></trkpt><trkpt lat="44.27612998821918" lon="9.953668652181381"><ele>130.0</ele><time>2026-04-11T12:11:01.007Z</time></trkpt><trkpt lat="44.27582049994783" lon="9.95386145960292"><ele>130.0</ele><time>2026-04-11T12:11:02.007Z</time></trkpt><trkpt lat="44.275507062087" lon="9.95406270061781"><ele>137.5</ele><time>2026-04-11T12:11:03.007Z</time></trkpt><trkpt lat="44.27519944176566" lon="9.95424922540105"><ele>145.0</ele><time>2026-04-11T12:11:04.007Z</time></trkpt><trkpt lat="44.2749207939036" lon="9.954431281189196"><ele>139.0</ele><time>2026-04-11T12:11:05.007Z</time></trkpt><trkpt lat="44.27467682438539" lon="9.954575106943418"><ele>133.0</ele><time>2026-04-11T12:11:06.007Z</time></trkpt><trkpt lat="44.27444839113632" lon="9.954735220833133"><ele>133.0</ele><time>2026-04-11T12:11:07.007Z</time></trkpt><trkpt lat="44.27419666762085" lon="9.954870526410973"><ele>133.0</ele><time>2026-04-11T12:11:08.007Z</time></trkpt><trkpt lat="44.273945805224045" lon="9.954991117418997"><ele>150.0</ele><time>2026-04-11T12:11:09.007Z</time></trkpt><trkpt lat="44.273689384087874" lon="9.955082020359711"><ele>167.0</ele><time>2026-04-11T12:11:10.007Z</time></trkpt><trkpt lat="44.27343880244635" lon="9.955140246227725"><ele>167.0</ele><time>2026-04-11T12:11:11.007Z</time></trkpt><trkpt lat="44.27318813321492" lon="9.955126558811806"><ele>167.0</ele><time>2026-04-11T12:11:12.007Z</time></trkpt><trkpt lat="44.272935876157405" lon="9.955098193237543"><ele>173.5</ele><time>2026-04-11T12:11:13.007Z</time></trkpt><trkpt lat="44.27268496614897" lon="9.955100183560628"><ele>180.0</ele><time>2026-04-11T12:11:14.007Z</time></trkpt><trkpt lat="44.27245038809436" lon="9.955051375052593"><ele>175.33333333333334</ele><time>2026-04-11T12:11:15.007Z</time></trkpt><trkpt lat="44.27223633942441" lon="9.95504238906698"><ele>170.66666666666669</ele><time>2026-04-11T12:11:16.007Z</time></trkpt><trkpt lat="44.272041064384396" lon="9.955055136310984"><ele>166.0</ele><time>2026-04-11T12:11:17.007Z</time></trkpt><trkpt lat="44.27188632174974" lon="9.955016153752046"><ele>157.33333333333334</ele><time>2026-04-11T12:11:18.007Z</time></trkpt><trkpt lat="44.27175223795297" lon="9.954958938174421"><ele>148.66666666666666</ele><time>2026-04-11T12:11:19.007Z</time></trkpt><trkpt lat="44.271705870393504" lon="9.95479206460678"><ele>140.0</ele><time>2026-04-11T12:11:20.007Z</time></trkpt><trkpt lat="44.271725032855116" lon="9.954512256722985"><ele>140.0</ele><time>2026-04-11T12:11:21.008Z</time></trkpt><trkpt lat="44.27168313313942" lon="9.954266667036077"><ele>140.0</ele><time>2026-04-11T12:11:22.008Z</time></trkpt><trkpt lat="44.27162528618249" lon="9.954101661491158"><ele>140.0</ele><time>2026-04-11T12:11:23.008Z</time></trkpt><trkpt lat="44.27151881836947" lon="9.953986326831284"><ele>140.0</ele><time>2026-04-11T12:11:24.008Z</time></trkpt><trkpt lat="44.2713709584933" lon="9.953895419527663"><ele>148.0</ele><time>2026-04-11T12:11:25.008Z</time></trkpt><trkpt lat="44.27119823377404" lon="9.953808387958377"><ele>156.0</ele><time>2026-04-11T12:11:26.008Z</time></trkpt><trkpt lat="44.27100933569912" lon="9.953723450455458"><ele>164.0</ele><time>2026-04-11T12:11:27.008Z</time></trkpt><trkpt lat="44.270812298697955" lon="9.953605544469353"><ele>164.0</ele><time>2026-04-11T12:11:28.008Z</time></trkpt><trkpt lat="44.270622761216124" lon="9.95344391400272"><ele>164.0</ele><time>2026-04-11T12:11:29.008Z</time></trkpt><trkpt lat="44.27045243112733" lon="9.953256260421133"><ele>164.0</ele><time>2026-04-11T12:11:30.008Z</time></trkpt><trkpt lat="44.270315577126404" lon="9.953084670275148"><ele>156.0</ele><time>2026-04-11T12:11:31.008Z</time></trkpt><trkpt lat="44.27015585831365" lon="9.95296671419405"><ele>148.0</ele><time>2026-04-11T12:11:32.008Z</time></trkpt><trkpt lat="44.26999112397754" lon="9.95290692522497"><ele>140.0</ele><time>2026-04-11T12:11:33.008Z</time></trkpt><trkpt lat="44.2698343774196" lon="9.95287588747179"><ele>137.66666666666666</ele><time>2026-04-11T12:11:34.008Z</time></trkpt><trkpt lat="44.26966180408658" lon="9.95289653199271"><ele>135.33333333333334</ele><time>2026-04-11T12:11:35.008Z</time></trkpt><trkpt lat="44.26948730312352" lon="9.95297129683122"><ele>133.0</ele><time>2026-04-11T12:11:36.008Z</time></trkpt><trkpt lat="44.26933896389276" lon="9.953091149277112"><ele>133.0</ele><time>2026-04-11T12:11:37.008Z</time></trkpt><trkpt lat="44.26919273247735" lon="9.953227081750434"><ele>133.0</ele><time>2026-04-11T12:11:38.008Z</time></trkpt><trkpt lat="44.26906559679474" lon="9.953343059637213"><ele>133.0</ele><time>2026-04-11T12:11:39.008Z</time></trkpt><trkpt lat="44.26893989698019" lon="9.953434856611763"><ele>134.25</ele><time>2026-04-11T12:11:40.008Z</time></trkpt><trkpt lat="44.268810925433336" lon="9.9534576813873"><ele>135.5</ele><time>2026-04-11T12:11:41.008Z</time></trkpt><trkpt lat="44.26867323372934" lon="9.95341446113831"><ele>136.75</ele><time>2026-04-11T12:11:42.008Z</time></trkpt><trkpt lat="44.26853554255588" lon="9.953320798104551"><ele>138.0</ele><time>2026-04-11T12:11:43.008Z</time></trkpt><trkpt lat="44.268389589353404" lon="9.95321863743235"><ele>138.0</ele><time>2026-04-11T12:11:44.008Z</time></trkpt><trkpt lat="44.26824654249222" lon="9.953115617174054"><ele>138.0</ele><time>2026-04-11T12:11:45.008Z</time></trkpt><trkpt lat="44.268101125710324" lon="9.9530356361367"><ele>138.0</ele><time>2026-04-11T12:11:46.008Z</time></trkpt><trkpt lat="44.26796292284921" lon="9.952992097215738"><ele>135.33333333333334</ele><time>2026-04-11T12:11:47.008Z</time></trkpt><trkpt lat="44.26781628573841" lon="9.953002489260665"><ele>132.66666666666669</ele><time>2026-04-11T12:11:48.008Z</time></trkpt><trkpt lat="44.26768626081635" lon="9.953075670360088"><ele>130.0</ele><time>2026-04-11T12:11:49.008Z</time></trkpt><trkpt lat="44.26755382692316" lon="9.95321203343076"><ele>130.33333333333334</ele><time>2026-04-11T12:11:50.008Z</time></trkpt><trkpt lat="44.26742872737873" lon="9.953376716031563"><ele>130.66666666666666</ele><time>2026-04-11T12:11:51.008Z</time></trkpt><trkpt lat="44.267313317114414" lon="9.953584702787342"><ele>131.0</ele><time>2026-04-11T12:11:52.008Z</time></trkpt><trkpt lat="44.26719635974156" lon="9.953789446800203"><ele>131.0</ele><time>2026-04-11T12:11:53.008Z</time></trkpt><trkpt lat="44.267090419627664" lon="9.953966034545141"><ele>131.0</ele><time>2026-04-11T12:11:54.008Z</time></trkpt><trkpt lat="44.26696539212509" lon="9.95411380677902"><ele>131.0</ele><time>2026-04-11T12:11:55.008Z</time></trkpt><trkpt lat="44.26681105008827" lon="9.954212673594366"><ele>141.0</ele><time>2026-04-11T12:11:56.008Z</time></trkpt><trkpt lat="44.266641144195525" lon="9.954276411594908"><ele>151.0</ele><time>2026-04-11T12:11:57.008Z</time></trkpt><trkpt lat="44.266459502055795" lon="9.95431751923285"><ele>161.0</ele><time>2026-04-11T12:11:58.008Z</time></trkpt><trkpt lat="44.26627885624434" lon="9.95437361684425"><ele>161.0</ele><time>2026-04-11T12:11:59.008Z</time></trkpt><trkpt lat="44.26609058293831" lon="9.954428129863082"><ele>161.0</ele><time>2026-04-11T12:12:00.008Z</time></trkpt><trkpt lat="44.26589824014317" lon="9.95445586211716"><ele>161.0</ele><time>2026-04-11T12:12:01.008Z</time></trkpt><trkpt lat="44.26569646343823" lon="9.954440757991852"><ele>156.0</ele><time>2026-04-11T12:12:02.008Z</time></trkpt><trkpt lat="44.265489736485144" lon="9.954401586423833"><ele>151.0</ele><time>2026-04-11T12:12:03.008Z</time></trkpt><trkpt lat="44.265293185326804" lon="9.954401369026021"><ele>146.0</ele><time>2026-04-11T12:12:04.008Z</time></trkpt><trkpt lat="44.265119690951565" lon="9.954431056086822"><ele>146.0</ele><time>2026-04-11T12:12:05.008Z</time></trkpt><trkpt lat="44.264953583141" lon="9.954482852345583"><ele>146.0</ele><time>2026-04-11T12:12:06.008Z</time></trkpt><trkpt lat="44.264815626441624" lon="9.95458075820114"><ele>146.0</ele><time>2026-04-11T12:12:07.008Z</time></trkpt><trkpt lat="44.26468124262119" lon="9.954649994820198"><ele>144.0</ele><time>2026-04-11T12:12:08.008Z</time></trkpt><trkpt lat="44.264572516582184" lon="9.95473295089133"><ele>142.0</ele><time>2026-04-11T12:12:09.008Z</time></trkpt><trkpt lat="44.26446745324082" lon="9.954796055928979"><ele>140.0</ele><time>2026-04-11T12:12:10.008Z</time></trkpt><trkpt lat="44.264363828437034" lon="9.954844645968588"><ele>138.0</ele><time>2026-04-11T12:12:11.008Z</time></trkpt><trkpt lat="44.26425301312284" lon="9.954855443112097"><ele>138.0</ele><time>2026-04-11T12:12:12.008Z</time></trkpt><trkpt lat="44.2641387292216" lon="9.954825533312544"><ele>138.0</ele><time>2026-04-11T12:12:13.008Z</time></trkpt><trkpt lat="44.26401794955728" lon="9.954761736866613"><ele>138.0</ele><time>2026-04-11T12:12:14.008Z</time></trkpt><trkpt lat="44.26390604579999" lon="9.954690650935383"><ele>138.0</ele><time>2026-04-11T12:12:15.008Z</time></trkpt><trkpt lat="44.26379103809121" lon="9.954619355436066"><ele>139.0</ele><time>2026-04-11T12:12:16.008Z</time></trkpt><trkpt lat="44.26367267912575" lon="9.954555145117569"><ele>140.0</ele><time>2026-04-11T12:12:17.008Z</time></trkpt><trkpt lat="44.26353962944024" lon="9.954521456295785"><ele>141.0</ele><time>2026-04-11T12:12:18.008Z</time></trkpt><trkpt lat="44.263407325051475" lon="9.954499604442038"><ele>142.0</ele><time>2026-04-11T12:12:19.008Z</time></trkpt><trkpt lat="44.263267459822416" lon="9.954468193188386"><ele>142.0</ele><time>2026-04-11T12:12:20.008Z</time></trkpt><trkpt lat="44.263124820344366" lon="9.954407390583608"><ele>142.0</ele><time>2026-04-11T12:12:21.008Z</time></trkpt><trkpt lat="44.26299531655907" lon="9.954336801361846"><ele>142.0</ele><time>2026-04-11T12:12:22.008Z</time></trkpt><trkpt lat="44.2628795764861" lon="9.954264934490867"><ele>142.0</ele><time>2026-04-11T12:12:23.008Z</time></trkpt><trkpt lat="44.26276103674931" lon="9.954189585381465"><ele>142.0</ele><time>2026-04-11T12:12:24.008Z</time></trkpt><trkpt lat="44.26264335555492" lon="9.954114387791947"><ele>142.0</ele><time>2026-04-11T12:12:25.008Z</time></trkpt><trkpt lat="44.26251928787083" lon="9.95403591569512"><ele>142.0</ele><time>2026-04-11T12:12:26.008Z</time></trkpt><trkpt lat="44.26239466863049" lon="9.953963561204345"><ele>142.0</ele><time>2026-04-11T12:12:27.008Z</time></trkpt><trkpt lat="44.26226890179146" lon="9.953888544155278"><ele>142.0</ele><time>2026-04-11T12:12:28.008Z</time></trkpt><trkpt lat="44.262146050012035" lon="9.953810145926806"><ele>142.0</ele><time>2026-04-11T12:12:29.008Z</time></trkpt><trkpt lat="44.26202435218843" lon="9.953730087096174"><ele>142.0</ele><time>2026-04-11T12:12:30.008Z</time></trkpt><trkpt lat="44.2619076072577" lon="9.953655173699243"><ele>142.0</ele><time>2026-04-11T12:12:31.008Z</time></trkpt><trkpt lat="44.26179204552868" lon="9.95360885563123"><ele>142.0</ele><time>2026-04-11T12:12:32.008Z</time></trkpt><trkpt lat="44.26166897159228" lon="9.95357531258877"><ele>142.0</ele><time>2026-04-11T12:12:33.008Z</time></trkpt><trkpt lat="44.2615383500115" lon="9.953554946697054"><ele>142.0</ele><time>2026-04-11T12:12:34.008Z</time></trkpt><trkpt lat="44.261407270980754" lon="9.953553388543527"><ele>142.0</ele><time>2026-04-11T12:12:35.008Z</time></trkpt><trkpt lat="44.26126703466902" lon="9.953571845109572"><ele>141.0</ele><time>2026-04-11T12:12:36.008Z</time></trkpt><trkpt lat="44.26112673750153" lon="9.953584724913036"><ele>140.0</ele><time>2026-04-11T12:12:37.008Z</time></trkpt><trkpt lat="44.26098589620095" lon="9.953606529238519"><ele>139.0</ele><time>2026-04-11T12:12:38.008Z</time></trkpt><trkpt lat="44.260855594670566" lon="9.9536330119971"><ele>138.0</ele><time>2026-04-11T12:12:39.008Z</time></trkpt><trkpt lat="44.260731918069645" lon="9.953684016103661"><ele>138.0</ele><time>2026-04-11T12:12:40.008Z</time></trkpt><trkpt lat="44.260618242391494" lon="9.953736101483704"><ele>138.0</ele><time>2026-04-11T12:12:41.008Z</time></trkpt><trkpt lat="44.260502338925015" lon="9.953816290236341"><ele>138.0</ele><time>2026-04-11T12:12:42.008Z</time></trkpt><trkpt lat="44.26040006106408" lon="9.953902245844768"><ele>138.0</ele><time>2026-04-11T12:12:43.008Z</time></trkpt><trkpt lat="44.26030283606986" lon="9.953976100827253"><ele>136.25</ele><time>2026-04-11T12:12:44.008Z</time></trkpt><trkpt lat="44.260184420178476" lon="9.95401599767898"><ele>134.5</ele><time>2026-04-11T12:12:45.008Z</time></trkpt><trkpt lat="44.26004948048428" lon="9.954003058391887"><ele>132.75</ele><time>2026-04-11T12:12:46.008Z</time></trkpt><trkpt lat="44.25991354047017" lon="9.953984693750535"><ele>131.0</ele><time>2026-04-11T12:12:47.008Z</time></trkpt><trkpt lat="44.2597945193019" lon="9.953997251946848"><ele>133.5</ele><time>2026-04-11T12:12:48.008Z</time></trkpt><trkpt lat="44.25967906105269" lon="9.9540384979555"><ele>136.0</ele><time>2026-04-11T12:12:49.008Z</time></trkpt><trkpt lat="44.2595630498729" lon="9.954094715203096"><ele>138.5</ele><time>2026-04-11T12:12:50.008Z</time></trkpt><trkpt lat="44.25945955565056" lon="9.954177849188781"><ele>141.0</ele><time>2026-04-11T12:12:51.008Z</time></trkpt><trkpt lat="44.259355966407846" lon="9.954252434587998"><ele>141.0</ele><time>2026-04-11T12:12:52.008Z</time></trkpt><trkpt lat="44.25924733356537" lon="9.954337627667856"><ele>141.0</ele><time>2026-04-11T12:12:53.008Z</time></trkpt><trkpt lat="44.25914578168808" lon="9.954427181826132"><ele>141.0</ele><time>2026-04-11T12:12:54.008Z</time></trkpt><trkpt lat="44.25907288213877" lon="9.954554711656224"><ele>141.0</ele><time>2026-04-11T12:12:55.008Z</time></trkpt><trkpt lat="44.259007061391465" lon="9.954690016174792"><ele>144.75</ele><time>2026-04-11T12:12:56.009Z</time></trkpt><trkpt lat="44.25894283333941" lon="9.954818715581528"><ele>148.5</ele><time>2026-04-11T12:12:57.009Z</time></trkpt><trkpt lat="44.258854268657515" lon="9.954922937271506"><ele>152.25</ele><time>2026-04-11T12:12:58.009Z</time></trkpt><trkpt lat="44.25875778351382" lon="9.955007574080826"><ele>156.0</ele><time>2026-04-11T12:12:59.009Z</time></trkpt><trkpt lat="44.25865318749557" lon="9.955066949018066"><ele>156.0</ele><time>2026-04-11T12:13:00.009Z</time></trkpt><trkpt lat="44.25854077440794" lon="9.955123530275353"><ele>156.0</ele><time>2026-04-11T12:13:01.009Z</time></trkpt><trkpt lat="44.258442037878325" lon="9.955161311443183"><ele>156.0</ele><time>2026-04-11T12:13:02.009Z</time></trkpt><trkpt lat="44.25833873910035" lon="9.955210798387775"><ele>156.0</ele><time>2026-04-11T12:13:03.009Z</time></trkpt><trkpt lat="44.25823833887039" lon="9.955264160064912"><ele>156.0</ele><time>2026-04-11T12:13:04.009Z</time></trkpt><trkpt lat="44.25813955174237" lon="9.955311573189404"><ele>152.6</ele><time>2026-04-11T12:13:05.009Z</time></trkpt><trkpt lat="44.25803269336359" lon="9.955343609587878"><ele>149.2</ele><time>2026-04-11T12:13:06.009Z</time></trkpt><trkpt lat="44.25792499699941" lon="9.955379259216398"><ele>145.8</ele><time>2026-04-11T12:13:07.009Z</time></trkpt><trkpt lat="44.25781256859686" lon="9.955401988938718"><ele>142.4</ele><time>2026-04-11T12:13:08.009Z</time></trkpt><trkpt lat="44.25770551999334" lon="9.955417979072948"><ele>139.0</ele><time>2026-04-11T12:13:09.009Z</time></trkpt><trkpt lat="44.25760686170308" lon="9.955448164165997"><ele>139.0</ele><time>2026-04-11T12:13:10.009Z</time></trkpt><trkpt lat="44.2575026172578" lon="9.955507508574842"><ele>139.0</ele><time>2026-04-11T12:13:11.009Z</time></trkpt><trkpt lat="44.25740734131163" lon="9.955593290081715"><ele>139.0</ele><time>2026-04-11T12:13:12.009Z</time></trkpt><trkpt lat="44.257311503514764" lon="9.955693254398074"><ele>139.0</ele><time>2026-04-11T12:13:13.009Z</time></trkpt><trkpt lat="44.25722013971649" lon="9.955799353722107"><ele>139.75</ele><time>2026-04-11T12:13:14.009Z</time></trkpt><trkpt lat="44.25712519525898" lon="9.955927569003553"><ele>140.5</ele><time>2026-04-11T12:13:15.009Z</time></trkpt><trkpt lat="44.25703255088919" lon="9.95604843998005"><ele>141.25</ele><time>2026-04-11T12:13:16.009Z</time></trkpt><trkpt lat="44.25693145305953" lon="9.95616299205598"><ele>142.0</ele><time>2026-04-11T12:13:17.009Z</time></trkpt><trkpt lat="44.25681435157952" lon="9.956267310656301"><ele>142.0</ele><time>2026-04-11T12:13:18.009Z</time></trkpt><trkpt lat="44.256691548420854" lon="9.95633359762708"><ele>142.0</ele><time>2026-04-11T12:13:19.009Z</time></trkpt><trkpt lat="44.25656154222735" lon="9.956369646780928"><ele>142.0</ele><time>2026-04-11T12:13:20.009Z</time></trkpt><trkpt lat="44.25643348638614" lon="9.956408088385501"><ele>142.0</ele><time>2026-04-11T12:13:21.009Z</time></trkpt><trkpt lat="44.256308761760785" lon="9.956456804650804"><ele>145.66666666666669</ele><time>2026-04-11T12:13:22.009Z</time></trkpt><trkpt lat="44.2561592971417" lon="9.95653515520389"><ele>149.33333333333334</ele><time>2026-04-11T12:13:23.009Z</time></trkpt><trkpt lat="44.25600979435465" lon="9.956633347844443"><ele>153.0</ele><time>2026-04-11T12:13:24.009Z</time></trkpt><trkpt lat="44.255850349022985" lon="9.95674620226862"><ele>153.0</ele><time>2026-04-11T12:13:25.009Z</time></trkpt><trkpt lat="44.25568519722675" lon="9.956881567034618"><ele>153.0</ele><time>2026-04-11T12:13:26.009Z</time></trkpt><trkpt lat="44.25552469048523" lon="9.956994076522115"><ele>153.0</ele><time>2026-04-11T12:13:27.009Z</time></trkpt><trkpt lat="44.25537583132879" lon="9.957098852290825"><ele>149.0</ele><time>2026-04-11T12:13:28.009Z</time></trkpt><trkpt lat="44.255236020939215" lon="9.957194206013549"><ele>145.0</ele><time>2026-04-11T12:13:29.009Z</time></trkpt><trkpt lat="44.25510335530991" lon="9.957281931722997"><ele>141.0</ele><time>2026-04-11T12:13:30.009Z</time></trkpt><trkpt lat="44.25498277960282" lon="9.957371735226353"><ele>137.0</ele><time>2026-04-11T12:13:31.009Z</time></trkpt><trkpt lat="44.254870694238264" lon="9.957452291085156"><ele>137.25</ele><time>2026-04-11T12:13:32.009Z</time></trkpt><trkpt lat="44.2547635934104" lon="9.957521385559561"><ele>137.5</ele><time>2026-04-11T12:13:33.009Z</time></trkpt><trkpt lat="44.25466165757664" lon="9.957594651894393"><ele>137.75</ele><time>2026-04-11T12:13:34.009Z</time></trkpt><trkpt lat="44.25456200250542" lon="9.957682668664704"><ele>138.0</ele><time>2026-04-11T12:13:35.009Z</time></trkpt><trkpt lat="44.25447124231232" lon="9.95777288140528"><ele>138.0</ele><time>2026-04-11T12:13:36.009Z</time></trkpt><trkpt lat="44.25439036458925" lon="9.957861014851867"><ele>138.0</ele><time>2026-04-11T12:13:37.009Z</time></trkpt><trkpt lat="44.25430998491782" lon="9.957947359236181"><ele>138.0</ele><time>2026-04-11T12:13:38.009Z</time></trkpt><trkpt lat="44.25421220093785" lon="9.958030327653633"><ele>138.0</ele><time>2026-04-11T12:13:39.009Z</time></trkpt><trkpt lat="44.25410310446469" lon="9.958103324037635"><ele>138.0</ele><time>2026-04-11T12:13:40.009Z</time></trkpt><trkpt lat="44.2539814669133" lon="9.958136588884214"><ele>136.25</ele><time>2026-04-11T12:13:41.009Z</time></trkpt><trkpt lat="44.25385583586769" lon="9.958152109193186"><ele>134.5</ele><time>2026-04-11T12:13:42.009Z</time></trkpt><trkpt lat="44.25372916040606" lon="9.95814239232731"><ele>132.75</ele><time>2026-04-11T12:13:43.009Z</time></trkpt><trkpt lat="44.25361225165424" lon="9.958084476125219"><ele>131.0</ele><time>2026-04-11T12:13:44.009Z</time></trkpt><trkpt lat="44.25350391823707" lon="9.957969986390527"><ele>131.0</ele><time>2026-04-11T12:13:45.009Z</time></trkpt><trkpt lat="44.25339796718292" lon="9.957841099201445"><ele>131.0</ele><time>2026-04-11T12:13:46.009Z</time></trkpt><trkpt lat="44.25329512236847" lon="9.957716168985067"><ele>131.0</ele><time>2026-04-11T12:13:47.009Z</time></trkpt><trkpt lat="44.253193638454505" lon="9.957596329077774"><ele>131.0</ele><time>2026-04-11T12:13:48.009Z</time></trkpt><trkpt lat="44.25309514300225" lon="9.957476624495355"><ele>131.25</ele><time>2026-04-11T12:13:49.009Z</time></trkpt><trkpt lat="44.25299458576225" lon="9.957368036680236"><ele>131.5</ele><time>2026-04-11T12:13:50.009Z</time></trkpt><trkpt lat="44.252886133165745" lon="9.95724809177616"><ele>131.75</ele><time>2026-04-11T12:13:51.009Z</time></trkpt><trkpt lat="44.25278065085936" lon="9.957134886253177"><ele>132.0</ele><time>2026-04-11T12:13:52.009Z</time></trkpt><trkpt lat="44.25265956302306" lon="9.957013407255332"><ele>132.0</ele><time>2026-04-11T12:13:53.009Z</time></trkpt><trkpt lat="44.252537616439156" lon="9.956875571460381"><ele>132.0</ele><time>2026-04-11T12:13:54.009Z</time></trkpt><trkpt lat="44.252427373007166" lon="9.956719264874273"><ele>132.0</ele><time>2026-04-11T12:13:55.009Z</time></trkpt><trkpt lat="44.2523189322138" lon="9.95653170850685"><ele>133.33333333333334</ele><time>2026-04-11T12:13:56.009Z</time></trkpt><trkpt lat="44.25222031362967" lon="9.956335151905224"><ele>134.66666666666669</ele><time>2026-04-11T12:13:57.009Z</time></trkpt><trkpt lat="44.25213882589475" lon="9.956140080004596"><ele>136.0</ele><time>2026-04-11T12:13:58.009Z</time></trkpt><trkpt lat="44.25207160857866" lon="9.955944672634496"><ele>135.66666666666669</ele><time>2026-04-11T12:13:59.009Z</time></trkpt><trkpt lat="44.25201253030105" lon="9.955716725494655"><ele>135.33333333333334</ele><time>2026-04-11T12:14:00.009Z</time></trkpt><trkpt lat="44.25196605854267" lon="9.955506088836838"><ele>135.0</ele><time>2026-04-11T12:14:01.009Z</time></trkpt><trkpt lat="44.251934812791845" lon="9.955334196164896"><ele>135.0</ele><time>2026-04-11T12:14:02.009Z</time></trkpt><trkpt lat="44.25182418693687" lon="9.955126360518916"><ele>135.0</ele><time>2026-04-11T12:14:03.009Z</time></trkpt><trkpt lat="44.25228040947524" lon="9.955241919651048"><ele>135.0</ele><time>2026-04-11T12:14:04.009Z</time></trkpt><trkpt lat="44.25222200530113" lon="9.955091503665482"><ele>135.0</ele><time>2026-04-11T12:14:05.009Z</time></trkpt><trkpt lat="44.25218152807303" lon="9.954920644893358"><ele>135.0</ele><time>2026-04-11T12:14:06.009Z</time></trkpt><trkpt lat="44.25215786556282" lon="9.954736761087084"><ele>135.0</ele><time>2026-04-11T12:14:07.009Z</time></trkpt><trkpt lat="44.252146088972104" lon="9.954556794141554"><ele>134.2</ele><time>2026-04-11T12:14:08.009Z</time></trkpt><trkpt lat="44.25213881946203" lon="9.954396978466457"><ele>133.4</ele><time>2026-04-11T12:14:09.009Z</time></trkpt><trkpt lat="44.25213279552683" lon="9.95424495875955"><ele>132.6</ele><time>2026-04-11T12:14:10.009Z</time></trkpt><trkpt lat="44.252125340489606" lon="9.954117462375978"><ele>131.8</ele><time>2026-04-11T12:14:11.009Z</time></trkpt><trkpt lat="44.25210875544736" lon="9.954002877026706"><ele>131.0</ele><time>2026-04-11T12:14:12.009Z</time></trkpt><trkpt lat="44.25206652918242" lon="9.95389528995762"><ele>128.8</ele><time>2026-04-11T12:14:13.009Z</time></trkpt><trkpt lat="44.25198739979677" lon="9.95381481646662"><ele>126.6</ele><time>2026-04-11T12:14:14.009Z</time></trkpt><trkpt lat="44.25188745138546" lon="9.953776740890524"><ele>124.4</ele><time>2026-04-11T12:14:15.009Z</time></trkpt><trkpt lat="44.25177486736791" lon="9.953800893430502"><ele>122.2</ele><time>2026-04-11T12:14:16.009Z</time></trkpt><trkpt lat="44.25165565105184" lon="9.9538736065181"><ele>120.0</ele><time>2026-04-11T12:14:17.009Z</time></trkpt><trkpt lat="44.251525990814535" lon="9.953965175878153"><ele>119.0</ele><time>2026-04-11T12:14:18.009Z</time></trkpt><trkpt lat="44.25139398486871" lon="9.954062959322453"><ele>118.0</ele><time>2026-04-11T12:14:19.009Z</time></trkpt><trkpt lat="44.25125294100701" lon="9.954162714987373"><ele>117.0</ele><time>2026-04-11T12:14:20.009Z</time></trkpt><trkpt lat="44.25112315333348" lon="9.954264891218456"><ele>117.0</ele><time>2026-04-11T12:14:21.009Z</time></trkpt><trkpt lat="44.25099754914851" lon="9.954364078470796"><ele>117.0</ele><time>2026-04-11T12:14:22.009Z</time></trkpt><trkpt lat="44.25087761565483" lon="9.954459748818055"><ele>117.0</ele><time>2026-04-11T12:14:23.009Z</time></trkpt><trkpt lat="44.25076791084308" lon="9.954557348098172"><ele>117.0</ele><time>2026-04-11T12:14:24.009Z</time></trkpt><trkpt lat="44.2506671771515" lon="9.954668696490009"><ele>115.0</ele><time>2026-04-11T12:14:25.009Z</time></trkpt><trkpt lat="44.25057847155518" lon="9.954835555709739"><ele>113.0</ele><time>2026-04-11T12:14:26.009Z</time></trkpt><trkpt lat="44.250494329978835" lon="9.954985028696827"><ele>111.0</ele><time>2026-04-11T12:14:27.009Z</time></trkpt><trkpt lat="44.25040866555417" lon="9.955144983383589"><ele>109.0</ele><time>2026-04-11T12:14:28.009Z</time></trkpt><trkpt lat="44.250309081450276" lon="9.955305048601815"><ele>109.0</ele><time>2026-04-11T12:14:29.009Z</time></trkpt><trkpt lat="44.25021118789588" lon="9.95546441566685"><ele>109.0</ele><time>2026-04-11T12:14:30.009Z</time></trkpt><trkpt lat="44.250109965859515" lon="9.955623445465488"><ele>109.0</ele><time>2026-04-11T12:14:31.01Z</time></trkpt><trkpt lat="44.250002868429114" lon="9.955789958200736"><ele>108.66666666666667</ele><time>2026-04-11T12:14:32.01Z</time></trkpt><trkpt lat="44.24988877837867" lon="9.955953408135233"><ele>108.33333333333334</ele><time>2026-04-11T12:14:33.01Z</time></trkpt><trkpt lat="44.24976499872823" lon="9.956095593837532"><ele>108.0</ele><time>2026-04-11T12:14:34.01Z</time></trkpt><trkpt lat="44.24963093839052" lon="9.956216379890556"><ele>108.0</ele><time>2026-04-11T12:14:35.01Z</time></trkpt><trkpt lat="44.24949436308169" lon="9.956326197609773"><ele>108.0</ele><time>2026-04-11T12:14:36.01Z</time></trkpt><trkpt lat="44.24934804060065" lon="9.956440887848125"><ele>108.0</ele><time>2026-04-11T12:14:37.01Z</time></trkpt><trkpt lat="44.24919640211852" lon="9.95656183963666"><ele>105.33333333333334</ele><time>2026-04-11T12:14:38.01Z</time></trkpt><trkpt lat="44.24902546555794" lon="9.956704885106971"><ele>102.66666666666667</ele><time>2026-04-11T12:14:39.01Z</time></trkpt><trkpt lat="44.24883048226526" lon="9.95689140177118"><ele>100.0</ele><time>2026-04-11T12:14:40.01Z</time></trkpt><trkpt lat="44.248613901375116" lon="9.957108172467217"><ele>100.0</ele><time>2026-04-11T12:14:41.01Z</time></trkpt><trkpt lat="44.24841238300006" lon="9.957304222336747"><ele>100.0</ele><time>2026-04-11T12:14:42.01Z</time></trkpt><trkpt lat="44.24822467994057" lon="9.95749414520955"><ele>100.0</ele><time>2026-04-11T12:14:43.01Z</time></trkpt><trkpt lat="44.24804494149791" lon="9.957674016455957"><ele>100.0</ele><time>2026-04-11T12:14:44.01Z</time></trkpt><trkpt lat="44.247873273702794" lon="9.957851481011488"><ele>100.0</ele><time>2026-04-11T12:14:45.01Z</time></trkpt><trkpt lat="44.2477011321801" lon="9.958021945009708"><ele>100.0</ele><time>2026-04-11T12:14:46.01Z</time></trkpt><trkpt lat="44.24753537347802" lon="9.958181792330159"><ele>100.0</ele><time>2026-04-11T12:14:47.01Z</time></trkpt><trkpt lat="44.247374384628785" lon="9.958343661542166"><ele>100.0</ele><time>2026-04-11T12:14:48.01Z</time></trkpt><trkpt lat="44.247218740374045" lon="9.958499820745695"><ele>98.0</ele><time>2026-04-11T12:14:49.01Z</time></trkpt><trkpt lat="44.24707054697731" lon="9.958635466977537"><ele>96.0</ele><time>2026-04-11T12:14:50.01Z</time></trkpt><trkpt lat="44.24693942429138" lon="9.958771881384676"><ele>94.0</ele><time>2026-04-11T12:14:51.01Z</time></trkpt><trkpt lat="44.2468243102454" lon="9.958910915904598"><ele>94.0</ele><time>2026-04-11T12:14:52.01Z</time></trkpt><trkpt lat="44.24672660772382" lon="9.959058163189678"><ele>94.0</ele><time>2026-04-11T12:14:53.01Z</time></trkpt><trkpt lat="44.24664455995778" lon="9.95923863583872"><ele>94.0</ele><time>2026-04-11T12:14:54.01Z</time></trkpt><trkpt lat="44.24658865595697" lon="9.959448092842793"><ele>92.66666666666666</ele><time>2026-04-11T12:14:55.01Z</time></trkpt><trkpt lat="44.24655401883768" lon="9.959662683925103"><ele>91.33333333333333</ele><time>2026-04-11T12:14:56.01Z</time></trkpt><trkpt lat="44.24650791759265" lon="9.959885972564415"><ele>90.0</ele><time>2026-04-11T12:14:57.01Z</time></trkpt><trkpt lat="44.24646048563157" lon="9.96008940423187"><ele>90.0</ele><time>2026-04-11T12:14:58.01Z</time></trkpt><trkpt lat="44.24639467615675" lon="9.96026147130808"><ele>90.0</ele><time>2026-04-11T12:14:59.01Z</time></trkpt><trkpt lat="44.24629476004064" lon="9.960410653992556"><ele>90.0</ele><time>2026-04-11T12:15:00.01Z</time></trkpt><trkpt lat="44.2461698646003" lon="9.960521272227016"><ele>90.0</ele><time>2026-04-11T12:15:01.01Z</time></trkpt><trkpt lat="44.24602389991273" lon="9.96058661151717"><ele>90.0</ele><time>2026-04-11T12:15:02.01Z</time></trkpt><trkpt lat="44.24587532313781" lon="9.960613561143502"><ele>90.0</ele><time>2026-04-11T12:15:03.01Z</time></trkpt><trkpt lat="44.24571909366304" lon="9.96060100646407"><ele>90.0</ele><time>2026-04-11T12:15:04.01Z</time></trkpt><trkpt lat="44.245559202130416" lon="9.960563962223445"><ele>90.0</ele><time>2026-04-11T12:15:05.01Z</time></trkpt><trkpt lat="44.24538804086296" lon="9.960563030787219"><ele>90.0</ele><time>2026-04-11T12:15:06.01Z</time></trkpt><trkpt lat="44.24521275845245" lon="9.960607459016293"><ele>90.0</ele><time>2026-04-11T12:15:07.01Z</time></trkpt><trkpt lat="44.24503748474184" lon="9.96065671163916"><ele>90.0</ele><time>2026-04-11T12:15:08.01Z</time></trkpt><trkpt lat="44.24487175980688" lon="9.96068981033725"><ele>90.0</ele><time>2026-04-11T12:15:09.01Z</time></trkpt><trkpt lat="44.24471570514584" lon="9.960692059562243"><ele>90.0</ele><time>2026-04-11T12:15:10.01Z</time></trkpt><trkpt lat="44.24456522631509" lon="9.960644757634688"><ele>92.66666666666666</ele><time>2026-04-11T12:15:11.01Z</time></trkpt><trkpt lat="44.24441657504723" lon="9.960560756816317"><ele>95.33333333333333</ele><time>2026-04-11T12:15:12.01Z</time></trkpt><trkpt lat="44.24427714860206" lon="9.96042465633987"><ele>98.0</ele><time>2026-04-11T12:15:13.01Z</time></trkpt><trkpt lat="44.24414066650208" lon="9.960267353968325"><ele>98.0</ele><time>2026-04-11T12:15:14.01Z</time></trkpt><trkpt lat="44.24399430309361" lon="9.96009269326928"><ele>98.0</ele><time>2026-04-11T12:15:15.01Z</time></trkpt><trkpt lat="44.24384287242568" lon="9.959924487953463"><ele>98.0</ele><time>2026-04-11T12:15:16.01Z</time></trkpt><trkpt lat="44.24369040952134" lon="9.959761016752696"><ele>97.66666666666666</ele><time>2026-04-11T12:15:17.01Z</time></trkpt><trkpt lat="44.24353798962836" lon="9.959604932727606"><ele>97.33333333333334</ele><time>2026-04-11T12:15:18.01Z</time></trkpt><trkpt lat="44.24340114467481" lon="9.959459532744257"><ele>97.0</ele><time>2026-04-11T12:15:19.01Z</time></trkpt><trkpt lat="44.24326860056038" lon="9.959336411567845"><ele>97.0</ele><time>2026-04-11T12:15:20.01Z</time></trkpt><trkpt lat="44.24313649935601" lon="9.959248870285546"><ele>97.0</ele><time>2026-04-11T12:15:21.01Z</time></trkpt><trkpt lat="44.24299251165846" lon="9.959214084565277"><ele>97.0</ele><time>2026-04-11T12:15:22.01Z</time></trkpt><trkpt lat="44.24281406209748" lon="9.959252990957904"><ele>96.66666666666667</ele><time>2026-04-11T12:15:23.01Z</time></trkpt><trkpt lat="44.242612815295" lon="9.959310499530691"><ele>96.33333333333334</ele><time>2026-04-11T12:15:24.01Z</time></trkpt><trkpt lat="44.242418752898544" lon="9.959343751922303"><ele>96.0</ele><time>2026-04-11T12:15:25.01Z</time></trkpt><trkpt lat="44.242228843190794" lon="9.959364733922605"><ele>94.33333333333333</ele><time>2026-04-11T12:15:26.01Z</time></trkpt><trkpt lat="44.24204728039514" lon="9.959393369693728"><ele>92.66666666666666</ele><time>2026-04-11T12:15:27.01Z</time></trkpt><trkpt lat="44.24186084359585" lon="9.959421437383972"><ele>91.0</ele><time>2026-04-11T12:15:28.01Z</time></trkpt><trkpt lat="44.24166759715285" lon="9.959449766595675"><ele>91.0</ele><time>2026-04-11T12:15:29.01Z</time></trkpt><trkpt lat="44.24147364166588" lon="9.959471882984673"><ele>91.0</ele><time>2026-04-11T12:15:30.01Z</time></trkpt><trkpt lat="44.24127657848425" lon="9.959502037807308"><ele>91.0</ele><time>2026-04-11T12:15:31.01Z</time></trkpt><trkpt lat="44.24108589597197" lon="9.95953221519664"><ele>89.66666666666666</ele><time>2026-04-11T12:15:32.01Z</time></trkpt><trkpt lat="44.24089783780819" lon="9.959554385228493"><ele>88.33333333333333</ele><time>2026-04-11T12:15:33.01Z</time></trkpt><trkpt lat="44.24070961542819" lon="9.959581429218002"><ele>87.0</ele><time>2026-04-11T12:15:34.01Z</time></trkpt><trkpt lat="44.24052388233452" lon="9.959598376702669"><ele>86.0</ele><time>2026-04-11T12:15:35.01Z</time></trkpt><trkpt lat="44.240339987446106" lon="9.959620438917849"><ele>85.0</ele><time>2026-04-11T12:15:36.01Z</time></trkpt><trkpt lat="44.2401639775492" lon="9.959646082952096"><ele>84.0</ele><time>2026-04-11T12:15:37.01Z</time></trkpt><trkpt lat="44.239987798723064" lon="9.959663501685478"><ele>84.0</ele><time>2026-04-11T12:15:38.01Z</time></trkpt><trkpt lat="44.23981584670301" lon="9.95969662065517"><ele>84.0</ele><time>2026-04-11T12:15:39.01Z</time></trkpt><trkpt lat="44.23964580862467" lon="9.959718432846536"><ele>84.0</ele><time>2026-04-11T12:15:40.01Z</time></trkpt><trkpt lat="44.239487302194156" lon="9.959739990204849"><ele>83.5</ele><time>2026-04-11T12:15:41.01Z</time></trkpt><trkpt lat="44.2393376124621" lon="9.959756633394676"><ele>83.0</ele><time>2026-04-11T12:15:42.01Z</time></trkpt><trkpt lat="44.23920067276045" lon="9.959769963599296"><ele>82.5</ele><time>2026-04-11T12:15:43.01Z</time></trkpt><trkpt lat="44.23907672760319" lon="9.959786130323971"><ele>82.0</ele><time>2026-04-11T12:15:44.01Z</time></trkpt><trkpt lat="44.23896414442826" lon="9.959799868765748"><ele>82.0</ele><time>2026-04-11T12:15:45.01Z</time></trkpt><trkpt lat="44.238849521144026" lon="9.959807883176413"><ele>82.0</ele><time>2026-04-11T12:15:46.01Z</time></trkpt><trkpt lat="44.23873699638814" lon="9.959815212020848"><ele>82.0</ele><time>2026-04-11T12:15:47.01Z</time></trkpt><trkpt lat="44.23862370803842" lon="9.959833082891386"><ele>82.0</ele><time>2026-04-11T12:15:48.01Z</time></trkpt><trkpt lat="44.23851031025045" lon="9.959844391058727"><ele>82.0</ele><time>2026-04-11T12:15:49.01Z</time></trkpt><trkpt lat="44.2383979062726" lon="9.95985790067393"><ele>82.0</ele><time>2026-04-11T12:15:50.01Z</time></trkpt><trkpt lat="44.23828107736429" lon="9.959871487837141"><ele>82.0</ele><time>2026-04-11T12:15:51.01Z</time></trkpt><trkpt lat="44.238163925803256" lon="9.959888723970847"><ele>82.0</ele><time>2026-04-11T12:15:52.01Z</time></trkpt><trkpt lat="44.238044970449295" lon="9.959894966609998"><ele>81.75</ele><time>2026-04-11T12:15:53.01Z</time></trkpt><trkpt lat="44.237923965138165" lon="9.95990711840063"><ele>81.5</ele><time>2026-04-11T12:15:54.01Z</time></trkpt><trkpt lat="44.23780131612861" lon="9.959926780810337"><ele>81.25</ele><time>2026-04-11T12:15:55.01Z</time></trkpt><trkpt lat="44.23767759124339" lon="9.959942143598289"><ele>81.0</ele><time>2026-04-11T12:15:56.01Z</time></trkpt><trkpt lat="44.23755562409837" lon="9.959965496073885"><ele>81.0</ele><time>2026-04-11T12:15:57.01Z</time></trkpt><trkpt lat="44.23742528780585" lon="9.959983264748047"><ele>81.0</ele><time>2026-04-11T12:15:58.01Z</time></trkpt><trkpt lat="44.23729514351319" lon="9.959998766269747"><ele>81.0</ele><time>2026-04-11T12:15:59.01Z</time></trkpt><trkpt lat="44.23716094809636" lon="9.960017865402042"><ele>81.0</ele><time>2026-04-11T12:16:00.01Z</time></trkpt><trkpt lat="44.237024402544435" lon="9.960035488015464"><ele>87.0</ele><time>2026-04-11T12:16:01.01Z</time></trkpt><trkpt lat="44.23687358679811" lon="9.960048264645105"><ele>93.0</ele><time>2026-04-11T12:16:02.01Z</time></trkpt><trkpt lat="44.23670587523346" lon="9.96006935360035"><ele>99.0</ele><time>2026-04-11T12:16:03.01Z</time></trkpt><trkpt lat="44.23651715113846" lon="9.960092999512359"><ele>98.0</ele><time>2026-04-11T12:16:04.01Z</time></trkpt><trkpt lat="44.23631537710452" lon="9.96012148385083"><ele>97.0</ele><time>2026-04-11T12:16:05.01Z</time></trkpt><trkpt lat="44.23609855392943" lon="9.960147600257466"><ele>96.0</ele><time>2026-04-11T12:16:06.011Z</time></trkpt><trkpt lat="44.23587286701376" lon="9.960174559131906"><ele>93.5</ele><time>2026-04-11T12:16:07.011Z</time></trkpt><trkpt lat="44.23563675835344" lon="9.960199437898106"><ele>91.0</ele><time>2026-04-11T12:16:07.99Z</time></trkpt><trkpt lat="44.23538415637771" lon="9.960231933703376"><ele>91.0</ele><time>2026-04-11T12:16:08.99Z</time></trkpt><trkpt lat="44.235131506108786" lon="9.960263586131635"><ele>91.0</ele><time>2026-04-11T12:16:09.99Z</time></trkpt><trkpt lat="44.2348709546411" lon="9.960287351145535"><ele>90.0</ele><time>2026-04-11T12:16:10.99Z</time></trkpt><trkpt lat="44.23460740337045" lon="9.960320246183292"><ele>89.0</ele><time>2026-04-11T12:16:11.99Z</time></trkpt><trkpt lat="44.2343509818567" lon="9.960353717388733"><ele>89.0</ele><time>2026-04-11T12:16:12.99Z</time></trkpt><trkpt lat="44.23410303137923" lon="9.960381316550935"><ele>89.0</ele><time>2026-04-11T12:16:13.99Z</time></trkpt><trkpt lat="44.23386184775939" lon="9.96040979587144"><ele>86.5</ele><time>2026-04-11T12:16:14.99Z</time></trkpt><trkpt lat="44.23362646120222" lon="9.960438276893719"><ele>84.0</ele><time>2026-04-11T12:16:15.99Z</time></trkpt><trkpt lat="44.233397611472334" lon="9.960463647221518"><ele>84.0</ele><time>2026-04-11T12:16:16.99Z</time></trkpt><trkpt lat="44.23317142348138" lon="9.960491034855822"><ele>84.0</ele><time>2026-04-11T12:16:17.99Z</time></trkpt><trkpt lat="44.232954521316806" lon="9.960520641163896"><ele>84.0</ele><time>2026-04-11T12:16:18.99Z</time></trkpt><trkpt lat="44.23274100830058" lon="9.960547883471255"><ele>82.66666666666667</ele><time>2026-04-11T12:16:19.99Z</time></trkpt><trkpt lat="44.232540044157496" lon="9.960572300803813"><ele>81.33333333333334</ele><time>2026-04-11T12:16:20.99Z</time></trkpt><trkpt lat="44.23235569629633" lon="9.960603630542396"><ele>80.0</ele><time>2026-04-11T12:16:21.99Z</time></trkpt><trkpt lat="44.23218710588751" lon="9.960647991530076"><ele>78.33333333333334</ele><time>2026-04-11T12:16:22.99Z</time></trkpt><trkpt lat="44.232027233287035" lon="9.96070413137266"><ele>76.66666666666667</ele><time>2026-04-11T12:16:23.99Z</time></trkpt><trkpt lat="44.23186467636037" lon="9.960797818068826"><ele>75.0</ele><time>2026-04-11T12:16:24.99Z</time></trkpt><trkpt lat="44.23171963285215" lon="9.960914796842848"><ele>75.0</ele><time>2026-04-11T12:16:25.99Z</time></trkpt><trkpt lat="44.23157970773446" lon="9.961058056057539"><ele>75.0</ele><time>2026-04-11T12:16:26.99Z</time></trkpt><trkpt lat="44.23145037741469" lon="9.961221978362403"><ele>75.0</ele><time>2026-04-11T12:16:27.99Z</time></trkpt><trkpt lat="44.231333235758534" lon="9.961396772266857"><ele>74.33333333333333</ele><time>2026-04-11T12:16:28.99Z</time></trkpt><trkpt lat="44.231231769174514" lon="9.961583793511855"><ele>73.66666666666666</ele><time>2026-04-11T12:16:29.99Z</time></trkpt><trkpt lat="44.231147370311575" lon="9.96178294793035"><ele>73.0</ele><time>2026-04-11T12:16:30.99Z</time></trkpt><trkpt lat="44.23108078376064" lon="9.961984137437259"><ele>73.0</ele><time>2026-04-11T12:16:31.99Z</time></trkpt><trkpt lat="44.23103603761097" lon="9.962197372935856"><ele>73.0</ele><time>2026-04-11T12:16:32.99Z</time></trkpt><trkpt lat="44.23098995468206" lon="9.962422733851751"><ele>73.0</ele><time>2026-04-11T12:16:33.99Z</time></trkpt><trkpt lat="44.23095063452378" lon="9.962665575077633"><ele>73.33333333333333</ele><time>2026-04-11T12:16:34.99Z</time></trkpt><trkpt lat="44.23091402531121" lon="9.962909929616101"><ele>73.66666666666667</ele><time>2026-04-11T12:16:35.99Z</time></trkpt><trkpt lat="44.23087633457734" lon="9.963148688251591"><ele>74.0</ele><time>2026-04-11T12:16:36.99Z</time></trkpt><trkpt lat="44.230838082455904" lon="9.96338468482235"><ele>75.0</ele><time>2026-04-11T12:16:37.99Z</time></trkpt><trkpt lat="44.230809042972126" lon="9.963607984855635"><ele>76.0</ele><time>2026-04-11T12:16:38.99Z</time></trkpt><trkpt lat="44.230766502515486" lon="9.963826572240215"><ele>77.0</ele><time>2026-04-11T12:16:39.99Z</time></trkpt><trkpt lat="44.23071134177476" lon="9.964038206001055"><ele>76.0</ele><time>2026-04-11T12:16:40.99Z</time></trkpt><trkpt lat="44.23064068706667" lon="9.964240995891176"><ele>75.0</ele><time>2026-04-11T12:16:41.99Z</time></trkpt><trkpt lat="44.23055624821093" lon="9.96441701140691"><ele>74.0</ele><time>2026-04-11T12:16:42.99Z</time></trkpt><trkpt lat="44.23044281649227" lon="9.964573367114467"><ele>74.0</ele><time>2026-04-11T12:16:43.99Z</time></trkpt><trkpt lat="44.23030871144992" lon="9.964685272453742"><ele>74.0</ele><time>2026-04-11T12:16:44.99Z</time></trkpt><trkpt lat="44.23019249470737" lon="9.964753885654932"><ele>74.0</ele><time>2026-04-11T12:16:45.99Z</time></trkpt><trkpt lat="44.23010028654435" lon="9.964799487671831"><ele>74.0</ele><time>2026-04-11T12:16:46.99Z</time></trkpt><trkpt lat="44.23002617911038" lon="9.96482591862002"><ele>74.0</ele><time>2026-04-11T12:16:47.99Z</time></trkpt><trkpt lat="44.22996070543842" lon="9.964835334165336"><ele>74.0</ele><time>2026-04-11T12:16:48.99Z</time></trkpt><trkpt lat="44.229894335433926" lon="9.964841368109322"><ele>74.0</ele><time>2026-04-11T12:16:49.99Z</time></trkpt><trkpt lat="44.229805237349616" lon="9.964871488792692"><ele>74.0</ele><time>2026-04-11T12:16:50.99Z</time></trkpt><trkpt lat="44.22970386791516" lon="9.964907167172386"><ele>74.0</ele><time>2026-04-11T12:16:51.99Z</time></trkpt><trkpt lat="44.22959898719475" lon="9.964931950548243"><ele>74.0</ele><time>2026-04-11T12:16:52.99Z</time></trkpt><trkpt lat="44.229488294363186" lon="9.964965196923652"><ele>72.25</ele><time>2026-04-11T12:16:53.99Z</time></trkpt><trkpt lat="44.22937124461815" lon="9.965012779058576"><ele>70.5</ele><time>2026-04-11T12:16:54.988Z</time></trkpt><trkpt lat="44.22924188057206" lon="9.96506605330329"><ele>68.75</ele><time>2026-04-11T12:16:55.987Z</time></trkpt><trkpt lat="44.229120127996914" lon="9.965107731196959"><ele>67.0</ele><time>2026-04-11T12:16:56.987Z</time></trkpt><trkpt lat="44.22899669054114" lon="9.965165963448557"><ele>67.0</ele><time>2026-04-11T12:16:57.987Z</time></trkpt><trkpt lat="44.228878176618096" lon="9.965209977068925"><ele>67.0</ele><time>2026-04-11T12:16:58.987Z</time></trkpt><trkpt lat="44.22875671948455" lon="9.96525964301629"><ele>67.0</ele><time>2026-04-11T12:16:59.987Z</time></trkpt><trkpt lat="44.22863718283681" lon="9.965307661823799"><ele>67.0</ele><time>2026-04-11T12:17:00.987Z</time></trkpt><trkpt lat="44.22851767912266" lon="9.965354471433585"><ele>67.0</ele><time>2026-04-11T12:17:01.987Z</time></trkpt><trkpt lat="44.22839696695664" lon="9.965401901916698"><ele>67.0</ele><time>2026-04-11T12:17:02.987Z</time></trkpt><trkpt lat="44.22827209218046" lon="9.965451935782038"><ele>67.0</ele><time>2026-04-11T12:17:03.987Z</time></trkpt><trkpt lat="44.22815115939272" lon="9.96550977366633"><ele>67.0</ele><time>2026-04-11T12:17:04.987Z</time></trkpt><trkpt lat="44.22803013347844" lon="9.965564229146493"><ele>66.75</ele><time>2026-04-11T12:17:05.987Z</time></trkpt><trkpt lat="44.22791487312097" lon="9.965602643788161"><ele>66.5</ele><time>2026-04-11T12:17:06.987Z</time></trkpt><trkpt lat="44.227802160857244" lon="9.96564552732234"><ele>66.25</ele><time>2026-04-11T12:17:07.988Z</time></trkpt><trkpt lat="44.22769160909557" lon="9.965690296004148"><ele>66.0</ele><time>2026-04-11T12:17:08.988Z</time></trkpt><trkpt lat="44.227575999264964" lon="9.965728235654788"><ele>66.0</ele><time>2026-04-11T12:17:09.988Z</time></trkpt><trkpt lat="44.22746456509632" lon="9.965770333482089"><ele>66.0</ele><time>2026-04-11T12:17:10.988Z</time></trkpt><trkpt lat="44.227363296179036" lon="9.965810463755126"><ele>66.0</ele><time>2026-04-11T12:17:11.988Z</time></trkpt><trkpt lat="44.22726899473287" lon="9.96586455779189"><ele>66.0</ele><time>2026-04-11T12:17:12.988Z</time></trkpt><trkpt lat="44.227189579935306" lon="9.96592297354967"><ele>66.0</ele><time>2026-04-11T12:17:13.988Z</time></trkpt><trkpt lat="44.227124137266635" lon="9.96598733273794"><ele>65.6</ele><time>2026-04-11T12:17:14.988Z</time></trkpt><trkpt lat="44.22706600099223" lon="9.966047043982702"><ele>65.19999999999999</ele><time>2026-04-11T12:17:15.988Z</time></trkpt><trkpt lat="44.22698634039281" lon="9.966163940770947"><ele>64.80000000000001</ele><time>2026-04-11T12:17:17.988Z</time></trkpt><trkpt lat="44.22692269344133" lon="9.966263130490512"><ele>64.4</ele><time>2026-04-11T12:17:19.988Z</time></trkpt><trkpt lat="44.22686607394376" lon="9.966358614049357"><ele>64.0</ele><time>2026-04-11T12:17:21.988Z</time></trkpt><trkpt lat="44.22681124849297" lon="9.966447568260103"><ele>63.99999999999999</ele><time>2026-04-11T12:17:23.988Z</time></trkpt><trkpt lat="44.226767230563965" lon="9.966523754754373"><ele>64.0</ele><time>2026-04-11T12:17:25.988Z</time></trkpt><trkpt lat="44.226726938226776" lon="9.966595159723816"><ele>64.0</ele><time>2026-04-11T12:17:27.988Z</time></trkpt><trkpt lat="44.22668757320412" lon="9.966664673911202"><ele>64.0</ele><time>2026-04-11T12:17:29.988Z</time></trkpt><trkpt lat="44.22663249380057" lon="9.966759877201177"><ele>63.99999999999999</ele><time>2026-04-11T12:17:32.988Z</time></trkpt><trkpt lat="44.226571536906256" lon="9.966862472785202"><ele>64.0</ele><time>2026-04-11T12:17:35.988Z</time></trkpt><trkpt lat="44.22650164362243" lon="9.966974278249326"><ele>64.28571428571428</ele><time>2026-04-11T12:17:37.988Z</time></trkpt><trkpt lat="44.22645515303551" lon="9.967050663418648"><ele>64.57142857142857</ele><time>2026-04-11T12:17:38.988Z</time></trkpt><trkpt lat="44.22640865243672" lon="9.967128149543429"><ele>64.85714285714286</ele><time>2026-04-11T12:17:39.988Z</time></trkpt><trkpt lat="44.22636178824601" lon="9.967202659899968"><ele>65.14285714285714</ele><time>2026-04-11T12:17:40.988Z</time></trkpt><trkpt lat="44.226318966801756" lon="9.967272021996573"><ele>65.42857142857143</ele><time>2026-04-11T12:17:41.988Z</time></trkpt><trkpt lat="44.22627309459695" lon="9.967343568818476"><ele>65.71428571428571</ele><time>2026-04-11T12:17:42.988Z</time></trkpt><trkpt lat="44.22622365975785" lon="9.967418598049653"><ele>66.0</ele><time>2026-04-11T12:17:43.988Z</time></trkpt><trkpt lat="44.22616613468137" lon="9.967502814171723"><ele>66.16666666666667</ele><time>2026-04-11T12:17:44.988Z</time></trkpt><trkpt lat="44.22610498470562" lon="9.967591701657396"><ele>66.33333333333333</ele><time>2026-04-11T12:17:45.988Z</time></trkpt><trkpt lat="44.22604483548245" lon="9.967674286579266"><ele>66.5</ele><time>2026-04-11T12:17:46.988Z</time></trkpt><trkpt lat="44.2259924210656" lon="9.967747135499902"><ele>66.66666666666666</ele><time>2026-04-11T12:17:47.988Z</time></trkpt><trkpt lat="44.2259360866206" lon="9.96783759790796"><ele>66.83333333333333</ele><time>2026-04-11T12:17:49.988Z</time></trkpt><trkpt lat="44.22588927504783" lon="9.967910465742841"><ele>67.0</ele><time>2026-04-11T12:17:53.988Z</time></trkpt><trkpt lat="44.225969277861694" lon="9.96806843437"><ele>67.0</ele><time>2026-04-11T12:17:55.988Z</time></trkpt><trkpt lat="44.2260311194673" lon="9.968147730071362"><ele>67.0</ele><time>2026-04-11T12:17:56.988Z</time></trkpt><trkpt lat="44.22610459409401" lon="9.968267148812997"><ele>67.0</ele><time>2026-04-11T12:17:57.988Z</time></trkpt><trkpt lat="44.22619186547944" lon="9.968413950843901"><ele>67.0</ele><time>2026-04-11T12:17:58.988Z</time></trkpt><trkpt lat="44.226288170943675" lon="9.968582820013095"><ele>67.0</ele><time>2026-04-11T12:17:59.988Z</time></trkpt><trkpt lat="44.226387869894836" lon="9.968751470253236"><ele>67.0</ele><time>2026-04-11T12:18:00.988Z</time></trkpt><trkpt lat="44.22647834304725" lon="9.968900221704102"><ele>67.0</ele><time>2026-04-11T12:18:01.988Z</time></trkpt><trkpt lat="44.22656447104763" lon="9.969039337313555"><ele>67.0</ele><time>2026-04-11T12:18:02.988Z</time></trkpt><trkpt lat="44.22665196350638" lon="9.969174542756306"><ele>67.0</ele><time>2026-04-11T12:18:03.988Z</time></trkpt><trkpt lat="44.22673057718698" lon="9.969315601370862"><ele>67.0</ele><time>2026-04-11T12:18:04.988Z</time></trkpt><trkpt lat="44.22680849607284" lon="9.96945274815159"><ele>67.0</ele><time>2026-04-11T12:18:05.988Z</time></trkpt><trkpt lat="44.22688142954555" lon="9.969588833320344"><ele>67.0</ele><time>2026-04-11T12:18:06.988Z</time></trkpt><trkpt lat="44.22695741343043" lon="9.969728441864786"><ele>67.0</ele><time>2026-04-11T12:18:07.988Z</time></trkpt><trkpt lat="44.22703735252397" lon="9.969872434009513"><ele>67.0</ele><time>2026-04-11T12:18:08.988Z</time></trkpt><trkpt lat="44.22712197118196" lon="9.97002761861358"><ele>67.0</ele><time>2026-04-11T12:18:09.988Z</time></trkpt><trkpt lat="44.227204972394745" lon="9.970177876013526"><ele>67.0</ele><time>2026-04-11T12:18:10.988Z</time></trkpt><trkpt lat="44.22727838274852" lon="9.970328108709472"><ele>69.75</ele><time>2026-04-11T12:18:11.988Z</time></trkpt><trkpt lat="44.22733872892085" lon="9.970477383964043"><ele>72.5</ele><time>2026-04-11T12:18:12.988Z</time></trkpt><trkpt lat="44.227380980573166" lon="9.970627338757344"><ele>75.25</ele><time>2026-04-11T12:18:13.988Z</time></trkpt><trkpt lat="44.22741464842321" lon="9.970775063330029"><ele>78.0</ele><time>2026-04-11T12:18:14.988Z</time></trkpt><trkpt lat="44.22742411141311" lon="9.970937452310698"><ele>77.0</ele><time>2026-04-11T12:18:15.988Z</time></trkpt><trkpt lat="44.22739944689854" lon="9.971102343936366"><ele>76.0</ele><time>2026-04-11T12:18:16.988Z</time></trkpt><trkpt lat="44.22735729407673" lon="9.97127203809795"><ele>75.0</ele><time>2026-04-11T12:18:17.988Z</time></trkpt><trkpt lat="44.22730856058308" lon="9.971447055210598"><ele>74.0</ele><time>2026-04-11T12:18:18.988Z</time></trkpt><trkpt lat="44.22726178634231" lon="9.971628148739542"><ele>75.75</ele><time>2026-04-11T12:18:19.988Z</time></trkpt><trkpt lat="44.227215651464995" lon="9.971805136411689"><ele>77.5</ele><time>2026-04-11T12:18:20.988Z</time></trkpt><trkpt lat="44.22718408210806" lon="9.971977536281926"><ele>79.25</ele><time>2026-04-11T12:18:21.988Z</time></trkpt><trkpt lat="44.227172329367335" lon="9.972153489215067"><ele>81.0</ele><time>2026-04-11T12:18:22.988Z</time></trkpt><trkpt lat="44.227176617471606" lon="9.972336686716014"><ele>81.0</ele><time>2026-04-11T12:18:23.988Z</time></trkpt><trkpt lat="44.22719071792856" lon="9.972515853364834"><ele>81.0</ele><time>2026-04-11T12:18:24.988Z</time></trkpt><trkpt lat="44.22722015574995" lon="9.97269051359006"><ele>81.0</ele><time>2026-04-11T12:18:25.988Z</time></trkpt><trkpt lat="44.22728088647353" lon="9.972859472226778"><ele>81.0</ele><time>2026-04-11T12:18:26.988Z</time></trkpt><trkpt lat="44.22736700043268" lon="9.973030358377274"><ele>84.0</ele><time>2026-04-11T12:18:27.988Z</time></trkpt><trkpt lat="44.227481469543086" lon="9.973222323512386"><ele>87.0</ele><time>2026-04-11T12:18:28.988Z</time></trkpt><trkpt lat="44.22761814575857" lon="9.97343556241099"><ele>90.0</ele><time>2026-04-11T12:18:29.988Z</time></trkpt><trkpt lat="44.22775852539105" lon="9.973663423292896"><ele>90.0</ele><time>2026-04-11T12:18:30.988Z</time></trkpt><trkpt lat="44.227909680636884" lon="9.973902637637586"><ele>90.0</ele><time>2026-04-11T12:18:31.988Z</time></trkpt><trkpt lat="44.22805053337648" lon="9.974133206808139"><ele>90.0</ele><time>2026-04-11T12:18:32.988Z</time></trkpt><trkpt lat="44.22818659265727" lon="9.974351174978155"><ele>91.33333333333333</ele><time>2026-04-11T12:18:33.988Z</time></trkpt><trkpt lat="44.22831186360215" lon="9.974561638010478"><ele>92.66666666666666</ele><time>2026-04-11T12:18:34.988Z</time></trkpt><trkpt lat="44.22844162031623" lon="9.974769986570568"><ele>94.0</ele><time>2026-04-11T12:18:35.988Z</time></trkpt><trkpt lat="44.22856788662049" lon="9.974973263537331"><ele>93.0</ele><time>2026-04-11T12:18:36.988Z</time></trkpt><trkpt lat="44.22870097442104" lon="9.975181120325484"><ele>92.0</ele><time>2026-04-11T12:18:37.988Z</time></trkpt><trkpt lat="44.22883601349016" lon="9.97539458911254"><ele>91.0</ele><time>2026-04-11T12:18:38.988Z</time></trkpt><trkpt lat="44.22896855456213" lon="9.975610405610935"><ele>93.33333333333333</ele><time>2026-04-11T12:18:39.988Z</time></trkpt><trkpt lat="44.22910304734672" lon="9.975826941371244"><ele>95.66666666666666</ele><time>2026-04-11T12:18:40.989Z</time></trkpt><trkpt lat="44.2292384378939" lon="9.976048755957352"><ele>98.0</ele><time>2026-04-11T12:18:41.989Z</time></trkpt><trkpt lat="44.22936655594095" lon="9.976263652481665"><ele>98.0</ele><time>2026-04-11T12:18:42.989Z</time></trkpt><trkpt lat="44.22948725065937" lon="9.97647091162778"><ele>98.0</ele><time>2026-04-11T12:18:43.989Z</time></trkpt><trkpt lat="44.22960551880804" lon="9.97666860846964"><ele>98.0</ele><time>2026-04-11T12:18:44.989Z</time></trkpt><trkpt lat="44.22972520122745" lon="9.97685633900376"><ele>98.33333333333333</ele><time>2026-04-11T12:18:45.989Z</time></trkpt><trkpt lat="44.22984921431433" lon="9.977042213815723"><ele>98.66666666666666</ele><time>2026-04-11T12:18:46.989Z</time></trkpt><trkpt lat="44.22996594800542" lon="9.977227015218627"><ele>99.0</ele><time>2026-04-11T12:18:47.989Z</time></trkpt><trkpt lat="44.23008258545453" lon="9.97741117782326"><ele>98.33333333333334</ele><time>2026-04-11T12:18:48.989Z</time></trkpt><trkpt lat="44.23021055844757" lon="9.97760459731446"><ele>97.66666666666667</ele><time>2026-04-11T12:18:49.989Z</time></trkpt><trkpt lat="44.23036105497504" lon="9.977823843880456"><ele>97.0</ele><time>2026-04-11T12:18:50.989Z</time></trkpt><trkpt lat="44.230513824132714" lon="9.978071390365285"><ele>99.0</ele><time>2026-04-11T12:18:51.989Z</time></trkpt><trkpt lat="44.23066149294662" lon="9.978340135869566"><ele>101.0</ele><time>2026-04-11T12:18:52.989Z</time></trkpt><trkpt lat="44.23081308529153" lon="9.978604228148809"><ele>101.0</ele><time>2026-04-11T12:18:53.989Z</time></trkpt><trkpt lat="44.23097358166122" lon="9.978864678872965"><ele>101.0</ele><time>2026-04-11T12:18:54.989Z</time></trkpt><trkpt lat="44.231128561573684" lon="9.979122994329156"><ele>100.0</ele><time>2026-04-11T12:18:55.989Z</time></trkpt><trkpt lat="44.231282542575215" lon="9.979370913988044"><ele>99.0</ele><time>2026-04-11T12:18:56.989Z</time></trkpt><trkpt lat="44.23142370922145" lon="9.979610321426122"><ele>101.33333333333334</ele><time>2026-04-11T12:18:57.989Z</time></trkpt><trkpt lat="44.23156388820981" lon="9.979849179078025"><ele>103.66666666666667</ele><time>2026-04-11T12:18:58.989Z</time></trkpt><trkpt lat="44.231701109732455" lon="9.980079983674603"><ele>106.0</ele><time>2026-04-11T12:18:59.989Z</time></trkpt><trkpt lat="44.23183327770239" lon="9.980296517042257"><ele>106.0</ele><time>2026-04-11T12:19:00.985Z</time></trkpt><trkpt lat="44.23195007527372" lon="9.980499719456654"><ele>106.0</ele><time>2026-04-11T12:19:01.985Z</time></trkpt><trkpt lat="44.23205546307107" lon="9.980683109604836"><ele>106.0</ele><time>2026-04-11T12:19:02.985Z</time></trkpt><trkpt lat="44.23217799403318" lon="9.98084966111587"><ele>108.66666666666667</ele><time>2026-04-11T12:19:03.986Z</time></trkpt><trkpt lat="44.232319096538845" lon="9.981009026565108"><ele>111.33333333333334</ele><time>2026-04-11T12:19:04.986Z</time></trkpt><trkpt lat="44.232468900524104" lon="9.98115503577872"><ele>114.0</ele><time>2026-04-11T12:19:05.986Z</time></trkpt><trkpt lat="44.23262728861713" lon="9.981298836158757"><ele>114.0</ele><time>2026-04-11T12:19:06.986Z</time></trkpt><trkpt lat="44.23279080214507" lon="9.981444244428253"><ele>114.0</ele><time>2026-04-11T12:19:07.985Z</time></trkpt><trkpt lat="44.23293952985343" lon="9.981590140473356"><ele>114.0</ele><time>2026-04-11T12:19:08.985Z</time></trkpt><trkpt lat="44.23309090201116" lon="9.981718324678955"><ele>112.33333333333334</ele><time>2026-04-11T12:19:09.985Z</time></trkpt><trkpt lat="44.233228157287115" lon="9.981830792288534"><ele>110.66666666666667</ele><time>2026-04-11T12:19:10.985Z</time></trkpt><trkpt lat="44.2333600798145" lon="9.981932231356295"><ele>109.0</ele><time>2026-04-11T12:19:11.985Z</time></trkpt><trkpt lat="44.23349580854924" lon="9.982009413211534"><ele>109.0</ele><time>2026-04-11T12:19:12.985Z</time></trkpt><trkpt lat="44.23364551547103" lon="9.982047199693321"><ele>109.0</ele><time>2026-04-11T12:19:13.985Z</time></trkpt><trkpt lat="44.23380590770633" lon="9.982055475970594"><ele>109.0</ele><time>2026-04-11T12:19:14.985Z</time></trkpt><trkpt lat="44.233968896928815" lon="9.98205497709098"><ele>112.75</ele><time>2026-04-11T12:19:15.985Z</time></trkpt><trkpt lat="44.23411316600188" lon="9.982076691870834"><ele>116.5</ele><time>2026-04-11T12:19:16.985Z</time></trkpt><trkpt lat="44.2342089699103" lon="9.982158347990365"><ele>120.25</ele><time>2026-04-11T12:19:17.985Z</time></trkpt><trkpt lat="44.23429489547129" lon="9.982294164671885"><ele>124.0</ele><time>2026-04-11T12:19:18.985Z</time></trkpt><trkpt lat="44.2343614637203" lon="9.982480372616212"><ele>119.33333333333334</ele><time>2026-04-11T12:19:19.985Z</time></trkpt><trkpt lat="44.23442816641833" lon="9.982682312099097"><ele>114.66666666666666</ele><time>2026-04-11T12:19:20.985Z</time></trkpt><trkpt lat="44.23450079659473" lon="9.982886808517163"><ele>110.0</ele><time>2026-04-11T12:19:21.985Z</time></trkpt><trkpt lat="44.23458445490729" lon="9.983077179746125"><ele>110.0</ele><time>2026-04-11T12:19:22.985Z</time></trkpt><trkpt lat="44.23466763898362" lon="9.983262154220355"><ele>110.0</ele><time>2026-04-11T12:19:23.985Z</time></trkpt><trkpt lat="44.23476973818727" lon="9.983425412508835"><ele>110.0</ele><time>2026-04-11T12:19:24.985Z</time></trkpt><trkpt lat="44.23489346117868" lon="9.983565823860195"><ele>113.25</ele><time>2026-04-11T12:19:25.985Z</time></trkpt><trkpt lat="44.23502455245563" lon="9.983688407663761"><ele>116.5</ele><time>2026-04-11T12:19:26.985Z</time></trkpt><trkpt lat="44.23514998474757" lon="9.98377991271452"><ele>119.75</ele><time>2026-04-11T12:19:27.985Z</time></trkpt><trkpt lat="44.23528733989436" lon="9.983844069450997"><ele>123.0</ele><time>2026-04-11T12:19:28.985Z</time></trkpt><trkpt lat="44.23543127890514" lon="9.98387398188165"><ele>123.0</ele><time>2026-04-11T12:19:29.985Z</time></trkpt><trkpt lat="44.235571693439084" lon="9.98385903315299"><ele>123.0</ele><time>2026-04-11T12:19:30.985Z</time></trkpt><trkpt lat="44.23571961362264" lon="9.983820315420918"><ele>123.0</ele><time>2026-04-11T12:19:31.985Z</time></trkpt><trkpt lat="44.23588694442938" lon="9.983768562098627"><ele>126.33333333333334</ele><time>2026-04-11T12:19:32.985Z</time></trkpt><trkpt lat="44.236047493184174" lon="9.983701717189417"><ele>129.66666666666669</ele><time>2026-04-11T12:19:33.985Z</time></trkpt><trkpt lat="44.23620516496094" lon="9.983616348394488"><ele>133.0</ele><time>2026-04-11T12:19:34.985Z</time></trkpt><trkpt lat="44.236362848305376" lon="9.98350382832149"><ele>137.66666666666669</ele><time>2026-04-11T12:19:35.985Z</time></trkpt><trkpt lat="44.23651906407376" lon="9.983376285995124"><ele>142.33333333333334</ele><time>2026-04-11T12:19:36.985Z</time></trkpt><trkpt lat="44.236669944014146" lon="9.983227481341592"><ele>147.0</ele><time>2026-04-11T12:19:37.985Z</time></trkpt><trkpt lat="44.23682656745408" lon="9.983078026528242"><ele>147.33333333333334</ele><time>2026-04-11T12:19:38.985Z</time></trkpt><trkpt lat="44.236989403687765" lon="9.982936560197647"><ele>147.66666666666669</ele><time>2026-04-11T12:19:39.985Z</time></trkpt><trkpt lat="44.23713148058176" lon="9.982793441414378"><ele>148.0</ele><time>2026-04-11T12:19:40.985Z</time></trkpt><trkpt lat="44.23726110137784" lon="9.982687967502576"><ele>149.75</ele><time>2026-04-11T12:19:41.985Z</time></trkpt><trkpt lat="44.23737879207555" lon="9.98260323429943"><ele>151.5</ele><time>2026-04-11T12:19:42.985Z</time></trkpt><trkpt lat="44.237505254849864" lon="9.982551492917878"><ele>153.25</ele><time>2026-04-11T12:19:43.985Z</time></trkpt><trkpt lat="44.23764015992499" lon="9.982552928844921"><ele>155.0</ele><time>2026-04-11T12:19:44.985Z</time></trkpt><trkpt lat="44.23778000241132" lon="9.98260993175335"><ele>155.0</ele><time>2026-04-11T12:19:45.985Z</time></trkpt><trkpt lat="44.237904472177675" lon="9.98272646191696"><ele>155.0</ele><time>2026-04-11T12:19:46.985Z</time></trkpt><trkpt lat="44.23801337323198" lon="9.982891067836281"><ele>155.0</ele><time>2026-04-11T12:19:47.985Z</time></trkpt><trkpt lat="44.23812288220041" lon="9.98307328628969"><ele>155.33333333333331</ele><time>2026-04-11T12:19:48.985Z</time></trkpt><trkpt lat="44.23822750165776" lon="9.983282077723432"><ele>155.66666666666666</ele><time>2026-04-11T12:19:49.985Z</time></trkpt><trkpt lat="44.23833030599115" lon="9.98350091475566"><ele>156.0</ele><time>2026-04-11T12:19:50.985Z</time></trkpt><trkpt lat="44.23843916062392" lon="9.983723803052118"><ele>156.0</ele><time>2026-04-11T12:19:51.985Z</time></trkpt><trkpt lat="44.23855638985061" lon="9.983946040205439"><ele>156.0</ele><time>2026-04-11T12:19:52.985Z</time></trkpt><trkpt lat="44.2386812026977" lon="9.98417665206117"><ele>156.0</ele><time>2026-04-11T12:19:53.985Z</time></trkpt><trkpt lat="44.23880152029766" lon="9.984389315826522"><ele>156.0</ele><time>2026-04-11T12:19:54.985Z</time></trkpt><trkpt lat="44.23891192595886" lon="9.984587778487134"><ele>156.0</ele><time>2026-04-11T12:19:55.985Z</time></trkpt><trkpt lat="44.23900415060665" lon="9.984760675655295"><ele>156.0</ele><time>2026-04-11T12:19:56.985Z</time></trkpt><trkpt lat="44.23909412536414" lon="9.984921856580593"><ele>156.0</ele><time>2026-04-11T12:19:57.985Z</time></trkpt><trkpt lat="44.2391624056946" lon="9.985060104314659"><ele>156.0</ele><time>2026-04-11T12:19:58.985Z</time></trkpt><trkpt lat="44.239198062671335" lon="9.98520739373952"><ele>156.0</ele><time>2026-04-11T12:19:59.985Z</time></trkpt><trkpt lat="44.239187825379766" lon="9.98538602706488"><ele>156.0</ele><time>2026-04-11T12:20:00.985Z</time></trkpt><trkpt lat="44.23913763917331" lon="9.98554791626518"><ele>156.0</ele><time>2026-04-11T12:20:01.985Z</time></trkpt><trkpt lat="44.2390624000846" lon="9.985694345451513"><ele>156.0</ele><time>2026-04-11T12:20:02.985Z</time></trkpt><trkpt lat="44.23901093181197" lon="9.985844316932436"><ele>156.0</ele><time>2026-04-11T12:20:03.985Z</time></trkpt><trkpt lat="44.23899527716186" lon="9.986013840282627"><ele>156.0</ele><time>2026-04-11T12:20:04.985Z</time></trkpt><trkpt lat="44.239014270402095" lon="9.98618335491737"><ele>154.75</ele><time>2026-04-11T12:20:05.985Z</time></trkpt><trkpt lat="44.23906587979594" lon="9.986322092122514"><ele>153.5</ele><time>2026-04-11T12:20:06.985Z</time></trkpt><trkpt lat="44.23915632553371" lon="9.986432182885682"><ele>152.25</ele><time>2026-04-11T12:20:07.985Z</time></trkpt><trkpt lat="44.23926439539979" lon="9.986471396093485"><ele>151.0</ele><time>2026-04-11T12:20:08.985Z</time></trkpt><trkpt lat="44.23942183581492" lon="9.986447555076921"><ele>151.0</ele><time>2026-04-11T12:20:09.985Z</time></trkpt><trkpt lat="44.23960647028243" lon="9.98639260495135"><ele>151.0</ele><time>2026-04-11T12:20:10.985Z</time></trkpt><trkpt lat="44.239779541197045" lon="9.986346193158035"><ele>151.0</ele><time>2026-04-11T12:20:11.985Z</time></trkpt><trkpt lat="44.239934246031666" lon="9.986304482610105"><ele>151.0</ele><time>2026-04-11T12:20:12.985Z</time></trkpt><trkpt lat="44.24007729063027" lon="9.986235390967282"><ele>151.0</ele><time>2026-04-11T12:20:13.985Z</time></trkpt><trkpt lat="44.24020986836441" lon="9.98616656765067"><ele>151.0</ele><time>2026-04-11T12:20:14.985Z</time></trkpt><trkpt lat="44.24033098744933" lon="9.98615012097088"><ele>151.0</ele><time>2026-04-11T12:20:15.985Z</time></trkpt><trkpt lat="44.24043744047874" lon="9.986175433016712"><ele>151.0</ele><time>2026-04-11T12:20:16.985Z</time></trkpt><trkpt lat="44.24053954399318" lon="9.986285018350085"><ele>151.0</ele><time>2026-04-11T12:20:17.985Z</time></trkpt><trkpt lat="44.24061129810309" lon="9.98643365493969"><ele>151.0</ele><time>2026-04-11T12:20:18.985Z</time></trkpt><trkpt lat="44.24065777217644" lon="9.986612566048754"><ele>151.0</ele><time>2026-04-11T12:20:19.985Z</time></trkpt><trkpt lat="44.24069725923632" lon="9.986798670062731"><ele>151.33333333333334</ele><time>2026-04-11T12:20:20.985Z</time></trkpt><trkpt lat="44.240743447058826" lon="9.987000781590547"><ele>151.66666666666666</ele><time>2026-04-11T12:20:21.985Z</time></trkpt><trkpt lat="44.240791020318994" lon="9.987220754444511"><ele>152.0</ele><time>2026-04-11T12:20:22.985Z</time></trkpt><trkpt lat="44.24084180120353" lon="9.987430720243985"><ele>152.33333333333331</ele><time>2026-04-11T12:20:23.985Z</time></trkpt><trkpt lat="44.24090910758801" lon="9.987625083015244"><ele>152.66666666666666</ele><time>2026-04-11T12:20:24.985Z</time></trkpt><trkpt lat="44.24100302962829" lon="9.987793083414646"><ele>153.0</ele><time>2026-04-11T12:20:25.985Z</time></trkpt><trkpt lat="44.24111215446726" lon="9.98795978185727"><ele>153.0</ele><time>2026-04-11T12:20:26.985Z</time></trkpt><trkpt lat="44.241240536402266" lon="9.988143313293778"><ele>153.0</ele><time>2026-04-11T12:20:27.986Z</time></trkpt><trkpt lat="44.24137214494947" lon="9.988345847007107"><ele>153.0</ele><time>2026-04-11T12:20:28.986Z</time></trkpt><trkpt lat="44.2415047960651" lon="9.988549147342852"><ele>153.33333333333334</ele><time>2026-04-11T12:20:29.986Z</time></trkpt><trkpt lat="44.241640614245185" lon="9.988764207857267"><ele>153.66666666666669</ele><time>2026-04-11T12:20:30.986Z</time></trkpt><trkpt lat="44.24178127750343" lon="9.988986040091168"><ele>154.0</ele><time>2026-04-11T12:20:31.986Z</time></trkpt><trkpt lat="44.241922302295606" lon="9.989214934193331"><ele>154.0</ele><time>2026-04-11T12:20:32.986Z</time></trkpt><trkpt lat="44.24206506660272" lon="9.989442873535648"><ele>154.0</ele><time>2026-04-11T12:20:33.986Z</time></trkpt><trkpt lat="44.242214168513904" lon="9.989676745241399"><ele>154.0</ele><time>2026-04-11T12:20:34.986Z</time></trkpt><trkpt lat="44.24236165707722" lon="9.989909574484068"><ele>156.0</ele><time>2026-04-11T12:20:35.986Z</time></trkpt><trkpt lat="44.24250096376516" lon="9.99014603600726"><ele>158.0</ele><time>2026-04-11T12:20:36.986Z</time></trkpt><trkpt lat="44.24264485869226" lon="9.990378707805302"><ele>160.0</ele><time>2026-04-11T12:20:37.986Z</time></trkpt><trkpt lat="44.24278394273002" lon="9.990613749360119"><ele>160.0</ele><time>2026-04-11T12:20:38.986Z</time></trkpt><trkpt lat="44.24292489941374" lon="9.990836098256"><ele>160.0</ele><time>2026-04-11T12:20:39.986Z</time></trkpt><trkpt lat="44.24306551081083" lon="9.991057975939048"><ele>160.0</ele><time>2026-04-11T12:20:40.986Z</time></trkpt><trkpt lat="44.243195658474846" lon="9.991279350342722"><ele>161.0</ele><time>2026-04-11T12:20:41.986Z</time></trkpt><trkpt lat="44.24330747940849" lon="9.991497168194078"><ele>162.0</ele><time>2026-04-11T12:20:42.986Z</time></trkpt><trkpt lat="44.24340729325231" lon="9.991702762662937"><ele>163.0</ele><time>2026-04-11T12:20:43.986Z</time></trkpt><trkpt lat="44.24350035228771" lon="9.991883411791457"><ele>163.2</ele><time>2026-04-11T12:20:44.986Z</time></trkpt><trkpt lat="44.24357625088052" lon="9.992026387417576"><ele>163.4</ele><time>2026-04-11T12:20:45.986Z</time></trkpt><trkpt lat="44.24363835869737" lon="9.99213677932758"><ele>163.6</ele><time>2026-04-11T12:20:46.986Z</time></trkpt><trkpt lat="44.243694196869484" lon="9.992223812159793"><ele>163.79999999999998</ele><time>2026-04-11T12:20:47.986Z</time></trkpt><trkpt lat="44.24375341449298" lon="9.992315233719115"><ele>164.0</ele><time>2026-04-11T12:20:48.986Z</time></trkpt><trkpt lat="44.2438125870373" lon="9.992435173614583"><ele>164.5</ele><time>2026-04-11T12:20:49.986Z</time></trkpt><trkpt lat="44.24388818440266" lon="9.99257435371472"><ele>165.0</ele><time>2026-04-11T12:20:50.986Z</time></trkpt><trkpt lat="44.243980999692326" lon="9.992728879973923"><ele>165.5</ele><time>2026-04-11T12:20:51.986Z</time></trkpt><trkpt lat="44.24408772345686" lon="9.992886116465506"><ele>166.0</ele><time>2026-04-11T12:20:52.986Z</time></trkpt><trkpt lat="44.24420401314951" lon="9.993068302195379"><ele>166.33333333333334</ele><time>2026-04-11T12:20:53.986Z</time></trkpt><trkpt lat="44.24432152734988" lon="9.993263079142068"><ele>166.66666666666666</ele><time>2026-04-11T12:20:54.986Z</time></trkpt><trkpt lat="44.24443889162319" lon="9.993456544232641"><ele>167.0</ele><time>2026-04-11T12:20:55.986Z</time></trkpt><trkpt lat="44.2445469448085" lon="9.993641133832238"><ele>167.75</ele><time>2026-04-11T12:20:56.986Z</time></trkpt><trkpt lat="44.244651128086424" lon="9.993807534542672"><ele>168.5</ele><time>2026-04-11T12:20:57.986Z</time></trkpt><trkpt lat="44.2447376917448" lon="9.99395649034481"><ele>169.25</ele><time>2026-04-11T12:20:58.986Z</time></trkpt><trkpt lat="44.24481552676459" lon="9.994104039911859"><ele>170.0</ele><time>2026-04-11T12:20:59.986Z</time></trkpt><trkpt lat="44.24487208025291" lon="9.994270361193683"><ele>170.25</ele><time>2026-04-11T12:21:00.986Z</time></trkpt><trkpt lat="44.24491199773022" lon="9.994460519438867"><ele>170.5</ele><time>2026-04-11T12:21:01.986Z</time></trkpt><trkpt lat="44.244932815854455" lon="9.99465813395627"><ele>170.75</ele><time>2026-04-11T12:21:02.986Z</time></trkpt><trkpt lat="44.2449331645324" lon="9.994845812706911"><ele>171.0</ele><time>2026-04-11T12:21:03.986Z</time></trkpt><trkpt lat="44.24491846729589" lon="9.995031291536828"><ele>171.5</ele><time>2026-04-11T12:21:04.986Z</time></trkpt><trkpt lat="44.24490399571209" lon="9.99521871378378"><ele>172.0</ele><time>2026-04-11T12:21:05.986Z</time></trkpt><trkpt lat="44.24488167386447" lon="9.995382504916888"><ele>172.5</ele><time>2026-04-11T12:21:06.983Z</time></trkpt><trkpt lat="44.24483784181446" lon="9.995542718563753"><ele>173.0</ele><time>2026-04-11T12:21:07.983Z</time></trkpt><trkpt lat="44.24477214418893" lon="9.995697053166934"><ele>169.5</ele><time>2026-04-11T12:21:08.983Z</time></trkpt><trkpt lat="44.244711081263254" lon="9.995843927282449"><ele>166.0</ele><time>2026-04-11T12:21:09.983Z</time></trkpt><trkpt lat="44.244670814775425" lon="9.995983380358005"><ele>162.5</ele><time>2026-04-11T12:21:10.983Z</time></trkpt><trkpt lat="44.2446674439822" lon="9.996155518131532"><ele>159.0</ele><time>2026-04-11T12:21:11.983Z</time></trkpt><trkpt lat="44.244698729990304" lon="9.996354288449805"><ele>159.0</ele><time>2026-04-11T12:21:12.983Z</time></trkpt><trkpt lat="44.24474419911783" lon="9.996564600377274"><ele>159.0</ele><time>2026-04-11T12:21:13.983Z</time></trkpt><trkpt lat="44.244785112111515" lon="9.996783544527412"><ele>159.0</ele><time>2026-04-11T12:21:14.983Z</time></trkpt><trkpt lat="44.244820896946024" lon="9.996995080368755"><ele>159.33333333333334</ele><time>2026-04-11T12:21:15.983Z</time></trkpt><trkpt lat="44.24482641778678" lon="9.997203760637126"><ele>159.66666666666669</ele><time>2026-04-11T12:21:16.983Z</time></trkpt><trkpt lat="44.24479082431803" lon="9.997420527529275"><ele>160.0</ele><time>2026-04-11T12:21:17.983Z</time></trkpt><trkpt lat="44.24474564056585" lon="9.997627411433104"><ele>159.5</ele><time>2026-04-11T12:21:18.983Z</time></trkpt><trkpt lat="44.24471238366914" lon="9.997846790883223"><ele>159.0</ele><time>2026-04-11T12:21:19.983Z</time></trkpt><trkpt lat="44.244690618665864" lon="9.99804629446101"><ele>158.5</ele><time>2026-04-11T12:21:20.983Z</time></trkpt><trkpt lat="44.244677564693795" lon="9.998220385872886"><ele>158.0</ele><time>2026-04-11T12:21:21.983Z</time></trkpt><trkpt lat="44.2446914893036" lon="9.998385575081846"><ele>158.0</ele><time>2026-04-11T12:21:22.983Z</time></trkpt><trkpt lat="44.24474370412201" lon="9.998559524839504"><ele>158.0</ele><time>2026-04-11T12:21:23.983Z</time></trkpt><trkpt lat="44.24480671047366" lon="9.998747912224395"><ele>158.0</ele><time>2026-04-11T12:21:24.983Z</time></trkpt><trkpt lat="44.24487473535356" lon="9.99894509039988"><ele>158.0</ele><time>2026-04-11T12:21:25.983Z</time></trkpt><trkpt lat="44.244947267562665" lon="9.999159211573215"><ele>158.0</ele><time>2026-04-11T12:21:26.983Z</time></trkpt><trkpt lat="44.24501525716407" lon="9.999381403571295"><ele>158.0</ele><time>2026-04-11T12:21:27.983Z</time></trkpt><trkpt lat="44.245087334344326" lon="9.99960795271822"><ele>158.0</ele><time>2026-04-11T12:21:28.983Z</time></trkpt><trkpt lat="44.24515449482108" lon="9.999835151147673"><ele>158.0</ele><time>2026-04-11T12:21:29.983Z</time></trkpt><trkpt lat="44.24521695668174" lon="10.000048177241819"><ele>158.0</ele><time>2026-04-11T12:21:30.983Z</time></trkpt><trkpt lat="44.24527876910656" lon="10.000241418929312"><ele>158.0</ele><time>2026-04-11T12:21:31.983Z</time></trkpt><trkpt lat="44.245347248560215" lon="10.000423467348377"><ele>158.0</ele><time>2026-04-11T12:21:32.983Z</time></trkpt><trkpt lat="44.24543503876017" lon="10.000608395037032"><ele>158.0</ele><time>2026-04-11T12:21:33.983Z</time></trkpt><trkpt lat="44.24555136600823" lon="10.000791770052228"><ele>158.0</ele><time>2026-04-11T12:21:34.983Z</time></trkpt><trkpt lat="44.24566478341595" lon="10.00099781078385"><ele>158.66666666666666</ele><time>2026-04-11T12:21:35.983Z</time></trkpt><trkpt lat="44.24575930109492" lon="10.001209246165"><ele>159.33333333333334</ele><time>2026-04-11T12:21:36.983Z</time></trkpt><trkpt lat="44.24584698224336" lon="10.001446623775255"><ele>160.0</ele><time>2026-04-11T12:21:37.983Z</time></trkpt><trkpt lat="44.24593156481599" lon="10.001698456910821"><ele>157.33333333333334</ele><time>2026-04-11T12:21:38.983Z</time></trkpt><trkpt lat="44.24602265585195" lon="10.001958180452073"><ele>154.66666666666666</ele><time>2026-04-11T12:21:39.983Z</time></trkpt><trkpt lat="44.24611464591472" lon="10.002218364750018"><ele>152.0</ele><time>2026-04-11T12:21:40.983Z</time></trkpt><trkpt lat="44.24620916681022" lon="10.002484345960202"><ele>153.0</ele><time>2026-04-11T12:21:41.983Z</time></trkpt><trkpt lat="44.246309476843884" lon="10.002756361359957"><ele>154.0</ele><time>2026-04-11T12:21:42.983Z</time></trkpt><trkpt lat="44.24641221037401" lon="10.003029347931074"><ele>155.0</ele><time>2026-04-11T12:21:43.983Z</time></trkpt><trkpt lat="44.24651539449194" lon="10.00330328648041"><ele>153.66666666666666</ele><time>2026-04-11T12:21:44.983Z</time></trkpt><trkpt lat="44.246609435263586" lon="10.003577505156446"><ele>152.33333333333334</ele><time>2026-04-11T12:21:45.983Z</time></trkpt><trkpt lat="44.246709186118835" lon="10.003856322879741"><ele>151.0</ele><time>2026-04-11T12:21:46.984Z</time></trkpt><trkpt lat="44.24680450100256" lon="10.004119663700049"><ele>149.66666666666669</ele><time>2026-04-11T12:21:47.984Z</time></trkpt><trkpt lat="44.246905100750055" lon="10.00439029575825"><ele>148.33333333333334</ele><time>2026-04-11T12:21:48.984Z</time></trkpt><trkpt lat="44.247007293971414" lon="10.00465803145783"><ele>147.0</ele><time>2026-04-11T12:21:49.984Z</time></trkpt><trkpt lat="44.2471069825838" lon="10.004925544411616"><ele>146.66666666666666</ele><time>2026-04-11T12:21:50.984Z</time></trkpt><trkpt lat="44.24720447364085" lon="10.005195037564114"><ele>146.33333333333331</ele><time>2026-04-11T12:21:51.984Z</time></trkpt><trkpt lat="44.24729919776543" lon="10.005462909743132"><ele>146.0</ele><time>2026-04-11T12:21:52.984Z</time></trkpt><trkpt lat="44.24739753615089" lon="10.005727648623884"><ele>147.33333333333331</ele><time>2026-04-11T12:21:53.984Z</time></trkpt><trkpt lat="44.247494863899334" lon="10.00599137005794"><ele>148.66666666666666</ele><time>2026-04-11T12:21:54.984Z</time></trkpt><trkpt lat="44.24758811668833" lon="10.006260684642601"><ele>150.0</ele><time>2026-04-11T12:21:55.984Z</time></trkpt><trkpt lat="44.24768548488279" lon="10.00652910782956"><ele>150.0</ele><time>2026-04-11T12:21:56.984Z</time></trkpt><trkpt lat="44.247782399550516" lon="10.006788385001359"><ele>150.0</ele><time>2026-04-11T12:21:57.984Z</time></trkpt><trkpt lat="44.24787972569722" lon="10.007046301194622"><ele>150.0</ele><time>2026-04-11T12:21:58.984Z</time></trkpt><trkpt lat="44.247974398403954" lon="10.00730432369806"><ele>150.0</ele><time>2026-04-11T12:21:59.984Z</time></trkpt><trkpt lat="44.24806601397421" lon="10.007560156622198"><ele>150.0</ele><time>2026-04-11T12:22:00.984Z</time></trkpt><trkpt lat="44.248155045922836" lon="10.007811604390607"><ele>150.0</ele><time>2026-04-11T12:22:01.984Z</time></trkpt><trkpt lat="44.24824505196118" lon="10.008056268477434"><ele>150.66666666666666</ele><time>2026-04-11T12:22:02.984Z</time></trkpt><trkpt lat="44.248329477795664" lon="10.008292637180205"><ele>151.33333333333331</ele><time>2026-04-11T12:22:03.984Z</time></trkpt><trkpt lat="44.248405302407086" lon="10.00851314441587"><ele>152.0</ele><time>2026-04-11T12:22:04.984Z</time></trkpt><trkpt lat="44.24848798669553" lon="10.008707975253825"><ele>152.66666666666666</ele><time>2026-04-11T12:22:05.984Z</time></trkpt><trkpt lat="44.24855462622538" lon="10.008892678451518"><ele>153.33333333333334</ele><time>2026-04-11T12:22:06.984Z</time></trkpt><trkpt lat="44.24860773308357" lon="10.009046142974434"><ele>154.0</ele><time>2026-04-11T12:22:07.984Z</time></trkpt><trkpt lat="44.248692531202046" lon="10.009277475870636"><ele>154.2</ele><time>2026-04-11T12:22:09.984Z</time></trkpt><trkpt lat="44.248724954722626" lon="10.009370617248456"><ele>154.4</ele><time>2026-04-11T12:22:10.984Z</time></trkpt><trkpt lat="44.24876109345086" lon="10.009470114271553"><ele>154.6</ele><time>2026-04-11T12:22:11.984Z</time></trkpt><trkpt lat="44.24880744912112" lon="10.009593917892456"><ele>154.8</ele><time>2026-04-11T12:22:12.984Z</time></trkpt><trkpt lat="44.24885829278516" lon="10.009740683711813"><ele>155.0</ele><time>2026-04-11T12:22:13.984Z</time></trkpt><trkpt lat="44.24890804351981" lon="10.009901175514988"><ele>155.25</ele><time>2026-04-11T12:22:14.984Z</time></trkpt><trkpt lat="44.24896492328636" lon="10.010072405437136"><ele>155.5</ele><time>2026-04-11T12:22:15.984Z</time></trkpt><trkpt lat="44.249030790803104" lon="10.010251557747344"><ele>155.75</ele><time>2026-04-11T12:22:16.984Z</time></trkpt><trkpt lat="44.24908950367816" lon="10.010430540514864"><ele>156.0</ele><time>2026-04-11T12:22:17.984Z</time></trkpt><trkpt lat="44.24914727292559" lon="10.010604994449045"><ele>156.0</ele><time>2026-04-11T12:22:18.984Z</time></trkpt><trkpt lat="44.24920361474328" lon="10.010771400448956"><ele>156.0</ele><time>2026-04-11T12:22:19.984Z</time></trkpt><trkpt lat="44.24926121385752" lon="10.010940539229782"><ele>156.0</ele><time>2026-04-11T12:22:20.984Z</time></trkpt><trkpt lat="44.24931926911002" lon="10.01111007916409"><ele>156.0</ele><time>2026-04-11T12:22:21.984Z</time></trkpt><trkpt lat="44.24937613511538" lon="10.011286255913562"><ele>156.25</ele><time>2026-04-11T12:22:22.984Z</time></trkpt><trkpt lat="44.249437248709484" lon="10.011466962331559"><ele>156.5</ele><time>2026-04-11T12:22:23.984Z</time></trkpt><trkpt lat="44.24949643433461" lon="10.01165155900091"><ele>156.75</ele><time>2026-04-11T12:22:24.984Z</time></trkpt><trkpt lat="44.24955875438527" lon="10.011841791171298"><ele>157.0</ele><time>2026-04-11T12:22:25.984Z</time></trkpt><trkpt lat="44.24961925730486" lon="10.012027767731723"><ele>157.5</ele><time>2026-04-11T12:22:26.984Z</time></trkpt><trkpt lat="44.24968052534857" lon="10.01221048971189"><ele>158.0</ele><time>2026-04-11T12:22:27.984Z</time></trkpt><trkpt lat="44.24974350013673" lon="10.012384006470352"><ele>158.5</ele><time>2026-04-11T12:22:28.984Z</time></trkpt><trkpt lat="44.24979869083622" lon="10.012544073961992"><ele>159.0</ele><time>2026-04-11T12:22:29.984Z</time></trkpt><trkpt lat="44.249844920471254" lon="10.012684743581108"><ele>159.6</ele><time>2026-04-11T12:22:30.984Z</time></trkpt><trkpt lat="44.24988083890178" lon="10.01279969351524"><ele>160.2</ele><time>2026-04-11T12:22:31.984Z</time></trkpt><trkpt lat="44.24990536296251" lon="10.012894558890531"><ele>160.79999999999998</ele><time>2026-04-11T12:22:32.984Z</time></trkpt><trkpt lat="44.24993389494183" lon="10.012975023143515"><ele>161.4</ele><time>2026-04-11T12:22:33.984Z</time></trkpt><trkpt lat="44.249974892771014" lon="10.013072529788587"><ele>162.0</ele><time>2026-04-11T12:22:35.984Z</time></trkpt><trkpt lat="44.25003235702819" lon="10.013273209292965"><ele>162.25</ele><time>2026-04-11T12:22:37.984Z</time></trkpt><trkpt lat="44.250085136604255" lon="10.013423996772822"><ele>162.5</ele><time>2026-04-11T12:22:38.984Z</time></trkpt><trkpt lat="44.250134913833676" lon="10.01360258567516"><ele>162.75</ele><time>2026-04-11T12:22:39.984Z</time></trkpt><trkpt lat="44.25019833714941" lon="10.013794748722583"><ele>163.0</ele><time>2026-04-11T12:22:40.984Z</time></trkpt><trkpt lat="44.25025565547151" lon="10.014012372699254"><ele>163.33333333333334</ele><time>2026-04-11T12:22:41.984Z</time></trkpt><trkpt lat="44.250325526138155" lon="10.014233980148108"><ele>163.66666666666666</ele><time>2026-04-11T12:22:42.984Z</time></trkpt><trkpt lat="44.250409215312104" lon="10.014459500608009"><ele>164.0</ele><time>2026-04-11T12:22:43.984Z</time></trkpt><trkpt lat="44.25046706035692" lon="10.014678466233617"><ele>164.0</ele><time>2026-04-11T12:22:44.984Z</time></trkpt><trkpt lat="44.25052886038681" lon="10.014894361118174"><ele>164.0</ele><time>2026-04-11T12:22:45.984Z</time></trkpt><trkpt lat="44.25058003740503" lon="10.015122539828978"><ele>164.0</ele><time>2026-04-11T12:22:46.984Z</time></trkpt><trkpt lat="44.25063574203949" lon="10.015349432273585"><ele>164.66666666666666</ele><time>2026-04-11T12:22:47.984Z</time></trkpt><trkpt lat="44.25069048977473" lon="10.015575209077948"><ele>165.33333333333334</ele><time>2026-04-11T12:22:48.984Z</time></trkpt><trkpt lat="44.25074328112846" lon="10.01579510981089"><ele>166.0</ele><time>2026-04-11T12:22:49.984Z</time></trkpt><trkpt lat="44.25080850047736" lon="10.016010881230171"><ele>166.33333333333334</ele><time>2026-04-11T12:22:50.984Z</time></trkpt><trkpt lat="44.250876016343796" lon="10.016217434613633"><ele>166.66666666666666</ele><time>2026-04-11T12:22:51.984Z</time></trkpt><trkpt lat="44.25095239955482" lon="10.016422280316478"><ele>167.0</ele><time>2026-04-11T12:22:52.984Z</time></trkpt><trkpt lat="44.251046661985605" lon="10.016623695033589"><ele>166.66666666666666</ele><time>2026-04-11T12:22:53.984Z</time></trkpt><trkpt lat="44.25115108819549" lon="10.016826355729437"><ele>166.33333333333334</ele><time>2026-04-11T12:22:54.984Z</time></trkpt><trkpt lat="44.25125845512797" lon="10.017036501056204"><ele>166.0</ele><time>2026-04-11T12:22:55.984Z</time></trkpt><trkpt lat="44.25137129585405" lon="10.0172401906301"><ele>167.0</ele><time>2026-04-11T12:22:56.984Z</time></trkpt><trkpt lat="44.251471905773585" lon="10.017436499605534"><ele>168.0</ele><time>2026-04-11T12:22:57.984Z</time></trkpt><trkpt lat="44.251570256238914" lon="10.017626640611711"><ele>169.0</ele><time>2026-04-11T12:22:58.984Z</time></trkpt><trkpt lat="44.25166045269895" lon="10.017801083757206"><ele>169.0</ele><time>2026-04-11T12:22:59.984Z</time></trkpt><trkpt lat="44.25174656995289" lon="10.01795568418385"><ele>169.0</ele><time>2026-04-11T12:23:00.984Z</time></trkpt><trkpt lat="44.251826860397315" lon="10.018097971418571"><ele>169.0</ele><time>2026-04-11T12:23:01.984Z</time></trkpt><trkpt lat="44.251902228612686" lon="10.018231748211692"><ele>169.0</ele><time>2026-04-11T12:23:02.984Z</time></trkpt><trkpt lat="44.25197313630514" lon="10.018358964608206"><ele>169.0</ele><time>2026-04-11T12:23:03.984Z</time></trkpt><trkpt lat="44.25204880933474" lon="10.018479729489684"><ele>169.0</ele><time>2026-04-11T12:23:04.984Z</time></trkpt><trkpt lat="44.252122940609425" lon="10.018595784931296"><ele>169.0</ele><time>2026-04-11T12:23:05.984Z</time></trkpt><trkpt lat="44.25219411966873" lon="10.018703091436013"><ele>169.0</ele><time>2026-04-11T12:23:06.984Z</time></trkpt><trkpt lat="44.252260261407955" lon="10.018808214647764"><ele>169.0</ele><time>2026-04-11T12:23:07.984Z</time></trkpt><trkpt lat="44.252324376809526" lon="10.018911877865488"><ele>170.0</ele><time>2026-04-11T12:23:08.984Z</time></trkpt><trkpt lat="44.25239734896013" lon="10.01900274324046"><ele>171.0</ele><time>2026-04-11T12:23:09.984Z</time></trkpt><trkpt lat="44.25246526209384" lon="10.01909514407035"><ele>172.0</ele><time>2026-04-11T12:23:10.984Z</time></trkpt><trkpt lat="44.25253730015225" lon="10.019182948814645"><ele>173.0</ele><time>2026-04-11T12:23:11.984Z</time></trkpt><trkpt lat="44.252614516831514" lon="10.019265651296141"><ele>174.0</ele><time>2026-04-11T12:23:12.981Z</time></trkpt><trkpt lat="44.25269597554335" lon="10.019348990740976"><ele>174.0</ele><time>2026-04-11T12:23:13.981Z</time></trkpt><trkpt lat="44.252777441468" lon="10.019438205655327"><ele>174.0</ele><time>2026-04-11T12:23:14.981Z</time></trkpt><trkpt lat="44.252854270683045" lon="10.019533968201904"><ele>174.0</ele><time>2026-04-11T12:23:15.981Z</time></trkpt><trkpt lat="44.25293184804401" lon="10.01963490650809"><ele>174.0</ele><time>2026-04-11T12:23:16.98Z</time></trkpt><trkpt lat="44.25300550940175" lon="10.019735129119747"><ele>174.0</ele><time>2026-04-11T12:23:17.98Z</time></trkpt><trkpt lat="44.25307459851502" lon="10.019843177314966"><ele>175.25</ele><time>2026-04-11T12:23:18.98Z</time></trkpt><trkpt lat="44.25313465248506" lon="10.019963428576025"><ele>176.5</ele><time>2026-04-11T12:23:19.98Z</time></trkpt><trkpt lat="44.25319048521291" lon="10.020097874518514"><ele>177.75</ele><time>2026-04-11T12:23:20.98Z</time></trkpt><trkpt lat="44.25324358997835" lon="10.020242590834936"><ele>179.0</ele><time>2026-04-11T12:23:21.98Z</time></trkpt><trkpt lat="44.25329963570369" lon="10.020392044440898"><ele>179.0</ele><time>2026-04-11T12:23:22.981Z</time></trkpt><trkpt lat="44.25335699087512" lon="10.020542014062412"><ele>179.0</ele><time>2026-04-11T12:23:23.981Z</time></trkpt><trkpt lat="44.25341062152813" lon="10.020673562506433"><ele>179.0</ele><time>2026-04-11T12:23:24.981Z</time></trkpt><trkpt lat="44.25346083570023" lon="10.020809664283"><ele>179.0</ele><time>2026-04-11T12:23:25.981Z</time></trkpt><trkpt lat="44.25351822583349" lon="10.020936729507037"><ele>179.0</ele><time>2026-04-11T12:23:26.981Z</time></trkpt><trkpt lat="44.253585247744525" lon="10.021040752379196"><ele>178.79999999999998</ele><time>2026-04-11T12:23:27.981Z</time></trkpt><trkpt lat="44.25366634101651" lon="10.021129038137568"><ele>178.6</ele><time>2026-04-11T12:23:28.981Z</time></trkpt><trkpt lat="44.253751139739734" lon="10.021201980615038"><ele>178.4</ele><time>2026-04-11T12:23:29.981Z</time></trkpt><trkpt lat="44.253850363232836" lon="10.021252184968388"><ele>178.2</ele><time>2026-04-11T12:23:30.981Z</time></trkpt><trkpt lat="44.253954976158056" lon="10.021287955523508"><ele>178.0</ele><time>2026-04-11T12:23:31.981Z</time></trkpt><trkpt lat="44.254062137451896" lon="10.021318174076372"><ele>181.0</ele><time>2026-04-11T12:23:32.981Z</time></trkpt><trkpt lat="44.25417205425364" lon="10.021342525081982"><ele>184.0</ele><time>2026-04-11T12:23:33.981Z</time></trkpt><trkpt lat="44.25427982073794" lon="10.02137098170956"><ele>187.0</ele><time>2026-04-11T12:23:34.981Z</time></trkpt><trkpt lat="44.25438783540664" lon="10.02141883082393"><ele>190.0</ele><time>2026-04-11T12:23:35.981Z</time></trkpt><trkpt lat="44.254489552827565" lon="10.021498736367622"><ele>190.0</ele><time>2026-04-11T12:23:36.981Z</time></trkpt><trkpt lat="44.254584106062445" lon="10.02160050606386"><ele>190.0</ele><time>2026-04-11T12:23:37.981Z</time></trkpt><trkpt lat="44.25467008214799" lon="10.021712895931499"><ele>190.0</ele><time>2026-04-11T12:23:38.981Z</time></trkpt><trkpt lat="44.25476022038376" lon="10.021827486498944"><ele>190.0</ele><time>2026-04-11T12:23:39.981Z</time></trkpt><trkpt lat="44.254847507179065" lon="10.021940862913633"><ele>190.5</ele><time>2026-04-11T12:23:40.981Z</time></trkpt><trkpt lat="44.254939311979875" lon="10.022048420940674"><ele>191.0</ele><time>2026-04-11T12:23:41.981Z</time></trkpt><trkpt lat="44.255033200377014" lon="10.022154079338776"><ele>191.5</ele><time>2026-04-11T12:23:42.981Z</time></trkpt><trkpt lat="44.255127186460705" lon="10.02225683971595"><ele>192.0</ele><time>2026-04-11T12:23:43.981Z</time></trkpt><trkpt lat="44.25521623649484" lon="10.022358761376838"><ele>192.0</ele><time>2026-04-11T12:23:44.981Z</time></trkpt><trkpt lat="44.25529512177336" lon="10.022467280609053"><ele>192.0</ele><time>2026-04-11T12:23:45.981Z</time></trkpt><trkpt lat="44.255360465562966" lon="10.022601568457022"><ele>192.0</ele><time>2026-04-11T12:23:46.981Z</time></trkpt><trkpt lat="44.25540007603317" lon="10.022758414747862"><ele>192.0</ele><time>2026-04-11T12:23:47.981Z</time></trkpt><trkpt lat="44.25541169714587" lon="10.022928495702315"><ele>192.25</ele><time>2026-04-11T12:23:48.981Z</time></trkpt><trkpt lat="44.255411565162134" lon="10.023094977144444"><ele>192.5</ele><time>2026-04-11T12:23:49.981Z</time></trkpt><trkpt lat="44.25540914358976" lon="10.02325509518173"><ele>192.75</ele><time>2026-04-11T12:23:50.981Z</time></trkpt><trkpt lat="44.255407346080375" lon="10.023417401830358"><ele>193.0</ele><time>2026-04-11T12:23:51.981Z</time></trkpt><trkpt lat="44.25541884483659" lon="10.023571195392782"><ele>193.75</ele><time>2026-04-11T12:23:52.981Z</time></trkpt><trkpt lat="44.25544758730086" lon="10.023733630946554"><ele>194.5</ele><time>2026-04-11T12:23:53.981Z</time></trkpt><trkpt lat="44.255495445575036" lon="10.023890680145"><ele>195.25</ele><time>2026-04-11T12:23:54.981Z</time></trkpt><trkpt lat="44.25555294939629" lon="10.024048361611182"><ele>196.0</ele><time>2026-04-11T12:23:55.981Z</time></trkpt><trkpt lat="44.255618822264225" lon="10.024229217281851"><ele>195.66666666666666</ele><time>2026-04-11T12:23:56.981Z</time></trkpt><trkpt lat="44.25570502708049" lon="10.024446609205308"><ele>195.33333333333331</ele><time>2026-04-11T12:23:57.981Z</time></trkpt><trkpt lat="44.255795582581186" lon="10.024704394395728"><ele>195.0</ele><time>2026-04-11T12:23:58.981Z</time></trkpt><trkpt lat="44.25588980873506" lon="10.024992067942279"><ele>194.0</ele><time>2026-04-11T12:23:59.981Z</time></trkpt><trkpt lat="44.25599292108993" lon="10.025297976697395"><ele>193.0</ele><time>2026-04-11T12:24:00.981Z</time></trkpt><trkpt lat="44.25610251818115" lon="10.025622809554955"><ele>191.5</ele><time>2026-04-11T12:24:01.981Z</time></trkpt><trkpt lat="44.256205764024415" lon="10.025929116512874"><ele>190.0</ele><time>2026-04-11T12:24:02.981Z</time></trkpt><trkpt lat="44.256298553504145" lon="10.026196684947534"><ele>190.0</ele><time>2026-04-11T12:24:03.981Z</time></trkpt><trkpt lat="44.25638268145629" lon="10.026418246148245"><ele>190.0</ele><time>2026-04-11T12:24:04.982Z</time></trkpt><trkpt lat="44.256483425046255" lon="10.026614206439152"><ele>190.0</ele><time>2026-04-11T12:24:05.982Z</time></trkpt><trkpt lat="44.25661114835569" lon="10.026803920098088"><ele>193.33333333333334</ele><time>2026-04-11T12:24:06.982Z</time></trkpt><trkpt lat="44.25676683708549" lon="10.026999840016511"><ele>196.66666666666669</ele><time>2026-04-11T12:24:07.982Z</time></trkpt><trkpt lat="44.25694327702218" lon="10.027197770816604"><ele>200.0</ele><time>2026-04-11T12:24:08.982Z</time></trkpt><trkpt lat="44.25711623249059" lon="10.02746119684715"><ele>201.0</ele><time>2026-04-11T12:24:09.982Z</time></trkpt><trkpt lat="44.25729531392877" lon="10.027698348477411"><ele>202.0</ele><time>2026-04-11T12:24:10.982Z</time></trkpt><trkpt lat="44.25747934907701" lon="10.027923277230064"><ele>202.0</ele><time>2026-04-11T12:24:11.982Z</time></trkpt><trkpt lat="44.25767117210836" lon="10.028136526233734"><ele>202.0</ele><time>2026-04-11T12:24:12.982Z</time></trkpt><trkpt lat="44.25786091031846" lon="10.028343033838645"><ele>204.5</ele><time>2026-04-11T12:24:13.982Z</time></trkpt><trkpt lat="44.258046091644204" lon="10.028547161917658"><ele>207.0</ele><time>2026-04-11T12:24:14.982Z</time></trkpt><trkpt lat="44.258220584788894" lon="10.028761262046082"><ele>207.0</ele><time>2026-04-11T12:24:15.982Z</time></trkpt><trkpt lat="44.25838259578691" lon="10.028986107562279"><ele>207.0</ele><time>2026-04-11T12:24:16.982Z</time></trkpt><trkpt lat="44.2585397768827" lon="10.029211455781956"><ele>199.0</ele><time>2026-04-11T12:24:17.982Z</time></trkpt><trkpt lat="44.25870005749035" lon="10.029431747969216"><ele>191.0</ele><time>2026-04-11T12:24:18.982Z</time></trkpt><trkpt lat="44.25886530563809" lon="10.029645571051944"><ele>194.5</ele><time>2026-04-11T12:24:19.982Z</time></trkpt><trkpt lat="44.25903758340511" lon="10.0298543735465"><ele>198.0</ele><time>2026-04-11T12:24:20.982Z</time></trkpt><trkpt lat="44.259214941193015" lon="10.030065623748536"><ele>198.0</ele><time>2026-04-11T12:24:21.982Z</time></trkpt><trkpt lat="44.25939669717706" lon="10.03027233125666"><ele>198.0</ele><time>2026-04-11T12:24:22.982Z</time></trkpt><trkpt lat="44.259584212484704" lon="10.030470281852322"><ele>198.0</ele><time>2026-04-11T12:24:23.982Z</time></trkpt><trkpt lat="44.25977468533303" lon="10.03066500059345"><ele>198.0</ele><time>2026-04-11T12:24:24.982Z</time></trkpt><trkpt lat="44.25996582807218" lon="10.030857970499504"><ele>199.0</ele><time>2026-04-11T12:24:25.982Z</time></trkpt><trkpt lat="44.26015690138876" lon="10.031043129247609"><ele>200.0</ele><time>2026-04-11T12:24:26.982Z</time></trkpt><trkpt lat="44.26034211907768" lon="10.031222698983408"><ele>200.0</ele><time>2026-04-11T12:24:27.982Z</time></trkpt><trkpt lat="44.26051460624558" lon="10.031391107477898"><ele>200.0</ele><time>2026-04-11T12:24:28.982Z</time></trkpt><trkpt lat="44.26068291221323" lon="10.031556393761958"><ele>200.0</ele><time>2026-04-11T12:24:29.982Z</time></trkpt><trkpt lat="44.26085820606251" lon="10.031704341027257"><ele>199.0</ele><time>2026-04-11T12:24:30.982Z</time></trkpt><trkpt lat="44.26104714312589" lon="10.031820145958433"><ele>198.0</ele><time>2026-04-11T12:24:31.982Z</time></trkpt><trkpt lat="44.26123437151626" lon="10.031935014150855"><ele>197.0</ele><time>2026-04-11T12:24:32.982Z</time></trkpt><trkpt lat="44.261410487954755" lon="10.032060222106553"><ele>202.66666666666669</ele><time>2026-04-11T12:24:33.982Z</time></trkpt><trkpt lat="44.26157916622588" lon="10.032183470833486"><ele>208.33333333333331</ele><time>2026-04-11T12:24:34.982Z</time></trkpt><trkpt lat="44.26173395174633" lon="10.032311226436557"><ele>214.0</ele><time>2026-04-11T12:24:35.982Z</time></trkpt><trkpt lat="44.26187263150731" lon="10.03244337445859"><ele>210.33333333333331</ele><time>2026-04-11T12:24:36.982Z</time></trkpt><trkpt lat="44.26198806480346" lon="10.032596555291455"><ele>206.66666666666669</ele><time>2026-04-11T12:24:37.982Z</time></trkpt><trkpt lat="44.262072835829315" lon="10.032776056583975"><ele>203.0</ele><time>2026-04-11T12:24:38.982Z</time></trkpt><trkpt lat="44.262128382741636" lon="10.032987931284996"><ele>203.0</ele><time>2026-04-11T12:24:39.982Z</time></trkpt><trkpt lat="44.26217605821215" lon="10.033206540868575"><ele>203.0</ele><time>2026-04-11T12:24:40.982Z</time></trkpt><trkpt lat="44.2622299191089" lon="10.033420717812602"><ele>203.0</ele><time>2026-04-11T12:24:41.982Z</time></trkpt><trkpt lat="44.262309651052306" lon="10.033625439951818"><ele>204.0</ele><time>2026-04-11T12:24:42.982Z</time></trkpt><trkpt lat="44.26241473371088" lon="10.033811028619883"><ele>205.0</ele><time>2026-04-11T12:24:43.982Z</time></trkpt><trkpt lat="44.262540528813574" lon="10.033976095545626"><ele>206.0</ele><time>2026-04-11T12:24:44.982Z</time></trkpt><trkpt lat="44.26267721199087" lon="10.034131770138698"><ele>203.0</ele><time>2026-04-11T12:24:45.982Z</time></trkpt><trkpt lat="44.26281248033212" lon="10.034294679323068"><ele>200.0</ele><time>2026-04-11T12:24:46.982Z</time></trkpt><trkpt lat="44.262944056172024" lon="10.034464442011409"><ele>197.0</ele><time>2026-04-11T12:24:47.982Z</time></trkpt><trkpt lat="44.26308504596834" lon="10.034638002490002"><ele>198.66666666666669</ele><time>2026-04-11T12:24:48.982Z</time></trkpt><trkpt lat="44.263219491444936" lon="10.034816232489664"><ele>200.33333333333331</ele><time>2026-04-11T12:24:49.982Z</time></trkpt><trkpt lat="44.26336119473213" lon="10.034989373656273"><ele>202.0</ele><time>2026-04-11T12:24:50.982Z</time></trkpt><trkpt lat="44.26349567479857" lon="10.035156061481745"><ele>202.0</ele><time>2026-04-11T12:24:51.982Z</time></trkpt><trkpt lat="44.263617173819036" lon="10.03532220239016"><ele>202.0</ele><time>2026-04-11T12:24:52.982Z</time></trkpt><trkpt lat="44.26374252145316" lon="10.03549140751457"><ele>202.0</ele><time>2026-04-11T12:24:53.982Z</time></trkpt><trkpt lat="44.26386624445637" lon="10.035659443024972"><ele>203.33333333333331</ele><time>2026-04-11T12:24:54.982Z</time></trkpt><trkpt lat="44.26400528690899" lon="10.035812226175867"><ele>204.66666666666669</ele><time>2026-04-11T12:24:55.982Z</time></trkpt><trkpt lat="44.26415913969126" lon="10.035943895513393"><ele>206.0</ele><time>2026-04-11T12:24:56.982Z</time></trkpt><trkpt lat="44.264323060094156" lon="10.036055011362857"><ele>206.0</ele><time>2026-04-11T12:24:57.982Z</time></trkpt><trkpt lat="44.264480511513796" lon="10.036157246570507"><ele>206.0</ele><time>2026-04-11T12:24:58.982Z</time></trkpt><trkpt lat="44.26462920597235" lon="10.03628063180174"><ele>206.0</ele><time>2026-04-11T12:24:59.982Z</time></trkpt><trkpt lat="44.26475611067712" lon="10.036426107583681"><ele>208.0</ele><time>2026-04-11T12:25:00.982Z</time></trkpt><trkpt lat="44.26487407886613" lon="10.036590533764231"><ele>210.0</ele><time>2026-04-11T12:25:01.982Z</time></trkpt><trkpt lat="44.26497030933946" lon="10.036784565269574"><ele>212.0</ele><time>2026-04-11T12:25:02.982Z</time></trkpt><trkpt lat="44.265046991183226" lon="10.03699231784005"><ele>212.0</ele><time>2026-04-11T12:25:03.982Z</time></trkpt><trkpt lat="44.2650943427111" lon="10.037210956153022"><ele>212.0</ele><time>2026-04-11T12:25:04.982Z</time></trkpt><trkpt lat="44.26512816045631" lon="10.037433550999024"><ele>212.0</ele><time>2026-04-11T12:25:05.982Z</time></trkpt><trkpt lat="44.26517224322869" lon="10.037657842791608"><ele>211.33333333333334</ele><time>2026-04-11T12:25:06.982Z</time></trkpt><trkpt lat="44.26522473966619" lon="10.037878776865282"><ele>210.66666666666669</ele><time>2026-04-11T12:25:07.982Z</time></trkpt><trkpt lat="44.26529011738921" lon="10.03809893066484"><ele>210.0</ele><time>2026-04-11T12:25:08.982Z</time></trkpt><trkpt lat="44.26535880508281" lon="10.038313736806447"><ele>209.75</ele><time>2026-04-11T12:25:09.982Z</time></trkpt><trkpt lat="44.26542203516378" lon="10.03850842172302"><ele>209.5</ele><time>2026-04-11T12:25:10.982Z</time></trkpt><trkpt lat="44.265485227678845" lon="10.038690092218772"><ele>209.25</ele><time>2026-04-11T12:25:11.982Z</time></trkpt><trkpt lat="44.26554722420483" lon="10.03887260311715"><ele>209.0</ele><time>2026-04-11T12:25:12.982Z</time></trkpt><trkpt lat="44.265625753063794" lon="10.03905444680839"><ele>214.66666666666669</ele><time>2026-04-11T12:25:13.982Z</time></trkpt><trkpt lat="44.26571540555058" lon="10.039232972317498"><ele>220.33333333333331</ele><time>2026-04-11T12:25:14.982Z</time></trkpt><trkpt lat="44.26581853375483" lon="10.039409296369213"><ele>226.0</ele><time>2026-04-11T12:25:15.982Z</time></trkpt><trkpt lat="44.265920325577206" lon="10.039584320356667"><ele>226.0</ele><time>2026-04-11T12:25:16.982Z</time></trkpt><trkpt lat="44.26602570395964" lon="10.039759490356255"><ele>226.0</ele><time>2026-04-11T12:25:17.982Z</time></trkpt><trkpt lat="44.26614091068422" lon="10.039928199742768"><ele>226.0</ele><time>2026-04-11T12:25:18.978Z</time></trkpt><trkpt lat="44.266262461849486" lon="10.040087395375997"><ele>228.0</ele><time>2026-04-11T12:25:19.978Z</time></trkpt><trkpt lat="44.26639070835723" lon="10.040247033973134"><ele>230.0</ele><time>2026-04-11T12:25:20.978Z</time></trkpt><trkpt lat="44.26652436094959" lon="10.040394390191304"><ele>232.0</ele><time>2026-04-11T12:25:21.978Z</time></trkpt><trkpt lat="44.266669206990834" lon="10.040540815767978"><ele>232.0</ele><time>2026-04-11T12:25:22.978Z</time></trkpt><trkpt lat="44.266819300869926" lon="10.040687716879098"><ele>232.0</ele><time>2026-04-11T12:25:23.978Z</time></trkpt><trkpt lat="44.26699577048217" lon="10.040845046000639"><ele>232.0</ele><time>2026-04-11T12:25:24.978Z</time></trkpt><trkpt lat="44.26717587596836" lon="10.041018563537643"><ele>231.66666666666666</ele><time>2026-04-11T12:25:25.978Z</time></trkpt><trkpt lat="44.26735535736756" lon="10.041193468443792"><ele>231.33333333333331</ele><time>2026-04-11T12:25:26.978Z</time></trkpt><trkpt lat="44.26752790331072" lon="10.041362054488102"><ele>231.0</ele><time>2026-04-11T12:25:27.978Z</time></trkpt><trkpt lat="44.26770225049042" lon="10.041527992426923"><ele>233.33333333333331</ele><time>2026-04-11T12:25:28.978Z</time></trkpt><trkpt lat="44.267877103195715" lon="10.041695268598781"><ele>235.66666666666666</ele><time>2026-04-11T12:25:29.978Z</time></trkpt><trkpt lat="44.26804915636479" lon="10.041859695219285"><ele>238.0</ele><time>2026-04-11T12:25:30.978Z</time></trkpt><trkpt lat="44.26821878190369" lon="10.042018071912903"><ele>238.0</ele><time>2026-04-11T12:25:31.978Z</time></trkpt><trkpt lat="44.26838477627712" lon="10.042169009387012"><ele>238.0</ele><time>2026-04-11T12:25:32.978Z</time></trkpt><trkpt lat="44.26854839050594" lon="10.042322242006492"><ele>238.0</ele><time>2026-04-11T12:25:33.978Z</time></trkpt><trkpt lat="44.26870361313935" lon="10.042475052403336"><ele>238.0</ele><time>2026-04-11T12:25:34.978Z</time></trkpt><trkpt lat="44.26885152376366" lon="10.042625264452852"><ele>238.0</ele><time>2026-04-11T12:25:35.978Z</time></trkpt><trkpt lat="44.26899782609729" lon="10.04277945158085"><ele>238.0</ele><time>2026-04-11T12:25:36.978Z</time></trkpt><trkpt lat="44.26914001819689" lon="10.042942353774134"><ele>238.0</ele><time>2026-04-11T12:25:37.978Z</time></trkpt><trkpt lat="44.269287575782656" lon="10.043101600554344"><ele>238.0</ele><time>2026-04-11T12:25:38.979Z</time></trkpt><trkpt lat="44.26943385243415" lon="10.04326460217635"><ele>238.0</ele><time>2026-04-11T12:25:39.979Z</time></trkpt><trkpt lat="44.26956362560603" lon="10.043418024341713"><ele>240.0</ele><time>2026-04-11T12:25:40.979Z</time></trkpt><trkpt lat="44.26968436247831" lon="10.043565220270757"><ele>242.0</ele><time>2026-04-11T12:25:41.979Z</time></trkpt><trkpt lat="44.26980563499817" lon="10.043724449056432"><ele>244.0</ele><time>2026-04-11T12:25:42.979Z</time></trkpt><trkpt lat="44.2699410462445" lon="10.043886319022265"><ele>244.0</ele><time>2026-04-11T12:25:43.979Z</time></trkpt><trkpt lat="44.27007620976721" lon="10.04406562449601"><ele>244.0</ele><time>2026-04-11T12:25:44.979Z</time></trkpt><trkpt lat="44.270199275647315" lon="10.044276074098583"><ele>244.0</ele><time>2026-04-11T12:25:45.979Z</time></trkpt><trkpt lat="44.27031224724594" lon="10.044503467485233"><ele>245.33333333333331</ele><time>2026-04-11T12:25:46.979Z</time></trkpt><trkpt lat="44.2704260828944" lon="10.044736102646278"><ele>246.66666666666669</ele><time>2026-04-11T12:25:47.979Z</time></trkpt><trkpt lat="44.27054041986041" lon="10.044966649023303"><ele>248.0</ele><time>2026-04-11T12:25:48.979Z</time></trkpt><trkpt lat="44.27065119308404" lon="10.045196234247246"><ele>248.0</ele><time>2026-04-11T12:25:49.979Z</time></trkpt><trkpt lat="44.27075722849115" lon="10.045413038717465"><ele>248.0</ele><time>2026-04-11T12:25:50.979Z</time></trkpt><trkpt lat="44.2708501026409" lon="10.045610337878212"><ele>248.0</ele><time>2026-04-11T12:25:51.979Z</time></trkpt><trkpt lat="44.2709349989747" lon="10.045793687066555"><ele>243.5</ele><time>2026-04-11T12:25:52.979Z</time></trkpt><trkpt lat="44.27100063478267" lon="10.045974084719992"><ele>239.0</ele><time>2026-04-11T12:25:53.979Z</time></trkpt><trkpt lat="44.27102713339303" lon="10.046162806947322"><ele>234.5</ele><time>2026-04-11T12:25:54.979Z</time></trkpt><trkpt lat="44.271006984934345" lon="10.046347461148144"><ele>230.0</ele><time>2026-04-11T12:25:55.979Z</time></trkpt><trkpt lat="44.270983700784136" lon="10.046536509906701"><ele>227.75</ele><time>2026-04-11T12:25:56.979Z</time></trkpt><trkpt lat="44.270989193407075" lon="10.046718816030097"><ele>225.5</ele><time>2026-04-11T12:25:57.979Z</time></trkpt><trkpt lat="44.271044615065776" lon="10.046905071622367"><ele>223.25</ele><time>2026-04-11T12:25:58.979Z</time></trkpt><trkpt lat="44.27112729348327" lon="10.04707257584819"><ele>221.0</ele><time>2026-04-11T12:25:59.979Z</time></trkpt><trkpt lat="44.27123041460101" lon="10.047186493398618"><ele>221.0</ele><time>2026-04-11T12:26:00.979Z</time></trkpt><trkpt lat="44.2713613487994" lon="10.047281733401563"><ele>221.0</ele><time>2026-04-11T12:26:01.979Z</time></trkpt><trkpt lat="44.271493037586964" lon="10.047363887737538"><ele>221.0</ele><time>2026-04-11T12:26:02.979Z</time></trkpt><trkpt lat="44.271631978240215" lon="10.047474388989116"><ele>227.0</ele><time>2026-04-11T12:26:03.979Z</time></trkpt><trkpt lat="44.271769761982654" lon="10.047626863470812"><ele>233.0</ele><time>2026-04-11T12:26:04.979Z</time></trkpt><trkpt lat="44.27190220221036" lon="10.047805045823257"><ele>239.0</ele><time>2026-04-11T12:26:05.979Z</time></trkpt><trkpt lat="44.272031070665825" lon="10.047985476542822"><ele>239.0</ele><time>2026-04-11T12:26:06.979Z</time></trkpt><trkpt lat="44.2721551252993" lon="10.04817133088417"><ele>239.0</ele><time>2026-04-11T12:26:07.979Z</time></trkpt><trkpt lat="44.27230206394261" lon="10.048338345090125"><ele>239.0</ele><time>2026-04-11T12:26:08.979Z</time></trkpt><trkpt lat="44.27247793047921" lon="10.048483338406097"><ele>239.33333333333334</ele><time>2026-04-11T12:26:09.979Z</time></trkpt><trkpt lat="44.27264945822815" lon="10.048628658758497"><ele>239.66666666666669</ele><time>2026-04-11T12:26:10.979Z</time></trkpt><trkpt lat="44.272818380803336" lon="10.04878999658024"><ele>240.0</ele><time>2026-04-11T12:26:11.979Z</time></trkpt><trkpt lat="44.27297989542666" lon="10.048969185499216"><ele>239.66666666666669</ele><time>2026-04-11T12:26:12.979Z</time></trkpt><trkpt lat="44.273138074185376" lon="10.0491561819805"><ele>239.33333333333334</ele><time>2026-04-11T12:26:13.979Z</time></trkpt><trkpt lat="44.27328811540791" lon="10.04935172526695"><ele>239.0</ele><time>2026-04-11T12:26:14.979Z</time></trkpt><trkpt lat="44.27342806216619" lon="10.049534607727233"><ele>239.0</ele><time>2026-04-11T12:26:15.979Z</time></trkpt><trkpt lat="44.273556352212644" lon="10.0497273584014"><ele>239.0</ele><time>2026-04-11T12:26:16.979Z</time></trkpt><trkpt lat="44.273662488776104" lon="10.04993533945639"><ele>239.0</ele><time>2026-04-11T12:26:17.979Z</time></trkpt><trkpt lat="44.27374574683897" lon="10.050149920907257"><ele>242.33333333333334</ele><time>2026-04-11T12:26:18.979Z</time></trkpt><trkpt lat="44.27384154055688" lon="10.050344446108125"><ele>245.66666666666669</ele><time>2026-04-11T12:26:19.979Z</time></trkpt><trkpt lat="44.27396013900449" lon="10.050505229647143"><ele>249.0</ele><time>2026-04-11T12:26:20.979Z</time></trkpt><trkpt lat="44.274102622175185" lon="10.050656851319395"><ele>245.0</ele><time>2026-04-11T12:26:21.979Z</time></trkpt><trkpt lat="44.27425099750574" lon="10.050821513561225"><ele>241.0</ele><time>2026-04-11T12:26:22.979Z</time></trkpt><trkpt lat="44.274401076412225" lon="10.050997943528094"><ele>237.0</ele><time>2026-04-11T12:26:23.979Z</time></trkpt><trkpt lat="44.27454450433268" lon="10.05119072685508"><ele>237.0</ele><time>2026-04-11T12:26:24.979Z</time></trkpt><trkpt lat="44.274689338699176" lon="10.051366951937187"><ele>237.0</ele><time>2026-04-11T12:26:25.979Z</time></trkpt><trkpt lat="44.274845190993396" lon="10.051495268168448"><ele>237.0</ele><time>2026-04-11T12:26:26.979Z</time></trkpt><trkpt lat="44.27499643919809" lon="10.051618698583662"><ele>239.0</ele><time>2026-04-11T12:26:27.979Z</time></trkpt><trkpt lat="44.27512539392958" lon="10.05178048846561"><ele>241.0</ele><time>2026-04-11T12:26:28.979Z</time></trkpt><trkpt lat="44.27522001834114" lon="10.05197133621607"><ele>243.0</ele><time>2026-04-11T12:26:29.979Z</time></trkpt><trkpt lat="44.27529272529954" lon="10.052173120954402"><ele>243.0</ele><time>2026-04-11T12:26:30.979Z</time></trkpt><trkpt lat="44.27533303151233" lon="10.05240092859383"><ele>243.0</ele><time>2026-04-11T12:26:31.979Z</time></trkpt><trkpt lat="44.27536409969867" lon="10.052650560122695"><ele>243.0</ele><time>2026-04-11T12:26:32.979Z</time></trkpt><trkpt lat="44.27541690441343" lon="10.052886557095713"><ele>245.66666666666669</ele><time>2026-04-11T12:26:33.979Z</time></trkpt><trkpt lat="44.27550470985977" lon="10.053110076678083"><ele>248.33333333333334</ele><time>2026-04-11T12:26:34.979Z</time></trkpt><trkpt lat="44.27560382397756" lon="10.05333997972102"><ele>251.0</ele><time>2026-04-11T12:26:35.979Z</time></trkpt><trkpt lat="44.27570331245649" lon="10.053576277661566"><ele>251.0</ele><time>2026-04-11T12:26:36.979Z</time></trkpt><trkpt lat="44.27579341674646" lon="10.05382281462436"><ele>251.0</ele><time>2026-04-11T12:26:37.979Z</time></trkpt><trkpt lat="44.27586607699722" lon="10.054051247827546"><ele>251.0</ele><time>2026-04-11T12:26:38.979Z</time></trkpt><trkpt lat="44.27595103788662" lon="10.05426433338224"><ele>248.66666666666669</ele><time>2026-04-11T12:26:39.979Z</time></trkpt><trkpt lat="44.27605954202048" lon="10.054470620872134"><ele>246.33333333333331</ele><time>2026-04-11T12:26:40.979Z</time></trkpt><trkpt lat="44.27618467476107" lon="10.054674124998607"><ele>244.0</ele><time>2026-04-11T12:26:41.979Z</time></trkpt><trkpt lat="44.27632830716144" lon="10.054880066266042"><ele>246.0</ele><time>2026-04-11T12:26:42.979Z</time></trkpt><trkpt lat="44.27648912821958" lon="10.055078177786456"><ele>248.0</ele><time>2026-04-11T12:26:43.979Z</time></trkpt><trkpt lat="44.27665453864689" lon="10.05527278457186"><ele>250.0</ele><time>2026-04-11T12:26:44.979Z</time></trkpt><trkpt lat="44.27682068113593" lon="10.055463485269462"><ele>250.0</ele><time>2026-04-11T12:26:45.979Z</time></trkpt><trkpt lat="44.27698050182153" lon="10.05564578448082"><ele>250.0</ele><time>2026-04-11T12:26:46.979Z</time></trkpt><trkpt lat="44.27712689045747" lon="10.05581091047775"><ele>250.0</ele><time>2026-04-11T12:26:47.979Z</time></trkpt><trkpt lat="44.277253809563085" lon="10.055958378782373"><ele>251.75</ele><time>2026-04-11T12:26:48.979Z</time></trkpt><trkpt lat="44.27737929004713" lon="10.056080035772883"><ele>253.5</ele><time>2026-04-11T12:26:49.979Z</time></trkpt><trkpt lat="44.27751548370349" lon="10.056156534035134"><ele>255.25</ele><time>2026-04-11T12:26:50.979Z</time></trkpt><trkpt lat="44.2776561956496" lon="10.056187658446026"><ele>257.0</ele><time>2026-04-11T12:26:51.979Z</time></trkpt><trkpt lat="44.27778336824479" lon="10.056234086313681"><ele>257.0</ele><time>2026-04-11T12:26:52.979Z</time></trkpt><trkpt lat="44.27788664791571" lon="10.056333038614621"><ele>257.0</ele><time>2026-04-11T12:26:53.979Z</time></trkpt><trkpt lat="44.277961554819946" lon="10.05649244667631"><ele>257.0</ele><time>2026-04-11T12:26:54.979Z</time></trkpt><trkpt lat="44.278022624729736" lon="10.05668118017901"><ele>257.0</ele><time>2026-04-11T12:26:55.979Z</time></trkpt><trkpt lat="44.278102007017665" lon="10.056866021748098"><ele>257.33333333333337</ele><time>2026-04-11T12:26:56.979Z</time></trkpt><trkpt lat="44.27820941316267" lon="10.057029529438394"><ele>257.6666666666667</ele><time>2026-04-11T12:26:57.979Z</time></trkpt><trkpt lat="44.27832357368778" lon="10.057181044817394"><ele>258.0</ele><time>2026-04-11T12:26:58.979Z</time></trkpt><trkpt lat="44.27840944616632" lon="10.057355676376229"><ele>255.0</ele><time>2026-04-11T12:26:59.979Z</time></trkpt><trkpt lat="44.278458307734624" lon="10.057572797989982"><ele>252.0</ele><time>2026-04-11T12:27:00.979Z</time></trkpt><trkpt lat="44.27850018738733" lon="10.057822429283133"><ele>249.0</ele><time>2026-04-11T12:27:01.979Z</time></trkpt><trkpt lat="44.27855443154785" lon="10.058089867757698"><ele>248.66666666666669</ele><time>2026-04-11T12:27:02.979Z</time></trkpt><trkpt lat="44.27862197945397" lon="10.058359506803223"><ele>248.33333333333334</ele><time>2026-04-11T12:27:03.979Z</time></trkpt><trkpt lat="44.27870366973371" lon="10.058637191193046"><ele>248.0</ele><time>2026-04-11T12:27:04.979Z</time></trkpt><trkpt lat="44.278800850666656" lon="10.058909728263771"><ele>246.66666666666669</ele><time>2026-04-11T12:27:05.979Z</time></trkpt><trkpt lat="44.27889686732465" lon="10.059162691608181"><ele>245.33333333333331</ele><time>2026-04-11T12:27:06.979Z</time></trkpt><trkpt lat="44.279005679031165" lon="10.059412895526608"><ele>244.0</ele><time>2026-04-11T12:27:07.979Z</time></trkpt><trkpt lat="44.279138285343016" lon="10.059664744134365"><ele>248.0</ele><time>2026-04-11T12:27:08.979Z</time></trkpt><trkpt lat="44.27927720206059" lon="10.059918639798836"><ele>252.0</ele><time>2026-04-11T12:27:09.979Z</time></trkpt><trkpt lat="44.2794255338641" lon="10.060175908370473"><ele>252.0</ele><time>2026-04-11T12:27:10.979Z</time></trkpt><trkpt lat="44.27957200688368" lon="10.060447728247086"><ele>252.0</ele><time>2026-04-11T12:27:11.979Z</time></trkpt><trkpt lat="44.27971365150324" lon="10.060717710324807"><ele>262.0</ele><time>2026-04-11T12:27:12.98Z</time></trkpt><trkpt lat="44.279853863126036" lon="10.060992139143957"><ele>272.0</ele><time>2026-04-11T12:27:13.98Z</time></trkpt><trkpt lat="44.27999292473108" lon="10.061276968675813"><ele>272.0</ele><time>2026-04-11T12:27:14.98Z</time></trkpt><trkpt lat="44.2801235780803" lon="10.061559888663"><ele>272.0</ele><time>2026-04-11T12:27:15.98Z</time></trkpt><trkpt lat="44.28024085729977" lon="10.06184200973465"><ele>267.6666666666667</ele><time>2026-04-11T12:27:16.98Z</time></trkpt><trkpt lat="44.28036047787037" lon="10.062117788577373"><ele>263.3333333333333</ele><time>2026-04-11T12:27:17.98Z</time></trkpt><trkpt lat="44.2804731469959" lon="10.062369136310618"><ele>259.0</ele><time>2026-04-11T12:27:18.98Z</time></trkpt><trkpt lat="44.280583215674696" lon="10.062617831394743"><ele>261.66666666666663</ele><time>2026-04-11T12:27:19.98Z</time></trkpt><trkpt lat="44.280696123428086" lon="10.062873806395839"><ele>264.3333333333333</ele><time>2026-04-11T12:27:20.98Z</time></trkpt><trkpt lat="44.2808283993154" lon="10.063126904438368"><ele>267.0</ele><time>2026-04-11T12:27:21.98Z</time></trkpt><trkpt lat="44.28096895216139" lon="10.063372099560436"><ele>267.0</ele><time>2026-04-11T12:27:22.98Z</time></trkpt><trkpt lat="44.28112217742777" lon="10.06362260732476"><ele>267.0</ele><time>2026-04-11T12:27:23.98Z</time></trkpt><trkpt lat="44.2812678523318" lon="10.06388463205433"><ele>264.0</ele><time>2026-04-11T12:27:24.976Z</time></trkpt><trkpt lat="44.28143164049444" lon="10.064139627694598"><ele>261.0</ele><time>2026-04-11T12:27:25.976Z</time></trkpt><trkpt lat="44.281603751743994" lon="10.06438187139658"><ele>269.0</ele><time>2026-04-11T12:27:26.976Z</time></trkpt><trkpt lat="44.28178130366182" lon="10.064620223149749"><ele>277.0</ele><time>2026-04-11T12:27:27.976Z</time></trkpt><trkpt lat="44.281949172171814" lon="10.0648612033397"><ele>269.0</ele><time>2026-04-11T12:27:28.976Z</time></trkpt><trkpt lat="44.28210318694259" lon="10.065103524623176"><ele>261.0</ele><time>2026-04-11T12:27:29.976Z</time></trkpt><trkpt lat="44.282241736722874" lon="10.06534287840965"><ele>266.0</ele><time>2026-04-11T12:27:30.976Z</time></trkpt><trkpt lat="44.28235271572476" lon="10.065610226299684"><ele>271.0</ele><time>2026-04-11T12:27:31.976Z</time></trkpt><trkpt lat="44.282449809994255" lon="10.065894256524796"><ele>276.0</ele><time>2026-04-11T12:27:32.976Z</time></trkpt><trkpt lat="44.28254776905252" lon="10.066188133517194"><ele>276.0</ele><time>2026-04-11T12:27:33.976Z</time></trkpt><trkpt lat="44.28264206014625" lon="10.06646269296292"><ele>276.0</ele><time>2026-04-11T12:27:34.975Z</time></trkpt><trkpt lat="44.28272768625409" lon="10.06671498720527"><ele>276.0</ele><time>2026-04-11T12:27:35.976Z</time></trkpt><trkpt lat="44.282790854684244" lon="10.066946035861328"><ele>272.25</ele><time>2026-04-11T12:27:36.976Z</time></trkpt><trkpt lat="44.28283051276104" lon="10.067163435890498"><ele>268.5</ele><time>2026-04-11T12:27:37.976Z</time></trkpt><trkpt lat="44.282877073296746" lon="10.067342677809568"><ele>264.75</ele><time>2026-04-11T12:27:38.976Z</time></trkpt><trkpt lat="44.28296594390011" lon="10.067486869675212"><ele>261.0</ele><time>2026-04-11T12:27:39.976Z</time></trkpt><trkpt lat="44.28308686984297" lon="10.067588477161644"><ele>268.6666666666667</ele><time>2026-04-11T12:27:40.976Z</time></trkpt><trkpt lat="44.28323276009252" lon="10.067631804952532"><ele>276.33333333333337</ele><time>2026-04-11T12:27:41.976Z</time></trkpt><trkpt lat="44.28338037649603" lon="10.067678844002314"><ele>284.0</ele><time>2026-04-11T12:27:42.976Z</time></trkpt><trkpt lat="44.28351711693173" lon="10.067778038587845"><ele>284.0</ele><time>2026-04-11T12:27:43.976Z</time></trkpt><trkpt lat="44.28362682850624" lon="10.067928686149738"><ele>284.0</ele><time>2026-04-11T12:27:44.976Z</time></trkpt><trkpt lat="44.283709371050996" lon="10.06812156442424"><ele>284.0</ele><time>2026-04-11T12:27:45.976Z</time></trkpt><trkpt lat="44.28375936260959" lon="10.068331581438018"><ele>283.0</ele><time>2026-04-11T12:27:46.976Z</time></trkpt><trkpt lat="44.28376276142506" lon="10.068525270060281"><ele>282.0</ele><time>2026-04-11T12:27:47.976Z</time></trkpt><trkpt lat="44.28373131648902" lon="10.068641013391591"><ele>281.0</ele><time>2026-04-11T12:27:48.976Z</time></trkpt><trkpt lat="44.283666906877876" lon="10.068731106985286"><ele>280.0</ele><time>2026-04-11T12:27:49.976Z</time></trkpt><trkpt lat="44.283572250568334" lon="10.068789601133068"><ele>279.0</ele><time>2026-04-11T12:27:50.976Z</time></trkpt><trkpt lat="44.28345351978122" lon="10.068817525211402"><ele>279.0</ele><time>2026-04-11T12:27:51.976Z</time></trkpt><trkpt lat="44.28335690355531" lon="10.068861838172818"><ele>279.0</ele><time>2026-04-11T12:27:52.976Z</time></trkpt><trkpt lat="44.28329304651666" lon="10.068954399821328"><ele>279.0</ele><time>2026-04-11T12:27:53.976Z</time></trkpt><trkpt lat="44.28327026395011" lon="10.069106314879704"><ele>279.0</ele><time>2026-04-11T12:27:54.976Z</time></trkpt><trkpt lat="44.28328713501835" lon="10.069275240256617"><ele>279.0</ele><time>2026-04-11T12:27:55.976Z</time></trkpt><trkpt lat="44.28334031085091" lon="10.069437320346006"><ele>281.6666666666667</ele><time>2026-04-11T12:27:56.976Z</time></trkpt><trkpt lat="44.28341259190569" lon="10.069627416059651"><ele>284.33333333333337</ele><time>2026-04-11T12:27:57.976Z</time></trkpt><trkpt lat="44.28347629230377" lon="10.06983342566605"><ele>287.0</ele><time>2026-04-11T12:27:58.976Z</time></trkpt><trkpt lat="44.28352075020077" lon="10.070031119444533"><ele>288.0</ele><time>2026-04-11T12:27:59.976Z</time></trkpt><trkpt lat="44.283516240336105" lon="10.070227454931258"><ele>289.0</ele><time>2026-04-11T12:28:00.976Z</time></trkpt><trkpt lat="44.283476361737996" lon="10.070406870082037"><ele>290.0</ele><time>2026-04-11T12:28:01.976Z</time></trkpt><trkpt lat="44.28346223969478" lon="10.070584816148864"><ele>291.0</ele><time>2026-04-11T12:28:02.976Z</time></trkpt><trkpt lat="44.28350156178643" lon="10.070772793562632"><ele>290.6666666666667</ele><time>2026-04-11T12:28:03.976Z</time></trkpt><trkpt lat="44.28358406525684" lon="10.070979635093462"><ele>290.33333333333337</ele><time>2026-04-11T12:28:04.976Z</time></trkpt><trkpt lat="44.28368910655313" lon="10.071193389560209"><ele>290.0</ele><time>2026-04-11T12:28:05.976Z</time></trkpt><trkpt lat="44.28378730293042" lon="10.071421127504754"><ele>289.0</ele><time>2026-04-11T12:28:06.976Z</time></trkpt><trkpt lat="44.283854924057664" lon="10.07166272742471"><ele>288.0</ele><time>2026-04-11T12:28:07.976Z</time></trkpt><trkpt lat="44.28391007921313" lon="10.071900887482188"><ele>287.0</ele><time>2026-04-11T12:28:08.976Z</time></trkpt><trkpt lat="44.2839819252408" lon="10.072095269721716"><ele>290.75</ele><time>2026-04-11T12:28:09.976Z</time></trkpt><trkpt lat="44.28405744421905" lon="10.07225575099542"><ele>294.5</ele><time>2026-04-11T12:28:10.976Z</time></trkpt><trkpt lat="44.284122961118904" lon="10.072401196775674"><ele>298.25</ele><time>2026-04-11T12:28:11.976Z</time></trkpt><trkpt lat="44.284166980287054" lon="10.072550347230365"><ele>302.0</ele><time>2026-04-11T12:28:12.976Z</time></trkpt><trkpt lat="44.284196845659636" lon="10.072698270387749"><ele>302.0</ele><time>2026-04-11T12:28:13.976Z</time></trkpt><trkpt lat="44.28421643661461" lon="10.07284353280667"><ele>302.0</ele><time>2026-04-11T12:28:14.976Z</time></trkpt><trkpt lat="44.284229559186606" lon="10.07298841148762"><ele>302.0</ele><time>2026-04-11T12:28:15.976Z</time></trkpt><trkpt lat="44.28423333399945" lon="10.073120352155064"><ele>302.0</ele><time>2026-04-11T12:28:16.976Z</time></trkpt><trkpt lat="44.28423619245018" lon="10.073232999294886"><ele>302.0</ele><time>2026-04-11T12:28:17.976Z</time></trkpt><trkpt lat="44.28423677758647" lon="10.07335269488615"><ele>301.75</ele><time>2026-04-11T12:28:18.976Z</time></trkpt><trkpt lat="44.284234534332384" lon="10.073502369493434"><ele>301.5</ele><time>2026-04-11T12:28:19.976Z</time></trkpt><trkpt lat="44.28421145472618" lon="10.073686081378924"><ele>301.25</ele><time>2026-04-11T12:28:20.976Z</time></trkpt><trkpt lat="44.284166668185485" lon="10.073888981129906"><ele>301.0</ele><time>2026-04-11T12:28:21.976Z</time></trkpt><trkpt lat="44.2840914018294" lon="10.074078955674878"><ele>301.75</ele><time>2026-04-11T12:28:22.976Z</time></trkpt><trkpt lat="44.28400787157747" lon="10.074264741876245"><ele>302.5</ele><time>2026-04-11T12:28:23.976Z</time></trkpt><trkpt lat="44.283942460605225" lon="10.074432309641388"><ele>303.25</ele><time>2026-04-11T12:28:24.976Z</time></trkpt><trkpt lat="44.28391674538387" lon="10.074607342533094"><ele>304.0</ele><time>2026-04-11T12:28:25.976Z</time></trkpt><trkpt lat="44.28393081211844" lon="10.074783560959926"><ele>304.25</ele><time>2026-04-11T12:28:26.976Z</time></trkpt><trkpt lat="44.28396919955252" lon="10.07497081931574"><ele>304.5</ele><time>2026-04-11T12:28:27.976Z</time></trkpt><trkpt lat="44.28404743764141" lon="10.075150079096524"><ele>304.75</ele><time>2026-04-11T12:28:28.976Z</time></trkpt><trkpt lat="44.284137933413014" lon="10.075315358453002"><ele>305.0</ele><time>2026-04-11T12:28:29.976Z</time></trkpt><trkpt lat="44.28423739497001" lon="10.075457320746322"><ele>305.0</ele><time>2026-04-11T12:28:30.976Z</time></trkpt><trkpt lat="44.28429375985827" lon="10.075611620636577"><ele>305.0</ele><time>2026-04-11T12:28:31.976Z</time></trkpt><trkpt lat="44.28432097168314" lon="10.07578165024104"><ele>305.0</ele><time>2026-04-11T12:28:32.976Z</time></trkpt><trkpt lat="44.28433829042443" lon="10.075989850558692"><ele>305.0</ele><time>2026-04-11T12:28:33.976Z</time></trkpt><trkpt lat="44.28434812491735" lon="10.076223877249328"><ele>303.33333333333337</ele><time>2026-04-11T12:28:34.976Z</time></trkpt><trkpt lat="44.28436965298846" lon="10.076467199257566"><ele>301.6666666666667</ele><time>2026-04-11T12:28:35.976Z</time></trkpt><trkpt lat="44.284411551293815" lon="10.076708267172915"><ele>300.0</ele><time>2026-04-11T12:28:36.976Z</time></trkpt><trkpt lat="44.284475744492994" lon="10.076948464235112"><ele>298.3333333333333</ele><time>2026-04-11T12:28:37.976Z</time></trkpt><trkpt lat="44.284551493458665" lon="10.077178591438175"><ele>296.66666666666663</ele><time>2026-04-11T12:28:38.976Z</time></trkpt><trkpt lat="44.28463943644183" lon="10.077396970121264"><ele>295.0</ele><time>2026-04-11T12:28:39.976Z</time></trkpt><trkpt lat="44.28473524359002" lon="10.077606267989989"><ele>301.3333333333333</ele><time>2026-04-11T12:28:40.976Z</time></trkpt><trkpt lat="44.28484297348647" lon="10.077803018072341"><ele>307.6666666666667</ele><time>2026-04-11T12:28:41.976Z</time></trkpt><trkpt lat="44.284967106404935" lon="10.077972618462708"><ele>314.0</ele><time>2026-04-11T12:28:42.976Z</time></trkpt><trkpt lat="44.28511480831449" lon="10.07812243171146"><ele>314.0</ele><time>2026-04-11T12:28:43.976Z</time></trkpt><trkpt lat="44.28526164763916" lon="10.07826397850872"><ele>314.0</ele><time>2026-04-11T12:28:44.976Z</time></trkpt><trkpt lat="44.285390927524745" lon="10.078428841737338"><ele>314.0</ele><time>2026-04-11T12:28:45.976Z</time></trkpt><trkpt lat="44.28550146666417" lon="10.078596827213282"><ele>316.75</ele><time>2026-04-11T12:28:46.976Z</time></trkpt><trkpt lat="44.28561774046399" lon="10.078727552800576"><ele>319.5</ele><time>2026-04-11T12:28:47.976Z</time></trkpt><trkpt lat="44.285752347224125" lon="10.078801571751434"><ele>322.25</ele><time>2026-04-11T12:28:48.976Z</time></trkpt><trkpt lat="44.285905037895716" lon="10.078828694815233"><ele>325.0</ele><time>2026-04-11T12:28:49.976Z</time></trkpt><trkpt lat="44.286088222776414" lon="10.078803325173313"><ele>325.0</ele><time>2026-04-11T12:28:50.976Z</time></trkpt><trkpt lat="44.28628571463787" lon="10.078746223396463"><ele>325.0</ele><time>2026-04-11T12:28:51.976Z</time></trkpt><trkpt lat="44.28649960937033" lon="10.078681284770912"><ele>325.0</ele><time>2026-04-11T12:28:52.976Z</time></trkpt><trkpt lat="44.28672352873673" lon="10.078609653048717"><ele>328.0</ele><time>2026-04-11T12:28:53.976Z</time></trkpt><trkpt lat="44.28696038879771" lon="10.078524779588864"><ele>331.0</ele><time>2026-04-11T12:28:54.976Z</time></trkpt><trkpt lat="44.28719732013378" lon="10.078440817618157"><ele>328.0</ele><time>2026-04-11T12:28:55.976Z</time></trkpt><trkpt lat="44.28743872211165" lon="10.078355287419635"><ele>325.0</ele><time>2026-04-11T12:28:56.976Z</time></trkpt><trkpt lat="44.28767786774855" lon="10.078274936362583"><ele>335.5</ele><time>2026-04-11T12:28:57.976Z</time></trkpt><trkpt lat="44.287913700605465" lon="10.0781932739814"><ele>346.0</ele><time>2026-04-11T12:28:58.976Z</time></trkpt><trkpt lat="44.2881411479819" lon="10.078110698499627"><ele>346.0</ele><time>2026-04-11T12:28:59.976Z</time></trkpt><trkpt lat="44.28836366492567" lon="10.078019146924381"><ele>346.0</ele><time>2026-04-11T12:29:00.976Z</time></trkpt><trkpt lat="44.288576252320254" lon="10.077922951418323"><ele>346.0</ele><time>2026-04-11T12:29:01.977Z</time></trkpt><trkpt lat="44.2887771656054" lon="10.077825483093573"><ele>346.0</ele><time>2026-04-11T12:29:02.977Z</time></trkpt><trkpt lat="44.288960869681254" lon="10.07773732338378"><ele>346.0</ele><time>2026-04-11T12:29:03.977Z</time></trkpt><trkpt lat="44.28913804074478" lon="10.077650504631196"><ele>342.3333333333333</ele><time>2026-04-11T12:29:04.977Z</time></trkpt><trkpt lat="44.28930563668228" lon="10.077534650855954"><ele>338.6666666666667</ele><time>2026-04-11T12:29:05.977Z</time></trkpt><trkpt lat="44.28946851387425" lon="10.077391308212759"><ele>335.0</ele><time>2026-04-11T12:29:06.977Z</time></trkpt><trkpt lat="44.28962919351243" lon="10.077247753452228"><ele>339.33333333333337</ele><time>2026-04-11T12:29:07.977Z</time></trkpt><trkpt lat="44.28977912996008" lon="10.077127823622705"><ele>343.6666666666667</ele><time>2026-04-11T12:29:08.977Z</time></trkpt><trkpt lat="44.28990958693653" lon="10.077036353522775"><ele>348.0</ele><time>2026-04-11T12:29:09.977Z</time></trkpt><trkpt lat="44.29004026326619" lon="10.076984498733992"><ele>348.0</ele><time>2026-04-11T12:29:10.977Z</time></trkpt><trkpt lat="44.290168087637696" lon="10.076984052687898"><ele>348.0</ele><time>2026-04-11T12:29:11.977Z</time></trkpt><trkpt lat="44.29030577248145" lon="10.077032424156004"><ele>348.0</ele><time>2026-04-11T12:29:12.977Z</time></trkpt><trkpt lat="44.29043597906214" lon="10.07714204265099"><ele>348.0</ele><time>2026-04-11T12:29:13.977Z</time></trkpt><trkpt lat="44.290568066313824" lon="10.077259673749781"><ele>344.6666666666667</ele><time>2026-04-11T12:29:14.977Z</time></trkpt><trkpt lat="44.29072546830165" lon="10.077328398912716"><ele>341.33333333333337</ele><time>2026-04-11T12:29:15.977Z</time></trkpt><trkpt lat="44.290903192866715" lon="10.077370043773103"><ele>338.0</ele><time>2026-04-11T12:29:16.977Z</time></trkpt><trkpt lat="44.29108061339751" lon="10.077410636380147"><ele>335.33333333333337</ele><time>2026-04-11T12:29:17.977Z</time></trkpt><trkpt lat="44.29125311980352" lon="10.077455732444355"><ele>332.6666666666667</ele><time>2026-04-11T12:29:18.977Z</time></trkpt><trkpt lat="44.291405521248784" lon="10.077489654318523"><ele>330.0</ele><time>2026-04-11T12:29:19.977Z</time></trkpt><trkpt lat="44.29154931421085" lon="10.077487458500578"><ele>333.6666666666667</ele><time>2026-04-11T12:29:20.977Z</time></trkpt><trkpt lat="44.29169557462612" lon="10.07743529638315"><ele>337.33333333333337</ele><time>2026-04-11T12:29:21.977Z</time></trkpt><trkpt lat="44.29184310135428" lon="10.07734693696398"><ele>341.0</ele><time>2026-04-11T12:29:22.977Z</time></trkpt><trkpt lat="44.29200771975779" lon="10.077240427958868"><ele>341.0</ele><time>2026-04-11T12:29:23.977Z</time></trkpt><trkpt lat="44.292173776910744" lon="10.077128482669039"><ele>341.0</ele><time>2026-04-11T12:29:24.977Z</time></trkpt><trkpt lat="44.29233317305873" lon="10.077015396086898"><ele>341.0</ele><time>2026-04-11T12:29:25.977Z</time></trkpt><trkpt lat="44.2924705791316" lon="10.076901920809052"><ele>340.0</ele><time>2026-04-11T12:29:26.977Z</time></trkpt><trkpt lat="44.29260057022281" lon="10.076776828197872"><ele>339.0</ele><time>2026-04-11T12:29:27.977Z</time></trkpt><trkpt lat="44.292717849623195" lon="10.07662766575044"><ele>338.0</ele><time>2026-04-11T12:29:28.977Z</time></trkpt><trkpt lat="44.292820854273025" lon="10.076447531660557"><ele>341.33333333333337</ele><time>2026-04-11T12:29:29.977Z</time></trkpt><trkpt lat="44.29290764346407" lon="10.076243968993914"><ele>344.6666666666667</ele><time>2026-04-11T12:29:30.974Z</time></trkpt><trkpt lat="44.292985613983575" lon="10.076052774759859"><ele>348.0</ele><time>2026-04-11T12:29:31.973Z</time></trkpt><trkpt lat="44.293066784118956" lon="10.075894299624014"><ele>351.0</ele><time>2026-04-11T12:29:32.973Z</time></trkpt><trkpt lat="44.29316435262218" lon="10.075767511248364"><ele>354.0</ele><time>2026-04-11T12:29:33.974Z</time></trkpt><trkpt lat="44.2932909137587" lon="10.0756696309595"><ele>357.0</ele><time>2026-04-11T12:29:34.974Z</time></trkpt><trkpt lat="44.29345014515892" lon="10.075622412523593"><ele>360.0</ele><time>2026-04-11T12:29:35.974Z</time></trkpt><trkpt lat="44.29361984428034" lon="10.075598030513346"><ele>360.0</ele><time>2026-04-11T12:29:36.973Z</time></trkpt><trkpt lat="44.29380268675342" lon="10.075583150982114"><ele>360.0</ele><time>2026-04-11T12:29:37.973Z</time></trkpt><trkpt lat="44.293989742577494" lon="10.075580922324521"><ele>360.0</ele><time>2026-04-11T12:29:38.973Z</time></trkpt><trkpt lat="44.294170532084856" lon="10.075592914029613"><ele>362.0</ele><time>2026-04-11T12:29:39.974Z</time></trkpt><trkpt lat="44.29433859149872" lon="10.075610613081496"><ele>364.0</ele><time>2026-04-11T12:29:40.973Z</time></trkpt><trkpt lat="44.294488957479615" lon="10.075622569650164"><ele>366.0</ele><time>2026-04-11T12:29:41.973Z</time></trkpt><trkpt lat="44.29463799958448" lon="10.075595704471652"><ele>367.6666666666667</ele><time>2026-04-11T12:29:42.973Z</time></trkpt><trkpt lat="44.29479215035029" lon="10.075520402359624"><ele>369.33333333333337</ele><time>2026-04-11T12:29:43.974Z</time></trkpt><trkpt lat="44.294948377171416" lon="10.07542095135584"><ele>371.0</ele><time>2026-04-11T12:29:44.974Z</time></trkpt><trkpt lat="44.295095979343735" lon="10.075328785073115"><ele>371.0</ele><time>2026-04-11T12:29:45.974Z</time></trkpt><trkpt lat="44.29522310890637" lon="10.075248137652476"><ele>371.0</ele><time>2026-04-11T12:29:46.974Z</time></trkpt><trkpt lat="44.29533692546978" lon="10.075172143638099"><ele>371.0</ele><time>2026-04-11T12:29:47.974Z</time></trkpt><trkpt lat="44.29544847823207" lon="10.075096237926516"><ele>371.0</ele><time>2026-04-11T12:29:48.974Z</time></trkpt><trkpt lat="44.29557771439381" lon="10.075021265165173"><ele>369.0</ele><time>2026-04-11T12:29:49.974Z</time></trkpt><trkpt lat="44.29572700548299" lon="10.074940327409465"><ele>367.0</ele><time>2026-04-11T12:29:50.974Z</time></trkpt><trkpt lat="44.295888493158834" lon="10.07484098420055"><ele>365.0</ele><time>2026-04-11T12:29:51.974Z</time></trkpt><trkpt lat="44.29604721610693" lon="10.07472521956628"><ele>366.33333333333337</ele><time>2026-04-11T12:29:52.974Z</time></trkpt><trkpt lat="44.296199876332835" lon="10.07458573966622"><ele>367.6666666666667</ele><time>2026-04-11T12:29:53.974Z</time></trkpt><trkpt lat="44.296339019181396" lon="10.074414512865836"><ele>369.0</ele><time>2026-04-11T12:29:54.974Z</time></trkpt><trkpt lat="44.296479869762244" lon="10.07423120210505"><ele>376.33333333333337</ele><time>2026-04-11T12:29:55.974Z</time></trkpt><trkpt lat="44.29660807364441" lon="10.074051440579531"><ele>383.6666666666667</ele><time>2026-04-11T12:29:56.974Z</time></trkpt><trkpt lat="44.29672744456785" lon="10.073899026791487"><ele>391.0</ele><time>2026-04-11T12:29:57.974Z</time></trkpt><trkpt lat="44.29684639444425" lon="10.073771921668891"><ele>391.0</ele><time>2026-04-11T12:29:58.974Z</time></trkpt><trkpt lat="44.29695820137439" lon="10.073680514301671"><ele>391.0</ele><time>2026-04-11T12:29:59.974Z</time></trkpt><trkpt lat="44.29707665652061" lon="10.073635790303072"><ele>391.0</ele><time>2026-04-11T12:30:00.974Z</time></trkpt><trkpt lat="44.297212049892856" lon="10.07364162986168"><ele>391.0</ele><time>2026-04-11T12:30:01.974Z</time></trkpt><trkpt lat="44.29735620646755" lon="10.073694060665934"><ele>386.0</ele><time>2026-04-11T12:30:02.974Z</time></trkpt><trkpt lat="44.29751794395125" lon="10.073739137154032"><ele>381.0</ele><time>2026-04-11T12:30:03.974Z</time></trkpt><trkpt lat="44.29768559964256" lon="10.073764089155631"><ele>376.0</ele><time>2026-04-11T12:30:04.974Z</time></trkpt><trkpt lat="44.29783762925259" lon="10.073769204001762"><ele>376.0</ele><time>2026-04-11T12:30:05.974Z</time></trkpt><trkpt lat="44.297972594421765" lon="10.073762292431194"><ele>376.0</ele><time>2026-04-11T12:30:06.974Z</time></trkpt><trkpt lat="44.298109989927575" lon="10.073703519887912"><ele>376.0</ele><time>2026-04-11T12:30:07.974Z</time></trkpt><trkpt lat="44.29824766078161" lon="10.073587561105494"><ele>376.0</ele><time>2026-04-11T12:30:08.974Z</time></trkpt><trkpt lat="44.298373110536694" lon="10.073486379201839"><ele>376.0</ele><time>2026-04-11T12:30:09.974Z</time></trkpt><trkpt lat="44.29848167644407" lon="10.073437404323304"><ele>376.0</ele><time>2026-04-11T12:30:10.974Z</time></trkpt><trkpt lat="44.29858739978888" lon="10.073388141394934"><ele>376.0</ele><time>2026-04-11T12:30:11.974Z</time></trkpt><trkpt lat="44.298665967816625" lon="10.073310701247097"><ele>376.0</ele><time>2026-04-11T12:30:12.974Z</time></trkpt><trkpt lat="44.29868937206517" lon="10.073192988575197"><ele>376.0</ele><time>2026-04-11T12:30:13.974Z</time></trkpt><trkpt lat="44.298654231702095" lon="10.073073883854923"><ele>379.5</ele><time>2026-04-11T12:30:14.974Z</time></trkpt><trkpt lat="44.29860402718817" lon="10.07297744080579"><ele>383.0</ele><time>2026-04-11T12:30:15.974Z</time></trkpt><trkpt lat="44.298595625045294" lon="10.072859562594543"><ele>386.5</ele><time>2026-04-11T12:30:16.974Z</time></trkpt><trkpt lat="44.29864389414183" lon="10.072758919761677"><ele>390.0</ele><time>2026-04-11T12:30:17.974Z</time></trkpt><trkpt lat="44.29873444500964" lon="10.072701840667005"><ele>393.50000000000006</ele><time>2026-04-11T12:30:18.974Z</time></trkpt><trkpt lat="44.29881881602724" lon="10.072744725251422"><ele>397.0</ele><time>2026-04-11T12:30:19.974Z</time></trkpt><trkpt lat="44.29891325999633" lon="10.072812159484293"><ele>395.20000000000005</ele><time>2026-04-11T12:30:20.974Z</time></trkpt><trkpt lat="44.29900490951511" lon="10.072824185454374"><ele>393.4</ele><time>2026-04-11T12:30:21.974Z</time></trkpt><trkpt lat="44.29907356044201" lon="10.07279338960544"><ele>391.6</ele><time>2026-04-11T12:30:22.974Z</time></trkpt><trkpt lat="44.29917535864572" lon="10.07265898782343"><ele>389.79999999999995</ele><time>2026-04-11T12:30:24.974Z</time></trkpt><trkpt lat="44.29923390269671" lon="10.072550517650352"><ele>388.0</ele><time>2026-04-11T12:30:25.974Z</time></trkpt><trkpt lat="44.2992974226948" lon="10.072441078449272"><ele>393.0</ele><time>2026-04-11T12:30:26.974Z</time></trkpt><trkpt lat="44.299377656752775" lon="10.072336430218796"><ele>398.0</ele><time>2026-04-11T12:30:27.974Z</time></trkpt><trkpt lat="44.299450786916715" lon="10.07221381800909"><ele>403.0</ele><time>2026-04-11T12:30:28.974Z</time></trkpt><trkpt lat="44.29952545212821" lon="10.072114694890606"><ele>408.0</ele><time>2026-04-11T12:30:29.974Z</time></trkpt><trkpt lat="44.29960398017922" lon="10.072073954832812"><ele>413.0</ele><time>2026-04-11T12:30:30.974Z</time></trkpt><trkpt lat="44.29969981195412" lon="10.072082136754219"><ele>413.5</ele><time>2026-04-11T12:30:31.974Z</time></trkpt><trkpt lat="44.299818169226434" lon="10.072111806428476"><ele>414.0</ele><time>2026-04-11T12:30:32.974Z</time></trkpt><trkpt lat="44.29992454608476" lon="10.072153621680446"><ele>414.5</ele><time>2026-04-11T12:30:33.974Z</time></trkpt><trkpt lat="44.300020143007664" lon="10.072231341922958"><ele>415.0</ele><time>2026-04-11T12:30:34.974Z</time></trkpt><trkpt lat="44.3001072738839" lon="10.072354361916156"><ele>408.5</ele><time>2026-04-11T12:30:35.974Z</time></trkpt><trkpt lat="44.300186700639934" lon="10.072503172331345"><ele>402.0</ele><time>2026-04-11T12:30:36.974Z</time></trkpt><trkpt lat="44.30025188955025" lon="10.072660559120152"><ele>395.5</ele><time>2026-04-11T12:30:37.974Z</time></trkpt><trkpt lat="44.30027951273261" lon="10.07283070749419"><ele>389.0</ele><time>2026-04-11T12:30:38.974Z</time></trkpt><trkpt lat="44.30028637991381" lon="10.073021464760977"><ele>389.0</ele><time>2026-04-11T12:30:39.974Z</time></trkpt><trkpt lat="44.3002960649393" lon="10.073210444612624"><ele>389.0</ele><time>2026-04-11T12:30:40.974Z</time></trkpt><trkpt lat="44.30030174812303" lon="10.073387865239201"><ele>389.0</ele><time>2026-04-11T12:30:41.974Z</time></trkpt><trkpt lat="44.30033155220272" lon="10.073542031238922"><ele>389.0</ele><time>2026-04-11T12:30:42.974Z</time></trkpt><trkpt lat="44.300403755654116" lon="10.073684804293338"><ele>388.0</ele><time>2026-04-11T12:30:43.974Z</time></trkpt><trkpt lat="44.300514931454565" lon="10.073806241720886"><ele>387.0</ele><time>2026-04-11T12:30:44.974Z</time></trkpt><trkpt lat="44.30064994320476" lon="10.07392846182996"><ele>386.0</ele><time>2026-04-11T12:30:45.974Z</time></trkpt><trkpt lat="44.30079467276065" lon="10.074060568544105"><ele>388.0</ele><time>2026-04-11T12:30:46.974Z</time></trkpt><trkpt lat="44.300933534125186" lon="10.074185135759917"><ele>390.0</ele><time>2026-04-11T12:30:47.974Z</time></trkpt><trkpt lat="44.30107110506496" lon="10.074310805954452"><ele>392.0</ele><time>2026-04-11T12:30:48.974Z</time></trkpt><trkpt lat="44.30120092180422" lon="10.07443946839678"><ele>392.0</ele><time>2026-04-11T12:30:49.974Z</time></trkpt><trkpt lat="44.30133060014031" lon="10.074560005404097"><ele>392.0</ele><time>2026-04-11T12:30:50.974Z</time></trkpt><trkpt lat="44.3014531270389" lon="10.074671027941884"><ele>392.0</ele><time>2026-04-11T12:30:51.974Z</time></trkpt><trkpt lat="44.30157337718633" lon="10.074782202821112"><ele>392.0</ele><time>2026-04-11T12:30:52.974Z</time></trkpt><trkpt lat="44.301693799755824" lon="10.074897399306296"><ele>395.5</ele><time>2026-04-11T12:30:53.974Z</time></trkpt><trkpt lat="44.3018136370439" lon="10.075011209817356"><ele>399.0</ele><time>2026-04-11T12:30:54.974Z</time></trkpt><trkpt lat="44.301928986371934" lon="10.07513062053922"><ele>402.5</ele><time>2026-04-11T12:30:55.974Z</time></trkpt><trkpt lat="44.30205180910263" lon="10.075244018112153"><ele>406.0</ele><time>2026-04-11T12:30:56.974Z</time></trkpt><trkpt lat="44.30217158991084" lon="10.075357332257537"><ele>408.6666666666667</ele><time>2026-04-11T12:30:57.974Z</time></trkpt><trkpt lat="44.30229333140225" lon="10.07547284479113"><ele>411.33333333333337</ele><time>2026-04-11T12:30:58.974Z</time></trkpt><trkpt lat="44.30241685729358" lon="10.075593397554098"><ele>414.0</ele><time>2026-04-11T12:30:59.974Z</time></trkpt><trkpt lat="44.302545093868886" lon="10.07572009281973"><ele>412.0</ele><time>2026-04-11T12:31:00.974Z</time></trkpt><trkpt lat="44.30267546786115" lon="10.075844722121175"><ele>410.0</ele><time>2026-04-11T12:31:01.974Z</time></trkpt><trkpt lat="44.30279662962862" lon="10.07597044592051"><ele>408.0</ele><time>2026-04-11T12:31:02.974Z</time></trkpt><trkpt lat="44.30291774010923" lon="10.076099438199297"><ele>408.0</ele><time>2026-04-11T12:31:03.974Z</time></trkpt><trkpt lat="44.303039687507884" lon="10.076233343150577"><ele>408.0</ele><time>2026-04-11T12:31:04.974Z</time></trkpt><trkpt lat="44.303164254797395" lon="10.076368490234781"><ele>408.0</ele><time>2026-04-11T12:31:05.974Z</time></trkpt><trkpt lat="44.30329150238411" lon="10.076506097169968"><ele>410.66666666666663</ele><time>2026-04-11T12:31:06.974Z</time></trkpt><trkpt lat="44.30341596931175" lon="10.076647124041596"><ele>413.3333333333333</ele><time>2026-04-11T12:31:07.974Z</time></trkpt><trkpt lat="44.303539206194905" lon="10.07678528368927"><ele>416.0</ele><time>2026-04-11T12:31:08.974Z</time></trkpt><trkpt lat="44.303666652402285" lon="10.076918883978527"><ele>416.0</ele><time>2026-04-11T12:31:09.974Z</time></trkpt><trkpt lat="44.30378921823997" lon="10.077052969106484"><ele>416.0</ele><time>2026-04-11T12:31:10.974Z</time></trkpt><trkpt lat="44.30390302448923" lon="10.0771774427651"><ele>416.0</ele><time>2026-04-11T12:31:11.974Z</time></trkpt><trkpt lat="44.30401389769526" lon="10.077285845858674"><ele>416.0</ele><time>2026-04-11T12:31:12.974Z</time></trkpt><trkpt lat="44.3041166625798" lon="10.077388025315322"><ele>417.0</ele><time>2026-04-11T12:31:13.974Z</time></trkpt><trkpt lat="44.30422235242184" lon="10.077492111950097"><ele>418.0</ele><time>2026-04-11T12:31:14.975Z</time></trkpt><trkpt lat="44.304324516090404" lon="10.077578044879747"><ele>419.0</ele><time>2026-04-11T12:31:15.975Z</time></trkpt><trkpt lat="44.30447092299976" lon="10.077648053976022"><ele>420.0</ele><time>2026-04-11T12:31:16.975Z</time></trkpt><trkpt lat="44.30462361237738" lon="10.077707423434324"><ele>421.66666666666663</ele><time>2026-04-11T12:31:17.975Z</time></trkpt><trkpt lat="44.30480090922199" lon="10.077747042405685"><ele>423.3333333333333</ele><time>2026-04-11T12:31:18.975Z</time></trkpt><trkpt lat="44.304967576381955" lon="10.077783129328687"><ele>425.0</ele><time>2026-04-11T12:31:19.975Z</time></trkpt><trkpt lat="44.305130675214144" lon="10.077802324443484"><ele>425.0</ele><time>2026-04-11T12:31:20.975Z</time></trkpt><trkpt lat="44.30528613687422" lon="10.077802825333416"><ele>425.0</ele><time>2026-04-11T12:31:21.975Z</time></trkpt><trkpt lat="44.30543996281503" lon="10.077798343755592"><ele>425.0</ele><time>2026-04-11T12:31:22.975Z</time></trkpt><trkpt lat="44.305591820213095" lon="10.077779689183341"><ele>422.5</ele><time>2026-04-11T12:31:23.975Z</time></trkpt><trkpt lat="44.30573235259406" lon="10.077738849891377"><ele>420.0</ele><time>2026-04-11T12:31:24.975Z</time></trkpt><trkpt lat="44.30586069427179" lon="10.077668345498159"><ele>417.5</ele><time>2026-04-11T12:31:25.975Z</time></trkpt><trkpt lat="44.30597141561779" lon="10.077601895496306"><ele>415.0</ele><time>2026-04-11T12:31:26.975Z</time></trkpt><trkpt lat="44.30606414067809" lon="10.077556393358906"><ele>415.0</ele><time>2026-04-11T12:31:27.975Z</time></trkpt><trkpt lat="44.30613496158183" lon="10.077585423732685"><ele>415.0</ele><time>2026-04-11T12:31:28.975Z</time></trkpt><trkpt lat="44.30619261089966" lon="10.07767467596337"><ele>415.0</ele><time>2026-04-11T12:31:29.975Z</time></trkpt><trkpt lat="44.30623256231065" lon="10.07781626909469"><ele>415.0</ele><time>2026-04-11T12:31:30.975Z</time></trkpt><trkpt lat="44.3062500216337" lon="10.077985431884507"><ele>415.0</ele><time>2026-04-11T12:31:31.975Z</time></trkpt><trkpt lat="44.306255602703196" lon="10.078173543103613"><ele>412.5</ele><time>2026-04-11T12:31:32.975Z</time></trkpt><trkpt lat="44.30623151670244" lon="10.078366867831516"><ele>410.0</ele><time>2026-04-11T12:31:33.975Z</time></trkpt><trkpt lat="44.30618507842101" lon="10.07857107813751"><ele>407.5</ele><time>2026-04-11T12:31:34.975Z</time></trkpt><trkpt lat="44.30613059527005" lon="10.078773901812449"><ele>405.0</ele><time>2026-04-11T12:31:35.975Z</time></trkpt><trkpt lat="44.30607451067028" lon="10.078929645593718"><ele>405.0</ele><time>2026-04-11T12:31:36.971Z</time></trkpt><trkpt lat="44.3059945658948" lon="10.07906177102716"><ele>405.0</ele><time>2026-04-11T12:31:37.971Z</time></trkpt><trkpt lat="44.30590063140986" lon="10.079167280400776"><ele>405.0</ele><time>2026-04-11T12:31:38.971Z</time></trkpt><trkpt lat="44.305778398535374" lon="10.079216179261373"><ele>405.0</ele><time>2026-04-11T12:31:39.971Z</time></trkpt><trkpt lat="44.30565556969514" lon="10.079214848145256"><ele>407.0</ele><time>2026-04-11T12:31:40.971Z</time></trkpt><trkpt lat="44.30552504764351" lon="10.079203118969833"><ele>409.0</ele><time>2026-04-11T12:31:41.971Z</time></trkpt><trkpt lat="44.305396036551656" lon="10.079238367036844"><ele>411.0</ele><time>2026-04-11T12:31:42.971Z</time></trkpt><trkpt lat="44.305298461453035" lon="10.079312230767066"><ele>413.0</ele><time>2026-04-11T12:31:43.971Z</time></trkpt><trkpt lat="44.30524241117155" lon="10.079426019718614"><ele>413.0</ele><time>2026-04-11T12:31:44.971Z</time></trkpt><trkpt lat="44.305225742926446" lon="10.079580686679419"><ele>413.0</ele><time>2026-04-11T12:31:45.97Z</time></trkpt><trkpt lat="44.305249082350244" lon="10.079751321654115"><ele>413.0</ele><time>2026-04-11T12:31:46.97Z</time></trkpt><trkpt lat="44.3053250701113" lon="10.079913928826183"><ele>413.0</ele><time>2026-04-11T12:31:47.97Z</time></trkpt><trkpt lat="44.30542748722503" lon="10.080090022067258"><ele>414.3333333333333</ele><time>2026-04-11T12:31:48.97Z</time></trkpt><trkpt lat="44.30554583195493" lon="10.080279428664978"><ele>415.66666666666663</ele><time>2026-04-11T12:31:49.97Z</time></trkpt><trkpt lat="44.30566573042829" lon="10.080479216343182"><ele>417.0</ele><time>2026-04-11T12:31:50.97Z</time></trkpt><trkpt lat="44.30576540450369" lon="10.080646953526895"><ele>417.8</ele><time>2026-04-11T12:31:51.97Z</time></trkpt><trkpt lat="44.30584191358097" lon="10.080775806018567"><ele>418.6</ele><time>2026-04-11T12:31:52.97Z</time></trkpt><trkpt lat="44.305922106077894" lon="10.08085624356861"><ele>419.40000000000003</ele><time>2026-04-11T12:31:53.97Z</time></trkpt><trkpt lat="44.30602423619856" lon="10.080866475633353"><ele>420.20000000000005</ele><time>2026-04-11T12:31:54.97Z</time></trkpt><trkpt lat="44.306118792595015" lon="10.080805995176608"><ele>421.0</ele><time>2026-04-11T12:31:55.97Z</time></trkpt><trkpt lat="44.3061673824021" lon="10.080678642249355"><ele>423.25</ele><time>2026-04-11T12:31:56.97Z</time></trkpt><trkpt lat="44.3061435046182" lon="10.080542220105274"><ele>425.5</ele><time>2026-04-11T12:31:57.97Z</time></trkpt><trkpt lat="44.30605844500626" lon="10.08044272555889"><ele>427.75</ele><time>2026-04-11T12:31:58.97Z</time></trkpt><trkpt lat="44.305953416310956" lon="10.080335445824367"><ele>430.0</ele><time>2026-04-11T12:31:59.97Z</time></trkpt><trkpt lat="44.30582469278711" lon="10.080206347674308"><ele>430.0</ele><time>2026-04-11T12:32:00.97Z</time></trkpt><trkpt lat="44.305713210430476" lon="10.080072626453026"><ele>430.0</ele><time>2026-04-11T12:32:01.97Z</time></trkpt><trkpt lat="44.305637664564784" lon="10.079958549192861"><ele>430.0</ele><time>2026-04-11T12:32:02.97Z</time></trkpt><trkpt lat="44.305586160350224" lon="10.079870928038167"><ele>430.0</ele><time>2026-04-11T12:32:03.97Z</time></trkpt><trkpt lat="44.30561742615528" lon="10.079748569838461"><ele>430.0</ele><time>2026-04-11T12:32:04.97Z</time></trkpt><trkpt lat="44.305703337833265" lon="10.079635852790187"><ele>430.0</ele><time>2026-04-11T12:32:05.97Z</time></trkpt><trkpt lat="44.305823465843744" lon="10.079595177493657"><ele>430.0</ele><time>2026-04-11T12:32:06.97Z</time></trkpt><trkpt lat="44.305908950442046" lon="10.079697844866988"><ele>430.0</ele><time>2026-04-11T12:32:07.97Z</time></trkpt><trkpt lat="44.3059583160106" lon="10.079856307527086"><ele>430.0</ele><time>2026-04-11T12:32:08.97Z</time></trkpt><trkpt lat="44.306005484554355" lon="10.080027621858271"><ele>430.0</ele><time>2026-04-11T12:32:09.97Z</time></trkpt><trkpt lat="44.306065252102705" lon="10.08020085450156"><ele>430.0</ele><time>2026-04-11T12:32:10.97Z</time></trkpt><trkpt lat="44.30612615332326" lon="10.08033597490935"><ele>430.0</ele><time>2026-04-11T12:32:11.97Z</time></trkpt><trkpt lat="44.30619888425522" lon="10.080455552836334"><ele>430.0</ele><time>2026-04-11T12:32:12.97Z</time></trkpt><trkpt lat="44.306274009635466" lon="10.080578645464412"><ele>430.0</ele><time>2026-04-11T12:32:13.97Z</time></trkpt><trkpt lat="44.30635173943716" lon="10.080702884872368"><ele>430.0</ele><time>2026-04-11T12:32:14.971Z</time></trkpt><trkpt lat="44.30643339334084" lon="10.080826375543053"><ele>430.0</ele><time>2026-04-11T12:32:15.971Z</time></trkpt><trkpt lat="44.3065129395112" lon="10.080950688036863"><ele>430.0</ele><time>2026-04-11T12:32:16.971Z</time></trkpt><trkpt lat="44.30658692489222" lon="10.081087172803253"><ele>432.0</ele><time>2026-04-11T12:32:17.971Z</time></trkpt><trkpt lat="44.30665843059335" lon="10.081227558883846"><ele>434.0</ele><time>2026-04-11T12:32:18.971Z</time></trkpt><trkpt lat="44.30672302062779" lon="10.081377762772831"><ele>436.0</ele><time>2026-04-11T12:32:19.971Z</time></trkpt><trkpt lat="44.306781589706404" lon="10.081530364020509"><ele>438.0</ele><time>2026-04-11T12:32:20.971Z</time></trkpt><trkpt lat="44.306834724323245" lon="10.081680544561102"><ele>438.0</ele><time>2026-04-11T12:32:21.971Z</time></trkpt><trkpt lat="44.306893002750996" lon="10.081819112169164"><ele>437.99999999999994</ele><time>2026-04-11T12:32:22.971Z</time></trkpt><trkpt lat="44.306942289177414" lon="10.081955512052659"><ele>437.99999999999994</ele><time>2026-04-11T12:32:23.971Z</time></trkpt><trkpt lat="44.30697696764246" lon="10.082092428304184"><ele>438.0</ele><time>2026-04-11T12:32:24.971Z</time></trkpt><trkpt lat="44.30701545907422" lon="10.082200962393138"><ele>438.0</ele><time>2026-04-11T12:32:25.971Z</time></trkpt><trkpt lat="44.307045515643416" lon="10.082306349633631"><ele>438.0</ele><time>2026-04-11T12:32:26.971Z</time></trkpt><trkpt lat="44.3070807159019" lon="10.082399801725746"><ele>438.0</ele><time>2026-04-11T12:32:27.971Z</time></trkpt><trkpt lat="44.30714111205604" lon="10.082465336884244"><ele>438.0</ele><time>2026-04-11T12:32:28.971Z</time></trkpt><trkpt lat="44.30721770278747" lon="10.082480989234911"><ele>438.0</ele><time>2026-04-11T12:32:29.971Z</time></trkpt><trkpt lat="44.30727771977551" lon="10.082434545162565"><ele>438.0</ele><time>2026-04-11T12:32:30.971Z</time></trkpt><trkpt lat="44.307316013374155" lon="10.082341278462707"><ele>438.0</ele><time>2026-04-11T12:32:31.971Z</time></trkpt><trkpt lat="44.307299626631604" lon="10.082228506900815"><ele>438.0</ele><time>2026-04-11T12:32:32.971Z</time></trkpt><trkpt lat="44.30724704169146" lon="10.082140071669453"><ele>437.99999999999994</ele><time>2026-04-11T12:32:33.971Z</time></trkpt><trkpt lat="44.307174121809034" lon="10.082044343807162"><ele>437.99999999999994</ele><time>2026-04-11T12:32:34.971Z</time></trkpt><trkpt lat="44.307102980631434" lon="10.081929611705293"><ele>438.0</ele><time>2026-04-11T12:32:35.971Z</time></trkpt><trkpt lat="44.30705113418821" lon="10.081769159789006"><ele>438.0</ele><time>2026-04-11T12:32:36.971Z</time></trkpt><trkpt lat="44.307024060929464" lon="10.081593888666337"><ele>439.79999999999995</ele><time>2026-04-11T12:32:37.971Z</time></trkpt><trkpt lat="44.30702668807757" lon="10.081431354129073"><ele>441.59999999999997</ele><time>2026-04-11T12:32:38.971Z</time></trkpt><trkpt lat="44.30705767547275" lon="10.081284713785836"><ele>443.40000000000003</ele><time>2026-04-11T12:32:39.971Z</time></trkpt><trkpt lat="44.30711906732363" lon="10.081158876197675"><ele>445.20000000000005</ele><time>2026-04-11T12:32:40.971Z</time></trkpt><trkpt lat="44.307201979069866" lon="10.081054497690873"><ele>447.0</ele><time>2026-04-11T12:32:41.971Z</time></trkpt><trkpt lat="44.30730561965817" lon="10.080984230402995"><ele>450.20000000000005</ele><time>2026-04-11T12:32:42.971Z</time></trkpt><trkpt lat="44.30742059910752" lon="10.080948587880126"><ele>453.40000000000003</ele><time>2026-04-11T12:32:43.971Z</time></trkpt><trkpt lat="44.307529691726614" lon="10.080944788700778"><ele>456.59999999999997</ele><time>2026-04-11T12:32:44.971Z</time></trkpt><trkpt lat="44.30763444438591" lon="10.080981468817418"><ele>459.79999999999995</ele><time>2026-04-11T12:32:45.971Z</time></trkpt><trkpt lat="44.307721642316146" lon="10.08106282105242"><ele>463.0</ele><time>2026-04-11T12:32:46.971Z</time></trkpt><trkpt lat="44.307792203006755" lon="10.081186390222872"><ele>463.0</ele><time>2026-04-11T12:32:47.971Z</time></trkpt><trkpt lat="44.30785429169737" lon="10.081330496812253"><ele>463.0</ele><time>2026-04-11T12:32:48.971Z</time></trkpt><trkpt lat="44.307910553249606" lon="10.08149568397542"><ele>463.0</ele><time>2026-04-11T12:32:49.971Z</time></trkpt><trkpt lat="44.30796633635097" lon="10.081665287692239"><ele>463.0</ele><time>2026-04-11T12:32:50.971Z</time></trkpt><trkpt lat="44.30802769066093" lon="10.081853150928962"><ele>468.33333333333337</ele><time>2026-04-11T12:32:51.971Z</time></trkpt><trkpt lat="44.30810618252654" lon="10.082072374071128"><ele>473.66666666666663</ele><time>2026-04-11T12:32:52.971Z</time></trkpt><trkpt lat="44.3081731300596" lon="10.082333231981734"><ele>479.0</ele><time>2026-04-11T12:32:53.971Z</time></trkpt><trkpt lat="44.308241709751144" lon="10.082624265013068"><ele>479.0</ele><time>2026-04-11T12:32:54.971Z</time></trkpt><trkpt lat="44.308316263859616" lon="10.08297395259292"><ele>479.0</ele><time>2026-04-11T12:32:55.971Z</time></trkpt><trkpt lat="44.30840268571579" lon="10.083336733182886"><ele>478.5</ele><time>2026-04-11T12:32:56.971Z</time></trkpt><trkpt lat="44.30849424750105" lon="10.083693060772514"><ele>478.0</ele><time>2026-04-11T12:32:57.971Z</time></trkpt><trkpt lat="44.3085700769894" lon="10.083995307984745"><ele>477.33333333333337</ele><time>2026-04-11T12:32:58.971Z</time></trkpt><trkpt lat="44.30864106591965" lon="10.084269772242397"><ele>476.66666666666663</ele><time>2026-04-11T12:32:59.971Z</time></trkpt><trkpt lat="44.30870699947295" lon="10.084525908512441"><ele>476.0</ele><time>2026-04-11T12:33:00.971Z</time></trkpt><trkpt lat="44.30876133411713" lon="10.084739363871297"><ele>476.0</ele><time>2026-04-11T12:33:01.971Z</time></trkpt><trkpt lat="44.30883161668066" lon="10.084916761637036"><ele>476.0</ele><time>2026-04-11T12:33:02.971Z</time></trkpt><trkpt lat="44.30893586662401" lon="10.08506561142213"><ele>476.0</ele><time>2026-04-11T12:33:03.971Z</time></trkpt><trkpt lat="44.30907199039534" lon="10.085201791823215"><ele>479.66666666666663</ele><time>2026-04-11T12:33:04.971Z</time></trkpt><trkpt lat="44.30923874420541" lon="10.085361603904536"><ele>483.33333333333337</ele><time>2026-04-11T12:33:05.971Z</time></trkpt><trkpt lat="44.30939971607296" lon="10.085554744652828"><ele>487.0</ele><time>2026-04-11T12:33:06.971Z</time></trkpt><trkpt lat="44.309551507469386" lon="10.085764601900747"><ele>487.0</ele><time>2026-04-11T12:33:07.971Z</time></trkpt><trkpt lat="44.30969353722822" lon="10.085967866295134"><ele>487.0</ele><time>2026-04-11T12:33:08.971Z</time></trkpt><trkpt lat="44.3098113356976" lon="10.086142530330468"><ele>487.0</ele><time>2026-04-11T12:33:09.971Z</time></trkpt><trkpt lat="44.30990466375256" lon="10.086323315331338"><ele>490.5</ele><time>2026-04-11T12:33:10.971Z</time></trkpt><trkpt lat="44.30997445451019" lon="10.086526200144549"><ele>494.0</ele><time>2026-04-11T12:33:11.971Z</time></trkpt><trkpt lat="44.31000729531605" lon="10.086724889868561"><ele>497.5</ele><time>2026-04-11T12:33:12.971Z</time></trkpt><trkpt lat="44.31000633527777" lon="10.086908197164826"><ele>501.0</ele><time>2026-04-11T12:33:13.971Z</time></trkpt><trkpt lat="44.30999612282987" lon="10.087052837785354"><ele>501.0</ele><time>2026-04-11T12:33:14.971Z</time></trkpt><trkpt lat="44.31000846137715" lon="10.08717254100975"><ele>501.0</ele><time>2026-04-11T12:33:15.971Z</time></trkpt><trkpt lat="44.31006721482853" lon="10.08726900807088"><ele>501.0</ele><time>2026-04-11T12:33:16.971Z</time></trkpt><trkpt lat="44.31014913469984" lon="10.08731513420494"><ele>501.0</ele><time>2026-04-11T12:33:17.971Z</time></trkpt><trkpt lat="44.31024360748921" lon="10.087300424481478"><ele>501.0</ele><time>2026-04-11T12:33:18.971Z</time></trkpt><trkpt lat="44.3103321673909" lon="10.087233625650207"><ele>501.0</ele><time>2026-04-11T12:33:19.971Z</time></trkpt><trkpt lat="44.310377353242195" lon="10.087129112093953"><ele>501.0</ele><time>2026-04-11T12:33:20.971Z</time></trkpt><trkpt lat="44.310352612173574" lon="10.087010839477628"><ele>501.0</ele><time>2026-04-11T12:33:21.971Z</time></trkpt><trkpt lat="44.31029872016687" lon="10.086893711182613"><ele>501.0</ele><time>2026-04-11T12:33:22.971Z</time></trkpt><trkpt lat="44.310219323514445" lon="10.086741890759168"><ele>501.0</ele><time>2026-04-11T12:33:23.971Z</time></trkpt><trkpt lat="44.31014544913187" lon="10.086578819882714"><ele>501.5</ele><time>2026-04-11T12:33:24.971Z</time></trkpt><trkpt lat="44.31010063901731" lon="10.086384817496413"><ele>502.0</ele><time>2026-04-11T12:33:25.971Z</time></trkpt><trkpt lat="44.310070971868164" lon="10.0861800070797"><ele>502.5</ele><time>2026-04-11T12:33:26.971Z</time></trkpt><trkpt lat="44.310065172681746" lon="10.085971773828861"><ele>503.0</ele><time>2026-04-11T12:33:27.971Z</time></trkpt><trkpt lat="44.310083511896" lon="10.085768679791062"><ele>503.4</ele><time>2026-04-11T12:33:28.971Z</time></trkpt><trkpt lat="44.31010919675716" lon="10.085594886212565"><ele>503.79999999999995</ele><time>2026-04-11T12:33:29.971Z</time></trkpt><trkpt lat="44.31015370477211" lon="10.08548410548423"><ele>504.2</ele><time>2026-04-11T12:33:30.971Z</time></trkpt><trkpt lat="44.31023041970491" lon="10.085421250336015"><ele>504.6</ele><time>2026-04-11T12:33:31.971Z</time></trkpt><trkpt lat="44.31033163590799" lon="10.085426660634107"><ele>505.0</ele><time>2026-04-11T12:33:32.971Z</time></trkpt><trkpt lat="44.310417992498586" lon="10.085500436552222"><ele>505.0</ele><time>2026-04-11T12:33:33.971Z</time></trkpt><trkpt lat="44.31044511387404" lon="10.085635707823496"><ele>505.0</ele><time>2026-04-11T12:33:34.971Z</time></trkpt><trkpt lat="44.310421948622114" lon="10.085768693801759"><ele>505.0</ele><time>2026-04-11T12:33:35.971Z</time></trkpt><trkpt lat="44.31037814877102" lon="10.085920019809429"><ele>505.0</ele><time>2026-04-11T12:33:36.971Z</time></trkpt><trkpt lat="44.31034806864363" lon="10.086089775448754"><ele>505.0</ele><time>2026-04-11T12:33:37.971Z</time></trkpt><trkpt lat="44.31035448206941" lon="10.086271679845856"><ele>504.5</ele><time>2026-04-11T12:33:38.971Z</time></trkpt><trkpt lat="44.310394674781456" lon="10.086447282345262"><ele>504.0</ele><time>2026-04-11T12:33:39.971Z</time></trkpt><trkpt lat="44.31046622204248" lon="10.086611438859968"><ele>503.5</ele><time>2026-04-11T12:33:40.971Z</time></trkpt><trkpt lat="44.31054945125059" lon="10.086749298455096"><ele>503.0</ele><time>2026-04-11T12:33:41.971Z</time></trkpt><trkpt lat="44.310652525697094" lon="10.086877226381606"><ele>509.66666666666663</ele><time>2026-04-11T12:33:42.969Z</time></trkpt><trkpt lat="44.31077297343256" lon="10.086997035210064"><ele>516.3333333333334</ele><time>2026-04-11T12:33:43.968Z</time></trkpt><trkpt lat="44.31091196571291" lon="10.087099444965464"><ele>523.0</ele><time>2026-04-11T12:33:44.968Z</time></trkpt><trkpt lat="44.31106284419955" lon="10.087192168908793"><ele>523.0</ele><time>2026-04-11T12:33:45.968Z</time></trkpt><trkpt lat="44.311225561346596" lon="10.087279820801841"><ele>523.0</ele><time>2026-04-11T12:33:46.968Z</time></trkpt><trkpt lat="44.311388985111556" lon="10.087370160379985"><ele>523.0</ele><time>2026-04-11T12:33:47.968Z</time></trkpt><trkpt lat="44.311535642498455" lon="10.087450292451894"><ele>523.75</ele><time>2026-04-11T12:33:48.968Z</time></trkpt><trkpt lat="44.31166269411759" lon="10.087525104817752"><ele>524.5</ele><time>2026-04-11T12:33:49.968Z</time></trkpt><trkpt lat="44.31179694207262" lon="10.087560201588815"><ele>525.25</ele><time>2026-04-11T12:33:50.968Z</time></trkpt><trkpt lat="44.311935312047744" lon="10.087547506941858"><ele>526.0</ele><time>2026-04-11T12:33:51.968Z</time></trkpt><trkpt lat="44.312087444668684" lon="10.08748643056778"><ele>534.6666666666667</ele><time>2026-04-11T12:33:52.968Z</time></trkpt><trkpt lat="44.312248499119534" lon="10.087383846859508"><ele>543.3333333333334</ele><time>2026-04-11T12:33:53.968Z</time></trkpt><trkpt lat="44.312420896349934" lon="10.087238180047251"><ele>552.0</ele><time>2026-04-11T12:33:54.968Z</time></trkpt><trkpt lat="44.31259712820602" lon="10.087078513023005"><ele>552.0</ele><time>2026-04-11T12:33:55.968Z</time></trkpt><trkpt lat="44.31276031895203" lon="10.08695407399266"><ele>552.0</ele><time>2026-04-11T12:33:56.968Z</time></trkpt><trkpt lat="44.312932371523914" lon="10.086880443386391"><ele>552.0</ele><time>2026-04-11T12:33:57.968Z</time></trkpt><trkpt lat="44.31311013262522" lon="10.086864540521463"><ele>552.5</ele><time>2026-04-11T12:33:58.968Z</time></trkpt><trkpt lat="44.31325434219963" lon="10.086833780697734"><ele>553.0</ele><time>2026-04-11T12:33:59.968Z</time></trkpt><trkpt lat="44.313381866475794" lon="10.086845543287744"><ele>553.5</ele><time>2026-04-11T12:34:00.968Z</time></trkpt><trkpt lat="44.31349703003564" lon="10.08691743767657"><ele>554.0</ele><time>2026-04-11T12:34:01.968Z</time></trkpt><trkpt lat="44.313583705950535" lon="10.087032150287635"><ele>554.0</ele><time>2026-04-11T12:34:02.968Z</time></trkpt><trkpt lat="44.31362530029861" lon="10.087175636830668"><ele>554.0</ele><time>2026-04-11T12:34:03.968Z</time></trkpt><trkpt lat="44.31363550349809" lon="10.087348241613428"><ele>554.0</ele><time>2026-04-11T12:34:04.968Z</time></trkpt><trkpt lat="44.31364511309968" lon="10.087548037494626"><ele>554.0</ele><time>2026-04-11T12:34:05.968Z</time></trkpt><trkpt lat="44.3136601787081" lon="10.08778101635266"><ele>550.0</ele><time>2026-04-11T12:34:06.968Z</time></trkpt><trkpt lat="44.313659238290455" lon="10.088002039267938"><ele>546.0</ele><time>2026-04-11T12:34:07.968Z</time></trkpt><trkpt lat="44.313617845339586" lon="10.088193830239046"><ele>542.0</ele><time>2026-04-11T12:34:08.968Z</time></trkpt><trkpt lat="44.31355142616169" lon="10.088376854423577"><ele>538.0</ele><time>2026-04-11T12:34:09.968Z</time></trkpt><trkpt lat="44.313492411342104" lon="10.088568564878614"><ele>537.0</ele><time>2026-04-11T12:34:10.968Z</time></trkpt><trkpt lat="44.31346205973446" lon="10.088740466536187"><ele>536.0</ele><time>2026-04-11T12:34:11.968Z</time></trkpt><trkpt lat="44.31346509383132" lon="10.088897058001079"><ele>535.0</ele><time>2026-04-11T12:34:12.968Z</time></trkpt><trkpt lat="44.31350774553189" lon="10.089039553458269"><ele>534.0</ele><time>2026-04-11T12:34:13.968Z</time></trkpt><trkpt lat="44.31359253418194" lon="10.089140236651481"><ele>534.0</ele><time>2026-04-11T12:34:14.968Z</time></trkpt><trkpt lat="44.31371300454769" lon="10.089194687111727"><ele>534.0</ele><time>2026-04-11T12:34:15.968Z</time></trkpt><trkpt lat="44.31386400984317" lon="10.089214050459434"><ele>534.0</ele><time>2026-04-11T12:34:16.968Z</time></trkpt><trkpt lat="44.31403473942889" lon="10.089217897644193"><ele>534.0</ele><time>2026-04-11T12:34:17.968Z</time></trkpt><trkpt lat="44.31420930202471" lon="10.089257519954819"><ele>543.3333333333334</ele><time>2026-04-11T12:34:18.968Z</time></trkpt><trkpt lat="44.314384667569776" lon="10.089318952826611"><ele>552.6666666666667</ele><time>2026-04-11T12:34:19.968Z</time></trkpt><trkpt lat="44.31456026119647" lon="10.089396817520996"><ele>562.0</ele><time>2026-04-11T12:34:20.968Z</time></trkpt><trkpt lat="44.31471745494994" lon="10.089509466766685"><ele>560.75</ele><time>2026-04-11T12:34:21.968Z</time></trkpt><trkpt lat="44.31484861778032" lon="10.089635159433751"><ele>559.5</ele><time>2026-04-11T12:34:22.968Z</time></trkpt><trkpt lat="44.31496298275927" lon="10.089765872695393"><ele>558.25</ele><time>2026-04-11T12:34:23.968Z</time></trkpt><trkpt lat="44.31506351944207" lon="10.089869609813913"><ele>557.0</ele><time>2026-04-11T12:34:24.968Z</time></trkpt><trkpt lat="44.31518083017818" lon="10.089934986970775"><ele>557.0</ele><time>2026-04-11T12:34:25.968Z</time></trkpt><trkpt lat="44.315309893274566" lon="10.089953959338443"><ele>557.0</ele><time>2026-04-11T12:34:26.968Z</time></trkpt><trkpt lat="44.31544901401937" lon="10.089952566845962"><ele>557.0</ele><time>2026-04-11T12:34:27.968Z</time></trkpt><trkpt lat="44.31560998674071" lon="10.089929926779021"><ele>557.0</ele><time>2026-04-11T12:34:28.968Z</time></trkpt><trkpt lat="44.315752461250284" lon="10.090008831406"><ele>563.6666666666666</ele><time>2026-04-11T12:34:29.968Z</time></trkpt><trkpt lat="44.31589898862679" lon="10.090126024347553"><ele>570.3333333333334</ele><time>2026-04-11T12:34:30.968Z</time></trkpt><trkpt lat="44.31604605741992" lon="10.09020769695557"><ele>577.0</ele><time>2026-04-11T12:34:31.968Z</time></trkpt><trkpt lat="44.31618582238105" lon="10.090300981738565"><ele>577.0</ele><time>2026-04-11T12:34:32.968Z</time></trkpt><trkpt lat="44.31632335933839" lon="10.090365661139032"><ele>577.0</ele><time>2026-04-11T12:34:33.968Z</time></trkpt><trkpt lat="44.31647768841161" lon="10.090375993165086"><ele>577.0</ele><time>2026-04-11T12:34:34.968Z</time></trkpt><trkpt lat="44.31666315339377" lon="10.090360316569331"><ele>586.0</ele><time>2026-04-11T12:34:35.968Z</time></trkpt><trkpt lat="44.316851629535066" lon="10.09038026883808"><ele>595.0</ele><time>2026-04-11T12:34:36.968Z</time></trkpt><trkpt lat="44.3170258020469" lon="10.090389258593657"><ele>604.0</ele><time>2026-04-11T12:34:37.968Z</time></trkpt><trkpt lat="44.31718117787456" lon="10.090373102972963"><ele>610.25</ele><time>2026-04-11T12:34:38.968Z</time></trkpt><trkpt lat="44.31730701837268" lon="10.09037464577028"><ele>616.5</ele><time>2026-04-11T12:34:39.968Z</time></trkpt><trkpt lat="44.317428187068735" lon="10.090430503529864"><ele>622.75</ele><time>2026-04-11T12:34:40.968Z</time></trkpt><trkpt lat="44.31754130071657" lon="10.09056735727086"><ele>629.0</ele><time>2026-04-11T12:34:41.968Z</time></trkpt><trkpt lat="44.317650365522766" lon="10.090740848890645"><ele>613.6666666666666</ele><time>2026-04-11T12:34:42.969Z</time></trkpt><trkpt lat="44.31777123824676" lon="10.090909417236823"><ele>598.3333333333334</ele><time>2026-04-11T12:34:43.969Z</time></trkpt><trkpt lat="44.31789363519431" lon="10.091055599808909"><ele>583.0</ele><time>2026-04-11T12:34:44.969Z</time></trkpt><trkpt lat="44.31800531988946" lon="10.091174334561451"><ele>590.5</ele><time>2026-04-11T12:34:45.969Z</time></trkpt><trkpt lat="44.31812381924115" lon="10.091281986676263"><ele>598.0</ele><time>2026-04-11T12:34:46.969Z</time></trkpt><trkpt lat="44.318247757502185" lon="10.09136904723452"><ele>605.5</ele><time>2026-04-11T12:34:47.969Z</time></trkpt><trkpt lat="44.318396751662526" lon="10.091431901903825"><ele>613.0</ele><time>2026-04-11T12:34:48.969Z</time></trkpt><trkpt lat="44.3185836683794" lon="10.091435567593974"><ele>613.0</ele><time>2026-04-11T12:34:49.969Z</time></trkpt><trkpt lat="44.31873428072497" lon="10.09144295888259"><ele>613.0</ele><time>2026-04-11T12:34:50.969Z</time></trkpt><trkpt lat="44.31887150858155" lon="10.091410200273627"><ele>613.0</ele><time>2026-04-11T12:34:51.969Z</time></trkpt><trkpt lat="44.318989597964574" lon="10.091411374402686"><ele>613.0</ele><time>2026-04-11T12:34:52.969Z</time></trkpt><trkpt lat="44.31908351012084" lon="10.091528375300697"><ele>608.25</ele><time>2026-04-11T12:34:53.969Z</time></trkpt><trkpt lat="44.31919529476175" lon="10.091625745863979"><ele>603.5</ele><time>2026-04-11T12:34:54.969Z</time></trkpt><trkpt lat="44.319323187502214" lon="10.091665872761503"><ele>598.75</ele><time>2026-04-11T12:34:55.969Z</time></trkpt><trkpt lat="44.319458653520144" lon="10.091654667225413"><ele>594.0</ele><time>2026-04-11T12:34:56.969Z</time></trkpt><trkpt lat="44.31958128652676" lon="10.091622964223923"><ele>598.6</ele><time>2026-04-11T12:34:57.969Z</time></trkpt><trkpt lat="44.31970939445668" lon="10.091559195038185"><ele>603.2</ele><time>2026-04-11T12:34:58.969Z</time></trkpt><trkpt lat="44.3198175206024" lon="10.091515561533486"><ele>607.8000000000001</ele><time>2026-04-11T12:34:59.969Z</time></trkpt><trkpt lat="44.319885349547334" lon="10.091534088891525"><ele>612.4</ele><time>2026-04-11T12:35:00.969Z</time></trkpt><trkpt lat="44.31995010691165" lon="10.091583647990362"><ele>617.0</ele><time>2026-04-11T12:35:01.969Z</time></trkpt><trkpt lat="44.319983931573894" lon="10.091734483179854"><ele>617.0</ele><time>2026-04-11T12:35:02.969Z</time></trkpt><trkpt lat="44.31996988446828" lon="10.091887659095068"><ele>617.0</ele><time>2026-04-11T12:35:03.969Z</time></trkpt><trkpt lat="44.31989018658732" lon="10.092017707966054"><ele>617.0</ele><time>2026-04-11T12:35:04.969Z</time></trkpt><trkpt lat="44.31980509504131" lon="10.092116575558238"><ele>617.0</ele><time>2026-04-11T12:35:05.969Z</time></trkpt><trkpt lat="44.31973096295112" lon="10.09222936648405"><ele>616.5</ele><time>2026-04-11T12:35:06.969Z</time></trkpt><trkpt lat="44.31970844005745" lon="10.092348991631528"><ele>616.0</ele><time>2026-04-11T12:35:07.969Z</time></trkpt><trkpt lat="44.31972443101201" lon="10.09249605552303"><ele>615.5</ele><time>2026-04-11T12:35:08.969Z</time></trkpt><trkpt lat="44.31976499778878" lon="10.092682052082296"><ele>615.0</ele><time>2026-04-11T12:35:09.969Z</time></trkpt><trkpt lat="44.319833477621" lon="10.092910902609523"><ele>615.0</ele><time>2026-04-11T12:35:10.969Z</time></trkpt><trkpt lat="44.31988607400243" lon="10.093120817839651"><ele>615.0</ele><time>2026-04-11T12:35:11.969Z</time></trkpt><trkpt lat="44.319905384425816" lon="10.093346127805681"><ele>615.0</ele><time>2026-04-11T12:35:12.969Z</time></trkpt><trkpt lat="44.319912982059904" lon="10.093555020016009"><ele>614.75</ele><time>2026-04-11T12:35:13.969Z</time></trkpt><trkpt lat="44.319944087408345" lon="10.093774665960659"><ele>614.5</ele><time>2026-04-11T12:35:14.969Z</time></trkpt><trkpt lat="44.31997380246972" lon="10.093966960928825"><ele>614.25</ele><time>2026-04-11T12:35:15.969Z</time></trkpt><trkpt lat="44.31998863033674" lon="10.094148978074294"><ele>614.0</ele><time>2026-04-11T12:35:16.969Z</time></trkpt><trkpt lat="44.32000752370788" lon="10.094315681687572"><ele>611.25</ele><time>2026-04-11T12:35:17.969Z</time></trkpt><trkpt lat="44.32005605650362" lon="10.09446801341904"><ele>608.5</ele><time>2026-04-11T12:35:18.969Z</time></trkpt><trkpt lat="44.3201417418813" lon="10.094624484972218"><ele>605.75</ele><time>2026-04-11T12:35:19.969Z</time></trkpt><trkpt lat="44.3202507006481" lon="10.094765936895195"><ele>603.0</ele><time>2026-04-11T12:35:20.969Z</time></trkpt><trkpt lat="44.32036324043335" lon="10.09488226960672"><ele>600.5</ele><time>2026-04-11T12:35:21.969Z</time></trkpt><trkpt lat="44.32049093052497" lon="10.09496339941253"><ele>598.0</ele><time>2026-04-11T12:35:22.969Z</time></trkpt><trkpt lat="44.3206340365578" lon="10.094976567210464"><ele>595.5</ele><time>2026-04-11T12:35:23.969Z</time></trkpt><trkpt lat="44.320763877715095" lon="10.094962022324594"><ele>593.0</ele><time>2026-04-11T12:35:24.969Z</time></trkpt><trkpt lat="44.32086310892035" lon="10.094927145051862"><ele>599.1999999999999</ele><time>2026-04-11T12:35:25.969Z</time></trkpt><trkpt lat="44.32093828474885" lon="10.094932547060656"><ele>605.4</ele><time>2026-04-11T12:35:26.969Z</time></trkpt><trkpt lat="44.32102253141805" lon="10.095033159236538"><ele>611.5999999999999</ele><time>2026-04-11T12:35:27.969Z</time></trkpt><trkpt lat="44.321091845721234" lon="10.095141865891293"><ele>617.8</ele><time>2026-04-11T12:35:28.969Z</time></trkpt><trkpt lat="44.32113369410182" lon="10.095262499993288"><ele>624.0</ele><time>2026-04-11T12:35:29.969Z</time></trkpt><trkpt lat="44.3211334942845" lon="10.095389559844143"><ele>624.0</ele><time>2026-04-11T12:35:30.969Z</time></trkpt><trkpt lat="44.32113617711097" lon="10.095537676197033"><ele>624.0</ele><time>2026-04-11T12:35:31.969Z</time></trkpt><trkpt lat="44.32121139461889" lon="10.095701648354956"><ele>624.0</ele><time>2026-04-11T12:35:32.969Z</time></trkpt><trkpt lat="44.32132602219158" lon="10.095855649323303"><ele>624.0</ele><time>2026-04-11T12:35:33.969Z</time></trkpt><trkpt lat="44.32147424341377" lon="10.095994808326326"><ele>630.0</ele><time>2026-04-11T12:35:34.969Z</time></trkpt><trkpt lat="44.321625973834884" lon="10.096070519106757"><ele>636.0</ele><time>2026-04-11T12:35:35.969Z</time></trkpt><trkpt lat="44.32177775931884" lon="10.096169493660232"><ele>642.0</ele><time>2026-04-11T12:35:36.969Z</time></trkpt><trkpt lat="44.32187560626215" lon="10.096265997728828"><ele>648.0</ele><time>2026-04-11T12:35:37.969Z</time></trkpt><trkpt lat="44.32201815716915" lon="10.096402075899142"><ele>648.0</ele><time>2026-04-11T12:35:38.969Z</time></trkpt><trkpt lat="44.32215392973415" lon="10.09655960371147"><ele>648.0</ele><time>2026-04-11T12:35:39.969Z</time></trkpt><trkpt lat="44.32226363326843" lon="10.096762880248091"><ele>648.0</ele><time>2026-04-11T12:35:40.969Z</time></trkpt><trkpt lat="44.32237228581234" lon="10.096972908209468"><ele>645.0</ele><time>2026-04-11T12:35:41.969Z</time></trkpt><trkpt lat="44.32247756046104" lon="10.097177220878548"><ele>642.0</ele><time>2026-04-11T12:35:42.969Z</time></trkpt><trkpt lat="44.322576351920866" lon="10.097344989911067"><ele>639.0</ele><time>2026-04-11T12:35:43.969Z</time></trkpt><trkpt lat="44.32267198979716" lon="10.097473312935746"><ele>639.0</ele><time>2026-04-11T12:35:44.969Z</time></trkpt><trkpt lat="44.32276215141265" lon="10.097550096786243"><ele>639.0</ele><time>2026-04-11T12:35:45.969Z</time></trkpt><trkpt lat="44.322856095545944" lon="10.097625893448951"><ele>639.0</ele><time>2026-04-11T12:35:46.969Z</time></trkpt><trkpt lat="44.3229063179374" lon="10.097751952518419"><ele>639.0</ele><time>2026-04-11T12:35:47.969Z</time></trkpt><trkpt lat="44.32290175960544" lon="10.09791065193095"><ele>639.0</ele><time>2026-04-11T12:35:48.965Z</time></trkpt><trkpt lat="44.32285156677833" lon="10.098045202821243"><ele>639.0</ele><time>2026-04-11T12:35:49.965Z</time></trkpt><trkpt lat="44.322776880542605" lon="10.09815819859158"><ele>639.0</ele><time>2026-04-11T12:35:50.965Z</time></trkpt><trkpt lat="44.322697692445104" lon="10.098266786337408"><ele>639.0</ele><time>2026-04-11T12:35:51.965Z</time></trkpt><trkpt lat="44.32265917083138" lon="10.098392998264321"><ele>639.0</ele><time>2026-04-11T12:35:52.965Z</time></trkpt><trkpt lat="44.32267204675553" lon="10.098561392950163"><ele>639.0</ele><time>2026-04-11T12:35:53.965Z</time></trkpt><trkpt lat="44.32269741733508" lon="10.09873277384056"><ele>638.25</ele><time>2026-04-11T12:35:54.965Z</time></trkpt><trkpt lat="44.32273149161047" lon="10.098934861816366"><ele>637.5</ele><time>2026-04-11T12:35:55.965Z</time></trkpt><trkpt lat="44.32277022924084" lon="10.099138567830984"><ele>636.75</ele><time>2026-04-11T12:35:56.965Z</time></trkpt><trkpt lat="44.32282427868895" lon="10.099332526942325"><ele>636.0</ele><time>2026-04-11T12:35:57.965Z</time></trkpt><trkpt lat="44.32290959359337" lon="10.09950572827375"><ele>636.0</ele><time>2026-04-11T12:35:58.965Z</time></trkpt><trkpt lat="44.32301908874484" lon="10.099668759604624"><ele>636.0</ele><time>2026-04-11T12:35:59.965Z</time></trkpt><trkpt lat="44.32311067884685" lon="10.099827867680496"><ele>636.0</ele><time>2026-04-11T12:36:00.965Z</time></trkpt><trkpt lat="44.32316563027807" lon="10.099973244293126"><ele>636.0</ele><time>2026-04-11T12:36:01.965Z</time></trkpt><trkpt lat="44.32318106441564" lon="10.10012826979944"><ele>646.0</ele><time>2026-04-11T12:36:02.965Z</time></trkpt><trkpt lat="44.32315138037371" lon="10.100295808879165"><ele>656.0</ele><time>2026-04-11T12:36:03.965Z</time></trkpt><trkpt lat="44.32313865991997" lon="10.100444092603379"><ele>666.0</ele><time>2026-04-11T12:36:04.965Z</time></trkpt><trkpt lat="44.32318836656081" lon="10.100603615233732"><ele>676.0</ele><time>2026-04-11T12:36:05.965Z</time></trkpt><trkpt lat="44.32327650533858" lon="10.100725275674856"><ele>672.6666666666667</ele><time>2026-04-11T12:36:06.965Z</time></trkpt><trkpt lat="44.32341724112339" lon="10.100822118903915"><ele>669.3333333333334</ele><time>2026-04-11T12:36:07.965Z</time></trkpt><trkpt lat="44.32356634547726" lon="10.100956138488776"><ele>666.0</ele><time>2026-04-11T12:36:08.965Z</time></trkpt><trkpt lat="44.32367772583335" lon="10.101141097720173"><ele>666.0</ele><time>2026-04-11T12:36:09.965Z</time></trkpt><trkpt lat="44.32377603753296" lon="10.10135154594054"><ele>666.0</ele><time>2026-04-11T12:36:10.965Z</time></trkpt><trkpt lat="44.32386312939026" lon="10.10157659236264"><ele>666.0</ele><time>2026-04-11T12:36:11.965Z</time></trkpt><trkpt lat="44.32393826469583" lon="10.101777255475653"><ele>676.3333333333334</ele><time>2026-04-11T12:36:12.965Z</time></trkpt><trkpt lat="44.32403197481505" lon="10.101943057401124"><ele>686.6666666666667</ele><time>2026-04-11T12:36:13.965Z</time></trkpt><trkpt lat="44.3241261832396" lon="10.10209679298952"><ele>697.0</ele><time>2026-04-11T12:36:14.965Z</time></trkpt><trkpt lat="44.32422431410293" lon="10.10226481775437"><ele>687.3333333333334</ele><time>2026-04-11T12:36:15.965Z</time></trkpt><trkpt lat="44.3243061521955" lon="10.102430523104845"><ele>677.6666666666666</ele><time>2026-04-11T12:36:16.965Z</time></trkpt><trkpt lat="44.32438960214687" lon="10.102616234333631"><ele>668.0</ele><time>2026-04-11T12:36:17.965Z</time></trkpt><trkpt lat="44.32452410771297" lon="10.102754290672198"><ele>668.0</ele><time>2026-04-11T12:36:18.965Z</time></trkpt><trkpt lat="44.324682071005014" lon="10.102875433236486"><ele>668.0</ele><time>2026-04-11T12:36:19.965Z</time></trkpt><trkpt lat="44.32485387471025" lon="10.102990218971629"><ele>668.0</ele><time>2026-04-11T12:36:20.965Z</time></trkpt><trkpt lat="44.32503251254966" lon="10.103095680485982"><ele>670.6666666666666</ele><time>2026-04-11T12:36:21.965Z</time></trkpt><trkpt lat="44.325202565474505" lon="10.10319240809929"><ele>673.3333333333334</ele><time>2026-04-11T12:36:22.965Z</time></trkpt><trkpt lat="44.32534691184254" lon="10.103281084280765"><ele>676.0</ele><time>2026-04-11T12:36:23.965Z</time></trkpt><trkpt lat="44.32547074262373" lon="10.103384641061192"><ele>687.0</ele><time>2026-04-11T12:36:24.965Z</time></trkpt><trkpt lat="44.3255714215621" lon="10.103497183195694"><ele>698.0</ele><time>2026-04-11T12:36:25.965Z</time></trkpt><trkpt lat="44.3256429718519" lon="10.103636188720222"><ele>709.0</ele><time>2026-04-11T12:36:26.965Z</time></trkpt><trkpt lat="44.32570588637354" lon="10.10374839004552"><ele>720.0</ele><time>2026-04-11T12:36:27.965Z</time></trkpt><trkpt lat="44.32576603486666" lon="10.103855875723756"><ele>720.0</ele><time>2026-04-11T12:36:28.965Z</time></trkpt><trkpt lat="44.32566659459344" lon="10.104056077500239"><ele>720.0</ele><time>2026-04-11T12:36:30.965Z</time></trkpt><trkpt lat="44.32559428248374" lon="10.104210648910644"><ele>720.0</ele><time>2026-04-11T12:36:31.965Z</time></trkpt><trkpt lat="44.32553176929771" lon="10.104346260845059"><ele>720.0</ele><time>2026-04-11T12:36:32.965Z</time></trkpt><trkpt lat="44.325477634131104" lon="10.104494139591104"><ele>713.25</ele><time>2026-04-11T12:36:33.965Z</time></trkpt><trkpt lat="44.325422299301756" lon="10.104633278816376"><ele>706.5</ele><time>2026-04-11T12:36:34.965Z</time></trkpt><trkpt lat="44.32536604834693" lon="10.10477217231871"><ele>699.75</ele><time>2026-04-11T12:36:35.965Z</time></trkpt><trkpt lat="44.32529663849537" lon="10.10489879102271"><ele>693.0</ele><time>2026-04-11T12:36:36.965Z</time></trkpt><trkpt lat="44.32520316134042" lon="10.104997810160702"><ele>693.0</ele><time>2026-04-11T12:36:37.965Z</time></trkpt><trkpt lat="44.32509548993776" lon="10.105046613321393"><ele>693.0</ele><time>2026-04-11T12:36:38.965Z</time></trkpt><trkpt lat="44.3249439700462" lon="10.105064578209209"><ele>693.0</ele><time>2026-04-11T12:36:39.965Z</time></trkpt><trkpt lat="44.324775392076404" lon="10.105038781385938"><ele>693.0</ele><time>2026-04-11T12:36:40.965Z</time></trkpt><trkpt lat="44.32460896375392" lon="10.105007235560732"><ele>694.0</ele><time>2026-04-11T12:36:41.965Z</time></trkpt><trkpt lat="44.32444902336784" lon="10.10494060479833"><ele>695.0</ele><time>2026-04-11T12:36:42.965Z</time></trkpt><trkpt lat="44.32430249053151" lon="10.10484130514912"><ele>696.0</ele><time>2026-04-11T12:36:43.965Z</time></trkpt><trkpt lat="44.32416466366996" lon="10.104736247865658"><ele>694.3333333333334</ele><time>2026-04-11T12:36:44.965Z</time></trkpt><trkpt lat="44.32402294109019" lon="10.104687039018335"><ele>692.6666666666667</ele><time>2026-04-11T12:36:45.965Z</time></trkpt><trkpt lat="44.32387265941833" lon="10.104679711796772"><ele>691.0</ele><time>2026-04-11T12:36:46.965Z</time></trkpt><trkpt lat="44.323718632504054" lon="10.104614574730642"><ele>691.0</ele><time>2026-04-11T12:36:47.965Z</time></trkpt><trkpt lat="44.32357102684128" lon="10.10447999461341"><ele>691.0</ele><time>2026-04-11T12:36:48.965Z</time></trkpt><trkpt lat="44.32342000774912" lon="10.104339867504168"><ele>691.0</ele><time>2026-04-11T12:36:49.965Z</time></trkpt><trkpt lat="44.32326350639406" lon="10.104207744679059"><ele>692.3333333333334</ele><time>2026-04-11T12:36:50.965Z</time></trkpt><trkpt lat="44.32310743327138" lon="10.10407306303499"><ele>693.6666666666666</ele><time>2026-04-11T12:36:51.965Z</time></trkpt><trkpt lat="44.32294181984758" lon="10.10394328183909"><ele>695.0</ele><time>2026-04-11T12:36:52.965Z</time></trkpt><trkpt lat="44.32279444668397" lon="10.103811520165825"><ele>695.0</ele><time>2026-04-11T12:36:53.965Z</time></trkpt><trkpt lat="44.32267305735281" lon="10.103684074452016"><ele>695.0</ele><time>2026-04-11T12:36:54.965Z</time></trkpt><trkpt lat="44.32257447770203" lon="10.103554262544295"><ele>695.0</ele><time>2026-04-11T12:36:55.965Z</time></trkpt><trkpt lat="44.3224640380156" lon="10.103475621991485"><ele>695.0</ele><time>2026-04-11T12:36:56.965Z</time></trkpt><trkpt lat="44.322334350676336" lon="10.103430670992328"><ele>698.0</ele><time>2026-04-11T12:36:57.965Z</time></trkpt><trkpt lat="44.32220871864654" lon="10.103405309243122"><ele>701.0</ele><time>2026-04-11T12:36:58.965Z</time></trkpt><trkpt lat="44.32207244639733" lon="10.103421467487788"><ele>704.0</ele><time>2026-04-11T12:36:59.965Z</time></trkpt><trkpt lat="44.32191539959101" lon="10.103510064151473"><ele>707.0</ele><time>2026-04-11T12:37:00.965Z</time></trkpt><trkpt lat="44.32173550585245" lon="10.103601583200712"><ele>707.0</ele><time>2026-04-11T12:37:01.965Z</time></trkpt><trkpt lat="44.32155907957926" lon="10.10368950012181"><ele>707.0</ele><time>2026-04-11T12:37:02.965Z</time></trkpt><trkpt lat="44.321387982270124" lon="10.103767074371445"><ele>707.0</ele><time>2026-04-11T12:37:03.965Z</time></trkpt><trkpt lat="44.32124672219018" lon="10.103857645605839"><ele>713.25</ele><time>2026-04-11T12:37:04.965Z</time></trkpt><trkpt lat="44.321121957496125" lon="10.103938139577991"><ele>719.5</ele><time>2026-04-11T12:37:05.965Z</time></trkpt><trkpt lat="44.3210311017969" lon="10.104013885909628"><ele>725.75</ele><time>2026-04-11T12:37:06.965Z</time></trkpt><trkpt lat="44.32087626144927" lon="10.10398826448792"><ele>732.0</ele><time>2026-04-11T12:37:08.965Z</time></trkpt><trkpt lat="44.32080018132409" lon="10.103901425882679"><ele>732.0</ele><time>2026-04-11T12:37:09.965Z</time></trkpt><trkpt lat="44.32077063242001" lon="10.103761154170977"><ele>732.0</ele><time>2026-04-11T12:37:10.965Z</time></trkpt><trkpt lat="44.32077348160345" lon="10.103605601397486"><ele>732.0</ele><time>2026-04-11T12:37:11.965Z</time></trkpt><trkpt lat="44.32080592312959" lon="10.103426263570068"><ele>732.0</ele><time>2026-04-11T12:37:12.965Z</time></trkpt><trkpt lat="44.32082348223365" lon="10.103255137592056"><ele>728.75</ele><time>2026-04-11T12:37:13.965Z</time></trkpt><trkpt lat="44.32081010248492" lon="10.103120372719507"><ele>725.5</ele><time>2026-04-11T12:37:14.965Z</time></trkpt><trkpt lat="44.32073556642186" lon="10.103000800032946"><ele>722.25</ele><time>2026-04-11T12:37:15.965Z</time></trkpt><trkpt lat="44.32062939611873" lon="10.102888329810437"><ele>719.0</ele><time>2026-04-11T12:37:16.965Z</time></trkpt><trkpt lat="44.320498387189154" lon="10.102755756368817"><ele>725.0</ele><time>2026-04-11T12:37:17.966Z</time></trkpt><trkpt lat="44.320397146283234" lon="10.102572766949741"><ele>731.0</ele><time>2026-04-11T12:37:18.966Z</time></trkpt><trkpt lat="44.32032586509738" lon="10.102360445747227"><ele>737.0</ele><time>2026-04-11T12:37:19.966Z</time></trkpt><trkpt lat="44.320276280664636" lon="10.102165458761784"><ele>737.0</ele><time>2026-04-11T12:37:20.966Z</time></trkpt><trkpt lat="44.32024440172236" lon="10.102034511151679"><ele>737.0</ele><time>2026-04-11T12:37:21.966Z</time></trkpt><trkpt lat="44.320209812954936" lon="10.101952666362282"><ele>737.0</ele><time>2026-04-11T12:37:22.966Z</time></trkpt><trkpt lat="44.32014535914932" lon="10.101908513679396"><ele>737.0</ele><time>2026-04-11T12:37:23.966Z</time></trkpt><trkpt lat="44.320083693596835" lon="10.10192691643125"><ele>737.0</ele><time>2026-04-11T12:37:24.966Z</time></trkpt><trkpt lat="44.32004339495965" lon="10.10211077014832"><ele>737.0</ele><time>2026-04-11T12:37:26.966Z</time></trkpt><trkpt lat="44.32005272304286" lon="10.10229911432765"><ele>737.0</ele><time>2026-04-11T12:37:27.966Z</time></trkpt><trkpt lat="44.32013907218735" lon="10.102394923781453"><ele>737.0</ele><time>2026-04-11T12:37:28.966Z</time></trkpt><trkpt lat="44.320232959355415" lon="10.10251049324754"><ele>737.0</ele><time>2026-04-11T12:37:29.966Z</time></trkpt><trkpt lat="44.32032213127381" lon="10.102652826984299"><ele>737.0</ele><time>2026-04-11T12:37:30.966Z</time></trkpt><trkpt lat="44.32040272433946" lon="10.102833369534602"><ele>742.25</ele><time>2026-04-11T12:37:31.966Z</time></trkpt><trkpt lat="44.32046439002017" lon="10.103020556993705"><ele>747.5</ele><time>2026-04-11T12:37:32.966Z</time></trkpt><trkpt lat="44.320513848083415" lon="10.103190364582629"><ele>752.75</ele><time>2026-04-11T12:37:33.966Z</time></trkpt><trkpt lat="44.32052999968215" lon="10.103360126133053"><ele>758.0</ele><time>2026-04-11T12:37:34.966Z</time></trkpt><trkpt lat="44.320514728977415" lon="10.103536633844406"><ele>763.25</ele><time>2026-04-11T12:37:35.966Z</time></trkpt><trkpt lat="44.320477409546015" lon="10.103737863746172"><ele>768.5</ele><time>2026-04-11T12:37:36.966Z</time></trkpt><trkpt lat="44.32042794912345" lon="10.103938087794457"><ele>773.75</ele><time>2026-04-11T12:37:37.966Z</time></trkpt><trkpt lat="44.320385935800616" lon="10.104109402829023"><ele>779.0</ele><time>2026-04-11T12:37:38.966Z</time></trkpt><trkpt lat="44.320363219548895" lon="10.104255968495888"><ele>780.4000000000001</ele><time>2026-04-11T12:37:39.966Z</time></trkpt><trkpt lat="44.320371901054564" lon="10.104390647959313"><ele>781.8</ele><time>2026-04-11T12:37:40.966Z</time></trkpt><trkpt lat="44.32042637632961" lon="10.104491660185104"><ele>783.2</ele><time>2026-04-11T12:37:41.966Z</time></trkpt><trkpt lat="44.32051397517569" lon="10.10454908249131"><ele>784.5999999999999</ele><time>2026-04-11T12:37:42.966Z</time></trkpt><trkpt lat="44.32066517101435" lon="10.104563801313398"><ele>786.0</ele><time>2026-04-11T12:37:43.966Z</time></trkpt><trkpt lat="44.32080976189095" lon="10.104596066410323"><ele>775.25</ele><time>2026-04-11T12:37:44.966Z</time></trkpt><trkpt lat="44.320946297127676" lon="10.104646443189429"><ele>764.5</ele><time>2026-04-11T12:37:45.966Z</time></trkpt><trkpt lat="44.32104669719967" lon="10.10468796085216"><ele>753.75</ele><time>2026-04-11T12:37:46.966Z</time></trkpt><trkpt lat="44.32114607506417" lon="10.104668647961523"><ele>743.0</ele><time>2026-04-11T12:37:47.966Z</time></trkpt><trkpt lat="44.32125316778148" lon="10.1045690152911"><ele>743.0</ele><time>2026-04-11T12:37:48.966Z</time></trkpt><trkpt lat="44.32134256883426" lon="10.104482955773454"><ele>743.0</ele><time>2026-04-11T12:37:49.966Z</time></trkpt><trkpt lat="44.32145382222587" lon="10.104465930965308"><ele>743.0</ele><time>2026-04-11T12:37:50.966Z</time></trkpt><trkpt lat="44.321582989343476" lon="10.104498640229247"><ele>743.0</ele><time>2026-04-11T12:37:51.966Z</time></trkpt><trkpt lat="44.32172296648092" lon="10.104523002607777"><ele>741.75</ele><time>2026-04-11T12:37:52.966Z</time></trkpt><trkpt lat="44.32184424939487" lon="10.104540305541395"><ele>740.5</ele><time>2026-04-11T12:37:53.966Z</time></trkpt><trkpt lat="44.32194952123414" lon="10.10459028009011"><ele>739.25</ele><time>2026-04-11T12:37:54.962Z</time></trkpt><trkpt lat="44.322034886269044" lon="10.10468771579431"><ele>738.0</ele><time>2026-04-11T12:37:55.962Z</time></trkpt><trkpt lat="44.32211202480589" lon="10.104838790909227"><ele>741.6666666666666</ele><time>2026-04-11T12:37:56.962Z</time></trkpt><trkpt lat="44.322175138419894" lon="10.105046383415036"><ele>745.3333333333333</ele><time>2026-04-11T12:37:57.962Z</time></trkpt><trkpt lat="44.32222593416911" lon="10.105260138248013"><ele>749.0</ele><time>2026-04-11T12:37:58.962Z</time></trkpt><trkpt lat="44.322260607288094" lon="10.105498873803691"><ele>749.0</ele><time>2026-04-11T12:37:59.962Z</time></trkpt><trkpt lat="44.32230455141986" lon="10.105720671801866"><ele>749.0</ele><time>2026-04-11T12:38:00.963Z</time></trkpt><trkpt lat="44.32235342616381" lon="10.105932726713183"><ele>749.0</ele><time>2026-04-11T12:38:01.962Z</time></trkpt><trkpt lat="44.32238158460581" lon="10.106157227828493"><ele>754.0</ele><time>2026-04-11T12:38:02.962Z</time></trkpt><trkpt lat="44.32239700628561" lon="10.106396215734918"><ele>759.0</ele><time>2026-04-11T12:38:03.962Z</time></trkpt><trkpt lat="44.32240684556172" lon="10.106643121741266"><ele>764.0</ele><time>2026-04-11T12:38:04.962Z</time></trkpt><trkpt lat="44.32241421256152" lon="10.10689323453397"><ele>768.75</ele><time>2026-04-11T12:38:05.962Z</time></trkpt><trkpt lat="44.32240778587495" lon="10.107110301700917"><ele>773.5</ele><time>2026-04-11T12:38:06.962Z</time></trkpt><trkpt lat="44.32244006533095" lon="10.107279406871196"><ele>778.25</ele><time>2026-04-11T12:38:07.963Z</time></trkpt><trkpt lat="44.32247514545417" lon="10.107398419432755"><ele>783.0</ele><time>2026-04-11T12:38:08.963Z</time></trkpt><trkpt lat="44.32253386311288" lon="10.107482697483968"><ele>783.0</ele><time>2026-04-11T12:38:09.963Z</time></trkpt><trkpt lat="44.322614813865925" lon="10.107512001652122"><ele>783.0</ele><time>2026-04-11T12:38:10.963Z</time></trkpt><trkpt lat="44.322725777842436" lon="10.107460548526676"><ele>783.0</ele><time>2026-04-11T12:38:11.963Z</time></trkpt><trkpt lat="44.32282387990109" lon="10.107364671832581"><ele>783.0</ele><time>2026-04-11T12:38:12.963Z</time></trkpt><trkpt lat="44.32290813763375" lon="10.107236001182955"><ele>783.0</ele><time>2026-04-11T12:38:13.963Z</time></trkpt><trkpt lat="44.32300789702599" lon="10.107135764377606"><ele>776.75</ele><time>2026-04-11T12:38:14.963Z</time></trkpt><trkpt lat="44.32311720405572" lon="10.107101891051597"><ele>770.5</ele><time>2026-04-11T12:38:15.963Z</time></trkpt><trkpt lat="44.323238507541426" lon="10.107165846332329"><ele>764.25</ele><time>2026-04-11T12:38:16.963Z</time></trkpt><trkpt lat="44.32335820635541" lon="10.107273049823167"><ele>758.0</ele><time>2026-04-11T12:38:17.963Z</time></trkpt><trkpt lat="44.32349669991706" lon="10.107367962627492"><ele>769.0</ele><time>2026-04-11T12:38:18.963Z</time></trkpt><trkpt lat="44.32364861084975" lon="10.107415006704546"><ele>780.0</ele><time>2026-04-11T12:38:19.963Z</time></trkpt><trkpt lat="44.323814104654744" lon="10.107441763876407"><ele>791.0</ele><time>2026-04-11T12:38:20.963Z</time></trkpt><trkpt lat="44.323987210575645" lon="10.107436810697196"><ele>782.3333333333334</ele><time>2026-04-11T12:38:21.963Z</time></trkpt><trkpt lat="44.324159213556904" lon="10.107402502216976"><ele>773.6666666666667</ele><time>2026-04-11T12:38:22.963Z</time></trkpt><trkpt lat="44.3243167574862" lon="10.107329305411016"><ele>765.0</ele><time>2026-04-11T12:38:23.963Z</time></trkpt><trkpt lat="44.32447980280064" lon="10.107247324733432"><ele>765.0</ele><time>2026-04-11T12:38:24.963Z</time></trkpt><trkpt lat="44.32463259381461" lon="10.107233059717261"><ele>765.0</ele><time>2026-04-11T12:38:25.963Z</time></trkpt><trkpt lat="44.32478130221203" lon="10.10727245491829"><ele>765.0</ele><time>2026-04-11T12:38:26.963Z</time></trkpt><trkpt lat="44.32490582018108" lon="10.1073613703141"><ele>765.0</ele><time>2026-04-11T12:38:27.963Z</time></trkpt><trkpt lat="44.32500995377207" lon="10.107479180990055"><ele>772.25</ele><time>2026-04-11T12:38:28.963Z</time></trkpt><trkpt lat="44.325094191344924" lon="10.107634276419141"><ele>779.5</ele><time>2026-04-11T12:38:29.963Z</time></trkpt><trkpt lat="44.32516313786826" lon="10.10777840998726"><ele>786.75</ele><time>2026-04-11T12:38:30.963Z</time></trkpt><trkpt lat="44.325227150338854" lon="10.107898709981548"><ele>794.0</ele><time>2026-04-11T12:38:31.963Z</time></trkpt><trkpt lat="44.32527610052777" lon="10.107988379138769"><ele>794.0000000000001</ele><time>2026-04-11T12:38:32.963Z</time></trkpt><trkpt lat="44.32533241671756" lon="10.10807258350189"><ele>794.0</ele><time>2026-04-11T12:38:33.963Z</time></trkpt><trkpt lat="44.325384168076745" lon="10.108170807737833"><ele>794.0</ele><time>2026-04-11T12:38:34.963Z</time></trkpt><trkpt lat="44.325443398124854" lon="10.108262887088733"><ele>794.0</ele><time>2026-04-11T12:38:35.963Z</time></trkpt><trkpt lat="44.325496623574644" lon="10.108344143017913"><ele>794.0000000000001</ele><time>2026-04-11T12:38:36.963Z</time></trkpt><trkpt lat="44.32553019342789" lon="10.108460315102123"><ele>794.0</ele><time>2026-04-11T12:38:38.963Z</time></trkpt><trkpt lat="44.32550534396014" lon="10.10856666415851"><ele>797.8000000000001</ele><time>2026-04-11T12:38:40.963Z</time></trkpt><trkpt lat="44.32542752534864" lon="10.108601893507327"><ele>801.6</ele><time>2026-04-11T12:38:42.963Z</time></trkpt><trkpt lat="44.3253520908966" lon="10.108562432727577"><ele>805.4</ele><time>2026-04-11T12:38:43.963Z</time></trkpt><trkpt lat="44.325294817754745" lon="10.108472156617463"><ele>809.2</ele><time>2026-04-11T12:38:44.963Z</time></trkpt><trkpt lat="44.32522644899337" lon="10.108373182108945"><ele>813.0</ele><time>2026-04-11T12:38:45.963Z</time></trkpt><trkpt lat="44.32514595058973" lon="10.10827834008945"><ele>809.2</ele><time>2026-04-11T12:38:46.963Z</time></trkpt><trkpt lat="44.32507815741283" lon="10.108174812859486"><ele>805.4</ele><time>2026-04-11T12:38:47.963Z</time></trkpt><trkpt lat="44.32500682595214" lon="10.108066046089542"><ele>801.6</ele><time>2026-04-11T12:38:48.963Z</time></trkpt><trkpt lat="44.324925092241095" lon="10.107980789793356"><ele>797.8000000000001</ele><time>2026-04-11T12:38:49.963Z</time></trkpt><trkpt lat="44.32483822526995" lon="10.10791313280441"><ele>794.0</ele><time>2026-04-11T12:38:50.963Z</time></trkpt><trkpt lat="44.324744930459715" lon="10.107864615214684"><ele>793.4000000000001</ele><time>2026-04-11T12:38:51.963Z</time></trkpt><trkpt lat="44.32464672806586" lon="10.107828315856729"><ele>792.8</ele><time>2026-04-11T12:38:52.963Z</time></trkpt><trkpt lat="44.32455041981405" lon="10.107816876090828"><ele>792.2</ele><time>2026-04-11T12:38:53.963Z</time></trkpt><trkpt lat="44.32445006583951" lon="10.107820279073302"><ele>791.5999999999999</ele><time>2026-04-11T12:38:54.963Z</time></trkpt><trkpt lat="44.32435183088649" lon="10.107836019860061"><ele>791.0</ele><time>2026-04-11T12:38:55.963Z</time></trkpt><trkpt lat="44.32426238831883" lon="10.107876255722232"><ele>791.0</ele><time>2026-04-11T12:38:56.963Z</time></trkpt><trkpt lat="44.32416338304653" lon="10.107923389920142"><ele>791.0</ele><time>2026-04-11T12:38:57.963Z</time></trkpt><trkpt lat="44.32406815196489" lon="10.10795275568503"><ele>791.0</ele><time>2026-04-11T12:38:58.963Z</time></trkpt><trkpt lat="44.32397788475205" lon="10.107966991910862"><ele>791.0</ele><time>2026-04-11T12:38:59.963Z</time></trkpt><trkpt lat="44.32388404840528" lon="10.10797336531679"><ele>791.0</ele><time>2026-04-11T12:39:00.963Z</time></trkpt><trkpt lat="44.32379802016843" lon="10.10797353059774"><ele>791.0000000000001</ele><time>2026-04-11T12:39:01.963Z</time></trkpt><trkpt lat="44.32371444973221" lon="10.107966060609993"><ele>791.0</ele><time>2026-04-11T12:39:02.963Z</time></trkpt><trkpt lat="44.32362765400316" lon="10.107957592580727"><ele>791.0</ele><time>2026-04-11T12:39:03.963Z</time></trkpt><trkpt lat="44.32354025813512" lon="10.107951816335733"><ele>791.0</ele><time>2026-04-11T12:39:04.963Z</time></trkpt><trkpt lat="44.32345277175746" lon="10.107947122712208"><ele>791.0000000000001</ele><time>2026-04-11T12:39:05.963Z</time></trkpt><trkpt lat="44.323370749697" lon="10.107939616496889"><ele>791.0</ele><time>2026-04-11T12:39:06.963Z</time></trkpt><trkpt lat="44.32328566176489" lon="10.107929092925415"><ele>791.0</ele><time>2026-04-11T12:39:07.963Z</time></trkpt><trkpt lat="44.32320266168405" lon="10.107918613949881"><ele>791.0</ele><time>2026-04-11T12:39:08.963Z</time></trkpt><trkpt lat="44.323084224051186" lon="10.107930998466038"><ele>791.0</ele><time>2026-04-11T12:39:10.963Z</time></trkpt><trkpt lat="44.32302664206179" lon="10.10800310155677"><ele>791.0</ele><time>2026-04-11T12:39:11.963Z</time></trkpt><trkpt lat="44.323006306692996" lon="10.108103387605212"><ele>791.0</ele><time>2026-04-11T12:39:12.963Z</time></trkpt><trkpt lat="44.32305547331276" lon="10.108245372214606"><ele>791.0000000000001</ele><time>2026-04-11T12:39:14.963Z</time></trkpt><trkpt lat="44.323144252968724" lon="10.108304983903187"><ele>791.0</ele><time>2026-04-11T12:39:16.963Z</time></trkpt><trkpt lat="44.323217900509285" lon="10.108280558637004"><ele>791.0</ele><time>2026-04-11T12:39:17.963Z</time></trkpt><trkpt lat="44.32327740618773" lon="10.108238793412466"><ele>791.0</ele><time>2026-04-11T12:39:18.963Z</time></trkpt><trkpt lat="44.32335039773026" lon="10.108202818936638"><ele>791.0000000000001</ele><time>2026-04-11T12:39:19.963Z</time></trkpt><trkpt lat="44.323422957635344" lon="10.108167699146852"><ele>791.0</ele><time>2026-04-11T12:39:20.963Z</time></trkpt><trkpt lat="44.323500844054315" lon="10.108160437559375"><ele>791.0</ele><time>2026-04-11T12:39:21.963Z</time></trkpt><trkpt lat="44.32358209627783" lon="10.108175278561312"><ele>791.0</ele><time>2026-04-11T12:39:22.963Z</time></trkpt><trkpt lat="44.323668358728916" lon="10.108213292707248"><ele>791.0</ele><time>2026-04-11T12:39:23.963Z</time></trkpt><trkpt lat="44.32374965964766" lon="10.108271104654865"><ele>791.0</ele><time>2026-04-11T12:39:24.963Z</time></trkpt><trkpt lat="44.32383685267445" lon="10.108351054851038"><ele>791.0</ele><time>2026-04-11T12:39:25.964Z</time></trkpt><trkpt lat="44.32395837119998" lon="10.108436105417752"><ele>802.3333333333334</ele><time>2026-04-11T12:39:26.964Z</time></trkpt><trkpt lat="44.324117972985604" lon="10.10852443435153"><ele>813.6666666666667</ele><time>2026-04-11T12:39:27.964Z</time></trkpt><trkpt lat="44.32431068322088" lon="10.108608877436929"><ele>825.0</ele><time>2026-04-11T12:39:28.964Z</time></trkpt><trkpt lat="44.32453765517233" lon="10.108674896168173"><ele>825.0</ele><time>2026-04-11T12:39:29.964Z</time></trkpt><trkpt lat="44.32472935307823" lon="10.108756135723333"><ele>825.0</ele><time>2026-04-11T12:39:30.964Z</time></trkpt><trkpt lat="44.32491896207048" lon="10.10890082196927"><ele>825.0</ele><time>2026-04-11T12:39:31.964Z</time></trkpt><trkpt lat="44.32508095310676" lon="10.10910867440759"><ele>835.0</ele><time>2026-04-11T12:39:32.964Z</time></trkpt><trkpt lat="44.325226353205906" lon="10.109362791808143"><ele>845.0</ele><time>2026-04-11T12:39:33.964Z</time></trkpt><trkpt lat="44.32539253093394" lon="10.109614284527416"><ele>845.0</ele><time>2026-04-11T12:39:34.964Z</time></trkpt><trkpt lat="44.325196322020126" lon="10.109702195871987"><ele>845.0</ele><time>2026-04-11T12:39:35.964Z</time></trkpt><trkpt lat="44.32526312531829" lon="10.109948623455315"><ele>845.0</ele><time>2026-04-11T12:39:36.964Z</time></trkpt><trkpt lat="44.325291787498685" lon="10.110164249618304"><ele>850.25</ele><time>2026-04-11T12:39:37.964Z</time></trkpt><trkpt lat="44.325281749238705" lon="10.110371131568387"><ele>855.5</ele><time>2026-04-11T12:39:38.964Z</time></trkpt><trkpt lat="44.32525144226896" lon="10.110556268937023"><ele>860.75</ele><time>2026-04-11T12:39:39.964Z</time></trkpt><trkpt lat="44.32518494239722" lon="10.1107093607046"><ele>866.0</ele><time>2026-04-11T12:39:40.964Z</time></trkpt><trkpt lat="44.325105452646106" lon="10.110834190246049"><ele>868.1999999999999</ele><time>2026-04-11T12:39:41.964Z</time></trkpt><trkpt lat="44.32506210524632" lon="10.110947511481672"><ele>870.3999999999999</ele><time>2026-04-11T12:39:42.964Z</time></trkpt><trkpt lat="44.3250536944183" lon="10.111067640167606"><ele>872.6</ele><time>2026-04-11T12:39:43.964Z</time></trkpt><trkpt lat="44.32508805044095" lon="10.11117814235263"><ele>874.8</ele><time>2026-04-11T12:39:44.964Z</time></trkpt><trkpt lat="44.325189026812225" lon="10.111241505962765"><ele>877.0</ele><time>2026-04-11T12:39:45.964Z</time></trkpt><trkpt lat="44.325294735485095" lon="10.11122119943105"><ele>877.0</ele><time>2026-04-11T12:39:46.964Z</time></trkpt><trkpt lat="44.3254022937704" lon="10.111162449839737"><ele>877.0</ele><time>2026-04-11T12:39:47.964Z</time></trkpt><trkpt lat="44.325488875501435" lon="10.11108792820127"><ele>877.0</ele><time>2026-04-11T12:39:48.964Z</time></trkpt><trkpt lat="44.32557614731735" lon="10.111004998203507"><ele>877.0</ele><time>2026-04-11T12:39:49.964Z</time></trkpt><trkpt lat="44.32567280736736" lon="10.110947386398063"><ele>877.0</ele><time>2026-04-11T12:39:50.964Z</time></trkpt><trkpt lat="44.32576685440324" lon="10.110903073719488"><ele>875.3333333333333</ele><time>2026-04-11T12:39:51.964Z</time></trkpt><trkpt lat="44.325853102951314" lon="10.11087874360652"><ele>873.6666666666666</ele><time>2026-04-11T12:39:52.964Z</time></trkpt><trkpt lat="44.32593294987968" lon="10.110837657185133"><ele>872.0</ele><time>2026-04-11T12:39:53.964Z</time></trkpt><trkpt lat="44.32600661271409" lon="10.110789243309547"><ele>870.3333333333333</ele><time>2026-04-11T12:39:54.964Z</time></trkpt><trkpt lat="44.32606868815485" lon="10.110709846031709"><ele>868.6666666666666</ele><time>2026-04-11T12:39:55.964Z</time></trkpt><trkpt lat="44.32611677021614" lon="10.110617181917341"><ele>867.0</ele><time>2026-04-11T12:39:56.964Z</time></trkpt><trkpt lat="44.32616835235341" lon="10.110509524808737"><ele>865.8333333333334</ele><time>2026-04-11T12:39:57.964Z</time></trkpt><trkpt lat="44.32621444883276" lon="10.110373138588788"><ele>864.6666666666667</ele><time>2026-04-11T12:39:58.964Z</time></trkpt><trkpt lat="44.326280320685754" lon="10.110299567069422"><ele>863.5</ele><time>2026-04-11T12:39:59.964Z</time></trkpt><trkpt lat="44.32633794270886" lon="10.110225454658732"><ele>862.3333333333334</ele><time>2026-04-11T12:40:00.96Z</time></trkpt><trkpt lat="44.32640476853706" lon="10.110158325847234"><ele>861.1666666666667</ele><time>2026-04-11T12:40:01.96Z</time></trkpt><trkpt lat="44.326479043046355" lon="10.110083423207614"><ele>860.0</ele><time>2026-04-11T12:40:02.96Z</time></trkpt><trkpt lat="44.32657113788023" lon="10.110058355265691"><ele>860.0</ele><time>2026-04-11T12:40:03.961Z</time></trkpt><trkpt lat="44.32666313381992" lon="10.110009571124701"><ele>860.0</ele><time>2026-04-11T12:40:04.961Z</time></trkpt><trkpt lat="44.32678270960154" lon="10.109950462960734"><ele>860.0</ele><time>2026-04-11T12:40:05.961Z</time></trkpt><trkpt lat="44.32693533934188" lon="10.109894408339922"><ele>860.0</ele><time>2026-04-11T12:40:06.961Z</time></trkpt><trkpt lat="44.327124446733315" lon="10.109864416888371"><ele>853.0</ele><time>2026-04-11T12:40:07.961Z</time></trkpt><trkpt lat="44.327312276717656" lon="10.109858137110514"><ele>846.0</ele><time>2026-04-11T12:40:08.961Z</time></trkpt><trkpt lat="44.32748587489764" lon="10.109853390872175"><ele>839.0</ele><time>2026-04-11T12:40:09.96Z</time></trkpt><trkpt lat="44.32765724338708" lon="10.109877568157344"><ele>846.0</ele><time>2026-04-11T12:40:10.96Z</time></trkpt><trkpt lat="44.327813569575994" lon="10.109943592726783"><ele>853.0</ele><time>2026-04-11T12:40:11.96Z</time></trkpt><trkpt lat="44.327964034138404" lon="10.11003312418039"><ele>860.0</ele><time>2026-04-11T12:40:12.961Z</time></trkpt><trkpt lat="44.328102798854886" lon="10.110202645609721"><ele>860.0</ele><time>2026-04-11T12:40:13.961Z</time></trkpt><trkpt lat="44.32823738018843" lon="10.110372696990023"><ele>860.0</ele><time>2026-04-11T12:40:14.961Z</time></trkpt><trkpt lat="44.32838182414408" lon="10.110558542886773"><ele>860.0</ele><time>2026-04-11T12:40:15.961Z</time></trkpt><trkpt lat="44.32854301259957" lon="10.110741348856562"><ele>863.3333333333334</ele><time>2026-04-11T12:40:16.961Z</time></trkpt><trkpt lat="44.32869694761323" lon="10.11091357911399"><ele>866.6666666666667</ele><time>2026-04-11T12:40:17.961Z</time></trkpt><trkpt lat="44.328815263478866" lon="10.111086324656057"><ele>870.0</ele><time>2026-04-11T12:40:18.961Z</time></trkpt><trkpt lat="44.32892045188471" lon="10.111241761956151"><ele>870.0</ele><time>2026-04-11T12:40:19.961Z</time></trkpt><trkpt lat="44.32904425371888" lon="10.11136602525136"><ele>870.0</ele><time>2026-04-11T12:40:20.961Z</time></trkpt><trkpt lat="44.32919088814804" lon="10.111472295781741"><ele>870.0</ele><time>2026-04-11T12:40:21.961Z</time></trkpt><trkpt lat="44.32934618550938" lon="10.111528735706885"><ele>880.0</ele><time>2026-04-11T12:40:22.961Z</time></trkpt><trkpt lat="44.329481226126674" lon="10.111614939507882"><ele>890.0</ele><time>2026-04-11T12:40:23.961Z</time></trkpt><trkpt lat="44.32958678339522" lon="10.111755769613643"><ele>900.0</ele><time>2026-04-11T12:40:24.961Z</time></trkpt><trkpt lat="44.329705503000476" lon="10.111937313550271"><ele>897.3333333333333</ele><time>2026-04-11T12:40:25.961Z</time></trkpt><trkpt lat="44.329803607596304" lon="10.112145615692377"><ele>894.6666666666666</ele><time>2026-04-11T12:40:26.961Z</time></trkpt><trkpt lat="44.32989376957646" lon="10.112367112825432"><ele>892.0</ele><time>2026-04-11T12:40:27.961Z</time></trkpt><trkpt lat="44.32998174317604" lon="10.112562557474462"><ele>892.0</ele><time>2026-04-11T12:40:28.961Z</time></trkpt><trkpt lat="44.33005620123676" lon="10.112706836467023"><ele>892.0</ele><time>2026-04-11T12:40:29.961Z</time></trkpt><trkpt lat="44.33008297993946" lon="10.1128425455696"><ele>892.0</ele><time>2026-04-11T12:40:30.961Z</time></trkpt><trkpt lat="44.33006883594989" lon="10.112950510328217"><ele>892.0</ele><time>2026-04-11T12:40:31.961Z</time></trkpt><trkpt lat="44.330004620822315" lon="10.113044762844293"><ele>892.0</ele><time>2026-04-11T12:40:32.961Z</time></trkpt><trkpt lat="44.32992247413307" lon="10.11304689535355"><ele>892.0</ele><time>2026-04-11T12:40:33.961Z</time></trkpt><trkpt lat="44.3298191359044" lon="10.11296806340476"><ele>892.0</ele><time>2026-04-11T12:40:34.961Z</time></trkpt><trkpt lat="44.32974998383678" lon="10.112831274845165"><ele>892.0</ele><time>2026-04-11T12:40:35.961Z</time></trkpt><trkpt lat="44.32971755601125" lon="10.112677687418529"><ele>892.0</ele><time>2026-04-11T12:40:36.961Z</time></trkpt><trkpt lat="44.32969824320591" lon="10.112505662798402"><ele>894.0</ele><time>2026-04-11T12:40:37.961Z</time></trkpt><trkpt lat="44.32968949363756" lon="10.112329794303802"><ele>896.0</ele><time>2026-04-11T12:40:38.961Z</time></trkpt><trkpt lat="44.32965428156938" lon="10.112173177952323"><ele>898.0</ele><time>2026-04-11T12:40:39.961Z</time></trkpt><trkpt lat="44.32957230378909" lon="10.112038119210123"><ele>900.0</ele><time>2026-04-11T12:40:40.961Z</time></trkpt><trkpt lat="44.32945653115774" lon="10.111949156322087"><ele>900.0</ele><time>2026-04-11T12:40:41.961Z</time></trkpt><trkpt lat="44.32931391670174" lon="10.11191043171412"><ele>900.0</ele><time>2026-04-11T12:40:42.961Z</time></trkpt><trkpt lat="44.32916210950776" lon="10.11190695451357"><ele>900.0</ele><time>2026-04-11T12:40:43.961Z</time></trkpt><trkpt lat="44.32899941696008" lon="10.111910202126662"><ele>907.6666666666667</ele><time>2026-04-11T12:40:44.961Z</time></trkpt><trkpt lat="44.32881640703837" lon="10.111898281364748"><ele>915.3333333333334</ele><time>2026-04-11T12:40:45.961Z</time></trkpt><trkpt lat="44.32862676745992" lon="10.11183778634269"><ele>923.0</ele><time>2026-04-11T12:40:46.961Z</time></trkpt><trkpt lat="44.32845880924938" lon="10.111746238360487"><ele>923.0</ele><time>2026-04-11T12:40:47.961Z</time></trkpt><trkpt lat="44.32829718238478" lon="10.111585650139014"><ele>923.0</ele><time>2026-04-11T12:40:48.961Z</time></trkpt><trkpt lat="44.328129205928576" lon="10.111447951046811"><ele>923.0</ele><time>2026-04-11T12:40:49.961Z</time></trkpt><trkpt lat="44.32796032195835" lon="10.11133972594964"><ele>918.0</ele><time>2026-04-11T12:40:50.961Z</time></trkpt><trkpt lat="44.3277884127473" lon="10.111265893460022"><ele>913.0</ele><time>2026-04-11T12:40:51.961Z</time></trkpt><trkpt lat="44.32763370860064" lon="10.11121540166427"><ele>908.0</ele><time>2026-04-11T12:40:52.961Z</time></trkpt><trkpt lat="44.32747569017203" lon="10.111172675255567"><ele>908.0</ele><time>2026-04-11T12:40:53.961Z</time></trkpt><trkpt lat="44.327298947186726" lon="10.111170444449"><ele>908.0</ele><time>2026-04-11T12:40:54.961Z</time></trkpt><trkpt lat="44.32712754493226" lon="10.111178157430587"><ele>908.0</ele><time>2026-04-11T12:40:55.961Z</time></trkpt><trkpt lat="44.32697327488711" lon="10.111236671193524"><ele>905.5</ele><time>2026-04-11T12:40:56.961Z</time></trkpt><trkpt lat="44.32683192060653" lon="10.111284428903735"><ele>903.0</ele><time>2026-04-11T12:40:57.961Z</time></trkpt><trkpt lat="44.32669665898458" lon="10.11137230119175"><ele>900.5</ele><time>2026-04-11T12:40:58.961Z</time></trkpt><trkpt lat="44.32656918249792" lon="10.111476344990201"><ele>898.0</ele><time>2026-04-11T12:40:59.961Z</time></trkpt><trkpt lat="44.32645081370366" lon="10.11161668400963"><ele>900.75</ele><time>2026-04-11T12:41:00.961Z</time></trkpt><trkpt lat="44.3263550935278" lon="10.111793065966907"><ele>903.5</ele><time>2026-04-11T12:41:01.961Z</time></trkpt><trkpt lat="44.32626762129001" lon="10.111945566940648"><ele>906.25</ele><time>2026-04-11T12:41:02.961Z</time></trkpt><trkpt lat="44.32619171029232" lon="10.112033413691101"><ele>909.0</ele><time>2026-04-11T12:41:03.961Z</time></trkpt><trkpt lat="44.32607875951584" lon="10.112070310484343"><ele>909.0</ele><time>2026-04-11T12:41:04.961Z</time></trkpt><trkpt lat="44.325957645861344" lon="10.112072965589295"><ele>909.0000000000001</ele><time>2026-04-11T12:41:05.961Z</time></trkpt><trkpt lat="44.32585992074834" lon="10.11209160669493"><ele>909.0000000000001</ele><time>2026-04-11T12:41:06.961Z</time></trkpt><trkpt lat="44.325802968735076" lon="10.112155414727583"><ele>909.0</ele><time>2026-04-11T12:41:07.961Z</time></trkpt><trkpt lat="44.32578155322117" lon="10.112271089368098"><ele>909.0</ele><time>2026-04-11T12:41:08.961Z</time></trkpt><trkpt lat="44.32579273897623" lon="10.112390058260539"><ele>909.0</ele><time>2026-04-11T12:41:09.961Z</time></trkpt><trkpt lat="44.3258302508871" lon="10.11246412610438"><ele>909.0000000000001</ele><time>2026-04-11T12:41:10.961Z</time></trkpt><trkpt lat="44.325913967308225" lon="10.112505633717022"><ele>909.0000000000001</ele><time>2026-04-11T12:41:11.961Z</time></trkpt><trkpt lat="44.32600718663229" lon="10.112479448690168"><ele>909.0</ele><time>2026-04-11T12:41:12.961Z</time></trkpt><trkpt lat="44.326109523567375" lon="10.112399920449418"><ele>909.0</ele><time>2026-04-11T12:41:13.961Z</time></trkpt><trkpt lat="44.32623659581567" lon="10.112267378183489"><ele>909.0</ele><time>2026-04-11T12:41:14.961Z</time></trkpt><trkpt lat="44.32637717217022" lon="10.11214833657552"><ele>909.0</ele><time>2026-04-11T12:41:15.961Z</time></trkpt><trkpt lat="44.3265212881288" lon="10.112022049463402"><ele>909.0</ele><time>2026-04-11T12:41:16.961Z</time></trkpt><trkpt lat="44.32665166043137" lon="10.111911280304176"><ele>918.0</ele><time>2026-04-11T12:41:17.961Z</time></trkpt><trkpt lat="44.3267936585284" lon="10.111843954013231"><ele>927.0</ele><time>2026-04-11T12:41:18.961Z</time></trkpt><trkpt lat="44.32694579290616" lon="10.111830581998408"><ele>936.0</ele><time>2026-04-11T12:41:19.961Z</time></trkpt><trkpt lat="44.327118980921654" lon="10.111841928973297"><ele>937.6666666666667</ele><time>2026-04-11T12:41:20.961Z</time></trkpt><trkpt lat="44.32729683074908" lon="10.111892813121354"><ele>939.3333333333334</ele><time>2026-04-11T12:41:21.961Z</time></trkpt><trkpt lat="44.32746785879492" lon="10.111970431860103"><ele>941.0</ele><time>2026-04-11T12:41:22.961Z</time></trkpt><trkpt lat="44.32761699069689" lon="10.112100322862464"><ele>941.0</ele><time>2026-04-11T12:41:23.961Z</time></trkpt><trkpt lat="44.32776208556715" lon="10.112258761603297"><ele>941.0</ele><time>2026-04-11T12:41:24.961Z</time></trkpt><trkpt lat="44.32790749244276" lon="10.112446144468576"><ele>941.0</ele><time>2026-04-11T12:41:25.961Z</time></trkpt><trkpt lat="44.32806301379013" lon="10.112638650445751"><ele>944.6666666666667</ele><time>2026-04-11T12:41:26.961Z</time></trkpt><trkpt lat="44.328223689114886" lon="10.112810092026923"><ele>948.3333333333333</ele><time>2026-04-11T12:41:27.961Z</time></trkpt><trkpt lat="44.32837508266503" lon="10.112954104448693"><ele>952.0</ele><time>2026-04-11T12:41:28.961Z</time></trkpt><trkpt lat="44.328509184739346" lon="10.113091766845441"><ele>961.0</ele><time>2026-04-11T12:41:29.961Z</time></trkpt><trkpt lat="44.32863590281132" lon="10.113275044353728"><ele>970.0</ele><time>2026-04-11T12:41:30.961Z</time></trkpt><trkpt lat="44.328744768963894" lon="10.113503624934761"><ele>979.0</ele><time>2026-04-11T12:41:31.961Z</time></trkpt><trkpt lat="44.32884239372971" lon="10.113737601402347"><ele>979.3333333333333</ele><time>2026-04-11T12:41:32.961Z</time></trkpt><trkpt lat="44.328965189223815" lon="10.113937683892603"><ele>979.6666666666667</ele><time>2026-04-11T12:41:33.961Z</time></trkpt><trkpt lat="44.32910701005244" lon="10.114119491603127"><ele>980.0</ele><time>2026-04-11T12:41:34.961Z</time></trkpt><trkpt lat="44.32927195006102" lon="10.114282754191642"><ele>980.0</ele><time>2026-04-11T12:41:35.961Z</time></trkpt><trkpt lat="44.32943615691511" lon="10.114447216220759"><ele>980.0</ele><time>2026-04-11T12:41:36.961Z</time></trkpt><trkpt lat="44.329592666213784" lon="10.114621691443977"><ele>980.0</ele><time>2026-04-11T12:41:37.961Z</time></trkpt><trkpt lat="44.32970350236792" lon="10.114804064311476"><ele>977.75</ele><time>2026-04-11T12:41:38.961Z</time></trkpt><trkpt lat="44.32977096129767" lon="10.114951149813683"><ele>975.5</ele><time>2026-04-11T12:41:39.961Z</time></trkpt><trkpt lat="44.329796500242566" lon="10.115096917225928"><ele>973.25</ele><time>2026-04-11T12:41:40.961Z</time></trkpt><trkpt lat="44.3297881432774" lon="10.115255837246478"><ele>971.0</ele><time>2026-04-11T12:41:41.961Z</time></trkpt><trkpt lat="44.329781010567615" lon="10.115399980196134"><ele>971.0</ele><time>2026-04-11T12:41:42.961Z</time></trkpt><trkpt lat="44.329804077667625" lon="10.115515335420001"><ele>970.9999999999999</ele><time>2026-04-11T12:41:43.962Z</time></trkpt><trkpt lat="44.32986135407518" lon="10.1155889785456"><ele>970.9999999999999</ele><time>2026-04-11T12:41:44.962Z</time></trkpt><trkpt lat="44.32998199842266" lon="10.11563334868534"><ele>971.0</ele><time>2026-04-11T12:41:45.962Z</time></trkpt><trkpt lat="44.33013945540153" lon="10.115591817327859"><ele>971.0</ele><time>2026-04-11T12:41:46.962Z</time></trkpt><trkpt lat="44.33027701051122" lon="10.115586641204791"><ele>971.0</ele><time>2026-04-11T12:41:47.962Z</time></trkpt><trkpt lat="44.33039937973793" lon="10.115665821410172"><ele>971.0</ele><time>2026-04-11T12:41:48.962Z</time></trkpt><trkpt lat="44.330508984197614" lon="10.115818181921668"><ele>971.0</ele><time>2026-04-11T12:41:49.962Z</time></trkpt><trkpt lat="44.330638439615456" lon="10.116008830437737"><ele>973.6666666666667</ele><time>2026-04-11T12:41:50.962Z</time></trkpt><trkpt lat="44.3307776054594" lon="10.116177093202088"><ele>976.3333333333333</ele><time>2026-04-11T12:41:51.962Z</time></trkpt><trkpt lat="44.330934849351735" lon="10.11634234051341"><ele>979.0</ele><time>2026-04-11T12:41:52.962Z</time></trkpt><trkpt lat="44.33110478825098" lon="10.116506632458384"><ele>982.0</ele><time>2026-04-11T12:41:53.962Z</time></trkpt><trkpt lat="44.33128002748443" lon="10.116648260442025"><ele>985.0</ele><time>2026-04-11T12:41:54.962Z</time></trkpt><trkpt lat="44.33145319834536" lon="10.116765242908816"><ele>988.0</ele><time>2026-04-11T12:41:55.962Z</time></trkpt><trkpt lat="44.33160802009047" lon="10.116868073661703"><ele>988.0</ele><time>2026-04-11T12:41:56.962Z</time></trkpt><trkpt lat="44.33172962722536" lon="10.117003569142133"><ele>988.0</ele><time>2026-04-11T12:41:57.962Z</time></trkpt><trkpt lat="44.33184607647823" lon="10.117169009728489"><ele>988.0</ele><time>2026-04-11T12:41:58.962Z</time></trkpt><trkpt lat="44.33198365836698" lon="10.117309622857977"><ele>988.6666666666666</ele><time>2026-04-11T12:41:59.962Z</time></trkpt><trkpt lat="44.332122027782404" lon="10.11743240430147"><ele>989.3333333333333</ele><time>2026-04-11T12:42:00.962Z</time></trkpt><trkpt lat="44.33223112112863" lon="10.11760460011971"><ele>990.0</ele><time>2026-04-11T12:42:01.962Z</time></trkpt><trkpt lat="44.33231047061571" lon="10.117818524808529"><ele>990.0</ele><time>2026-04-11T12:42:02.962Z</time></trkpt><trkpt lat="44.33240143854981" lon="10.118034941732509"><ele>990.0</ele><time>2026-04-11T12:42:03.962Z</time></trkpt><trkpt lat="44.332511519596004" lon="10.118231695645404"><ele>990.0</ele><time>2026-04-11T12:42:04.962Z</time></trkpt><trkpt lat="44.332652812908975" lon="10.118396202051597"><ele>990.0</ele><time>2026-04-11T12:42:05.962Z</time></trkpt><trkpt lat="44.33281591465775" lon="10.118558016095005"><ele>990.0</ele><time>2026-04-11T12:42:06.959Z</time></trkpt><trkpt lat="44.332983531116625" lon="10.118744738028225"><ele>990.0</ele><time>2026-04-11T12:42:07.958Z</time></trkpt><trkpt lat="44.33313848353587" lon="10.118975696816"><ele>1000.3333333333333</ele><time>2026-04-11T12:42:08.958Z</time></trkpt><trkpt lat="44.333303515017406" lon="10.11918733098742"><ele>1010.6666666666666</ele><time>2026-04-11T12:42:09.959Z</time></trkpt><trkpt lat="44.33346345427509" lon="10.119394144185138"><ele>1021.0</ele><time>2026-04-11T12:42:10.959Z</time></trkpt><trkpt lat="44.33363735142796" lon="10.11959422777042"><ele>1021.0</ele><time>2026-04-11T12:42:11.959Z</time></trkpt><trkpt lat="44.333793227412144" lon="10.119809348302416"><ele>1021.0</ele><time>2026-04-11T12:42:12.959Z</time></trkpt><trkpt lat="44.33394286818152" lon="10.120036124595249"><ele>1021.0</ele><time>2026-04-11T12:42:13.958Z</time></trkpt><trkpt lat="44.33409034064651" lon="10.1202647758891"><ele>1020.3333333333333</ele><time>2026-04-11T12:42:14.958Z</time></trkpt><trkpt lat="44.334217890687775" lon="10.120509891842417"><ele>1019.6666666666667</ele><time>2026-04-11T12:42:15.958Z</time></trkpt><trkpt lat="44.334318649810285" lon="10.12073719678714"><ele>1019.0</ele><time>2026-04-11T12:42:16.959Z</time></trkpt><trkpt lat="44.33439310587611" lon="10.120966674558504"><ele>1027.0</ele><time>2026-04-11T12:42:17.959Z</time></trkpt><trkpt lat="44.33443223326755" lon="10.121206656137211"><ele>1035.0</ele><time>2026-04-11T12:42:18.958Z</time></trkpt><trkpt lat="44.33444910277791" lon="10.121443610599334"><ele>1043.0</ele><time>2026-04-11T12:42:19.959Z</time></trkpt><trkpt lat="44.33448409196393" lon="10.121671263830551"><ele>1036.0</ele><time>2026-04-11T12:42:20.959Z</time></trkpt><trkpt lat="44.334548255450336" lon="10.121877382534727"><ele>1029.0</ele><time>2026-04-11T12:42:21.959Z</time></trkpt><trkpt lat="44.33466196619103" lon="10.122056715217445"><ele>1022.0</ele><time>2026-04-11T12:42:22.959Z</time></trkpt><trkpt lat="44.334791469553615" lon="10.122234524420385"><ele>1029.0</ele><time>2026-04-11T12:42:23.959Z</time></trkpt><trkpt lat="44.334891500271674" lon="10.122419123672717"><ele>1036.0</ele><time>2026-04-11T12:42:24.959Z</time></trkpt><trkpt lat="44.33494720814231" lon="10.122603590117624"><ele>1043.0</ele><time>2026-04-11T12:42:25.959Z</time></trkpt><trkpt lat="44.33497229406153" lon="10.122819270897397"><ele>1043.0</ele><time>2026-04-11T12:42:26.959Z</time></trkpt><trkpt lat="44.33498655741046" lon="10.123059687550317"><ele>1043.0</ele><time>2026-04-11T12:42:27.959Z</time></trkpt><trkpt lat="44.335020761350044" lon="10.123311202201501"><ele>1043.0</ele><time>2026-04-11T12:42:28.959Z</time></trkpt><trkpt lat="44.335060788512884" lon="10.123558332821505"><ele>1048.0</ele><time>2026-04-11T12:42:29.959Z</time></trkpt><trkpt lat="44.335082767136555" lon="10.123814624627215"><ele>1053.0</ele><time>2026-04-11T12:42:30.959Z</time></trkpt><trkpt lat="44.33509193525815" lon="10.124074372947364"><ele>1058.0</ele><time>2026-04-11T12:42:31.959Z</time></trkpt><trkpt lat="44.33509275299269" lon="10.124301013001471"><ele>1059.3333333333335</ele><time>2026-04-11T12:42:32.959Z</time></trkpt><trkpt lat="44.33510659325373" lon="10.124527586680216"><ele>1060.6666666666667</ele><time>2026-04-11T12:42:33.959Z</time></trkpt><trkpt lat="44.335143537982226" lon="10.124743597943691"><ele>1062.0</ele><time>2026-04-11T12:42:34.959Z</time></trkpt><trkpt lat="44.33519629791315" lon="10.124946313051916"><ele>1062.8</ele><time>2026-04-11T12:42:35.959Z</time></trkpt><trkpt lat="44.33523782317672" lon="10.125072202768582"><ele>1063.6</ele><time>2026-04-11T12:42:36.959Z</time></trkpt><trkpt lat="44.33527228294574" lon="10.12518730143001"><ele>1064.3999999999999</ele><time>2026-04-11T12:42:37.959Z</time></trkpt><trkpt lat="44.335314092928215" lon="10.12530744688102"><ele>1065.2</ele><time>2026-04-11T12:42:38.959Z</time></trkpt><trkpt lat="44.335356968942676" lon="10.125427202462825"><ele>1066.0</ele><time>2026-04-11T12:42:39.959Z</time></trkpt><trkpt lat="44.335409829838376" lon="10.12553523473967"><ele>1066.0</ele><time>2026-04-11T12:42:40.959Z</time></trkpt><trkpt lat="44.33545719423378" lon="10.125628009572806"><ele>1066.0</ele><time>2026-04-11T12:42:41.959Z</time></trkpt><trkpt lat="44.33550890240121" lon="10.125710093724198"><ele>1066.0</ele><time>2026-04-11T12:42:42.959Z</time></trkpt><trkpt lat="44.335575025229495" lon="10.125804364825253"><ele>1066.0</ele><time>2026-04-11T12:42:43.959Z</time></trkpt><trkpt lat="44.335631856068716" lon="10.125909235644086"><ele>1066.0</ele><time>2026-04-11T12:42:44.959Z</time></trkpt><trkpt lat="44.3357068434893" lon="10.126010049108618"><ele>1064.25</ele><time>2026-04-11T12:42:45.959Z</time></trkpt><trkpt lat="44.33579886807962" lon="10.126098033928674"><ele>1062.5</ele><time>2026-04-11T12:42:46.959Z</time></trkpt><trkpt lat="44.335919810972264" lon="10.126159305848272"><ele>1060.75</ele><time>2026-04-11T12:42:47.959Z</time></trkpt><trkpt lat="44.33604581068782" lon="10.126206155397536"><ele>1059.0</ele><time>2026-04-11T12:42:48.959Z</time></trkpt><trkpt lat="44.33616456725274" lon="10.126273527099352"><ele>1059.0</ele><time>2026-04-11T12:42:49.959Z</time></trkpt><trkpt lat="44.336255293983065" lon="10.126362903147854"><ele>1059.0</ele><time>2026-04-11T12:42:50.959Z</time></trkpt><trkpt lat="44.33631481158886" lon="10.12647104479435"><ele>1059.0</ele><time>2026-04-11T12:42:51.959Z</time></trkpt><trkpt lat="44.336388528274306" lon="10.1265546182793"><ele>1059.0</ele><time>2026-04-11T12:42:52.959Z</time></trkpt><trkpt lat="44.33648005469186" lon="10.126575514142239"><ele>1059.0</ele><time>2026-04-11T12:42:53.959Z</time></trkpt><trkpt lat="44.336583224666434" lon="10.12654585535971"><ele>1058.25</ele><time>2026-04-11T12:42:54.959Z</time></trkpt><trkpt lat="44.33669285174787" lon="10.12646631176594"><ele>1057.5</ele><time>2026-04-11T12:42:55.959Z</time></trkpt><trkpt lat="44.33682121908964" lon="10.12638407519574"><ele>1056.75</ele><time>2026-04-11T12:42:56.959Z</time></trkpt><trkpt lat="44.33696168743604" lon="10.1263226341828"><ele>1056.0</ele><time>2026-04-11T12:42:57.959Z</time></trkpt><trkpt lat="44.33710114312405" lon="10.126297679763315"><ele>1059.3333333333333</ele><time>2026-04-11T12:42:58.959Z</time></trkpt><trkpt lat="44.33725523227221" lon="10.126307217835095"><ele>1062.6666666666665</ele><time>2026-04-11T12:42:59.959Z</time></trkpt><trkpt lat="44.33741292950724" lon="10.126305284110998"><ele>1066.0</ele><time>2026-04-11T12:43:00.959Z</time></trkpt><trkpt lat="44.33757383202517" lon="10.126289300227027"><ele>1066.0</ele><time>2026-04-11T12:43:01.959Z</time></trkpt><trkpt lat="44.337727198102534" lon="10.126254902785444"><ele>1066.0</ele><time>2026-04-11T12:43:02.959Z</time></trkpt><trkpt lat="44.33785741998033" lon="10.126227887246966"><ele>1066.0</ele><time>2026-04-11T12:43:03.959Z</time></trkpt><trkpt lat="44.33797269957875" lon="10.126219769150937"><ele>1066.0</ele><time>2026-04-11T12:43:04.959Z</time></trkpt><trkpt lat="44.33808461904746" lon="10.1262362893847"><ele>1068.75</ele><time>2026-04-11T12:43:05.959Z</time></trkpt><trkpt lat="44.3381986346699" lon="10.126290940035544"><ele>1071.5</ele><time>2026-04-11T12:43:06.959Z</time></trkpt><trkpt lat="44.338310977416384" lon="10.12637858784022"><ele>1074.25</ele><time>2026-04-11T12:43:07.959Z</time></trkpt><trkpt lat="44.33841815728474" lon="10.12646846748774"><ele>1077.0</ele><time>2026-04-11T12:43:08.959Z</time></trkpt><trkpt lat="44.33851894289063" lon="10.126516533143272"><ele>1077.0</ele><time>2026-04-11T12:43:09.959Z</time></trkpt><trkpt lat="44.33864665213768" lon="10.126499803699758"><ele>1077.0</ele><time>2026-04-11T12:43:10.959Z</time></trkpt><trkpt lat="44.33877331087108" lon="10.12641299127541"><ele>1077.0</ele><time>2026-04-11T12:43:11.959Z</time></trkpt><trkpt lat="44.33891921723365" lon="10.126311790716903"><ele>1077.0</ele><time>2026-04-11T12:43:12.959Z</time></trkpt><trkpt lat="44.339051528077036" lon="10.126240867530242"><ele>1078.6666666666667</ele><time>2026-04-11T12:43:13.959Z</time></trkpt><trkpt lat="44.3391509261179" lon="10.126189337681557"><ele>1080.3333333333333</ele><time>2026-04-11T12:43:14.959Z</time></trkpt><trkpt lat="44.33923294034254" lon="10.126179206931138"><ele>1082.0</ele><time>2026-04-11T12:43:15.959Z</time></trkpt><trkpt lat="44.33930574912807" lon="10.126234105061151"><ele>1083.6666666666665</ele><time>2026-04-11T12:43:16.959Z</time></trkpt><trkpt lat="44.339342282274416" lon="10.126348091439679"><ele>1085.3333333333333</ele><time>2026-04-11T12:43:17.959Z</time></trkpt><trkpt lat="44.33931785644709" lon="10.126466255401212"><ele>1087.0</ele><time>2026-04-11T12:43:18.959Z</time></trkpt><trkpt lat="44.339248823886" lon="10.126543458017846"><ele>1088.1666666666665</ele><time>2026-04-11T12:43:19.959Z</time></trkpt><trkpt lat="44.33915359410339" lon="10.126594264710556"><ele>1089.3333333333333</ele><time>2026-04-11T12:43:20.959Z</time></trkpt><trkpt lat="44.33905194701179" lon="10.126649060810589"><ele>1090.5</ele><time>2026-04-11T12:43:21.959Z</time></trkpt><trkpt lat="44.338972281072735" lon="10.126690915581145"><ele>1091.6666666666667</ele><time>2026-04-11T12:43:22.959Z</time></trkpt><trkpt lat="44.33891199613953" lon="10.126723043972811"><ele>1092.8333333333335</ele><time>2026-04-11T12:43:23.959Z</time></trkpt><trkpt lat="44.33885437905815" lon="10.126806763269718"><ele>1094.0</ele><time>2026-04-11T12:43:25.959Z</time></trkpt><trkpt lat="44.33881551382658" lon="10.126887994967328"><ele>1094.0</ele><time>2026-04-11T12:43:27.959Z</time></trkpt><trkpt lat="44.33876132316808" lon="10.126937697127058"><ele>1094.0</ele><time>2026-04-11T12:43:36.959Z</time></trkpt><trkpt lat="44.33869914535163" lon="10.126918970506347"><ele>1094.0</ele><time>2026-04-11T12:50:52.957Z</time></trkpt><trkpt lat="44.3386231784437" lon="10.126896674920163"><ele>1094.0</ele><time>2026-04-11T12:50:54.957Z</time></trkpt><trkpt lat="44.33852090413092" lon="10.126937087808358"><ele>1094.0</ele><time>2026-04-11T12:50:56.957Z</time></trkpt><trkpt lat="44.33840453431278" lon="10.126970237996328"><ele>1094.0</ele><time>2026-04-11T12:50:58.957Z</time></trkpt><trkpt lat="44.33833802334759" lon="10.126978444806834"><ele>1094.0</ele><time>2026-04-11T12:50:59.957Z</time></trkpt><trkpt lat="44.33826141251261" lon="10.126984439669597"><ele>1094.0</ele><time>2026-04-11T12:51:00.957Z</time></trkpt><trkpt lat="44.33817837212617" lon="10.12698653557486"><ele>1094.0</ele><time>2026-04-11T12:51:01.957Z</time></trkpt><trkpt lat="44.33809484240927" lon="10.126986588514796"><ele>1094.0</ele><time>2026-04-11T12:51:02.957Z</time></trkpt><trkpt lat="44.33801308560831" lon="10.126990992913187"><ele>1094.0</ele><time>2026-04-11T12:51:03.957Z</time></trkpt><trkpt lat="44.337936926594885" lon="10.127031416081783"><ele>1094.0</ele><time>2026-04-11T12:51:04.957Z</time></trkpt><trkpt lat="44.33787822289746" lon="10.12709367715888"><ele>1094.0</ele><time>2026-04-11T12:51:05.958Z</time></trkpt><trkpt lat="44.337853208182395" lon="10.12724299134783"><ele>1094.0</ele><time>2026-04-11T12:51:07.958Z</time></trkpt><trkpt lat="44.33793002305861" lon="10.127377118860638"><ele>1094.0</ele><time>2026-04-11T12:51:09.958Z</time></trkpt><trkpt lat="44.33801993809963" lon="10.127370928365062"><ele>1094.0</ele><time>2026-04-11T12:51:10.958Z</time></trkpt><trkpt lat="44.33810435465371" lon="10.127333356080262"><ele>1094.0</ele><time>2026-04-11T12:51:11.958Z</time></trkpt><trkpt lat="44.338193557704855" lon="10.127269834550484"><ele>1094.0</ele><time>2026-04-11T12:51:12.958Z</time></trkpt><trkpt lat="44.3382771910013" lon="10.127224435010264"><ele>1094.0</ele><time>2026-04-11T12:51:13.958Z</time></trkpt><trkpt lat="44.33837747272307" lon="10.127224600484627"><ele>1094.0</ele><time>2026-04-11T12:51:14.958Z</time></trkpt><trkpt lat="44.33849479865092" lon="10.127255315830988"><ele>1094.0</ele><time>2026-04-11T12:51:15.958Z</time></trkpt><trkpt lat="44.33864684192494" lon="10.127292722081522"><ele>1094.0</ele><time>2026-04-11T12:51:16.958Z</time></trkpt><trkpt lat="44.3388127400945" lon="10.12730481419303"><ele>1094.0</ele><time>2026-04-11T12:51:17.958Z</time></trkpt><trkpt lat="44.3390002168582" lon="10.127294093700185"><ele>1094.0</ele><time>2026-04-11T12:51:18.958Z</time></trkpt><trkpt lat="44.33916911678888" lon="10.127272578636235"><ele>1098.0</ele><time>2026-04-11T12:51:19.958Z</time></trkpt><trkpt lat="44.3393141138533" lon="10.127238736469042"><ele>1102.0</ele><time>2026-04-11T12:51:20.958Z</time></trkpt><trkpt lat="44.339454204096086" lon="10.127161638112797"><ele>1106.0</ele><time>2026-04-11T12:51:21.958Z</time></trkpt><trkpt lat="44.339592050098254" lon="10.12702535267951"><ele>1107.6666666666667</ele><time>2026-04-11T12:51:22.958Z</time></trkpt><trkpt lat="44.33972098323176" lon="10.126853212945989"><ele>1109.3333333333333</ele><time>2026-04-11T12:51:23.958Z</time></trkpt><trkpt lat="44.33984253611073" lon="10.126675971465607"><ele>1111.0</ele><time>2026-04-11T12:51:24.958Z</time></trkpt><trkpt lat="44.339953507621516" lon="10.126507983621302"><ele>1111.0</ele><time>2026-04-11T12:51:25.958Z</time></trkpt><trkpt lat="44.34006670918597" lon="10.126369403327507"><ele>1111.0</ele><time>2026-04-11T12:51:26.958Z</time></trkpt><trkpt lat="44.34017302658409" lon="10.126264720419458"><ele>1111.0</ele><time>2026-04-11T12:51:27.958Z</time></trkpt><trkpt lat="44.34027648104615" lon="10.12618848889259"><ele>1111.0</ele><time>2026-04-11T12:51:28.958Z</time></trkpt><trkpt lat="44.340392821435884" lon="10.126144748934136"><ele>1111.0</ele><time>2026-04-11T12:51:29.958Z</time></trkpt><trkpt lat="44.34052516142764" lon="10.126145163667301"><ele>1111.0</ele><time>2026-04-11T12:51:30.958Z</time></trkpt><trkpt lat="44.34067181218215" lon="10.126189266857702"><ele>1111.0</ele><time>2026-04-11T12:51:31.958Z</time></trkpt><trkpt lat="44.34083870138025" lon="10.126240304190736"><ele>1116.0</ele><time>2026-04-11T12:51:32.958Z</time></trkpt><trkpt lat="44.34101524576523" lon="10.126281989887458"><ele>1121.0</ele><time>2026-04-11T12:51:33.958Z</time></trkpt><trkpt lat="44.34117892354994" lon="10.126332109869399"><ele>1126.0</ele><time>2026-04-11T12:51:34.958Z</time></trkpt><trkpt lat="44.34133580915375" lon="10.126363528924381"><ele>1129.3333333333333</ele><time>2026-04-11T12:51:35.958Z</time></trkpt><trkpt lat="44.34149458476889" lon="10.126367322403373"><ele>1132.6666666666667</ele><time>2026-04-11T12:51:36.958Z</time></trkpt><trkpt lat="44.34165471303574" lon="10.126339746838523"><ele>1136.0</ele><time>2026-04-11T12:51:37.958Z</time></trkpt><trkpt lat="44.34180567083218" lon="10.126295803803892"><ele>1136.0</ele><time>2026-04-11T12:51:38.958Z</time></trkpt><trkpt lat="44.341955013920966" lon="10.126245786160382"><ele>1136.0</ele><time>2026-04-11T12:51:39.958Z</time></trkpt><trkpt lat="44.34209598397526" lon="10.126196709986434"><ele>1136.0</ele><time>2026-04-11T12:51:40.958Z</time></trkpt><trkpt lat="44.3422304392031" lon="10.126153342643846"><ele>1136.0</ele><time>2026-04-11T12:51:41.958Z</time></trkpt><trkpt lat="44.34235712030098" lon="10.126115693005568"><ele>1139.0</ele><time>2026-04-11T12:51:42.958Z</time></trkpt><trkpt lat="44.34247833537634" lon="10.126078105630747"><ele>1142.0</ele><time>2026-04-11T12:51:43.958Z</time></trkpt><trkpt lat="44.34259412265412" lon="10.126029112480534"><ele>1145.0</ele><time>2026-04-11T12:51:44.958Z</time></trkpt><trkpt lat="44.342703081437016" lon="10.125986411218003"><ele>1148.0</ele><time>2026-04-11T12:51:45.958Z</time></trkpt><trkpt lat="44.342791966495035" lon="10.125957568802516"><ele>1148.0</ele><time>2026-04-11T12:51:46.958Z</time></trkpt><trkpt lat="44.34287499129628" lon="10.125927504398764"><ele>1148.0</ele><time>2026-04-11T12:51:47.958Z</time></trkpt><trkpt lat="44.34297520560919" lon="10.12588604296238"><ele>1148.0</ele><time>2026-04-11T12:51:48.958Z</time></trkpt><trkpt lat="44.34307657725885" lon="10.125836991755186"><ele>1148.0</ele><time>2026-04-11T12:51:49.958Z</time></trkpt><trkpt lat="44.343164912314975" lon="10.125756518521612"><ele>1148.0</ele><time>2026-04-11T12:51:50.958Z</time></trkpt><trkpt lat="44.34320798563463" lon="10.125670637015642"><ele>1150.1666666666667</ele><time>2026-04-11T12:51:51.958Z</time></trkpt><trkpt lat="44.34323207864832" lon="10.125528343835237"><ele>1152.3333333333335</ele><time>2026-04-11T12:51:53.958Z</time></trkpt><trkpt lat="44.34327385690749" lon="10.125444455664386"><ele>1154.5</ele><time>2026-04-11T12:51:56.958Z</time></trkpt><trkpt lat="44.34332751823637" lon="10.125384171372138"><ele>1156.6666666666667</ele><time>2026-04-11T12:51:59.958Z</time></trkpt><trkpt lat="44.3433920817304" lon="10.12532215105133"><ele>1158.8333333333333</ele><time>2026-04-11T12:52:10.958Z</time></trkpt><trkpt lat="44.343465930813515" lon="10.125290916835015"><ele>1161.0</ele><time>2026-04-11T12:52:13.958Z</time></trkpt><trkpt lat="44.34357703436482" lon="10.125349836866878"><ele>1161.0</ele><time>2026-04-11T12:52:15.958Z</time></trkpt><trkpt lat="44.34359828785272" lon="10.125454280479397"><ele>1161.0</ele><time>2026-04-11T12:52:16.958Z</time></trkpt><trkpt lat="44.34357644254299" lon="10.12556002595945"><ele>1161.0</ele><time>2026-04-11T12:52:17.958Z</time></trkpt><trkpt lat="44.34353195324716" lon="10.125682336146763"><ele>1161.0</ele><time>2026-04-11T12:52:18.958Z</time></trkpt><trkpt lat="44.34346931703749" lon="10.125826965383716"><ele>1161.0</ele><time>2026-04-11T12:52:19.958Z</time></trkpt><trkpt lat="44.343384396275056" lon="10.125981301663092"><ele>1161.0</ele><time>2026-04-11T12:52:20.958Z</time></trkpt><trkpt lat="44.34326959076423" lon="10.12617195838168"><ele>1161.0</ele><time>2026-04-11T12:52:21.958Z</time></trkpt><trkpt lat="44.34314679021166" lon="10.12638672628934"><ele>1161.0</ele><time>2026-04-11T12:52:22.958Z</time></trkpt><trkpt lat="44.34302558251363" lon="10.126635205958813"><ele>1160.5</ele><time>2026-04-11T12:52:23.958Z</time></trkpt><trkpt lat="44.34289437740222" lon="10.126901782825264"><ele>1160.0</ele><time>2026-04-11T12:52:24.958Z</time></trkpt><trkpt lat="44.34275415474452" lon="10.127155727170669"><ele>1160.0</ele><time>2026-04-11T12:52:25.958Z</time></trkpt><trkpt lat="44.34261741876046" lon="10.127378934510865"><ele>1160.0</ele><time>2026-04-11T12:52:26.958Z</time></trkpt><trkpt lat="44.34248046456174" lon="10.127558215706687"><ele>1160.0</ele><time>2026-04-11T12:52:27.958Z</time></trkpt><trkpt lat="44.34236666346739" lon="10.127669266727306"><ele>1164.25</ele><time>2026-04-11T12:52:28.958Z</time></trkpt><trkpt lat="44.34225048827299" lon="10.127737383907402"><ele>1168.5</ele><time>2026-04-11T12:52:29.958Z</time></trkpt><trkpt lat="44.34212555232216" lon="10.127756485245653"><ele>1172.75</ele><time>2026-04-11T12:52:30.958Z</time></trkpt><trkpt lat="44.34197113797557" lon="10.127714841439191"><ele>1177.0</ele><time>2026-04-11T12:52:31.958Z</time></trkpt><trkpt lat="44.34179886517788" lon="10.127637551858118"><ele>1178.3333333333333</ele><time>2026-04-11T12:52:32.958Z</time></trkpt><trkpt lat="44.34161729502989" lon="10.127562036983514"><ele>1179.6666666666667</ele><time>2026-04-11T12:52:33.958Z</time></trkpt><trkpt lat="44.341447765750175" lon="10.127484751354244"><ele>1181.0</ele><time>2026-04-11T12:52:34.958Z</time></trkpt><trkpt lat="44.34129854905447" lon="10.127409719990395"><ele>1181.75</ele><time>2026-04-11T12:52:35.958Z</time></trkpt><trkpt lat="44.34116954907285" lon="10.127369778125205"><ele>1182.5</ele><time>2026-04-11T12:52:36.957Z</time></trkpt><trkpt lat="44.34105160455852" lon="10.127379833917804"><ele>1183.25</ele><time>2026-04-11T12:52:37.957Z</time></trkpt><trkpt lat="44.340926385380875" lon="10.127437306664312"><ele>1184.0</ele><time>2026-04-11T12:52:38.957Z</time></trkpt><trkpt lat="44.340808217041236" lon="10.127502723389842"><ele>1184.0</ele><time>2026-04-11T12:52:39.957Z</time></trkpt><trkpt lat="44.340691181154064" lon="10.127629846277976"><ele>1184.0</ele><time>2026-04-11T12:52:40.957Z</time></trkpt><trkpt lat="44.340579055819966" lon="10.127777328957249"><ele>1184.0</ele><time>2026-04-11T12:52:41.957Z</time></trkpt><trkpt lat="44.3404758910781" lon="10.127941608213142"><ele>1185.0</ele><time>2026-04-11T12:52:42.956Z</time></trkpt><trkpt lat="44.340399281354294" lon="10.128117968416621"><ele>1186.0</ele><time>2026-04-11T12:52:43.956Z</time></trkpt><trkpt lat="44.34033341380453" lon="10.128293296574242"><ele>1187.0</ele><time>2026-04-11T12:52:44.956Z</time></trkpt><trkpt lat="44.3402694267269" lon="10.128452826217012"><ele>1188.0</ele><time>2026-04-11T12:52:45.957Z</time></trkpt><trkpt lat="44.34025307372091" lon="10.128641569281074"><ele>1188.0</ele><time>2026-04-11T12:52:46.957Z</time></trkpt><trkpt lat="44.34025097543436" lon="10.128853317021282"><ele>1188.0</ele><time>2026-04-11T12:52:47.957Z</time></trkpt><trkpt lat="44.34025304344324" lon="10.12907372869308"><ele>1188.0</ele><time>2026-04-11T12:52:48.956Z</time></trkpt><trkpt lat="44.340262051853756" lon="10.129301115999459"><ele>1190.6666666666667</ele><time>2026-04-11T12:52:49.957Z</time></trkpt><trkpt lat="44.34027200400024" lon="10.129527169677106"><ele>1193.3333333333335</ele><time>2026-04-11T12:52:50.957Z</time></trkpt><trkpt lat="44.3402893964125" lon="10.129755284107034"><ele>1196.0</ele><time>2026-04-11T12:52:51.957Z</time></trkpt><trkpt lat="44.34030642030744" lon="10.129948755895578"><ele>1197.5</ele><time>2026-04-11T12:52:52.957Z</time></trkpt><trkpt lat="44.34032084413494" lon="10.130141329670272"><ele>1199.0</ele><time>2026-04-11T12:52:53.957Z</time></trkpt><trkpt lat="44.34034447885118" lon="10.130310016753777"><ele>1200.5</ele><time>2026-04-11T12:52:54.957Z</time></trkpt><trkpt lat="44.34039560981481" lon="10.130467332798798"><ele>1202.0</ele><time>2026-04-11T12:52:55.957Z</time></trkpt><trkpt lat="44.34047345741426" lon="10.130624369921108"><ele>1205.0</ele><time>2026-04-11T12:52:56.957Z</time></trkpt><trkpt lat="44.340569317074454" lon="10.130798079718351"><ele>1208.0</ele><time>2026-04-11T12:52:57.957Z</time></trkpt><trkpt lat="44.34067524569944" lon="10.130985287090041"><ele>1211.0</ele><time>2026-04-11T12:52:58.957Z</time></trkpt><trkpt lat="44.340777530968275" lon="10.131186438254606"><ele>1211.0</ele><time>2026-04-11T12:52:59.957Z</time></trkpt><trkpt lat="44.3408856435225" lon="10.131366545077544"><ele>1211.0</ele><time>2026-04-11T12:53:00.957Z</time></trkpt><trkpt lat="44.340990676960544" lon="10.13153476154035"><ele>1211.0</ele><time>2026-04-11T12:53:01.957Z</time></trkpt><trkpt lat="44.34107348352785" lon="10.131703380306403"><ele>1208.0</ele><time>2026-04-11T12:53:02.957Z</time></trkpt><trkpt lat="44.34113290307364" lon="10.131875921835315"><ele>1205.0</ele><time>2026-04-11T12:53:03.957Z</time></trkpt><trkpt lat="44.341159135198396" lon="10.132071501443583"><ele>1202.0</ele><time>2026-04-11T12:53:04.957Z</time></trkpt><trkpt lat="44.3411525378378" lon="10.132267881479887"><ele>1199.0</ele><time>2026-04-11T12:53:05.957Z</time></trkpt><trkpt lat="44.341138127455025" lon="10.132467091152991"><ele>1196.25</ele><time>2026-04-11T12:53:06.957Z</time></trkpt><trkpt lat="44.34114085686554" lon="10.132642602646854"><ele>1193.5</ele><time>2026-04-11T12:53:07.957Z</time></trkpt><trkpt lat="44.341177455248584" lon="10.132800262626684"><ele>1190.75</ele><time>2026-04-11T12:53:08.957Z</time></trkpt><trkpt lat="44.34125879535736" lon="10.13295064269434"><ele>1188.0</ele><time>2026-04-11T12:53:09.957Z</time></trkpt><trkpt lat="44.341354162690116" lon="10.133074008971516"><ele>1192.5</ele><time>2026-04-11T12:53:10.957Z</time></trkpt><trkpt lat="44.34147367223975" lon="10.133142743186388"><ele>1197.0</ele><time>2026-04-11T12:53:11.957Z</time></trkpt><trkpt lat="44.34160741912822" lon="10.133164854659931"><ele>1201.5</ele><time>2026-04-11T12:53:12.957Z</time></trkpt><trkpt lat="44.34173841708006" lon="10.133138899875803"><ele>1206.0</ele><time>2026-04-11T12:53:13.957Z</time></trkpt><trkpt lat="44.3418331033809" lon="10.13303825190535"><ele>1206.0</ele><time>2026-04-11T12:53:14.957Z</time></trkpt><trkpt lat="44.34193983223028" lon="10.132917279751322"><ele>1206.0</ele><time>2026-04-11T12:53:15.957Z</time></trkpt><trkpt lat="44.342062259823" lon="10.132769723187009"><ele>1206.0</ele><time>2026-04-11T12:53:16.957Z</time></trkpt><trkpt lat="44.342188083748596" lon="10.132646383984335"><ele>1205.5</ele><time>2026-04-11T12:53:17.957Z</time></trkpt><trkpt lat="44.34231618520176" lon="10.132568945580081"><ele>1205.0</ele><time>2026-04-11T12:53:18.957Z</time></trkpt><trkpt lat="44.342447873107865" lon="10.132534750393537"><ele>1204.5</ele><time>2026-04-11T12:53:19.957Z</time></trkpt><trkpt lat="44.34258580265432" lon="10.132555265003775"><ele>1204.0</ele><time>2026-04-11T12:53:20.957Z</time></trkpt><trkpt lat="44.342682800708204" lon="10.13259353328983"><ele>1204.0</ele><time>2026-04-11T12:53:21.957Z</time></trkpt><trkpt lat="44.342796156921914" lon="10.13265601848855"><ele>1204.0</ele><time>2026-04-11T12:53:22.957Z</time></trkpt><trkpt lat="44.34290786938853" lon="10.1327209077145"><ele>1204.0</ele><time>2026-04-11T12:53:23.957Z</time></trkpt><trkpt lat="44.34301160096506" lon="10.132780749755707"><ele>1204.0</ele><time>2026-04-11T12:53:24.957Z</time></trkpt><trkpt lat="44.34311771483778" lon="10.13283601840552"><ele>1204.2</ele><time>2026-04-11T12:53:25.957Z</time></trkpt><trkpt lat="44.3432189544101" lon="10.132884962307793"><ele>1204.4</ele><time>2026-04-11T12:53:26.957Z</time></trkpt><trkpt lat="44.34332566332623" lon="10.132936624825101"><ele>1204.6</ele><time>2026-04-11T12:53:27.957Z</time></trkpt><trkpt lat="44.343428128145554" lon="10.132984570840668"><ele>1204.8</ele><time>2026-04-11T12:53:28.957Z</time></trkpt><trkpt lat="44.3435264742961" lon="10.13303948610607"><ele>1205.0</ele><time>2026-04-11T12:53:29.957Z</time></trkpt><trkpt lat="44.34363408360664" lon="10.13310012885095"><ele>1205.0</ele><time>2026-04-11T12:53:30.957Z</time></trkpt><trkpt lat="44.34374956965254" lon="10.13315451979807"><ele>1205.0</ele><time>2026-04-11T12:53:31.957Z</time></trkpt><trkpt lat="44.343862746998994" lon="10.133226519622424"><ele>1205.0</ele><time>2026-04-11T12:53:32.957Z</time></trkpt><trkpt lat="44.343978038142765" lon="10.133295274012474"><ele>1205.0</ele><time>2026-04-11T12:53:33.957Z</time></trkpt><trkpt lat="44.34408490765076" lon="10.133364363858501"><ele>1204.25</ele><time>2026-04-11T12:53:34.957Z</time></trkpt><trkpt lat="44.344194369088484" lon="10.13344263937596"><ele>1203.5</ele><time>2026-04-11T12:53:35.957Z</time></trkpt><trkpt lat="44.34429108370219" lon="10.13353697395276"><ele>1202.75</ele><time>2026-04-11T12:53:36.957Z</time></trkpt><trkpt lat="44.34437592300049" lon="10.133653087629611"><ele>1202.0</ele><time>2026-04-11T12:53:37.957Z</time></trkpt><trkpt lat="44.34444310695086" lon="10.133791263271325"><ele>1202.0</ele><time>2026-04-11T12:53:38.957Z</time></trkpt><trkpt lat="44.34449510698492" lon="10.13394078850269"><ele>1202.0</ele><time>2026-04-11T12:53:39.957Z</time></trkpt><trkpt lat="44.34453016916927" lon="10.134102168332479"><ele>1202.0</ele><time>2026-04-11T12:53:40.957Z</time></trkpt><trkpt lat="44.344565507380146" lon="10.134244741735127"><ele>1202.0</ele><time>2026-04-11T12:53:41.957Z</time></trkpt><trkpt lat="44.34462065369242" lon="10.134361600041087"><ele>1202.0</ele><time>2026-04-11T12:53:42.957Z</time></trkpt><trkpt lat="44.34469994713527" lon="10.13444081306844"><ele>1201.6</ele><time>2026-04-11T12:53:43.957Z</time></trkpt><trkpt lat="44.344787127162654" lon="10.13448297644373"><ele>1201.2</ele><time>2026-04-11T12:53:44.957Z</time></trkpt><trkpt lat="44.344873413650035" lon="10.134576236337377"><ele>1200.8</ele><time>2026-04-11T12:53:45.957Z</time></trkpt><trkpt lat="44.344961807296215" lon="10.134561439696096"><ele>1200.4</ele><time>2026-04-11T12:53:46.957Z</time></trkpt><trkpt lat="44.345071217105065" lon="10.134505342501406"><ele>1200.0</ele><time>2026-04-11T12:53:47.957Z</time></trkpt><trkpt lat="44.34517117068788" lon="10.1344426336322"><ele>1200.0</ele><time>2026-04-11T12:53:48.957Z</time></trkpt><trkpt lat="44.34525785326778" lon="10.134410522020994"><ele>1200.0</ele><time>2026-04-11T12:53:49.958Z</time></trkpt><trkpt lat="44.34532974790175" lon="10.134396108451327"><ele>1200.0</ele><time>2026-04-11T12:53:50.958Z</time></trkpt><trkpt lat="44.34541539045451" lon="10.134397106209011"><ele>1200.0</ele><time>2026-04-11T12:53:51.958Z</time></trkpt><trkpt lat="44.345501382335115" lon="10.13443524566658"><ele>1200.0</ele><time>2026-04-11T12:53:52.958Z</time></trkpt><trkpt lat="44.34557263385699" lon="10.134518567386051"><ele>1200.0</ele><time>2026-04-11T12:53:53.958Z</time></trkpt><trkpt lat="44.34565929517827" lon="10.13461026785552"><ele>1199.25</ele><time>2026-04-11T12:53:54.958Z</time></trkpt><trkpt lat="44.34575383122606" lon="10.134708682424737"><ele>1198.5</ele><time>2026-04-11T12:53:55.958Z</time></trkpt><trkpt lat="44.34584468514525" lon="10.13482824603667"><ele>1197.75</ele><time>2026-04-11T12:53:56.958Z</time></trkpt><trkpt lat="44.345933011798714" lon="10.134967542375163"><ele>1197.0</ele><time>2026-04-11T12:53:57.958Z</time></trkpt><trkpt lat="44.346015555196466" lon="10.135116844781564"><ele>1194.5</ele><time>2026-04-11T12:53:58.958Z</time></trkpt><trkpt lat="44.346098988376845" lon="10.135268592650938"><ele>1192.0</ele><time>2026-04-11T12:53:59.958Z</time></trkpt><trkpt lat="44.34618159529722" lon="10.13541327402047"><ele>1189.5</ele><time>2026-04-11T12:54:00.958Z</time></trkpt><trkpt lat="44.34626486609894" lon="10.135548206156672"><ele>1187.0</ele><time>2026-04-11T12:54:01.958Z</time></trkpt><trkpt lat="44.34635063873878" lon="10.135692190707138"><ele>1188.75</ele><time>2026-04-11T12:54:02.958Z</time></trkpt><trkpt lat="44.346422210543906" lon="10.13586444367722"><ele>1190.5</ele><time>2026-04-11T12:54:03.958Z</time></trkpt><trkpt lat="44.34645854457118" lon="10.136064525752285"><ele>1192.25</ele><time>2026-04-11T12:54:04.958Z</time></trkpt><trkpt lat="44.34645832190414" lon="10.136272848511071"><ele>1194.0</ele><time>2026-04-11T12:54:05.958Z</time></trkpt><trkpt lat="44.34644576713148" lon="10.1364753384001"><ele>1191.75</ele><time>2026-04-11T12:54:06.958Z</time></trkpt><trkpt lat="44.34646745584826" lon="10.136676408537216"><ele>1189.5</ele><time>2026-04-11T12:54:07.958Z</time></trkpt><trkpt lat="44.346495301983005" lon="10.136872003264155"><ele>1187.25</ele><time>2026-04-11T12:54:08.958Z</time></trkpt><trkpt lat="44.34659780303307" lon="10.137021006377589"><ele>1185.0</ele><time>2026-04-11T12:54:09.958Z</time></trkpt><trkpt lat="44.3467197514351" lon="10.137148495685125"><ele>1185.0</ele><time>2026-04-11T12:54:10.958Z</time></trkpt><trkpt lat="44.34683298141536" lon="10.13722827120544"><ele>1185.0</ele><time>2026-04-11T12:54:11.958Z</time></trkpt><trkpt lat="44.34691899077831" lon="10.13731352324865"><ele>1185.0</ele><time>2026-04-11T12:54:12.958Z</time></trkpt><trkpt lat="44.34699937289053" lon="10.137387701640254"><ele>1185.0</ele><time>2026-04-11T12:54:13.958Z</time></trkpt><trkpt lat="44.347067612511964" lon="10.137466206903255"><ele>1185.0</ele><time>2026-04-11T12:54:14.958Z</time></trkpt><trkpt lat="44.34712605314446" lon="10.137534274924436"><ele>1184.4</ele><time>2026-04-11T12:54:15.958Z</time></trkpt><trkpt lat="44.34718248983211" lon="10.137594165749963"><ele>1183.8</ele><time>2026-04-11T12:54:16.958Z</time></trkpt><trkpt lat="44.34724358207681" lon="10.137652470854402"><ele>1183.2</ele><time>2026-04-11T12:54:17.958Z</time></trkpt><trkpt lat="44.34733338051434" lon="10.137720228578827"><ele>1182.6</ele><time>2026-04-11T12:54:18.958Z</time></trkpt><trkpt lat="44.34743595826269" lon="10.137787351258861"><ele>1182.0</ele><time>2026-04-11T12:54:19.958Z</time></trkpt><trkpt lat="44.34755720411059" lon="10.13781503157942"><ele>1182.0</ele><time>2026-04-11T12:54:20.958Z</time></trkpt><trkpt lat="44.34768696162886" lon="10.137829404583963"><ele>1182.0</ele><time>2026-04-11T12:54:21.958Z</time></trkpt><trkpt lat="44.3478254673952" lon="10.137801498149111"><ele>1182.0</ele><time>2026-04-11T12:54:22.958Z</time></trkpt><trkpt lat="44.34798395547073" lon="10.137750031835385"><ele>1182.0</ele><time>2026-04-11T12:54:23.958Z</time></trkpt><trkpt lat="44.348166209687214" lon="10.137703610585817"><ele>1179.6666666666667</ele><time>2026-04-11T12:54:24.958Z</time></trkpt><trkpt lat="44.34833396150648" lon="10.137666825843581"><ele>1177.3333333333335</ele><time>2026-04-11T12:54:25.958Z</time></trkpt><trkpt lat="44.34850070840089" lon="10.137635361702419"><ele>1175.0</ele><time>2026-04-11T12:54:26.958Z</time></trkpt><trkpt lat="44.34866388405517" lon="10.137598836359608"><ele>1175.0</ele><time>2026-04-11T12:54:27.958Z</time></trkpt><trkpt lat="44.348816894951625" lon="10.137565357587047"><ele>1175.0</ele><time>2026-04-11T12:54:28.958Z</time></trkpt><trkpt lat="44.348962545759555" lon="10.137533293795064"><ele>1175.0</ele><time>2026-04-11T12:54:29.958Z</time></trkpt><trkpt lat="44.34909866259101" lon="10.137504045963102"><ele>1175.0</ele><time>2026-04-11T12:54:30.958Z</time></trkpt><trkpt lat="44.34922316805708" lon="10.13749407623017"><ele>1174.75</ele><time>2026-04-11T12:54:31.958Z</time></trkpt><trkpt lat="44.34935390199181" lon="10.137501823432315"><ele>1174.5</ele><time>2026-04-11T12:54:32.958Z</time></trkpt><trkpt lat="44.349484451487896" lon="10.137530134903226"><ele>1174.25</ele><time>2026-04-11T12:54:33.958Z</time></trkpt><trkpt lat="44.34962463215129" lon="10.137591018222512"><ele>1174.0</ele><time>2026-04-11T12:54:34.958Z</time></trkpt><trkpt lat="44.34976223376606" lon="10.137666119301976"><ele>1174.0</ele><time>2026-04-11T12:54:35.958Z</time></trkpt><trkpt lat="44.34987825438548" lon="10.137737356075403"><ele>1174.0</ele><time>2026-04-11T12:54:36.958Z</time></trkpt><trkpt lat="44.34998463241967" lon="10.13781140098368"><ele>1174.0</ele><time>2026-04-11T12:54:37.958Z</time></trkpt><trkpt lat="44.35008396888887" lon="10.137866024085838"><ele>1174.0</ele><time>2026-04-11T12:54:38.958Z</time></trkpt><trkpt lat="44.350177498992025" lon="10.137913471487346"><ele>1174.0</ele><time>2026-04-11T12:54:39.958Z</time></trkpt><trkpt lat="44.35027218644523" lon="10.137971852726947"><ele>1174.0</ele><time>2026-04-11T12:54:40.958Z</time></trkpt><trkpt lat="44.350365978172086" lon="10.138044145442858"><ele>1174.0</ele><time>2026-04-11T12:54:41.958Z</time></trkpt><trkpt lat="44.350457556080684" lon="10.138098757961846"><ele>1174.0</ele><time>2026-04-11T12:54:42.955Z</time></trkpt><trkpt lat="44.35054258240842" lon="10.138139934952497"><ele>1174.0</ele><time>2026-04-11T12:54:43.955Z</time></trkpt><trkpt lat="44.35062492945611" lon="10.13819476806277"><ele>1172.6000000000001</ele><time>2026-04-11T12:54:44.955Z</time></trkpt><trkpt lat="44.35072210538473" lon="10.138242492503702"><ele>1171.2</ele><time>2026-04-11T12:54:45.955Z</time></trkpt><trkpt lat="44.350812656703845" lon="10.138287902082412"><ele>1169.8000000000002</ele><time>2026-04-11T12:54:46.955Z</time></trkpt><trkpt lat="44.35090126204203" lon="10.138343400327303"><ele>1168.4</ele><time>2026-04-11T12:54:47.955Z</time></trkpt><trkpt lat="44.350997686174324" lon="10.138415417188535"><ele>1167.0</ele><time>2026-04-11T12:54:48.954Z</time></trkpt><trkpt lat="44.35109063412331" lon="10.138491682218751"><ele>1167.0</ele><time>2026-04-11T12:54:49.955Z</time></trkpt><trkpt lat="44.35117258549938" lon="10.138575780152905"><ele>1167.0</ele><time>2026-04-11T12:54:50.955Z</time></trkpt><trkpt lat="44.35124498965788" lon="10.13867949337827"><ele>1167.0</ele><time>2026-04-11T12:54:51.955Z</time></trkpt><trkpt lat="44.351306961086685" lon="10.138809751490857"><ele>1167.0</ele><time>2026-04-11T12:54:52.955Z</time></trkpt><trkpt lat="44.351357581806" lon="10.138933579418897"><ele>1167.0</ele><time>2026-04-11T12:54:53.955Z</time></trkpt><trkpt lat="44.35139603988719" lon="10.139052069541723"><ele>1168.6666666666667</ele><time>2026-04-11T12:54:54.955Z</time></trkpt><trkpt lat="44.35141566185259" lon="10.13915074585746"><ele>1170.3333333333333</ele><time>2026-04-11T12:54:55.955Z</time></trkpt><trkpt lat="44.351454580555675" lon="10.139255721202447"><ele>1172.0</ele><time>2026-04-11T12:54:56.955Z</time></trkpt><trkpt lat="44.35150126839144" lon="10.139358929186095"><ele>1173.6666666666665</ele><time>2026-04-11T12:54:57.955Z</time></trkpt><trkpt lat="44.35153639713387" lon="10.139455633121464"><ele>1175.3333333333333</ele><time>2026-04-11T12:54:58.955Z</time></trkpt><trkpt lat="44.35159058923268" lon="10.139556312995056"><ele>1177.0</ele><time>2026-04-11T12:54:59.955Z</time></trkpt><trkpt lat="44.351640488748245" lon="10.13966743092913"><ele>1177.0</ele><time>2026-04-11T12:55:00.955Z</time></trkpt><trkpt lat="44.35171274472761" lon="10.139776839447366"><ele>1177.0</ele><time>2026-04-11T12:55:01.955Z</time></trkpt><trkpt lat="44.351795486888385" lon="10.139886538675743"><ele>1177.0</ele><time>2026-04-11T12:55:02.955Z</time></trkpt><trkpt lat="44.351874578476426" lon="10.139996225769387"><ele>1177.0</ele><time>2026-04-11T12:55:03.955Z</time></trkpt><trkpt lat="44.35196128639605" lon="10.140107067389877"><ele>1177.0</ele><time>2026-04-11T12:55:04.955Z</time></trkpt><trkpt lat="44.35205501143756" lon="10.140223853446404"><ele>1178.75</ele><time>2026-04-11T12:55:05.955Z</time></trkpt><trkpt lat="44.35216305882501" lon="10.140336083068854"><ele>1180.5</ele><time>2026-04-11T12:55:06.955Z</time></trkpt><trkpt lat="44.35229320682499" lon="10.140442183993207"><ele>1182.25</ele><time>2026-04-11T12:55:07.955Z</time></trkpt><trkpt lat="44.352436162375064" lon="10.140541255498132"><ele>1184.0</ele><time>2026-04-11T12:55:08.955Z</time></trkpt><trkpt lat="44.35257266585892" lon="10.140627166392353"><ele>1184.0</ele><time>2026-04-11T12:55:09.955Z</time></trkpt><trkpt lat="44.352700697294466" lon="10.140694746982211"><ele>1184.0</ele><time>2026-04-11T12:55:10.955Z</time></trkpt><trkpt lat="44.352832516367826" lon="10.140764819786002"><ele>1184.0</ele><time>2026-04-11T12:55:11.955Z</time></trkpt><trkpt lat="44.35295759999896" lon="10.14083503947114"><ele>1184.0</ele><time>2026-04-11T12:55:12.955Z</time></trkpt><trkpt lat="44.353086534592016" lon="10.14088339101409"><ele>1175.75</ele><time>2026-04-11T12:55:13.955Z</time></trkpt><trkpt lat="44.35322060625737" lon="10.140897981586907"><ele>1167.5</ele><time>2026-04-11T12:55:14.955Z</time></trkpt><trkpt lat="44.3533408573065" lon="10.140897089072164"><ele>1159.25</ele><time>2026-04-11T12:55:15.955Z</time></trkpt><trkpt lat="44.353462174541114" lon="10.140852301453988"><ele>1151.0</ele><time>2026-04-11T12:55:16.955Z</time></trkpt><trkpt lat="44.35357692301805" lon="10.14078570310699"><ele>1150.75</ele><time>2026-04-11T12:55:17.955Z</time></trkpt><trkpt lat="44.3536884004191" lon="10.140706211346748"><ele>1150.5</ele><time>2026-04-11T12:55:18.955Z</time></trkpt><trkpt lat="44.353797659219204" lon="10.140697644859094"><ele>1150.25</ele><time>2026-04-11T12:55:19.955Z</time></trkpt><trkpt lat="44.35390906913496" lon="10.140747068369443"><ele>1150.0</ele><time>2026-04-11T12:55:20.955Z</time></trkpt><trkpt lat="44.354006164746544" lon="10.140862964142643"><ele>1150.0</ele><time>2026-04-11T12:55:21.955Z</time></trkpt><trkpt lat="44.35410022167039" lon="10.14097432058422"><ele>1150.0</ele><time>2026-04-11T12:55:22.955Z</time></trkpt><trkpt lat="44.35419434669532" lon="10.14105198028538"><ele>1150.0</ele><time>2026-04-11T12:55:23.955Z</time></trkpt><trkpt lat="44.35430722347717" lon="10.141086163581704"><ele>1150.0</ele><time>2026-04-11T12:55:24.955Z</time></trkpt><trkpt lat="44.354428161153905" lon="10.141091168707732"><ele>1150.0</ele><time>2026-04-11T12:55:25.955Z</time></trkpt><trkpt lat="44.35455400728862" lon="10.14106834978968"><ele>1150.0</ele><time>2026-04-11T12:55:26.955Z</time></trkpt><trkpt lat="44.35468207080377" lon="10.141030888519625"><ele>1150.0</ele><time>2026-04-11T12:55:27.955Z</time></trkpt><trkpt lat="44.35480866299937" lon="10.140965693216296"><ele>1150.0</ele><time>2026-04-11T12:55:28.955Z</time></trkpt><trkpt lat="44.3549369681819" lon="10.140863576526629"><ele>1148.75</ele><time>2026-04-11T12:55:29.955Z</time></trkpt><trkpt lat="44.35504043772205" lon="10.140791118241909"><ele>1147.5</ele><time>2026-04-11T12:55:30.955Z</time></trkpt><trkpt lat="44.3551352065582" lon="10.140773425025811"><ele>1146.25</ele><time>2026-04-11T12:55:31.955Z</time></trkpt><trkpt lat="44.35528709081464" lon="10.14081471487295"><ele>1145.0</ele><time>2026-04-11T12:55:32.955Z</time></trkpt><trkpt lat="44.35542282765674" lon="10.140885785972772"><ele>1145.0</ele><time>2026-04-11T12:55:33.955Z</time></trkpt><trkpt lat="44.35553410885573" lon="10.140991185393922"><ele>1145.0</ele><time>2026-04-11T12:55:34.955Z</time></trkpt><trkpt lat="44.35564651462963" lon="10.141052476860983"><ele>1145.0</ele><time>2026-04-11T12:55:35.955Z</time></trkpt><trkpt lat="44.355758361240156" lon="10.141084998519547"><ele>1145.0</ele><time>2026-04-11T12:55:36.955Z</time></trkpt><trkpt lat="44.355867255115136" lon="10.141057766215264"><ele>1145.5</ele><time>2026-04-11T12:55:37.955Z</time></trkpt><trkpt lat="44.3559790690617" lon="10.140978607631151"><ele>1146.0</ele><time>2026-04-11T12:55:38.955Z</time></trkpt><trkpt lat="44.35610866227705" lon="10.140877126555182"><ele>1146.5</ele><time>2026-04-11T12:55:39.955Z</time></trkpt><trkpt lat="44.35622235672581" lon="10.14079544508199"><ele>1147.0</ele><time>2026-04-11T12:55:40.955Z</time></trkpt><trkpt lat="44.35636213797183" lon="10.140794818957064"><ele>1146.0</ele><time>2026-04-11T12:55:41.955Z</time></trkpt><trkpt lat="44.35651837883407" lon="10.140849208197233"><ele>1145.0</ele><time>2026-04-11T12:55:42.955Z</time></trkpt><trkpt lat="44.35666292188261" lon="10.14093240867166"><ele>1144.0</ele><time>2026-04-11T12:55:43.955Z</time></trkpt><trkpt lat="44.35679750938988" lon="10.141045367088253"><ele>1144.0</ele><time>2026-04-11T12:55:44.955Z</time></trkpt><trkpt lat="44.356908892230436" lon="10.141212062385737"><ele>1144.0</ele><time>2026-04-11T12:55:45.955Z</time></trkpt><trkpt lat="44.35701305133349" lon="10.141367881546739"><ele>1144.0</ele><time>2026-04-11T12:55:46.955Z</time></trkpt><trkpt lat="44.357113231037474" lon="10.14150788781741"><ele>1138.75</ele><time>2026-04-11T12:55:47.955Z</time></trkpt><trkpt lat="44.357216526833724" lon="10.14162433673911"><ele>1133.5</ele><time>2026-04-11T12:55:48.955Z</time></trkpt><trkpt lat="44.357326427064464" lon="10.141705881317103"><ele>1128.25</ele><time>2026-04-11T12:55:49.955Z</time></trkpt><trkpt lat="44.35743045512086" lon="10.141771798307008"><ele>1123.0</ele><time>2026-04-11T12:55:50.955Z</time></trkpt><trkpt lat="44.357551159150646" lon="10.141777139715327"><ele>1123.0</ele><time>2026-04-11T12:55:51.955Z</time></trkpt><trkpt lat="44.35770312581546" lon="10.141720214427203"><ele>1123.0</ele><time>2026-04-11T12:55:52.955Z</time></trkpt><trkpt lat="44.35787768511668" lon="10.141652130001914"><ele>1123.0</ele><time>2026-04-11T12:55:53.955Z</time></trkpt><trkpt lat="44.35807107698747" lon="10.141610043616526"><ele>1123.0</ele><time>2026-04-11T12:55:54.955Z</time></trkpt><trkpt lat="44.358272507824054" lon="10.141554664178575"><ele>1123.0</ele><time>2026-04-11T12:55:55.955Z</time></trkpt><trkpt lat="44.358497954170254" lon="10.14150202904904"><ele>1123.0</ele><time>2026-04-11T12:55:56.955Z</time></trkpt><trkpt lat="44.35875164299975" lon="10.14146951876744"><ele>1126.0</ele><time>2026-04-11T12:55:57.955Z</time></trkpt><trkpt lat="44.35900505077556" lon="10.141444761199772"><ele>1129.0</ele><time>2026-04-11T12:55:58.955Z</time></trkpt><trkpt lat="44.35925757984085" lon="10.141427702238097"><ele>1129.0</ele><time>2026-04-11T12:55:59.955Z</time></trkpt><trkpt lat="44.35948609885114" lon="10.141412215928177"><ele>1129.0</ele><time>2026-04-11T12:56:00.955Z</time></trkpt><trkpt lat="44.35969433709001" lon="10.141390587675575"><ele>1129.0</ele><time>2026-04-11T12:56:01.955Z</time></trkpt><trkpt lat="44.35986862931424" lon="10.141369669335313"><ele>1130.6666666666665</ele><time>2026-04-11T12:56:02.955Z</time></trkpt><trkpt lat="44.36003447050085" lon="10.14135655500429"><ele>1132.3333333333333</ele><time>2026-04-11T12:56:03.955Z</time></trkpt><trkpt lat="44.36019794383457" lon="10.141380123282245"><ele>1134.0</ele><time>2026-04-11T12:56:04.955Z</time></trkpt><trkpt lat="44.36036886833095" lon="10.141450355544485"><ele>1132.0</ele><time>2026-04-11T12:56:05.955Z</time></trkpt><trkpt lat="44.36052219520223" lon="10.141593724183231"><ele>1130.0</ele><time>2026-04-11T12:56:06.955Z</time></trkpt><trkpt lat="44.36065337578334" lon="10.141799765510324"><ele>1128.0</ele><time>2026-04-11T12:56:07.955Z</time></trkpt><trkpt lat="44.36076725238753" lon="10.142017410726728"><ele>1128.0</ele><time>2026-04-11T12:56:08.955Z</time></trkpt><trkpt lat="44.36087573782141" lon="10.142191883775684"><ele>1128.0</ele><time>2026-04-11T12:56:09.955Z</time></trkpt><trkpt lat="44.36097991797397" lon="10.142313225726259"><ele>1128.0</ele><time>2026-04-11T12:56:10.955Z</time></trkpt><trkpt lat="44.36107222440907" lon="10.142388230691541"><ele>1128.0</ele><time>2026-04-11T12:56:11.955Z</time></trkpt><trkpt lat="44.36118306447518" lon="10.142414318405073"><ele>1128.0</ele><time>2026-04-11T12:56:12.955Z</time></trkpt><trkpt lat="44.361301030162416" lon="10.142360463011213"><ele>1128.0</ele><time>2026-04-11T12:56:13.955Z</time></trkpt><trkpt lat="44.36143498911061" lon="10.142273131261453"><ele>1128.0</ele><time>2026-04-11T12:56:14.955Z</time></trkpt><trkpt lat="44.361580131007074" lon="10.142145819002495"><ele>1128.0</ele><time>2026-04-11T12:56:15.955Z</time></trkpt><trkpt lat="44.361722263460095" lon="10.142061989571816"><ele>1133.3333333333333</ele><time>2026-04-11T12:56:16.955Z</time></trkpt><trkpt lat="44.36185689718457" lon="10.142009792297921"><ele>1138.6666666666665</ele><time>2026-04-11T12:56:17.955Z</time></trkpt><trkpt lat="44.362000172619005" lon="10.141977312342572"><ele>1144.0</ele><time>2026-04-11T12:56:18.955Z</time></trkpt><trkpt lat="44.3621725917539" lon="10.141964507746843"><ele>1137.75</ele><time>2026-04-11T12:56:19.955Z</time></trkpt><trkpt lat="44.362313052549304" lon="10.141942731452781"><ele>1131.5</ele><time>2026-04-11T12:56:20.955Z</time></trkpt><trkpt lat="44.362434335276085" lon="10.141891473187227"><ele>1125.25</ele><time>2026-04-11T12:56:21.955Z</time></trkpt><trkpt lat="44.362549836989956" lon="10.141804563364168"><ele>1119.0</ele><time>2026-04-11T12:56:22.955Z</time></trkpt><trkpt lat="44.36267435724804" lon="10.141696180193144"><ele>1119.0</ele><time>2026-04-11T12:56:23.955Z</time></trkpt><trkpt lat="44.36279490618539" lon="10.14157371671744"><ele>1119.0</ele><time>2026-04-11T12:56:24.955Z</time></trkpt><trkpt lat="44.36290928948343" lon="10.14146857204939"><ele>1119.0</ele><time>2026-04-11T12:56:25.955Z</time></trkpt><trkpt lat="44.363020165819606" lon="10.141370640368844"><ele>1119.0</ele><time>2026-04-11T12:56:26.955Z</time></trkpt><trkpt lat="44.3631153542925" lon="10.141278459317249"><ele>1121.4</ele><time>2026-04-11T12:56:27.956Z</time></trkpt><trkpt lat="44.36319717435656" lon="10.141190498683086"><ele>1123.8000000000002</ele><time>2026-04-11T12:56:28.956Z</time></trkpt><trkpt lat="44.36328133715616" lon="10.14110686991833"><ele>1126.1999999999998</ele><time>2026-04-11T12:56:29.956Z</time></trkpt><trkpt lat="44.36337389212517" lon="10.141048516921325"><ele>1128.6</ele><time>2026-04-11T12:56:30.956Z</time></trkpt><trkpt lat="44.36347758674488" lon="10.141006089037129"><ele>1131.0</ele><time>2026-04-11T12:56:31.956Z</time></trkpt><trkpt lat="44.36359144344454" lon="10.140969524777526"><ele>1131.0</ele><time>2026-04-11T12:56:32.956Z</time></trkpt><trkpt lat="44.36370702397868" lon="10.1409389958923"><ele>1131.0</ele><time>2026-04-11T12:56:33.956Z</time></trkpt><trkpt lat="44.36382643432756" lon="10.14091073338439"><ele>1131.0</ele><time>2026-04-11T12:56:34.956Z</time></trkpt><trkpt lat="44.36394389757716" lon="10.14088627612667"><ele>1131.0</ele><time>2026-04-11T12:56:35.956Z</time></trkpt><trkpt lat="44.364068807154794" lon="10.14084296084616"><ele>1134.0</ele><time>2026-04-11T12:56:36.956Z</time></trkpt><trkpt lat="44.36417835882678" lon="10.140776535518937"><ele>1137.0</ele><time>2026-04-11T12:56:37.956Z</time></trkpt><trkpt lat="44.3642705774217" lon="10.140675781122285"><ele>1140.0</ele><time>2026-04-11T12:56:38.956Z</time></trkpt><trkpt lat="44.36435212529526" lon="10.140573303926566"><ele>1143.0</ele><time>2026-04-11T12:56:39.956Z</time></trkpt><trkpt lat="44.364430138968515" lon="10.140469230514455"><ele>1143.0</ele><time>2026-04-11T12:56:40.956Z</time></trkpt><trkpt lat="44.364495412079954" lon="10.140382138600202"><ele>1143.0</ele><time>2026-04-11T12:56:41.956Z</time></trkpt><trkpt lat="44.36457743403869" lon="10.140312241349339"><ele>1143.0</ele><time>2026-04-11T12:56:42.956Z</time></trkpt><trkpt lat="44.364691418686846" lon="10.14024582618569"><ele>1143.0</ele><time>2026-04-11T12:56:43.956Z</time></trkpt><trkpt lat="44.364795089887366" lon="10.1402014754583"><ele>1143.0</ele><time>2026-04-11T12:56:44.956Z</time></trkpt><trkpt lat="44.364912199251485" lon="10.140176921138398"><ele>1139.5</ele><time>2026-04-11T12:56:45.956Z</time></trkpt><trkpt lat="44.36502966302418" lon="10.1401582989246"><ele>1136.0</ele><time>2026-04-11T12:56:46.956Z</time></trkpt><trkpt lat="44.3651554135144" lon="10.140132698327685"><ele>1132.5</ele><time>2026-04-11T12:56:47.956Z</time></trkpt><trkpt lat="44.36528081835812" lon="10.140116489429886"><ele>1129.0</ele><time>2026-04-11T12:56:48.953Z</time></trkpt><trkpt lat="44.3654065940637" lon="10.140099167990753"><ele>1128.25</ele><time>2026-04-11T12:56:49.953Z</time></trkpt><trkpt lat="44.3655321428957" lon="10.14007637116625"><ele>1127.5</ele><time>2026-04-11T12:56:50.953Z</time></trkpt><trkpt lat="44.36565719005733" lon="10.140041672444777"><ele>1126.75</ele><time>2026-04-11T12:56:51.954Z</time></trkpt><trkpt lat="44.365773892573806" lon="10.139976866944103"><ele>1126.0</ele><time>2026-04-11T12:56:52.954Z</time></trkpt><trkpt lat="44.36588504872124" lon="10.139888121369914"><ele>1130.75</ele><time>2026-04-11T12:56:53.954Z</time></trkpt><trkpt lat="44.36598373747618" lon="10.139780489973305"><ele>1135.5</ele><time>2026-04-11T12:56:54.953Z</time></trkpt><trkpt lat="44.366081289536005" lon="10.139669867797235"><ele>1140.25</ele><time>2026-04-11T12:56:55.953Z</time></trkpt><trkpt lat="44.36617531831664" lon="10.139560708442273"><ele>1145.0</ele><time>2026-04-11T12:56:56.953Z</time></trkpt><trkpt lat="44.36627207929846" lon="10.139455036633308"><ele>1141.75</ele><time>2026-04-11T12:56:57.953Z</time></trkpt><trkpt lat="44.366363630722375" lon="10.139349881366586"><ele>1138.5</ele><time>2026-04-11T12:56:58.953Z</time></trkpt><trkpt lat="44.36645355914571" lon="10.13922917044749"><ele>1135.25</ele><time>2026-04-11T12:56:59.953Z</time></trkpt><trkpt lat="44.36654129759361" lon="10.139084396587645"><ele>1132.0</ele><time>2026-04-11T12:57:00.953Z</time></trkpt><trkpt lat="44.36662183181473" lon="10.138930393374816"><ele>1132.0</ele><time>2026-04-11T12:57:01.953Z</time></trkpt><trkpt lat="44.36670235291788" lon="10.138771183355013"><ele>1132.0</ele><time>2026-04-11T12:57:02.953Z</time></trkpt><trkpt lat="44.36677474093561" lon="10.138613087126535"><ele>1132.0</ele><time>2026-04-11T12:57:03.953Z</time></trkpt><trkpt lat="44.36684125740208" lon="10.138449701338526"><ele>1132.0</ele><time>2026-04-11T12:57:04.953Z</time></trkpt><trkpt lat="44.366906979715885" lon="10.13830046764787"><ele>1135.25</ele><time>2026-04-11T12:57:05.953Z</time></trkpt><trkpt lat="44.36696167870771" lon="10.138142404764281"><ele>1138.5</ele><time>2026-04-11T12:57:06.953Z</time></trkpt><trkpt lat="44.36700085556884" lon="10.137972727928622"><ele>1141.75</ele><time>2026-04-11T12:57:07.953Z</time></trkpt><trkpt lat="44.367027720192134" lon="10.137802384506436"><ele>1145.0</ele><time>2026-04-11T12:57:08.953Z</time></trkpt><trkpt lat="44.36705430617804" lon="10.137623126373006"><ele>1145.0</ele><time>2026-04-11T12:57:09.953Z</time></trkpt><trkpt lat="44.367086831500956" lon="10.137449542704093"><ele>1145.0</ele><time>2026-04-11T12:57:10.953Z</time></trkpt><trkpt lat="44.36712673960613" lon="10.137279606680643"><ele>1145.0</ele><time>2026-04-11T12:57:11.953Z</time></trkpt><trkpt lat="44.36718088274365" lon="10.137111305074816"><ele>1145.0</ele><time>2026-04-11T12:57:12.953Z</time></trkpt><trkpt lat="44.367247634580046" lon="10.136940569893676"><ele>1142.75</ele><time>2026-04-11T12:57:13.953Z</time></trkpt><trkpt lat="44.36731752993569" lon="10.13676737672105"><ele>1140.5</ele><time>2026-04-11T12:57:14.953Z</time></trkpt><trkpt lat="44.36738499868735" lon="10.136597005261576"><ele>1138.25</ele><time>2026-04-11T12:57:15.953Z</time></trkpt><trkpt lat="44.36745599220052" lon="10.136432081166722"><ele>1136.0</ele><time>2026-04-11T12:57:16.953Z</time></trkpt><trkpt lat="44.36752300854699" lon="10.136275359432258"><ele>1136.0</ele><time>2026-04-11T12:57:17.953Z</time></trkpt><trkpt lat="44.367577119869175" lon="10.13612563544601"><ele>1136.0</ele><time>2026-04-11T12:57:18.953Z</time></trkpt><trkpt lat="44.36762459593982" lon="10.135998290644224"><ele>1136.0</ele><time>2026-04-11T12:57:19.953Z</time></trkpt><trkpt lat="44.36768177953621" lon="10.135887915331597"><ele>1136.0</ele><time>2026-04-11T12:57:20.953Z</time></trkpt><trkpt lat="44.36774274098974" lon="10.135792376972912"><ele>1136.0</ele><time>2026-04-11T12:57:21.953Z</time></trkpt><trkpt lat="44.36781892604835" lon="10.135720520749434"><ele>1136.5</ele><time>2026-04-11T12:57:22.953Z</time></trkpt><trkpt lat="44.36790654118963" lon="10.135669578044606"><ele>1137.0</ele><time>2026-04-11T12:57:23.953Z</time></trkpt><trkpt lat="44.36801464315367" lon="10.135656748405053"><ele>1137.5</ele><time>2026-04-11T12:57:24.953Z</time></trkpt><trkpt lat="44.368144213863395" lon="10.135637976374104"><ele>1138.0</ele><time>2026-04-11T12:57:25.953Z</time></trkpt><trkpt lat="44.36828777719895" lon="10.135621258055318"><ele>1138.0</ele><time>2026-04-11T12:57:26.953Z</time></trkpt><trkpt lat="44.368446647922674" lon="10.135603135378398"><ele>1138.0</ele><time>2026-04-11T12:57:27.953Z</time></trkpt><trkpt lat="44.36862348467083" lon="10.135596583522998"><ele>1138.0</ele><time>2026-04-11T12:57:28.953Z</time></trkpt><trkpt lat="44.368823226748184" lon="10.135598567716304"><ele>1138.3333333333333</ele><time>2026-04-11T12:57:29.953Z</time></trkpt><trkpt lat="44.36902534758342" lon="10.135597341045754"><ele>1138.6666666666667</ele><time>2026-04-11T12:57:30.953Z</time></trkpt><trkpt lat="44.369217163677845" lon="10.135590520363007"><ele>1139.0</ele><time>2026-04-11T12:57:31.953Z</time></trkpt><trkpt lat="44.36939041738459" lon="10.135584942595475"><ele>1139.0</ele><time>2026-04-11T12:57:32.953Z</time></trkpt><trkpt lat="44.369540599154384" lon="10.135578393743929"><ele>1139.0</ele><time>2026-04-11T12:57:33.953Z</time></trkpt><trkpt lat="44.369677656039165" lon="10.135570081429194"><ele>1139.0</ele><time>2026-04-11T12:57:34.953Z</time></trkpt><trkpt lat="44.369842490772655" lon="10.135571851571035"><ele>1138.75</ele><time>2026-04-11T12:57:35.953Z</time></trkpt><trkpt lat="44.36995897123519" lon="10.135601118479405"><ele>1138.5</ele><time>2026-04-11T12:57:36.953Z</time></trkpt><trkpt lat="44.3701026704378" lon="10.135681818161144"><ele>1138.25</ele><time>2026-04-11T12:57:37.953Z</time></trkpt><trkpt lat="44.37024125418345" lon="10.13579359914738"><ele>1138.0</ele><time>2026-04-11T12:57:38.953Z</time></trkpt><trkpt lat="44.37036925054498" lon="10.135937606675547"><ele>1138.6666666666665</ele><time>2026-04-11T12:57:39.953Z</time></trkpt><trkpt lat="44.370490091240384" lon="10.13610605896463"><ele>1139.3333333333333</ele><time>2026-04-11T12:57:40.953Z</time></trkpt><trkpt lat="44.37061114524318" lon="10.136272683164236"><ele>1140.0</ele><time>2026-04-11T12:57:41.953Z</time></trkpt><trkpt lat="44.370747218469305" lon="10.136432422391369"><ele>1136.0</ele><time>2026-04-11T12:57:42.953Z</time></trkpt><trkpt lat="44.37088283255109" lon="10.136598441172062"><ele>1132.0</ele><time>2026-04-11T12:57:43.953Z</time></trkpt><trkpt lat="44.37101345160375" lon="10.136746715429021"><ele>1128.0</ele><time>2026-04-11T12:57:44.953Z</time></trkpt><trkpt lat="44.37113854633682" lon="10.136870370421024"><ele>1128.0</ele><time>2026-04-11T12:57:45.953Z</time></trkpt><trkpt lat="44.37126432393696" lon="10.13696725419965"><ele>1128.0</ele><time>2026-04-11T12:57:46.953Z</time></trkpt><trkpt lat="44.3713883127799" lon="10.137027171408274"><ele>1128.0</ele><time>2026-04-11T12:57:47.953Z</time></trkpt><trkpt lat="44.371525987302945" lon="10.13705565951479"><ele>1128.0</ele><time>2026-04-11T12:57:48.953Z</time></trkpt><trkpt lat="44.37166988630226" lon="10.137029823120718"><ele>1130.3333333333333</ele><time>2026-04-11T12:57:49.953Z</time></trkpt><trkpt lat="44.37181154145834" lon="10.136955269787936"><ele>1132.6666666666665</ele><time>2026-04-11T12:57:50.953Z</time></trkpt><trkpt lat="44.371965774499955" lon="10.136836556321454"><ele>1135.0</ele><time>2026-04-11T12:57:51.953Z</time></trkpt><trkpt lat="44.37212838495617" lon="10.136707732342284"><ele>1133.6666666666665</ele><time>2026-04-11T12:57:52.953Z</time></trkpt><trkpt lat="44.37230269389606" lon="10.136577436341865"><ele>1132.3333333333333</ele><time>2026-04-11T12:57:53.953Z</time></trkpt><trkpt lat="44.37248003523053" lon="10.1364562175145"><ele>1131.0</ele><time>2026-04-11T12:57:54.953Z</time></trkpt><trkpt lat="44.372656014880725" lon="10.136333358707256"><ele>1135.3333333333333</ele><time>2026-04-11T12:57:55.953Z</time></trkpt><trkpt lat="44.37282426890427" lon="10.136210894988372"><ele>1139.6666666666665</ele><time>2026-04-11T12:57:56.953Z</time></trkpt><trkpt lat="44.372971101601564" lon="10.13610011961021"><ele>1144.0</ele><time>2026-04-11T12:57:57.953Z</time></trkpt><trkpt lat="44.37309920679076" lon="10.135987004685404"><ele>1144.0</ele><time>2026-04-11T12:57:58.953Z</time></trkpt><trkpt lat="44.373210489098085" lon="10.135926896659132"><ele>1144.0</ele><time>2026-04-11T12:57:59.953Z</time></trkpt><trkpt lat="44.373344948940996" lon="10.135909075808291"><ele>1144.0</ele><time>2026-04-11T12:58:00.953Z</time></trkpt><trkpt lat="44.3735527204971" lon="10.13591198662019"><ele>1144.0</ele><time>2026-04-11T12:58:01.953Z</time></trkpt><trkpt lat="44.37375957289821" lon="10.135879272246154"><ele>1144.0</ele><time>2026-04-11T12:58:02.954Z</time></trkpt><trkpt lat="44.3739110865631" lon="10.135836674940238"><ele>1144.0</ele><time>2026-04-11T12:58:03.954Z</time></trkpt><trkpt lat="44.37406952795089" lon="10.135837480416821"><ele>1143.6666666666665</ele><time>2026-04-11T12:58:04.954Z</time></trkpt><trkpt lat="44.37425095262358" lon="10.135882262336354"><ele>1143.3333333333333</ele><time>2026-04-11T12:58:05.954Z</time></trkpt><trkpt lat="44.37440246031907" lon="10.1360324034395"><ele>1143.0</ele><time>2026-04-11T12:58:06.954Z</time></trkpt><trkpt lat="44.374562535617315" lon="10.136175891121868"><ele>1143.0</ele><time>2026-04-11T12:58:07.954Z</time></trkpt><trkpt lat="44.37468693960303" lon="10.13631729540269"><ele>1143.0</ele><time>2026-04-11T12:58:08.954Z</time></trkpt><trkpt lat="44.374803207123" lon="10.136308213062142"><ele>1143.0</ele><time>2026-04-11T12:58:09.954Z</time></trkpt><trkpt lat="44.37494458699602" lon="10.136208837512234"><ele>1143.0</ele><time>2026-04-11T12:58:10.954Z</time></trkpt><trkpt lat="44.37506812760378" lon="10.136164958292634"><ele>1145.0</ele><time>2026-04-11T12:58:11.954Z</time></trkpt><trkpt lat="44.375194165924825" lon="10.136082381191963"><ele>1147.0</ele><time>2026-04-11T12:58:12.954Z</time></trkpt><trkpt lat="44.37532151740783" lon="10.135992347439036"><ele>1149.0</ele><time>2026-04-11T12:58:13.954Z</time></trkpt><trkpt lat="44.37543083723507" lon="10.1359672056957"><ele>1151.0</ele><time>2026-04-11T12:58:14.954Z</time></trkpt><trkpt lat="44.37550578507695" lon="10.136005434678212"><ele>1141.0</ele><time>2026-04-11T12:58:15.954Z</time></trkpt><trkpt lat="44.37542720606139" lon="10.136622431346618"><ele>1131.0</ele><time>2026-04-11T12:58:16.954Z</time></trkpt><trkpt lat="44.37546812074443" lon="10.136815588871508"><ele>1138.6666666666667</ele><time>2026-04-11T12:58:17.954Z</time></trkpt><trkpt lat="44.37553497650947" lon="10.137004799268666"><ele>1146.3333333333335</ele><time>2026-04-11T12:58:18.954Z</time></trkpt><trkpt lat="44.37561114323478" lon="10.137204296302981"><ele>1154.0</ele><time>2026-04-11T12:58:19.954Z</time></trkpt><trkpt lat="44.37568257090964" lon="10.13739939751261"><ele>1154.0</ele><time>2026-04-11T12:58:20.954Z</time></trkpt><trkpt lat="44.37573326585037" lon="10.137583719516572"><ele>1154.0</ele><time>2026-04-11T12:58:21.954Z</time></trkpt><trkpt lat="44.37576533282241" lon="10.137766923673146"><ele>1154.0</ele><time>2026-04-11T12:58:22.954Z</time></trkpt><trkpt lat="44.37578547860723" lon="10.137939946281815"><ele>1154.0</ele><time>2026-04-11T12:58:23.954Z</time></trkpt><trkpt lat="44.37581670989016" lon="10.138083046047386"><ele>1154.0</ele><time>2026-04-11T12:58:24.954Z</time></trkpt><trkpt lat="44.37589505352049" lon="10.13821180470569"><ele>1154.0</ele><time>2026-04-11T12:58:25.954Z</time></trkpt><trkpt lat="44.376008127624345" lon="10.138309282705555"><ele>1154.0</ele><time>2026-04-11T12:58:26.954Z</time></trkpt><trkpt lat="44.376151547612714" lon="10.138386085494941"><ele>1154.0</ele><time>2026-04-11T12:58:27.954Z</time></trkpt><trkpt lat="44.37631147486646" lon="10.138471985664026"><ele>1157.6666666666667</ele><time>2026-04-11T12:58:28.954Z</time></trkpt><trkpt lat="44.37647267549613" lon="10.138569944057602"><ele>1161.3333333333333</ele><time>2026-04-11T12:58:29.954Z</time></trkpt><trkpt lat="44.376642883564394" lon="10.138668580726796"><ele>1165.0</ele><time>2026-04-11T12:58:30.954Z</time></trkpt><trkpt lat="44.37681016353108" lon="10.138778137062687"><ele>1165.0</ele><time>2026-04-11T12:58:31.954Z</time></trkpt><trkpt lat="44.37696573074247" lon="10.138900018095441"><ele>1165.0</ele><time>2026-04-11T12:58:32.954Z</time></trkpt><trkpt lat="44.37710137920436" lon="10.139018336241852"><ele>1165.0</ele><time>2026-04-11T12:58:33.954Z</time></trkpt><trkpt lat="44.377233907964495" lon="10.139107630007839"><ele>1160.5</ele><time>2026-04-11T12:58:34.954Z</time></trkpt><trkpt lat="44.37736130023411" lon="10.139156623731855"><ele>1156.0</ele><time>2026-04-11T12:58:35.954Z</time></trkpt><trkpt lat="44.37749775808616" lon="10.139172150300814"><ele>1151.5</ele><time>2026-04-11T12:58:36.954Z</time></trkpt><trkpt lat="44.377629897258295" lon="10.139149857818595"><ele>1147.0</ele><time>2026-04-11T12:58:37.954Z</time></trkpt><trkpt lat="44.37775430915466" lon="10.13908834911447"><ele>1146.75</ele><time>2026-04-11T12:58:38.954Z</time></trkpt><trkpt lat="44.37785532442447" lon="10.138927967482495"><ele>1146.5</ele><time>2026-04-11T12:58:39.954Z</time></trkpt><trkpt lat="44.37793812324381" lon="10.138821323639755"><ele>1146.25</ele><time>2026-04-11T12:58:40.954Z</time></trkpt><trkpt lat="44.37801021227614" lon="10.138720012902503"><ele>1146.0</ele><time>2026-04-11T12:58:41.954Z</time></trkpt><trkpt lat="44.378081965080874" lon="10.138602494504942"><ele>1146.0</ele><time>2026-04-11T12:58:42.954Z</time></trkpt><trkpt lat="44.378153327629185" lon="10.138445165485825"><ele>1146.0</ele><time>2026-04-11T12:58:43.954Z</time></trkpt><trkpt lat="44.37819038015947" lon="10.138256266444598"><ele>1146.0</ele><time>2026-04-11T12:58:44.954Z</time></trkpt><trkpt lat="44.378204202964575" lon="10.138043959717628"><ele>1146.0</ele><time>2026-04-11T12:58:45.954Z</time></trkpt><trkpt lat="44.37821833070177" lon="10.137830457342634"><ele>1144.5</ele><time>2026-04-11T12:58:46.954Z</time></trkpt><trkpt lat="44.37823675309736" lon="10.137633150096281"><ele>1143.0</ele><time>2026-04-11T12:58:47.954Z</time></trkpt><trkpt lat="44.378268387630754" lon="10.137455296569122"><ele>1141.5</ele><time>2026-04-11T12:58:48.954Z</time></trkpt><trkpt lat="44.378315795353444" lon="10.137293854373029"><ele>1140.0</ele><time>2026-04-11T12:58:49.954Z</time></trkpt><trkpt lat="44.37840704461523" lon="10.137151183737737"><ele>1138.25</ele><time>2026-04-11T12:58:50.954Z</time></trkpt><trkpt lat="44.378510521156855" lon="10.13703531939394"><ele>1136.5</ele><time>2026-04-11T12:58:51.954Z</time></trkpt><trkpt lat="44.378586185067206" lon="10.136930240509718"><ele>1134.75</ele><time>2026-04-11T12:58:52.954Z</time></trkpt><trkpt lat="44.3786247739449" lon="10.136801920142535"><ele>1133.0</ele><time>2026-04-11T12:58:53.954Z</time></trkpt><trkpt lat="44.378617845799795" lon="10.136641169346236"><ele>1130.5</ele><time>2026-04-11T12:58:54.952Z</time></trkpt><trkpt lat="44.378563178494346" lon="10.136456532405534"><ele>1128.0</ele><time>2026-04-11T12:58:55.952Z</time></trkpt><trkpt lat="44.378495293107" lon="10.136274999224584"><ele>1125.5</ele><time>2026-04-11T12:58:56.952Z</time></trkpt><trkpt lat="44.37842909694945" lon="10.136115550251004"><ele>1123.0</ele><time>2026-04-11T12:58:57.953Z</time></trkpt><trkpt lat="44.37835969311601" lon="10.135977928933482"><ele>1123.0</ele><time>2026-04-11T12:58:58.952Z</time></trkpt><trkpt lat="44.37827888898109" lon="10.13587483695906"><ele>1123.0</ele><time>2026-04-11T12:58:59.952Z</time></trkpt><trkpt lat="44.37817598245805" lon="10.135820041076403"><ele>1123.0</ele><time>2026-04-11T12:59:00.953Z</time></trkpt><trkpt lat="44.3780509419882" lon="10.135800067508278"><ele>1123.0</ele><time>2026-04-11T12:59:01.952Z</time></trkpt><trkpt lat="44.37793772693871" lon="10.135782441706644"><ele>1121.0</ele><time>2026-04-11T12:59:02.952Z</time></trkpt><trkpt lat="44.37783046859875" lon="10.135740117090917"><ele>1119.0</ele><time>2026-04-11T12:59:03.953Z</time></trkpt><trkpt lat="44.37773787329433" lon="10.13563528873738"><ele>1117.0</ele><time>2026-04-11T12:59:04.952Z</time></trkpt><trkpt lat="44.377655420747246" lon="10.135483445908067"><ele>1115.0</ele><time>2026-04-11T12:59:05.952Z</time></trkpt><trkpt lat="44.37756987408872" lon="10.135334918653506"><ele>1115.0</ele><time>2026-04-11T12:59:06.952Z</time></trkpt><trkpt lat="44.37746168630564" lon="10.135207755782305"><ele>1115.0</ele><time>2026-04-11T12:59:07.953Z</time></trkpt><trkpt lat="44.377340288511014" lon="10.1351052159187"><ele>1115.0</ele><time>2026-04-11T12:59:08.953Z</time></trkpt><trkpt lat="44.377212302477126" lon="10.135006968572425"><ele>1115.0</ele><time>2026-04-11T12:59:09.953Z</time></trkpt><trkpt lat="44.37707348738648" lon="10.134885870228281"><ele>1113.0</ele><time>2026-04-11T12:59:10.953Z</time></trkpt><trkpt lat="44.37694146578519" lon="10.134745551612728"><ele>1111.0</ele><time>2026-04-11T12:59:11.953Z</time></trkpt><trkpt lat="44.37682191646426" lon="10.134608476052456"><ele>1109.0</ele><time>2026-04-11T12:59:12.953Z</time></trkpt><trkpt lat="44.37671544123988" lon="10.134468631407158"><ele>1109.0</ele><time>2026-04-11T12:59:13.953Z</time></trkpt><trkpt lat="44.37661572189077" lon="10.13433864384663"><ele>1109.0</ele><time>2026-04-11T12:59:14.953Z</time></trkpt><trkpt lat="44.376530450339175" lon="10.134220246082066"><ele>1109.0</ele><time>2026-04-11T12:59:15.953Z</time></trkpt><trkpt lat="44.37643970171943" lon="10.13411631891217"><ele>1109.0</ele><time>2026-04-11T12:59:16.953Z</time></trkpt><trkpt lat="44.3763229840842" lon="10.134044891081148"><ele>1107.0</ele><time>2026-04-11T12:59:17.953Z</time></trkpt><trkpt lat="44.37618793144946" lon="10.134009497256715"><ele>1105.0</ele><time>2026-04-11T12:59:18.953Z</time></trkpt><trkpt lat="44.37604698661453" lon="10.13393123673563"><ele>1103.0</ele><time>2026-04-11T12:59:19.953Z</time></trkpt><trkpt lat="44.37592552543839" lon="10.133814956442963"><ele>1101.0</ele><time>2026-04-11T12:59:20.953Z</time></trkpt><trkpt lat="44.37582004274188" lon="10.133665636954756"><ele>1101.0</ele><time>2026-04-11T12:59:21.953Z</time></trkpt><trkpt lat="44.37572049816341" lon="10.133542788104275"><ele>1101.0</ele><time>2026-04-11T12:59:22.953Z</time></trkpt><trkpt lat="44.37563240819033" lon="10.13343897927214"><ele>1101.0</ele><time>2026-04-11T12:59:23.953Z</time></trkpt><trkpt lat="44.37556576466508" lon="10.1333134911117"><ele>1101.0</ele><time>2026-04-11T12:59:24.953Z</time></trkpt><trkpt lat="44.37552711586222" lon="10.133156005841274"><ele>1099.5</ele><time>2026-04-11T12:59:25.953Z</time></trkpt><trkpt lat="44.3755216018293" lon="10.132975961840794"><ele>1098.0</ele><time>2026-04-11T12:59:26.953Z</time></trkpt><trkpt lat="44.37554983148688" lon="10.132781756104038"><ele>1096.5</ele><time>2026-04-11T12:59:27.953Z</time></trkpt><trkpt lat="44.37561300922046" lon="10.132585061758833"><ele>1095.0</ele><time>2026-04-11T12:59:28.953Z</time></trkpt><trkpt lat="44.37566163079108" lon="10.132406621483787"><ele>1093.6</ele><time>2026-04-11T12:59:29.953Z</time></trkpt><trkpt lat="44.37568893523363" lon="10.132262087347522"><ele>1092.2</ele><time>2026-04-11T12:59:30.953Z</time></trkpt><trkpt lat="44.375692753140555" lon="10.132154452851504"><ele>1090.8</ele><time>2026-04-11T12:59:31.953Z</time></trkpt><trkpt lat="44.37564508305627" lon="10.132053085658153"><ele>1089.4</ele><time>2026-04-11T12:59:32.953Z</time></trkpt><trkpt lat="44.375566870156476" lon="10.131965278945305"><ele>1088.0</ele><time>2026-04-11T12:59:33.953Z</time></trkpt><trkpt lat="44.37545262214998" lon="10.131906587336044"><ele>1091.0</ele><time>2026-04-11T12:59:34.953Z</time></trkpt><trkpt lat="44.375330731909514" lon="10.131850879973834"><ele>1094.0</ele><time>2026-04-11T12:59:35.953Z</time></trkpt><trkpt lat="44.37521624357242" lon="10.131790392086305"><ele>1097.0</ele><time>2026-04-11T12:59:36.953Z</time></trkpt><trkpt lat="44.37513320006318" lon="10.131731755188053"><ele>1100.0</ele><time>2026-04-11T12:59:37.953Z</time></trkpt><trkpt lat="44.37507542591415" lon="10.13164310043597"><ele>1103.0</ele><time>2026-04-11T12:59:38.953Z</time></trkpt><trkpt lat="44.37504766941865" lon="10.131503061841014"><ele>1105.0</ele><time>2026-04-11T12:59:39.953Z</time></trkpt><trkpt lat="44.37505673368451" lon="10.131377441320952"><ele>1107.0</ele><time>2026-04-11T12:59:40.953Z</time></trkpt><trkpt lat="44.3750906229711" lon="10.131293274449435"><ele>1109.0</ele><time>2026-04-11T12:59:41.953Z</time></trkpt><trkpt lat="44.3751623291763" lon="10.131236880827041"><ele>1111.0</ele><time>2026-04-11T12:59:42.953Z</time></trkpt><trkpt lat="44.37525772854931" lon="10.131190721321502"><ele>1113.0</ele><time>2026-04-11T12:59:43.953Z</time></trkpt><trkpt lat="44.3753676221618" lon="10.131115172974194"><ele>1113.0</ele><time>2026-04-11T12:59:44.953Z</time></trkpt><trkpt lat="44.375492802400856" lon="10.13103966967265"><ele>1113.0</ele><time>2026-04-11T12:59:45.953Z</time></trkpt><trkpt lat="44.3756098628051" lon="10.130985263136314"><ele>1113.0</ele><time>2026-04-11T12:59:46.953Z</time></trkpt><trkpt lat="44.37573716628884" lon="10.13096760389057"><ele>1113.0</ele><time>2026-04-11T12:59:47.953Z</time></trkpt><trkpt lat="44.37585645105027" lon="10.131006683563653"><ele>1113.2</ele><time>2026-04-11T12:59:48.953Z</time></trkpt><trkpt lat="44.37597222811661" lon="10.131019116048927"><ele>1113.4</ele><time>2026-04-11T12:59:49.953Z</time></trkpt><trkpt lat="44.376083209617974" lon="10.130990246964341"><ele>1113.6000000000001</ele><time>2026-04-11T12:59:50.953Z</time></trkpt><trkpt lat="44.37615190947653" lon="10.130918674659723"><ele>1113.8</ele><time>2026-04-11T12:59:51.953Z</time></trkpt><trkpt lat="44.37622639975631" lon="10.13078930851007"><ele>1114.0</ele><time>2026-04-11T12:59:52.953Z</time></trkpt><trkpt lat="44.37629452881923" lon="10.130637873431494"><ele>1108.75</ele><time>2026-04-11T12:59:53.953Z</time></trkpt><trkpt lat="44.376372347818084" lon="10.130473894918829"><ele>1103.5</ele><time>2026-04-11T12:59:54.953Z</time></trkpt><trkpt lat="44.37648892454696" lon="10.130359966221802"><ele>1098.25</ele><time>2026-04-11T12:59:55.953Z</time></trkpt><trkpt lat="44.376640645128134" lon="10.130282909724848"><ele>1093.0</ele><time>2026-04-11T12:59:56.953Z</time></trkpt><trkpt lat="44.37676913225274" lon="10.130223118463942"><ele>1093.0</ele><time>2026-04-11T12:59:57.953Z</time></trkpt><trkpt lat="44.37689795360136" lon="10.130122269609444"><ele>1093.0</ele><time>2026-04-11T12:59:58.953Z</time></trkpt><trkpt lat="44.37698528637972" lon="10.12998960025633"><ele>1093.0</ele><time>2026-04-11T12:59:59.953Z</time></trkpt><trkpt lat="44.377061534953285" lon="10.129815615963558"><ele>1093.0</ele><time>2026-04-11T13:00:00.953Z</time></trkpt><trkpt lat="44.37708883025943" lon="10.129657560214568"><ele>1094.0</ele><time>2026-04-11T13:00:01.953Z</time></trkpt><trkpt lat="44.37711493236222" lon="10.129556988685534"><ele>1095.0</ele><time>2026-04-11T13:00:02.953Z</time></trkpt><trkpt lat="44.37719394419627" lon="10.12951887426011"><ele>1096.0</ele><time>2026-04-11T13:00:03.953Z</time></trkpt><trkpt lat="44.377291938331965" lon="10.129537343628424"><ele>1097.0</ele><time>2026-04-11T13:00:04.953Z</time></trkpt><trkpt lat="44.377415371611065" lon="10.12959089028819"><ele>1098.0</ele><time>2026-04-11T13:00:05.953Z</time></trkpt><trkpt lat="44.377546882501086" lon="10.12964951132278"><ele>1090.6666666666667</ele><time>2026-04-11T13:00:06.953Z</time></trkpt><trkpt lat="44.377693326460886" lon="10.129720563626998"><ele>1083.3333333333335</ele><time>2026-04-11T13:00:07.953Z</time></trkpt><trkpt lat="44.37785355802913" lon="10.129808856280473"><ele>1076.0</ele><time>2026-04-11T13:00:08.953Z</time></trkpt><trkpt lat="44.37799730408387" lon="10.129915856065642"><ele>1073.3333333333335</ele><time>2026-04-11T13:00:09.953Z</time></trkpt><trkpt lat="44.37813390940187" lon="10.130032351250621"><ele>1070.6666666666667</ele><time>2026-04-11T13:00:10.953Z</time></trkpt><trkpt lat="44.37827267606226" lon="10.130121162175383"><ele>1068.0</ele><time>2026-04-11T13:00:11.953Z</time></trkpt><trkpt lat="44.378428030070936" lon="10.130177681794478"><ele>1068.0</ele><time>2026-04-11T13:00:12.953Z</time></trkpt><trkpt lat="44.37860829545149" lon="10.13020535980269"><ele>1068.0</ele><time>2026-04-11T13:00:13.953Z</time></trkpt><trkpt lat="44.37878195003437" lon="10.130236209446439"><ele>1068.0</ele><time>2026-04-11T13:00:14.953Z</time></trkpt><trkpt lat="44.37894707402004" lon="10.130329127678381"><ele>1065.6666666666667</ele><time>2026-04-11T13:00:15.953Z</time></trkpt><trkpt lat="44.37909746711359" lon="10.130423474239922"><ele>1063.3333333333335</ele><time>2026-04-11T13:00:16.953Z</time></trkpt><trkpt lat="44.37924528421561" lon="10.130478633046287"><ele>1061.0</ele><time>2026-04-11T13:00:17.953Z</time></trkpt><trkpt lat="44.37939951760036" lon="10.130525900175929"><ele>1061.0</ele><time>2026-04-11T13:00:18.953Z</time></trkpt><trkpt lat="44.37956367926806" lon="10.130547746622637"><ele>1061.0</ele><time>2026-04-11T13:00:19.953Z</time></trkpt><trkpt lat="44.37968218510016" lon="10.130605901975873"><ele>1061.0</ele><time>2026-04-11T13:00:20.953Z</time></trkpt><trkpt lat="44.37977972893479" lon="10.130661238865612"><ele>1061.0</ele><time>2026-04-11T13:00:21.953Z</time></trkpt><trkpt lat="44.37988459672364" lon="10.130681776650377"><ele>1059.0</ele><time>2026-04-11T13:00:22.953Z</time></trkpt><trkpt lat="44.38000016707089" lon="10.130662142081103"><ele>1057.0</ele><time>2026-04-11T13:00:23.953Z</time></trkpt><trkpt lat="44.38013759382925" lon="10.130589643345093"><ele>1055.0</ele><time>2026-04-11T13:00:24.953Z</time></trkpt><trkpt lat="44.38027219784941" lon="10.130509798145766"><ele>1053.0</ele><time>2026-04-11T13:00:25.954Z</time></trkpt><trkpt lat="44.380437710577056" lon="10.130477278740885"><ele>1051.6666666666667</ele><time>2026-04-11T13:00:26.954Z</time></trkpt><trkpt lat="44.380616940512546" lon="10.130490559130035"><ele>1050.3333333333335</ele><time>2026-04-11T13:00:27.954Z</time></trkpt><trkpt lat="44.380801512700096" lon="10.130536348060845"><ele>1049.0</ele><time>2026-04-11T13:00:28.954Z</time></trkpt><trkpt lat="44.38098217059495" lon="10.130596607483527"><ele>1049.0</ele><time>2026-04-11T13:00:29.954Z</time></trkpt><trkpt lat="44.38116044221392" lon="10.130664379643228"><ele>1049.0</ele><time>2026-04-11T13:00:30.954Z</time></trkpt><trkpt lat="44.38132664245138" lon="10.130743791780771"><ele>1049.0</ele><time>2026-04-11T13:00:31.954Z</time></trkpt><trkpt lat="44.381482057254615" lon="10.13082295846628"><ele>1047.75</ele><time>2026-04-11T13:00:32.954Z</time></trkpt><trkpt lat="44.38161610273719" lon="10.130884921658987"><ele>1046.5</ele><time>2026-04-11T13:00:33.954Z</time></trkpt><trkpt lat="44.3817394567795" lon="10.130925161508767"><ele>1045.25</ele><time>2026-04-11T13:00:34.954Z</time></trkpt><trkpt lat="44.38187014305671" lon="10.130924025423608"><ele>1044.0</ele><time>2026-04-11T13:00:35.954Z</time></trkpt><trkpt lat="44.38200739276563" lon="10.130861715117529"><ele>1044.0</ele><time>2026-04-11T13:00:36.954Z</time></trkpt><trkpt lat="44.38215671308444" lon="10.130767870868915"><ele>1044.0</ele><time>2026-04-11T13:00:37.954Z</time></trkpt><trkpt lat="44.38230618075237" lon="10.130668411056027"><ele>1044.0</ele><time>2026-04-11T13:00:38.954Z</time></trkpt><trkpt lat="44.38246635090747" lon="10.13055439261624"><ele>1043.6666666666667</ele><time>2026-04-11T13:00:39.954Z</time></trkpt><trkpt lat="44.3826345046356" lon="10.130459619173115"><ele>1043.3333333333335</ele><time>2026-04-11T13:00:40.954Z</time></trkpt><trkpt lat="44.38279490106049" lon="10.130369366218716"><ele>1043.0</ele><time>2026-04-11T13:00:41.954Z</time></trkpt><trkpt lat="44.382950784135765" lon="10.130286600218518"><ele>1041.6666666666667</ele><time>2026-04-11T13:00:42.954Z</time></trkpt><trkpt lat="44.38310457500859" lon="10.130189126585659"><ele>1040.3333333333333</ele><time>2026-04-11T13:00:43.954Z</time></trkpt><trkpt lat="44.38325746308752" lon="10.130100578226264"><ele>1039.0</ele><time>2026-04-11T13:00:44.954Z</time></trkpt><trkpt lat="44.38340538853772" lon="10.130016857665042"><ele>1039.0</ele><time>2026-04-11T13:00:45.954Z</time></trkpt><trkpt lat="44.38354661063933" lon="10.129932392179112"><ele>1039.0</ele><time>2026-04-11T13:00:46.954Z</time></trkpt><trkpt lat="44.383679573214344" lon="10.129844810510583"><ele>1039.0</ele><time>2026-04-11T13:00:47.954Z</time></trkpt><trkpt lat="44.38380752145317" lon="10.12973529910883"><ele>1037.0</ele><time>2026-04-11T13:00:48.954Z</time></trkpt><trkpt lat="44.383923170147696" lon="10.129592004893574"><ele>1035.0</ele><time>2026-04-11T13:00:49.954Z</time></trkpt><trkpt lat="44.38402841223614" lon="10.129416914447352"><ele>1033.0</ele><time>2026-04-11T13:00:50.954Z</time></trkpt><trkpt lat="44.38412933632391" lon="10.12925053447303"><ele>1033.0</ele><time>2026-04-11T13:00:51.954Z</time></trkpt><trkpt lat="44.3841988342837" lon="10.129107798795332"><ele>1033.0</ele><time>2026-04-11T13:00:52.954Z</time></trkpt><trkpt lat="44.38426097419423" lon="10.128986874644772"><ele>1033.0</ele><time>2026-04-11T13:00:53.954Z</time></trkpt><trkpt lat="44.38431965260339" lon="10.128898350099131"><ele>1033.0</ele><time>2026-04-11T13:00:54.954Z</time></trkpt><trkpt lat="44.38437299727207" lon="10.128836698777217"><ele>1033.0</ele><time>2026-04-11T13:00:55.954Z</time></trkpt><trkpt lat="44.38445907657196" lon="10.128825266815658"><ele>1033.0</ele><time>2026-04-11T13:00:57.954Z</time></trkpt><trkpt lat="44.38449308664972" lon="10.128900884266086"><ele>1033.0</ele><time>2026-04-11T13:00:58.954Z</time></trkpt><trkpt lat="44.38448297733211" lon="10.129007764726222"><ele>1033.0</ele><time>2026-04-11T13:00:59.954Z</time></trkpt><trkpt lat="44.38442284721475" lon="10.129096095355493"><ele>1033.0</ele><time>2026-04-11T13:01:00.952Z</time></trkpt><trkpt lat="44.38435376728874" lon="10.129178080716542"><ele>1033.0</ele><time>2026-04-11T13:01:01.953Z</time></trkpt><trkpt lat="44.38426489180004" lon="10.129289351441232"><ele>1033.0</ele><time>2026-04-11T13:01:02.953Z</time></trkpt><trkpt lat="44.38416051326666" lon="10.129435656031598"><ele>1033.0</ele><time>2026-04-11T13:01:03.952Z</time></trkpt><trkpt lat="44.3840595191309" lon="10.12957680857019"><ele>1033.0</ele><time>2026-04-11T13:01:04.952Z</time></trkpt><trkpt lat="44.383981024647944" lon="10.129703148508437"><ele>1033.0</ele><time>2026-04-11T13:01:05.952Z</time></trkpt><trkpt lat="44.383921283757736" lon="10.129802639214255"><ele>1033.0</ele><time>2026-04-11T13:01:06.952Z</time></trkpt><trkpt lat="44.383887350037114" lon="10.129906819969277"><ele>1033.0</ele><time>2026-04-11T13:01:07.952Z</time></trkpt><trkpt lat="44.38390385434438" lon="10.13001827597921"><ele>1033.0</ele><time>2026-04-11T13:01:08.952Z</time></trkpt><trkpt lat="44.38396232746596" lon="10.13009858630434"><ele>1033.0</ele><time>2026-04-11T13:01:09.952Z</time></trkpt><trkpt lat="44.38404406436753" lon="10.130113751744855"><ele>1033.0</ele><time>2026-04-11T13:01:10.952Z</time></trkpt><trkpt lat="44.38412478086072" lon="10.130035068750392"><ele>1033.0</ele><time>2026-04-11T13:01:11.952Z</time></trkpt><trkpt lat="44.384173846623085" lon="10.129934540443163"><ele>1033.0</ele><time>2026-04-11T13:01:12.952Z</time></trkpt><trkpt lat="44.38424474289828" lon="10.129769538221131"><ele>1033.0</ele><time>2026-04-11T13:01:13.952Z</time></trkpt><trkpt lat="44.384327529531504" lon="10.129595099008583"><ele>1033.0</ele><time>2026-04-11T13:01:14.952Z</time></trkpt><trkpt lat="44.384432279429" lon="10.129432584840487"><ele>1033.0</ele><time>2026-04-11T13:01:15.952Z</time></trkpt><trkpt lat="44.384558589114256" lon="10.129284307242607"><ele>1029.6666666666665</ele><time>2026-04-11T13:01:16.952Z</time></trkpt><trkpt lat="44.38468080239107" lon="10.129149147080332"><ele>1026.3333333333333</ele><time>2026-04-11T13:01:17.952Z</time></trkpt><trkpt lat="44.384808015283845" lon="10.12902783238598"><ele>1023.0</ele><time>2026-04-11T13:01:18.952Z</time></trkpt><trkpt lat="44.38493433567154" lon="10.128921213834511"><ele>1023.0</ele><time>2026-04-11T13:01:19.952Z</time></trkpt><trkpt lat="44.38505628018675" lon="10.128806122942555"><ele>1023.0</ele><time>2026-04-11T13:01:20.952Z</time></trkpt><trkpt lat="44.38518354755893" lon="10.128687090571065"><ele>1023.0</ele><time>2026-04-11T13:01:21.952Z</time></trkpt><trkpt lat="44.385309302718056" lon="10.128578365308842"><ele>1023.0</ele><time>2026-04-11T13:01:22.952Z</time></trkpt><trkpt lat="44.38544207947778" lon="10.128490035846925"><ele>1019.25</ele><time>2026-04-11T13:01:23.952Z</time></trkpt><trkpt lat="44.38558196732292" lon="10.128415852172044"><ele>1015.5</ele><time>2026-04-11T13:01:24.952Z</time></trkpt><trkpt lat="44.385722365330665" lon="10.128354349280038"><ele>1011.75</ele><time>2026-04-11T13:01:25.952Z</time></trkpt><trkpt lat="44.385864042404805" lon="10.128289491824715"><ele>1008.0</ele><time>2026-04-11T13:01:26.952Z</time></trkpt><trkpt lat="44.38600342810433" lon="10.128231592564687"><ele>1008.5</ele><time>2026-04-11T13:01:27.952Z</time></trkpt><trkpt lat="44.386146919872765" lon="10.128178599790864"><ele>1009.0</ele><time>2026-04-11T13:01:28.952Z</time></trkpt><trkpt lat="44.38629194007861" lon="10.128127150068435"><ele>1009.5</ele><time>2026-04-11T13:01:29.952Z</time></trkpt><trkpt lat="44.38643378638547" lon="10.128075043574258"><ele>1010.0</ele><time>2026-04-11T13:01:30.952Z</time></trkpt><trkpt lat="44.38657534946193" lon="10.128022495991335"><ele>1010.0</ele><time>2026-04-11T13:01:31.952Z</time></trkpt><trkpt lat="44.38671669242047" lon="10.12796845480424"><ele>1010.0</ele><time>2026-04-11T13:01:32.952Z</time></trkpt><trkpt lat="44.38686045804801" lon="10.127928924556901"><ele>1010.0</ele><time>2026-04-11T13:01:33.952Z</time></trkpt><trkpt lat="44.38700032032729" lon="10.127882549851762"><ele>1010.0</ele><time>2026-04-11T13:01:34.952Z</time></trkpt><trkpt lat="44.387136965743224" lon="10.127833132189748"><ele>1006.25</ele><time>2026-04-11T13:01:35.952Z</time></trkpt><trkpt lat="44.3872681457319" lon="10.127773876027021"><ele>1002.5</ele><time>2026-04-11T13:01:36.952Z</time></trkpt><trkpt lat="44.38740410451937" lon="10.127712653951544"><ele>998.75</ele><time>2026-04-11T13:01:37.952Z</time></trkpt><trkpt lat="44.38753668196088" lon="10.127647237612827"><ele>995.0</ele><time>2026-04-11T13:01:38.952Z</time></trkpt><trkpt lat="44.38767248544675" lon="10.127584547291699"><ele>995.0</ele><time>2026-04-11T13:01:39.952Z</time></trkpt><trkpt lat="44.38780664859453" lon="10.127525143475419"><ele>995.0</ele><time>2026-04-11T13:01:40.952Z</time></trkpt><trkpt lat="44.38794471010446" lon="10.127474719590843"><ele>995.0</ele><time>2026-04-11T13:01:41.952Z</time></trkpt><trkpt lat="44.38807926650868" lon="10.127418610094551"><ele>995.0</ele><time>2026-04-11T13:01:42.952Z</time></trkpt><trkpt lat="44.388212693843634" lon="10.127363593858204"><ele>992.5</ele><time>2026-04-11T13:01:43.952Z</time></trkpt><trkpt lat="44.38834061703302" lon="10.127304635534589"><ele>990.0</ele><time>2026-04-11T13:01:44.953Z</time></trkpt><trkpt lat="44.38846440246" lon="10.127249339330698"><ele>987.5</ele><time>2026-04-11T13:01:45.953Z</time></trkpt><trkpt lat="44.38858292515196" lon="10.127190233278533"><ele>985.0</ele><time>2026-04-11T13:01:46.953Z</time></trkpt><trkpt lat="44.388692786559105" lon="10.12712257396174"><ele>985.0</ele><time>2026-04-11T13:01:47.953Z</time></trkpt><trkpt lat="44.388797451598556" lon="10.127037276725883"><ele>985.0</ele><time>2026-04-11T13:01:48.953Z</time></trkpt><trkpt lat="44.38888888577881" lon="10.126923997168683"><ele>985.0</ele><time>2026-04-11T13:01:49.953Z</time></trkpt><trkpt lat="44.38896493821715" lon="10.126809459971192"><ele>985.0</ele><time>2026-04-11T13:01:50.953Z</time></trkpt><trkpt lat="44.38902437203008" lon="10.126694039308513"><ele>982.6</ele><time>2026-04-11T13:01:51.953Z</time></trkpt><trkpt lat="44.38906278886891" lon="10.126577160377876"><ele>980.2</ele><time>2026-04-11T13:01:52.953Z</time></trkpt><trkpt lat="44.38909193609102" lon="10.126438482254812"><ele>977.8</ele><time>2026-04-11T13:01:53.953Z</time></trkpt><trkpt lat="44.38909537133866" lon="10.126292992215031"><ele>975.4</ele><time>2026-04-11T13:01:54.953Z</time></trkpt><trkpt lat="44.389051920018964" lon="10.126149461685156"><ele>973.0</ele><time>2026-04-11T13:01:55.953Z</time></trkpt><trkpt lat="44.38897134374743" lon="10.126015575407475"><ele>971.25</ele><time>2026-04-11T13:01:56.953Z</time></trkpt><trkpt lat="44.388859348573135" lon="10.12590752810837"><ele>969.5</ele><time>2026-04-11T13:01:57.953Z</time></trkpt><trkpt lat="44.38873495090381" lon="10.1258312879544"><ele>967.75</ele><time>2026-04-11T13:01:58.953Z</time></trkpt><trkpt lat="44.38861025090169" lon="10.125793413084777"><ele>966.0</ele><time>2026-04-11T13:01:59.953Z</time></trkpt><trkpt lat="44.38847646233248" lon="10.12579387702707"><ele>966.0</ele><time>2026-04-11T13:02:00.953Z</time></trkpt><trkpt lat="44.388316236868384" lon="10.125823614689784"><ele>966.0</ele><time>2026-04-11T13:02:01.953Z</time></trkpt><trkpt lat="44.38814043589846" lon="10.12582846682021"><ele>966.0</ele><time>2026-04-11T13:02:02.953Z</time></trkpt><trkpt lat="44.38796906552802" lon="10.125828722025505"><ele>966.5</ele><time>2026-04-11T13:02:03.953Z</time></trkpt><trkpt lat="44.38781409111842" lon="10.125818730179132"><ele>967.0</ele><time>2026-04-11T13:02:04.953Z</time></trkpt><trkpt lat="44.387669072342014" lon="10.125804240723184"><ele>967.5</ele><time>2026-04-11T13:02:05.953Z</time></trkpt><trkpt lat="44.3875323608439" lon="10.125772272269481"><ele>968.0</ele><time>2026-04-11T13:02:06.953Z</time></trkpt><trkpt lat="44.387389883673" lon="10.1257066620721"><ele>960.75</ele><time>2026-04-11T13:02:07.953Z</time></trkpt><trkpt lat="44.38725789050873" lon="10.125593518618613"><ele>953.5</ele><time>2026-04-11T13:02:08.953Z</time></trkpt><trkpt lat="44.38713243811463" lon="10.125496630155189"><ele>946.25</ele><time>2026-04-11T13:02:09.953Z</time></trkpt><trkpt lat="44.386989131090104" lon="10.12543426090946"><ele>939.0</ele><time>2026-04-11T13:02:10.953Z</time></trkpt><trkpt lat="44.38682552510552" lon="10.125402921622275"><ele>939.0</ele><time>2026-04-11T13:02:11.953Z</time></trkpt><trkpt lat="44.386659614301884" lon="10.125392595633555"><ele>939.0</ele><time>2026-04-11T13:02:12.953Z</time></trkpt><trkpt lat="44.38649898662667" lon="10.125366138900137"><ele>939.0</ele><time>2026-04-11T13:02:13.953Z</time></trkpt><trkpt lat="44.38635406452959" lon="10.125315638151244"><ele>937.75</ele><time>2026-04-11T13:02:14.953Z</time></trkpt><trkpt lat="44.38623682419418" lon="10.125255802721826"><ele>936.5</ele><time>2026-04-11T13:02:15.953Z</time></trkpt><trkpt lat="44.3861252386334" lon="10.125217582701872"><ele>935.25</ele><time>2026-04-11T13:02:16.953Z</time></trkpt><trkpt lat="44.38601249025326" lon="10.125227744600778"><ele>934.0</ele><time>2026-04-11T13:02:17.953Z</time></trkpt><trkpt lat="44.385905512458805" lon="10.125283023743483"><ele>934.0</ele><time>2026-04-11T13:02:18.953Z</time></trkpt><trkpt lat="44.38581462036045" lon="10.12536561398216"><ele>934.0</ele><time>2026-04-11T13:02:19.953Z</time></trkpt><trkpt lat="44.38571228454959" lon="10.12551132484286"><ele>934.0</ele><time>2026-04-11T13:02:20.953Z</time></trkpt><trkpt lat="44.38559400992353" lon="10.12561046497002"><ele>934.0</ele><time>2026-04-11T13:02:21.953Z</time></trkpt><trkpt lat="44.38545929159883" lon="10.125686429481359"><ele>938.0</ele><time>2026-04-11T13:02:22.953Z</time></trkpt><trkpt lat="44.38531999289701" lon="10.125743942604297"><ele>942.0</ele><time>2026-04-11T13:02:23.953Z</time></trkpt><trkpt lat="44.38517438388795" lon="10.125794231464418"><ele>946.0</ele><time>2026-04-11T13:02:24.953Z</time></trkpt><trkpt lat="44.38502299900041" lon="10.125797541160745"><ele>950.0</ele><time>2026-04-11T13:02:25.953Z</time></trkpt><trkpt lat="44.384867099727" lon="10.125781594437425"><ele>950.0</ele><time>2026-04-11T13:02:26.953Z</time></trkpt><trkpt lat="44.3847222911442" lon="10.125765419876055"><ele>950.0</ele><time>2026-04-11T13:02:27.953Z</time></trkpt><trkpt lat="44.38459998559517" lon="10.125743465088911"><ele>950.0</ele><time>2026-04-11T13:02:28.953Z</time></trkpt><trkpt lat="44.38449351551408" lon="10.125700523380509"><ele>950.0</ele><time>2026-04-11T13:02:29.953Z</time></trkpt><trkpt lat="44.384415839196016" lon="10.125613751241213"><ele>948.25</ele><time>2026-04-11T13:02:30.953Z</time></trkpt><trkpt lat="44.38437626049631" lon="10.125481406969566"><ele>946.5</ele><time>2026-04-11T13:02:31.953Z</time></trkpt><trkpt lat="44.38438024827585" lon="10.125318330381132"><ele>944.75</ele><time>2026-04-11T13:02:32.953Z</time></trkpt><trkpt lat="44.38441368039138" lon="10.125149491898277"><ele>943.0</ele><time>2026-04-11T13:02:33.953Z</time></trkpt><trkpt lat="44.38446168110486" lon="10.124970354064702"><ele>945.5</ele><time>2026-04-11T13:02:34.953Z</time></trkpt><trkpt lat="44.38450050125925" lon="10.124773292993464"><ele>948.0</ele><time>2026-04-11T13:02:35.953Z</time></trkpt><trkpt lat="44.38454584933754" lon="10.124571948518378"><ele>950.5</ele><time>2026-04-11T13:02:36.953Z</time></trkpt><trkpt lat="44.38458604870891" lon="10.124404674939163"><ele>953.0</ele><time>2026-04-11T13:02:37.953Z</time></trkpt><trkpt lat="44.38464475023353" lon="10.124259445879161"><ele>950.75</ele><time>2026-04-11T13:02:38.953Z</time></trkpt><trkpt lat="44.38473461704865" lon="10.1241407233285"><ele>948.5</ele><time>2026-04-11T13:02:39.953Z</time></trkpt><trkpt lat="44.38484953904" lon="10.124055347727362"><ele>946.25</ele><time>2026-04-11T13:02:40.953Z</time></trkpt><trkpt lat="44.3849795644273" lon="10.12399084262649"><ele>944.0</ele><time>2026-04-11T13:02:41.953Z</time></trkpt><trkpt lat="44.38511519424156" lon="10.12391039437678"><ele>951.0</ele><time>2026-04-11T13:02:42.953Z</time></trkpt><trkpt lat="44.385245530529964" lon="10.123813717252634"><ele>958.0</ele><time>2026-04-11T13:02:43.953Z</time></trkpt><trkpt lat="44.38537227505192" lon="10.123712061155803"><ele>965.0</ele><time>2026-04-11T13:02:44.953Z</time></trkpt><trkpt lat="44.38550000143931" lon="10.12356850003333"><ele>968.0</ele><time>2026-04-11T13:02:45.953Z</time></trkpt><trkpt lat="44.3856123793037" lon="10.12343870349279"><ele>971.0</ele><time>2026-04-11T13:02:46.953Z</time></trkpt><trkpt lat="44.38571800289292" lon="10.123316588587814"><ele>974.0</ele><time>2026-04-11T13:02:47.953Z</time></trkpt><trkpt lat="44.385817895629614" lon="10.123201090887896"><ele>977.0</ele><time>2026-04-11T13:02:48.953Z</time></trkpt><trkpt lat="44.385949586145735" lon="10.123115533675024"><ele>977.0</ele><time>2026-04-11T13:02:49.953Z</time></trkpt><trkpt lat="44.38609747924504" lon="10.12306074563741"><ele>977.0</ele><time>2026-04-11T13:02:50.953Z</time></trkpt><trkpt lat="44.38626948289747" lon="10.123007643514219"><ele>977.0</ele><time>2026-04-11T13:02:51.953Z</time></trkpt><trkpt lat="44.38643989227691" lon="10.122942931696695"><ele>971.6666666666667</ele><time>2026-04-11T13:02:52.953Z</time></trkpt><trkpt lat="44.38661098559821" lon="10.122876182421466"><ele>966.3333333333333</ele><time>2026-04-11T13:02:53.953Z</time></trkpt><trkpt lat="44.386779049761" lon="10.122814251652356"><ele>961.0</ele><time>2026-04-11T13:02:54.953Z</time></trkpt><trkpt lat="44.38693574940405" lon="10.122762378196162"><ele>961.0</ele><time>2026-04-11T13:02:55.953Z</time></trkpt><trkpt lat="44.38711061526165" lon="10.122719949179375"><ele>961.0</ele><time>2026-04-11T13:02:56.953Z</time></trkpt><trkpt lat="44.38728197310252" lon="10.122693826676777"><ele>961.0</ele><time>2026-04-11T13:02:57.953Z</time></trkpt><trkpt lat="44.38745781153415" lon="10.122695842810785"><ele>958.3333333333333</ele><time>2026-04-11T13:02:58.953Z</time></trkpt><trkpt lat="44.38762037161498" lon="10.122682122665477"><ele>955.6666666666667</ele><time>2026-04-11T13:02:59.953Z</time></trkpt><trkpt lat="44.38777600283406" lon="10.12264997821825"><ele>953.0</ele><time>2026-04-11T13:03:00.953Z</time></trkpt><trkpt lat="44.38792432391467" lon="10.122600775952833"><ele>951.25</ele><time>2026-04-11T13:03:01.953Z</time></trkpt><trkpt lat="44.38804643626613" lon="10.122553241108369"><ele>949.5</ele><time>2026-04-11T13:03:02.953Z</time></trkpt><trkpt lat="44.388174563159154" lon="10.122519558808804"><ele>947.75</ele><time>2026-04-11T13:03:03.953Z</time></trkpt><trkpt lat="44.38828500955242" lon="10.122520919253622"><ele>946.0</ele><time>2026-04-11T13:03:04.953Z</time></trkpt><trkpt lat="44.388402710051665" lon="10.122549692556257"><ele>946.0</ele><time>2026-04-11T13:03:05.953Z</time></trkpt><trkpt lat="44.38851502784778" lon="10.122531003256146"><ele>946.0</ele><time>2026-04-11T13:03:06.952Z</time></trkpt><trkpt lat="44.38863824844576" lon="10.122479321773818"><ele>946.0</ele><time>2026-04-11T13:03:07.952Z</time></trkpt><trkpt lat="44.38876851762455" lon="10.122383026889743"><ele>946.0</ele><time>2026-04-11T13:03:08.952Z</time></trkpt><trkpt lat="44.38892114204963" lon="10.12228844451986"><ele>950.6666666666666</ele><time>2026-04-11T13:03:09.952Z</time></trkpt><trkpt lat="44.38907583484528" lon="10.122201013776706"><ele>955.3333333333333</ele><time>2026-04-11T13:03:10.952Z</time></trkpt><trkpt lat="44.38921731436146" lon="10.12212264426732"><ele>960.0</ele><time>2026-04-11T13:03:11.952Z</time></trkpt><trkpt lat="44.38935292528625" lon="10.122039589140226"><ele>960.0</ele><time>2026-04-11T13:03:12.952Z</time></trkpt><trkpt lat="44.38948539078969" lon="10.121970598316114"><ele>960.0</ele><time>2026-04-11T13:03:13.952Z</time></trkpt><trkpt lat="44.38960928468573" lon="10.121900112584479"><ele>960.0</ele><time>2026-04-11T13:03:14.952Z</time></trkpt><trkpt lat="44.38973885073019" lon="10.121844655459698"><ele>960.0</ele><time>2026-04-11T13:03:15.952Z</time></trkpt><trkpt lat="44.38987957035497" lon="10.121831333287801"><ele>957.5</ele><time>2026-04-11T13:03:16.952Z</time></trkpt><trkpt lat="44.3900151544114" lon="10.121840195284232"><ele>955.0</ele><time>2026-04-11T13:03:17.952Z</time></trkpt><trkpt lat="44.39013427008982" lon="10.121844923312304"><ele>952.5</ele><time>2026-04-11T13:03:18.952Z</time></trkpt><trkpt lat="44.390237569753864" lon="10.121819175113314"><ele>950.0</ele><time>2026-04-11T13:03:19.951Z</time></trkpt><trkpt lat="44.390327080996684" lon="10.121732610080961"><ele>950.0</ele><time>2026-04-11T13:03:20.951Z</time></trkpt><trkpt lat="44.39041066309382" lon="10.121598199005298"><ele>950.0</ele><time>2026-04-11T13:03:21.952Z</time></trkpt><trkpt lat="44.39047521321614" lon="10.121441570079874"><ele>950.0</ele><time>2026-04-11T13:03:22.952Z</time></trkpt><trkpt lat="44.390574293642345" lon="10.121338699413771"><ele>950.0</ele><time>2026-04-11T13:03:23.952Z</time></trkpt><trkpt lat="44.39070708908504" lon="10.121292972820552"><ele>950.3333333333334</ele><time>2026-04-11T13:03:24.952Z</time></trkpt><trkpt lat="44.39085542792144" lon="10.121271351980655"><ele>950.6666666666667</ele><time>2026-04-11T13:03:25.952Z</time></trkpt><trkpt lat="44.391014083444546" lon="10.121248177432415"><ele>951.0</ele><time>2026-04-11T13:03:26.952Z</time></trkpt><trkpt lat="44.39118260745392" lon="10.12121156909587"><ele>948.6666666666667</ele><time>2026-04-11T13:03:27.952Z</time></trkpt><trkpt lat="44.391355496002184" lon="10.121162498433652"><ele>946.3333333333334</ele><time>2026-04-11T13:03:28.952Z</time></trkpt><trkpt lat="44.39153292089525" lon="10.121113562519476"><ele>944.0</ele><time>2026-04-11T13:03:29.952Z</time></trkpt><trkpt lat="44.39169066681025" lon="10.121072334610004"><ele>944.0</ele><time>2026-04-11T13:03:30.952Z</time></trkpt><trkpt lat="44.39184136467671" lon="10.121038377569965"><ele>944.0</ele><time>2026-04-11T13:03:31.952Z</time></trkpt><trkpt lat="44.39197731854417" lon="10.121000947237437"><ele>944.0</ele><time>2026-04-11T13:03:32.952Z</time></trkpt><trkpt lat="44.392103956326046" lon="10.12095162147727"><ele>944.0</ele><time>2026-04-11T13:03:33.952Z</time></trkpt><trkpt lat="44.39223048648401" lon="10.120888365342232"><ele>941.25</ele><time>2026-04-11T13:03:34.952Z</time></trkpt><trkpt lat="44.392359617451" lon="10.12078605217192"><ele>938.5</ele><time>2026-04-11T13:03:35.952Z</time></trkpt><trkpt lat="44.392490035475625" lon="10.120667969564929"><ele>935.75</ele><time>2026-04-11T13:03:36.952Z</time></trkpt><trkpt lat="44.39261579289479" lon="10.120564850497102"><ele>933.0</ele><time>2026-04-11T13:03:37.952Z</time></trkpt><trkpt lat="44.39272370476359" lon="10.120485995018837"><ele>933.0</ele><time>2026-04-11T13:03:38.952Z</time></trkpt><trkpt lat="44.392812238991326" lon="10.120401414400297"><ele>933.0</ele><time>2026-04-11T13:03:39.952Z</time></trkpt><trkpt lat="44.39287584926732" lon="10.120288483829853"><ele>933.0</ele><time>2026-04-11T13:03:40.952Z</time></trkpt><trkpt lat="44.39290574413407" lon="10.12015496883439"><ele>933.0</ele><time>2026-04-11T13:03:41.952Z</time></trkpt><trkpt lat="44.39291338195057" lon="10.120008411094787"><ele>933.0</ele><time>2026-04-11T13:03:42.952Z</time></trkpt><trkpt lat="44.392903694762666" lon="10.119879779437355"><ele>930.75</ele><time>2026-04-11T13:03:43.952Z</time></trkpt><trkpt lat="44.392863917510084" lon="10.119775388623596"><ele>928.5</ele><time>2026-04-11T13:03:44.952Z</time></trkpt><trkpt lat="44.392778756870506" lon="10.119693010138867"><ele>926.25</ele><time>2026-04-11T13:03:45.952Z</time></trkpt><trkpt lat="44.392662448248316" lon="10.119605781993222"><ele>924.0</ele><time>2026-04-11T13:03:46.952Z</time></trkpt><trkpt lat="44.39254334213711" lon="10.119504690083806"><ele>924.0</ele><time>2026-04-11T13:03:47.952Z</time></trkpt><trkpt lat="44.39245453844387" lon="10.119419698569006"><ele>924.0000000000001</ele><time>2026-04-11T13:03:48.952Z</time></trkpt><trkpt lat="44.39238405093994" lon="10.119344971743692"><ele>924.0000000000001</ele><time>2026-04-11T13:03:49.952Z</time></trkpt><trkpt lat="44.3923601365721" lon="10.119258179400333"><ele>924.0</ele><time>2026-04-11T13:03:50.952Z</time></trkpt><trkpt lat="44.392378218698305" lon="10.11914812904898"><ele>924.0</ele><time>2026-04-11T13:03:51.952Z</time></trkpt><trkpt lat="44.3924375501585" lon="10.11902201285039"><ele>926.8000000000001</ele><time>2026-04-11T13:03:52.952Z</time></trkpt><trkpt lat="44.392501711664956" lon="10.118936323154003"><ele>929.6000000000001</ele><time>2026-04-11T13:03:53.952Z</time></trkpt><trkpt lat="44.392582224412735" lon="10.118913808235462"><ele>932.4</ele><time>2026-04-11T13:03:54.952Z</time></trkpt><trkpt lat="44.39268811302873" lon="10.118929324164862"><ele>935.2</ele><time>2026-04-11T13:03:55.952Z</time></trkpt><trkpt lat="44.39281597364585" lon="10.118957523053142"><ele>938.0</ele><time>2026-04-11T13:03:56.952Z</time></trkpt><trkpt lat="44.39294410329846" lon="10.118951842160918"><ele>940.25</ele><time>2026-04-11T13:03:57.952Z</time></trkpt><trkpt lat="44.39305705256989" lon="10.118909381215515"><ele>942.5</ele><time>2026-04-11T13:03:58.952Z</time></trkpt><trkpt lat="44.393158607041514" lon="10.118824472007168"><ele>944.75</ele><time>2026-04-11T13:03:59.952Z</time></trkpt><trkpt lat="44.39329240161486" lon="10.118767226958067"><ele>947.0</ele><time>2026-04-11T13:04:00.952Z</time></trkpt><trkpt lat="44.39342273439294" lon="10.118733924700305"><ele>947.0</ele><time>2026-04-11T13:04:01.952Z</time></trkpt><trkpt lat="44.39355383868205" lon="10.118755929373538"><ele>947.0</ele><time>2026-04-11T13:04:02.952Z</time></trkpt><trkpt lat="44.3936751997033" lon="10.118812808358266"><ele>947.0</ele><time>2026-04-11T13:04:03.952Z</time></trkpt><trkpt lat="44.393771353098636" lon="10.1189108497194"><ele>947.0</ele><time>2026-04-11T13:04:04.952Z</time></trkpt><trkpt lat="44.393854394162396" lon="10.119026084595625"><ele>937.5</ele><time>2026-04-11T13:04:05.952Z</time></trkpt><trkpt lat="44.39394561855249" lon="10.119101623263706"><ele>928.0</ele><time>2026-04-11T13:04:06.952Z</time></trkpt><trkpt lat="44.39406652282792" lon="10.119132108941269"><ele>918.5</ele><time>2026-04-11T13:04:07.952Z</time></trkpt><trkpt lat="44.39419991043685" lon="10.119150770816864"><ele>909.0</ele><time>2026-04-11T13:04:08.952Z</time></trkpt><trkpt lat="44.39434404144944" lon="10.119143744985472"><ele>909.0</ele><time>2026-04-11T13:04:09.952Z</time></trkpt><trkpt lat="44.39449269592255" lon="10.11910839747476"><ele>909.0</ele><time>2026-04-11T13:04:10.952Z</time></trkpt><trkpt lat="44.39461755519382" lon="10.119067157363466"><ele>909.0</ele><time>2026-04-11T13:04:11.952Z</time></trkpt><trkpt lat="44.39475157407656" lon="10.119064538146631"><ele>909.0</ele><time>2026-04-11T13:04:12.952Z</time></trkpt><trkpt lat="44.39489628395964" lon="10.119101000325713"><ele>910.0</ele><time>2026-04-11T13:04:13.952Z</time></trkpt><trkpt lat="44.39502790571591" lon="10.11917357832"><ele>911.0</ele><time>2026-04-11T13:04:14.952Z</time></trkpt><trkpt lat="44.395147355028456" lon="10.11927705878411"><ele>912.0</ele><time>2026-04-11T13:04:15.952Z</time></trkpt><trkpt lat="44.39525386462901" lon="10.119409513447097"><ele>913.0</ele><time>2026-04-11T13:04:16.952Z</time></trkpt><trkpt lat="44.39534099577376" lon="10.11957573399864"><ele>913.0</ele><time>2026-04-11T13:04:17.952Z</time></trkpt><trkpt lat="44.3954463544473" lon="10.119718792830277"><ele>913.0</ele><time>2026-04-11T13:04:18.952Z</time></trkpt><trkpt lat="44.39556795643866" lon="10.119842809057852"><ele>913.0</ele><time>2026-04-11T13:04:19.952Z</time></trkpt><trkpt lat="44.395688118162454" lon="10.119981226970838"><ele>911.0</ele><time>2026-04-11T13:04:20.952Z</time></trkpt><trkpt lat="44.39579979268623" lon="10.120133190551647"><ele>909.0</ele><time>2026-04-11T13:04:21.952Z</time></trkpt><trkpt lat="44.39590954798116" lon="10.12027905161495"><ele>907.0</ele><time>2026-04-11T13:04:22.952Z</time></trkpt><trkpt lat="44.396001039108334" lon="10.120403391730552"><ele>905.0</ele><time>2026-04-11T13:04:23.952Z</time></trkpt><trkpt lat="44.3960858684618" lon="10.120499017267303"><ele>905.0</ele><time>2026-04-11T13:04:24.952Z</time></trkpt><trkpt lat="44.39618053872449" lon="10.120551197813656"><ele>905.0</ele><time>2026-04-11T13:04:25.952Z</time></trkpt><trkpt lat="44.39629405076972" lon="10.120573242586941"><ele>905.0</ele><time>2026-04-11T13:04:26.952Z</time></trkpt><trkpt lat="44.396423057010864" lon="10.120600554921012"><ele>905.0</ele><time>2026-04-11T13:04:27.952Z</time></trkpt><trkpt lat="44.396557900440214" lon="10.120656972442086"><ele>904.0</ele><time>2026-04-11T13:04:28.952Z</time></trkpt><trkpt lat="44.396691329471004" lon="10.120758384854359"><ele>903.0</ele><time>2026-04-11T13:04:29.952Z</time></trkpt><trkpt lat="44.396827462477724" lon="10.120895685221745"><ele>902.0</ele><time>2026-04-11T13:04:30.952Z</time></trkpt><trkpt lat="44.396959163542874" lon="10.121053518631483"><ele>902.0</ele><time>2026-04-11T13:04:31.952Z</time></trkpt><trkpt lat="44.39708885910944" lon="10.121233607063008"><ele>902.0</ele><time>2026-04-11T13:04:32.952Z</time></trkpt><trkpt lat="44.397224241246505" lon="10.1214172082263"><ele>902.0</ele><time>2026-04-11T13:04:33.952Z</time></trkpt><trkpt lat="44.39735497267509" lon="10.121585958054876"><ele>900.0</ele><time>2026-04-11T13:04:34.952Z</time></trkpt><trkpt lat="44.3974564452802" lon="10.121728834866063"><ele>898.0</ele><time>2026-04-11T13:04:35.952Z</time></trkpt><trkpt lat="44.39755379242691" lon="10.121845873192797"><ele>896.0</ele><time>2026-04-11T13:04:36.952Z</time></trkpt><trkpt lat="44.3976717778726" lon="10.12192647052212"><ele>894.0</ele><time>2026-04-11T13:04:37.952Z</time></trkpt><trkpt lat="44.39780560827648" lon="10.121998606086114"><ele>894.0</ele><time>2026-04-11T13:04:38.952Z</time></trkpt><trkpt lat="44.397942687219135" lon="10.122044543005298"><ele>894.0</ele><time>2026-04-11T13:04:39.952Z</time></trkpt><trkpt lat="44.39805332267033" lon="10.122118068835862"><ele>894.0</ele><time>2026-04-11T13:04:40.952Z</time></trkpt><trkpt lat="44.39816694122205" lon="10.122235318275106"><ele>894.0</ele><time>2026-04-11T13:04:41.952Z</time></trkpt><trkpt lat="44.39824858256057" lon="10.122404947805158"><ele>892.25</ele><time>2026-04-11T13:04:42.952Z</time></trkpt><trkpt lat="44.398337599124886" lon="10.122522472684045"><ele>890.5</ele><time>2026-04-11T13:04:43.952Z</time></trkpt><trkpt lat="44.39843967741529" lon="10.122599400888934"><ele>888.75</ele><time>2026-04-11T13:04:44.952Z</time></trkpt><trkpt lat="44.39855422184791" lon="10.122623991107108"><ele>887.0</ele><time>2026-04-11T13:04:45.952Z</time></trkpt><trkpt lat="44.39868932516339" lon="10.122657653316667"><ele>887.0</ele><time>2026-04-11T13:04:46.952Z</time></trkpt><trkpt lat="44.3988173280823" lon="10.12273581590631"><ele>887.0</ele><time>2026-04-11T13:04:47.952Z</time></trkpt><trkpt lat="44.39895285725529" lon="10.122851449283512"><ele>887.0</ele><time>2026-04-11T13:04:48.952Z</time></trkpt><trkpt lat="44.39906162513629" lon="10.12300733596106"><ele>883.3333333333334</ele><time>2026-04-11T13:04:49.952Z</time></trkpt><trkpt lat="44.39916386232746" lon="10.123196105071177"><ele>879.6666666666667</ele><time>2026-04-11T13:04:50.952Z</time></trkpt><trkpt lat="44.39926450253309" lon="10.123366884752446"><ele>876.0</ele><time>2026-04-11T13:04:51.952Z</time></trkpt><trkpt lat="44.39935063489779" lon="10.12351284393257"><ele>876.0</ele><time>2026-04-11T13:04:52.952Z</time></trkpt><trkpt lat="44.39944599065123" lon="10.123616255903254"><ele>876.0</ele><time>2026-04-11T13:04:53.952Z</time></trkpt><trkpt lat="44.399560270573076" lon="10.123671061500799"><ele>876.0</ele><time>2026-04-11T13:04:54.952Z</time></trkpt><trkpt lat="44.39967946255789" lon="10.123701702491973"><ele>876.0</ele><time>2026-04-11T13:04:55.952Z</time></trkpt><trkpt lat="44.39982068987951" lon="10.12373269793941"><ele>881.3333333333333</ele><time>2026-04-11T13:04:56.953Z</time></trkpt><trkpt lat="44.399965754770385" lon="10.123814281682394"><ele>886.6666666666666</ele><time>2026-04-11T13:04:57.953Z</time></trkpt><trkpt lat="44.400117336908515" lon="10.123929676523785"><ele>892.0</ele><time>2026-04-11T13:04:58.953Z</time></trkpt><trkpt lat="44.40024715792945" lon="10.12405305523397"><ele>885.25</ele><time>2026-04-11T13:04:59.953Z</time></trkpt><trkpt lat="44.40036449216911" lon="10.124168167823475"><ele>878.5</ele><time>2026-04-11T13:05:00.953Z</time></trkpt><trkpt lat="44.40047103156453" lon="10.12425027831262"><ele>871.75</ele><time>2026-04-11T13:05:01.953Z</time></trkpt><trkpt lat="44.40058627916451" lon="10.124335085570603"><ele>865.0</ele><time>2026-04-11T13:05:02.953Z</time></trkpt><trkpt lat="44.40067828787308" lon="10.124452383229249"><ele>865.0</ele><time>2026-04-11T13:05:03.953Z</time></trkpt><trkpt lat="44.400765717636254" lon="10.124568618792427"><ele>865.0</ele><time>2026-04-11T13:05:04.953Z</time></trkpt><trkpt lat="44.4008205038432" lon="10.12466683470225"><ele>865.0</ele><time>2026-04-11T13:05:05.953Z</time></trkpt><trkpt lat="44.4008741428073" lon="10.124726717036614"><ele>865.0</ele><time>2026-04-11T13:05:06.953Z</time></trkpt><trkpt lat="44.4009952576064" lon="10.1246746346012"><ele>865.0</ele><time>2026-04-11T13:05:08.953Z</time></trkpt><trkpt lat="44.40100674709953" lon="10.12454793632567"><ele>865.0</ele><time>2026-04-11T13:05:09.953Z</time></trkpt><trkpt lat="44.40100624738774" lon="10.124404527858085"><ele>865.0</ele><time>2026-04-11T13:05:10.953Z</time></trkpt><trkpt lat="44.40101549596242" lon="10.124236009581217"><ele>865.0</ele><time>2026-04-11T13:05:11.953Z</time></trkpt><trkpt lat="44.40103100877638" lon="10.124067495207322"><ele>865.0</ele><time>2026-04-11T13:05:12.951Z</time></trkpt><trkpt lat="44.4010646951821" lon="10.12391418824267"><ele>864.6</ele><time>2026-04-11T13:05:13.952Z</time></trkpt><trkpt lat="44.40106820197687" lon="10.1237624622541"><ele>864.2</ele><time>2026-04-11T13:05:14.952Z</time></trkpt><trkpt lat="44.401040907643036" lon="10.123628122804812"><ele>863.8</ele><time>2026-04-11T13:05:15.952Z</time></trkpt><trkpt lat="44.4009786240074" lon="10.123494355368964"><ele>863.4</ele><time>2026-04-11T13:05:16.952Z</time></trkpt><trkpt lat="44.40090505012452" lon="10.123355379555711"><ele>863.0</ele><time>2026-04-11T13:05:17.952Z</time></trkpt><trkpt lat="44.40082693786581" lon="10.123184754720496"><ele>855.6666666666667</ele><time>2026-04-11T13:05:18.952Z</time></trkpt><trkpt lat="44.40076817062559" lon="10.122984105213833"><ele>848.3333333333333</ele><time>2026-04-11T13:05:19.952Z</time></trkpt><trkpt lat="44.4007167751108" lon="10.122777086210863"><ele>841.0</ele><time>2026-04-11T13:05:20.952Z</time></trkpt><trkpt lat="44.40067592287961" lon="10.122555816648122"><ele>837.3333333333333</ele><time>2026-04-11T13:05:21.952Z</time></trkpt><trkpt lat="44.40064641797205" lon="10.122344136353936"><ele>833.6666666666667</ele><time>2026-04-11T13:05:22.952Z</time></trkpt><trkpt lat="44.40063062188604" lon="10.122131118659187"><ele>830.0</ele><time>2026-04-11T13:05:23.952Z</time></trkpt><trkpt lat="44.40061498387408" lon="10.121907739744023"><ele>830.0</ele><time>2026-04-11T13:05:24.952Z</time></trkpt><trkpt lat="44.400608174067145" lon="10.121673600925577"><ele>830.0</ele><time>2026-04-11T13:05:25.951Z</time></trkpt><trkpt lat="44.40059680443185" lon="10.121461195812483"><ele>830.0</ele><time>2026-04-11T13:05:26.951Z</time></trkpt><trkpt lat="44.40058401155396" lon="10.121284767258555"><ele>830.0</ele><time>2026-04-11T13:05:27.951Z</time></trkpt><trkpt lat="44.400555495209986" lon="10.121123913539314"><ele>835.5</ele><time>2026-04-11T13:05:28.951Z</time></trkpt><trkpt lat="44.400482508288704" lon="10.120983885248606"><ele>841.0</ele><time>2026-04-11T13:05:29.951Z</time></trkpt><trkpt lat="44.40039898915835" lon="10.120836026518425"><ele>846.5</ele><time>2026-04-11T13:05:30.951Z</time></trkpt><trkpt lat="44.400332252699734" lon="10.120644409380315"><ele>852.0</ele><time>2026-04-11T13:05:31.951Z</time></trkpt><trkpt lat="44.400275046569085" lon="10.12044440465291"><ele>852.0</ele><time>2026-04-11T13:05:32.951Z</time></trkpt><trkpt lat="44.40020946379531" lon="10.12024593628998"><ele>852.0</ele><time>2026-04-11T13:05:33.951Z</time></trkpt><trkpt lat="44.400156835946824" lon="10.120059219946086"><ele>852.0</ele><time>2026-04-11T13:05:34.951Z</time></trkpt><trkpt lat="44.40010862551422" lon="10.119885054351377"><ele>852.0</ele><time>2026-04-11T13:05:35.951Z</time></trkpt><trkpt lat="44.40007004809399" lon="10.119723800019553"><ele>850.8</ele><time>2026-04-11T13:05:36.951Z</time></trkpt><trkpt lat="44.40004557640296" lon="10.119575933838485"><ele>849.6</ele><time>2026-04-11T13:05:37.951Z</time></trkpt><trkpt lat="44.40007237855872" lon="10.119427914157443"><ele>848.4</ele><time>2026-04-11T13:05:38.951Z</time></trkpt><trkpt lat="44.40013796849812" lon="10.1192968224044"><ele>847.1999999999999</ele><time>2026-04-11T13:05:39.951Z</time></trkpt><trkpt lat="44.400211739721655" lon="10.119172950069279"><ele>846.0</ele><time>2026-04-11T13:05:40.951Z</time></trkpt><trkpt lat="44.40029356364401" lon="10.119043497444382"><ele>846.0</ele><time>2026-04-11T13:05:41.951Z</time></trkpt><trkpt lat="44.40037196813698" lon="10.11893455009868"><ele>846.0</ele><time>2026-04-11T13:05:42.951Z</time></trkpt><trkpt lat="44.400453719370404" lon="10.118854039545202"><ele>846.0</ele><time>2026-04-11T13:05:43.951Z</time></trkpt><trkpt lat="44.40054926345557" lon="10.118808872445772"><ele>846.0</ele><time>2026-04-11T13:05:44.952Z</time></trkpt><trkpt lat="44.40066487645767" lon="10.11882667640555"><ele>846.0</ele><time>2026-04-11T13:05:45.952Z</time></trkpt><trkpt lat="44.40078326623393" lon="10.118901628711178"><ele>842.6666666666667</ele><time>2026-04-11T13:05:46.952Z</time></trkpt><trkpt lat="44.40091300088713" lon="10.11901241692626"><ele>839.3333333333334</ele><time>2026-04-11T13:05:47.952Z</time></trkpt><trkpt lat="44.40105130221682" lon="10.119133271684015"><ele>836.0</ele><time>2026-04-11T13:05:48.952Z</time></trkpt><trkpt lat="44.40120664820499" lon="10.119276367983144"><ele>846.3333333333334</ele><time>2026-04-11T13:05:49.952Z</time></trkpt><trkpt lat="44.401377725788144" lon="10.119446669567465"><ele>856.6666666666667</ele><time>2026-04-11T13:05:50.952Z</time></trkpt><trkpt lat="44.40153715280632" lon="10.11965352014883"><ele>867.0</ele><time>2026-04-11T13:05:51.952Z</time></trkpt><trkpt lat="44.40167620328173" lon="10.119831529591629"><ele>859.0</ele><time>2026-04-11T13:05:52.952Z</time></trkpt><trkpt lat="44.40180742803664" lon="10.119977236591806"><ele>851.0</ele><time>2026-04-11T13:05:53.952Z</time></trkpt><trkpt lat="44.401910063510584" lon="10.12011025558189"><ele>843.0</ele><time>2026-04-11T13:05:54.952Z</time></trkpt><trkpt lat="44.401993668213244" lon="10.12022497174168"><ele>835.0</ele><time>2026-04-11T13:05:55.952Z</time></trkpt><trkpt lat="44.402047204875615" lon="10.120360163792684"><ele>835.0</ele><time>2026-04-11T13:05:56.952Z</time></trkpt><trkpt lat="44.40204866431192" lon="10.120536289410156"><ele>835.0</ele><time>2026-04-11T13:05:57.952Z</time></trkpt><trkpt lat="44.40202080598808" lon="10.120685152416948"><ele>835.0</ele><time>2026-04-11T13:05:58.952Z</time></trkpt><trkpt lat="44.40199734387831" lon="10.120807308110372"><ele>835.0</ele><time>2026-04-11T13:05:59.952Z</time></trkpt><trkpt lat="44.40201918001123" lon="10.120907234669556"><ele>835.0</ele><time>2026-04-11T13:06:00.952Z</time></trkpt><trkpt lat="44.402083685515144" lon="10.120994462013998"><ele>839.0</ele><time>2026-04-11T13:06:01.952Z</time></trkpt><trkpt lat="44.4022134155381" lon="10.121056341015988"><ele>843.0</ele><time>2026-04-11T13:06:02.952Z</time></trkpt><trkpt lat="44.40237979222039" lon="10.121104706949904"><ele>847.0</ele><time>2026-04-11T13:06:03.952Z</time></trkpt><trkpt lat="44.40254026571875" lon="10.121157303751929"><ele>847.0</ele><time>2026-04-11T13:06:04.952Z</time></trkpt><trkpt lat="44.40266744524254" lon="10.121219889406756"><ele>847.0</ele><time>2026-04-11T13:06:05.952Z</time></trkpt><trkpt lat="44.40279847377063" lon="10.1213224697066"><ele>847.0</ele><time>2026-04-11T13:06:06.952Z</time></trkpt><trkpt lat="44.40290254391671" lon="10.12148596798706"><ele>847.0</ele><time>2026-04-11T13:06:07.952Z</time></trkpt><trkpt lat="44.40299700812834" lon="10.12166550662412"><ele>846.6666666666666</ele><time>2026-04-11T13:06:08.952Z</time></trkpt><trkpt lat="44.403093618504975" lon="10.12183484992948"><ele>846.3333333333333</ele><time>2026-04-11T13:06:09.952Z</time></trkpt><trkpt lat="44.403206430424824" lon="10.121970260670535"><ele>846.0</ele><time>2026-04-11T13:06:10.952Z</time></trkpt><trkpt lat="44.40333860001505" lon="10.122086221115683"><ele>846.0</ele><time>2026-04-11T13:06:11.952Z</time></trkpt><trkpt lat="44.40346244120075" lon="10.122186770661381"><ele>846.0</ele><time>2026-04-11T13:06:12.952Z</time></trkpt><trkpt lat="44.4035862424762" lon="10.122241057335263"><ele>846.0</ele><time>2026-04-11T13:06:13.952Z</time></trkpt><trkpt lat="44.40371348192021" lon="10.122258813374602"><ele>846.0</ele><time>2026-04-11T13:06:14.952Z</time></trkpt><trkpt lat="44.403848224757276" lon="10.122259463617905"><ele>846.75</ele><time>2026-04-11T13:06:15.952Z</time></trkpt><trkpt lat="44.403984223513284" lon="10.12226005747092"><ele>847.5</ele><time>2026-04-11T13:06:16.952Z</time></trkpt><trkpt lat="44.404112668485425" lon="10.122272865707162"><ele>848.25</ele><time>2026-04-11T13:06:17.952Z</time></trkpt><trkpt lat="44.40423353089209" lon="10.122290522501368"><ele>849.0</ele><time>2026-04-11T13:06:18.952Z</time></trkpt><trkpt lat="44.40435435901025" lon="10.122308919429496"><ele>849.0</ele><time>2026-04-11T13:06:19.952Z</time></trkpt><trkpt lat="44.40446170540521" lon="10.122311715699144"><ele>849.0</ele><time>2026-04-11T13:06:20.952Z</time></trkpt><trkpt lat="44.404572751314745" lon="10.122309933951136"><ele>849.0</ele><time>2026-04-11T13:06:21.952Z</time></trkpt><trkpt lat="44.404692336983906" lon="10.122263345899869"><ele>849.0</ele><time>2026-04-11T13:06:22.952Z</time></trkpt><trkpt lat="44.404810624263206" lon="10.122182740488874"><ele>847.0</ele><time>2026-04-11T13:06:23.952Z</time></trkpt><trkpt lat="44.40494823753534" lon="10.122096691181303"><ele>845.0</ele><time>2026-04-11T13:06:24.952Z</time></trkpt><trkpt lat="44.405097705096146" lon="10.1219839967367"><ele>843.0</ele><time>2026-04-11T13:06:25.952Z</time></trkpt><trkpt lat="44.40524290996186" lon="10.121890516040413"><ele>843.0</ele><time>2026-04-11T13:06:26.952Z</time></trkpt><trkpt lat="44.40536745063883" lon="10.121790163502626"><ele>843.0</ele><time>2026-04-11T13:06:27.952Z</time></trkpt><trkpt lat="44.40546142076619" lon="10.12166918429696"><ele>843.0</ele><time>2026-04-11T13:06:28.952Z</time></trkpt><trkpt lat="44.40554011523989" lon="10.121547023751189"><ele>843.0</ele><time>2026-04-11T13:06:29.952Z</time></trkpt><trkpt lat="44.405593534870555" lon="10.12140923834318"><ele>840.0</ele><time>2026-04-11T13:06:30.952Z</time></trkpt><trkpt lat="44.405656974014526" lon="10.12128760610097"><ele>837.0</ele><time>2026-04-11T13:06:31.952Z</time></trkpt><trkpt lat="44.40574476488394" lon="10.121212335858967"><ele>834.0</ele><time>2026-04-11T13:06:32.952Z</time></trkpt><trkpt lat="44.405875455878906" lon="10.121205476355192"><ele>831.0</ele><time>2026-04-11T13:06:33.952Z</time></trkpt><trkpt lat="44.40600281701019" lon="10.12122290492278"><ele>831.0</ele><time>2026-04-11T13:06:34.952Z</time></trkpt><trkpt lat="44.406099386840935" lon="10.121239249492906"><ele>831.0</ele><time>2026-04-11T13:06:35.952Z</time></trkpt><trkpt lat="44.406169431668204" lon="10.121320745944253"><ele>831.0</ele><time>2026-04-11T13:06:36.952Z</time></trkpt><trkpt lat="44.40621451497133" lon="10.12148267162966"><ele>831.0</ele><time>2026-04-11T13:06:37.952Z</time></trkpt><trkpt lat="44.40624888472113" lon="10.12168120388837"><ele>832.0</ele><time>2026-04-11T13:06:38.952Z</time></trkpt><trkpt lat="44.40628873913759" lon="10.12188585513571"><ele>833.0</ele><time>2026-04-11T13:06:39.952Z</time></trkpt><trkpt lat="44.406345101671256" lon="10.122098355686022"><ele>834.0</ele><time>2026-04-11T13:06:40.952Z</time></trkpt><trkpt lat="44.40641768124283" lon="10.122311665873445"><ele>829.3333333333333</ele><time>2026-04-11T13:06:41.952Z</time></trkpt><trkpt lat="44.40649265741772" lon="10.122531574027843"><ele>824.6666666666666</ele><time>2026-04-11T13:06:42.952Z</time></trkpt><trkpt lat="44.406542974899246" lon="10.122767701942866"><ele>820.0</ele><time>2026-04-11T13:06:43.952Z</time></trkpt><trkpt lat="44.4065807047482" lon="10.12300892361057"><ele>820.0</ele><time>2026-04-11T13:06:44.952Z</time></trkpt><trkpt lat="44.406601625056275" lon="10.123227296471843"><ele>820.0</ele><time>2026-04-11T13:06:45.952Z</time></trkpt><trkpt lat="44.40662854213507" lon="10.12342456134376"><ele>820.0</ele><time>2026-04-11T13:06:46.952Z</time></trkpt><trkpt lat="44.40666975321514" lon="10.123594371763653"><ele>820.0</ele><time>2026-04-11T13:06:47.952Z</time></trkpt><trkpt lat="44.40674598996867" lon="10.123737440768076"><ele>816.0</ele><time>2026-04-11T13:06:48.952Z</time></trkpt><trkpt lat="44.40685221654756" lon="10.123888965717658"><ele>812.0</ele><time>2026-04-11T13:06:49.952Z</time></trkpt><trkpt lat="44.40696677193466" lon="10.12404923840535"><ele>808.0</ele><time>2026-04-11T13:06:50.952Z</time></trkpt><trkpt lat="44.40706979369683" lon="10.124230000083301"><ele>809.0</ele><time>2026-04-11T13:06:51.952Z</time></trkpt><trkpt lat="44.40718338721339" lon="10.124422402808912"><ele>810.0</ele><time>2026-04-11T13:06:52.952Z</time></trkpt><trkpt lat="44.40728517640682" lon="10.12460692927676"><ele>811.0</ele><time>2026-04-11T13:06:53.952Z</time></trkpt><trkpt lat="44.4073688689438" lon="10.124783505917174"><ele>808.0</ele><time>2026-04-11T13:06:54.952Z</time></trkpt><trkpt lat="44.40745342981814" lon="10.124945473960986"><ele>805.0</ele><time>2026-04-11T13:06:55.952Z</time></trkpt><trkpt lat="44.407529368777816" lon="10.125089046372189"><ele>802.0</ele><time>2026-04-11T13:06:56.952Z</time></trkpt><trkpt lat="44.40760936991127" lon="10.125207189349403"><ele>799.0</ele><time>2026-04-11T13:06:57.952Z</time></trkpt><trkpt lat="44.407690553295176" lon="10.125295112255353"><ele>799.0</ele><time>2026-04-11T13:06:58.952Z</time></trkpt><trkpt lat="44.40778982737618" lon="10.125337513667086"><ele>799.0</ele><time>2026-04-11T13:06:59.952Z</time></trkpt><trkpt lat="44.407904544374254" lon="10.12535368532449"><ele>799.0</ele><time>2026-04-11T13:07:00.952Z</time></trkpt><trkpt lat="44.408043467250245" lon="10.125349987643652"><ele>799.0</ele><time>2026-04-11T13:07:01.952Z</time></trkpt><trkpt lat="44.4081940613594" lon="10.12535848229017"><ele>800.6666666666666</ele><time>2026-04-11T13:07:02.952Z</time></trkpt><trkpt lat="44.408346616380086" lon="10.125374649060383"><ele>802.3333333333333</ele><time>2026-04-11T13:07:03.952Z</time></trkpt><trkpt lat="44.40849839520709" lon="10.125394170543524"><ele>804.0</ele><time>2026-04-11T13:07:04.952Z</time></trkpt><trkpt lat="44.40864689764738" lon="10.125413030836718"><ele>804.0</ele><time>2026-04-11T13:07:05.952Z</time></trkpt><trkpt lat="44.40879178245378" lon="10.125437113852481"><ele>804.0</ele><time>2026-04-11T13:07:06.952Z</time></trkpt><trkpt lat="44.40894017283702" lon="10.1254572546885"><ele>804.0</ele><time>2026-04-11T13:07:07.952Z</time></trkpt><trkpt lat="44.4090784819687" lon="10.125481200511018"><ele>804.0</ele><time>2026-04-11T13:07:08.952Z</time></trkpt><trkpt lat="44.40921031543467" lon="10.125496452775915"><ele>803.5</ele><time>2026-04-11T13:07:09.952Z</time></trkpt><trkpt lat="44.409336839454745" lon="10.12551171130434"><ele>803.0</ele><time>2026-04-11T13:07:10.952Z</time></trkpt><trkpt lat="44.40945211964313" lon="10.125526185036314"><ele>802.5</ele><time>2026-04-11T13:07:11.952Z</time></trkpt><trkpt lat="44.40956967234737" lon="10.125521096677373"><ele>802.0</ele><time>2026-04-11T13:07:12.952Z</time></trkpt><trkpt lat="44.409685440151996" lon="10.125509801142464"><ele>800.5</ele><time>2026-04-11T13:07:13.952Z</time></trkpt><trkpt lat="44.40980947801739" lon="10.125481920568761"><ele>799.0</ele><time>2026-04-11T13:07:14.952Z</time></trkpt><trkpt lat="44.40993500818346" lon="10.12543165475345"><ele>797.5</ele><time>2026-04-11T13:07:15.952Z</time></trkpt><trkpt lat="44.41007026320097" lon="10.125356350433123"><ele>796.0</ele><time>2026-04-11T13:07:16.952Z</time></trkpt><trkpt lat="44.41021547341848" lon="10.125270373936898"><ele>796.0</ele><time>2026-04-11T13:07:17.952Z</time></trkpt><trkpt lat="44.41036518714772" lon="10.125184134435873"><ele>796.0</ele><time>2026-04-11T13:07:18.951Z</time></trkpt><trkpt lat="44.41051235306484" lon="10.125102379371965"><ele>796.0</ele><time>2026-04-11T13:07:19.951Z</time></trkpt><trkpt lat="44.41065541560266" lon="10.1250372457499"><ele>794.5</ele><time>2026-04-11T13:07:20.951Z</time></trkpt><trkpt lat="44.41079994192656" lon="10.124992983320189"><ele>793.0</ele><time>2026-04-11T13:07:21.952Z</time></trkpt><trkpt lat="44.410943288845345" lon="10.124972177678826"><ele>791.5</ele><time>2026-04-11T13:07:22.951Z</time></trkpt><trkpt lat="44.41107872602393" lon="10.124969840166987"><ele>790.0</ele><time>2026-04-11T13:07:23.951Z</time></trkpt><trkpt lat="44.41120686405515" lon="10.124986610166586"><ele>790.25</ele><time>2026-04-11T13:07:24.951Z</time></trkpt><trkpt lat="44.411330105163216" lon="10.125022908709804"><ele>790.5</ele><time>2026-04-11T13:07:25.951Z</time></trkpt><trkpt lat="44.41145434308887" lon="10.125100519954202"><ele>790.75</ele><time>2026-04-11T13:07:26.951Z</time></trkpt><trkpt lat="44.41158762714562" lon="10.125202956132892"><ele>791.0</ele><time>2026-04-11T13:07:27.951Z</time></trkpt><trkpt lat="44.41172467478281" lon="10.125316131311413"><ele>791.0</ele><time>2026-04-11T13:07:28.952Z</time></trkpt><trkpt lat="44.411865657035236" lon="10.125435914047808"><ele>791.0</ele><time>2026-04-11T13:07:29.952Z</time></trkpt><trkpt lat="44.412005073759055" lon="10.125558695184331"><ele>791.0</ele><time>2026-04-11T13:07:30.951Z</time></trkpt><trkpt lat="44.41214633840818" lon="10.125679683954019"><ele>788.5</ele><time>2026-04-11T13:07:31.951Z</time></trkpt><trkpt lat="44.41228295896301" lon="10.125790391002027"><ele>786.0</ele><time>2026-04-11T13:07:32.951Z</time></trkpt><trkpt lat="44.41240660275872" lon="10.125895303777927"><ele>783.5</ele><time>2026-04-11T13:07:33.951Z</time></trkpt><trkpt lat="44.412525759902486" lon="10.126012274141281"><ele>781.0</ele><time>2026-04-11T13:07:34.951Z</time></trkpt><trkpt lat="44.41263231205659" lon="10.126162049088546"><ele>781.0</ele><time>2026-04-11T13:07:35.951Z</time></trkpt><trkpt lat="44.41272625737908" lon="10.126336292648137"><ele>781.0</ele><time>2026-04-11T13:07:36.951Z</time></trkpt><trkpt lat="44.412807454486284" lon="10.126507528861808"><ele>781.0</ele><time>2026-04-11T13:07:37.951Z</time></trkpt><trkpt lat="44.412860014200795" lon="10.1266747250016"><ele>781.0</ele><time>2026-04-11T13:07:38.951Z</time></trkpt><trkpt lat="44.412875754397895" lon="10.126854251802204"><ele>779.75</ele><time>2026-04-11T13:07:39.951Z</time></trkpt><trkpt lat="44.41287125279391" lon="10.127049953699478"><ele>778.5</ele><time>2026-04-11T13:07:40.951Z</time></trkpt><trkpt lat="44.41286176645919" lon="10.127240939807013"><ele>777.25</ele><time>2026-04-11T13:07:41.951Z</time></trkpt><trkpt lat="44.412822781106385" lon="10.127427790244743"><ele>776.0</ele><time>2026-04-11T13:07:42.951Z</time></trkpt><trkpt lat="44.41275555813666" lon="10.127609791444556"><ele>775.25</ele><time>2026-04-11T13:07:43.951Z</time></trkpt><trkpt lat="44.41266240675976" lon="10.127771359445045"><ele>774.5</ele><time>2026-04-11T13:07:44.951Z</time></trkpt><trkpt lat="44.41259422223502" lon="10.127929865280839"><ele>773.75</ele><time>2026-04-11T13:07:45.951Z</time></trkpt><trkpt lat="44.412558202428606" lon="10.128105276233132"><ele>773.0</ele><time>2026-04-11T13:07:46.951Z</time></trkpt><trkpt lat="44.41255012265447" lon="10.128307644398348"><ele>771.0</ele><time>2026-04-11T13:07:47.951Z</time></trkpt><trkpt lat="44.41253774810136" lon="10.128506885204388"><ele>769.0</ele><time>2026-04-11T13:07:48.951Z</time></trkpt><trkpt lat="44.41250238311131" lon="10.128691420369146"><ele>767.0</ele><time>2026-04-11T13:07:49.951Z</time></trkpt><trkpt lat="44.41242767177923" lon="10.12885698496844"><ele>765.0</ele><time>2026-04-11T13:07:50.951Z</time></trkpt><trkpt lat="44.41234907232805" lon="10.128994826271787"><ele>764.2</ele><time>2026-04-11T13:07:51.951Z</time></trkpt><trkpt lat="44.41229341422369" lon="10.129102619750013"><ele>763.4</ele><time>2026-04-11T13:07:52.951Z</time></trkpt><trkpt lat="44.41226649679386" lon="10.129214957646296"><ele>762.5999999999999</ele><time>2026-04-11T13:07:53.951Z</time></trkpt><trkpt lat="44.412281948192394" lon="10.129344052355941"><ele>761.8</ele><time>2026-04-11T13:07:54.951Z</time></trkpt><trkpt lat="44.41233952318078" lon="10.129477111964103"><ele>761.0</ele><time>2026-04-11T13:07:55.951Z</time></trkpt><trkpt lat="44.41244154359263" lon="10.12960569755397"><ele>761.0</ele><time>2026-04-11T13:07:56.951Z</time></trkpt><trkpt lat="44.41253529778809" lon="10.12975577925367"><ele>761.0</ele><time>2026-04-11T13:07:57.951Z</time></trkpt><trkpt lat="44.412635735514584" lon="10.129921192855718"><ele>761.0</ele><time>2026-04-11T13:07:58.951Z</time></trkpt><trkpt lat="44.412738052195024" lon="10.130080248904278"><ele>759.0</ele><time>2026-04-11T13:07:59.951Z</time></trkpt><trkpt lat="44.41282381636692" lon="10.130226328162815"><ele>757.0</ele><time>2026-04-11T13:08:00.951Z</time></trkpt><trkpt lat="44.41289652556374" lon="10.130355111694852"><ele>755.0</ele><time>2026-04-11T13:08:01.951Z</time></trkpt><trkpt lat="44.41295044941187" lon="10.130480314386485"><ele>753.0</ele><time>2026-04-11T13:08:02.951Z</time></trkpt><trkpt lat="44.41296506582771" lon="10.13061072456548"><ele>751.5999999999999</ele><time>2026-04-11T13:08:03.951Z</time></trkpt><trkpt lat="44.41293685633149" lon="10.13073744553529"><ele>750.1999999999999</ele><time>2026-04-11T13:08:04.951Z</time></trkpt><trkpt lat="44.41286936696586" lon="10.1308475132574"><ele>748.8</ele><time>2026-04-11T13:08:05.951Z</time></trkpt><trkpt lat="44.41276764382388" lon="10.13094455742234"><ele>747.4</ele><time>2026-04-11T13:08:06.951Z</time></trkpt><trkpt lat="44.41266667298451" lon="10.131040888847885"><ele>746.0</ele><time>2026-04-11T13:08:07.951Z</time></trkpt><trkpt lat="44.412565457259426" lon="10.13115548331194"><ele>746.0</ele><time>2026-04-11T13:08:08.951Z</time></trkpt><trkpt lat="44.41246226142535" lon="10.131272410912125"><ele>746.0</ele><time>2026-04-11T13:08:09.951Z</time></trkpt><trkpt lat="44.412364779733515" lon="10.131359586267065"><ele>746.0</ele><time>2026-04-11T13:08:10.951Z</time></trkpt><trkpt lat="44.4122907330303" lon="10.131443253977624"><ele>746.0</ele><time>2026-04-11T13:08:11.951Z</time></trkpt><trkpt lat="44.41224798358737" lon="10.13156212730646"><ele>746.0</ele><time>2026-04-11T13:08:12.951Z</time></trkpt><trkpt lat="44.41222155806856" lon="10.131715812394392"><ele>745.25</ele><time>2026-04-11T13:08:13.951Z</time></trkpt><trkpt lat="44.41219125682328" lon="10.13187937473218"><ele>744.5</ele><time>2026-04-11T13:08:14.951Z</time></trkpt><trkpt lat="44.41212827923995" lon="10.132037603843328"><ele>743.75</ele><time>2026-04-11T13:08:15.951Z</time></trkpt><trkpt lat="44.41203853093319" lon="10.132159269029074"><ele>743.0</ele><time>2026-04-11T13:08:16.951Z</time></trkpt><trkpt lat="44.41193892799841" lon="10.132263840606996"><ele>741.4</ele><time>2026-04-11T13:08:17.951Z</time></trkpt><trkpt lat="44.41184952698206" lon="10.132361248901812"><ele>739.8</ele><time>2026-04-11T13:08:18.951Z</time></trkpt><trkpt lat="44.41177670324729" lon="10.132449544339158"><ele>738.2</ele><time>2026-04-11T13:08:19.951Z</time></trkpt><trkpt lat="44.41173096004398" lon="10.132548764256736"><ele>736.6</ele><time>2026-04-11T13:08:20.951Z</time></trkpt><trkpt lat="44.41172893279522" lon="10.132676336284838"><ele>735.0</ele><time>2026-04-11T13:08:21.951Z</time></trkpt><trkpt lat="44.41176451565286" lon="10.132821648812056"><ele>735.0</ele><time>2026-04-11T13:08:22.951Z</time></trkpt><trkpt lat="44.41182135583322" lon="10.132959123749734"><ele>735.0</ele><time>2026-04-11T13:08:23.951Z</time></trkpt><trkpt lat="44.41188845088716" lon="10.133090226827623"><ele>735.0</ele><time>2026-04-11T13:08:24.951Z</time></trkpt><trkpt lat="44.41198014891154" lon="10.133196941960717"><ele>735.0</ele><time>2026-04-11T13:08:25.951Z</time></trkpt><trkpt lat="44.412087478036" lon="10.133274483783703"><ele>733.75</ele><time>2026-04-11T13:08:26.951Z</time></trkpt><trkpt lat="44.41218529906016" lon="10.133342458635079"><ele>732.5</ele><time>2026-04-11T13:08:27.951Z</time></trkpt><trkpt lat="44.41226555036634" lon="10.133446130337477"><ele>731.25</ele><time>2026-04-11T13:08:28.951Z</time></trkpt><trkpt lat="44.4123174921593" lon="10.133567816522424"><ele>730.0</ele><time>2026-04-11T13:08:29.951Z</time></trkpt><trkpt lat="44.41234824693975" lon="10.133746124401142"><ele>730.0</ele><time>2026-04-11T13:08:30.952Z</time></trkpt><trkpt lat="44.412371499118386" lon="10.133930151245373"><ele>730.0</ele><time>2026-04-11T13:08:31.952Z</time></trkpt><trkpt lat="44.41238100847129" lon="10.134118226789665"><ele>730.0</ele><time>2026-04-11T13:08:32.952Z</time></trkpt><trkpt lat="44.41236762149308" lon="10.134295569206621"><ele>730.0</ele><time>2026-04-11T13:08:33.952Z</time></trkpt><trkpt lat="44.41234847919843" lon="10.134459260072036"><ele>728.4</ele><time>2026-04-11T13:08:34.952Z</time></trkpt><trkpt lat="44.41232546564349" lon="10.134591453777716"><ele>726.8</ele><time>2026-04-11T13:08:35.952Z</time></trkpt><trkpt lat="44.41228925389488" lon="10.13469059927323"><ele>725.2</ele><time>2026-04-11T13:08:36.952Z</time></trkpt><trkpt lat="44.41222472536616" lon="10.134747289087558"><ele>723.6</ele><time>2026-04-11T13:08:37.952Z</time></trkpt><trkpt lat="44.412128203862814" lon="10.134737694654342"><ele>722.0</ele><time>2026-04-11T13:08:38.952Z</time></trkpt><trkpt lat="44.41201446472508" lon="10.134674252970305"><ele>721.75</ele><time>2026-04-11T13:08:39.952Z</time></trkpt><trkpt lat="44.411888080102095" lon="10.134607501164897"><ele>721.5</ele><time>2026-04-11T13:08:40.952Z</time></trkpt><trkpt lat="44.41175219301229" lon="10.134550136766514"><ele>721.25</ele><time>2026-04-11T13:08:41.952Z</time></trkpt><trkpt lat="44.41161492262967" lon="10.134486987816617"><ele>721.0</ele><time>2026-04-11T13:08:42.952Z</time></trkpt><trkpt lat="44.411500783627204" lon="10.134406716535057"><ele>721.0</ele><time>2026-04-11T13:08:43.952Z</time></trkpt><trkpt lat="44.41139674832554" lon="10.13431392742085"><ele>721.0</ele><time>2026-04-11T13:08:44.952Z</time></trkpt><trkpt lat="44.411298449233655" lon="10.134246175239289"><ele>721.0</ele><time>2026-04-11T13:08:45.952Z</time></trkpt><trkpt lat="44.41118837714565" lon="10.134222875578804"><ele>721.0</ele><time>2026-04-11T13:08:46.952Z</time></trkpt><trkpt lat="44.411089239154286" lon="10.134209724326139"><ele>721.0</ele><time>2026-04-11T13:08:47.952Z</time></trkpt><trkpt lat="44.41100792783714" lon="10.13419549903851"><ele>718.0</ele><time>2026-04-11T13:08:48.952Z</time></trkpt><trkpt lat="44.41093492522386" lon="10.13419962788513"><ele>715.0</ele><time>2026-04-11T13:08:49.952Z</time></trkpt><trkpt lat="44.41087293113393" lon="10.134324993712697"><ele>712.0</ele><time>2026-04-11T13:08:51.952Z</time></trkpt><trkpt lat="44.41088685632423" lon="10.134449447714779"><ele>709.0</ele><time>2026-04-11T13:08:52.952Z</time></trkpt><trkpt lat="44.41094651733185" lon="10.134558043558059"><ele>706.0</ele><time>2026-04-11T13:08:53.952Z</time></trkpt><trkpt lat="44.41102619047575" lon="10.134646527775471"><ele>706.0</ele><time>2026-04-11T13:08:54.952Z</time></trkpt><trkpt lat="44.41111806805658" lon="10.13475272824389"><ele>706.0</ele><time>2026-04-11T13:08:55.952Z</time></trkpt><trkpt lat="44.41121583688802" lon="10.134873137299978"><ele>706.0</ele><time>2026-04-11T13:08:56.952Z</time></trkpt><trkpt lat="44.41131537701425" lon="10.13499368525082"><ele>706.0</ele><time>2026-04-11T13:08:57.952Z</time></trkpt><trkpt lat="44.4114101422332" lon="10.135118104390674"><ele>706.4</ele><time>2026-04-11T13:08:58.952Z</time></trkpt><trkpt lat="44.41149636893374" lon="10.135232081236436"><ele>706.8</ele><time>2026-04-11T13:08:59.952Z</time></trkpt><trkpt lat="44.41158049582625" lon="10.13533921374477"><ele>707.1999999999999</ele><time>2026-04-11T13:09:00.952Z</time></trkpt><trkpt lat="44.41165593116815" lon="10.135434444484947"><ele>707.5999999999999</ele><time>2026-04-11T13:09:01.952Z</time></trkpt><trkpt lat="44.41173378636031" lon="10.13552077908017"><ele>708.0</ele><time>2026-04-11T13:09:02.952Z</time></trkpt><trkpt lat="44.41178645125336" lon="10.135587249698826"><ele>708.0</ele><time>2026-04-11T13:09:03.952Z</time></trkpt><trkpt lat="44.41187174358468" lon="10.135677807501843"><ele>708.0</ele><time>2026-04-11T13:09:05.952Z</time></trkpt><trkpt lat="44.41193559646913" lon="10.135766476158581"><ele>708.0</ele><time>2026-04-11T13:09:07.952Z</time></trkpt><trkpt lat="44.411930930388664" lon="10.135907329505207"><ele>708.0</ele><time>2026-04-11T13:09:09.952Z</time></trkpt><trkpt lat="44.411874543667274" lon="10.135970146435463"><ele>708.0</ele><time>2026-04-11T13:09:10.952Z</time></trkpt><trkpt lat="44.411792593457434" lon="10.135944988604097"><ele>708.0</ele><time>2026-04-11T13:09:11.952Z</time></trkpt><trkpt lat="44.41174614557738" lon="10.13586359674738"><ele>708.0</ele><time>2026-04-11T13:09:12.952Z</time></trkpt><trkpt lat="44.41166516038301" lon="10.13571463823608"><ele>708.0</ele><time>2026-04-11T13:09:14.952Z</time></trkpt><trkpt lat="44.41161814210986" lon="10.135647996536123"><ele>708.0</ele><time>2026-04-11T13:09:15.952Z</time></trkpt><trkpt lat="44.41151808213405" lon="10.13555944635498"><ele>708.0</ele><time>2026-04-11T13:09:17.952Z</time></trkpt><trkpt lat="44.411406082515214" lon="10.135612653952965"><ele>705.2</ele><time>2026-04-11T13:09:19.952Z</time></trkpt><trkpt lat="44.411420981679285" lon="10.13580082820814"><ele>702.4</ele><time>2026-04-11T13:09:21.952Z</time></trkpt><trkpt lat="44.41146853234756" lon="10.135909477109609"><ele>699.6</ele><time>2026-04-11T13:09:22.952Z</time></trkpt><trkpt lat="44.41152928489525" lon="10.136029703914703"><ele>696.8000000000001</ele><time>2026-04-11T13:09:23.952Z</time></trkpt><trkpt lat="44.41155942620548" lon="10.136122899862897"><ele>694.0</ele><time>2026-04-11T13:09:24.95Z</time></trkpt><trkpt lat="44.41162464943168" lon="10.136243134569426"><ele>694.0</ele><time>2026-04-11T13:09:25.95Z</time></trkpt><trkpt lat="44.41167477460614" lon="10.1363525384822"><ele>694.0</ele><time>2026-04-11T13:09:26.95Z</time></trkpt><trkpt lat="44.41172391394885" lon="10.136452185696431"><ele>694.0</ele><time>2026-04-11T13:09:27.95Z</time></trkpt><trkpt lat="44.411777654608755" lon="10.136533875699739"><ele>694.0</ele><time>2026-04-11T13:09:28.95Z</time></trkpt><trkpt lat="44.411837519607325" lon="10.13659790026906"><ele>694.0</ele><time>2026-04-11T13:09:29.95Z</time></trkpt><trkpt lat="44.411926064686476" lon="10.136622201319913"><ele>694.0</ele><time>2026-04-11T13:09:30.95Z</time></trkpt><trkpt lat="44.412019807033424" lon="10.136611761325119"><ele>694.0</ele><time>2026-04-11T13:09:31.95Z</time></trkpt><trkpt lat="44.41211856670954" lon="10.136574444851608"><ele>694.0</ele><time>2026-04-11T13:09:32.95Z</time></trkpt><trkpt lat="44.41221867887913" lon="10.136531123746847"><ele>694.0</ele><time>2026-04-11T13:09:33.949Z</time></trkpt><trkpt lat="44.412308757922034" lon="10.136495704445622"><ele>694.0</ele><time>2026-04-11T13:09:34.95Z</time></trkpt><trkpt lat="44.412388913055366" lon="10.136462517180039"><ele>694.0</ele><time>2026-04-11T13:09:35.95Z</time></trkpt><trkpt lat="44.41247443280178" lon="10.136436252248457"><ele>694.0</ele><time>2026-04-11T13:09:36.95Z</time></trkpt><trkpt lat="44.41256481419544" lon="10.13640642843105"><ele>694.0</ele><time>2026-04-11T13:09:37.949Z</time></trkpt><trkpt lat="44.41266446630276" lon="10.136385654781215"><ele>694.0</ele><time>2026-04-11T13:09:38.949Z</time></trkpt><trkpt lat="44.4127605920273" lon="10.13635628039099"><ele>694.0</ele><time>2026-04-11T13:09:39.949Z</time></trkpt><trkpt lat="44.41285146032109" lon="10.136317674468229"><ele>694.0</ele><time>2026-04-11T13:09:40.949Z</time></trkpt><trkpt lat="44.41293463069861" lon="10.136272392912423"><ele>694.4000000000001</ele><time>2026-04-11T13:09:41.949Z</time></trkpt><trkpt lat="44.41300987006689" lon="10.136181450179"><ele>694.8</ele><time>2026-04-11T13:09:42.949Z</time></trkpt><trkpt lat="44.413077617437146" lon="10.136057213241438"><ele>695.2</ele><time>2026-04-11T13:09:43.949Z</time></trkpt><trkpt lat="44.4131392552292" lon="10.135917545896072"><ele>695.5999999999999</ele><time>2026-04-11T13:09:44.949Z</time></trkpt><trkpt lat="44.413203199792626" lon="10.135800668645517"><ele>696.0</ele><time>2026-04-11T13:09:45.949Z</time></trkpt><trkpt lat="44.41326581140644" lon="10.135705657167813"><ele>696.0</ele><time>2026-04-11T13:09:46.949Z</time></trkpt><trkpt lat="44.41332186275702" lon="10.135630688620218"><ele>696.0</ele><time>2026-04-11T13:09:47.949Z</time></trkpt><trkpt lat="44.413394061190715" lon="10.135597940226447"><ele>696.0</ele><time>2026-04-11T13:09:48.949Z</time></trkpt><trkpt lat="44.413467819055306" lon="10.135596879770578"><ele>696.0</ele><time>2026-04-11T13:09:49.949Z</time></trkpt><trkpt lat="44.41353890235051" lon="10.135643663597548"><ele>696.0</ele><time>2026-04-11T13:09:50.949Z</time></trkpt><trkpt lat="44.41360360001503" lon="10.135742183460763"><ele>696.0</ele><time>2026-04-11T13:09:51.95Z</time></trkpt><trkpt lat="44.41366314619291" lon="10.135848334931117"><ele>694.5999999999999</ele><time>2026-04-11T13:09:52.95Z</time></trkpt><trkpt lat="44.41372845236456" lon="10.135953646534293"><ele>693.2</ele><time>2026-04-11T13:09:53.95Z</time></trkpt><trkpt lat="44.413794580118896" lon="10.136033589195383"><ele>691.8</ele><time>2026-04-11T13:09:54.95Z</time></trkpt><trkpt lat="44.41387328919623" lon="10.136098350210675"><ele>690.4000000000001</ele><time>2026-04-11T13:09:55.95Z</time></trkpt><trkpt lat="44.413946238598065" lon="10.13615590297942"><ele>689.0</ele><time>2026-04-11T13:09:56.95Z</time></trkpt><trkpt lat="44.41404104032609" lon="10.136200105529294"><ele>689.0</ele><time>2026-04-11T13:09:57.95Z</time></trkpt><trkpt lat="44.414136849582064" lon="10.136211335201118"><ele>689.0</ele><time>2026-04-11T13:09:58.95Z</time></trkpt><trkpt lat="44.414247156338746" lon="10.136170007130497"><ele>689.0</ele><time>2026-04-11T13:09:59.95Z</time></trkpt><trkpt lat="44.41435987345498" lon="10.136162198845048"><ele>689.0</ele><time>2026-04-11T13:10:00.95Z</time></trkpt><trkpt lat="44.41446600793452" lon="10.136177616348249"><ele>689.0</ele><time>2026-04-11T13:10:01.95Z</time></trkpt><trkpt lat="44.41457327994738" lon="10.136200668117473"><ele>691.5</ele><time>2026-04-11T13:10:02.95Z</time></trkpt><trkpt lat="44.414661235752625" lon="10.136266986311082"><ele>694.0</ele><time>2026-04-11T13:10:03.95Z</time></trkpt><trkpt lat="44.414743230722166" lon="10.136332106895237"><ele>696.5</ele><time>2026-04-11T13:10:04.95Z</time></trkpt><trkpt lat="44.41481874670675" lon="10.136387992001607"><ele>699.0</ele><time>2026-04-11T13:10:05.95Z</time></trkpt><trkpt lat="44.414890147556584" lon="10.13642974152528"><ele>701.5</ele><time>2026-04-11T13:10:06.95Z</time></trkpt><trkpt lat="44.41496851842437" lon="10.136475646580323"><ele>704.0</ele><time>2026-04-11T13:10:07.95Z</time></trkpt><trkpt lat="44.41505836413195" lon="10.136526565036496"><ele>701.4000000000001</ele><time>2026-04-11T13:10:08.95Z</time></trkpt><trkpt lat="44.41515024248156" lon="10.13658644595627"><ele>698.8</ele><time>2026-04-11T13:10:09.95Z</time></trkpt><trkpt lat="44.41523672757637" lon="10.136643061949236"><ele>696.2</ele><time>2026-04-11T13:10:10.95Z</time></trkpt><trkpt lat="44.4153287833692" lon="10.136698078648019"><ele>693.5999999999999</ele><time>2026-04-11T13:10:11.95Z</time></trkpt><trkpt lat="44.41542982614645" lon="10.136764863016761"><ele>691.0</ele><time>2026-04-11T13:10:12.95Z</time></trkpt><trkpt lat="44.415539336220355" lon="10.136843313850887"><ele>691.0</ele><time>2026-04-11T13:10:13.95Z</time></trkpt><trkpt lat="44.41566135737544" lon="10.136917552883343"><ele>691.0</ele><time>2026-04-11T13:10:14.95Z</time></trkpt><trkpt lat="44.41578397271731" lon="10.136982028067047"><ele>691.0</ele><time>2026-04-11T13:10:15.95Z</time></trkpt><trkpt lat="44.41591587412095" lon="10.137037851690796"><ele>691.0</ele><time>2026-04-11T13:10:16.95Z</time></trkpt><trkpt lat="44.41606576145396" lon="10.137080650980954"><ele>691.0</ele><time>2026-04-11T13:10:17.95Z</time></trkpt><trkpt lat="44.41622197241497" lon="10.137112473416469"><ele>691.0</ele><time>2026-04-11T13:10:18.95Z</time></trkpt><trkpt lat="44.41638417851546" lon="10.137125089391464"><ele>691.0</ele><time>2026-04-11T13:10:19.95Z</time></trkpt><trkpt lat="44.4165544339867" lon="10.137121191351698"><ele>692.0</ele><time>2026-04-11T13:10:20.95Z</time></trkpt><trkpt lat="44.41672726030493" lon="10.13711608640522"><ele>693.0</ele><time>2026-04-11T13:10:21.95Z</time></trkpt><trkpt lat="44.41689726815629" lon="10.137113467041777"><ele>694.0</ele><time>2026-04-11T13:10:22.95Z</time></trkpt><trkpt lat="44.417076254886624" lon="10.137104215752895"><ele>695.0</ele><time>2026-04-11T13:10:23.95Z</time></trkpt><trkpt lat="44.417256334570936" lon="10.137097915389527"><ele>696.0</ele><time>2026-04-11T13:10:24.95Z</time></trkpt><trkpt lat="44.41743193738768" lon="10.137093181033794"><ele>697.0</ele><time>2026-04-11T13:10:25.95Z</time></trkpt><trkpt lat="44.41758451449268" lon="10.137095975581497"><ele>697.0</ele><time>2026-04-11T13:10:26.95Z</time></trkpt><trkpt lat="44.41771954853556" lon="10.137129717732742"><ele>697.0</ele><time>2026-04-11T13:10:27.95Z</time></trkpt><trkpt lat="44.417841721236066" lon="10.137214373464236"><ele>697.0</ele><time>2026-04-11T13:10:28.95Z</time></trkpt><trkpt lat="44.41795569279275" lon="10.137349521181479"><ele>697.0</ele><time>2026-04-11T13:10:29.95Z</time></trkpt><trkpt lat="44.41806093663782" lon="10.137527607556235"><ele>694.6666666666667</ele><time>2026-04-11T13:10:30.95Z</time></trkpt><trkpt lat="44.41815755688135" lon="10.137719388381262"><ele>692.3333333333334</ele><time>2026-04-11T13:10:31.95Z</time></trkpt><trkpt lat="44.41825844079782" lon="10.13792124993515"><ele>690.0</ele><time>2026-04-11T13:10:32.95Z</time></trkpt><trkpt lat="44.4183623372063" lon="10.13811911725639"><ele>688.0</ele><time>2026-04-11T13:10:33.95Z</time></trkpt><trkpt lat="44.41846420946656" lon="10.138310961173111"><ele>686.0</ele><time>2026-04-11T13:10:34.95Z</time></trkpt><trkpt lat="44.418573840795744" lon="10.138497358753298"><ele>684.0</ele><time>2026-04-11T13:10:35.95Z</time></trkpt><trkpt lat="44.418699916825894" lon="10.138665905058005"><ele>683.6666666666666</ele><time>2026-04-11T13:10:36.95Z</time></trkpt><trkpt lat="44.41884867449414" lon="10.13881493558514"><ele>683.3333333333333</ele><time>2026-04-11T13:10:37.95Z</time></trkpt><trkpt lat="44.419010018079206" lon="10.138953430094453"><ele>683.0</ele><time>2026-04-11T13:10:38.95Z</time></trkpt><trkpt lat="44.419175767241484" lon="10.13908100745671"><ele>683.0</ele><time>2026-04-11T13:10:39.95Z</time></trkpt><trkpt lat="44.419343244651245" lon="10.139220389316895"><ele>683.0</ele><time>2026-04-11T13:10:40.95Z</time></trkpt><trkpt lat="44.4195049843113" lon="10.139366591780762"><ele>683.0</ele><time>2026-04-11T13:10:41.95Z</time></trkpt><trkpt lat="44.41966236402222" lon="10.139512743617246"><ele>684.3333333333333</ele><time>2026-04-11T13:10:42.95Z</time></trkpt><trkpt lat="44.419818166284486" lon="10.139651904229565"><ele>685.6666666666666</ele><time>2026-04-11T13:10:43.95Z</time></trkpt><trkpt lat="44.419960969051566" lon="10.139775451556218"><ele>687.0</ele><time>2026-04-11T13:10:44.95Z</time></trkpt><trkpt lat="44.42010014099478" lon="10.13988833558743"><ele>687.0</ele><time>2026-04-11T13:10:45.95Z</time></trkpt><trkpt lat="44.4202478120406" lon="10.139984802105332"><ele>687.0</ele><time>2026-04-11T13:10:46.95Z</time></trkpt><trkpt lat="44.42040646379841" lon="10.140059971606426"><ele>687.0</ele><time>2026-04-11T13:10:47.95Z</time></trkpt><trkpt lat="44.420576056266995" lon="10.140110762695514"><ele>690.3333333333334</ele><time>2026-04-11T13:10:48.95Z</time></trkpt><trkpt lat="44.42075198893173" lon="10.14016237136436"><ele>693.6666666666667</ele><time>2026-04-11T13:10:49.95Z</time></trkpt><trkpt lat="44.420917067159344" lon="10.140220812629723"><ele>697.0</ele><time>2026-04-11T13:10:50.95Z</time></trkpt><trkpt lat="44.421079352100904" lon="10.140306553815602"><ele>697.0</ele><time>2026-04-11T13:10:51.95Z</time></trkpt><trkpt lat="44.421235820198" lon="10.140434020262795"><ele>697.0</ele><time>2026-04-11T13:10:52.95Z</time></trkpt><trkpt lat="44.421376345067515" lon="10.140606700045335"><ele>697.0</ele><time>2026-04-11T13:10:53.95Z</time></trkpt><trkpt lat="44.42149351905541" lon="10.140817495719675"><ele>698.3333333333334</ele><time>2026-04-11T13:10:54.95Z</time></trkpt><trkpt lat="44.42159029439217" lon="10.141048198881299"><ele>699.6666666666666</ele><time>2026-04-11T13:10:55.95Z</time></trkpt><trkpt lat="44.42167918191686" lon="10.141277176560356"><ele>701.0</ele><time>2026-04-11T13:10:56.95Z</time></trkpt><trkpt lat="44.42176803079314" lon="10.14150137577006"><ele>699.6666666666666</ele><time>2026-04-11T13:10:57.95Z</time></trkpt><trkpt lat="44.4218668018949" lon="10.141717486590524"><ele>698.3333333333334</ele><time>2026-04-11T13:10:58.95Z</time></trkpt><trkpt lat="44.42196033763728" lon="10.141918336041257"><ele>697.0</ele><time>2026-04-11T13:10:59.95Z</time></trkpt><trkpt lat="44.422044380353576" lon="10.14213588824324"><ele>697.0</ele><time>2026-04-11T13:11:00.95Z</time></trkpt><trkpt lat="44.42209049189191" lon="10.142378345180564"><ele>697.0</ele><time>2026-04-11T13:11:01.95Z</time></trkpt><trkpt lat="44.42213352773729" lon="10.142629792480871"><ele>697.0</ele><time>2026-04-11T13:11:02.95Z</time></trkpt><trkpt lat="44.422155538788004" lon="10.142883867208239"><ele>705.6666666666667</ele><time>2026-04-11T13:11:03.95Z</time></trkpt><trkpt lat="44.42215876584875" lon="10.143115316757205"><ele>714.3333333333334</ele><time>2026-04-11T13:11:04.95Z</time></trkpt><trkpt lat="44.42215353176574" lon="10.143330178692478"><ele>723.0</ele><time>2026-04-11T13:11:05.95Z</time></trkpt><trkpt lat="44.422156640143925" lon="10.1435320753111"><ele>723.0</ele><time>2026-04-11T13:11:06.95Z</time></trkpt><trkpt lat="44.42219025979651" lon="10.143734930180901"><ele>723.0</ele><time>2026-04-11T13:11:07.95Z</time></trkpt><trkpt lat="44.422248184564175" lon="10.143954305387616"><ele>723.0</ele><time>2026-04-11T13:11:08.95Z</time></trkpt><trkpt lat="44.42230767968496" lon="10.144176204895539"><ele>718.75</ele><time>2026-04-11T13:11:09.95Z</time></trkpt><trkpt lat="44.4223522494849" lon="10.144369319988517"><ele>714.5</ele><time>2026-04-11T13:11:10.95Z</time></trkpt><trkpt lat="44.42238849305403" lon="10.144545363091504"><ele>710.25</ele><time>2026-04-11T13:11:11.95Z</time></trkpt><trkpt lat="44.42243454812434" lon="10.144708577509325"><ele>706.0</ele><time>2026-04-11T13:11:12.95Z</time></trkpt><trkpt lat="44.42251850010918" lon="10.144864113974986"><ele>702.75</ele><time>2026-04-11T13:11:13.95Z</time></trkpt><trkpt lat="44.42262047644113" lon="10.145000077541324"><ele>699.5</ele><time>2026-04-11T13:11:14.95Z</time></trkpt><trkpt lat="44.42273385271707" lon="10.145131048418357"><ele>696.25</ele><time>2026-04-11T13:11:15.95Z</time></trkpt><trkpt lat="44.42285762116279" lon="10.145257380880466"><ele>693.0</ele><time>2026-04-11T13:11:16.95Z</time></trkpt><trkpt lat="44.42298057933438" lon="10.14538753567402"><ele>698.0</ele><time>2026-04-11T13:11:17.95Z</time></trkpt><trkpt lat="44.42309276158906" lon="10.145492790359976"><ele>703.0</ele><time>2026-04-11T13:11:18.95Z</time></trkpt><trkpt lat="44.42318985615041" lon="10.145583195249207"><ele>708.0</ele><time>2026-04-11T13:11:19.95Z</time></trkpt><trkpt lat="44.423291951409176" lon="10.14564040727539"><ele>713.0</ele><time>2026-04-11T13:11:20.95Z</time></trkpt><trkpt lat="44.4234295364431" lon="10.14566710549153"><ele>713.0</ele><time>2026-04-11T13:11:21.95Z</time></trkpt><trkpt lat="44.42359591893028" lon="10.14568680092387"><ele>713.0</ele><time>2026-04-11T13:11:22.95Z</time></trkpt><trkpt lat="44.423749230573726" lon="10.145722468144037"><ele>713.0</ele><time>2026-04-11T13:11:23.95Z</time></trkpt><trkpt lat="44.42390574252851" lon="10.145755726471666"><ele>709.5</ele><time>2026-04-11T13:11:24.95Z</time></trkpt><trkpt lat="44.42405378645826" lon="10.145793042950677"><ele>706.0</ele><time>2026-04-11T13:11:25.95Z</time></trkpt><trkpt lat="44.42419135808402" lon="10.14584494276315"><ele>702.5</ele><time>2026-04-11T13:11:26.951Z</time></trkpt><trkpt lat="44.4243250297562" lon="10.145921974901679"><ele>699.0</ele><time>2026-04-11T13:11:27.951Z</time></trkpt><trkpt lat="44.424471726952945" lon="10.146023834347229"><ele>699.0</ele><time>2026-04-11T13:11:28.951Z</time></trkpt><trkpt lat="44.42461922727226" lon="10.146130312693403"><ele>699.0</ele><time>2026-04-11T13:11:29.951Z</time></trkpt><trkpt lat="44.42477161612068" lon="10.146225694357208"><ele>699.0</ele><time>2026-04-11T13:11:30.949Z</time></trkpt><trkpt lat="44.42491478979468" lon="10.146311552331422"><ele>698.0</ele><time>2026-04-11T13:11:31.948Z</time></trkpt><trkpt lat="44.4250393347719" lon="10.146392821622406"><ele>697.0</ele><time>2026-04-11T13:11:32.948Z</time></trkpt><trkpt lat="44.42515038900897" lon="10.146483601556094"><ele>696.0</ele><time>2026-04-11T13:11:33.948Z</time></trkpt><trkpt lat="44.42525214568869" lon="10.146584487307743"><ele>695.0</ele><time>2026-04-11T13:11:34.949Z</time></trkpt><trkpt lat="44.42534183318" lon="10.146720966757691"><ele>695.0</ele><time>2026-04-11T13:11:35.949Z</time></trkpt><trkpt lat="44.42540761829816" lon="10.146889002535188"><ele>695.0</ele><time>2026-04-11T13:11:36.948Z</time></trkpt><trkpt lat="44.425451260782495" lon="10.147080745092499"><ele>695.0</ele><time>2026-04-11T13:11:37.948Z</time></trkpt><trkpt lat="44.4254691789441" lon="10.147272149649469"><ele>695.0</ele><time>2026-04-11T13:11:38.948Z</time></trkpt><trkpt lat="44.425457713343945" lon="10.14747402448002"><ele>694.0</ele><time>2026-04-11T13:11:39.949Z</time></trkpt><trkpt lat="44.42541776456787" lon="10.147671739076813"><ele>693.0</ele><time>2026-04-11T13:11:40.949Z</time></trkpt><trkpt lat="44.42536717439565" lon="10.147852200508913"><ele>692.0</ele><time>2026-04-11T13:11:41.949Z</time></trkpt><trkpt lat="44.42529647114332" lon="10.148017112823373"><ele>691.0</ele><time>2026-04-11T13:11:42.949Z</time></trkpt><trkpt lat="44.425202762581016" lon="10.14815844318698"><ele>692.75</ele><time>2026-04-11T13:11:43.948Z</time></trkpt><trkpt lat="44.42508937162318" lon="10.148276164323756"><ele>694.5</ele><time>2026-04-11T13:11:44.949Z</time></trkpt><trkpt lat="44.42495002788884" lon="10.148360771424"><ele>696.25</ele><time>2026-04-11T13:11:45.949Z</time></trkpt><trkpt lat="44.4248009112882" lon="10.148414493509797"><ele>698.0</ele><time>2026-04-11T13:11:46.949Z</time></trkpt><trkpt lat="44.424654029903685" lon="10.148443756343289"><ele>695.5</ele><time>2026-04-11T13:11:47.949Z</time></trkpt><trkpt lat="44.42453482589971" lon="10.148454336312723"><ele>693.0</ele><time>2026-04-11T13:11:48.949Z</time></trkpt><trkpt lat="44.424425613407614" lon="10.148504759568667"><ele>690.5</ele><time>2026-04-11T13:11:49.949Z</time></trkpt><trkpt lat="44.42432664156636" lon="10.148595610867083"><ele>688.0</ele><time>2026-04-11T13:11:50.949Z</time></trkpt><trkpt lat="44.42424647293474" lon="10.148711279014204"><ele>688.0</ele><time>2026-04-11T13:11:51.949Z</time></trkpt><trkpt lat="44.4241854687983" lon="10.148863515728626"><ele>688.0</ele><time>2026-04-11T13:11:52.949Z</time></trkpt><trkpt lat="44.4241547795251" lon="10.149045703067035"><ele>688.0</ele><time>2026-04-11T13:11:53.949Z</time></trkpt><trkpt lat="44.424141859730845" lon="10.149254388746188"><ele>688.0</ele><time>2026-04-11T13:11:54.949Z</time></trkpt><trkpt lat="44.42417228855804" lon="10.149470510445004"><ele>687.6666666666667</ele><time>2026-04-11T13:11:55.949Z</time></trkpt><trkpt lat="44.42415886679923" lon="10.14971039857987"><ele>687.3333333333334</ele><time>2026-04-11T13:11:56.949Z</time></trkpt><trkpt lat="44.42411077044083" lon="10.14992606549237"><ele>687.0</ele><time>2026-04-11T13:11:57.949Z</time></trkpt><trkpt lat="44.424078032251415" lon="10.150119371192215"><ele>687.0</ele><time>2026-04-11T13:11:58.949Z</time></trkpt><trkpt lat="44.4240603936542" lon="10.150297994063147"><ele>687.0</ele><time>2026-04-11T13:11:59.949Z</time></trkpt><trkpt lat="44.42407631961096" lon="10.150482182554176"><ele>687.0</ele><time>2026-04-11T13:12:00.949Z</time></trkpt><trkpt lat="44.424131250179435" lon="10.150668575981692"><ele>687.0</ele><time>2026-04-11T13:12:01.949Z</time></trkpt><trkpt lat="44.42422973293006" lon="10.150848132164143"><ele>684.3333333333334</ele><time>2026-04-11T13:12:02.949Z</time></trkpt><trkpt lat="44.42434227246694" lon="10.151029262553815"><ele>681.6666666666667</ele><time>2026-04-11T13:12:03.949Z</time></trkpt><trkpt lat="44.424464039579696" lon="10.151226960025598"><ele>679.0</ele><time>2026-04-11T13:12:04.949Z</time></trkpt><trkpt lat="44.42458214903548" lon="10.151428839880166"><ele>682.0</ele><time>2026-04-11T13:12:05.949Z</time></trkpt><trkpt lat="44.42469284073357" lon="10.151611481008747"><ele>685.0</ele><time>2026-04-11T13:12:06.949Z</time></trkpt><trkpt lat="44.42480084342424" lon="10.151765987327739"><ele>688.0</ele><time>2026-04-11T13:12:07.949Z</time></trkpt><trkpt lat="44.4248997164158" lon="10.151907994732206"><ele>688.0</ele><time>2026-04-11T13:12:08.949Z</time></trkpt><trkpt lat="44.424982213338794" lon="10.152046151148058"><ele>688.0</ele><time>2026-04-11T13:12:09.949Z</time></trkpt><trkpt lat="44.42502548112434" lon="10.152223976031872"><ele>688.0</ele><time>2026-04-11T13:12:10.949Z</time></trkpt><trkpt lat="44.425022240922495" lon="10.152421007149426"><ele>688.0</ele><time>2026-04-11T13:12:11.949Z</time></trkpt><trkpt lat="44.42501641552707" lon="10.152584064380456"><ele>682.0</ele><time>2026-04-11T13:12:12.949Z</time></trkpt><trkpt lat="44.425051363396186" lon="10.152696946618715"><ele>676.0</ele><time>2026-04-11T13:12:13.949Z</time></trkpt><trkpt lat="44.425140261749995" lon="10.152797822119096"><ele>670.0</ele><time>2026-04-11T13:12:14.949Z</time></trkpt><trkpt lat="44.42526203021743" lon="10.152859048454367"><ele>664.0</ele><time>2026-04-11T13:12:15.949Z</time></trkpt><trkpt lat="44.4253875389385" lon="10.152885922764904"><ele>669.5</ele><time>2026-04-11T13:12:16.949Z</time></trkpt><trkpt lat="44.42549425153052" lon="10.152917731886543"><ele>675.0</ele><time>2026-04-11T13:12:17.949Z</time></trkpt><trkpt lat="44.42560106981163" lon="10.152959686041275"><ele>680.5</ele><time>2026-04-11T13:12:18.949Z</time></trkpt><trkpt lat="44.425708031332256" lon="10.153026078558444"><ele>686.0</ele><time>2026-04-11T13:12:19.949Z</time></trkpt><trkpt lat="44.42581159271086" lon="10.153152988130033"><ele>680.3333333333333</ele><time>2026-04-11T13:12:20.949Z</time></trkpt><trkpt lat="44.42587782034564" lon="10.153347242421606"><ele>674.6666666666666</ele><time>2026-04-11T13:12:21.949Z</time></trkpt><trkpt lat="44.42590824509284" lon="10.153582736047426"><ele>669.0</ele><time>2026-04-11T13:12:22.949Z</time></trkpt><trkpt lat="44.425930595523425" lon="10.153824470674897"><ele>662.3333333333334</ele><time>2026-04-11T13:12:23.949Z</time></trkpt><trkpt lat="44.42598000513413" lon="10.154053360781306"><ele>655.6666666666667</ele><time>2026-04-11T13:12:24.949Z</time></trkpt><trkpt lat="44.42604939173709" lon="10.154265023682044"><ele>649.0</ele><time>2026-04-11T13:12:25.949Z</time></trkpt><trkpt lat="44.42611581985632" lon="10.154455978609283"><ele>649.0</ele><time>2026-04-11T13:12:26.949Z</time></trkpt><trkpt lat="44.426174939892974" lon="10.154613326833537"><ele>649.0</ele><time>2026-04-11T13:12:27.949Z</time></trkpt><trkpt lat="44.42625643594883" lon="10.154754111489478"><ele>649.0</ele><time>2026-04-11T13:12:28.949Z</time></trkpt><trkpt lat="44.42636816724455" lon="10.15486832373416"><ele>649.0</ele><time>2026-04-11T13:12:29.949Z</time></trkpt><trkpt lat="44.42651872758603" lon="10.154966880490583"><ele>653.6666666666667</ele><time>2026-04-11T13:12:30.949Z</time></trkpt><trkpt lat="44.42667689272182" lon="10.155067671586709"><ele>658.3333333333334</ele><time>2026-04-11T13:12:31.949Z</time></trkpt><trkpt lat="44.426845520409316" lon="10.155193801385785"><ele>663.0</ele><time>2026-04-11T13:12:32.949Z</time></trkpt><trkpt lat="44.42700967252676" lon="10.155340824896593"><ele>662.3333333333334</ele><time>2026-04-11T13:12:33.949Z</time></trkpt><trkpt lat="44.427165644212515" lon="10.155505326983993"><ele>661.6666666666667</ele><time>2026-04-11T13:12:34.949Z</time></trkpt><trkpt lat="44.42730342588899" lon="10.155684466340611"><ele>661.0</ele><time>2026-04-11T13:12:35.949Z</time></trkpt><trkpt lat="44.42743811169313" lon="10.155876764831895"><ele>661.0</ele><time>2026-04-11T13:12:36.949Z</time></trkpt><trkpt lat="44.427564785071716" lon="10.156085803959073"><ele>661.0</ele><time>2026-04-11T13:12:37.949Z</time></trkpt><trkpt lat="44.42768682047762" lon="10.15629211427765"><ele>661.0</ele><time>2026-04-11T13:12:38.949Z</time></trkpt><trkpt lat="44.42780571625822" lon="10.1565010485378"><ele>664.3333333333334</ele><time>2026-04-11T13:12:39.949Z</time></trkpt><trkpt lat="44.427918089692824" lon="10.156737300161218"><ele>667.6666666666666</ele><time>2026-04-11T13:12:40.949Z</time></trkpt><trkpt lat="44.42800744341668" lon="10.156989016142413"><ele>671.0</ele><time>2026-04-11T13:12:41.949Z</time></trkpt><trkpt lat="44.428091060809784" lon="10.15722917476276"><ele>666.3333333333333</ele><time>2026-04-11T13:12:42.949Z</time></trkpt><trkpt lat="44.42818799000829" lon="10.157465121526364"><ele>661.6666666666666</ele><time>2026-04-11T13:12:43.949Z</time></trkpt><trkpt lat="44.42829091507168" lon="10.157688155070257"><ele>657.0</ele><time>2026-04-11T13:12:44.949Z</time></trkpt><trkpt lat="44.42841328707315" lon="10.157883213230539"><ele>657.0</ele><time>2026-04-11T13:12:45.949Z</time></trkpt><trkpt lat="44.428544873051564" lon="10.158058946790112"><ele>657.0</ele><time>2026-04-11T13:12:46.949Z</time></trkpt><trkpt lat="44.42865960544932" lon="10.158231757682655"><ele>657.0</ele><time>2026-04-11T13:12:47.949Z</time></trkpt><trkpt lat="44.428765129029244" lon="10.158390698938904"><ele>654.3333333333334</ele><time>2026-04-11T13:12:48.949Z</time></trkpt><trkpt lat="44.42888781858863" lon="10.158525272908047"><ele>651.6666666666667</ele><time>2026-04-11T13:12:49.949Z</time></trkpt><trkpt lat="44.42904024881244" lon="10.158638045734842"><ele>649.0</ele><time>2026-04-11T13:12:50.949Z</time></trkpt><trkpt lat="44.42919649609366" lon="10.158718462134617"><ele>649.0</ele><time>2026-04-11T13:12:51.949Z</time></trkpt><trkpt lat="44.42935299859562" lon="10.158764746658624"><ele>649.0</ele><time>2026-04-11T13:12:52.949Z</time></trkpt><trkpt lat="44.429481839542845" lon="10.158821964560907"><ele>649.0</ele><time>2026-04-11T13:12:53.949Z</time></trkpt><trkpt lat="44.42958366700218" lon="10.158903374095356"><ele>649.0</ele><time>2026-04-11T13:12:54.949Z</time></trkpt><trkpt lat="44.42964944069073" lon="10.159024401431799"><ele>649.25</ele><time>2026-04-11T13:12:55.949Z</time></trkpt><trkpt lat="44.42967146680898" lon="10.159188678982463"><ele>649.5</ele><time>2026-04-11T13:12:56.949Z</time></trkpt><trkpt lat="44.42964605095964" lon="10.159363392941492"><ele>649.75</ele><time>2026-04-11T13:12:57.949Z</time></trkpt><trkpt lat="44.4296156295797" lon="10.159498524121606"><ele>650.0</ele><time>2026-04-11T13:12:58.949Z</time></trkpt><trkpt lat="44.42964289740712" lon="10.159639507826903"><ele>650.0</ele><time>2026-04-11T13:12:59.949Z</time></trkpt><trkpt lat="44.42972301961507" lon="10.159763110516955"><ele>650.0</ele><time>2026-04-11T13:13:00.949Z</time></trkpt><trkpt lat="44.429833966556494" lon="10.159838348834635"><ele>650.0</ele><time>2026-04-11T13:13:01.949Z</time></trkpt><trkpt lat="44.429960171194345" lon="10.159858973913336"><ele>650.0</ele><time>2026-04-11T13:13:02.949Z</time></trkpt><trkpt lat="44.43007276899289" lon="10.159861056576778"><ele>650.0</ele><time>2026-04-11T13:13:03.949Z</time></trkpt><trkpt lat="44.430205501230944" lon="10.159831818881264"><ele>650.0</ele><time>2026-04-11T13:13:04.949Z</time></trkpt><trkpt lat="44.43032249923199" lon="10.159914517637127"><ele>650.0</ele><time>2026-04-11T13:13:05.949Z</time></trkpt><trkpt lat="44.43041255180734" lon="10.160052290317372"><ele>650.0</ele><time>2026-04-11T13:13:06.949Z</time></trkpt><trkpt lat="44.43046040720185" lon="10.160230737034114"><ele>650.5</ele><time>2026-04-11T13:13:07.949Z</time></trkpt><trkpt lat="44.43047686228995" lon="10.160430595095358"><ele>651.0</ele><time>2026-04-11T13:13:08.949Z</time></trkpt><trkpt lat="44.430461128878434" lon="10.160632890732941"><ele>651.5</ele><time>2026-04-11T13:13:09.949Z</time></trkpt><trkpt lat="44.4304107144014" lon="10.160842626758459"><ele>652.0</ele><time>2026-04-11T13:13:10.949Z</time></trkpt><trkpt lat="44.43036518606149" lon="10.161056918199595"><ele>645.25</ele><time>2026-04-11T13:13:11.949Z</time></trkpt><trkpt lat="44.430336246754564" lon="10.161252949709864"><ele>638.5</ele><time>2026-04-11T13:13:12.949Z</time></trkpt><trkpt lat="44.43032169121885" lon="10.161438320693328"><ele>631.75</ele><time>2026-04-11T13:13:13.949Z</time></trkpt><trkpt lat="44.43032130715355" lon="10.161617360581689"><ele>625.0</ele><time>2026-04-11T13:13:14.949Z</time></trkpt><trkpt lat="44.430350959918854" lon="10.161813895785002"><ele>621.6666666666667</ele><time>2026-04-11T13:13:15.949Z</time></trkpt><trkpt lat="44.43042765057934" lon="10.16203056151211"><ele>618.3333333333334</ele><time>2026-04-11T13:13:16.949Z</time></trkpt><trkpt lat="44.430518091028745" lon="10.162249132151473"><ele>615.0</ele><time>2026-04-11T13:13:17.949Z</time></trkpt><trkpt lat="44.430577008292836" lon="10.16249289002271"><ele>621.6666666666666</ele><time>2026-04-11T13:13:18.949Z</time></trkpt><trkpt lat="44.43062292999209" lon="10.162714789739036"><ele>628.3333333333333</ele><time>2026-04-11T13:13:19.95Z</time></trkpt><trkpt lat="44.43066140343674" lon="10.16291890200553"><ele>635.0</ele><time>2026-04-11T13:13:20.95Z</time></trkpt><trkpt lat="44.43072246179047" lon="10.163096263971287"><ele>630.3333333333333</ele><time>2026-04-11T13:13:21.95Z</time></trkpt><trkpt lat="44.43081837951016" lon="10.163257947369337"><ele>625.6666666666666</ele><time>2026-04-11T13:13:22.95Z</time></trkpt><trkpt lat="44.43094496898507" lon="10.163399724566375"><ele>621.0</ele><time>2026-04-11T13:13:23.95Z</time></trkpt><trkpt lat="44.43106769240505" lon="10.163523810234075"><ele>621.0</ele><time>2026-04-11T13:13:24.95Z</time></trkpt><trkpt lat="44.431164690431956" lon="10.163679123767489"><ele>621.0</ele><time>2026-04-11T13:13:25.95Z</time></trkpt><trkpt lat="44.43122256223769" lon="10.163898743755732"><ele>621.0</ele><time>2026-04-11T13:13:26.95Z</time></trkpt><trkpt lat="44.431242291870554" lon="10.164133609483116"><ele>617.0</ele><time>2026-04-11T13:13:27.95Z</time></trkpt><trkpt lat="44.43125033132369" lon="10.164366092624755"><ele>613.0</ele><time>2026-04-11T13:13:28.95Z</time></trkpt><trkpt lat="44.431254834788795" lon="10.164597101521766"><ele>609.0</ele><time>2026-04-11T13:13:29.95Z</time></trkpt><trkpt lat="44.43127547056859" lon="10.164817272420903"><ele>614.0</ele><time>2026-04-11T13:13:30.95Z</time></trkpt><trkpt lat="44.43130155459294" lon="10.165023962542467"><ele>619.0</ele><time>2026-04-11T13:13:31.95Z</time></trkpt><trkpt lat="44.4313523020029" lon="10.165228164241526"><ele>624.0</ele><time>2026-04-11T13:13:32.95Z</time></trkpt><trkpt lat="44.431404298416915" lon="10.165433936015551"><ele>624.0</ele><time>2026-04-11T13:13:33.95Z</time></trkpt><trkpt lat="44.431466732224045" lon="10.165614275910196"><ele>624.0</ele><time>2026-04-11T13:13:34.95Z</time></trkpt><trkpt lat="44.43154163630922" lon="10.165774479160403"><ele>624.0</ele><time>2026-04-11T13:13:35.95Z</time></trkpt><trkpt lat="44.431619447181106" lon="10.165924546446362"><ele>624.0</ele><time>2026-04-11T13:13:36.947Z</time></trkpt><trkpt lat="44.43167192153711" lon="10.166087129388305"><ele>619.5</ele><time>2026-04-11T13:13:37.947Z</time></trkpt><trkpt lat="44.43167280525465" lon="10.166276337568238"><ele>615.0</ele><time>2026-04-11T13:13:38.947Z</time></trkpt><trkpt lat="44.43163093270323" lon="10.166452167917566"><ele>610.5</ele><time>2026-04-11T13:13:39.948Z</time></trkpt><trkpt lat="44.431572176411684" lon="10.166620690427642"><ele>606.0</ele><time>2026-04-11T13:13:40.948Z</time></trkpt><trkpt lat="44.43148586641858" lon="10.166804659578741"><ele>605.0</ele><time>2026-04-11T13:13:41.948Z</time></trkpt><trkpt lat="44.43140941081107" lon="10.166978475422129"><ele>604.0</ele><time>2026-04-11T13:13:42.947Z</time></trkpt><trkpt lat="44.43135830904539" lon="10.167155324423135"><ele>603.0</ele><time>2026-04-11T13:13:43.947Z</time></trkpt><trkpt lat="44.431311906539804" lon="10.167331769020599"><ele>602.0</ele><time>2026-04-11T13:13:44.947Z</time></trkpt><trkpt lat="44.43126984796965" lon="10.167499398213952"><ele>597.6</ele><time>2026-04-11T13:13:45.948Z</time></trkpt><trkpt lat="44.43123689511292" lon="10.167654646875999"><ele>593.2</ele><time>2026-04-11T13:13:46.948Z</time></trkpt><trkpt lat="44.431221808525684" lon="10.167796564084679"><ele>588.8</ele><time>2026-04-11T13:13:47.948Z</time></trkpt><trkpt lat="44.43122562635479" lon="10.167943356010914"><ele>584.4</ele><time>2026-04-11T13:13:48.947Z</time></trkpt><trkpt lat="44.431247146758544" lon="10.16810659712218"><ele>580.0</ele><time>2026-04-11T13:13:49.947Z</time></trkpt><trkpt lat="44.43128818800864" lon="10.168307375681005"><ele>586.6666666666667</ele><time>2026-04-11T13:13:50.947Z</time></trkpt><trkpt lat="44.43137353203004" lon="10.16854173879506"><ele>593.3333333333334</ele><time>2026-04-11T13:13:51.947Z</time></trkpt><trkpt lat="44.4314535474016" lon="10.168769710405874"><ele>600.0</ele><time>2026-04-11T13:13:52.947Z</time></trkpt><trkpt lat="44.431510889015755" lon="10.168972584628706"><ele>596.0</ele><time>2026-04-11T13:13:53.947Z</time></trkpt><trkpt lat="44.43158967062252" lon="10.1691236759163"><ele>592.0</ele><time>2026-04-11T13:13:54.947Z</time></trkpt><trkpt lat="44.43170009650647" lon="10.169242976413157"><ele>588.0</ele><time>2026-04-11T13:13:55.947Z</time></trkpt><trkpt lat="44.43180768203195" lon="10.169347066063345"><ele>584.0</ele><time>2026-04-11T13:13:56.947Z</time></trkpt><trkpt lat="44.43191781336267" lon="10.169421871436814"><ele>584.0</ele><time>2026-04-11T13:13:57.947Z</time></trkpt><trkpt lat="44.432053309514714" lon="10.169455103379425"><ele>584.0</ele><time>2026-04-11T13:13:58.947Z</time></trkpt><trkpt lat="44.43221384821281" lon="10.169458074579873"><ele>584.0</ele><time>2026-04-11T13:13:59.947Z</time></trkpt><trkpt lat="44.43235561443691" lon="10.169459882617163"><ele>584.0</ele><time>2026-04-11T13:14:00.947Z</time></trkpt><trkpt lat="44.43248012566257" lon="10.169465750522699"><ele>584.6</ele><time>2026-04-11T13:14:01.947Z</time></trkpt><trkpt lat="44.43259859174637" lon="10.169479438781726"><ele>585.2</ele><time>2026-04-11T13:14:02.948Z</time></trkpt><trkpt lat="44.43269695088098" lon="10.169493447389524"><ele>585.8000000000001</ele><time>2026-04-11T13:14:03.948Z</time></trkpt><trkpt lat="44.43276206176297" lon="10.169566535334242"><ele>586.4</ele><time>2026-04-11T13:14:04.948Z</time></trkpt><trkpt lat="44.43281379669536" lon="10.16968784706232"><ele>587.0</ele><time>2026-04-11T13:14:05.948Z</time></trkpt><trkpt lat="44.43285905207209" lon="10.169829168953111"><ele>584.5</ele><time>2026-04-11T13:14:06.948Z</time></trkpt><trkpt lat="44.43289905748107" lon="10.16997287216936"><ele>582.0</ele><time>2026-04-11T13:14:07.948Z</time></trkpt><trkpt lat="44.43295828074489" lon="10.170103365427249"><ele>579.5</ele><time>2026-04-11T13:14:08.948Z</time></trkpt><trkpt lat="44.43305056310659" lon="10.170214821920556"><ele>577.0</ele><time>2026-04-11T13:14:09.948Z</time></trkpt><trkpt lat="44.43315492168618" lon="10.170313452320723"><ele>577.0</ele><time>2026-04-11T13:14:10.948Z</time></trkpt><trkpt lat="44.43325457448816" lon="10.170412807363723"><ele>577.0</ele><time>2026-04-11T13:14:11.948Z</time></trkpt><trkpt lat="44.433360499561225" lon="10.170507928964792"><ele>577.0</ele><time>2026-04-11T13:14:12.948Z</time></trkpt><trkpt lat="44.43344734804098" lon="10.170636621606452"><ele>577.0</ele><time>2026-04-11T13:14:13.948Z</time></trkpt><trkpt lat="44.43350028637329" lon="10.170793883062965"><ele>575.25</ele><time>2026-04-11T13:14:14.948Z</time></trkpt><trkpt lat="44.43352362965374" lon="10.170989765356737"><ele>573.5</ele><time>2026-04-11T13:14:15.948Z</time></trkpt><trkpt lat="44.433544184081676" lon="10.171193339830026"><ele>571.75</ele><time>2026-04-11T13:14:16.948Z</time></trkpt><trkpt lat="44.433580880234025" lon="10.171405187991764"><ele>570.0</ele><time>2026-04-11T13:14:17.948Z</time></trkpt><trkpt lat="44.43362423798936" lon="10.171622267870212"><ele>568.6666666666666</ele><time>2026-04-11T13:14:18.948Z</time></trkpt><trkpt lat="44.43366563470019" lon="10.171834622592836"><ele>567.3333333333333</ele><time>2026-04-11T13:14:19.948Z</time></trkpt><trkpt lat="44.433703507599695" lon="10.172039774493824"><ele>566.0</ele><time>2026-04-11T13:14:20.948Z</time></trkpt><trkpt lat="44.433738263247676" lon="10.172235469791982"><ele>565.75</ele><time>2026-04-11T13:14:21.948Z</time></trkpt><trkpt lat="44.433772389236125" lon="10.17241692691289"><ele>565.5</ele><time>2026-04-11T13:14:22.948Z</time></trkpt><trkpt lat="44.433807999059844" lon="10.172576130338763"><ele>565.25</ele><time>2026-04-11T13:14:23.948Z</time></trkpt><trkpt lat="44.433866391309145" lon="10.172731654397278"><ele>565.0</ele><time>2026-04-11T13:14:24.948Z</time></trkpt><trkpt lat="44.43394952948935" lon="10.172886945217837"><ele>565.0</ele><time>2026-04-11T13:14:25.948Z</time></trkpt><trkpt lat="44.4340550087928" lon="10.173018896569191"><ele>565.0</ele><time>2026-04-11T13:14:26.948Z</time></trkpt><trkpt lat="44.43416272924165" lon="10.173152774065503"><ele>565.0</ele><time>2026-04-11T13:14:27.948Z</time></trkpt><trkpt lat="44.43426119199454" lon="10.173284872529123"><ele>565.0</ele><time>2026-04-11T13:14:28.948Z</time></trkpt><trkpt lat="44.43435494001496" lon="10.173414842191447"><ele>568.5</ele><time>2026-04-11T13:14:29.948Z</time></trkpt><trkpt lat="44.434439605808066" lon="10.17355846292531"><ele>572.0</ele><time>2026-04-11T13:14:30.948Z</time></trkpt><trkpt lat="44.43451384087061" lon="10.173728423305214"><ele>575.5</ele><time>2026-04-11T13:14:31.948Z</time></trkpt><trkpt lat="44.43456823609387" lon="10.173930220678134"><ele>579.0</ele><time>2026-04-11T13:14:32.948Z</time></trkpt><trkpt lat="44.43461921462394" lon="10.174134815611135"><ele>577.3333333333334</ele><time>2026-04-11T13:14:33.948Z</time></trkpt><trkpt lat="44.43467798795538" lon="10.174346293565433"><ele>575.6666666666667</ele><time>2026-04-11T13:14:34.948Z</time></trkpt><trkpt lat="44.43473930758496" lon="10.174558927022579"><ele>574.0</ele><time>2026-04-11T13:14:35.948Z</time></trkpt><trkpt lat="44.43480346895958" lon="10.174771789396532"><ele>575.6666666666667</ele><time>2026-04-11T13:14:36.948Z</time></trkpt><trkpt lat="44.43486845331659" lon="10.17498028309964"><ele>577.3333333333334</ele><time>2026-04-11T13:14:37.948Z</time></trkpt><trkpt lat="44.434925866229605" lon="10.175187514569117"><ele>579.0</ele><time>2026-04-11T13:14:38.948Z</time></trkpt><trkpt lat="44.43497167845028" lon="10.175398695503487"><ele>579.0</ele><time>2026-04-11T13:14:39.948Z</time></trkpt><trkpt lat="44.43499097784288" lon="10.17561509839482"><ele>579.0</ele><time>2026-04-11T13:14:40.948Z</time></trkpt><trkpt lat="44.43497933309489" lon="10.175822021010013"><ele>579.0</ele><time>2026-04-11T13:14:41.948Z</time></trkpt><trkpt lat="44.43497279272548" lon="10.176016302103196"><ele>579.0</ele><time>2026-04-11T13:14:42.948Z</time></trkpt><trkpt lat="44.43499275667455" lon="10.176202738363829"><ele>581.6666666666666</ele><time>2026-04-11T13:14:43.948Z</time></trkpt><trkpt lat="44.435046490286986" lon="10.176387178822866"><ele>584.3333333333333</ele><time>2026-04-11T13:14:44.948Z</time></trkpt><trkpt lat="44.43513176099813" lon="10.176579158414032"><ele>587.0</ele><time>2026-04-11T13:14:45.948Z</time></trkpt><trkpt lat="44.43522992177118" lon="10.176788608647017"><ele>587.0</ele><time>2026-04-11T13:14:46.948Z</time></trkpt><trkpt lat="44.43533440844008" lon="10.177001403614346"><ele>587.0</ele><time>2026-04-11T13:14:47.948Z</time></trkpt><trkpt lat="44.43544635390305" lon="10.177210287840566"><ele>587.0</ele><time>2026-04-11T13:14:48.948Z</time></trkpt><trkpt lat="44.43556664845007" lon="10.177420201800922"><ele>587.0</ele><time>2026-04-11T13:14:49.948Z</time></trkpt><trkpt lat="44.43568132677848" lon="10.177636404594875"><ele>587.0</ele><time>2026-04-11T13:14:50.948Z</time></trkpt><trkpt lat="44.43578317109467" lon="10.177841759573926"><ele>587.0</ele><time>2026-04-11T13:14:51.948Z</time></trkpt><trkpt lat="44.4358750252124" lon="10.178023197058591"><ele>591.0</ele><time>2026-04-11T13:14:52.948Z</time></trkpt><trkpt lat="44.43596547906914" lon="10.17819883751175"><ele>595.0</ele><time>2026-04-11T13:14:53.948Z</time></trkpt><trkpt lat="44.436045942715296" lon="10.178394461024556"><ele>599.0</ele><time>2026-04-11T13:14:54.948Z</time></trkpt><trkpt lat="44.43610217383209" lon="10.178619330406104"><ele>599.0</ele><time>2026-04-11T13:14:55.948Z</time></trkpt><trkpt lat="44.436144099567684" lon="10.178852828009214"><ele>599.0</ele><time>2026-04-11T13:14:56.948Z</time></trkpt><trkpt lat="44.43619201380307" lon="10.179079552104321"><ele>599.0</ele><time>2026-04-11T13:14:57.948Z</time></trkpt><trkpt lat="44.43624162704261" lon="10.179273914698925"><ele>598.75</ele><time>2026-04-11T13:14:58.948Z</time></trkpt><trkpt lat="44.436286786444356" lon="10.179455005087757"><ele>598.5</ele><time>2026-04-11T13:14:59.948Z</time></trkpt><trkpt lat="44.43630422435801" lon="10.179654151307725"><ele>598.25</ele><time>2026-04-11T13:15:00.948Z</time></trkpt><trkpt lat="44.43629575169339" lon="10.179857284076968"><ele>598.0</ele><time>2026-04-11T13:15:01.948Z</time></trkpt><trkpt lat="44.436308235901336" lon="10.180066779722226"><ele>598.0</ele><time>2026-04-11T13:15:02.948Z</time></trkpt><trkpt lat="44.43634220219088" lon="10.180286002736805"><ele>598.0</ele><time>2026-04-11T13:15:03.948Z</time></trkpt><trkpt lat="44.43640446713843" lon="10.180517534902306"><ele>598.0</ele><time>2026-04-11T13:15:04.948Z</time></trkpt><trkpt lat="44.43648018182075" lon="10.180752584012172"><ele>600.0</ele><time>2026-04-11T13:15:05.948Z</time></trkpt><trkpt lat="44.436565448882774" lon="10.180991392278415"><ele>602.0</ele><time>2026-04-11T13:15:06.948Z</time></trkpt><trkpt lat="44.436627445564675" lon="10.181213631786472"><ele>604.0</ele><time>2026-04-11T13:15:07.948Z</time></trkpt><trkpt lat="44.43669157269936" lon="10.181399515977715"><ele>606.0</ele><time>2026-04-11T13:15:08.948Z</time></trkpt><trkpt lat="44.436752798992615" lon="10.181578497736153"><ele>608.0</ele><time>2026-04-11T13:15:09.948Z</time></trkpt><trkpt lat="44.43683678872615" lon="10.18173612458961"><ele>610.0</ele><time>2026-04-11T13:15:10.948Z</time></trkpt><trkpt lat="44.436958267399035" lon="10.181862818486172"><ele>612.0</ele><time>2026-04-11T13:15:11.948Z</time></trkpt><trkpt lat="44.43709770759953" lon="10.181981868975411"><ele>610.5</ele><time>2026-04-11T13:15:12.948Z</time></trkpt><trkpt lat="44.43722632090558" lon="10.18211533444708"><ele>609.0</ele><time>2026-04-11T13:15:13.948Z</time></trkpt><trkpt lat="44.4373302809847" lon="10.182252558483185"><ele>607.5</ele><time>2026-04-11T13:15:14.948Z</time></trkpt><trkpt lat="44.43739008048838" lon="10.182414382194722"><ele>606.0</ele><time>2026-04-11T13:15:15.948Z</time></trkpt><trkpt lat="44.43740764324855" lon="10.182594584575789"><ele>606.0</ele><time>2026-04-11T13:15:16.948Z</time></trkpt><trkpt lat="44.43739237931834" lon="10.182787966971414"><ele>606.0</ele><time>2026-04-11T13:15:17.948Z</time></trkpt><trkpt lat="44.43736576973218" lon="10.182978328024065"><ele>606.0</ele><time>2026-04-11T13:15:18.948Z</time></trkpt><trkpt lat="44.43732132957766" lon="10.18316444250629"><ele>606.0</ele><time>2026-04-11T13:15:19.948Z</time></trkpt><trkpt lat="44.43725457285261" lon="10.183357253592789"><ele>606.6666666666666</ele><time>2026-04-11T13:15:20.948Z</time></trkpt><trkpt lat="44.43717128724198" lon="10.183540248454376"><ele>607.3333333333333</ele><time>2026-04-11T13:15:21.948Z</time></trkpt><trkpt lat="44.43708795613116" lon="10.183722847500176"><ele>608.0</ele><time>2026-04-11T13:15:22.948Z</time></trkpt><trkpt lat="44.43700766435539" lon="10.183886094737474"><ele>611.5</ele><time>2026-04-11T13:15:23.948Z</time></trkpt><trkpt lat="44.436914435118794" lon="10.184039508548278"><ele>615.0</ele><time>2026-04-11T13:15:24.948Z</time></trkpt><trkpt lat="44.4368001974613" lon="10.184173280097506"><ele>618.5</ele><time>2026-04-11T13:15:25.948Z</time></trkpt><trkpt lat="44.43668858314615" lon="10.184296595557232"><ele>622.0</ele><time>2026-04-11T13:15:26.948Z</time></trkpt><trkpt lat="44.43659195048875" lon="10.184414550372452"><ele>622.0</ele><time>2026-04-11T13:15:27.948Z</time></trkpt><trkpt lat="44.43651291783416" lon="10.184537734503898"><ele>622.0</ele><time>2026-04-11T13:15:28.948Z</time></trkpt><trkpt lat="44.43645533664756" lon="10.184702497657751"><ele>622.0</ele><time>2026-04-11T13:15:29.948Z</time></trkpt><trkpt lat="44.43644442772532" lon="10.184897244009429"><ele>622.0</ele><time>2026-04-11T13:15:30.948Z</time></trkpt><trkpt lat="44.43647047161034" lon="10.1851020951243"><ele>621.5</ele><time>2026-04-11T13:15:31.948Z</time></trkpt><trkpt lat="44.43649885994545" lon="10.18530507286505"><ele>621.0</ele><time>2026-04-11T13:15:32.948Z</time></trkpt><trkpt lat="44.43649268403723" lon="10.185512546762274"><ele>620.5</ele><time>2026-04-11T13:15:33.948Z</time></trkpt><trkpt lat="44.436491929067905" lon="10.185686436544412"><ele>620.0</ele><time>2026-04-11T13:15:34.948Z</time></trkpt><trkpt lat="44.43650997310091" lon="10.18585645916466"><ele>621.25</ele><time>2026-04-11T13:15:35.948Z</time></trkpt><trkpt lat="44.43656993576222" lon="10.18602365285222"><ele>622.5</ele><time>2026-04-11T13:15:36.949Z</time></trkpt><trkpt lat="44.436657474594696" lon="10.186181110018563"><ele>623.75</ele><time>2026-04-11T13:15:37.949Z</time></trkpt><trkpt lat="44.43676473932915" lon="10.186336612078712"><ele>625.0</ele><time>2026-04-11T13:15:38.949Z</time></trkpt><trkpt lat="44.43689249668908" lon="10.186506787275313"><ele>624.0</ele><time>2026-04-11T13:15:39.949Z</time></trkpt><trkpt lat="44.43703579279234" lon="10.186677376262805"><ele>623.0</ele><time>2026-04-11T13:15:40.949Z</time></trkpt><trkpt lat="44.43718332829166" lon="10.1868281975435"><ele>622.0</ele><time>2026-04-11T13:15:41.949Z</time></trkpt><trkpt lat="44.43731817968659" lon="10.186942921348264"><ele>622.0</ele><time>2026-04-11T13:15:42.947Z</time></trkpt><trkpt lat="44.43743790920271" lon="10.187051768232077"><ele>622.0</ele><time>2026-04-11T13:15:43.947Z</time></trkpt><trkpt lat="44.43755002824843" lon="10.187149937926762"><ele>622.0</ele><time>2026-04-11T13:15:44.947Z</time></trkpt><trkpt lat="44.437653645083195" lon="10.187261537613978"><ele>622.0</ele><time>2026-04-11T13:15:45.946Z</time></trkpt><trkpt lat="44.43773630835692" lon="10.187412488964101"><ele>626.0</ele><time>2026-04-11T13:15:46.947Z</time></trkpt><trkpt lat="44.43777942451851" lon="10.187586466300434"><ele>630.0</ele><time>2026-04-11T13:15:47.947Z</time></trkpt><trkpt lat="44.43778263257093" lon="10.187773847597938"><ele>634.0</ele><time>2026-04-11T13:15:48.946Z</time></trkpt><trkpt lat="44.43774492270387" lon="10.18797548004991"><ele>638.0</ele><time>2026-04-11T13:15:49.946Z</time></trkpt><trkpt lat="44.43768855402562" lon="10.188190055057888"><ele>640.0</ele><time>2026-04-11T13:15:50.946Z</time></trkpt><trkpt lat="44.43763502393631" lon="10.18841821019701"><ele>642.0</ele><time>2026-04-11T13:15:51.946Z</time></trkpt><trkpt lat="44.43757905400311" lon="10.188661930277055"><ele>644.0</ele><time>2026-04-11T13:15:52.946Z</time></trkpt><trkpt lat="44.437523645448444" lon="10.188868290311744"><ele>643.75</ele><time>2026-04-11T13:15:53.947Z</time></trkpt><trkpt lat="44.43747438950473" lon="10.189052643384208"><ele>643.5</ele><time>2026-04-11T13:15:54.947Z</time></trkpt><trkpt lat="44.43744872130326" lon="10.18925027915512"><ele>643.25</ele><time>2026-04-11T13:15:55.946Z</time></trkpt><trkpt lat="44.437451209043296" lon="10.189451604955773"><ele>643.0</ele><time>2026-04-11T13:15:56.946Z</time></trkpt><trkpt lat="44.43748470473596" lon="10.189651764347625"><ele>646.0</ele><time>2026-04-11T13:15:57.946Z</time></trkpt><trkpt lat="44.43754675931097" lon="10.18986897379621"><ele>649.0</ele><time>2026-04-11T13:15:58.946Z</time></trkpt><trkpt lat="44.43762159353266" lon="10.190109629221212"><ele>652.0</ele><time>2026-04-11T13:15:59.946Z</time></trkpt><trkpt lat="44.43769622556425" lon="10.190372486127298"><ele>652.0</ele><time>2026-04-11T13:16:00.946Z</time></trkpt><trkpt lat="44.437772645774956" lon="10.190644276953709"><ele>652.0</ele><time>2026-04-11T13:16:01.946Z</time></trkpt><trkpt lat="44.4378456185354" lon="10.190903599424406"><ele>652.0</ele><time>2026-04-11T13:16:02.946Z</time></trkpt><trkpt lat="44.437907619494005" lon="10.191133620145072"><ele>653.0</ele><time>2026-04-11T13:16:03.946Z</time></trkpt><trkpt lat="44.43795432090584" lon="10.191341558217026"><ele>654.0</ele><time>2026-04-11T13:16:04.946Z</time></trkpt><trkpt lat="44.43798846745946" lon="10.191540355968558"><ele>655.0</ele><time>2026-04-11T13:16:05.946Z</time></trkpt><trkpt lat="44.437997537556306" lon="10.19172659932249"><ele>656.0</ele><time>2026-04-11T13:16:06.946Z</time></trkpt><trkpt lat="44.437983579873105" lon="10.191912328769162"><ele>656.3333333333333</ele><time>2026-04-11T13:16:07.946Z</time></trkpt><trkpt lat="44.437945499702785" lon="10.19210715560481"><ele>656.6666666666666</ele><time>2026-04-11T13:16:08.946Z</time></trkpt><trkpt lat="44.437892971561034" lon="10.192309162063683"><ele>657.0</ele><time>2026-04-11T13:16:09.946Z</time></trkpt><trkpt lat="44.43781909133946" lon="10.192510343334758"><ele>657.0</ele><time>2026-04-11T13:16:10.946Z</time></trkpt><trkpt lat="44.43773778369205" lon="10.192716653618081"><ele>657.0</ele><time>2026-04-11T13:16:11.946Z</time></trkpt><trkpt lat="44.43765711621557" lon="10.192927871950412"><ele>657.0</ele><time>2026-04-11T13:16:12.946Z</time></trkpt><trkpt lat="44.43757921338948" lon="10.193133508122154"><ele>656.0</ele><time>2026-04-11T13:16:13.946Z</time></trkpt><trkpt lat="44.43751953590353" lon="10.193325132523924"><ele>655.0</ele><time>2026-04-11T13:16:14.946Z</time></trkpt><trkpt lat="44.43746625451543" lon="10.19349656364834"><ele>654.0</ele><time>2026-04-11T13:16:15.946Z</time></trkpt><trkpt lat="44.43742073455136" lon="10.19366760663088"><ele>653.0</ele><time>2026-04-11T13:16:16.946Z</time></trkpt><trkpt lat="44.437387492867074" lon="10.193842622126777"><ele>652.0</ele><time>2026-04-11T13:16:17.946Z</time></trkpt><trkpt lat="44.437368071412415" lon="10.19402643559517"><ele>651.0</ele><time>2026-04-11T13:16:18.946Z</time></trkpt><trkpt lat="44.43736069772006" lon="10.194216851872593"><ele>650.0</ele><time>2026-04-11T13:16:19.946Z</time></trkpt><trkpt lat="44.437355123412836" lon="10.19440848375381"><ele>649.0</ele><time>2026-04-11T13:16:20.946Z</time></trkpt><trkpt lat="44.437352104148665" lon="10.19460484289792"><ele>649.0</ele><time>2026-04-11T13:16:21.946Z</time></trkpt><trkpt lat="44.437349815095914" lon="10.194802744326802"><ele>649.0</ele><time>2026-04-11T13:16:22.946Z</time></trkpt><trkpt lat="44.43734086157803" lon="10.195003411239647"><ele>649.0</ele><time>2026-04-11T13:16:23.946Z</time></trkpt><trkpt lat="44.43732969395907" lon="10.195201865800483"><ele>649.0</ele><time>2026-04-11T13:16:24.946Z</time></trkpt><trkpt lat="44.4373259934818" lon="10.19540238782343"><ele>648.75</ele><time>2026-04-11T13:16:25.946Z</time></trkpt><trkpt lat="44.43732023215917" lon="10.195599594547236"><ele>648.5</ele><time>2026-04-11T13:16:26.946Z</time></trkpt><trkpt lat="44.43732228828616" lon="10.195793353839118"><ele>648.25</ele><time>2026-04-11T13:16:27.946Z</time></trkpt><trkpt lat="44.43731398905999" lon="10.195984174914894"><ele>648.0</ele><time>2026-04-11T13:16:28.946Z</time></trkpt><trkpt lat="44.4372980490469" lon="10.19616856572088"><ele>647.5</ele><time>2026-04-11T13:16:29.946Z</time></trkpt><trkpt lat="44.43727016663997" lon="10.196351390608129"><ele>647.0</ele><time>2026-04-11T13:16:30.946Z</time></trkpt><trkpt lat="44.4372241212256" lon="10.1965294703049"><ele>646.5</ele><time>2026-04-11T13:16:31.947Z</time></trkpt><trkpt lat="44.437148617915454" lon="10.196704361417236"><ele>646.0</ele><time>2026-04-11T13:16:32.947Z</time></trkpt><trkpt lat="44.437044652937296" lon="10.196879344746762"><ele>647.3333333333334</ele><time>2026-04-11T13:16:33.947Z</time></trkpt><trkpt lat="44.436926716773165" lon="10.19705491425792"><ele>648.6666666666666</ele><time>2026-04-11T13:16:34.947Z</time></trkpt><trkpt lat="44.436804561699326" lon="10.197244666772898"><ele>650.0</ele><time>2026-04-11T13:16:35.947Z</time></trkpt><trkpt lat="44.43667466315595" lon="10.197445412581732"><ele>650.0</ele><time>2026-04-11T13:16:36.947Z</time></trkpt><trkpt lat="44.43654612292324" lon="10.1976491487377"><ele>650.0</ele><time>2026-04-11T13:16:37.947Z</time></trkpt><trkpt lat="44.43643437735001" lon="10.197841039398414"><ele>650.0</ele><time>2026-04-11T13:16:38.947Z</time></trkpt><trkpt lat="44.436326764524864" lon="10.198010467337477"><ele>652.5</ele><time>2026-04-11T13:16:39.947Z</time></trkpt><trkpt lat="44.43623163695861" lon="10.198165498137733"><ele>655.0</ele><time>2026-04-11T13:16:40.947Z</time></trkpt><trkpt lat="44.43615553812398" lon="10.198312794823536"><ele>657.5</ele><time>2026-04-11T13:16:41.947Z</time></trkpt><trkpt lat="44.43609342513463" lon="10.198447591509316"><ele>660.0</ele><time>2026-04-11T13:16:42.947Z</time></trkpt><trkpt lat="44.43606849748646" lon="10.198588625186803"><ele>660.0</ele><time>2026-04-11T13:16:43.947Z</time></trkpt><trkpt lat="44.43608612489166" lon="10.198758078981367"><ele>660.0</ele><time>2026-04-11T13:16:44.947Z</time></trkpt><trkpt lat="44.436152377745536" lon="10.198935509039567"><ele>660.0</ele><time>2026-04-11T13:16:45.947Z</time></trkpt><trkpt lat="44.43626655107607" lon="10.19908905684223"><ele>660.0</ele><time>2026-04-11T13:16:46.947Z</time></trkpt><trkpt lat="44.436396271074614" lon="10.199214701708163"><ele>656.0</ele><time>2026-04-11T13:16:47.947Z</time></trkpt><trkpt lat="44.43652660915643" lon="10.199348714622905"><ele>652.0</ele><time>2026-04-11T13:16:48.947Z</time></trkpt><trkpt lat="44.43664644459241" lon="10.199521142213888"><ele>648.0</ele><time>2026-04-11T13:16:49.947Z</time></trkpt><trkpt lat="44.43677765945779" lon="10.199723094017475"><ele>649.6666666666666</ele><time>2026-04-11T13:16:50.947Z</time></trkpt><trkpt lat="44.43688925807461" lon="10.199952928855247"><ele>651.3333333333333</ele><time>2026-04-11T13:16:51.947Z</time></trkpt><trkpt lat="44.43698890182852" lon="10.20018121396956"><ele>653.0</ele><time>2026-04-11T13:16:52.947Z</time></trkpt><trkpt lat="44.43709783207096" lon="10.200375904545293"><ele>651.6666666666666</ele><time>2026-04-11T13:16:53.947Z</time></trkpt><trkpt lat="44.43719470203131" lon="10.200549567216953"><ele>650.3333333333334</ele><time>2026-04-11T13:16:54.947Z</time></trkpt><trkpt lat="44.43730364570593" lon="10.200714178251031"><ele>649.0</ele><time>2026-04-11T13:16:55.947Z</time></trkpt><trkpt lat="44.43743808410582" lon="10.200866622056163"><ele>649.0</ele><time>2026-04-11T13:16:56.947Z</time></trkpt><trkpt lat="44.43758502667971" lon="10.201017907512718"><ele>649.0</ele><time>2026-04-11T13:16:57.947Z</time></trkpt><trkpt lat="44.43772491114631" lon="10.201159392261049"><ele>649.0</ele><time>2026-04-11T13:16:58.947Z</time></trkpt><trkpt lat="44.43784854835054" lon="10.20129956161785"><ele>647.3333333333334</ele><time>2026-04-11T13:16:59.947Z</time></trkpt><trkpt lat="44.43797273882928" lon="10.201436847592005"><ele>645.6666666666666</ele><time>2026-04-11T13:17:00.947Z</time></trkpt><trkpt lat="44.438093457077976" lon="10.201577130629218"><ele>644.0</ele><time>2026-04-11T13:17:01.947Z</time></trkpt><trkpt lat="44.43820125215827" lon="10.20171472438858"><ele>644.0</ele><time>2026-04-11T13:17:02.947Z</time></trkpt><trkpt lat="44.43829048642412" lon="10.201867241198196"><ele>644.0</ele><time>2026-04-11T13:17:03.947Z</time></trkpt><trkpt lat="44.438359579915925" lon="10.202058630348086"><ele>644.0</ele><time>2026-04-11T13:17:04.947Z</time></trkpt><trkpt lat="44.43840650909354" lon="10.202281707740553"><ele>645.6666666666666</ele><time>2026-04-11T13:17:05.947Z</time></trkpt><trkpt lat="44.43843288923207" lon="10.202522230450345"><ele>647.3333333333334</ele><time>2026-04-11T13:17:06.947Z</time></trkpt><trkpt lat="44.438454559873115" lon="10.202769144714772"><ele>649.0</ele><time>2026-04-11T13:17:07.947Z</time></trkpt><trkpt lat="44.43849582516254" lon="10.203001955484936"><ele>650.3333333333334</ele><time>2026-04-11T13:17:08.947Z</time></trkpt><trkpt lat="44.43856393236619" lon="10.203231460765718"><ele>651.6666666666666</ele><time>2026-04-11T13:17:09.947Z</time></trkpt><trkpt lat="44.43864076278488" lon="10.203461106305383"><ele>653.0</ele><time>2026-04-11T13:17:10.947Z</time></trkpt><trkpt lat="44.43872445651882" lon="10.203675380200734"><ele>653.0</ele><time>2026-04-11T13:17:11.947Z</time></trkpt><trkpt lat="44.43878962689619" lon="10.203858061833468"><ele>653.0</ele><time>2026-04-11T13:17:12.947Z</time></trkpt><trkpt lat="44.438837022275884" lon="10.20403515489412"><ele>653.0</ele><time>2026-04-11T13:17:13.947Z</time></trkpt><trkpt lat="44.43885912523927" lon="10.204226920177899"><ele>653.0</ele><time>2026-04-11T13:17:14.947Z</time></trkpt><trkpt lat="44.438852242856704" lon="10.204430143118326"><ele>652.0</ele><time>2026-04-11T13:17:15.947Z</time></trkpt><trkpt lat="44.43882341289757" lon="10.20464238411599"><ele>651.0</ele><time>2026-04-11T13:17:16.947Z</time></trkpt><trkpt lat="44.43878723474121" lon="10.204875763209595"><ele>650.0</ele><time>2026-04-11T13:17:17.947Z</time></trkpt><trkpt lat="44.438757827155094" lon="10.20512449044324"><ele>650.0</ele><time>2026-04-11T13:17:18.947Z</time></trkpt><trkpt lat="44.43873215063008" lon="10.205387305916885"><ele>650.0</ele><time>2026-04-11T13:17:19.947Z</time></trkpt><trkpt lat="44.43869784946509" lon="10.20564964984211"><ele>650.0</ele><time>2026-04-11T13:17:20.947Z</time></trkpt><trkpt lat="44.43867358800579" lon="10.205909568990146"><ele>649.0</ele><time>2026-04-11T13:17:21.947Z</time></trkpt><trkpt lat="44.43864340130752" lon="10.206169903246394"><ele>648.0</ele><time>2026-04-11T13:17:22.947Z</time></trkpt><trkpt lat="44.438607637388166" lon="10.206422101926291"><ele>647.0</ele><time>2026-04-11T13:17:23.947Z</time></trkpt><trkpt lat="44.43857015390079" lon="10.206655030690262"><ele>647.0</ele><time>2026-04-11T13:17:24.947Z</time></trkpt><trkpt lat="44.43854785464153" lon="10.20688311195185"><ele>647.0</ele><time>2026-04-11T13:17:25.947Z</time></trkpt><trkpt lat="44.43854250232212" lon="10.2071051491207"><ele>647.0</ele><time>2026-04-11T13:17:26.947Z</time></trkpt><trkpt lat="44.438533839081714" lon="10.207292112223383"><ele>647.0</ele><time>2026-04-11T13:17:27.947Z</time></trkpt><trkpt lat="44.43850434533947" lon="10.207457768183037"><ele>647.0</ele><time>2026-04-11T13:17:28.947Z</time></trkpt><trkpt lat="44.43843529487739" lon="10.20761074040711"><ele>647.0</ele><time>2026-04-11T13:17:29.947Z</time></trkpt><trkpt lat="44.438306679972115" lon="10.207768087910999"><ele>647.0</ele><time>2026-04-11T13:17:30.947Z</time></trkpt><trkpt lat="44.438163594738135" lon="10.207915493319897"><ele>647.0</ele><time>2026-04-11T13:17:31.947Z</time></trkpt><trkpt lat="44.43803029608492" lon="10.208057641267319"><ele>647.0</ele><time>2026-04-11T13:17:32.947Z</time></trkpt><trkpt lat="44.4379151751627" lon="10.208208685813975"><ele>647.0</ele><time>2026-04-11T13:17:33.947Z</time></trkpt><trkpt lat="44.43781828631895" lon="10.20834838725288"><ele>647.3333333333333</ele><time>2026-04-11T13:17:34.947Z</time></trkpt><trkpt lat="44.43774581594926" lon="10.20852509357894"><ele>647.6666666666666</ele><time>2026-04-11T13:17:35.947Z</time></trkpt><trkpt lat="44.437713324963376" lon="10.20874677214403"><ele>648.0</ele><time>2026-04-11T13:17:36.947Z</time></trkpt><trkpt lat="44.4377071355152" lon="10.209007203633718"><ele>648.0</ele><time>2026-04-11T13:17:37.947Z</time></trkpt><trkpt lat="44.43770116336106" lon="10.209274062308223"><ele>648.0</ele><time>2026-04-11T13:17:38.947Z</time></trkpt><trkpt lat="44.43768980587262" lon="10.209542856951861"><ele>648.0</ele><time>2026-04-11T13:17:39.947Z</time></trkpt><trkpt lat="44.43767354308994" lon="10.209819564798641"><ele>646.6666666666666</ele><time>2026-04-11T13:17:40.947Z</time></trkpt><trkpt lat="44.43766123924475" lon="10.210098685219469"><ele>645.3333333333333</ele><time>2026-04-11T13:17:41.947Z</time></trkpt><trkpt lat="44.437648736571475" lon="10.210363655705198"><ele>644.0</ele><time>2026-04-11T13:17:42.947Z</time></trkpt><trkpt lat="44.43763752441221" lon="10.21059875627771"><ele>642.3333333333333</ele><time>2026-04-11T13:17:43.947Z</time></trkpt><trkpt lat="44.43761292224541" lon="10.210812097405736"><ele>640.6666666666666</ele><time>2026-04-11T13:17:44.947Z</time></trkpt><trkpt lat="44.43756019446456" lon="10.211028050517834"><ele>639.0</ele><time>2026-04-11T13:17:45.947Z</time></trkpt><trkpt lat="44.43749047273116" lon="10.211253811909591"><ele>639.0</ele><time>2026-04-11T13:17:46.947Z</time></trkpt><trkpt lat="44.43740713041965" lon="10.211481147113775"><ele>639.0</ele><time>2026-04-11T13:17:47.947Z</time></trkpt><trkpt lat="44.43733180342747" lon="10.211704039856606"><ele>639.0</ele><time>2026-04-11T13:17:48.946Z</time></trkpt><trkpt lat="44.43726759412163" lon="10.211914081113658"><ele>639.3333333333334</ele><time>2026-04-11T13:17:49.946Z</time></trkpt><trkpt lat="44.437200417124636" lon="10.212111903242832"><ele>639.6666666666667</ele><time>2026-04-11T13:17:50.946Z</time></trkpt><trkpt lat="44.43711332967173" lon="10.212303657950777"><ele>640.0</ele><time>2026-04-11T13:17:51.946Z</time></trkpt><trkpt lat="44.43701050556302" lon="10.212496452503775"><ele>640.0</ele><time>2026-04-11T13:17:52.945Z</time></trkpt><trkpt lat="44.43690336956782" lon="10.212672499700844"><ele>640.0</ele><time>2026-04-11T13:17:53.945Z</time></trkpt><trkpt lat="44.4367839847757" lon="10.212850225291717"><ele>640.0</ele><time>2026-04-11T13:17:54.946Z</time></trkpt><trkpt lat="44.43666938506936" lon="10.213044662498277"><ele>636.3333333333334</ele><time>2026-04-11T13:17:55.946Z</time></trkpt><trkpt lat="44.436561731837585" lon="10.213255168906306"><ele>632.6666666666666</ele><time>2026-04-11T13:17:56.946Z</time></trkpt><trkpt lat="44.43644499812043" lon="10.213476434052186"><ele>629.0</ele><time>2026-04-11T13:17:57.946Z</time></trkpt><trkpt lat="44.436335519233374" lon="10.213709969717524"><ele>631.0</ele><time>2026-04-11T13:17:58.946Z</time></trkpt><trkpt lat="44.43622899517525" lon="10.213924660129734"><ele>633.0</ele><time>2026-04-11T13:17:59.946Z</time></trkpt><trkpt lat="44.436129406161605" lon="10.214120036253627"><ele>635.0</ele><time>2026-04-11T13:18:00.946Z</time></trkpt><trkpt lat="44.43604647849986" lon="10.214297045185862"><ele>635.0</ele><time>2026-04-11T13:18:01.945Z</time></trkpt><trkpt lat="44.4359794063727" lon="10.21446533442581"><ele>635.0</ele><time>2026-04-11T13:18:02.946Z</time></trkpt><trkpt lat="44.435938356604645" lon="10.214639144021767"><ele>635.0</ele><time>2026-04-11T13:18:03.946Z</time></trkpt><trkpt lat="44.43591582910034" lon="10.214815668291054"><ele>635.0</ele><time>2026-04-11T13:18:04.946Z</time></trkpt><trkpt lat="44.43591765285366" lon="10.215031975928822"><ele>633.0</ele><time>2026-04-11T13:18:05.946Z</time></trkpt><trkpt lat="44.43592807179689" lon="10.215258327154604"><ele>631.0</ele><time>2026-04-11T13:18:06.946Z</time></trkpt><trkpt lat="44.435939660414576" lon="10.215498308853888"><ele>629.0</ele><time>2026-04-11T13:18:07.946Z</time></trkpt><trkpt lat="44.435936725684066" lon="10.215752849216358"><ele>628.6666666666666</ele><time>2026-04-11T13:18:08.946Z</time></trkpt><trkpt lat="44.435907938151416" lon="10.21599908921892"><ele>628.3333333333334</ele><time>2026-04-11T13:18:09.946Z</time></trkpt><trkpt lat="44.43587946289058" lon="10.216221352076783"><ele>628.0</ele><time>2026-04-11T13:18:10.946Z</time></trkpt><trkpt lat="44.435869959085124" lon="10.216420805702432"><ele>628.5</ele><time>2026-04-11T13:18:11.946Z</time></trkpt><trkpt lat="44.435882694029914" lon="10.216606082272685"><ele>629.0</ele><time>2026-04-11T13:18:12.946Z</time></trkpt><trkpt lat="44.43593241883492" lon="10.21678463898489"><ele>629.5</ele><time>2026-04-11T13:18:13.946Z</time></trkpt><trkpt lat="44.4360271385731" lon="10.216936433750504"><ele>630.0</ele><time>2026-04-11T13:18:14.946Z</time></trkpt><trkpt lat="44.43615228374377" lon="10.217063150133525"><ele>630.0</ele><time>2026-04-11T13:18:15.946Z</time></trkpt><trkpt lat="44.436287535995255" lon="10.217173605316216"><ele>630.0</ele><time>2026-04-11T13:18:16.946Z</time></trkpt><trkpt lat="44.43642305729944" lon="10.21729680037022"><ele>630.0</ele><time>2026-04-11T13:18:17.946Z</time></trkpt><trkpt lat="44.43656733984803" lon="10.217428129768502"><ele>627.6666666666666</ele><time>2026-04-11T13:18:18.946Z</time></trkpt><trkpt lat="44.43670907193235" lon="10.217555705097087"><ele>625.3333333333333</ele><time>2026-04-11T13:18:19.946Z</time></trkpt><trkpt lat="44.436836961683895" lon="10.217673543795787"><ele>623.0</ele><time>2026-04-11T13:18:20.946Z</time></trkpt><trkpt lat="44.436951212620826" lon="10.217776073730075"><ele>623.0</ele><time>2026-04-11T13:18:21.946Z</time></trkpt><trkpt lat="44.43705759028745" lon="10.21787848295764"><ele>623.0</ele><time>2026-04-11T13:18:22.946Z</time></trkpt><trkpt lat="44.43715651193362" lon="10.218002277685867"><ele>623.0</ele><time>2026-04-11T13:18:23.946Z</time></trkpt><trkpt lat="44.43723637616214" lon="10.218174380540347"><ele>623.0</ele><time>2026-04-11T13:18:24.946Z</time></trkpt><trkpt lat="44.437273469155514" lon="10.218389474486967"><ele>622.5</ele><time>2026-04-11T13:18:25.946Z</time></trkpt><trkpt lat="44.4372843930555" lon="10.218602702349765"><ele>622.0</ele><time>2026-04-11T13:18:26.946Z</time></trkpt><trkpt lat="44.43728921376932" lon="10.218784321925325"><ele>621.5</ele><time>2026-04-11T13:18:27.946Z</time></trkpt><trkpt lat="44.437301378095036" lon="10.218936041060129"><ele>621.0</ele><time>2026-04-11T13:18:28.946Z</time></trkpt><trkpt lat="44.43732609896923" lon="10.219059753591237"><ele>621.0</ele><time>2026-04-11T13:18:29.946Z</time></trkpt><trkpt lat="44.43738725486459" lon="10.219184672573782"><ele>621.0</ele><time>2026-04-11T13:18:30.946Z</time></trkpt><trkpt lat="44.437486587890234" lon="10.219290650204444"><ele>621.0</ele><time>2026-04-11T13:18:31.946Z</time></trkpt><trkpt lat="44.437622225753486" lon="10.219364119959302"><ele>621.0</ele><time>2026-04-11T13:18:32.946Z</time></trkpt><trkpt lat="44.437761189074564" lon="10.219422282599156"><ele>621.0</ele><time>2026-04-11T13:18:33.946Z</time></trkpt><trkpt lat="44.43791275416557" lon="10.219477943429894"><ele>621.0</ele><time>2026-04-11T13:18:34.946Z</time></trkpt><trkpt lat="44.43806589682776" lon="10.21952883248213"><ele>621.0</ele><time>2026-04-11T13:18:35.946Z</time></trkpt><trkpt lat="44.43820891523165" lon="10.219563896055659"><ele>620.8333333333334</ele><time>2026-04-11T13:18:36.946Z</time></trkpt><trkpt lat="44.43832633403986" lon="10.219589169016446"><ele>620.6666666666666</ele><time>2026-04-11T13:18:37.946Z</time></trkpt><trkpt lat="44.438425380822565" lon="10.219596854207683"><ele>620.5</ele><time>2026-04-11T13:18:38.946Z</time></trkpt><trkpt lat="44.43849632236663" lon="10.219626863952303"><ele>620.3333333333333</ele><time>2026-04-11T13:18:39.946Z</time></trkpt><trkpt lat="44.43854196270098" lon="10.219694037062231"><ele>620.1666666666666</ele><time>2026-04-11T13:18:40.946Z</time></trkpt><trkpt lat="44.43853965643931" lon="10.219784545703867"><ele>620.0</ele><time>2026-04-11T13:18:41.946Z</time></trkpt><trkpt lat="44.43848012786637" lon="10.219886219386016"><ele>617.25</ele><time>2026-04-11T13:18:42.946Z</time></trkpt><trkpt lat="44.438377098877254" lon="10.219938487374105"><ele>614.5</ele><time>2026-04-11T13:18:43.946Z</time></trkpt><trkpt lat="44.43825536670626" lon="10.219939848484211"><ele>611.75</ele><time>2026-04-11T13:18:44.946Z</time></trkpt><trkpt lat="44.4381287041739" lon="10.219933466093815"><ele>609.0</ele><time>2026-04-11T13:18:45.946Z</time></trkpt><trkpt lat="44.438001670737876" lon="10.219933594278773"><ele>609.8</ele><time>2026-04-11T13:18:46.946Z</time></trkpt><trkpt lat="44.43787563987861" lon="10.219944652861951"><ele>610.5999999999999</ele><time>2026-04-11T13:18:47.946Z</time></trkpt><trkpt lat="44.437762002567645" lon="10.219962056281828"><ele>611.4</ele><time>2026-04-11T13:18:48.946Z</time></trkpt><trkpt lat="44.437664151692445" lon="10.21998115863272"><ele>612.1999999999999</ele><time>2026-04-11T13:18:49.946Z</time></trkpt><trkpt lat="44.437575162218124" lon="10.220017030141284"><ele>613.0</ele><time>2026-04-11T13:18:50.946Z</time></trkpt><trkpt lat="44.43749100164418" lon="10.220091140589673"><ele>613.0</ele><time>2026-04-11T13:18:51.946Z</time></trkpt><trkpt lat="44.43743511264593" lon="10.220212890308959"><ele>613.0</ele><time>2026-04-11T13:18:52.946Z</time></trkpt><trkpt lat="44.43741459758294" lon="10.22035561814547"><ele>613.0</ele><time>2026-04-11T13:18:53.946Z</time></trkpt><trkpt lat="44.43741690747414" lon="10.220523918271127"><ele>613.0</ele><time>2026-04-11T13:18:54.946Z</time></trkpt><trkpt lat="44.437405971913215" lon="10.22068946751515"><ele>613.0</ele><time>2026-04-11T13:18:55.946Z</time></trkpt><trkpt lat="44.43737537671671" lon="10.220856408283629"><ele>611.5</ele><time>2026-04-11T13:18:56.946Z</time></trkpt><trkpt lat="44.437325637801656" lon="10.22101757262998"><ele>610.0</ele><time>2026-04-11T13:18:57.946Z</time></trkpt><trkpt lat="44.437255670873775" lon="10.221166357795422"><ele>608.5</ele><time>2026-04-11T13:18:58.946Z</time></trkpt><trkpt lat="44.43716827444343" lon="10.221292977686243"><ele>607.0</ele><time>2026-04-11T13:18:59.946Z</time></trkpt><trkpt lat="44.437065910806986" lon="10.221397755837451"><ele>603.25</ele><time>2026-04-11T13:19:00.946Z</time></trkpt><trkpt lat="44.43694920173246" lon="10.221490579942364"><ele>599.5</ele><time>2026-04-11T13:19:01.946Z</time></trkpt><trkpt lat="44.436824658104655" lon="10.22156707260275"><ele>595.75</ele><time>2026-04-11T13:19:02.946Z</time></trkpt><trkpt lat="44.43668493991904" lon="10.22161294308873"><ele>592.0</ele><time>2026-04-11T13:19:03.946Z</time></trkpt><trkpt lat="44.436534398621056" lon="10.221642089710132"><ele>592.0</ele><time>2026-04-11T13:19:04.946Z</time></trkpt><trkpt lat="44.43638258955161" lon="10.221657542926778"><ele>592.0</ele><time>2026-04-11T13:19:05.946Z</time></trkpt><trkpt lat="44.436242307604005" lon="10.221674479873418"><ele>592.0</ele><time>2026-04-11T13:19:06.946Z</time></trkpt><trkpt lat="44.436114091233264" lon="10.221703404506712"><ele>592.0</ele><time>2026-04-11T13:19:07.946Z</time></trkpt><trkpt lat="44.43599456505308" lon="10.221751541830944"><ele>593.75</ele><time>2026-04-11T13:19:08.946Z</time></trkpt><trkpt lat="44.43588291404967" lon="10.221844780957152"><ele>595.5</ele><time>2026-04-11T13:19:09.946Z</time></trkpt><trkpt lat="44.43577854045182" lon="10.221979736984963"><ele>597.25</ele><time>2026-04-11T13:19:10.946Z</time></trkpt><trkpt lat="44.43568069469433" lon="10.222136787575538"><ele>599.0</ele><time>2026-04-11T13:19:11.946Z</time></trkpt><trkpt lat="44.43558309638268" lon="10.222305538382848"><ele>598.0</ele><time>2026-04-11T13:19:12.946Z</time></trkpt><trkpt lat="44.4354844195291" lon="10.22247949297569"><ele>597.0</ele><time>2026-04-11T13:19:13.946Z</time></trkpt><trkpt lat="44.43537602691764" lon="10.222635477145216"><ele>596.0</ele><time>2026-04-11T13:19:14.946Z</time></trkpt><trkpt lat="44.435260687395896" lon="10.222763098685821"><ele>596.0</ele><time>2026-04-11T13:19:15.946Z</time></trkpt><trkpt lat="44.4351521473858" lon="10.22288398107396"><ele>596.0</ele><time>2026-04-11T13:19:16.946Z</time></trkpt><trkpt lat="44.4350769720725" lon="10.223000333731042"><ele>596.0</ele><time>2026-04-11T13:19:17.946Z</time></trkpt><trkpt lat="44.43503129236889" lon="10.223162295220616"><ele>596.0</ele><time>2026-04-11T13:19:18.946Z</time></trkpt><trkpt lat="44.43501074526161" lon="10.223377939505008"><ele>591.5</ele><time>2026-04-11T13:19:19.946Z</time></trkpt><trkpt lat="44.434978353041714" lon="10.223565889257548"><ele>587.0</ele><time>2026-04-11T13:19:20.946Z</time></trkpt><trkpt lat="44.4349008764768" lon="10.22373408127815"><ele>582.5</ele><time>2026-04-11T13:19:21.946Z</time></trkpt><trkpt lat="44.434800962998594" lon="10.223887460183922"><ele>578.0</ele><time>2026-04-11T13:19:22.946Z</time></trkpt><trkpt lat="44.43470825924477" lon="10.224038667510497"><ele>577.5</ele><time>2026-04-11T13:19:23.946Z</time></trkpt><trkpt lat="44.43463684257401" lon="10.224179423581212"><ele>577.0</ele><time>2026-04-11T13:19:24.946Z</time></trkpt><trkpt lat="44.434586819762515" lon="10.22432350559326"><ele>576.5</ele><time>2026-04-11T13:19:25.946Z</time></trkpt><trkpt lat="44.43457457281417" lon="10.224483527247218"><ele>576.0</ele><time>2026-04-11T13:19:26.946Z</time></trkpt><trkpt lat="44.434581690789116" lon="10.22466995936943"><ele>572.3333333333334</ele><time>2026-04-11T13:19:27.946Z</time></trkpt><trkpt lat="44.434608307228046" lon="10.22486686387068"><ele>568.6666666666667</ele><time>2026-04-11T13:19:28.946Z</time></trkpt><trkpt lat="44.43465688936155" lon="10.225089231575842"><ele>565.0</ele><time>2026-04-11T13:19:29.946Z</time></trkpt><trkpt lat="44.434708482238385" lon="10.225306501601123"><ele>564.25</ele><time>2026-04-11T13:19:30.946Z</time></trkpt><trkpt lat="44.43474957796313" lon="10.22550395248837"><ele>563.5</ele><time>2026-04-11T13:19:31.946Z</time></trkpt><trkpt lat="44.43478543264579" lon="10.225676744438202"><ele>562.75</ele><time>2026-04-11T13:19:32.946Z</time></trkpt><trkpt lat="44.434811603267285" lon="10.225841595519801"><ele>562.0</ele><time>2026-04-11T13:19:33.946Z</time></trkpt><trkpt lat="44.43481751144028" lon="10.225995993101822"><ele>561.25</ele><time>2026-04-11T13:19:34.946Z</time></trkpt><trkpt lat="44.43478885594838" lon="10.22613331084771"><ele>560.5</ele><time>2026-04-11T13:19:35.946Z</time></trkpt><trkpt lat="44.43471290478296" lon="10.226244333869586"><ele>559.75</ele><time>2026-04-11T13:19:36.947Z</time></trkpt><trkpt lat="44.43460481225055" lon="10.22629793435298"><ele>559.0</ele><time>2026-04-11T13:19:37.947Z</time></trkpt><trkpt lat="44.434474351718556" lon="10.226294764760674"><ele>557.3333333333334</ele><time>2026-04-11T13:19:38.947Z</time></trkpt><trkpt lat="44.43433207224001" lon="10.226241357960156"><ele>555.6666666666666</ele><time>2026-04-11T13:19:39.947Z</time></trkpt><trkpt lat="44.434184450519304" lon="10.226196192862332"><ele>554.0</ele><time>2026-04-11T13:19:40.947Z</time></trkpt><trkpt lat="44.43402397435016" lon="10.226136151107125"><ele>554.0</ele><time>2026-04-11T13:19:41.947Z</time></trkpt><trkpt lat="44.433882388066685" lon="10.226086554941773"><ele>554.0</ele><time>2026-04-11T13:19:42.947Z</time></trkpt><trkpt lat="44.43377161505325" lon="10.226047933137874"><ele>554.0</ele><time>2026-04-11T13:19:43.947Z</time></trkpt><trkpt lat="44.433665724274945" lon="10.226027967500423"><ele>554.0</ele><time>2026-04-11T13:19:44.947Z</time></trkpt><trkpt lat="44.43356492880132" lon="10.226056345150528"><ele>553.75</ele><time>2026-04-11T13:19:45.947Z</time></trkpt><trkpt lat="44.433492523881945" lon="10.22614210810664"><ele>553.5</ele><time>2026-04-11T13:19:46.947Z</time></trkpt><trkpt lat="44.433446876001184" lon="10.2262728307095"><ele>553.25</ele><time>2026-04-11T13:19:47.947Z</time></trkpt><trkpt lat="44.433446189985126" lon="10.22644915159836"><ele>553.0</ele><time>2026-04-11T13:19:48.947Z</time></trkpt><trkpt lat="44.43347750160219" lon="10.226639049222927"><ele>550.0</ele><time>2026-04-11T13:19:49.947Z</time></trkpt><trkpt lat="44.43353692346456" lon="10.226830313338285"><ele>547.0</ele><time>2026-04-11T13:19:50.947Z</time></trkpt><trkpt lat="44.43360693772549" lon="10.22702784587646"><ele>544.0</ele><time>2026-04-11T13:19:51.947Z</time></trkpt><trkpt lat="44.433675744591746" lon="10.227219941824504"><ele>542.75</ele><time>2026-04-11T13:19:52.947Z</time></trkpt><trkpt lat="44.433738404621394" lon="10.227405426879368"><ele>541.5</ele><time>2026-04-11T13:19:53.947Z</time></trkpt><trkpt lat="44.43380068790879" lon="10.227590638158263"><ele>540.25</ele><time>2026-04-11T13:19:54.945Z</time></trkpt><trkpt lat="44.43385964947523" lon="10.227771200488894"><ele>539.0</ele><time>2026-04-11T13:19:55.945Z</time></trkpt><trkpt lat="44.43391300497679" lon="10.227959537743901"><ele>537.3333333333333</ele><time>2026-04-11T13:19:56.945Z</time></trkpt><trkpt lat="44.433962328129375" lon="10.228162247724471"><ele>535.6666666666666</ele><time>2026-04-11T13:19:57.945Z</time></trkpt><trkpt lat="44.43399542593643" lon="10.22837759741882"><ele>534.0</ele><time>2026-04-11T13:19:58.945Z</time></trkpt><trkpt lat="44.43401723120415" lon="10.228603127508915"><ele>534.0</ele><time>2026-04-11T13:19:59.945Z</time></trkpt><trkpt lat="44.43404474460677" lon="10.228827185634657"><ele>534.0</ele><time>2026-04-11T13:20:00.945Z</time></trkpt><trkpt lat="44.43409775100756" lon="10.229049129402567"><ele>534.0</ele><time>2026-04-11T13:20:01.946Z</time></trkpt><trkpt lat="44.434155159495184" lon="10.229262899494213"><ele>532.6666666666666</ele><time>2026-04-11T13:20:02.946Z</time></trkpt><trkpt lat="44.43421017483348" lon="10.229468304147572"><ele>531.3333333333333</ele><time>2026-04-11T13:20:03.945Z</time></trkpt><trkpt lat="44.434259429637116" lon="10.229668380401836"><ele>530.0</ele><time>2026-04-11T13:20:04.945Z</time></trkpt><trkpt lat="44.43431679640294" lon="10.229872894342497"><ele>527.0</ele><time>2026-04-11T13:20:05.945Z</time></trkpt><trkpt lat="44.43437604060557" lon="10.230073153414676"><ele>524.0</ele><time>2026-04-11T13:20:06.945Z</time></trkpt><trkpt lat="44.43443534479855" lon="10.230268500973926"><ele>521.0</ele><time>2026-04-11T13:20:07.945Z</time></trkpt><trkpt lat="44.43449183762689" lon="10.23045990917865"><ele>518.6666666666666</ele><time>2026-04-11T13:20:08.945Z</time></trkpt><trkpt lat="44.43455252440619" lon="10.230647436142903"><ele>516.3333333333334</ele><time>2026-04-11T13:20:09.945Z</time></trkpt><trkpt lat="44.43461285872794" lon="10.230844824927704"><ele>514.0</ele><time>2026-04-11T13:20:10.945Z</time></trkpt><trkpt lat="44.43466266127816" lon="10.231053521470653"><ele>516.0</ele><time>2026-04-11T13:20:11.945Z</time></trkpt><trkpt lat="44.434702118842" lon="10.23126487574888"><ele>518.0</ele><time>2026-04-11T13:20:12.945Z</time></trkpt><trkpt lat="44.43474688082643" lon="10.231479898494216"><ele>520.0</ele><time>2026-04-11T13:20:13.945Z</time></trkpt><trkpt lat="44.43479275364763" lon="10.231697126476737"><ele>520.0</ele><time>2026-04-11T13:20:14.945Z</time></trkpt><trkpt lat="44.434837635055416" lon="10.231916421585973"><ele>520.0</ele><time>2026-04-11T13:20:15.945Z</time></trkpt><trkpt lat="44.43488875903644" lon="10.232135399522583"><ele>520.0</ele><time>2026-04-11T13:20:16.945Z</time></trkpt><trkpt lat="44.43493788630299" lon="10.232358101650753"><ele>518.0</ele><time>2026-04-11T13:20:17.945Z</time></trkpt><trkpt lat="44.43498977713782" lon="10.232577165231108"><ele>516.0</ele><time>2026-04-11T13:20:18.945Z</time></trkpt><trkpt lat="44.43503711101906" lon="10.23277842543423"><ele>514.0</ele><time>2026-04-11T13:20:19.945Z</time></trkpt><trkpt lat="44.43508213633352" lon="10.232976903265191"><ele>511.75</ele><time>2026-04-11T13:20:20.945Z</time></trkpt><trkpt lat="44.43512612033236" lon="10.23315373363295"><ele>509.5</ele><time>2026-04-11T13:20:21.945Z</time></trkpt><trkpt lat="44.43515543711296" lon="10.233312526199835"><ele>507.25</ele><time>2026-04-11T13:20:22.945Z</time></trkpt><trkpt lat="44.435185489638066" lon="10.23345384235786"><ele>505.0</ele><time>2026-04-11T13:20:23.945Z</time></trkpt><trkpt lat="44.43523840679838" lon="10.233583796515878"><ele>505.0</ele><time>2026-04-11T13:20:24.945Z</time></trkpt><trkpt lat="44.43532282690194" lon="10.233688343808906"><ele>505.0</ele><time>2026-04-11T13:20:25.945Z</time></trkpt><trkpt lat="44.43543084605688" lon="10.233751529222838"><ele>505.0</ele><time>2026-04-11T13:20:26.945Z</time></trkpt><trkpt lat="44.435564609319904" lon="10.233777600176516"><ele>505.0</ele><time>2026-04-11T13:20:27.945Z</time></trkpt><trkpt lat="44.43573143691668" lon="10.233762492265319"><ele>505.0</ele><time>2026-04-11T13:20:28.945Z</time></trkpt><trkpt lat="44.43590682130287" lon="10.233754357975208"><ele>505.0</ele><time>2026-04-11T13:20:29.945Z</time></trkpt><trkpt lat="44.43607962669395" lon="10.233763578726972"><ele>505.0</ele><time>2026-04-11T13:20:30.945Z</time></trkpt><trkpt lat="44.436238515070734" lon="10.23377538218404"><ele>505.0</ele><time>2026-04-11T13:20:31.945Z</time></trkpt><trkpt lat="44.43637680661946" lon="10.233788843961438"><ele>505.0</ele><time>2026-04-11T13:20:32.945Z</time></trkpt><trkpt lat="44.43649185354074" lon="10.233811294413151"><ele>505.0</ele><time>2026-04-11T13:20:33.945Z</time></trkpt><trkpt lat="44.43658722448904" lon="10.233860195397263"><ele>505.0</ele><time>2026-04-11T13:20:34.945Z</time></trkpt><trkpt lat="44.436654295512916" lon="10.233965012533677"><ele>502.25</ele><time>2026-04-11T13:20:35.945Z</time></trkpt><trkpt lat="44.43667990522621" lon="10.234105218524565"><ele>499.5</ele><time>2026-04-11T13:20:36.945Z</time></trkpt><trkpt lat="44.436661239865764" lon="10.234263573100412"><ele>496.75</ele><time>2026-04-11T13:20:37.945Z</time></trkpt><trkpt lat="44.43658459279353" lon="10.234423998001756"><ele>494.0</ele><time>2026-04-11T13:20:38.945Z</time></trkpt><trkpt lat="44.43648650081935" lon="10.234552843723307"><ele>494.0</ele><time>2026-04-11T13:20:39.945Z</time></trkpt><trkpt lat="44.436398248674" lon="10.234674570527911"><ele>494.0</ele><time>2026-04-11T13:20:40.945Z</time></trkpt><trkpt lat="44.436329989118555" lon="10.234843174539836"><ele>494.0</ele><time>2026-04-11T13:20:41.945Z</time></trkpt><trkpt lat="44.43628699282673" lon="10.235053809274476"><ele>494.0</ele><time>2026-04-11T13:20:42.945Z</time></trkpt><trkpt lat="44.436265717675155" lon="10.23527904618529"><ele>491.4</ele><time>2026-04-11T13:20:43.945Z</time></trkpt><trkpt lat="44.43625457829149" lon="10.235478024276556"><ele>488.79999999999995</ele><time>2026-04-11T13:20:44.945Z</time></trkpt><trkpt lat="44.436242008875965" lon="10.235628733731776"><ele>486.20000000000005</ele><time>2026-04-11T13:20:45.945Z</time></trkpt><trkpt lat="44.43625358530192" lon="10.235761436984177"><ele>483.6</ele><time>2026-04-11T13:20:46.945Z</time></trkpt><trkpt lat="44.4362952006672" lon="10.235877068921303"><ele>481.0</ele><time>2026-04-11T13:20:47.945Z</time></trkpt><trkpt lat="44.43636263195161" lon="10.235949106927267"><ele>480.0</ele><time>2026-04-11T13:20:48.945Z</time></trkpt><trkpt lat="44.43645610688748" lon="10.235974640014646"><ele>479.0</ele><time>2026-04-11T13:20:49.945Z</time></trkpt><trkpt lat="44.43656804128828" lon="10.235942201547791"><ele>478.0</ele><time>2026-04-11T13:20:50.945Z</time></trkpt><trkpt lat="44.436690126628655" lon="10.235894806107709"><ele>477.0</ele><time>2026-04-11T13:20:51.946Z</time></trkpt><trkpt lat="44.43681629119308" lon="10.235904074454693"><ele>477.0</ele><time>2026-04-11T13:20:52.946Z</time></trkpt><trkpt lat="44.43693598836675" lon="10.235974249127331"><ele>477.0</ele><time>2026-04-11T13:20:53.946Z</time></trkpt><trkpt lat="44.43705594033371" lon="10.236090084030442"><ele>477.0</ele><time>2026-04-11T13:20:54.946Z</time></trkpt><trkpt lat="44.437157788760075" lon="10.23619824140334"><ele>477.0</ele><time>2026-04-11T13:20:55.946Z</time></trkpt><trkpt lat="44.437248801610274" lon="10.236278022022864"><ele>476.0</ele><time>2026-04-11T13:20:56.946Z</time></trkpt><trkpt lat="44.437352004541" lon="10.236324596480106"><ele>475.0</ele><time>2026-04-11T13:20:57.946Z</time></trkpt><trkpt lat="44.43746900861095" lon="10.236313101540368"><ele>474.0</ele><time>2026-04-11T13:20:58.946Z</time></trkpt><trkpt lat="44.437590861575146" lon="10.236257070765811"><ele>473.0</ele><time>2026-04-11T13:20:59.946Z</time></trkpt><trkpt lat="44.43772257602653" lon="10.236182166761372"><ele>473.0</ele><time>2026-04-11T13:21:00.946Z</time></trkpt><trkpt lat="44.437856826436516" lon="10.236116643806358"><ele>473.0</ele><time>2026-04-11T13:21:01.946Z</time></trkpt><trkpt lat="44.43799327341156" lon="10.236060604973199"><ele>473.0</ele><time>2026-04-11T13:21:02.946Z</time></trkpt><trkpt lat="44.43813648919393" lon="10.236008094131101"><ele>473.0</ele><time>2026-04-11T13:21:03.946Z</time></trkpt><trkpt lat="44.438277686890444" lon="10.2359648723765"><ele>471.0</ele><time>2026-04-11T13:21:04.946Z</time></trkpt><trkpt lat="44.43842308197611" lon="10.235939687272273"><ele>469.0</ele><time>2026-04-11T13:21:05.946Z</time></trkpt><trkpt lat="44.43857301393606" lon="10.235915608044518"><ele>467.0</ele><time>2026-04-11T13:21:06.946Z</time></trkpt><trkpt lat="44.438730305846924" lon="10.235889379746176"><ele>465.3333333333333</ele><time>2026-04-11T13:21:07.946Z</time></trkpt><trkpt lat="44.438884148758156" lon="10.235869969700092"><ele>463.66666666666663</ele><time>2026-04-11T13:21:08.946Z</time></trkpt><trkpt lat="44.43904188086243" lon="10.235852795443126"><ele>462.0</ele><time>2026-04-11T13:21:09.946Z</time></trkpt><trkpt lat="44.43919871123289" lon="10.235836489828351"><ele>462.0</ele><time>2026-04-11T13:21:10.946Z</time></trkpt><trkpt lat="44.43935386822745" lon="10.235822017852609"><ele>462.0</ele><time>2026-04-11T13:21:11.946Z</time></trkpt><trkpt lat="44.439504961619114" lon="10.235805728877002"><ele>462.0</ele><time>2026-04-11T13:21:12.946Z</time></trkpt><trkpt lat="44.43965767292231" lon="10.235790326970482"><ele>461.75</ele><time>2026-04-11T13:21:13.946Z</time></trkpt><trkpt lat="44.4398113970574" lon="10.235772001850428"><ele>461.5</ele><time>2026-04-11T13:21:14.946Z</time></trkpt><trkpt lat="44.43995512884363" lon="10.235756177944488"><ele>461.25</ele><time>2026-04-11T13:21:15.946Z</time></trkpt><trkpt lat="44.4400834935056" lon="10.235741189386372"><ele>461.0</ele><time>2026-04-11T13:21:16.946Z</time></trkpt><trkpt lat="44.44019146708795" lon="10.235732318313465"><ele>460.99999999999994</ele><time>2026-04-11T13:21:17.946Z</time></trkpt><trkpt lat="44.44028279964307" lon="10.2357311301601"><ele>461.0</ele><time>2026-04-11T13:21:18.946Z</time></trkpt><trkpt lat="44.440356614452234" lon="10.235748781039034"><ele>461.0</ele><time>2026-04-11T13:21:19.946Z</time></trkpt><trkpt lat="44.44041710856408" lon="10.235812616827205"><ele>461.0</ele><time>2026-04-11T13:21:20.946Z</time></trkpt><trkpt lat="44.44044563341871" lon="10.235923181792245"><ele>460.99999999999994</ele><time>2026-04-11T13:21:21.946Z</time></trkpt><trkpt lat="44.44044512478224" lon="10.23605928813217"><ele>461.0</ele><time>2026-04-11T13:21:22.946Z</time></trkpt><trkpt lat="44.44042795436259" lon="10.236194760125219"><ele>460.99999999999994</ele><time>2026-04-11T13:21:23.946Z</time></trkpt><trkpt lat="44.44042025752945" lon="10.236303451805098"><ele>461.0</ele><time>2026-04-11T13:21:24.946Z</time></trkpt><trkpt lat="44.4404125290227" lon="10.2363985771049"><ele>461.0</ele><time>2026-04-11T13:21:25.946Z</time></trkpt><trkpt lat="44.44041474023409" lon="10.236502389163462"><ele>461.0</ele><time>2026-04-11T13:21:26.946Z</time></trkpt><trkpt lat="44.440411350083444" lon="10.236612512999189"><ele>460.99999999999994</ele><time>2026-04-11T13:21:27.946Z</time></trkpt><trkpt lat="44.44040467822939" lon="10.236727324875956"><ele>461.0</ele><time>2026-04-11T13:21:28.946Z</time></trkpt><trkpt lat="44.44039465810207" lon="10.236838319576243"><ele>460.7142857142857</ele><time>2026-04-11T13:21:29.946Z</time></trkpt><trkpt lat="44.44038623127617" lon="10.236933440894553"><ele>460.42857142857144</ele><time>2026-04-11T13:21:30.946Z</time></trkpt><trkpt lat="44.44037736253841" lon="10.237024955984051"><ele>460.14285714285717</ele><time>2026-04-11T13:21:31.946Z</time></trkpt><trkpt lat="44.44037526064109" lon="10.237114374989622"><ele>459.8571428571429</ele><time>2026-04-11T13:21:32.946Z</time></trkpt><trkpt lat="44.44038032187503" lon="10.237205090738197"><ele>459.57142857142856</ele><time>2026-04-11T13:21:33.946Z</time></trkpt><trkpt lat="44.44038489036392" lon="10.237299229763275"><ele>459.28571428571433</ele><time>2026-04-11T13:21:34.946Z</time></trkpt><trkpt lat="44.44039159060108" lon="10.237393067163609"><ele>459.0</ele><time>2026-04-11T13:21:35.946Z</time></trkpt><trkpt lat="44.44041095562899" lon="10.237477402593118"><ele>463.79999999999995</ele><time>2026-04-11T13:21:36.946Z</time></trkpt><trkpt lat="44.44047107514824" lon="10.237621404532923"><ele>468.59999999999997</ele><time>2026-04-11T13:21:38.946Z</time></trkpt><trkpt lat="44.440559422822446" lon="10.237733019164128"><ele>473.4</ele><time>2026-04-11T13:21:40.946Z</time></trkpt><trkpt lat="44.440655373697936" lon="10.237845984460815"><ele>478.2</ele><time>2026-04-11T13:21:42.946Z</time></trkpt><trkpt lat="44.44069342910817" lon="10.237919585771426"><ele>483.0</ele><time>2026-04-11T13:21:43.946Z</time></trkpt><trkpt lat="44.440726303557014" lon="10.23800105492821"><ele>482.5</ele><time>2026-04-11T13:21:44.946Z</time></trkpt><trkpt lat="44.44075801875421" lon="10.238153094761206"><ele>482.0</ele><time>2026-04-11T13:21:46.946Z</time></trkpt><trkpt lat="44.440758985830016" lon="10.23826852453086"><ele>481.5</ele><time>2026-04-11T13:21:48.946Z</time></trkpt><trkpt lat="44.44076028711498" lon="10.238364457036598"><ele>481.0</ele><time>2026-04-11T13:21:50.946Z</time></trkpt><trkpt lat="44.44076563968179" lon="10.238468461591422"><ele>480.5</ele><time>2026-04-11T13:21:52.946Z</time></trkpt><trkpt lat="44.44077618532556" lon="10.238586341328322"><ele>480.0</ele><time>2026-04-11T13:21:55.946Z</time></trkpt><trkpt lat="44.4407894505087" lon="10.238710578654965"><ele>480.0</ele><time>2026-04-11T13:21:58.946Z</time></trkpt><trkpt lat="44.440822640322814" lon="10.238843976349896"><ele>480.0</ele><time>2026-04-11T13:22:01.944Z</time></trkpt><trkpt lat="44.44087942011224" lon="10.238957362342004"><ele>480.0</ele><time>2026-04-11T13:22:03.945Z</time></trkpt><trkpt lat="44.44098016999189" lon="10.239063200050008"><ele>480.0</ele><time>2026-04-11T13:22:05.945Z</time></trkpt><trkpt lat="44.44104545610584" lon="10.239113884895303"><ele>480.0</ele><time>2026-04-11T13:22:06.945Z</time></trkpt><trkpt lat="44.44116445632039" lon="10.23914859051314"><ele>484.0</ele><time>2026-04-11T13:22:07.944Z</time></trkpt><trkpt lat="44.441300398193384" lon="10.239178375331612"><ele>488.0</ele><time>2026-04-11T13:22:08.944Z</time></trkpt><trkpt lat="44.44146314617746" lon="10.23923423637223"><ele>492.0</ele><time>2026-04-11T13:22:09.945Z</time></trkpt><trkpt lat="44.44166890907954" lon="10.239289878923543"><ele>492.0</ele><time>2026-04-11T13:22:10.945Z</time></trkpt><trkpt lat="44.441883252460244" lon="10.239341346307421"><ele>492.0</ele><time>2026-04-11T13:22:11.945Z</time></trkpt><trkpt lat="44.442105292540724" lon="10.239372920667888"><ele>492.0</ele><time>2026-04-11T13:22:12.945Z</time></trkpt><trkpt lat="44.44231090171746" lon="10.239394508540371"><ele>494.75</ele><time>2026-04-11T13:22:13.945Z</time></trkpt><trkpt lat="44.442472308645804" lon="10.239424039540902"><ele>497.5</ele><time>2026-04-11T13:22:14.945Z</time></trkpt><trkpt lat="44.44261381901212" lon="10.239461447300634"><ele>500.25</ele><time>2026-04-11T13:22:15.945Z</time></trkpt><trkpt lat="44.442749103546426" lon="10.239524504030728"><ele>503.0</ele><time>2026-04-11T13:22:16.945Z</time></trkpt><trkpt lat="44.44287728781992" lon="10.239624632706937"><ele>501.66666666666663</ele><time>2026-04-11T13:22:17.945Z</time></trkpt><trkpt lat="44.442996631892555" lon="10.2397409653278"><ele>500.33333333333337</ele><time>2026-04-11T13:22:18.945Z</time></trkpt><trkpt lat="44.44311405538263" lon="10.239875297987549"><ele>499.0</ele><time>2026-04-11T13:22:19.945Z</time></trkpt><trkpt lat="44.44321891328667" lon="10.240050088007372"><ele>499.0</ele><time>2026-04-11T13:22:20.945Z</time></trkpt><trkpt lat="44.443311724794945" lon="10.240252744557607"><ele>499.0</ele><time>2026-04-11T13:22:21.945Z</time></trkpt><trkpt lat="44.443393564031005" lon="10.240475769323028"><ele>499.0</ele><time>2026-04-11T13:22:22.945Z</time></trkpt><trkpt lat="44.44347211099507" lon="10.240698424081243"><ele>498.0</ele><time>2026-04-11T13:22:23.945Z</time></trkpt><trkpt lat="44.44355313199221" lon="10.240935825524373"><ele>497.0</ele><time>2026-04-11T13:22:24.945Z</time></trkpt><trkpt lat="44.44363272427805" lon="10.241163768363185"><ele>496.0</ele><time>2026-04-11T13:22:25.945Z</time></trkpt><trkpt lat="44.44372085424491" lon="10.241404263926883"><ele>500.33333333333337</ele><time>2026-04-11T13:22:26.945Z</time></trkpt><trkpt lat="44.443808736661865" lon="10.241643837709528"><ele>504.66666666666663</ele><time>2026-04-11T13:22:27.945Z</time></trkpt><trkpt lat="44.443900326133445" lon="10.241894135609646"><ele>509.0</ele><time>2026-04-11T13:22:28.945Z</time></trkpt><trkpt lat="44.4439964782963" lon="10.242157189512252"><ele>505.66666666666663</ele><time>2026-04-11T13:22:29.945Z</time></trkpt><trkpt lat="44.444090995506635" lon="10.242423699709798"><ele>502.33333333333337</ele><time>2026-04-11T13:22:30.945Z</time></trkpt><trkpt lat="44.44418750216804" lon="10.242696005397498"><ele>499.0</ele><time>2026-04-11T13:22:31.945Z</time></trkpt><trkpt lat="44.44428675514826" lon="10.242970515364414"><ele>497.33333333333337</ele><time>2026-04-11T13:22:32.945Z</time></trkpt><trkpt lat="44.44438637057551" lon="10.24324634623975"><ele>495.66666666666663</ele><time>2026-04-11T13:22:33.945Z</time></trkpt><trkpt lat="44.444487128152694" lon="10.243524780974191"><ele>494.0</ele><time>2026-04-11T13:22:34.945Z</time></trkpt><trkpt lat="44.44458658893478" lon="10.243802788988011"><ele>498.0</ele><time>2026-04-11T13:22:35.945Z</time></trkpt><trkpt lat="44.44468345752436" lon="10.244075934359318"><ele>502.0</ele><time>2026-04-11T13:22:36.945Z</time></trkpt><trkpt lat="44.44478473987075" lon="10.244349145972166"><ele>506.0</ele><time>2026-04-11T13:22:37.945Z</time></trkpt><trkpt lat="44.44488490198272" lon="10.244625014870813"><ele>506.3333333333333</ele><time>2026-04-11T13:22:38.945Z</time></trkpt><trkpt lat="44.44498355101209" lon="10.244903911085105"><ele>506.66666666666663</ele><time>2026-04-11T13:22:39.945Z</time></trkpt><trkpt lat="44.44507731618184" lon="10.245178964700127"><ele>507.0</ele><time>2026-04-11T13:22:40.945Z</time></trkpt><trkpt lat="44.44517189701953" lon="10.245450455596615"><ele>507.33333333333337</ele><time>2026-04-11T13:22:41.945Z</time></trkpt><trkpt lat="44.4452667611898" lon="10.245718249927913"><ele>507.6666666666667</ele><time>2026-04-11T13:22:42.945Z</time></trkpt><trkpt lat="44.44535780314989" lon="10.245978627093168"><ele>508.0</ele><time>2026-04-11T13:22:43.945Z</time></trkpt><trkpt lat="44.445438078125065" lon="10.246212756205962"><ele>513.0</ele><time>2026-04-11T13:22:44.945Z</time></trkpt><trkpt lat="44.445510378241025" lon="10.246422206640226"><ele>518.0</ele><time>2026-04-11T13:22:45.945Z</time></trkpt><trkpt lat="44.44559076726661" lon="10.24660735188243"><ele>523.0</ele><time>2026-04-11T13:22:46.945Z</time></trkpt><trkpt lat="44.44569068525572" lon="10.246780638507632"><ele>523.0</ele><time>2026-04-11T13:22:47.945Z</time></trkpt><trkpt lat="44.44579964376759" lon="10.246939425737677"><ele>523.0</ele><time>2026-04-11T13:22:48.945Z</time></trkpt><trkpt lat="44.44593160738419" lon="10.247067875952869"><ele>523.0</ele><time>2026-04-11T13:22:49.945Z</time></trkpt><trkpt lat="44.446072677058034" lon="10.247165958027738"><ele>523.0</ele><time>2026-04-11T13:22:50.945Z</time></trkpt><trkpt lat="44.44621174557166" lon="10.247239158286499"><ele>523.0</ele><time>2026-04-11T13:22:51.945Z</time></trkpt><trkpt lat="44.44636463631137" lon="10.247289899961604"><ele>523.0</ele><time>2026-04-11T13:22:52.945Z</time></trkpt><trkpt lat="44.446521522253256" lon="10.24730848241641"><ele>525.3333333333334</ele><time>2026-04-11T13:22:53.945Z</time></trkpt><trkpt lat="44.44668577898287" lon="10.24729862785028"><ele>527.6666666666666</ele><time>2026-04-11T13:22:54.945Z</time></trkpt><trkpt lat="44.44684329597097" lon="10.247262352839988"><ele>530.0</ele><time>2026-04-11T13:22:55.945Z</time></trkpt><trkpt lat="44.446997738799126" lon="10.247192438370238"><ele>528.0</ele><time>2026-04-11T13:22:56.945Z</time></trkpt><trkpt lat="44.44714774302907" lon="10.247093822330337"><ele>526.0</ele><time>2026-04-11T13:22:57.945Z</time></trkpt><trkpt lat="44.4472943008905" lon="10.246956999680384"><ele>524.0</ele><time>2026-04-11T13:22:58.945Z</time></trkpt><trkpt lat="44.44743657300413" lon="10.246788087548298"><ele>524.0</ele><time>2026-04-11T13:22:59.945Z</time></trkpt><trkpt lat="44.447580419757614" lon="10.24658760100671"><ele>524.0</ele><time>2026-04-11T13:23:00.945Z</time></trkpt><trkpt lat="44.44773482568871" lon="10.246362582662506"><ele>524.0</ele><time>2026-04-11T13:23:01.945Z</time></trkpt><trkpt lat="44.44789148796709" lon="10.246128166384315"><ele>527.5</ele><time>2026-04-11T13:23:02.945Z</time></trkpt><trkpt lat="44.448058482667626" lon="10.245881168012113"><ele>531.0</ele><time>2026-04-11T13:23:03.945Z</time></trkpt><trkpt lat="44.44823381260583" lon="10.245622802521327"><ele>534.0</ele><time>2026-04-11T13:23:04.945Z</time></trkpt><trkpt lat="44.44840932789398" lon="10.245360463391608"><ele>537.0</ele><time>2026-04-11T13:23:05.945Z</time></trkpt><trkpt lat="44.448596638837735" lon="10.245096004195284"><ele>537.0</ele><time>2026-04-11T13:23:06.945Z</time></trkpt><trkpt lat="44.4487804818851" lon="10.244841638692076"><ele>537.0</ele><time>2026-04-11T13:23:07.945Z</time></trkpt><trkpt lat="44.44894778323567" lon="10.244608928458751"><ele>537.6666666666666</ele><time>2026-04-11T13:23:08.945Z</time></trkpt><trkpt lat="44.44911210152251" lon="10.244393751860688"><ele>538.3333333333333</ele><time>2026-04-11T13:23:09.945Z</time></trkpt><trkpt lat="44.449282133346856" lon="10.244195664982158"><ele>539.0</ele><time>2026-04-11T13:23:10.945Z</time></trkpt><trkpt lat="44.44946158340489" lon="10.244012680573034"><ele>540.5</ele><time>2026-04-11T13:23:11.945Z</time></trkpt><trkpt lat="44.449651193860625" lon="10.243831900056486"><ele>542.0</ele><time>2026-04-11T13:23:12.945Z</time></trkpt><trkpt lat="44.44985618014859" lon="10.243664972641108"><ele>542.0</ele><time>2026-04-11T13:23:13.945Z</time></trkpt><trkpt lat="44.45006363198898" lon="10.243513230984183"><ele>542.0</ele><time>2026-04-11T13:23:14.945Z</time></trkpt><trkpt lat="44.45027066701535" lon="10.243365026054708"><ele>540.3333333333333</ele><time>2026-04-11T13:23:15.946Z</time></trkpt><trkpt lat="44.4504650686719" lon="10.243223019309127"><ele>538.6666666666666</ele><time>2026-04-11T13:23:16.946Z</time></trkpt><trkpt lat="44.45065395889178" lon="10.2430784026232"><ele>537.0</ele><time>2026-04-11T13:23:17.946Z</time></trkpt><trkpt lat="44.450837029013" lon="10.242939039754559"><ele>542.0</ele><time>2026-04-11T13:23:18.946Z</time></trkpt><trkpt lat="44.451015214864825" lon="10.242780001282878"><ele>547.0</ele><time>2026-04-11T13:23:19.946Z</time></trkpt><trkpt lat="44.45117441585872" lon="10.24260425055831"><ele>552.0</ele><time>2026-04-11T13:23:20.946Z</time></trkpt><trkpt lat="44.45132039463642" lon="10.242411623799937"><ele>554.6666666666666</ele><time>2026-04-11T13:23:21.946Z</time></trkpt><trkpt lat="44.451453589304634" lon="10.242207941784038"><ele>557.3333333333333</ele><time>2026-04-11T13:23:22.946Z</time></trkpt><trkpt lat="44.45157939040337" lon="10.242016952828704"><ele>560.0</ele><time>2026-04-11T13:23:23.946Z</time></trkpt><trkpt lat="44.45170536961619" lon="10.24186250603735"><ele>560.0</ele><time>2026-04-11T13:23:24.946Z</time></trkpt><trkpt lat="44.451839852902616" lon="10.241734034329168"><ele>560.0</ele><time>2026-04-11T13:23:25.946Z</time></trkpt><trkpt lat="44.45197615553072" lon="10.241628628363063"><ele>560.0</ele><time>2026-04-11T13:23:26.946Z</time></trkpt><trkpt lat="44.45211032979042" lon="10.241523117854817"><ele>561.75</ele><time>2026-04-11T13:23:27.946Z</time></trkpt><trkpt lat="44.45222575603225" lon="10.241403647727333"><ele>563.5</ele><time>2026-04-11T13:23:28.946Z</time></trkpt><trkpt lat="44.45231461062835" lon="10.241249027880482"><ele>565.25</ele><time>2026-04-11T13:23:29.946Z</time></trkpt><trkpt lat="44.45237407255799" lon="10.241061220132512"><ele>567.0</ele><time>2026-04-11T13:23:30.946Z</time></trkpt><trkpt lat="44.45240971094565" lon="10.240856981981638"><ele>567.0</ele><time>2026-04-11T13:23:31.946Z</time></trkpt><trkpt lat="44.45242865061684" lon="10.240652103984964"><ele>567.0</ele><time>2026-04-11T13:23:32.946Z</time></trkpt><trkpt lat="44.452459425395304" lon="10.240467131668902"><ele>567.0</ele><time>2026-04-11T13:23:33.946Z</time></trkpt><trkpt lat="44.452522405836234" lon="10.24033004880365"><ele>567.0</ele><time>2026-04-11T13:23:34.946Z</time></trkpt><trkpt lat="44.45260987630992" lon="10.240226677617434"><ele>568.25</ele><time>2026-04-11T13:23:35.946Z</time></trkpt><trkpt lat="44.45271757291661" lon="10.24016257861484"><ele>569.5</ele><time>2026-04-11T13:23:36.946Z</time></trkpt><trkpt lat="44.45283837799377" lon="10.240128751961416"><ele>570.75</ele><time>2026-04-11T13:23:37.946Z</time></trkpt><trkpt lat="44.45296069705025" lon="10.240139912120515"><ele>572.0</ele><time>2026-04-11T13:23:38.946Z</time></trkpt><trkpt lat="44.453075734251755" lon="10.240194613930061"><ele>572.6666666666666</ele><time>2026-04-11T13:23:39.946Z</time></trkpt><trkpt lat="44.45319309133875" lon="10.240293983244237"><ele>573.3333333333334</ele><time>2026-04-11T13:23:40.946Z</time></trkpt><trkpt lat="44.4533221201863" lon="10.24040814568094"><ele>574.0</ele><time>2026-04-11T13:23:41.946Z</time></trkpt><trkpt lat="44.453466378420714" lon="10.240519983852034"><ele>574.0</ele><time>2026-04-11T13:23:42.946Z</time></trkpt><trkpt lat="44.45362470125224" lon="10.240632413412659"><ele>574.0</ele><time>2026-04-11T13:23:43.946Z</time></trkpt><trkpt lat="44.45379111628143" lon="10.240708923981186"><ele>574.0</ele><time>2026-04-11T13:23:44.946Z</time></trkpt><trkpt lat="44.45397154714719" lon="10.240764601289781"><ele>576.0</ele><time>2026-04-11T13:23:45.946Z</time></trkpt><trkpt lat="44.45416517164732" lon="10.24079758219403"><ele>578.0</ele><time>2026-04-11T13:23:46.946Z</time></trkpt><trkpt lat="44.45436482514651" lon="10.240819722463923"><ele>580.0</ele><time>2026-04-11T13:23:47.946Z</time></trkpt><trkpt lat="44.45457462012529" lon="10.240844371076909"><ele>581.6666666666667</ele><time>2026-04-11T13:23:48.946Z</time></trkpt><trkpt lat="44.45478665517788" lon="10.240880544597383"><ele>583.3333333333334</ele><time>2026-04-11T13:23:49.946Z</time></trkpt><trkpt lat="44.454995537545564" lon="10.240920096507269"><ele>585.0</ele><time>2026-04-11T13:23:50.946Z</time></trkpt><trkpt lat="44.45519947487666" lon="10.240959998891013"><ele>585.0</ele><time>2026-04-11T13:23:51.946Z</time></trkpt><trkpt lat="44.45538455713489" lon="10.24101132251024"><ele>585.0</ele><time>2026-04-11T13:23:52.946Z</time></trkpt><trkpt lat="44.45554497047182" lon="10.24107635252503"><ele>585.0</ele><time>2026-04-11T13:23:53.946Z</time></trkpt><trkpt lat="44.45570094662629" lon="10.241158823199752"><ele>587.0</ele><time>2026-04-11T13:23:54.946Z</time></trkpt><trkpt lat="44.45585135267534" lon="10.241281568523222"><ele>589.0</ele><time>2026-04-11T13:23:55.946Z</time></trkpt><trkpt lat="44.45598664316436" lon="10.241429122488164"><ele>591.0</ele><time>2026-04-11T13:23:56.946Z</time></trkpt><trkpt lat="44.45611366578583" lon="10.241589716400426"><ele>590.6666666666666</ele><time>2026-04-11T13:23:57.946Z</time></trkpt><trkpt lat="44.45621665780858" lon="10.241770414783998"><ele>590.3333333333333</ele><time>2026-04-11T13:23:58.946Z</time></trkpt><trkpt lat="44.456301945855635" lon="10.241975256124643"><ele>590.0</ele><time>2026-04-11T13:23:59.946Z</time></trkpt><trkpt lat="44.45636632352827" lon="10.242198433066811"><ele>590.3333333333333</ele><time>2026-04-11T13:24:00.946Z</time></trkpt><trkpt lat="44.45641649862514" lon="10.242433568236349"><ele>590.6666666666666</ele><time>2026-04-11T13:24:01.946Z</time></trkpt><trkpt lat="44.456448884022" lon="10.24268068014274"><ele>591.0</ele><time>2026-04-11T13:24:02.946Z</time></trkpt><trkpt lat="44.45645680858478" lon="10.242931001061347"><ele>590.6666666666666</ele><time>2026-04-11T13:24:03.946Z</time></trkpt><trkpt lat="44.456447915680826" lon="10.243180289776518"><ele>590.3333333333333</ele><time>2026-04-11T13:24:04.946Z</time></trkpt><trkpt lat="44.45643068987629" lon="10.243426095873096"><ele>590.0</ele><time>2026-04-11T13:24:05.946Z</time></trkpt><trkpt lat="44.45641189356031" lon="10.243663139841281"><ele>590.0</ele><time>2026-04-11T13:24:06.944Z</time></trkpt><trkpt lat="44.45639251973005" lon="10.243892332141225"><ele>590.0</ele><time>2026-04-11T13:24:07.944Z</time></trkpt><trkpt lat="44.45637997524997" lon="10.244107295068684"><ele>590.0</ele><time>2026-04-11T13:24:08.944Z</time></trkpt><trkpt lat="44.45636871092369" lon="10.244319668523115"><ele>590.25</ele><time>2026-04-11T13:24:09.944Z</time></trkpt><trkpt lat="44.45635960328216" lon="10.244511236406973"><ele>590.5</ele><time>2026-04-11T13:24:10.944Z</time></trkpt><trkpt lat="44.45635952273057" lon="10.244682465009003"><ele>590.75</ele><time>2026-04-11T13:24:11.944Z</time></trkpt><trkpt lat="44.456379167763025" lon="10.244832322386317"><ele>591.0</ele><time>2026-04-11T13:24:12.944Z</time></trkpt><trkpt lat="44.456431886995134" lon="10.244981143951923"><ele>591.75</ele><time>2026-04-11T13:24:13.944Z</time></trkpt><trkpt lat="44.456516715902616" lon="10.245121690058445"><ele>592.5</ele><time>2026-04-11T13:24:14.944Z</time></trkpt><trkpt lat="44.456623244740285" lon="10.24525075898268"><ele>593.25</ele><time>2026-04-11T13:24:15.945Z</time></trkpt><trkpt lat="44.45673475791318" lon="10.245391863410813"><ele>594.0</ele><time>2026-04-11T13:24:16.944Z</time></trkpt><trkpt lat="44.456853535524374" lon="10.245545066699366"><ele>593.0</ele><time>2026-04-11T13:24:17.944Z</time></trkpt><trkpt lat="44.45696530494806" lon="10.245701329148082"><ele>592.0</ele><time>2026-04-11T13:24:18.944Z</time></trkpt><trkpt lat="44.45707059816867" lon="10.245862733078395"><ele>591.0</ele><time>2026-04-11T13:24:19.944Z</time></trkpt><trkpt lat="44.45717921509424" lon="10.246014970939395"><ele>593.5</ele><time>2026-04-11T13:24:20.944Z</time></trkpt><trkpt lat="44.457278658288146" lon="10.246160516022393"><ele>596.0</ele><time>2026-04-11T13:24:21.944Z</time></trkpt><trkpt lat="44.45736972007844" lon="10.246297616448338"><ele>598.5</ele><time>2026-04-11T13:24:22.944Z</time></trkpt><trkpt lat="44.45742634739904" lon="10.246460014479267"><ele>601.0</ele><time>2026-04-11T13:24:23.944Z</time></trkpt><trkpt lat="44.45744889143678" lon="10.246643295578"><ele>601.0</ele><time>2026-04-11T13:24:24.944Z</time></trkpt><trkpt lat="44.45744715398946" lon="10.246836271125183"><ele>601.0</ele><time>2026-04-11T13:24:25.944Z</time></trkpt><trkpt lat="44.45745779371872" lon="10.247030876376245"><ele>601.0</ele><time>2026-04-11T13:24:26.944Z</time></trkpt><trkpt lat="44.457503594886454" lon="10.2472162168669"><ele>601.0</ele><time>2026-04-11T13:24:27.944Z</time></trkpt><trkpt lat="44.45756770926521" lon="10.247398855639034"><ele>601.0</ele><time>2026-04-11T13:24:28.944Z</time></trkpt><trkpt lat="44.45763649818632" lon="10.247581973755004"><ele>601.0</ele><time>2026-04-11T13:24:29.944Z</time></trkpt><trkpt lat="44.45770850811627" lon="10.247762867766355"><ele>601.0</ele><time>2026-04-11T13:24:30.944Z</time></trkpt><trkpt lat="44.45778409848954" lon="10.247942921655454"><ele>601.0</ele><time>2026-04-11T13:24:31.944Z</time></trkpt><trkpt lat="44.457866249570806" lon="10.248113690861949"><ele>601.5</ele><time>2026-04-11T13:24:32.944Z</time></trkpt><trkpt lat="44.45797434544753" lon="10.248262114332265"><ele>602.0</ele><time>2026-04-11T13:24:33.944Z</time></trkpt><trkpt lat="44.4580946964245" lon="10.248400275433799"><ele>602.5</ele><time>2026-04-11T13:24:34.944Z</time></trkpt><trkpt lat="44.45820254978147" lon="10.248528878806285"><ele>603.0</ele><time>2026-04-11T13:24:35.944Z</time></trkpt><trkpt lat="44.458309146744405" lon="10.248634537126868"><ele>603.0</ele><time>2026-04-11T13:24:36.944Z</time></trkpt><trkpt lat="44.458426554800646" lon="10.248730776278089"><ele>603.0</ele><time>2026-04-11T13:24:37.944Z</time></trkpt><trkpt lat="44.458562998479806" lon="10.248791793867886"><ele>603.0</ele><time>2026-04-11T13:24:38.944Z</time></trkpt><trkpt lat="44.4587047521455" lon="10.24884459038661"><ele>603.0</ele><time>2026-04-11T13:24:39.944Z</time></trkpt><trkpt lat="44.45883094616313" lon="10.248918340886659"><ele>604.0</ele><time>2026-04-11T13:24:40.944Z</time></trkpt><trkpt lat="44.45894451850187" lon="10.249036462712576"><ele>605.0</ele><time>2026-04-11T13:24:41.944Z</time></trkpt><trkpt lat="44.459042042151054" lon="10.249188909891783"><ele>606.0</ele><time>2026-04-11T13:24:42.944Z</time></trkpt><trkpt lat="44.45910783921546" lon="10.249375339735455"><ele>607.0</ele><time>2026-04-11T13:24:43.944Z</time></trkpt><trkpt lat="44.459160669896086" lon="10.249564350970251"><ele>607.0</ele><time>2026-04-11T13:24:44.944Z</time></trkpt><trkpt lat="44.45922556165693" lon="10.249739727837861"><ele>607.0</ele><time>2026-04-11T13:24:45.944Z</time></trkpt><trkpt lat="44.45927981366564" lon="10.24991778528224"><ele>607.0</ele><time>2026-04-11T13:24:46.944Z</time></trkpt><trkpt lat="44.45933406493722" lon="10.250072960106825"><ele>607.0</ele><time>2026-04-11T13:24:47.944Z</time></trkpt><trkpt lat="44.45940251459102" lon="10.250219064672827"><ele>605.75</ele><time>2026-04-11T13:24:48.944Z</time></trkpt><trkpt lat="44.45949520077335" lon="10.250346375492972"><ele>604.5</ele><time>2026-04-11T13:24:49.944Z</time></trkpt><trkpt lat="44.45961573152488" lon="10.250450158289267"><ele>603.25</ele><time>2026-04-11T13:24:50.944Z</time></trkpt><trkpt lat="44.459758721887184" lon="10.25051731407829"><ele>602.0</ele><time>2026-04-11T13:24:51.944Z</time></trkpt><trkpt lat="44.45990545354823" lon="10.25058790848511"><ele>604.0</ele><time>2026-04-11T13:24:52.944Z</time></trkpt><trkpt lat="44.46004670489312" lon="10.25068918796056"><ele>606.0</ele><time>2026-04-11T13:24:53.944Z</time></trkpt><trkpt lat="44.46018167002751" lon="10.2508289523349"><ele>608.0</ele><time>2026-04-11T13:24:54.944Z</time></trkpt><trkpt lat="44.46031410602525" lon="10.250979635973769"><ele>608.0</ele><time>2026-04-11T13:24:55.944Z</time></trkpt><trkpt lat="44.46044858728062" lon="10.251134417687451"><ele>608.0</ele><time>2026-04-11T13:24:56.944Z</time></trkpt><trkpt lat="44.46057576455072" lon="10.251296937659028"><ele>608.0</ele><time>2026-04-11T13:24:57.944Z</time></trkpt><trkpt lat="44.46069233800363" lon="10.25144462331285"><ele>607.25</ele><time>2026-04-11T13:24:58.944Z</time></trkpt><trkpt lat="44.4608002903542" lon="10.251571897465636"><ele>606.5</ele><time>2026-04-11T13:24:59.944Z</time></trkpt><trkpt lat="44.46088021226359" lon="10.25170619854098"><ele>605.75</ele><time>2026-04-11T13:25:00.944Z</time></trkpt><trkpt lat="44.46092934994301" lon="10.251855545655097"><ele>605.0</ele><time>2026-04-11T13:25:01.944Z</time></trkpt><trkpt lat="44.46092945059011" lon="10.252025785549906"><ele>605.0</ele><time>2026-04-11T13:25:02.944Z</time></trkpt><trkpt lat="44.460891154779496" lon="10.252196036917582"><ele>605.0</ele><time>2026-04-11T13:25:03.944Z</time></trkpt><trkpt lat="44.46082660885596" lon="10.252362325164118"><ele>605.0</ele><time>2026-04-11T13:25:04.944Z</time></trkpt><trkpt lat="44.46076445490906" lon="10.252527505161899"><ele>605.0</ele><time>2026-04-11T13:25:05.944Z</time></trkpt><trkpt lat="44.46071140976067" lon="10.252675654388995"><ele>605.0</ele><time>2026-04-11T13:25:06.945Z</time></trkpt><trkpt lat="44.46067669643905" lon="10.252803863610303"><ele>605.0</ele><time>2026-04-11T13:25:07.945Z</time></trkpt><trkpt lat="44.46067082989212" lon="10.252935071452077"><ele>605.0</ele><time>2026-04-11T13:25:08.945Z</time></trkpt><trkpt lat="44.46069904015997" lon="10.253077196010976"><ele>605.0</ele><time>2026-04-11T13:25:09.945Z</time></trkpt><trkpt lat="44.46077873855708" lon="10.253199197416937"><ele>605.0</ele><time>2026-04-11T13:25:10.945Z</time></trkpt><trkpt lat="44.46087789530316" lon="10.253346164852104"><ele>605.0</ele><time>2026-04-11T13:25:11.945Z</time></trkpt><trkpt lat="44.460969931854095" lon="10.253533854323296"><ele>605.0</ele><time>2026-04-11T13:25:12.945Z</time></trkpt><trkpt lat="44.461068452640966" lon="10.25371488496874"><ele>605.0</ele><time>2026-04-11T13:25:13.945Z</time></trkpt><trkpt lat="44.46117968695162" lon="10.253891660733757"><ele>607.3333333333333</ele><time>2026-04-11T13:25:14.945Z</time></trkpt><trkpt lat="44.46129439745535" lon="10.254063913437047"><ele>609.6666666666666</ele><time>2026-04-11T13:25:15.945Z</time></trkpt><trkpt lat="44.46139830404297" lon="10.254229492330573"><ele>612.0</ele><time>2026-04-11T13:25:16.945Z</time></trkpt><trkpt lat="44.461491952502556" lon="10.254384025598494"><ele>612.0</ele><time>2026-04-11T13:25:17.945Z</time></trkpt><trkpt lat="44.46156952800268" lon="10.25454420381795"><ele>612.0</ele><time>2026-04-11T13:25:18.945Z</time></trkpt><trkpt lat="44.46162368979989" lon="10.254723342714204"><ele>612.0</ele><time>2026-04-11T13:25:19.945Z</time></trkpt><trkpt lat="44.46165441784607" lon="10.254913665773204"><ele>612.0</ele><time>2026-04-11T13:25:20.945Z</time></trkpt><trkpt lat="44.46166894954395" lon="10.25511157537757"><ele>609.5</ele><time>2026-04-11T13:25:21.945Z</time></trkpt><trkpt lat="44.46172007092505" lon="10.255291473844592"><ele>607.0</ele><time>2026-04-11T13:25:22.945Z</time></trkpt><trkpt lat="44.46181446880714" lon="10.255442723745865"><ele>604.5</ele><time>2026-04-11T13:25:23.945Z</time></trkpt><trkpt lat="44.461939730722676" lon="10.255574264489542"><ele>602.0</ele><time>2026-04-11T13:25:24.945Z</time></trkpt><trkpt lat="44.46207694931387" lon="10.255681997567347"><ele>602.3333333333333</ele><time>2026-04-11T13:25:25.945Z</time></trkpt><trkpt lat="44.46221974619915" lon="10.2557884492771"><ele>602.6666666666666</ele><time>2026-04-11T13:25:26.945Z</time></trkpt><trkpt lat="44.46237562229339" lon="10.255882028957322"><ele>603.0</ele><time>2026-04-11T13:25:27.945Z</time></trkpt><trkpt lat="44.46253391976577" lon="10.255975087448395"><ele>603.0</ele><time>2026-04-11T13:25:28.945Z</time></trkpt><trkpt lat="44.4626900218301" lon="10.256087309442613"><ele>603.0</ele><time>2026-04-11T13:25:29.945Z</time></trkpt><trkpt lat="44.462848188434975" lon="10.256212336514512"><ele>603.0</ele><time>2026-04-11T13:25:30.945Z</time></trkpt><trkpt lat="44.46299862431677" lon="10.256335376143264"><ele>601.3333333333334</ele><time>2026-04-11T13:25:31.945Z</time></trkpt><trkpt lat="44.4631622126018" lon="10.256436692789284"><ele>599.6666666666667</ele><time>2026-04-11T13:25:32.945Z</time></trkpt><trkpt lat="44.463330145934435" lon="10.256504761771195"><ele>598.0</ele><time>2026-04-11T13:25:33.945Z</time></trkpt><trkpt lat="44.46349987842594" lon="10.256572209879812"><ele>598.0</ele><time>2026-04-11T13:25:34.945Z</time></trkpt><trkpt lat="44.46366485319055" lon="10.256665221249532"><ele>598.0</ele><time>2026-04-11T13:25:35.945Z</time></trkpt><trkpt lat="44.463815004924776" lon="10.256814228256248"><ele>598.0</ele><time>2026-04-11T13:25:36.945Z</time></trkpt><trkpt lat="44.46395061725153" lon="10.2570056658834"><ele>600.0</ele><time>2026-04-11T13:25:37.945Z</time></trkpt><trkpt lat="44.464065813069794" lon="10.25721382633553"><ele>602.0</ele><time>2026-04-11T13:25:38.945Z</time></trkpt><trkpt lat="44.46418401272679" lon="10.257429491523625"><ele>604.0</ele><time>2026-04-11T13:25:39.945Z</time></trkpt><trkpt lat="44.464312068542" lon="10.257652625015005"><ele>604.0</ele><time>2026-04-11T13:25:40.945Z</time></trkpt><trkpt lat="44.46442870035999" lon="10.257870823678156"><ele>604.0</ele><time>2026-04-11T13:25:41.945Z</time></trkpt><trkpt lat="44.46454251049734" lon="10.258059093701013"><ele>604.0</ele><time>2026-04-11T13:25:42.945Z</time></trkpt><trkpt lat="44.46465226392184" lon="10.258222946310244"><ele>605.5</ele><time>2026-04-11T13:25:43.945Z</time></trkpt><trkpt lat="44.4647476592059" lon="10.258367878332601"><ele>607.0</ele><time>2026-04-11T13:25:44.945Z</time></trkpt><trkpt lat="44.46484258990926" lon="10.258483749454546"><ele>608.5</ele><time>2026-04-11T13:25:45.945Z</time></trkpt><trkpt lat="44.46496135308555" lon="10.25857210881973"><ele>610.0</ele><time>2026-04-11T13:25:46.945Z</time></trkpt><trkpt lat="44.46510986349815" lon="10.258607876801891"><ele>610.0</ele><time>2026-04-11T13:25:47.945Z</time></trkpt><trkpt lat="44.46527696253658" lon="10.258609471244712"><ele>610.0</ele><time>2026-04-11T13:25:48.945Z</time></trkpt><trkpt lat="44.4654222424018" lon="10.258611766698463"><ele>610.0</ele><time>2026-04-11T13:25:49.945Z</time></trkpt><trkpt lat="44.46555500261281" lon="10.258675099490329"><ele>609.0</ele><time>2026-04-11T13:25:50.945Z</time></trkpt><trkpt lat="44.46568262485183" lon="10.258808318531626"><ele>608.0</ele><time>2026-04-11T13:25:51.945Z</time></trkpt><trkpt lat="44.46579706675446" lon="10.258981385074446"><ele>607.0</ele><time>2026-04-11T13:25:52.945Z</time></trkpt><trkpt lat="44.46592377025399" lon="10.259136331856476"><ele>607.0</ele><time>2026-04-11T13:25:53.945Z</time></trkpt><trkpt lat="44.46607495364279" lon="10.259278666817846"><ele>607.0</ele><time>2026-04-11T13:25:54.945Z</time></trkpt><trkpt lat="44.466239277747746" lon="10.259408338291971"><ele>607.0</ele><time>2026-04-11T13:25:55.945Z</time></trkpt><trkpt lat="44.46640082927885" lon="10.259526997731335"><ele>607.75</ele><time>2026-04-11T13:25:56.945Z</time></trkpt><trkpt lat="44.46654070627062" lon="10.259627692765127"><ele>608.5</ele><time>2026-04-11T13:25:57.945Z</time></trkpt><trkpt lat="44.466664413704954" lon="10.259731797659988"><ele>609.25</ele><time>2026-04-11T13:25:58.945Z</time></trkpt><trkpt lat="44.46677100086697" lon="10.259871883424296"><ele>610.0</ele><time>2026-04-11T13:25:59.945Z</time></trkpt><trkpt lat="44.46684566522032" lon="10.260049521174377"><ele>610.0</ele><time>2026-04-11T13:26:00.945Z</time></trkpt><trkpt lat="44.4669024408586" lon="10.260242831296246"><ele>610.0</ele><time>2026-04-11T13:26:01.945Z</time></trkpt><trkpt lat="44.466966088088384" lon="10.260413791615262"><ele>610.0</ele><time>2026-04-11T13:26:02.945Z</time></trkpt><trkpt lat="44.467042287284805" lon="10.260556023827583"><ele>610.0</ele><time>2026-04-11T13:26:03.945Z</time></trkpt><trkpt lat="44.46715163494348" lon="10.26067633613653"><ele>612.5</ele><time>2026-04-11T13:26:04.945Z</time></trkpt><trkpt lat="44.4672798279132" lon="10.260764237172614"><ele>615.0</ele><time>2026-04-11T13:26:05.945Z</time></trkpt><trkpt lat="44.46740143325283" lon="10.260844072836504"><ele>617.5</ele><time>2026-04-11T13:26:06.945Z</time></trkpt><trkpt lat="44.46749545118538" lon="10.260972758098928"><ele>620.0</ele><time>2026-04-11T13:26:07.945Z</time></trkpt><trkpt lat="44.46754296251084" lon="10.261144870387499"><ele>620.0</ele><time>2026-04-11T13:26:08.945Z</time></trkpt><trkpt lat="44.467537798273504" lon="10.26133417293663"><ele>620.0</ele><time>2026-04-11T13:26:09.945Z</time></trkpt><trkpt lat="44.46750269797047" lon="10.261523838128491"><ele>620.0</ele><time>2026-04-11T13:26:10.945Z</time></trkpt><trkpt lat="44.467454193933534" lon="10.261726791049012"><ele>620.0</ele><time>2026-04-11T13:26:11.945Z</time></trkpt><trkpt lat="44.46742363240269" lon="10.261935631626143"><ele>620.0</ele><time>2026-04-11T13:26:12.943Z</time></trkpt><trkpt lat="44.467407669279055" lon="10.262124630081596"><ele>620.0</ele><time>2026-04-11T13:26:13.944Z</time></trkpt><trkpt lat="44.467403495427796" lon="10.262287749921816"><ele>620.0</ele><time>2026-04-11T13:26:14.944Z</time></trkpt><trkpt lat="44.46741864014341" lon="10.262456383408574"><ele>620.0</ele><time>2026-04-11T13:26:15.944Z</time></trkpt><trkpt lat="44.46747683521706" lon="10.262631909269938"><ele>620.0</ele><time>2026-04-11T13:26:16.943Z</time></trkpt><trkpt lat="44.46757593981772" lon="10.262800932614018"><ele>620.0</ele><time>2026-04-11T13:26:17.943Z</time></trkpt><trkpt lat="44.467708119301506" lon="10.262940213156448"><ele>620.0</ele><time>2026-04-11T13:26:18.943Z</time></trkpt><trkpt lat="44.46784753234109" lon="10.263062613168287"><ele>620.0</ele><time>2026-04-11T13:26:19.943Z</time></trkpt><trkpt lat="44.467976772007816" lon="10.263182537855418"><ele>620.0</ele><time>2026-04-11T13:26:20.943Z</time></trkpt><trkpt lat="44.468083328999" lon="10.263279554606584"><ele>620.0</ele><time>2026-04-11T13:26:21.944Z</time></trkpt><trkpt lat="44.46818678398042" lon="10.263336272217108"><ele>620.0</ele><time>2026-04-11T13:26:22.943Z</time></trkpt><trkpt lat="44.46830198979384" lon="10.263335985233473"><ele>620.0</ele><time>2026-04-11T13:26:23.943Z</time></trkpt><trkpt lat="44.46842147627875" lon="10.263260482351628"><ele>620.0</ele><time>2026-04-11T13:26:24.943Z</time></trkpt><trkpt lat="44.468519175839816" lon="10.263142116359306"><ele>620.0</ele><time>2026-04-11T13:26:25.943Z</time></trkpt><trkpt lat="44.46860866689189" lon="10.262969261375327"><ele>620.0</ele><time>2026-04-11T13:26:26.943Z</time></trkpt><trkpt lat="44.468698535779374" lon="10.262777287781779"><ele>617.0</ele><time>2026-04-11T13:26:27.943Z</time></trkpt><trkpt lat="44.46879155200655" lon="10.262566881922067"><ele>614.0</ele><time>2026-04-11T13:26:28.943Z</time></trkpt><trkpt lat="44.4688828235826" lon="10.262383392900835"><ele>611.0</ele><time>2026-04-11T13:26:29.943Z</time></trkpt><trkpt lat="44.46896907681537" lon="10.262229386325087"><ele>616.0</ele><time>2026-04-11T13:26:30.943Z</time></trkpt><trkpt lat="44.46905485770727" lon="10.26209838445693"><ele>621.0</ele><time>2026-04-11T13:26:31.943Z</time></trkpt><trkpt lat="44.46916387911288" lon="10.2619903460262"><ele>626.0</ele><time>2026-04-11T13:26:32.943Z</time></trkpt><trkpt lat="44.46930428575465" lon="10.261913852787096"><ele>631.0</ele><time>2026-04-11T13:26:33.943Z</time></trkpt><trkpt lat="44.469460479022295" lon="10.261887271164776"><ele>631.6666666666667</ele><time>2026-04-11T13:26:34.943Z</time></trkpt><trkpt lat="44.46961999699819" lon="10.26187122966336"><ele>632.3333333333334</ele><time>2026-04-11T13:26:35.943Z</time></trkpt><trkpt lat="44.469766361433564" lon="10.261890459411141"><ele>633.0</ele><time>2026-04-11T13:26:36.943Z</time></trkpt><trkpt lat="44.46990720371328" lon="10.261957928480475"><ele>633.0</ele><time>2026-04-11T13:26:37.943Z</time></trkpt><trkpt lat="44.470046284874904" lon="10.262060013830661"><ele>633.0</ele><time>2026-04-11T13:26:38.943Z</time></trkpt><trkpt lat="44.470180135874884" lon="10.262159941793325"><ele>633.0</ele><time>2026-04-11T13:26:39.943Z</time></trkpt><trkpt lat="44.47029743311936" lon="10.262238606011836"><ele>633.0</ele><time>2026-04-11T13:26:40.943Z</time></trkpt><trkpt lat="44.47041358842078" lon="10.262266129469472"><ele>632.5</ele><time>2026-04-11T13:26:41.943Z</time></trkpt><trkpt lat="44.47052767742095" lon="10.262227813665472"><ele>632.0</ele><time>2026-04-11T13:26:42.943Z</time></trkpt><trkpt lat="44.47064912182622" lon="10.2621197954988"><ele>631.5</ele><time>2026-04-11T13:26:43.943Z</time></trkpt><trkpt lat="44.4707588982444" lon="10.26198292008766"><ele>631.0</ele><time>2026-04-11T13:26:44.943Z</time></trkpt><trkpt lat="44.47088487385811" lon="10.26186767518144"><ele>631.0</ele><time>2026-04-11T13:26:45.943Z</time></trkpt><trkpt lat="44.47102463749356" lon="10.26181574224186"><ele>631.0</ele><time>2026-04-11T13:26:46.943Z</time></trkpt><trkpt lat="44.471176424165144" lon="10.26180476008128"><ele>631.0</ele><time>2026-04-11T13:26:47.943Z</time></trkpt><trkpt lat="44.47130694433031" lon="10.26174071025842"><ele>631.0</ele><time>2026-04-11T13:26:48.943Z</time></trkpt><trkpt lat="44.47143117283322" lon="10.261652692929184"><ele>632.25</ele><time>2026-04-11T13:26:49.943Z</time></trkpt><trkpt lat="44.471557891035495" lon="10.261534051711104"><ele>633.5</ele><time>2026-04-11T13:26:50.943Z</time></trkpt><trkpt lat="44.471693415865495" lon="10.261444968686531"><ele>634.75</ele><time>2026-04-11T13:26:51.943Z</time></trkpt><trkpt lat="44.47183992430672" lon="10.261424189656386"><ele>636.0</ele><time>2026-04-11T13:26:52.943Z</time></trkpt><trkpt lat="44.471979991296834" lon="10.261433565415004"><ele>636.0</ele><time>2026-04-11T13:26:53.943Z</time></trkpt><trkpt lat="44.47209250152589" lon="10.261435712064685"><ele>636.0</ele><time>2026-04-11T13:26:54.943Z</time></trkpt><trkpt lat="44.47220138522286" lon="10.26138178068351"><ele>636.0</ele><time>2026-04-11T13:26:55.943Z</time></trkpt><trkpt lat="44.472292565211916" lon="10.261274492715616"><ele>636.0</ele><time>2026-04-11T13:26:56.943Z</time></trkpt><trkpt lat="44.472386182922605" lon="10.261108140366094"><ele>635.0</ele><time>2026-04-11T13:26:57.943Z</time></trkpt><trkpt lat="44.47246301372153" lon="10.260939966284733"><ele>634.0</ele><time>2026-04-11T13:26:58.943Z</time></trkpt><trkpt lat="44.47254358350311" lon="10.260797403410864"><ele>633.0</ele><time>2026-04-11T13:26:59.943Z</time></trkpt><trkpt lat="44.472626130366514" lon="10.260664401288627"><ele>632.0</ele><time>2026-04-11T13:27:00.943Z</time></trkpt><trkpt lat="44.472713755970254" lon="10.260526965656451"><ele>632.0</ele><time>2026-04-11T13:27:01.943Z</time></trkpt><trkpt lat="44.47281182606961" lon="10.260389614078322"><ele>632.0</ele><time>2026-04-11T13:27:02.943Z</time></trkpt><trkpt lat="44.4729526244128" lon="10.260248049505252"><ele>632.0</ele><time>2026-04-11T13:27:03.943Z</time></trkpt><trkpt lat="44.473122907235386" lon="10.260113132149613"><ele>633.0</ele><time>2026-04-11T13:27:04.943Z</time></trkpt><trkpt lat="44.47329899160691" lon="10.25998430534589"><ele>634.0</ele><time>2026-04-11T13:27:05.943Z</time></trkpt><trkpt lat="44.47347757742442" lon="10.25985518285208"><ele>635.0</ele><time>2026-04-11T13:27:06.943Z</time></trkpt><trkpt lat="44.473642844207724" lon="10.259729011721836"><ele>630.0</ele><time>2026-04-11T13:27:07.944Z</time></trkpt><trkpt lat="44.47378569903506" lon="10.259617206553127"><ele>625.0</ele><time>2026-04-11T13:27:08.944Z</time></trkpt><trkpt lat="44.4739189765744" lon="10.259497109842254"><ele>620.0</ele><time>2026-04-11T13:27:09.944Z</time></trkpt><trkpt lat="44.47404025536944" lon="10.25934131053743"><ele>620.0</ele><time>2026-04-11T13:27:10.944Z</time></trkpt><trkpt lat="44.474145963094806" lon="10.259130542013686"><ele>620.0</ele><time>2026-04-11T13:27:11.944Z</time></trkpt><trkpt lat="44.474243955181116" lon="10.258912077663545"><ele>620.0</ele><time>2026-04-11T13:27:12.944Z</time></trkpt><trkpt lat="44.474352733525066" lon="10.258691502845247"><ele>624.0</ele><time>2026-04-11T13:27:13.944Z</time></trkpt><trkpt lat="44.474471934148745" lon="10.258502583428543"><ele>628.0</ele><time>2026-04-11T13:27:14.944Z</time></trkpt><trkpt lat="44.47460388047316" lon="10.258345808356237"><ele>632.0</ele><time>2026-04-11T13:27:15.944Z</time></trkpt><trkpt lat="44.47474086958496" lon="10.258220109707047"><ele>630.0</ele><time>2026-04-11T13:27:16.944Z</time></trkpt><trkpt lat="44.47485941568404" lon="10.258083596915899"><ele>628.0</ele><time>2026-04-11T13:27:17.944Z</time></trkpt><trkpt lat="44.47495450755741" lon="10.25792023804489"><ele>626.0</ele><time>2026-04-11T13:27:18.944Z</time></trkpt><trkpt lat="44.47501896199735" lon="10.257738576227549"><ele>624.0</ele><time>2026-04-11T13:27:19.944Z</time></trkpt><trkpt lat="44.47503950262895" lon="10.25753512028794"><ele>624.0</ele><time>2026-04-11T13:27:20.944Z</time></trkpt><trkpt lat="44.475014774021666" lon="10.257310601883379"><ele>624.0</ele><time>2026-04-11T13:27:21.944Z</time></trkpt><trkpt lat="44.47496007673844" lon="10.257093368072448"><ele>624.0</ele><time>2026-04-11T13:27:22.944Z</time></trkpt><trkpt lat="44.47490807548871" lon="10.256873212563411"><ele>624.75</ele><time>2026-04-11T13:27:23.944Z</time></trkpt><trkpt lat="44.4748699448583" lon="10.256672156884086"><ele>625.5</ele><time>2026-04-11T13:27:24.944Z</time></trkpt><trkpt lat="44.47487988963322" lon="10.256470334353113"><ele>626.25</ele><time>2026-04-11T13:27:25.944Z</time></trkpt><trkpt lat="44.47493547994838" lon="10.256313119637976"><ele>627.0</ele><time>2026-04-11T13:27:26.944Z</time></trkpt><trkpt lat="44.47504111405328" lon="10.25619662275753"><ele>626.3333333333334</ele><time>2026-04-11T13:27:27.944Z</time></trkpt><trkpt lat="44.47519074830907" lon="10.256142522663657"><ele>625.6666666666667</ele><time>2026-04-11T13:27:28.944Z</time></trkpt><trkpt lat="44.47535049632256" lon="10.256143302756001"><ele>625.0</ele><time>2026-04-11T13:27:29.944Z</time></trkpt><trkpt lat="44.47552377166781" lon="10.256158446580965"><ele>625.0</ele><time>2026-04-11T13:27:30.944Z</time></trkpt><trkpt lat="44.47568881477655" lon="10.256139493958633"><ele>625.0</ele><time>2026-04-11T13:27:31.944Z</time></trkpt><trkpt lat="44.47585026751566" lon="10.256087993815223"><ele>625.0</ele><time>2026-04-11T13:27:32.944Z</time></trkpt><trkpt lat="44.476014756191155" lon="10.255992642417533"><ele>625.0</ele><time>2026-04-11T13:27:33.944Z</time></trkpt><trkpt lat="44.47617507953128" lon="10.25591282074651"><ele>625.0</ele><time>2026-04-11T13:27:34.944Z</time></trkpt><trkpt lat="44.47632467402851" lon="10.255838901000228"><ele>625.0</ele><time>2026-04-11T13:27:35.944Z</time></trkpt><trkpt lat="44.476456540074885" lon="10.25576286465506"><ele>623.6666666666667</ele><time>2026-04-11T13:27:36.944Z</time></trkpt><trkpt lat="44.47657912031057" lon="10.255664706361053"><ele>622.3333333333334</ele><time>2026-04-11T13:27:37.944Z</time></trkpt><trkpt lat="44.476697762647014" lon="10.255513507712546"><ele>621.0</ele><time>2026-04-11T13:27:38.944Z</time></trkpt><trkpt lat="44.47680010881314" lon="10.25532352035742"><ele>621.0</ele><time>2026-04-11T13:27:39.944Z</time></trkpt><trkpt lat="44.47688749157185" lon="10.255112139343161"><ele>621.0</ele><time>2026-04-11T13:27:40.944Z</time></trkpt><trkpt lat="44.476966709669576" lon="10.254898823575118"><ele>621.0</ele><time>2026-04-11T13:27:41.944Z</time></trkpt><trkpt lat="44.477034640311345" lon="10.254669483287799"><ele>617.3333333333334</ele><time>2026-04-11T13:27:42.944Z</time></trkpt><trkpt lat="44.47708591581309" lon="10.254436713116824"><ele>613.6666666666667</ele><time>2026-04-11T13:27:43.944Z</time></trkpt><trkpt lat="44.477124190013285" lon="10.254194772118767"><ele>610.0</ele><time>2026-04-11T13:27:44.944Z</time></trkpt><trkpt lat="44.47718252169504" lon="10.253968343646115"><ele>612.0</ele><time>2026-04-11T13:27:45.944Z</time></trkpt><trkpt lat="44.47726691972911" lon="10.253759546370654"><ele>614.0</ele><time>2026-04-11T13:27:46.944Z</time></trkpt><trkpt lat="44.477378185845616" lon="10.253561804370056"><ele>616.0</ele><time>2026-04-11T13:27:47.944Z</time></trkpt><trkpt lat="44.47749907512155" lon="10.25337267656954"><ele>616.0</ele><time>2026-04-11T13:27:48.944Z</time></trkpt><trkpt lat="44.47758738732238" lon="10.253153086667103"><ele>616.0</ele><time>2026-04-11T13:27:49.944Z</time></trkpt><trkpt lat="44.477652366503065" lon="10.2529173526121"><ele>616.0</ele><time>2026-04-11T13:27:50.944Z</time></trkpt><trkpt lat="44.477710702329226" lon="10.252675863005722"><ele>616.3333333333334</ele><time>2026-04-11T13:27:51.944Z</time></trkpt><trkpt lat="44.477799028690036" lon="10.252453340026063"><ele>616.6666666666666</ele><time>2026-04-11T13:27:52.944Z</time></trkpt><trkpt lat="44.477925034513774" lon="10.252259766149447"><ele>617.0</ele><time>2026-04-11T13:27:53.944Z</time></trkpt><trkpt lat="44.478076890155734" lon="10.252078683592178"><ele>617.0</ele><time>2026-04-11T13:27:54.944Z</time></trkpt><trkpt lat="44.478241455396706" lon="10.25190907549307"><ele>617.0</ele><time>2026-04-11T13:27:55.944Z</time></trkpt><trkpt lat="44.47840532286166" lon="10.25172553018957"><ele>617.0</ele><time>2026-04-11T13:27:56.944Z</time></trkpt><trkpt lat="44.47858209762544" lon="10.251545640159211"><ele>617.3333333333333</ele><time>2026-04-11T13:27:57.944Z</time></trkpt><trkpt lat="44.47874267779081" lon="10.251372283183679"><ele>617.6666666666666</ele><time>2026-04-11T13:27:58.944Z</time></trkpt><trkpt lat="44.47889794272429" lon="10.251209405981054"><ele>618.0</ele><time>2026-04-11T13:27:59.944Z</time></trkpt><trkpt lat="44.4790623288887" lon="10.251059742835919"><ele>618.0</ele><time>2026-04-11T13:28:00.944Z</time></trkpt><trkpt lat="44.479240882588414" lon="10.250928634161946"><ele>618.0</ele><time>2026-04-11T13:28:01.944Z</time></trkpt><trkpt lat="44.479427496013294" lon="10.25081305053832"><ele>618.0</ele><time>2026-04-11T13:28:02.944Z</time></trkpt><trkpt lat="44.47962018341142" lon="10.250709279429218"><ele>621.6666666666666</ele><time>2026-04-11T13:28:03.944Z</time></trkpt><trkpt lat="44.47980573171235" lon="10.250615656879265"><ele>625.3333333333333</ele><time>2026-04-11T13:28:04.944Z</time></trkpt><trkpt lat="44.47997403975882" lon="10.250533950458543"><ele>629.0</ele><time>2026-04-11T13:28:05.944Z</time></trkpt><trkpt lat="44.480139167499864" lon="10.250486397706268"><ele>629.0</ele><time>2026-04-11T13:28:06.944Z</time></trkpt><trkpt lat="44.480296715617854" lon="10.250488074903854"><ele>629.0</ele><time>2026-04-11T13:28:07.944Z</time></trkpt><trkpt lat="44.48045090442699" lon="10.250498296631855"><ele>629.0</ele><time>2026-04-11T13:28:08.944Z</time></trkpt><trkpt lat="44.48057530570145" lon="10.2504800505967"><ele>629.0</ele><time>2026-04-11T13:28:09.944Z</time></trkpt><trkpt lat="44.48068244801098" lon="10.250397046316142"><ele>625.3333333333333</ele><time>2026-04-11T13:28:10.944Z</time></trkpt><trkpt lat="44.480785239878884" lon="10.250260296231815"><ele>621.6666666666666</ele><time>2026-04-11T13:28:11.944Z</time></trkpt><trkpt lat="44.48088640559981" lon="10.250086847030891"><ele>618.0</ele><time>2026-04-11T13:28:12.944Z</time></trkpt><trkpt lat="44.480968508348774" lon="10.249893295118252"><ele>620.5</ele><time>2026-04-11T13:28:13.944Z</time></trkpt><trkpt lat="44.48103709941152" lon="10.24969992148811"><ele>623.0</ele><time>2026-04-11T13:28:14.944Z</time></trkpt><trkpt lat="44.48109444828617" lon="10.249526000678527"><ele>625.5</ele><time>2026-04-11T13:28:15.944Z</time></trkpt><trkpt lat="44.48116746704896" lon="10.24936582159799"><ele>628.0</ele><time>2026-04-11T13:28:16.944Z</time></trkpt><trkpt lat="44.48126553487445" lon="10.249245049438292"><ele>621.6666666666667</ele><time>2026-04-11T13:28:17.944Z</time></trkpt><trkpt lat="44.481400366278834" lon="10.249164345588573"><ele>615.3333333333334</ele><time>2026-04-11T13:28:18.942Z</time></trkpt><trkpt lat="44.48154431925449" lon="10.24910186518421"><ele>609.0</ele><time>2026-04-11T13:28:19.943Z</time></trkpt><trkpt lat="44.4817014551387" lon="10.249030620904705"><ele>615.6666666666666</ele><time>2026-04-11T13:28:20.943Z</time></trkpt><trkpt lat="44.481844573507054" lon="10.248943430906829"><ele>622.3333333333333</ele><time>2026-04-11T13:28:21.943Z</time></trkpt><trkpt lat="44.48197619138022" lon="10.248823897381964"><ele>629.0</ele><time>2026-04-11T13:28:22.943Z</time></trkpt><trkpt lat="44.48208818240352" lon="10.248662650729159"><ele>625.6666666666666</ele><time>2026-04-11T13:28:23.943Z</time></trkpt><trkpt lat="44.4821864028559" lon="10.248471896704245"><ele>622.3333333333334</ele><time>2026-04-11T13:28:24.943Z</time></trkpt><trkpt lat="44.48227890634687" lon="10.248278957268681"><ele>619.0</ele><time>2026-04-11T13:28:25.943Z</time></trkpt><trkpt lat="44.48235531719108" lon="10.24806717128563"><ele>619.0</ele><time>2026-04-11T13:28:26.943Z</time></trkpt><trkpt lat="44.48243931405348" lon="10.247850471616534"><ele>619.0</ele><time>2026-04-11T13:28:27.943Z</time></trkpt><trkpt lat="44.48253823322657" lon="10.247639725291275"><ele>619.0</ele><time>2026-04-11T13:28:28.943Z</time></trkpt><trkpt lat="44.482627317695496" lon="10.247422207911946"><ele>620.3333333333334</ele><time>2026-04-11T13:28:29.943Z</time></trkpt><trkpt lat="44.482730379481275" lon="10.247198424956125"><ele>621.6666666666666</ele><time>2026-04-11T13:28:30.943Z</time></trkpt><trkpt lat="44.482835079330776" lon="10.246987232391715"><ele>623.0</ele><time>2026-04-11T13:28:31.943Z</time></trkpt><trkpt lat="44.482958446718754" lon="10.246818898414773"><ele>617.6666666666666</ele><time>2026-04-11T13:28:32.943Z</time></trkpt><trkpt lat="44.483074955019056" lon="10.246666634522333"><ele>612.3333333333334</ele><time>2026-04-11T13:28:33.943Z</time></trkpt><trkpt lat="44.483176233593156" lon="10.246506077129924"><ele>607.0</ele><time>2026-04-11T13:28:34.943Z</time></trkpt><trkpt lat="44.48326140349918" lon="10.24632781469914"><ele>607.0</ele><time>2026-04-11T13:28:35.943Z</time></trkpt><trkpt lat="44.483321913827695" lon="10.246142129408714"><ele>607.0</ele><time>2026-04-11T13:28:36.943Z</time></trkpt><trkpt lat="44.48336285533046" lon="10.24592525068199"><ele>607.0</ele><time>2026-04-11T13:28:37.943Z</time></trkpt><trkpt lat="44.48338230116031" lon="10.245688297873928"><ele>606.6666666666667</ele><time>2026-04-11T13:28:38.943Z</time></trkpt><trkpt lat="44.48337411944575" lon="10.245432485865127"><ele>606.3333333333334</ele><time>2026-04-11T13:28:39.943Z</time></trkpt><trkpt lat="44.48335286761601" lon="10.245179259925123"><ele>606.0</ele><time>2026-04-11T13:28:40.943Z</time></trkpt><trkpt lat="44.48332993902173" lon="10.244932424215277"><ele>607.0</ele><time>2026-04-11T13:28:41.943Z</time></trkpt><trkpt lat="44.483324903497405" lon="10.24470390390044"><ele>608.0</ele><time>2026-04-11T13:28:42.943Z</time></trkpt><trkpt lat="44.48331901968067" lon="10.244503333127398"><ele>609.0</ele><time>2026-04-11T13:28:43.943Z</time></trkpt><trkpt lat="44.483323435151334" lon="10.24432576631708"><ele>610.0</ele><time>2026-04-11T13:28:44.943Z</time></trkpt><trkpt lat="44.483349083753716" lon="10.244169765561496"><ele>610.0</ele><time>2026-04-11T13:28:45.943Z</time></trkpt><trkpt lat="44.4835169297692" lon="10.24398082003487"><ele>610.0</ele><time>2026-04-11T13:28:47.943Z</time></trkpt><trkpt lat="44.48365124961078" lon="10.243999630866654"><ele>610.0</ele><time>2026-04-11T13:28:48.943Z</time></trkpt><trkpt lat="44.48381536998613" lon="10.244076235062147"><ele>604.6666666666667</ele><time>2026-04-11T13:28:49.943Z</time></trkpt><trkpt lat="44.48397790390402" lon="10.244146546503899"><ele>599.3333333333334</ele><time>2026-04-11T13:28:50.943Z</time></trkpt><trkpt lat="44.48413538926303" lon="10.244198797047387"><ele>594.0</ele><time>2026-04-11T13:28:51.943Z</time></trkpt><trkpt lat="44.484292444573356" lon="10.244254649380435"><ele>594.0</ele><time>2026-04-11T13:28:52.943Z</time></trkpt><trkpt lat="44.484437376393245" lon="10.24433527678488"><ele>594.0</ele><time>2026-04-11T13:28:53.943Z</time></trkpt><trkpt lat="44.48456475337305" lon="10.244456661422149"><ele>594.0</ele><time>2026-04-11T13:28:54.943Z</time></trkpt><trkpt lat="44.484692993253574" lon="10.244598666594804"><ele>594.3333333333334</ele><time>2026-04-11T13:28:55.943Z</time></trkpt><trkpt lat="44.48481523740828" lon="10.244739310863094"><ele>594.6666666666667</ele><time>2026-04-11T13:28:56.943Z</time></trkpt><trkpt lat="44.48493944849886" lon="10.244869672062146"><ele>595.0</ele><time>2026-04-11T13:28:57.943Z</time></trkpt><trkpt lat="44.485071354428605" lon="10.244982996196512"><ele>596.25</ele><time>2026-04-11T13:28:58.943Z</time></trkpt><trkpt lat="44.48519086676985" lon="10.245080113653053"><ele>597.5</ele><time>2026-04-11T13:28:59.943Z</time></trkpt><trkpt lat="44.485303206614084" lon="10.245145972020158"><ele>598.75</ele><time>2026-04-11T13:29:00.943Z</time></trkpt><trkpt lat="44.485422739019825" lon="10.245179852449255"><ele>600.0</ele><time>2026-04-11T13:29:01.943Z</time></trkpt><trkpt lat="44.48556129607103" lon="10.24515876661194"><ele>602.5</ele><time>2026-04-11T13:29:02.943Z</time></trkpt><trkpt lat="44.48569443236172" lon="10.245109947585338"><ele>605.0</ele><time>2026-04-11T13:29:03.943Z</time></trkpt><trkpt lat="44.485819609002384" lon="10.245052622030375"><ele>607.5</ele><time>2026-04-11T13:29:04.943Z</time></trkpt><trkpt lat="44.48592711686877" lon="10.24501035489399"><ele>610.0</ele><time>2026-04-11T13:29:05.943Z</time></trkpt><trkpt lat="44.48601379874155" lon="10.244978342008997"><ele>610.0</ele><time>2026-04-11T13:29:06.943Z</time></trkpt><trkpt lat="44.48610312341067" lon="10.2449704187866"><ele>610.0</ele><time>2026-04-11T13:29:08.943Z</time></trkpt><trkpt lat="44.48611604602708" lon="10.245078829077796"><ele>610.0</ele><time>2026-04-11T13:29:10.943Z</time></trkpt><trkpt lat="44.486075995018126" lon="10.245232883827255"><ele>610.0</ele><time>2026-04-11T13:29:12.943Z</time></trkpt><trkpt lat="44.4861254136673" lon="10.245397102127487"><ele>610.0</ele><time>2026-04-11T13:29:14.943Z</time></trkpt><trkpt lat="44.48619545418802" lon="10.245450262225548"><ele>610.0</ele><time>2026-04-11T13:29:15.943Z</time></trkpt><trkpt lat="44.486308980007564" lon="10.245453911183027"><ele>610.0</ele><time>2026-04-11T13:29:16.943Z</time></trkpt><trkpt lat="44.48643644246951" lon="10.245429388464533"><ele>610.0</ele><time>2026-04-11T13:29:17.943Z</time></trkpt><trkpt lat="44.486564202250065" lon="10.245397752405703"><ele>610.0</ele><time>2026-04-11T13:29:18.943Z</time></trkpt><trkpt lat="44.48668277582326" lon="10.245349502664988"><ele>610.0</ele><time>2026-04-11T13:29:19.943Z</time></trkpt><trkpt lat="44.48678941485075" lon="10.245279354202497"><ele>610.0</ele><time>2026-04-11T13:29:20.943Z</time></trkpt><trkpt lat="44.486884389210886" lon="10.245184025693314"><ele>610.0</ele><time>2026-04-11T13:29:21.943Z</time></trkpt><trkpt lat="44.486967799988776" lon="10.24508256118512"><ele>610.0</ele><time>2026-04-11T13:29:22.943Z</time></trkpt><trkpt lat="44.4870477818717" lon="10.245006178867209"><ele>610.0</ele><time>2026-04-11T13:29:23.943Z</time></trkpt><trkpt lat="44.48713985526047" lon="10.244974853996162"><ele>610.4</ele><time>2026-04-11T13:29:24.943Z</time></trkpt><trkpt lat="44.48722457832146" lon="10.245002782997647"><ele>610.8</ele><time>2026-04-11T13:29:25.943Z</time></trkpt><trkpt lat="44.48729703068513" lon="10.245098288728316"><ele>611.2</ele><time>2026-04-11T13:29:26.943Z</time></trkpt><trkpt lat="44.48732720583871" lon="10.245231478157391"><ele>611.6</ele><time>2026-04-11T13:29:27.943Z</time></trkpt><trkpt lat="44.487307442743386" lon="10.2453834302849"><ele>612.0</ele><time>2026-04-11T13:29:28.943Z</time></trkpt><trkpt lat="44.48724803104881" lon="10.24551763564611"><ele>613.5</ele><time>2026-04-11T13:29:29.943Z</time></trkpt><trkpt lat="44.48717453199614" lon="10.245653318487697"><ele>615.0</ele><time>2026-04-11T13:29:30.943Z</time></trkpt><trkpt lat="44.48710346906646" lon="10.245803378332738"><ele>616.5</ele><time>2026-04-11T13:29:31.943Z</time></trkpt><trkpt lat="44.487033000499686" lon="10.24598157541751"><ele>618.0</ele><time>2026-04-11T13:29:32.943Z</time></trkpt><trkpt lat="44.48695580739856" lon="10.246151806862427"><ele>614.25</ele><time>2026-04-11T13:29:33.943Z</time></trkpt><trkpt lat="44.48688125253179" lon="10.246338862950072"><ele>610.5</ele><time>2026-04-11T13:29:34.943Z</time></trkpt><trkpt lat="44.48681148581531" lon="10.246513522216304"><ele>606.75</ele><time>2026-04-11T13:29:35.943Z</time></trkpt><trkpt lat="44.486750217795645" lon="10.246679518150057"><ele>603.0</ele><time>2026-04-11T13:29:36.943Z</time></trkpt><trkpt lat="44.486712493973016" lon="10.246847160079305"><ele>602.5</ele><time>2026-04-11T13:29:37.943Z</time></trkpt><trkpt lat="44.48665164973678" lon="10.246996073496648"><ele>602.0</ele><time>2026-04-11T13:29:38.943Z</time></trkpt><trkpt lat="44.48654538040241" lon="10.247122651650491"><ele>601.5</ele><time>2026-04-11T13:29:39.943Z</time></trkpt><trkpt lat="44.48643388707989" lon="10.24724351842613"><ele>601.0</ele><time>2026-04-11T13:29:40.943Z</time></trkpt><trkpt lat="44.48634289276284" lon="10.247364734964597"><ele>601.3333333333334</ele><time>2026-04-11T13:29:41.943Z</time></trkpt><trkpt lat="44.48626979851568" lon="10.247534870152204"><ele>601.6666666666666</ele><time>2026-04-11T13:29:42.943Z</time></trkpt><trkpt lat="44.486202958319474" lon="10.24774069259025"><ele>602.0</ele><time>2026-04-11T13:29:43.943Z</time></trkpt><trkpt lat="44.48613405872131" lon="10.247927098450779"><ele>602.0</ele><time>2026-04-11T13:29:44.943Z</time></trkpt><trkpt lat="44.48606288585986" lon="10.248109998031067"><ele>602.0</ele><time>2026-04-11T13:29:45.943Z</time></trkpt><trkpt lat="44.48597254116512" lon="10.248270667868109"><ele>602.0</ele><time>2026-04-11T13:29:46.943Z</time></trkpt><trkpt lat="44.48586255264729" lon="10.248419069582253"><ele>602.0</ele><time>2026-04-11T13:29:47.943Z</time></trkpt><trkpt lat="44.48573596598054" lon="10.248560264193756"><ele>600.0</ele><time>2026-04-11T13:29:48.943Z</time></trkpt><trkpt lat="44.48562679428898" lon="10.248706566632489"><ele>598.0</ele><time>2026-04-11T13:29:49.943Z</time></trkpt><trkpt lat="44.48553779678898" lon="10.248882201446506"><ele>596.0</ele><time>2026-04-11T13:29:50.943Z</time></trkpt><trkpt lat="44.485466242982355" lon="10.249057882211995"><ele>594.0</ele><time>2026-04-11T13:29:51.943Z</time></trkpt><trkpt lat="44.48539817862319" lon="10.249224156504852"><ele>593.0</ele><time>2026-04-11T13:29:52.943Z</time></trkpt><trkpt lat="44.48535198782529" lon="10.24936825633729"><ele>592.0</ele><time>2026-04-11T13:29:53.943Z</time></trkpt><trkpt lat="44.485319883421084" lon="10.249503478029533"><ele>591.0</ele><time>2026-04-11T13:29:54.943Z</time></trkpt><trkpt lat="44.485315868284296" lon="10.249661084763"><ele>590.0</ele><time>2026-04-11T13:29:55.943Z</time></trkpt><trkpt lat="44.48535080369338" lon="10.249841658507822"><ele>591.5</ele><time>2026-04-11T13:29:56.943Z</time></trkpt><trkpt lat="44.485389018654644" lon="10.250042656231924"><ele>593.0</ele><time>2026-04-11T13:29:57.943Z</time></trkpt><trkpt lat="44.485427830198205" lon="10.250229626654535"><ele>594.5</ele><time>2026-04-11T13:29:58.943Z</time></trkpt><trkpt lat="44.48545085762995" lon="10.250416147994319"><ele>596.0</ele><time>2026-04-11T13:29:59.943Z</time></trkpt><trkpt lat="44.48543846361551" lon="10.250608929223215"><ele>589.3333333333333</ele><time>2026-04-11T13:30:00.943Z</time></trkpt><trkpt lat="44.485405486024064" lon="10.250815550551398"><ele>582.6666666666666</ele><time>2026-04-11T13:30:01.943Z</time></trkpt><trkpt lat="44.48535296711232" lon="10.251014397363138"><ele>576.0</ele><time>2026-04-11T13:30:02.943Z</time></trkpt><trkpt lat="44.48529500144192" lon="10.25121295233878"><ele>576.0</ele><time>2026-04-11T13:30:03.943Z</time></trkpt><trkpt lat="44.48524438136534" lon="10.251429593785073"><ele>576.0</ele><time>2026-04-11T13:30:04.943Z</time></trkpt><trkpt lat="44.48520215346083" lon="10.251653753962854"><ele>576.0</ele><time>2026-04-11T13:30:05.944Z</time></trkpt><trkpt lat="44.48517232504173" lon="10.251877546749691"><ele>573.6666666666666</ele><time>2026-04-11T13:30:06.944Z</time></trkpt><trkpt lat="44.48514859396127" lon="10.252107744131745"><ele>571.3333333333333</ele><time>2026-04-11T13:30:07.944Z</time></trkpt><trkpt lat="44.48512615295884" lon="10.252344212326086"><ele>569.0</ele><time>2026-04-11T13:30:08.944Z</time></trkpt><trkpt lat="44.48508680672252" lon="10.252584072862236"><ele>567.3333333333333</ele><time>2026-04-11T13:30:09.944Z</time></trkpt><trkpt lat="44.4850242720747" lon="10.252820666630095"><ele>565.6666666666666</ele><time>2026-04-11T13:30:10.944Z</time></trkpt><trkpt lat="44.484971909927054" lon="10.253039052520988"><ele>564.0</ele><time>2026-04-11T13:30:11.944Z</time></trkpt><trkpt lat="44.484916291006854" lon="10.253250471674598"><ele>564.0</ele><time>2026-04-11T13:30:12.944Z</time></trkpt><trkpt lat="44.48485620053072" lon="10.253451719788881"><ele>564.0</ele><time>2026-04-11T13:30:13.944Z</time></trkpt><trkpt lat="44.48477139026768" lon="10.25362812184786"><ele>564.0</ele><time>2026-04-11T13:30:14.944Z</time></trkpt><trkpt lat="44.484675041056185" lon="10.253782538710293"><ele>562.0</ele><time>2026-04-11T13:30:15.944Z</time></trkpt><trkpt lat="44.48455336867532" lon="10.253898136673982"><ele>560.0</ele><time>2026-04-11T13:30:16.944Z</time></trkpt><trkpt lat="44.48446427282418" lon="10.254033374077054"><ele>558.0</ele><time>2026-04-11T13:30:17.944Z</time></trkpt><trkpt lat="44.484394038882236" lon="10.254214150585172"><ele>556.0</ele><time>2026-04-11T13:30:18.944Z</time></trkpt><trkpt lat="44.484346034181534" lon="10.254409062298672"><ele>556.0</ele><time>2026-04-11T13:30:19.944Z</time></trkpt><trkpt lat="44.48431197441908" lon="10.254577349768654"><ele>556.0</ele><time>2026-04-11T13:30:20.944Z</time></trkpt><trkpt lat="44.48428879656836" lon="10.254729689486544"><ele>556.0</ele><time>2026-04-11T13:30:21.944Z</time></trkpt><trkpt lat="44.484299218290744" lon="10.254881595295997"><ele>556.0</ele><time>2026-04-11T13:30:22.944Z</time></trkpt><trkpt lat="44.48434862355017" lon="10.255051053474915"><ele>556.3333333333334</ele><time>2026-04-11T13:30:23.944Z</time></trkpt><trkpt lat="44.484421832087605" lon="10.25522351989111"><ele>556.6666666666666</ele><time>2026-04-11T13:30:24.943Z</time></trkpt><trkpt lat="44.48450538166937" lon="10.255403306624077"><ele>557.0</ele><time>2026-04-11T13:30:25.942Z</time></trkpt><trkpt lat="44.4845876196462" lon="10.25559933439157"><ele>563.6666666666666</ele><time>2026-04-11T13:30:26.942Z</time></trkpt><trkpt lat="44.484662362654426" lon="10.2558015845352"><ele>570.3333333333334</ele><time>2026-04-11T13:30:27.942Z</time></trkpt><trkpt lat="44.48473624671869" lon="10.256006533049295"><ele>577.0</ele><time>2026-04-11T13:30:28.942Z</time></trkpt><trkpt lat="44.48480442623765" lon="10.25621180553215"><ele>577.0</ele><time>2026-04-11T13:30:29.942Z</time></trkpt><trkpt lat="44.48487158613624" lon="10.256409590004093"><ele>577.0</ele><time>2026-04-11T13:30:30.942Z</time></trkpt><trkpt lat="44.4849342459144" lon="10.25656587947785"><ele>577.0</ele><time>2026-04-11T13:30:31.942Z</time></trkpt><trkpt lat="44.484991621362276" lon="10.256691234058483"><ele>577.0</ele><time>2026-04-11T13:30:32.942Z</time></trkpt><trkpt lat="44.48504840910068" lon="10.256822810553164"><ele>577.5</ele><time>2026-04-11T13:30:33.943Z</time></trkpt><trkpt lat="44.4850808815608" lon="10.256996112089192"><ele>578.0</ele><time>2026-04-11T13:30:34.942Z</time></trkpt><trkpt lat="44.4850749213" lon="10.257184620843523"><ele>578.5</ele><time>2026-04-11T13:30:35.942Z</time></trkpt><trkpt lat="44.485071196207315" lon="10.257368087817909"><ele>579.0</ele><time>2026-04-11T13:30:36.943Z</time></trkpt><trkpt lat="44.4850913913046" lon="10.257534415226006"><ele>579.6</ele><time>2026-04-11T13:30:37.942Z</time></trkpt><trkpt lat="44.4851464155768" lon="10.25768058493949"><ele>580.2</ele><time>2026-04-11T13:30:38.942Z</time></trkpt><trkpt lat="44.485220029338414" lon="10.257797773614843"><ele>580.8000000000001</ele><time>2026-04-11T13:30:39.942Z</time></trkpt><trkpt lat="44.485304004873484" lon="10.257874422955256"><ele>581.4</ele><time>2026-04-11T13:30:40.942Z</time></trkpt><trkpt lat="44.48539471439966" lon="10.257897073908046"><ele>582.0</ele><time>2026-04-11T13:30:41.942Z</time></trkpt><trkpt lat="44.4854951741778" lon="10.257844404393179"><ele>584.3333333333334</ele><time>2026-04-11T13:30:42.942Z</time></trkpt><trkpt lat="44.48557507964891" lon="10.25775234716084"><ele>586.6666666666666</ele><time>2026-04-11T13:30:43.942Z</time></trkpt><trkpt lat="44.485659781784804" lon="10.257667426856141"><ele>589.0</ele><time>2026-04-11T13:30:44.942Z</time></trkpt><trkpt lat="44.48572456726221" lon="10.257644993712717"><ele>591.3333333333333</ele><time>2026-04-11T13:30:45.942Z</time></trkpt><trkpt lat="44.48579245983514" lon="10.257682672198836"><ele>593.6666666666666</ele><time>2026-04-11T13:30:46.942Z</time></trkpt><trkpt lat="44.48585135463031" lon="10.257779826347946"><ele>596.0</ele><time>2026-04-11T13:30:47.942Z</time></trkpt><trkpt lat="44.485872531230164" lon="10.257913000923216"><ele>596.0</ele><time>2026-04-11T13:30:48.942Z</time></trkpt><trkpt lat="44.485858274808066" lon="10.258050901849765"><ele>596.0</ele><time>2026-04-11T13:30:49.942Z</time></trkpt><trkpt lat="44.4858030646782" lon="10.258169702492385"><ele>596.0</ele><time>2026-04-11T13:30:50.942Z</time></trkpt><trkpt lat="44.485730519292545" lon="10.25826555700721"><ele>596.0</ele><time>2026-04-11T13:30:51.942Z</time></trkpt><trkpt lat="44.48562360159891" lon="10.25836231344579"><ele>596.0</ele><time>2026-04-11T13:30:52.942Z</time></trkpt><trkpt lat="44.48550577476268" lon="10.25847407058134"><ele>594.5</ele><time>2026-04-11T13:30:53.942Z</time></trkpt><trkpt lat="44.48538131604983" lon="10.258587029389858"><ele>593.0</ele><time>2026-04-11T13:30:54.942Z</time></trkpt><trkpt lat="44.485251528713945" lon="10.258698591246436"><ele>591.5</ele><time>2026-04-11T13:30:55.942Z</time></trkpt><trkpt lat="44.485131974436015" lon="10.258769287302458"><ele>590.0</ele><time>2026-04-11T13:30:56.942Z</time></trkpt><trkpt lat="44.485026378276146" lon="10.258795088420866"><ele>590.0</ele><time>2026-04-11T13:30:57.943Z</time></trkpt><trkpt lat="44.48492802523824" lon="10.258778669287368"><ele>590.0</ele><time>2026-04-11T13:30:58.943Z</time></trkpt><trkpt lat="44.48481589354174" lon="10.258705444380952"><ele>590.0</ele><time>2026-04-11T13:30:59.943Z</time></trkpt><trkpt lat="44.484717869970815" lon="10.258586199578088"><ele>590.0</ele><time>2026-04-11T13:31:00.943Z</time></trkpt><trkpt lat="44.484631709194616" lon="10.258437407844013"><ele>589.0</ele><time>2026-04-11T13:31:01.943Z</time></trkpt><trkpt lat="44.48454410689283" lon="10.258272221214034"><ele>588.0</ele><time>2026-04-11T13:31:02.943Z</time></trkpt><trkpt lat="44.48445201000138" lon="10.258127955569218"><ele>587.0</ele><time>2026-04-11T13:31:03.943Z</time></trkpt><trkpt lat="44.484372695733704" lon="10.258022534089266"><ele>586.0</ele><time>2026-04-11T13:31:04.943Z</time></trkpt><trkpt lat="44.48430416801012" lon="10.257944476204237"><ele>586.0</ele><time>2026-04-11T13:31:05.943Z</time></trkpt><trkpt lat="44.484232706452" lon="10.257894535700911"><ele>586.0</ele><time>2026-04-11T13:31:06.943Z</time></trkpt><trkpt lat="44.48415540323591" lon="10.257890457998588"><ele>586.0</ele><time>2026-04-11T13:31:07.943Z</time></trkpt><trkpt lat="44.48408721522783" lon="10.257923868751078"><ele>586.0</ele><time>2026-04-11T13:31:08.943Z</time></trkpt><trkpt lat="44.484037952543886" lon="10.257984000246518"><ele>586.0</ele><time>2026-04-11T13:31:09.943Z</time></trkpt><trkpt lat="44.48401213185749" lon="10.258084764334352"><ele>586.0</ele><time>2026-04-11T13:31:10.943Z</time></trkpt><trkpt lat="44.48401541737745" lon="10.258205762631484"><ele>588.2</ele><time>2026-04-11T13:31:11.943Z</time></trkpt><trkpt lat="44.48404592605656" lon="10.258322001474161"><ele>590.4000000000001</ele><time>2026-04-11T13:31:12.943Z</time></trkpt><trkpt lat="44.4841111223847" lon="10.258427821400256"><ele>592.6</ele><time>2026-04-11T13:31:13.943Z</time></trkpt><trkpt lat="44.484200615569165" lon="10.258536571929408"><ele>594.8000000000001</ele><time>2026-04-11T13:31:14.943Z</time></trkpt><trkpt lat="44.48428502460516" lon="10.258660566561202"><ele>597.0</ele><time>2026-04-11T13:31:15.943Z</time></trkpt><trkpt lat="44.48437168346488" lon="10.258784147221395"><ele>597.0</ele><time>2026-04-11T13:31:16.943Z</time></trkpt><trkpt lat="44.48443943056468" lon="10.258922644082197"><ele>597.0</ele><time>2026-04-11T13:31:17.943Z</time></trkpt><trkpt lat="44.48449363465058" lon="10.259071180027092"><ele>597.0</ele><time>2026-04-11T13:31:18.943Z</time></trkpt><trkpt lat="44.48451335877787" lon="10.259226232712917"><ele>597.0</ele><time>2026-04-11T13:31:19.943Z</time></trkpt><trkpt lat="44.48449652157434" lon="10.259394592248048"><ele>596.5</ele><time>2026-04-11T13:31:20.943Z</time></trkpt><trkpt lat="44.48444982179523" lon="10.259558599591022"><ele>596.0</ele><time>2026-04-11T13:31:21.943Z</time></trkpt><trkpt lat="44.4843892450501" lon="10.25971886155594"><ele>595.5</ele><time>2026-04-11T13:31:22.943Z</time></trkpt><trkpt lat="44.484331186881555" lon="10.259885656257303"><ele>595.0</ele><time>2026-04-11T13:31:23.943Z</time></trkpt><trkpt lat="44.48427090084078" lon="10.26004942443747"><ele>596.2</ele><time>2026-04-11T13:31:24.943Z</time></trkpt><trkpt lat="44.48422247669751" lon="10.260192093306328"><ele>597.4</ele><time>2026-04-11T13:31:25.943Z</time></trkpt><trkpt lat="44.48415837616818" lon="10.260301076272873"><ele>598.6</ele><time>2026-04-11T13:31:26.943Z</time></trkpt><trkpt lat="44.48406569348201" lon="10.260394440310305"><ele>599.8</ele><time>2026-04-11T13:31:27.943Z</time></trkpt><trkpt lat="44.48394843752029" lon="10.260432730112697"><ele>601.0</ele><time>2026-04-11T13:31:28.943Z</time></trkpt><trkpt lat="44.48381382116717" lon="10.260404608062746"><ele>597.5</ele><time>2026-04-11T13:31:29.943Z</time></trkpt><trkpt lat="44.483674053621776" lon="10.260364078226212"><ele>594.0</ele><time>2026-04-11T13:31:30.943Z</time></trkpt><trkpt lat="44.4835379742005" lon="10.260355576570085"><ele>590.5</ele><time>2026-04-11T13:31:31.943Z</time></trkpt><trkpt lat="44.48341751831337" lon="10.260375422240612"><ele>587.0</ele><time>2026-04-11T13:31:32.943Z</time></trkpt><trkpt lat="44.48331008587395" lon="10.260418901772482"><ele>587.0</ele><time>2026-04-11T13:31:33.943Z</time></trkpt><trkpt lat="44.48319544148052" lon="10.260495058196566"><ele>587.0</ele><time>2026-04-11T13:31:34.943Z</time></trkpt><trkpt lat="44.48308998057511" lon="10.260596545765281"><ele>587.0</ele><time>2026-04-11T13:31:35.943Z</time></trkpt><trkpt lat="44.48300110936221" lon="10.260706558397484"><ele>587.0</ele><time>2026-04-11T13:31:36.943Z</time></trkpt><trkpt lat="44.48293426565729" lon="10.260829105902516"><ele>588.25</ele><time>2026-04-11T13:31:37.943Z</time></trkpt><trkpt lat="44.48288070108759" lon="10.260984458398266"><ele>589.5</ele><time>2026-04-11T13:31:38.943Z</time></trkpt><trkpt lat="44.482844986178726" lon="10.261185022510247"><ele>590.75</ele><time>2026-04-11T13:31:39.943Z</time></trkpt><trkpt lat="44.482804257786896" lon="10.261410505435551"><ele>592.0</ele><time>2026-04-11T13:31:40.943Z</time></trkpt><trkpt lat="44.48275958363019" lon="10.261633026068976"><ele>592.0</ele><time>2026-04-11T13:31:41.943Z</time></trkpt><trkpt lat="44.48270049255053" lon="10.261832854980002"><ele>592.0</ele><time>2026-04-11T13:31:42.943Z</time></trkpt><trkpt lat="44.482622040655045" lon="10.262015596516603"><ele>592.0</ele><time>2026-04-11T13:31:43.943Z</time></trkpt><trkpt lat="44.482535194417714" lon="10.262185107510597"><ele>595.5</ele><time>2026-04-11T13:31:44.943Z</time></trkpt><trkpt lat="44.48244446686262" lon="10.262327854386621"><ele>599.0</ele><time>2026-04-11T13:31:45.943Z</time></trkpt><trkpt lat="44.48234740189606" lon="10.26244584276613"><ele>602.5</ele><time>2026-04-11T13:31:46.943Z</time></trkpt><trkpt lat="44.48223079585159" lon="10.26253466058539"><ele>606.0</ele><time>2026-04-11T13:31:47.943Z</time></trkpt><trkpt lat="44.482121507374025" lon="10.262607235426664"><ele>603.4</ele><time>2026-04-11T13:31:48.943Z</time></trkpt><trkpt lat="44.48204386244244" lon="10.262691601413533"><ele>600.8</ele><time>2026-04-11T13:31:49.943Z</time></trkpt><trkpt lat="44.481991349560715" lon="10.262799246611172"><ele>598.1999999999999</ele><time>2026-04-11T13:31:50.943Z</time></trkpt><trkpt lat="44.48195475555129" lon="10.262958251797135"><ele>595.6</ele><time>2026-04-11T13:31:51.943Z</time></trkpt><trkpt lat="44.48191646095412" lon="10.263122753313166"><ele>593.0</ele><time>2026-04-11T13:31:52.943Z</time></trkpt><trkpt lat="44.481894499014345" lon="10.263276383641642"><ele>593.0</ele><time>2026-04-11T13:31:53.943Z</time></trkpt><trkpt lat="44.48188236224871" lon="10.263442824692778"><ele>593.0</ele><time>2026-04-11T13:31:54.943Z</time></trkpt><trkpt lat="44.481889202763966" lon="10.263606817641415"><ele>593.0</ele><time>2026-04-11T13:31:55.943Z</time></trkpt><trkpt lat="44.48191645216442" lon="10.263787088180894"><ele>593.0</ele><time>2026-04-11T13:31:56.943Z</time></trkpt><trkpt lat="44.48195629588642" lon="10.263967581030675"><ele>593.0</ele><time>2026-04-11T13:31:57.943Z</time></trkpt><trkpt lat="44.48199271362772" lon="10.26411586481814"><ele>593.0</ele><time>2026-04-11T13:31:58.943Z</time></trkpt><trkpt lat="44.4820472109714" lon="10.264255422892116"><ele>593.0</ele><time>2026-04-11T13:31:59.943Z</time></trkpt><trkpt lat="44.48213359979928" lon="10.264381192619595"><ele>593.0</ele><time>2026-04-11T13:32:00.943Z</time></trkpt><trkpt lat="44.482236736287625" lon="10.264521605567182"><ele>595.25</ele><time>2026-04-11T13:32:01.943Z</time></trkpt><trkpt lat="44.48232039657103" lon="10.264667465764184"><ele>597.5</ele><time>2026-04-11T13:32:02.943Z</time></trkpt><trkpt lat="44.48237294114759" lon="10.264818414946209"><ele>599.75</ele><time>2026-04-11T13:32:03.943Z</time></trkpt><trkpt lat="44.482409293997506" lon="10.264975195395403"><ele>602.0</ele><time>2026-04-11T13:32:04.943Z</time></trkpt><trkpt lat="44.48244629209938" lon="10.265099526690145"><ele>602.0</ele><time>2026-04-11T13:32:05.943Z</time></trkpt><trkpt lat="44.4825168539017" lon="10.265191219354644"><ele>602.0</ele><time>2026-04-11T13:32:06.943Z</time></trkpt><trkpt lat="44.48261390601713" lon="10.265232706368124"><ele>602.0</ele><time>2026-04-11T13:32:07.943Z</time></trkpt><trkpt lat="44.48272745634697" lon="10.265221246979982"><ele>602.0</ele><time>2026-04-11T13:32:08.943Z</time></trkpt><trkpt lat="44.482854803444674" lon="10.265215827589227"><ele>602.0</ele><time>2026-04-11T13:32:09.943Z</time></trkpt><trkpt lat="44.48298757478883" lon="10.265242048512771"><ele>602.5</ele><time>2026-04-11T13:32:10.943Z</time></trkpt><trkpt lat="44.483105562438936" lon="10.26533854278746"><ele>603.0</ele><time>2026-04-11T13:32:11.943Z</time></trkpt><trkpt lat="44.483203420427905" lon="10.265473669874487"><ele>603.5</ele><time>2026-04-11T13:32:12.943Z</time></trkpt><trkpt lat="44.48329884338218" lon="10.265644459686596"><ele>604.0</ele><time>2026-04-11T13:32:13.943Z</time></trkpt><trkpt lat="44.48339809624126" lon="10.265810014127497"><ele>604.0</ele><time>2026-04-11T13:32:14.943Z</time></trkpt><trkpt lat="44.48349468081431" lon="10.265952228430358"><ele>604.0</ele><time>2026-04-11T13:32:15.943Z</time></trkpt><trkpt lat="44.48359896477416" lon="10.266074973490552"><ele>604.0</ele><time>2026-04-11T13:32:16.943Z</time></trkpt><trkpt lat="44.48371958905462" lon="10.26618491146388"><ele>604.0</ele><time>2026-04-11T13:32:17.943Z</time></trkpt><trkpt lat="44.483853099760786" lon="10.26628682034706"><ele>606.0</ele><time>2026-04-11T13:32:18.943Z</time></trkpt><trkpt lat="44.48398376376045" lon="10.266379717935187"><ele>608.0</ele><time>2026-04-11T13:32:19.943Z</time></trkpt><trkpt lat="44.48409276150029" lon="10.2664671490821"><ele>610.0</ele><time>2026-04-11T13:32:20.943Z</time></trkpt><trkpt lat="44.48417953048441" lon="10.26655941590313"><ele>612.0</ele><time>2026-04-11T13:32:21.943Z</time></trkpt><trkpt lat="44.4842354382227" lon="10.266681991210021"><ele>612.0</ele><time>2026-04-11T13:32:22.943Z</time></trkpt><trkpt lat="44.484239648225866" lon="10.266840411006076"><ele>612.0</ele><time>2026-04-11T13:32:23.943Z</time></trkpt><trkpt lat="44.484192281162464" lon="10.267009691195382"><ele>612.0</ele><time>2026-04-11T13:32:24.943Z</time></trkpt><trkpt lat="44.48411252886895" lon="10.267171970708933"><ele>612.0</ele><time>2026-04-11T13:32:25.943Z</time></trkpt><trkpt lat="44.48402529801886" lon="10.267346136206633"><ele>613.5</ele><time>2026-04-11T13:32:26.943Z</time></trkpt><trkpt lat="44.48394976143219" lon="10.267530079345956"><ele>615.0</ele><time>2026-04-11T13:32:27.943Z</time></trkpt><trkpt lat="44.48390068727962" lon="10.267704011379307"><ele>616.5</ele><time>2026-04-11T13:32:28.943Z</time></trkpt><trkpt lat="44.483880090882344" lon="10.267878914439416"><ele>618.0</ele><time>2026-04-11T13:32:29.943Z</time></trkpt><trkpt lat="44.483876824542094" lon="10.268040932770521"><ele>618.75</ele><time>2026-04-11T13:32:30.942Z</time></trkpt><trkpt lat="44.48388834584541" lon="10.268207609555326"><ele>619.5</ele><time>2026-04-11T13:32:31.942Z</time></trkpt><trkpt lat="44.4839367292457" lon="10.268396414959538"><ele>620.25</ele><time>2026-04-11T13:32:32.942Z</time></trkpt><trkpt lat="44.4840053049489" lon="10.268604681249744"><ele>621.0</ele><time>2026-04-11T13:32:33.942Z</time></trkpt><trkpt lat="44.48406632736712" lon="10.268801587059729"><ele>621.0</ele><time>2026-04-11T13:32:34.942Z</time></trkpt><trkpt lat="44.48410268019837" lon="10.268962531233965"><ele>621.0</ele><time>2026-04-11T13:32:35.942Z</time></trkpt><trkpt lat="44.48410956877449" lon="10.269096370706746"><ele>621.0</ele><time>2026-04-11T13:32:36.942Z</time></trkpt><trkpt lat="44.484064774620684" lon="10.269207673974115"><ele>621.0</ele><time>2026-04-11T13:32:37.942Z</time></trkpt><trkpt lat="44.48397095102733" lon="10.269300947294559"><ele>621.0</ele><time>2026-04-11T13:32:38.942Z</time></trkpt><trkpt lat="44.48385329815839" lon="10.269334915406317"><ele>618.25</ele><time>2026-04-11T13:32:39.942Z</time></trkpt><trkpt lat="44.48372872789949" lon="10.26933147968698"><ele>615.5</ele><time>2026-04-11T13:32:40.942Z</time></trkpt><trkpt lat="44.48360000932063" lon="10.269321670868544"><ele>612.75</ele><time>2026-04-11T13:32:41.942Z</time></trkpt><trkpt lat="44.48346933566688" lon="10.269336578535713"><ele>610.0</ele><time>2026-04-11T13:32:42.942Z</time></trkpt><trkpt lat="44.483329971818016" lon="10.269382280373364"><ele>610.0</ele><time>2026-04-11T13:32:43.942Z</time></trkpt><trkpt lat="44.48318566463989" lon="10.26944208093397"><ele>610.0</ele><time>2026-04-11T13:32:44.942Z</time></trkpt><trkpt lat="44.483050638086375" lon="10.269523643578435"><ele>610.0</ele><time>2026-04-11T13:32:45.942Z</time></trkpt><trkpt lat="44.48290951427853" lon="10.269614639909413"><ele>609.5</ele><time>2026-04-11T13:32:46.942Z</time></trkpt><trkpt lat="44.48277125277679" lon="10.269689681624675"><ele>609.0</ele><time>2026-04-11T13:32:47.942Z</time></trkpt><trkpt lat="44.48264428908295" lon="10.269756968682549"><ele>608.5</ele><time>2026-04-11T13:32:48.942Z</time></trkpt><trkpt lat="44.48253485440013" lon="10.269815741315533"><ele>608.0</ele><time>2026-04-11T13:32:49.942Z</time></trkpt><trkpt lat="44.48245143529565" lon="10.269866491283606"><ele>610.1999999999999</ele><time>2026-04-11T13:32:50.942Z</time></trkpt><trkpt lat="44.482397868886174" lon="10.269950665846869"><ele>612.4</ele><time>2026-04-11T13:32:51.942Z</time></trkpt><trkpt lat="44.48237157192702" lon="10.270068602127699"><ele>614.5999999999999</ele><time>2026-04-11T13:32:52.942Z</time></trkpt><trkpt lat="44.48236208126384" lon="10.270222632337004"><ele>616.8</ele><time>2026-04-11T13:32:53.942Z</time></trkpt><trkpt lat="44.482347222161025" lon="10.270405055891032"><ele>619.0</ele><time>2026-04-11T13:32:54.942Z</time></trkpt><trkpt lat="44.48231513583649" lon="10.270579734932552"><ele>622.0</ele><time>2026-04-11T13:32:55.942Z</time></trkpt><trkpt lat="44.4822598818781" lon="10.270745877548853"><ele>625.0</ele><time>2026-04-11T13:32:56.942Z</time></trkpt><trkpt lat="44.48216894870099" lon="10.270902891603622"><ele>628.0</ele><time>2026-04-11T13:32:57.942Z</time></trkpt><trkpt lat="44.48205975158609" lon="10.271054104371897"><ele>631.0</ele><time>2026-04-11T13:32:58.942Z</time></trkpt><trkpt lat="44.48195249563616" lon="10.271184739025214"><ele>626.0</ele><time>2026-04-11T13:32:59.942Z</time></trkpt><trkpt lat="44.48185720169727" lon="10.271303733655008"><ele>621.0</ele><time>2026-04-11T13:33:00.942Z</time></trkpt><trkpt lat="44.48177647690971" lon="10.271419546331277"><ele>616.0</ele><time>2026-04-11T13:33:01.942Z</time></trkpt><trkpt lat="44.481715057228" lon="10.271541154854836"><ele>611.0</ele><time>2026-04-11T13:33:02.942Z</time></trkpt><trkpt lat="44.481672294306236" lon="10.271699796925047"><ele>611.0</ele><time>2026-04-11T13:33:03.942Z</time></trkpt><trkpt lat="44.48166264706782" lon="10.271876799177818"><ele>611.0</ele><time>2026-04-11T13:33:04.942Z</time></trkpt><trkpt lat="44.48167680307845" lon="10.272079794811875"><ele>611.0</ele><time>2026-04-11T13:33:05.942Z</time></trkpt><trkpt lat="44.48168324441288" lon="10.272276713083716"><ele>611.0</ele><time>2026-04-11T13:33:06.942Z</time></trkpt><trkpt lat="44.48165478733326" lon="10.27247968490174"><ele>612.0</ele><time>2026-04-11T13:33:07.942Z</time></trkpt><trkpt lat="44.4815822480171" lon="10.27266326443429"><ele>613.0</ele><time>2026-04-11T13:33:08.942Z</time></trkpt><trkpt lat="44.481494060048135" lon="10.27284233157574"><ele>614.0</ele><time>2026-04-11T13:33:09.942Z</time></trkpt><trkpt lat="44.48140462451224" lon="10.272998496234871"><ele>615.0</ele><time>2026-04-11T13:33:10.942Z</time></trkpt><trkpt lat="44.48131339508262" lon="10.27313546489086"><ele>610.75</ele><time>2026-04-11T13:33:11.942Z</time></trkpt><trkpt lat="44.48124890901345" lon="10.273270014547135"><ele>606.5</ele><time>2026-04-11T13:33:12.942Z</time></trkpt><trkpt lat="44.48121447754529" lon="10.273429891680077"><ele>602.25</ele><time>2026-04-11T13:33:13.942Z</time></trkpt><trkpt lat="44.4812047900538" lon="10.273630009520621"><ele>598.0</ele><time>2026-04-11T13:33:14.942Z</time></trkpt><trkpt lat="44.48117944576685" lon="10.273830648978777"><ele>600.25</ele><time>2026-04-11T13:33:15.942Z</time></trkpt><trkpt lat="44.48110150948637" lon="10.27399401718232"><ele>602.5</ele><time>2026-04-11T13:33:16.942Z</time></trkpt><trkpt lat="44.48099437777942" lon="10.274147917977183"><ele>604.75</ele><time>2026-04-11T13:33:17.942Z</time></trkpt><trkpt lat="44.48088900325866" lon="10.274292915954431"><ele>607.0</ele><time>2026-04-11T13:33:18.942Z</time></trkpt><trkpt lat="44.48077989554435" lon="10.274454629779484"><ele>607.0</ele><time>2026-04-11T13:33:19.942Z</time></trkpt><trkpt lat="44.480666930341144" lon="10.274609038306044"><ele>607.0</ele><time>2026-04-11T13:33:20.942Z</time></trkpt><trkpt lat="44.480554716680395" lon="10.274748030827825"><ele>607.0</ele><time>2026-04-11T13:33:21.942Z</time></trkpt><trkpt lat="44.48045932924905" lon="10.274875135029678"><ele>607.0</ele><time>2026-04-11T13:33:22.943Z</time></trkpt><trkpt lat="44.480378365686306" lon="10.27499545909701"><ele>606.0</ele><time>2026-04-11T13:33:23.943Z</time></trkpt><trkpt lat="44.48031539603964" lon="10.275125698732232"><ele>605.0</ele><time>2026-04-11T13:33:24.943Z</time></trkpt><trkpt lat="44.480283165670215" lon="10.275255334641184"><ele>604.0</ele><time>2026-04-11T13:33:25.943Z</time></trkpt><trkpt lat="44.48028435336752" lon="10.275397803644747"><ele>603.0</ele><time>2026-04-11T13:33:26.943Z</time></trkpt><trkpt lat="44.48033119328391" lon="10.275539425193326"><ele>602.0</ele><time>2026-04-11T13:33:27.943Z</time></trkpt><trkpt lat="44.48040222816424" lon="10.275666992493498"><ele>604.0</ele><time>2026-04-11T13:33:28.943Z</time></trkpt><trkpt lat="44.4804529728787" lon="10.27579314219924"><ele>606.0</ele><time>2026-04-11T13:33:29.943Z</time></trkpt><trkpt lat="44.48045632468127" lon="10.275920142603454"><ele>608.0</ele><time>2026-04-11T13:33:30.943Z</time></trkpt><trkpt lat="44.480426721921084" lon="10.276031029892904"><ele>610.0</ele><time>2026-04-11T13:33:31.943Z</time></trkpt><trkpt lat="44.48035870637288" lon="10.27613995561158"><ele>612.0</ele><time>2026-04-11T13:33:32.943Z</time></trkpt><trkpt lat="44.480262287548406" lon="10.276248086367428"><ele>612.0</ele><time>2026-04-11T13:33:33.943Z</time></trkpt><trkpt lat="44.48016189799599" lon="10.276354100110208"><ele>612.0</ele><time>2026-04-11T13:33:34.943Z</time></trkpt><trkpt lat="44.48005841028009" lon="10.2764523853626"><ele>612.0</ele><time>2026-04-11T13:33:35.943Z</time></trkpt><trkpt lat="44.479961857379" lon="10.276574479256452"><ele>612.0</ele><time>2026-04-11T13:33:36.943Z</time></trkpt><trkpt lat="44.479885903553146" lon="10.276682147041193"><ele>611.4</ele><time>2026-04-11T13:33:37.943Z</time></trkpt><trkpt lat="44.47981879090384" lon="10.27678806027345"><ele>610.8000000000001</ele><time>2026-04-11T13:33:38.943Z</time></trkpt><trkpt lat="44.479753740831654" lon="10.276883263565892"><ele>610.2</ele><time>2026-04-11T13:33:39.943Z</time></trkpt><trkpt lat="44.479679473450624" lon="10.276965348920479"><ele>609.6</ele><time>2026-04-11T13:33:40.943Z</time></trkpt><trkpt lat="44.479579148047556" lon="10.277024307578195"><ele>609.0</ele><time>2026-04-11T13:33:41.943Z</time></trkpt><trkpt lat="44.479460821046516" lon="10.27705609780268"><ele>608.0</ele><time>2026-04-11T13:33:42.943Z</time></trkpt><trkpt lat="44.47934327561615" lon="10.277067405376723"><ele>607.0</ele><time>2026-04-11T13:33:43.943Z</time></trkpt><trkpt lat="44.47923358221952" lon="10.277095192183321"><ele>606.0</ele><time>2026-04-11T13:33:44.943Z</time></trkpt><trkpt lat="44.479150128277105" lon="10.27712188260748"><ele>605.0</ele><time>2026-04-11T13:33:45.943Z</time></trkpt><trkpt lat="44.47908270192875" lon="10.27716684468607"><ele>604.0</ele><time>2026-04-11T13:33:46.943Z</time></trkpt><trkpt lat="44.47902401099809" lon="10.27733100891014"><ele>604.0</ele><time>2026-04-11T13:33:48.943Z</time></trkpt><trkpt lat="44.47904610360869" lon="10.277454263821944"><ele>604.0</ele><time>2026-04-11T13:33:49.943Z</time></trkpt><trkpt lat="44.47910207660982" lon="10.277543611276473"><ele>604.0</ele><time>2026-04-11T13:33:50.943Z</time></trkpt><trkpt lat="44.47918780700785" lon="10.277587161379403"><ele>604.0</ele><time>2026-04-11T13:33:51.943Z</time></trkpt><trkpt lat="44.479282819750374" lon="10.277561268429318"><ele>604.0</ele><time>2026-04-11T13:33:52.943Z</time></trkpt><trkpt lat="44.47937685521914" lon="10.27747568017527"><ele>604.0</ele><time>2026-04-11T13:33:53.943Z</time></trkpt><trkpt lat="44.479470191089575" lon="10.27740498889268"><ele>604.0</ele><time>2026-04-11T13:33:54.943Z</time></trkpt><trkpt lat="44.47956487185128" lon="10.27734089361955"><ele>604.0</ele><time>2026-04-11T13:33:55.943Z</time></trkpt><trkpt lat="44.47967983820942" lon="10.277307163997671"><ele>604.0</ele><time>2026-04-11T13:33:56.943Z</time></trkpt><trkpt lat="44.47980506179403" lon="10.277310130123052"><ele>602.0</ele><time>2026-04-11T13:33:57.943Z</time></trkpt><trkpt lat="44.4799252721165" lon="10.277317441762028"><ele>600.0</ele><time>2026-04-11T13:33:58.943Z</time></trkpt><trkpt lat="44.48007640511228" lon="10.27734300527232"><ele>598.0</ele><time>2026-04-11T13:33:59.943Z</time></trkpt><trkpt lat="44.480204715499085" lon="10.27738290023063"><ele>596.0</ele><time>2026-04-11T13:34:00.943Z</time></trkpt><trkpt lat="44.480322461438355" lon="10.277420862456232"><ele>596.0</ele><time>2026-04-11T13:34:01.943Z</time></trkpt><trkpt lat="44.4804239062725" lon="10.277435022045022"><ele>596.0</ele><time>2026-04-11T13:34:02.943Z</time></trkpt><trkpt lat="44.48051667849702" lon="10.27740661494354"><ele>596.0</ele><time>2026-04-11T13:34:03.943Z</time></trkpt><trkpt lat="44.480601981852146" lon="10.277333741617385"><ele>596.0</ele><time>2026-04-11T13:34:04.943Z</time></trkpt><trkpt lat="44.48069884256019" lon="10.27722764925899"><ele>596.0</ele><time>2026-04-11T13:34:05.943Z</time></trkpt><trkpt lat="44.48078683274617" lon="10.277149575240237"><ele>594.8</ele><time>2026-04-11T13:34:06.943Z</time></trkpt><trkpt lat="44.48087151236462" lon="10.277117292243815"><ele>593.6</ele><time>2026-04-11T13:34:07.943Z</time></trkpt><trkpt lat="44.48094719022265" lon="10.277155099194927"><ele>592.4</ele><time>2026-04-11T13:34:08.943Z</time></trkpt><trkpt lat="44.4810330528011" lon="10.277247038851746"><ele>591.2</ele><time>2026-04-11T13:34:09.943Z</time></trkpt><trkpt lat="44.481125301976995" lon="10.277372066246498"><ele>590.0</ele><time>2026-04-11T13:34:10.943Z</time></trkpt><trkpt lat="44.48122183203387" lon="10.277479200219231"><ele>591.5</ele><time>2026-04-11T13:34:11.943Z</time></trkpt><trkpt lat="44.481330192069926" lon="10.277567953861007"><ele>593.0</ele><time>2026-04-11T13:34:12.943Z</time></trkpt><trkpt lat="44.48143459024406" lon="10.277652048843148"><ele>594.5</ele><time>2026-04-11T13:34:13.943Z</time></trkpt><trkpt lat="44.4815307183225" lon="10.277764662475567"><ele>596.0</ele><time>2026-04-11T13:34:14.943Z</time></trkpt><trkpt lat="44.48161521096975" lon="10.27793319953327"><ele>596.0</ele><time>2026-04-11T13:34:15.943Z</time></trkpt><trkpt lat="44.481661390762795" lon="10.278091934580766"><ele>596.0</ele><time>2026-04-11T13:34:16.943Z</time></trkpt><trkpt lat="44.48166969795211" lon="10.278242442784048"><ele>596.0</ele><time>2026-04-11T13:34:17.943Z</time></trkpt><trkpt lat="44.4816495974004" lon="10.278403892334781"><ele>596.0</ele><time>2026-04-11T13:34:18.943Z</time></trkpt><trkpt lat="44.48160462860659" lon="10.278564114315042"><ele>594.0</ele><time>2026-04-11T13:34:19.943Z</time></trkpt><trkpt lat="44.481562652487014" lon="10.278693977033484"><ele>592.0</ele><time>2026-04-11T13:34:20.943Z</time></trkpt><trkpt lat="44.481543654349494" lon="10.278804436523483"><ele>590.0</ele><time>2026-04-11T13:34:21.943Z</time></trkpt><trkpt lat="44.48155921378806" lon="10.278900108845786"><ele>588.0</ele><time>2026-04-11T13:34:22.943Z</time></trkpt><trkpt lat="44.48160069547557" lon="10.279000540504411"><ele>586.0</ele><time>2026-04-11T13:34:23.943Z</time></trkpt><trkpt lat="44.4816724452177" lon="10.279110675924036"><ele>584.0</ele><time>2026-04-11T13:34:24.943Z</time></trkpt><trkpt lat="44.48176974171979" lon="10.279223538671403"><ele>582.6</ele><time>2026-04-11T13:34:25.943Z</time></trkpt><trkpt lat="44.48186958944683" lon="10.279321568234845"><ele>581.2</ele><time>2026-04-11T13:34:26.943Z</time></trkpt><trkpt lat="44.48196014447206" lon="10.279394281482709"><ele>579.8000000000001</ele><time>2026-04-11T13:34:27.943Z</time></trkpt><trkpt lat="44.48205973191373" lon="10.279440494666158"><ele>578.4</ele><time>2026-04-11T13:34:28.943Z</time></trkpt><trkpt lat="44.48216071671156" lon="10.279457968943396"><ele>577.0</ele><time>2026-04-11T13:34:29.943Z</time></trkpt><trkpt lat="44.48227316548466" lon="10.279441416146465"><ele>578.0</ele><time>2026-04-11T13:34:30.943Z</time></trkpt><trkpt lat="44.4823774816988" lon="10.279445038905568"><ele>579.0</ele><time>2026-04-11T13:34:31.943Z</time></trkpt><trkpt lat="44.48245206120785" lon="10.279515815950829"><ele>580.0</ele><time>2026-04-11T13:34:32.943Z</time></trkpt><trkpt lat="44.482503182423365" lon="10.279653570796649"><ele>581.0</ele><time>2026-04-11T13:34:33.943Z</time></trkpt><trkpt lat="44.482518574418634" lon="10.279815347499705"><ele>582.0</ele><time>2026-04-11T13:34:34.943Z</time></trkpt><trkpt lat="44.48247824172382" lon="10.279952463980027"><ele>582.0</ele><time>2026-04-11T13:34:35.943Z</time></trkpt><trkpt lat="44.48240307798494" lon="10.280058847764952"><ele>582.0</ele><time>2026-04-11T13:34:36.941Z</time></trkpt><trkpt lat="44.48229011844355" lon="10.280142976776116"><ele>582.0</ele><time>2026-04-11T13:34:37.941Z</time></trkpt><trkpt lat="44.48217348957057" lon="10.28022177645357"><ele>582.0</ele><time>2026-04-11T13:34:38.941Z</time></trkpt><trkpt lat="44.48203551337231" lon="10.28030346426982"><ele>579.75</ele><time>2026-04-11T13:34:39.941Z</time></trkpt><trkpt lat="44.48191268435549" lon="10.280374564735695"><ele>577.5</ele><time>2026-04-11T13:34:40.941Z</time></trkpt><trkpt lat="44.48179282745702" lon="10.280438615427625"><ele>575.25</ele><time>2026-04-11T13:34:41.941Z</time></trkpt><trkpt lat="44.481679064151585" lon="10.280499492610625"><ele>573.0</ele><time>2026-04-11T13:34:42.941Z</time></trkpt><trkpt lat="44.48157472912522" lon="10.280555257391958"><ele>574.25</ele><time>2026-04-11T13:34:43.941Z</time></trkpt><trkpt lat="44.48146434650715" lon="10.280607148840186"><ele>575.5</ele><time>2026-04-11T13:34:44.941Z</time></trkpt><trkpt lat="44.48135005780166" lon="10.280667101519297"><ele>576.75</ele><time>2026-04-11T13:34:45.941Z</time></trkpt><trkpt lat="44.48123761699216" lon="10.280717934794321"><ele>578.0</ele><time>2026-04-11T13:34:46.941Z</time></trkpt><trkpt lat="44.48113262993485" lon="10.280759791869077"><ele>578.0</ele><time>2026-04-11T13:34:47.941Z</time></trkpt><trkpt lat="44.48103203161798" lon="10.280785830718788"><ele>578.0</ele><time>2026-04-11T13:34:48.941Z</time></trkpt><trkpt lat="44.4809308194039" lon="10.280802897178697"><ele>578.0</ele><time>2026-04-11T13:34:49.941Z</time></trkpt><trkpt lat="44.48082371844258" lon="10.280793601897086"><ele>578.0</ele><time>2026-04-11T13:34:50.941Z</time></trkpt><trkpt lat="44.48072815757463" lon="10.280719889364581"><ele>578.0</ele><time>2026-04-11T13:34:51.941Z</time></trkpt><trkpt lat="44.48064349294967" lon="10.280635938388617"><ele>575.8333333333333</ele><time>2026-04-11T13:34:52.941Z</time></trkpt><trkpt lat="44.48056560071539" lon="10.280573641321666"><ele>573.6666666666666</ele><time>2026-04-11T13:34:53.941Z</time></trkpt><trkpt lat="44.48048825336396" lon="10.280555697326667"><ele>571.5</ele><time>2026-04-11T13:34:54.941Z</time></trkpt><trkpt lat="44.48040897107009" lon="10.280585223128679"><ele>569.3333333333334</ele><time>2026-04-11T13:34:55.941Z</time></trkpt><trkpt lat="44.48033399572789" lon="10.280637317003064"><ele>567.1666666666667</ele><time>2026-04-11T13:34:56.941Z</time></trkpt><trkpt lat="44.48028085836248" lon="10.280706872326581"><ele>565.0</ele><time>2026-04-11T13:34:57.941Z</time></trkpt><trkpt lat="44.48025020929942" lon="10.280805152192531"><ele>565.0</ele><time>2026-04-11T13:34:58.941Z</time></trkpt><trkpt lat="44.48024194188196" lon="10.280942512927803"><ele>565.0</ele><time>2026-04-11T13:34:59.941Z</time></trkpt><trkpt lat="44.480231852099315" lon="10.281054773531864"><ele>565.0</ele><time>2026-04-11T13:35:00.941Z</time></trkpt><trkpt lat="44.48021315799542" lon="10.28121747501221"><ele>565.0</ele><time>2026-04-11T13:35:02.941Z</time></trkpt><trkpt lat="44.48011660054694" lon="10.281349096739389"><ele>565.0</ele><time>2026-04-11T13:35:04.941Z</time></trkpt><trkpt lat="44.4800255700205" lon="10.281390696907494"><ele>565.0</ele><time>2026-04-11T13:35:05.941Z</time></trkpt><trkpt lat="44.479917924562216" lon="10.281408053878293"><ele>565.0</ele><time>2026-04-11T13:35:06.941Z</time></trkpt><trkpt lat="44.479818080796036" lon="10.281424287593406"><ele>565.0</ele><time>2026-04-11T13:35:07.941Z</time></trkpt><trkpt lat="44.47973133354728" lon="10.281473149876794"><ele>565.0</ele><time>2026-04-11T13:35:08.941Z</time></trkpt><trkpt lat="44.479666214812944" lon="10.281557795106236"><ele>565.0</ele><time>2026-04-11T13:35:09.941Z</time></trkpt><trkpt lat="44.47961021125233" lon="10.281650892584047"><ele>564.0</ele><time>2026-04-11T13:35:10.941Z</time></trkpt><trkpt lat="44.479577915451706" lon="10.281752338697595"><ele>563.0</ele><time>2026-04-11T13:35:11.941Z</time></trkpt><trkpt lat="44.479582968513654" lon="10.28186343688132"><ele>562.0</ele><time>2026-04-11T13:35:12.941Z</time></trkpt><trkpt lat="44.4796091774035" lon="10.281985690344383"><ele>561.0</ele><time>2026-04-11T13:35:13.941Z</time></trkpt><trkpt lat="44.479672790841185" lon="10.282089596201738"><ele>560.0</ele><time>2026-04-11T13:35:14.941Z</time></trkpt><trkpt lat="44.47974974775782" lon="10.282171758383598"><ele>559.0</ele><time>2026-04-11T13:35:15.941Z</time></trkpt><trkpt lat="44.47982595596857" lon="10.282240990485617"><ele>561.4</ele><time>2026-04-11T13:35:16.941Z</time></trkpt><trkpt lat="44.47990422274701" lon="10.282336318203203"><ele>563.8</ele><time>2026-04-11T13:35:17.941Z</time></trkpt><trkpt lat="44.47994720911393" lon="10.2824490457317"><ele>566.2</ele><time>2026-04-11T13:35:18.941Z</time></trkpt><trkpt lat="44.47995636654061" lon="10.28258850010543"><ele>568.6</ele><time>2026-04-11T13:35:19.941Z</time></trkpt><trkpt lat="44.47992135828639" lon="10.282711978011832"><ele>571.0</ele><time>2026-04-11T13:35:20.941Z</time></trkpt><trkpt lat="44.4798623838347" lon="10.282800516247438"><ele>571.0</ele><time>2026-04-11T13:35:21.941Z</time></trkpt><trkpt lat="44.47977286462956" lon="10.282843178400727"><ele>571.0</ele><time>2026-04-11T13:35:22.941Z</time></trkpt><trkpt lat="44.47966958787658" lon="10.282845034434269"><ele>571.0</ele><time>2026-04-11T13:35:23.941Z</time></trkpt><trkpt lat="44.479561945998924" lon="10.282824512021664"><ele>571.0</ele><time>2026-04-11T13:35:24.941Z</time></trkpt><trkpt lat="44.47944441260322" lon="10.28280795121788"><ele>571.0</ele><time>2026-04-11T13:35:25.941Z</time></trkpt><trkpt lat="44.479335589494" lon="10.282804184524322"><ele>568.75</ele><time>2026-04-11T13:35:26.941Z</time></trkpt><trkpt lat="44.47923161841332" lon="10.282813398029766"><ele>566.5</ele><time>2026-04-11T13:35:27.941Z</time></trkpt><trkpt lat="44.479119562140305" lon="10.282857877531644"><ele>564.25</ele><time>2026-04-11T13:35:28.941Z</time></trkpt><trkpt lat="44.47899184063243" lon="10.282945839404046"><ele>562.0</ele><time>2026-04-11T13:35:29.941Z</time></trkpt><trkpt lat="44.47884797013971" lon="10.283051567906679"><ele>559.0</ele><time>2026-04-11T13:35:30.941Z</time></trkpt><trkpt lat="44.478686917762" lon="10.28317004469798"><ele>556.0</ele><time>2026-04-11T13:35:31.941Z</time></trkpt><trkpt lat="44.47853633225913" lon="10.2832745520373"><ele>553.0</ele><time>2026-04-11T13:35:32.941Z</time></trkpt><trkpt lat="44.478399482059665" lon="10.28337529116688"><ele>553.0</ele><time>2026-04-11T13:35:33.941Z</time></trkpt><trkpt lat="44.47828031335997" lon="10.28346569850153"><ele>553.0</ele><time>2026-04-11T13:35:34.941Z</time></trkpt><trkpt lat="44.47817232474567" lon="10.28354728995934"><ele>553.0</ele><time>2026-04-11T13:35:35.941Z</time></trkpt><trkpt lat="44.478087928157144" lon="10.283625396291743"><ele>553.0</ele><time>2026-04-11T13:35:36.941Z</time></trkpt><trkpt lat="44.478023996559756" lon="10.28372784823356"><ele>553.0</ele><time>2026-04-11T13:35:37.941Z</time></trkpt><trkpt lat="44.47798581904599" lon="10.283864274411599"><ele>553.0</ele><time>2026-04-11T13:35:38.941Z</time></trkpt><trkpt lat="44.47796372075314" lon="10.284032031817228"><ele>553.0</ele><time>2026-04-11T13:35:39.941Z</time></trkpt><trkpt lat="44.477949546581605" lon="10.284219904293327"><ele>553.0</ele><time>2026-04-11T13:35:40.941Z</time></trkpt><trkpt lat="44.47792548999765" lon="10.284412864611783"><ele>551.0</ele><time>2026-04-11T13:35:41.941Z</time></trkpt><trkpt lat="44.47789170851985" lon="10.284582885332336"><ele>549.0</ele><time>2026-04-11T13:35:42.941Z</time></trkpt><trkpt lat="44.47784341095021" lon="10.284730134955714"><ele>547.0</ele><time>2026-04-11T13:35:43.941Z</time></trkpt><trkpt lat="44.47777311538478" lon="10.28484869268966"><ele>545.0</ele><time>2026-04-11T13:35:44.941Z</time></trkpt><trkpt lat="44.47769011574138" lon="10.28494582269143"><ele>545.0</ele><time>2026-04-11T13:35:45.941Z</time></trkpt><trkpt lat="44.47761098908045" lon="10.285022908911566"><ele>545.0</ele><time>2026-04-11T13:35:46.941Z</time></trkpt><trkpt lat="44.47755806232368" lon="10.285099469706902"><ele>545.0</ele><time>2026-04-11T13:35:47.941Z</time></trkpt><trkpt lat="44.47752343117465" lon="10.285214163147776"><ele>545.0</ele><time>2026-04-11T13:35:48.941Z</time></trkpt><trkpt lat="44.47753762641775" lon="10.285374049190558"><ele>545.0</ele><time>2026-04-11T13:35:49.941Z</time></trkpt><trkpt lat="44.47758780109029" lon="10.285560575509654"><ele>542.6666666666666</ele><time>2026-04-11T13:35:50.941Z</time></trkpt><trkpt lat="44.47764073751647" lon="10.28576152325868"><ele>540.3333333333334</ele><time>2026-04-11T13:35:51.941Z</time></trkpt><trkpt lat="44.47769468753963" lon="10.28597467644986"><ele>538.0</ele><time>2026-04-11T13:35:52.941Z</time></trkpt><trkpt lat="44.477741240893025" lon="10.286192418719414"><ele>538.0</ele><time>2026-04-11T13:35:53.941Z</time></trkpt><trkpt lat="44.477786903979215" lon="10.286410721204728"><ele>538.0</ele><time>2026-04-11T13:35:54.941Z</time></trkpt><trkpt lat="44.47784917215484" lon="10.286645984115289"><ele>538.0</ele><time>2026-04-11T13:35:55.941Z</time></trkpt><trkpt lat="44.477941487232385" lon="10.286905088161053"><ele>542.0</ele><time>2026-04-11T13:35:56.941Z</time></trkpt><trkpt lat="44.47804495692929" lon="10.287187129001024"><ele>546.0</ele><time>2026-04-11T13:35:57.942Z</time></trkpt><trkpt lat="44.478147041139856" lon="10.287479816947663"><ele>546.0</ele><time>2026-04-11T13:35:58.942Z</time></trkpt><trkpt lat="44.47823185194326" lon="10.287743029555234"><ele>546.0</ele><time>2026-04-11T13:35:59.942Z</time></trkpt><trkpt lat="44.47829916240055" lon="10.287975529331518"><ele>546.0</ele><time>2026-04-11T13:36:00.942Z</time></trkpt><trkpt lat="44.47836491192559" lon="10.28819144707212"><ele>543.25</ele><time>2026-04-11T13:36:01.942Z</time></trkpt><trkpt lat="44.478430496105176" lon="10.288393914825436"><ele>540.5</ele><time>2026-04-11T13:36:02.942Z</time></trkpt><trkpt lat="44.478485541684904" lon="10.288568617956596"><ele>537.75</ele><time>2026-04-11T13:36:03.942Z</time></trkpt><trkpt lat="44.47851773147604" lon="10.288716249844407"><ele>535.0</ele><time>2026-04-11T13:36:04.942Z</time></trkpt><trkpt lat="44.47852325614291" lon="10.28885803069682"><ele>535.0</ele><time>2026-04-11T13:36:05.942Z</time></trkpt><trkpt lat="44.47849680231528" lon="10.288992248415207"><ele>535.0</ele><time>2026-04-11T13:36:06.942Z</time></trkpt><trkpt lat="44.47843322849001" lon="10.28911429690596"><ele>535.0</ele><time>2026-04-11T13:36:07.942Z</time></trkpt><trkpt lat="44.478327657546465" lon="10.289220279365638"><ele>535.0</ele><time>2026-04-11T13:36:08.942Z</time></trkpt><trkpt lat="44.4781983006518" lon="10.289288274208769"><ele>535.0</ele><time>2026-04-11T13:36:09.942Z</time></trkpt><trkpt lat="44.478066009548826" lon="10.28931823612952"><ele>535.0</ele><time>2026-04-11T13:36:10.942Z</time></trkpt><trkpt lat="44.47795837535574" lon="10.289329304057912"><ele>535.0</ele><time>2026-04-11T13:36:11.942Z</time></trkpt><trkpt lat="44.47786798246132" lon="10.289356789104836"><ele>535.0</ele><time>2026-04-11T13:36:12.942Z</time></trkpt><trkpt lat="44.477795660127086" lon="10.289431211808914"><ele>535.0</ele><time>2026-04-11T13:36:13.942Z</time></trkpt><trkpt lat="44.47775248825851" lon="10.289550055581048"><ele>536.0</ele><time>2026-04-11T13:36:14.942Z</time></trkpt><trkpt lat="44.47774601289582" lon="10.289690374061152"><ele>537.0</ele><time>2026-04-11T13:36:15.942Z</time></trkpt><trkpt lat="44.47778897612412" lon="10.289823088541983"><ele>538.0</ele><time>2026-04-11T13:36:16.942Z</time></trkpt><trkpt lat="44.477870156575314" lon="10.28994976263964"><ele>539.0</ele><time>2026-04-11T13:36:17.942Z</time></trkpt><trkpt lat="44.47796205901555" lon="10.29010029248035"><ele>539.0</ele><time>2026-04-11T13:36:18.942Z</time></trkpt><trkpt lat="44.478064748470615" lon="10.29026148517835"><ele>539.0</ele><time>2026-04-11T13:36:19.942Z</time></trkpt><trkpt lat="44.47817785384535" lon="10.290425378602619"><ele>539.0</ele><time>2026-04-11T13:36:20.942Z</time></trkpt><trkpt lat="44.47826274386375" lon="10.290566990765006"><ele>539.0</ele><time>2026-04-11T13:36:21.942Z</time></trkpt><trkpt lat="44.47831884646332" lon="10.29069742315406"><ele>538.25</ele><time>2026-04-11T13:36:22.942Z</time></trkpt><trkpt lat="44.47835659932817" lon="10.290847212944815"><ele>537.5</ele><time>2026-04-11T13:36:23.942Z</time></trkpt><trkpt lat="44.47835823063631" lon="10.291009461235792"><ele>536.75</ele><time>2026-04-11T13:36:24.942Z</time></trkpt><trkpt lat="44.478321604948" lon="10.291179479396062"><ele>536.0</ele><time>2026-04-11T13:36:25.942Z</time></trkpt><trkpt lat="44.47824588827677" lon="10.291333632473984"><ele>534.25</ele><time>2026-04-11T13:36:26.942Z</time></trkpt><trkpt lat="44.478146063317084" lon="10.291477518948273"><ele>532.5</ele><time>2026-04-11T13:36:27.942Z</time></trkpt><trkpt lat="44.47806092142098" lon="10.291614400212204"><ele>530.75</ele><time>2026-04-11T13:36:28.942Z</time></trkpt><trkpt lat="44.477977319928065" lon="10.29172077965773"><ele>529.0</ele><time>2026-04-11T13:36:29.942Z</time></trkpt><trkpt lat="44.47786416288575" lon="10.29179706108321"><ele>529.0</ele><time>2026-04-11T13:36:30.942Z</time></trkpt><trkpt lat="44.47772163031247" lon="10.291850912955331"><ele>529.0</ele><time>2026-04-11T13:36:31.942Z</time></trkpt><trkpt lat="44.477595685697885" lon="10.291872340010823"><ele>529.0</ele><time>2026-04-11T13:36:32.942Z</time></trkpt><trkpt lat="44.477495480385855" lon="10.291920296451577"><ele>529.0</ele><time>2026-04-11T13:36:33.942Z</time></trkpt><trkpt lat="44.47740392876595" lon="10.292010311140363"><ele>529.0</ele><time>2026-04-11T13:36:34.942Z</time></trkpt><trkpt lat="44.47731654158086" lon="10.292159717838759"><ele>529.0</ele><time>2026-04-11T13:36:35.942Z</time></trkpt><trkpt lat="44.47722163885811" lon="10.292335926433012"><ele>529.0</ele><time>2026-04-11T13:36:36.942Z</time></trkpt><trkpt lat="44.47710928740656" lon="10.292510279412754"><ele>528.0</ele><time>2026-04-11T13:36:37.942Z</time></trkpt><trkpt lat="44.477013334432485" lon="10.292654313393342"><ele>527.0</ele><time>2026-04-11T13:36:38.942Z</time></trkpt><trkpt lat="44.47693664541142" lon="10.292786471393184"><ele>526.0</ele><time>2026-04-11T13:36:39.942Z</time></trkpt><trkpt lat="44.47687590055347" lon="10.292909445374807"><ele>525.0</ele><time>2026-04-11T13:36:40.942Z</time></trkpt><trkpt lat="44.47684047860882" lon="10.29303645362059"><ele>526.4</ele><time>2026-04-11T13:36:41.942Z</time></trkpt><trkpt lat="44.47683599408904" lon="10.293175282523665"><ele>527.8</ele><time>2026-04-11T13:36:42.94Z</time></trkpt><trkpt lat="44.47686812089364" lon="10.293306816269723"><ele>529.2</ele><time>2026-04-11T13:36:43.939Z</time></trkpt><trkpt lat="44.476925423297494" lon="10.293402442269992"><ele>530.6</ele><time>2026-04-11T13:36:44.939Z</time></trkpt><trkpt lat="44.47701009518917" lon="10.293460293576583"><ele>532.0</ele><time>2026-04-11T13:36:45.94Z</time></trkpt><trkpt lat="44.47711113636168" lon="10.293462136204774"><ele>534.5</ele><time>2026-04-11T13:36:46.94Z</time></trkpt><trkpt lat="44.477234234252535" lon="10.293433088032804"><ele>537.0</ele><time>2026-04-11T13:36:47.94Z</time></trkpt><trkpt lat="44.47736302331376" lon="10.293402864800463"><ele>539.5</ele><time>2026-04-11T13:36:48.94Z</time></trkpt><trkpt lat="44.47748110706098" lon="10.293418666418066"><ele>542.0</ele><time>2026-04-11T13:36:49.94Z</time></trkpt><trkpt lat="44.47758450149086" lon="10.29350808476169"><ele>542.0</ele><time>2026-04-11T13:36:50.94Z</time></trkpt><trkpt lat="44.477680601368206" lon="10.29362241558033"><ele>542.0</ele><time>2026-04-11T13:36:51.94Z</time></trkpt><trkpt lat="44.47778190351197" lon="10.293729400494271"><ele>542.0</ele><time>2026-04-11T13:36:52.94Z</time></trkpt><trkpt lat="44.47787031413838" lon="10.293811052748273"><ele>542.0</ele><time>2026-04-11T13:36:53.94Z</time></trkpt><trkpt lat="44.477952915855965" lon="10.29387533778607"><ele>543.6</ele><time>2026-04-11T13:36:54.94Z</time></trkpt><trkpt lat="44.47803833785321" lon="10.29391096592228"><ele>545.2</ele><time>2026-04-11T13:36:55.94Z</time></trkpt><trkpt lat="44.47813685486869" lon="10.293900668948009"><ele>546.8</ele><time>2026-04-11T13:36:56.94Z</time></trkpt><trkpt lat="44.47823805717148" lon="10.293856888406767"><ele>548.4</ele><time>2026-04-11T13:36:57.94Z</time></trkpt><trkpt lat="44.478347003283446" lon="10.293789530558842"><ele>550.0</ele><time>2026-04-11T13:36:58.94Z</time></trkpt><trkpt lat="44.478470713359165" lon="10.293680483522085"><ele>550.0</ele><time>2026-04-11T13:36:59.94Z</time></trkpt><trkpt lat="44.47860841951415" lon="10.293537334475461"><ele>550.0</ele><time>2026-04-11T13:37:00.94Z</time></trkpt><trkpt lat="44.47874544689585" lon="10.293410314578793"><ele>550.0</ele><time>2026-04-11T13:37:01.94Z</time></trkpt><trkpt lat="44.47886859969389" lon="10.29332569237262"><ele>549.0</ele><time>2026-04-11T13:37:02.94Z</time></trkpt><trkpt lat="44.478993557064015" lon="10.293276460003318"><ele>548.0</ele><time>2026-04-11T13:37:03.94Z</time></trkpt><trkpt lat="44.47912917322587" lon="10.293240214193743"><ele>547.0</ele><time>2026-04-11T13:37:04.94Z</time></trkpt><trkpt lat="44.4792604976215" lon="10.29321018583839"><ele>546.0</ele><time>2026-04-11T13:37:05.94Z</time></trkpt><trkpt lat="44.47937481031925" lon="10.2931921280567"><ele>546.0</ele><time>2026-04-11T13:37:06.94Z</time></trkpt><trkpt lat="44.47948040289438" lon="10.293192572579233"><ele>546.0</ele><time>2026-04-11T13:37:07.94Z</time></trkpt><trkpt lat="44.47958643082399" lon="10.293233678567415"><ele>546.0</ele><time>2026-04-11T13:37:08.94Z</time></trkpt><trkpt lat="44.47968505053027" lon="10.29332489289455"><ele>546.0</ele><time>2026-04-11T13:37:09.94Z</time></trkpt><trkpt lat="44.47977217620749" lon="10.2934541448708"><ele>547.75</ele><time>2026-04-11T13:37:10.94Z</time></trkpt><trkpt lat="44.479873265956854" lon="10.29358478888702"><ele>549.5</ele><time>2026-04-11T13:37:11.94Z</time></trkpt><trkpt lat="44.47997659508304" lon="10.29368899263423"><ele>551.25</ele><time>2026-04-11T13:37:12.94Z</time></trkpt><trkpt lat="44.480077294847995" lon="10.29376030205791"><ele>553.0</ele><time>2026-04-11T13:37:13.94Z</time></trkpt><trkpt lat="44.48017723615614" lon="10.293787715746555"><ele>553.0</ele><time>2026-04-11T13:37:14.94Z</time></trkpt><trkpt lat="44.48027717822751" lon="10.293758284131327"><ele>553.0</ele><time>2026-04-11T13:37:15.94Z</time></trkpt><trkpt lat="44.48037634574028" lon="10.29370674243693"><ele>553.0</ele><time>2026-04-11T13:37:16.94Z</time></trkpt><trkpt lat="44.48049615636087" lon="10.29367266979676"><ele>553.0</ele><time>2026-04-11T13:37:17.94Z</time></trkpt><trkpt lat="44.48061865557026" lon="10.29368625374672"><ele>555.75</ele><time>2026-04-11T13:37:18.94Z</time></trkpt><trkpt lat="44.48075196146846" lon="10.29374765828962"><ele>558.5</ele><time>2026-04-11T13:37:19.94Z</time></trkpt><trkpt lat="44.48086222230604" lon="10.293804790032382"><ele>561.25</ele><time>2026-04-11T13:37:20.94Z</time></trkpt><trkpt lat="44.48096762769543" lon="10.293852451897587"><ele>564.0</ele><time>2026-04-11T13:37:21.94Z</time></trkpt><trkpt lat="44.48105928798292" lon="10.29389871585705"><ele>560.4</ele><time>2026-04-11T13:37:22.94Z</time></trkpt><trkpt lat="44.48113454382605" lon="10.293963552900417"><ele>556.8</ele><time>2026-04-11T13:37:23.94Z</time></trkpt><trkpt lat="44.48119210229589" lon="10.29406848403644"><ele>553.2</ele><time>2026-04-11T13:37:24.94Z</time></trkpt><trkpt lat="44.48122286416298" lon="10.29421734435235"><ele>549.6</ele><time>2026-04-11T13:37:25.94Z</time></trkpt><trkpt lat="44.48120155907558" lon="10.294371545906552"><ele>546.0</ele><time>2026-04-11T13:37:26.94Z</time></trkpt><trkpt lat="44.48113774791232" lon="10.294497895873143"><ele>546.0</ele><time>2026-04-11T13:37:27.94Z</time></trkpt><trkpt lat="44.48104069939204" lon="10.294592065247018"><ele>546.0</ele><time>2026-04-11T13:37:28.94Z</time></trkpt><trkpt lat="44.48093011838221" lon="10.294667577013353"><ele>546.0</ele><time>2026-04-11T13:37:29.94Z</time></trkpt><trkpt lat="44.4808063334425" lon="10.294721906757445"><ele>546.0</ele><time>2026-04-11T13:37:30.94Z</time></trkpt><trkpt lat="44.48068715047332" lon="10.294748490956732"><ele>546.0</ele><time>2026-04-11T13:37:31.94Z</time></trkpt><trkpt lat="44.480558218955956" lon="10.2947495054208"><ele>546.0</ele><time>2026-04-11T13:37:32.94Z</time></trkpt><trkpt lat="44.48043546372754" lon="10.294759733503403"><ele>546.0</ele><time>2026-04-11T13:37:33.94Z</time></trkpt><trkpt lat="44.48033086256294" lon="10.29478033939634"><ele>546.0</ele><time>2026-04-11T13:37:34.94Z</time></trkpt><trkpt lat="44.480234273043514" lon="10.29483702619754"><ele>545.75</ele><time>2026-04-11T13:37:35.94Z</time></trkpt><trkpt lat="44.480149288198895" lon="10.29491724881379"><ele>545.5</ele><time>2026-04-11T13:37:36.94Z</time></trkpt><trkpt lat="44.4800696739835" lon="10.295043038317178"><ele>545.25</ele><time>2026-04-11T13:37:37.94Z</time></trkpt><trkpt lat="44.47998926142958" lon="10.295187910204277"><ele>545.0</ele><time>2026-04-11T13:37:38.94Z</time></trkpt><trkpt lat="44.479896499508044" lon="10.295359605243002"><ele>545.0</ele><time>2026-04-11T13:37:39.94Z</time></trkpt><trkpt lat="44.47982045147788" lon="10.295495399127663"><ele>545.0</ele><time>2026-04-11T13:37:40.94Z</time></trkpt><trkpt lat="44.47976400866488" lon="10.29564236285623"><ele>545.0</ele><time>2026-04-11T13:37:41.94Z</time></trkpt><trkpt lat="44.47972418689771" lon="10.295819603307244"><ele>545.0</ele><time>2026-04-11T13:37:42.94Z</time></trkpt><trkpt lat="44.479680999490775" lon="10.296009787743607"><ele>547.0</ele><time>2026-04-11T13:37:43.94Z</time></trkpt><trkpt lat="44.479643385638475" lon="10.296177394455993"><ele>549.0</ele><time>2026-04-11T13:37:44.94Z</time></trkpt><trkpt lat="44.479625307780054" lon="10.296328733919426"><ele>551.0</ele><time>2026-04-11T13:37:45.94Z</time></trkpt><trkpt lat="44.47961018770098" lon="10.296459998721824"><ele>553.0</ele><time>2026-04-11T13:37:46.94Z</time></trkpt><trkpt lat="44.47963075677458" lon="10.296633111524327"><ele>553.0</ele><time>2026-04-11T13:37:47.94Z</time></trkpt><trkpt lat="44.47967720961486" lon="10.296823849365728"><ele>553.0</ele><time>2026-04-11T13:37:48.94Z</time></trkpt><trkpt lat="44.47974429730889" lon="10.297043409278915"><ele>553.0</ele><time>2026-04-11T13:37:49.94Z</time></trkpt><trkpt lat="44.47981185537986" lon="10.297257909357768"><ele>553.0</ele><time>2026-04-11T13:37:50.94Z</time></trkpt><trkpt lat="44.47986598200715" lon="10.297444518135778"><ele>553.0</ele><time>2026-04-11T13:37:51.94Z</time></trkpt><trkpt lat="44.47990644887833" lon="10.29761516709595"><ele>553.0</ele><time>2026-04-11T13:37:52.94Z</time></trkpt><trkpt lat="44.47993240805573" lon="10.297780903624654"><ele>553.0</ele><time>2026-04-11T13:37:53.94Z</time></trkpt><trkpt lat="44.479951525873204" lon="10.297955465656921"><ele>553.4</ele><time>2026-04-11T13:37:54.94Z</time></trkpt><trkpt lat="44.47993995162801" lon="10.298125185741224"><ele>553.8</ele><time>2026-04-11T13:37:55.94Z</time></trkpt><trkpt lat="44.47990434665862" lon="10.298270420921"><ele>554.2</ele><time>2026-04-11T13:37:56.94Z</time></trkpt><trkpt lat="44.4798402524276" lon="10.298381370799467"><ele>554.6</ele><time>2026-04-11T13:37:57.94Z</time></trkpt><trkpt lat="44.47975445280228" lon="10.298456992433833"><ele>555.0</ele><time>2026-04-11T13:37:58.94Z</time></trkpt><trkpt lat="44.47966323000001" lon="10.298481356806409"><ele>553.6</ele><time>2026-04-11T13:37:59.94Z</time></trkpt><trkpt lat="44.479556687334615" lon="10.29847185677392"><ele>552.2</ele><time>2026-04-11T13:38:00.94Z</time></trkpt><trkpt lat="44.47943942199923" lon="10.298438537949384"><ele>550.8</ele><time>2026-04-11T13:38:01.94Z</time></trkpt><trkpt lat="44.47932948061818" lon="10.298424268652845"><ele>549.4</ele><time>2026-04-11T13:38:02.94Z</time></trkpt><trkpt lat="44.47923254985999" lon="10.298428543590752"><ele>548.0</ele><time>2026-04-11T13:38:03.94Z</time></trkpt><trkpt lat="44.47913772975793" lon="10.298463639036617"><ele>548.0</ele><time>2026-04-11T13:38:04.94Z</time></trkpt><trkpt lat="44.479045867706716" lon="10.298540270541228"><ele>548.0</ele><time>2026-04-11T13:38:05.94Z</time></trkpt><trkpt lat="44.47894659462042" lon="10.298665817086317"><ele>548.0</ele><time>2026-04-11T13:38:06.94Z</time></trkpt><trkpt lat="44.47884591886004" lon="10.298808658476801"><ele>548.0</ele><time>2026-04-11T13:38:07.94Z</time></trkpt><trkpt lat="44.47876668051823" lon="10.298933737717006"><ele>547.5</ele><time>2026-04-11T13:38:08.94Z</time></trkpt><trkpt lat="44.47870956404902" lon="10.299048092583094"><ele>547.0</ele><time>2026-04-11T13:38:09.94Z</time></trkpt><trkpt lat="44.47866692387851" lon="10.299183005285988"><ele>546.5</ele><time>2026-04-11T13:38:10.94Z</time></trkpt><trkpt lat="44.47865107199016" lon="10.299351425163128"><ele>546.0</ele><time>2026-04-11T13:38:11.94Z</time></trkpt><trkpt lat="44.47864097226424" lon="10.299540551463094"><ele>546.0</ele><time>2026-04-11T13:38:12.94Z</time></trkpt><trkpt lat="44.478630562048586" lon="10.299735679416564"><ele>546.0</ele><time>2026-04-11T13:38:13.94Z</time></trkpt><trkpt lat="44.47863641667028" lon="10.299923884760899"><ele>546.0</ele><time>2026-04-11T13:38:14.94Z</time></trkpt><trkpt lat="44.47866308150894" lon="10.300117414898887"><ele>546.0</ele><time>2026-04-11T13:38:15.94Z</time></trkpt><trkpt lat="44.478698101596144" lon="10.300322302642849"><ele>546.6666666666666</ele><time>2026-04-11T13:38:16.94Z</time></trkpt><trkpt lat="44.478748918285575" lon="10.300543817480197"><ele>547.3333333333333</ele><time>2026-04-11T13:38:17.94Z</time></trkpt><trkpt lat="44.47879383603966" lon="10.300759440173334"><ele>548.0</ele><time>2026-04-11T13:38:18.94Z</time></trkpt><trkpt lat="44.47883812135728" lon="10.300946610597606"><ele>551.4</ele><time>2026-04-11T13:38:19.94Z</time></trkpt><trkpt lat="44.4788720491476" lon="10.301104176626191"><ele>554.8</ele><time>2026-04-11T13:38:20.94Z</time></trkpt><trkpt lat="44.4789150419039" lon="10.301253581941934"><ele>558.2</ele><time>2026-04-11T13:38:21.941Z</time></trkpt><trkpt lat="44.47897040152399" lon="10.301381768217137"><ele>561.6</ele><time>2026-04-11T13:38:22.941Z</time></trkpt><trkpt lat="44.479038916931074" lon="10.301467935578993"><ele>565.0</ele><time>2026-04-11T13:38:23.941Z</time></trkpt><trkpt lat="44.479107461333015" lon="10.301518880059419"><ele>565.0</ele><time>2026-04-11T13:38:24.941Z</time></trkpt><trkpt lat="44.47917426256405" lon="10.3015597416007"><ele>565.0</ele><time>2026-04-11T13:38:25.941Z</time></trkpt><trkpt lat="44.47924507367962" lon="10.301603405503354"><ele>565.0</ele><time>2026-04-11T13:38:26.941Z</time></trkpt><trkpt lat="44.479324580293074" lon="10.301652169793682"><ele>565.0</ele><time>2026-04-11T13:38:27.941Z</time></trkpt><trkpt lat="44.47942328090672" lon="10.301716798544364"><ele>565.0</ele><time>2026-04-11T13:38:28.941Z</time></trkpt><trkpt lat="44.47951854926613" lon="10.301808611606127"><ele>565.75</ele><time>2026-04-11T13:38:29.941Z</time></trkpt><trkpt lat="44.479624624079285" lon="10.301921087429891"><ele>566.5</ele><time>2026-04-11T13:38:30.941Z</time></trkpt><trkpt lat="44.479724509701974" lon="10.30203860036004"><ele>567.25</ele><time>2026-04-11T13:38:31.941Z</time></trkpt><trkpt lat="44.479823351140155" lon="10.302177806060113"><ele>568.0</ele><time>2026-04-11T13:38:32.941Z</time></trkpt><trkpt lat="44.4799289785358" lon="10.30232523882342"><ele>568.0</ele><time>2026-04-11T13:38:33.941Z</time></trkpt><trkpt lat="44.48003179805784" lon="10.302474893679971"><ele>568.0</ele><time>2026-04-11T13:38:34.941Z</time></trkpt><trkpt lat="44.480134855481815" lon="10.302616060618085"><ele>568.0</ele><time>2026-04-11T13:38:35.941Z</time></trkpt><trkpt lat="44.48024374973933" lon="10.302747134413385"><ele>568.0</ele><time>2026-04-11T13:38:36.941Z</time></trkpt><trkpt lat="44.48038562429633" lon="10.302864099180123"><ele>570.6666666666667</ele><time>2026-04-11T13:38:37.941Z</time></trkpt><trkpt lat="44.480531068784956" lon="10.302965399922623"><ele>573.3333333333334</ele><time>2026-04-11T13:38:38.941Z</time></trkpt><trkpt lat="44.48067021121208" lon="10.303049813141651"><ele>576.0</ele><time>2026-04-11T13:38:39.941Z</time></trkpt><trkpt lat="44.48079184809983" lon="10.303136066663864"><ele>576.0</ele><time>2026-04-11T13:38:40.941Z</time></trkpt><trkpt lat="44.48088080910846" lon="10.303221882735313"><ele>576.0</ele><time>2026-04-11T13:38:41.941Z</time></trkpt><trkpt lat="44.48094234278238" lon="10.30332151032313"><ele>576.0</ele><time>2026-04-11T13:38:42.941Z</time></trkpt><trkpt lat="44.48099516190091" lon="10.303432650985924"><ele>576.0</ele><time>2026-04-11T13:38:43.941Z</time></trkpt><trkpt lat="44.48102504654019" lon="10.303568896188127"><ele>576.0</ele><time>2026-04-11T13:38:44.941Z</time></trkpt><trkpt lat="44.48095533181118" lon="10.303743691541815"><ele>576.0</ele><time>2026-04-11T13:38:45.941Z</time></trkpt><trkpt lat="44.48086591619588" lon="10.30388644912618"><ele>576.0</ele><time>2026-04-11T13:38:46.941Z</time></trkpt><trkpt lat="44.480780033262526" lon="10.304023213063017"><ele>576.0</ele><time>2026-04-11T13:38:47.941Z</time></trkpt><trkpt lat="44.48067210874458" lon="10.304149197083161"><ele>576.0</ele><time>2026-04-11T13:38:48.939Z</time></trkpt><trkpt lat="44.48057670061153" lon="10.304288342878204"><ele>578.6</ele><time>2026-04-11T13:38:49.939Z</time></trkpt><trkpt lat="44.480486521517825" lon="10.304416666000575"><ele>581.2</ele><time>2026-04-11T13:38:50.939Z</time></trkpt><trkpt lat="44.48039987760104" lon="10.304530222325262"><ele>583.8</ele><time>2026-04-11T13:38:51.939Z</time></trkpt><trkpt lat="44.480327393279836" lon="10.304632512064643"><ele>586.4</ele><time>2026-04-11T13:38:52.939Z</time></trkpt><trkpt lat="44.48027459613429" lon="10.30474335735125"><ele>589.0</ele><time>2026-04-11T13:38:53.939Z</time></trkpt><trkpt lat="44.48023865682661" lon="10.304890377882536"><ele>584.0</ele><time>2026-04-11T13:38:54.939Z</time></trkpt><trkpt lat="44.4802368199455" lon="10.305064225211916"><ele>579.0</ele><time>2026-04-11T13:38:55.938Z</time></trkpt><trkpt lat="44.48026473863592" lon="10.305245167329907"><ele>574.0</ele><time>2026-04-11T13:38:56.938Z</time></trkpt><trkpt lat="44.480302736379215" lon="10.305428833169131"><ele>569.0</ele><time>2026-04-11T13:38:57.939Z</time></trkpt><trkpt lat="44.4803183069441" lon="10.305605670661624"><ele>569.0</ele><time>2026-04-11T13:38:58.939Z</time></trkpt><trkpt lat="44.480306728600134" lon="10.305748647752942"><ele>569.0</ele><time>2026-04-11T13:38:59.939Z</time></trkpt><trkpt lat="44.48025907018772" lon="10.305869989873813"><ele>569.0</ele><time>2026-04-11T13:39:00.939Z</time></trkpt><trkpt lat="44.48018480747061" lon="10.305964043570123"><ele>569.0</ele><time>2026-04-11T13:39:01.938Z</time></trkpt><trkpt lat="44.48010205283763" lon="10.306045067600353"><ele>569.0</ele><time>2026-04-11T13:39:02.938Z</time></trkpt><trkpt lat="44.48000972932997" lon="10.306128454412308"><ele>569.0</ele><time>2026-04-11T13:39:03.938Z</time></trkpt><trkpt lat="44.47994458698647" lon="10.306246552442907"><ele>569.0</ele><time>2026-04-11T13:39:04.938Z</time></trkpt><trkpt lat="44.479890360061304" lon="10.306374450186581"><ele>569.0</ele><time>2026-04-11T13:39:05.938Z</time></trkpt><trkpt lat="44.479853753745445" lon="10.306542008484959"><ele>569.0</ele><time>2026-04-11T13:39:06.938Z</time></trkpt><trkpt lat="44.47984312237131" lon="10.306709584169095"><ele>572.25</ele><time>2026-04-11T13:39:07.938Z</time></trkpt><trkpt lat="44.47984504352712" lon="10.306882493505372"><ele>575.5</ele><time>2026-04-11T13:39:08.938Z</time></trkpt><trkpt lat="44.47985944137509" lon="10.307061515859708"><ele>578.75</ele><time>2026-04-11T13:39:09.938Z</time></trkpt><trkpt lat="44.47988419000131" lon="10.307238404383886"><ele>582.0</ele><time>2026-04-11T13:39:10.938Z</time></trkpt><trkpt lat="44.47990660478468" lon="10.307387957408984"><ele>582.0</ele><time>2026-04-11T13:39:11.938Z</time></trkpt><trkpt lat="44.479921343192856" lon="10.30752524855485"><ele>582.0</ele><time>2026-04-11T13:39:12.938Z</time></trkpt><trkpt lat="44.47994617040023" lon="10.30766029347591"><ele>582.0</ele><time>2026-04-11T13:39:13.938Z</time></trkpt><trkpt lat="44.480004286987466" lon="10.307807268894575"><ele>582.0</ele><time>2026-04-11T13:39:14.938Z</time></trkpt><trkpt lat="44.480077943006975" lon="10.307944037087452"><ele>582.0</ele><time>2026-04-11T13:39:15.939Z</time></trkpt><trkpt lat="44.48014964612655" lon="10.308062490256601"><ele>579.25</ele><time>2026-04-11T13:39:16.939Z</time></trkpt><trkpt lat="44.480197016064956" lon="10.308196645018041"><ele>576.5</ele><time>2026-04-11T13:39:17.939Z</time></trkpt><trkpt lat="44.480211772624926" lon="10.308354564405098"><ele>573.75</ele><time>2026-04-11T13:39:18.939Z</time></trkpt><trkpt lat="44.48016558409036" lon="10.308533295191006"><ele>571.0</ele><time>2026-04-11T13:39:19.939Z</time></trkpt><trkpt lat="44.48013606144138" lon="10.308689580135578"><ele>571.0</ele><time>2026-04-11T13:39:20.939Z</time></trkpt><trkpt lat="44.4801097616246" lon="10.308823511031028"><ele>571.0</ele><time>2026-04-11T13:39:21.939Z</time></trkpt><trkpt lat="44.48009802745773" lon="10.308921767717228"><ele>571.0</ele><time>2026-04-11T13:39:22.939Z</time></trkpt><trkpt lat="44.48007059415677" lon="10.309002957179732"><ele>571.0</ele><time>2026-04-11T13:39:25.939Z</time></trkpt><trkpt lat="44.480096107116026" lon="10.308884279337567"><ele>571.0</ele><time>2026-04-11T13:39:48.939Z</time></trkpt><trkpt lat="44.48005572974976" lon="10.308966647796158"><ele>571.0</ele><time>2026-04-11T13:47:31.937Z</time></trkpt><trkpt lat="44.480055865017945" lon="10.309068002298401"><ele>571.6</ele><time>2026-04-11T13:47:33.937Z</time></trkpt><trkpt lat="44.480033158317944" lon="10.309209010241494"><ele>572.2</ele><time>2026-04-11T13:47:35.937Z</time></trkpt><trkpt lat="44.48000637503162" lon="10.30937942369158"><ele>572.8</ele><time>2026-04-11T13:47:37.937Z</time></trkpt><trkpt lat="44.479975286270204" lon="10.309540961287823"><ele>573.4</ele><time>2026-04-11T13:47:39.937Z</time></trkpt><trkpt lat="44.479957408444825" lon="10.309634842677033"><ele>574.0</ele><time>2026-04-11T13:47:40.937Z</time></trkpt><trkpt lat="44.479946231282675" lon="10.309749586744193"><ele>575.0</ele><time>2026-04-11T13:47:41.937Z</time></trkpt><trkpt lat="44.47994210039902" lon="10.309850083009797"><ele>576.0</ele><time>2026-04-11T13:47:42.937Z</time></trkpt><trkpt lat="44.47992566928092" lon="10.309955696604277"><ele>577.0</ele><time>2026-04-11T13:47:43.937Z</time></trkpt><trkpt lat="44.47990161469483" lon="10.310065925574525"><ele>578.0</ele><time>2026-04-11T13:47:44.937Z</time></trkpt><trkpt lat="44.479878312227946" lon="10.3101879114243"><ele>579.0</ele><time>2026-04-11T13:47:45.937Z</time></trkpt><trkpt lat="44.47987075245815" lon="10.310327512788866"><ele>580.0</ele><time>2026-04-11T13:47:46.937Z</time></trkpt><trkpt lat="44.47988165525216" lon="10.310465255843862"><ele>580.4</ele><time>2026-04-11T13:47:47.937Z</time></trkpt><trkpt lat="44.479907346860806" lon="10.310595746186655"><ele>580.8</ele><time>2026-04-11T13:47:48.937Z</time></trkpt><trkpt lat="44.47993873430761" lon="10.310730140893762"><ele>581.2</ele><time>2026-04-11T13:47:49.937Z</time></trkpt><trkpt lat="44.47997960937784" lon="10.310858569416533"><ele>581.6</ele><time>2026-04-11T13:47:50.937Z</time></trkpt><trkpt lat="44.4800303316987" lon="10.310987765894048"><ele>582.0</ele><time>2026-04-11T13:47:51.937Z</time></trkpt><trkpt lat="44.480094731143595" lon="10.311107164420791"><ele>582.0</ele><time>2026-04-11T13:47:52.937Z</time></trkpt><trkpt lat="44.48017545712487" lon="10.311219931894346"><ele>582.0</ele><time>2026-04-11T13:47:53.937Z</time></trkpt><trkpt lat="44.48026084486455" lon="10.311328715325805"><ele>582.0</ele><time>2026-04-11T13:47:54.937Z</time></trkpt><trkpt lat="44.480353615415375" lon="10.31143819094241"><ele>582.0</ele><time>2026-04-11T13:47:55.937Z</time></trkpt><trkpt lat="44.48043508507048" lon="10.311544148608965"><ele>585.5</ele><time>2026-04-11T13:47:56.937Z</time></trkpt><trkpt lat="44.480516055899436" lon="10.311646546307399"><ele>589.0</ele><time>2026-04-11T13:47:57.937Z</time></trkpt><trkpt lat="44.480599834939156" lon="10.311760665945702"><ele>592.5</ele><time>2026-04-11T13:47:58.937Z</time></trkpt><trkpt lat="44.48068677397429" lon="10.31188076348367"><ele>596.0</ele><time>2026-04-11T13:47:59.937Z</time></trkpt><trkpt lat="44.48076640131486" lon="10.311989127660242"><ele>596.0</ele><time>2026-04-11T13:48:00.937Z</time></trkpt><trkpt lat="44.48085218996723" lon="10.312060061977379"><ele>596.0</ele><time>2026-04-11T13:48:01.937Z</time></trkpt><trkpt lat="44.480944126482896" lon="10.312116681289096"><ele>596.0</ele><time>2026-04-11T13:48:02.937Z</time></trkpt><trkpt lat="44.48103843352319" lon="10.312152362021802"><ele>596.0</ele><time>2026-04-11T13:48:03.937Z</time></trkpt><trkpt lat="44.481149022398455" lon="10.312156501414309"><ele>596.0</ele><time>2026-04-11T13:48:04.937Z</time></trkpt><trkpt lat="44.48124426832257" lon="10.312157679686239"><ele>596.8</ele><time>2026-04-11T13:48:05.937Z</time></trkpt><trkpt lat="44.48133644903442" lon="10.312201258179075"><ele>597.6</ele><time>2026-04-11T13:48:06.937Z</time></trkpt><trkpt lat="44.48142991004389" lon="10.312296373701194"><ele>598.4</ele><time>2026-04-11T13:48:07.937Z</time></trkpt><trkpt lat="44.48150281429902" lon="10.312416770191867"><ele>599.2</ele><time>2026-04-11T13:48:08.937Z</time></trkpt><trkpt lat="44.48157285431114" lon="10.312557310917652"><ele>600.0</ele><time>2026-04-11T13:48:09.937Z</time></trkpt><trkpt lat="44.48162232362061" lon="10.312718517790604"><ele>600.0</ele><time>2026-04-11T13:48:10.937Z</time></trkpt><trkpt lat="44.481617097413746" lon="10.312909633452252"><ele>600.0</ele><time>2026-04-11T13:48:11.937Z</time></trkpt><trkpt lat="44.481594477174504" lon="10.31310966373971"><ele>600.0</ele><time>2026-04-11T13:48:12.937Z</time></trkpt><trkpt lat="44.481557949036365" lon="10.313302261191874"><ele>600.0</ele><time>2026-04-11T13:48:13.937Z</time></trkpt><trkpt lat="44.48153109313594" lon="10.313472599017187"><ele>598.8</ele><time>2026-04-11T13:48:14.937Z</time></trkpt><trkpt lat="44.48152010731247" lon="10.31362066984028"><ele>597.6</ele><time>2026-04-11T13:48:15.937Z</time></trkpt><trkpt lat="44.48151809482445" lon="10.313742375408948"><ele>596.4</ele><time>2026-04-11T13:48:16.937Z</time></trkpt><trkpt lat="44.48154051085224" lon="10.313870011991076"><ele>595.2</ele><time>2026-04-11T13:48:17.937Z</time></trkpt><trkpt lat="44.48159189185232" lon="10.314002158962776"><ele>594.0</ele><time>2026-04-11T13:48:18.937Z</time></trkpt><trkpt lat="44.48166441879034" lon="10.314129858378019"><ele>593.0</ele><time>2026-04-11T13:48:19.937Z</time></trkpt><trkpt lat="44.481764431947795" lon="10.31425009632028"><ele>592.0</ele><time>2026-04-11T13:48:20.937Z</time></trkpt><trkpt lat="44.48187427687412" lon="10.314380962087439"><ele>591.0</ele><time>2026-04-11T13:48:21.937Z</time></trkpt><trkpt lat="44.481977553554046" lon="10.314518269411455"><ele>590.0</ele><time>2026-04-11T13:48:22.937Z</time></trkpt><trkpt lat="44.48207524641736" lon="10.314660298367805"><ele>594.5</ele><time>2026-04-11T13:48:23.937Z</time></trkpt><trkpt lat="44.482175812677625" lon="10.314795597518735"><ele>599.0</ele><time>2026-04-11T13:48:24.937Z</time></trkpt><trkpt lat="44.48227608619263" lon="10.31492976075859"><ele>603.5</ele><time>2026-04-11T13:48:25.937Z</time></trkpt><trkpt lat="44.482372469248226" lon="10.315055656223509"><ele>608.0</ele><time>2026-04-11T13:48:26.937Z</time></trkpt><trkpt lat="44.482469646088866" lon="10.31519048064199"><ele>608.0</ele><time>2026-04-11T13:48:27.937Z</time></trkpt><trkpt lat="44.482555596954725" lon="10.31533480290815"><ele>608.0</ele><time>2026-04-11T13:48:28.937Z</time></trkpt><trkpt lat="44.48263168256274" lon="10.315490135238665"><ele>608.0</ele><time>2026-04-11T13:48:29.937Z</time></trkpt><trkpt lat="44.48268063264376" lon="10.315661569344337"><ele>608.0</ele><time>2026-04-11T13:48:30.937Z</time></trkpt><trkpt lat="44.48271777492105" lon="10.315841750226163"><ele>605.0</ele><time>2026-04-11T13:48:31.937Z</time></trkpt><trkpt lat="44.4827409657332" lon="10.316033121056114"><ele>602.0</ele><time>2026-04-11T13:48:32.937Z</time></trkpt><trkpt lat="44.48276297103688" lon="10.316225889835426"><ele>599.0</ele><time>2026-04-11T13:48:33.937Z</time></trkpt><trkpt lat="44.482781441825466" lon="10.316386509248632"><ele>596.0</ele><time>2026-04-11T13:48:34.937Z</time></trkpt><trkpt lat="44.482799243195466" lon="10.31652466023193"><ele>593.4</ele><time>2026-04-11T13:48:35.937Z</time></trkpt><trkpt lat="44.482822428301525" lon="10.316642890042257"><ele>590.8</ele><time>2026-04-11T13:48:36.937Z</time></trkpt><trkpt lat="44.48283708869726" lon="10.316736425437812"><ele>588.1999999999999</ele><time>2026-04-11T13:48:37.937Z</time></trkpt><trkpt lat="44.482855100515344" lon="10.316915138754206"><ele>585.6</ele><time>2026-04-11T13:48:39.937Z</time></trkpt><trkpt lat="44.482867528910084" lon="10.317037183079524"><ele>583.0</ele><time>2026-04-11T13:48:40.937Z</time></trkpt><trkpt lat="44.4828889777525" lon="10.317183255678824"><ele>580.6</ele><time>2026-04-11T13:48:41.937Z</time></trkpt><trkpt lat="44.48291208501446" lon="10.317335124704536"><ele>578.1999999999999</ele><time>2026-04-11T13:48:42.937Z</time></trkpt><trkpt lat="44.4829352702805" lon="10.317469645950862"><ele>575.8</ele><time>2026-04-11T13:48:43.937Z</time></trkpt><trkpt lat="44.48295093732834" lon="10.317574425996455"><ele>573.4</ele><time>2026-04-11T13:48:44.937Z</time></trkpt><trkpt lat="44.482971045916536" lon="10.317751733046796"><ele>571.0</ele><time>2026-04-11T13:48:46.937Z</time></trkpt><trkpt lat="44.482985471753565" lon="10.317865712722616"><ele>577.8</ele><time>2026-04-11T13:48:47.938Z</time></trkpt><trkpt lat="44.48300740016465" lon="10.318006202076324"><ele>584.6</ele><time>2026-04-11T13:48:48.938Z</time></trkpt><trkpt lat="44.48303695500801" lon="10.318169637260564"><ele>591.4</ele><time>2026-04-11T13:48:49.938Z</time></trkpt><trkpt lat="44.48306353923785" lon="10.318325464468849"><ele>598.2</ele><time>2026-04-11T13:48:50.938Z</time></trkpt><trkpt lat="44.4830944049768" lon="10.318450713050376"><ele>605.0</ele><time>2026-04-11T13:48:51.938Z</time></trkpt><trkpt lat="44.483131694722076" lon="10.318550934284039"><ele>605.0</ele><time>2026-04-11T13:48:52.938Z</time></trkpt><trkpt lat="44.48319845376264" lon="10.318635356790036"><ele>605.0</ele><time>2026-04-11T13:48:53.938Z</time></trkpt><trkpt lat="44.48328513124873" lon="10.31869135325026"><ele>605.0</ele><time>2026-04-11T13:48:54.938Z</time></trkpt><trkpt lat="44.48338493767398" lon="10.318705110081059"><ele>605.0</ele><time>2026-04-11T13:48:55.938Z</time></trkpt><trkpt lat="44.48347983251683" lon="10.318675478633276"><ele>605.0</ele><time>2026-04-11T13:48:56.938Z</time></trkpt><trkpt lat="44.483576702805124" lon="10.318617889016721"><ele>605.0</ele><time>2026-04-11T13:48:57.938Z</time></trkpt><trkpt lat="44.48367512114189" lon="10.318520591985166"><ele>605.0</ele><time>2026-04-11T13:48:58.938Z</time></trkpt><trkpt lat="44.483778681291255" lon="10.318402707187138"><ele>605.0</ele><time>2026-04-11T13:48:59.938Z</time></trkpt><trkpt lat="44.48387887364095" lon="10.318281428927703"><ele>605.0</ele><time>2026-04-11T13:49:00.938Z</time></trkpt><trkpt lat="44.48397426234569" lon="10.318167621047175"><ele>609.0</ele><time>2026-04-11T13:49:01.938Z</time></trkpt><trkpt lat="44.48406961181821" lon="10.318064783380136"><ele>613.0</ele><time>2026-04-11T13:49:02.938Z</time></trkpt><trkpt lat="44.484169532067405" lon="10.317972513428924"><ele>617.0</ele><time>2026-04-11T13:49:03.938Z</time></trkpt><trkpt lat="44.48428137833716" lon="10.31790481244189"><ele>621.0</ele><time>2026-04-11T13:49:04.938Z</time></trkpt><trkpt lat="44.48440539544945" lon="10.31785895340244"><ele>621.0</ele><time>2026-04-11T13:49:05.938Z</time></trkpt><trkpt lat="44.484535666502914" lon="10.317841585924814"><ele>621.0</ele><time>2026-04-11T13:49:06.938Z</time></trkpt><trkpt lat="44.48467168115516" lon="10.317837700016701"><ele>621.0</ele><time>2026-04-11T13:49:07.938Z</time></trkpt><trkpt lat="44.48480657124126" lon="10.317833424169015"><ele>621.0</ele><time>2026-04-11T13:49:08.938Z</time></trkpt><trkpt lat="44.484931348559485" lon="10.317814936335397"><ele>620.0</ele><time>2026-04-11T13:49:09.938Z</time></trkpt><trkpt lat="44.48505300883161" lon="10.317754981803045"><ele>619.0</ele><time>2026-04-11T13:49:10.938Z</time></trkpt><trkpt lat="44.48517386995868" lon="10.317664238208245"><ele>618.0</ele><time>2026-04-11T13:49:11.938Z</time></trkpt><trkpt lat="44.48529849637217" lon="10.3175790711668"><ele>617.0</ele><time>2026-04-11T13:49:12.938Z</time></trkpt><trkpt lat="44.48543077554685" lon="10.317528628664705"><ele>614.5</ele><time>2026-04-11T13:49:13.938Z</time></trkpt><trkpt lat="44.48556059186434" lon="10.317500326289306"><ele>612.0</ele><time>2026-04-11T13:49:14.938Z</time></trkpt><trkpt lat="44.48567894555493" lon="10.317481998352378"><ele>609.5</ele><time>2026-04-11T13:49:15.938Z</time></trkpt><trkpt lat="44.485771425879285" lon="10.317439594851882"><ele>607.0</ele><time>2026-04-11T13:49:16.938Z</time></trkpt><trkpt lat="44.48585297632894" lon="10.317345739658128"><ele>609.5</ele><time>2026-04-11T13:49:17.938Z</time></trkpt><trkpt lat="44.485918971528086" lon="10.317200516862691"><ele>612.0</ele><time>2026-04-11T13:49:18.934Z</time></trkpt><trkpt lat="44.48599177840602" lon="10.31704784793908"><ele>614.5</ele><time>2026-04-11T13:49:19.934Z</time></trkpt><trkpt lat="44.48607627291192" lon="10.316918416077892"><ele>617.0</ele><time>2026-04-11T13:49:20.934Z</time></trkpt><trkpt lat="44.48617187271534" lon="10.316834092013249"><ele>614.8000000000001</ele><time>2026-04-11T13:49:21.934Z</time></trkpt><trkpt lat="44.486270961072535" lon="10.316781125471975"><ele>612.6</ele><time>2026-04-11T13:49:22.934Z</time></trkpt><trkpt lat="44.48637752797719" lon="10.316751632033675"><ele>610.4000000000001</ele><time>2026-04-11T13:49:23.934Z</time></trkpt><trkpt lat="44.48648192549336" lon="10.316721630483283"><ele>608.2</ele><time>2026-04-11T13:49:24.934Z</time></trkpt><trkpt lat="44.486572936983734" lon="10.316686491522129"><ele>606.0</ele><time>2026-04-11T13:49:25.934Z</time></trkpt><trkpt lat="44.48665123819216" lon="10.316648139880503"><ele>606.0</ele><time>2026-04-11T13:49:26.934Z</time></trkpt><trkpt lat="44.48673970604418" lon="10.316571758543487"><ele>606.0</ele><time>2026-04-11T13:49:27.934Z</time></trkpt><trkpt lat="44.48685055806561" lon="10.316444099784428"><ele>606.0</ele><time>2026-04-11T13:49:28.934Z</time></trkpt><trkpt lat="44.4869541816039" lon="10.31628793060512"><ele>606.0</ele><time>2026-04-11T13:49:29.934Z</time></trkpt><trkpt lat="44.48702678968825" lon="10.316129651611963"><ele>607.25</ele><time>2026-04-11T13:49:30.934Z</time></trkpt><trkpt lat="44.48708391825495" lon="10.315969510965028"><ele>608.5</ele><time>2026-04-11T13:49:31.933Z</time></trkpt><trkpt lat="44.48713340211081" lon="10.31579683829077"><ele>609.75</ele><time>2026-04-11T13:49:32.933Z</time></trkpt><trkpt lat="44.487163997627846" lon="10.31559864917713"><ele>611.0</ele><time>2026-04-11T13:49:33.933Z</time></trkpt><trkpt lat="44.48718188182778" lon="10.315410596973129"><ele>608.0</ele><time>2026-04-11T13:49:34.933Z</time></trkpt><trkpt lat="44.48716668175289" lon="10.315202878454338"><ele>605.0</ele><time>2026-04-11T13:49:35.933Z</time></trkpt><trkpt lat="44.48714736002365" lon="10.31499163081908"><ele>602.0</ele><time>2026-04-11T13:49:36.933Z</time></trkpt><trkpt lat="44.48714014058508" lon="10.314784199352282"><ele>599.0</ele><time>2026-04-11T13:49:37.933Z</time></trkpt><trkpt lat="44.48716538861952" lon="10.31458139847677"><ele>599.0</ele><time>2026-04-11T13:49:38.934Z</time></trkpt><trkpt lat="44.48723330475035" lon="10.314380686988395"><ele>599.0</ele><time>2026-04-11T13:49:39.934Z</time></trkpt><trkpt lat="44.48731460729264" lon="10.314189423760894"><ele>599.0</ele><time>2026-04-11T13:49:40.934Z</time></trkpt><trkpt lat="44.48739027766936" lon="10.31402318539045"><ele>601.5</ele><time>2026-04-11T13:49:41.934Z</time></trkpt><trkpt lat="44.48745650352046" lon="10.313865637916793"><ele>604.0</ele><time>2026-04-11T13:49:42.934Z</time></trkpt><trkpt lat="44.48751959220393" lon="10.313718601931841"><ele>606.5</ele><time>2026-04-11T13:49:43.934Z</time></trkpt><trkpt lat="44.48758457374641" lon="10.313580740193975"><ele>609.0</ele><time>2026-04-11T13:49:44.934Z</time></trkpt><trkpt lat="44.487651373230236" lon="10.313444952210956"><ele>609.0</ele><time>2026-04-11T13:49:45.934Z</time></trkpt><trkpt lat="44.48772610804444" lon="10.313327754492013"><ele>609.0</ele><time>2026-04-11T13:49:46.934Z</time></trkpt><trkpt lat="44.48781675767558" lon="10.313226848300019"><ele>609.0</ele><time>2026-04-11T13:49:47.934Z</time></trkpt><trkpt lat="44.4879195288755" lon="10.313135096594017"><ele>609.0</ele><time>2026-04-11T13:49:48.934Z</time></trkpt><trkpt lat="44.48802950461542" lon="10.313049024028876"><ele>607.0</ele><time>2026-04-11T13:49:49.934Z</time></trkpt><trkpt lat="44.488141203455775" lon="10.312957428500805"><ele>605.0</ele><time>2026-04-11T13:49:50.934Z</time></trkpt><trkpt lat="44.488249300028166" lon="10.312856960217461"><ele>603.0</ele><time>2026-04-11T13:49:51.934Z</time></trkpt><trkpt lat="44.488353518582045" lon="10.312746298952716"><ele>601.0</ele><time>2026-04-11T13:49:52.934Z</time></trkpt><trkpt lat="44.488453275146604" lon="10.312629521062421"><ele>601.0</ele><time>2026-04-11T13:49:53.934Z</time></trkpt><trkpt lat="44.488546925090255" lon="10.312506565105222"><ele>601.0</ele><time>2026-04-11T13:49:54.934Z</time></trkpt><trkpt lat="44.48864347084609" lon="10.312386075320616"><ele>601.0</ele><time>2026-04-11T13:49:55.934Z</time></trkpt><trkpt lat="44.488758954833614" lon="10.312284638464858"><ele>601.0</ele><time>2026-04-11T13:49:56.934Z</time></trkpt><trkpt lat="44.48888854460352" lon="10.312217013178747"><ele>602.0</ele><time>2026-04-11T13:49:57.934Z</time></trkpt><trkpt lat="44.489021349118616" lon="10.312179033616859"><ele>603.0</ele><time>2026-04-11T13:49:58.934Z</time></trkpt><trkpt lat="44.48913978621285" lon="10.312139855655248"><ele>604.0</ele><time>2026-04-11T13:49:59.934Z</time></trkpt><trkpt lat="44.489251180518956" lon="10.312083879678838"><ele>605.0</ele><time>2026-04-11T13:50:00.934Z</time></trkpt><trkpt lat="44.48935588931937" lon="10.3119757061774"><ele>605.0</ele><time>2026-04-11T13:50:01.934Z</time></trkpt><trkpt lat="44.489459551604234" lon="10.311851056157488"><ele>605.0</ele><time>2026-04-11T13:50:02.934Z</time></trkpt><trkpt lat="44.48955215914705" lon="10.311715154229326"><ele>605.0</ele><time>2026-04-11T13:50:03.934Z</time></trkpt><trkpt lat="44.489641178364366" lon="10.311594771635665"><ele>605.0</ele><time>2026-04-11T13:50:04.934Z</time></trkpt><trkpt lat="44.48973324010319" lon="10.311496433027447"><ele>604.0</ele><time>2026-04-11T13:50:05.934Z</time></trkpt><trkpt lat="44.48983076598661" lon="10.311438729403022"><ele>603.0</ele><time>2026-04-11T13:50:06.934Z</time></trkpt><trkpt lat="44.489938612008224" lon="10.311448039255875"><ele>602.0</ele><time>2026-04-11T13:50:07.934Z</time></trkpt><trkpt lat="44.490030243546414" lon="10.311521940410971"><ele>601.0</ele><time>2026-04-11T13:50:08.934Z</time></trkpt><trkpt lat="44.490103831236674" lon="10.31164637076329"><ele>600.0</ele><time>2026-04-11T13:50:09.934Z</time></trkpt><trkpt lat="44.49015742142471" lon="10.311803161944853"><ele>600.0</ele><time>2026-04-11T13:50:10.934Z</time></trkpt><trkpt lat="44.49020915258576" lon="10.311971334563854"><ele>600.0</ele><time>2026-04-11T13:50:11.934Z</time></trkpt><trkpt lat="44.49028042050077" lon="10.312145889617968"><ele>600.0</ele><time>2026-04-11T13:50:12.934Z</time></trkpt><trkpt lat="44.49035731024991" lon="10.312330489531085"><ele>600.0</ele><time>2026-04-11T13:50:13.934Z</time></trkpt><trkpt lat="44.49042653240738" lon="10.312506849741412"><ele>600.0</ele><time>2026-04-11T13:50:14.934Z</time></trkpt><trkpt lat="44.49048918482771" lon="10.312662611021397"><ele>600.0</ele><time>2026-04-11T13:50:15.934Z</time></trkpt><trkpt lat="44.49055737875541" lon="10.312790307112525"><ele>600.0</ele><time>2026-04-11T13:50:16.934Z</time></trkpt><trkpt lat="44.490645397702394" lon="10.312886324631714"><ele>600.0</ele><time>2026-04-11T13:50:17.934Z</time></trkpt><trkpt lat="44.49075542919618" lon="10.31295735864764"><ele>600.0</ele><time>2026-04-11T13:50:18.934Z</time></trkpt><trkpt lat="44.49086689412835" lon="10.31300370255094"><ele>600.0</ele><time>2026-04-11T13:50:19.934Z</time></trkpt><trkpt lat="44.49097281643281" lon="10.313025332285108"><ele>600.0</ele><time>2026-04-11T13:50:20.934Z</time></trkpt><trkpt lat="44.49107986317451" lon="10.31301305170985"><ele>600.0</ele><time>2026-04-11T13:50:21.934Z</time></trkpt><trkpt lat="44.49118276802106" lon="10.312968021552383"><ele>600.0</ele><time>2026-04-11T13:50:22.934Z</time></trkpt><trkpt lat="44.49127409550735" lon="10.312878023918687"><ele>600.75</ele><time>2026-04-11T13:50:23.934Z</time></trkpt><trkpt lat="44.491354242691415" lon="10.312739936390216"><ele>601.5</ele><time>2026-04-11T13:50:24.934Z</time></trkpt><trkpt lat="44.491430736916264" lon="10.312575146271152"><ele>602.25</ele><time>2026-04-11T13:50:25.934Z</time></trkpt><trkpt lat="44.49150822312114" lon="10.312397800899003"><ele>603.0</ele><time>2026-04-11T13:50:26.934Z</time></trkpt><trkpt lat="44.49157776255147" lon="10.312211854830233"><ele>603.0</ele><time>2026-04-11T13:50:27.934Z</time></trkpt><trkpt lat="44.49164680164239" lon="10.312023598248818"><ele>603.0</ele><time>2026-04-11T13:50:28.934Z</time></trkpt><trkpt lat="44.491708168157636" lon="10.311844675354376"><ele>603.0</ele><time>2026-04-11T13:50:29.934Z</time></trkpt><trkpt lat="44.49176196062242" lon="10.31168740301865"><ele>603.0</ele><time>2026-04-11T13:50:30.934Z</time></trkpt><trkpt lat="44.49181064749545" lon="10.311554754422623"><ele>603.0</ele><time>2026-04-11T13:50:31.934Z</time></trkpt><trkpt lat="44.49186127666722" lon="10.311439657007355"><ele>603.0</ele><time>2026-04-11T13:50:32.934Z</time></trkpt><trkpt lat="44.49191023186678" lon="10.311341770682864"><ele>603.0</ele><time>2026-04-11T13:50:33.934Z</time></trkpt><trkpt lat="44.49195674450424" lon="10.311258064794393"><ele>603.0</ele><time>2026-04-11T13:50:34.934Z</time></trkpt><trkpt lat="44.49199709475441" lon="10.311176041530317"><ele>603.0</ele><time>2026-04-11T13:50:35.934Z</time></trkpt><trkpt lat="44.49207217861572" lon="10.311048246918517"><ele>603.0</ele><time>2026-04-11T13:50:37.934Z</time></trkpt><trkpt lat="44.49211036818839" lon="10.310962148885688"><ele>605.0</ele><time>2026-04-11T13:50:38.934Z</time></trkpt><trkpt lat="44.49216691234623" lon="10.310872839890171"><ele>607.0</ele><time>2026-04-11T13:50:39.934Z</time></trkpt><trkpt lat="44.49223538945202" lon="10.31075105067821"><ele>609.0</ele><time>2026-04-11T13:50:40.934Z</time></trkpt><trkpt lat="44.49231621809151" lon="10.310584941555659"><ele>611.0</ele><time>2026-04-11T13:50:41.934Z</time></trkpt><trkpt lat="44.49239273997508" lon="10.310431983963918"><ele>611.0</ele><time>2026-04-11T13:50:42.934Z</time></trkpt><trkpt lat="44.49244903458369" lon="10.310314039216886"><ele>611.0</ele><time>2026-04-11T13:50:43.934Z</time></trkpt><trkpt lat="44.49250194609667" lon="10.310215745961433"><ele>611.0</ele><time>2026-04-11T13:50:44.934Z</time></trkpt><trkpt lat="44.49253353775813" lon="10.31013822212956"><ele>611.0</ele><time>2026-04-11T13:50:45.934Z</time></trkpt><trkpt lat="44.49259111792683" lon="10.310015914885483"><ele>611.0</ele><time>2026-04-11T13:50:47.934Z</time></trkpt><trkpt lat="44.49263562632962" lon="10.309930010146285"><ele>611.0</ele><time>2026-04-11T13:50:48.934Z</time></trkpt><trkpt lat="44.49270193784459" lon="10.309806544948326"><ele>609.0</ele><time>2026-04-11T13:50:49.934Z</time></trkpt><trkpt lat="44.492779814701784" lon="10.30966613302782"><ele>607.0</ele><time>2026-04-11T13:50:50.934Z</time></trkpt><trkpt lat="44.49288046359494" lon="10.309512674789902"><ele>605.0</ele><time>2026-04-11T13:50:51.934Z</time></trkpt><trkpt lat="44.49297712119925" lon="10.309343979750519"><ele>603.0</ele><time>2026-04-11T13:50:52.934Z</time></trkpt><trkpt lat="44.493074889483644" lon="10.309167733837558"><ele>603.0</ele><time>2026-04-11T13:50:53.934Z</time></trkpt><trkpt lat="44.49317535159133" lon="10.308989648434583"><ele>603.0</ele><time>2026-04-11T13:50:54.934Z</time></trkpt><trkpt lat="44.4932681702759" lon="10.308825683865955"><ele>603.0</ele><time>2026-04-11T13:50:55.934Z</time></trkpt><trkpt lat="44.493360014752625" lon="10.30867761605439"><ele>606.5</ele><time>2026-04-11T13:50:56.934Z</time></trkpt><trkpt lat="44.493450963274356" lon="10.308531339063894"><ele>610.0</ele><time>2026-04-11T13:50:57.934Z</time></trkpt><trkpt lat="44.49353993332063" lon="10.308388408505042"><ele>613.5</ele><time>2026-04-11T13:50:58.934Z</time></trkpt><trkpt lat="44.49361980601022" lon="10.308254380120056"><ele>617.0</ele><time>2026-04-11T13:50:59.934Z</time></trkpt><trkpt lat="44.49370382183939" lon="10.308134307786743"><ele>616.75</ele><time>2026-04-11T13:51:00.934Z</time></trkpt><trkpt lat="44.493802895159426" lon="10.308037790968513"><ele>616.5</ele><time>2026-04-11T13:51:01.934Z</time></trkpt><trkpt lat="44.49391546305755" lon="10.307972999217535"><ele>616.25</ele><time>2026-04-11T13:51:02.934Z</time></trkpt><trkpt lat="44.49403489733911" lon="10.307934229511384"><ele>616.0</ele><time>2026-04-11T13:51:03.934Z</time></trkpt><trkpt lat="44.49415181823542" lon="10.307917569582754"><ele>616.0</ele><time>2026-04-11T13:51:04.934Z</time></trkpt><trkpt lat="44.49426493717373" lon="10.307890880599837"><ele>616.0</ele><time>2026-04-11T13:51:05.934Z</time></trkpt><trkpt lat="44.49436812084671" lon="10.307831840338723"><ele>616.0</ele><time>2026-04-11T13:51:06.934Z</time></trkpt><trkpt lat="44.49446506849231" lon="10.307738385703514"><ele>616.0</ele><time>2026-04-11T13:51:07.934Z</time></trkpt><trkpt lat="44.494561568019414" lon="10.307628496752574"><ele>615.5</ele><time>2026-04-11T13:51:08.934Z</time></trkpt><trkpt lat="44.49466377824199" lon="10.307509566915137"><ele>615.0</ele><time>2026-04-11T13:51:09.934Z</time></trkpt><trkpt lat="44.49477397588749" lon="10.30738606621108"><ele>614.5</ele><time>2026-04-11T13:51:10.934Z</time></trkpt><trkpt lat="44.49488642858648" lon="10.307254374983223"><ele>614.0</ele><time>2026-04-11T13:51:11.934Z</time></trkpt><trkpt lat="44.49499653494583" lon="10.307128545325478"><ele>614.0</ele><time>2026-04-11T13:51:12.934Z</time></trkpt><trkpt lat="44.49510353924886" lon="10.307010922008017"><ele>614.0</ele><time>2026-04-11T13:51:13.935Z</time></trkpt><trkpt lat="44.49522628084977" lon="10.30690302198461"><ele>614.0</ele><time>2026-04-11T13:51:14.935Z</time></trkpt><trkpt lat="44.49535948020177" lon="10.306820479825566"><ele>614.0</ele><time>2026-04-11T13:51:15.935Z</time></trkpt><trkpt lat="44.495495050146225" lon="10.30674760602283"><ele>613.25</ele><time>2026-04-11T13:51:16.935Z</time></trkpt><trkpt lat="44.49563168221812" lon="10.306675470693904"><ele>612.5</ele><time>2026-04-11T13:51:17.935Z</time></trkpt><trkpt lat="44.495766576510064" lon="10.30660234072429"><ele>611.75</ele><time>2026-04-11T13:51:18.935Z</time></trkpt><trkpt lat="44.495897448508565" lon="10.306525591518902"><ele>611.0</ele><time>2026-04-11T13:51:19.935Z</time></trkpt><trkpt lat="44.49602561097949" lon="10.306438125563767"><ele>611.25</ele><time>2026-04-11T13:51:20.935Z</time></trkpt><trkpt lat="44.496146984972455" lon="10.306329593716853"><ele>611.5</ele><time>2026-04-11T13:51:21.935Z</time></trkpt><trkpt lat="44.49626447156141" lon="10.306215270451611"><ele>611.75</ele><time>2026-04-11T13:51:22.935Z</time></trkpt><trkpt lat="44.49637842891384" lon="10.306094114104074"><ele>612.0</ele><time>2026-04-11T13:51:23.935Z</time></trkpt><trkpt lat="44.49649020320531" lon="10.305976559171656"><ele>612.0</ele><time>2026-04-11T13:51:24.932Z</time></trkpt><trkpt lat="44.4966027842909" lon="10.305863445121005"><ele>612.0</ele><time>2026-04-11T13:51:25.932Z</time></trkpt><trkpt lat="44.49671450124075" lon="10.305746161163208"><ele>612.0</ele><time>2026-04-11T13:51:26.932Z</time></trkpt><trkpt lat="44.49682591851976" lon="10.305633878748425"><ele>612.0</ele><time>2026-04-11T13:51:27.932Z</time></trkpt><trkpt lat="44.49692523073256" lon="10.305538257649474"><ele>613.75</ele><time>2026-04-11T13:51:28.932Z</time></trkpt><trkpt lat="44.497023680522304" lon="10.305459283642776"><ele>615.5</ele><time>2026-04-11T13:51:29.932Z</time></trkpt><trkpt lat="44.49714219763523" lon="10.30539959428003"><ele>617.25</ele><time>2026-04-11T13:51:30.932Z</time></trkpt><trkpt lat="44.49727851382614" lon="10.305373691285563"><ele>619.0</ele><time>2026-04-11T13:51:31.932Z</time></trkpt><trkpt lat="44.49741568281953" lon="10.30537960242885"><ele>619.0</ele><time>2026-04-11T13:51:32.932Z</time></trkpt><trkpt lat="44.49755402713202" lon="10.305378532295316"><ele>619.0</ele><time>2026-04-11T13:51:33.932Z</time></trkpt><trkpt lat="44.49769440236138" lon="10.305378934203159"><ele>619.0</ele><time>2026-04-11T13:51:34.932Z</time></trkpt><trkpt lat="44.49784018676716" lon="10.305378110263062"><ele>619.0</ele><time>2026-04-11T13:51:35.932Z</time></trkpt><trkpt lat="44.49797817601316" lon="10.305374864281475"><ele>619.25</ele><time>2026-04-11T13:51:36.932Z</time></trkpt><trkpt lat="44.49811722571134" lon="10.305375928714291"><ele>619.5</ele><time>2026-04-11T13:51:37.932Z</time></trkpt><trkpt lat="44.49825455377609" lon="10.305371523835234"><ele>619.75</ele><time>2026-04-11T13:51:38.932Z</time></trkpt><trkpt lat="44.49839058756933" lon="10.305355618329282"><ele>620.0</ele><time>2026-04-11T13:51:39.932Z</time></trkpt><trkpt lat="44.49852430962436" lon="10.305333315180066"><ele>620.0</ele><time>2026-04-11T13:51:40.932Z</time></trkpt><trkpt lat="44.49866068412123" lon="10.30530092031503"><ele>620.0</ele><time>2026-04-11T13:51:41.932Z</time></trkpt><trkpt lat="44.498795475368716" lon="10.305257188484322"><ele>620.0</ele><time>2026-04-11T13:51:42.932Z</time></trkpt><trkpt lat="44.49892856270331" lon="10.305215179999996"><ele>620.0</ele><time>2026-04-11T13:51:43.932Z</time></trkpt><trkpt lat="44.49905748771856" lon="10.305164900105911"><ele>620.0</ele><time>2026-04-11T13:51:44.932Z</time></trkpt><trkpt lat="44.49918781935887" lon="10.305116851787268"><ele>620.0</ele><time>2026-04-11T13:51:45.932Z</time></trkpt><trkpt lat="44.499319934911085" lon="10.305070807591019"><ele>620.0</ele><time>2026-04-11T13:51:46.932Z</time></trkpt><trkpt lat="44.49945299671213" lon="10.305021669543335"><ele>620.0</ele><time>2026-04-11T13:51:47.932Z</time></trkpt><trkpt lat="44.49958107758754" lon="10.304972794499209"><ele>620.25</ele><time>2026-04-11T13:51:48.932Z</time></trkpt><trkpt lat="44.49971387693691" lon="10.304929165359397"><ele>620.5</ele><time>2026-04-11T13:51:49.932Z</time></trkpt><trkpt lat="44.4998460428164" lon="10.304881750345906"><ele>620.75</ele><time>2026-04-11T13:51:50.932Z</time></trkpt><trkpt lat="44.49997004703945" lon="10.304832598647758"><ele>621.0</ele><time>2026-04-11T13:51:51.932Z</time></trkpt><trkpt lat="44.50009440355179" lon="10.304796175291314"><ele>621.0</ele><time>2026-04-11T13:51:52.932Z</time></trkpt><trkpt lat="44.500221709437895" lon="10.304762744959167"><ele>621.0</ele><time>2026-04-11T13:51:53.932Z</time></trkpt><trkpt lat="44.5003503981367" lon="10.304728829296037"><ele>621.0</ele><time>2026-04-11T13:51:54.932Z</time></trkpt><trkpt lat="44.50047470283102" lon="10.304718538374365"><ele>621.0</ele><time>2026-04-11T13:51:55.932Z</time></trkpt><trkpt lat="44.50059715628732" lon="10.304756144425633"><ele>620.75</ele><time>2026-04-11T13:51:56.932Z</time></trkpt><trkpt lat="44.50070599989467" lon="10.30482590974743"><ele>620.5</ele><time>2026-04-11T13:51:57.932Z</time></trkpt><trkpt lat="44.50081953816712" lon="10.304922753304913"><ele>620.25</ele><time>2026-04-11T13:51:58.932Z</time></trkpt><trkpt lat="44.500914209073485" lon="10.305025148863503"><ele>620.0</ele><time>2026-04-11T13:51:59.932Z</time></trkpt><trkpt lat="44.50098774284124" lon="10.305123137975214"><ele>620.0</ele><time>2026-04-11T13:52:00.932Z</time></trkpt><trkpt lat="44.50105217913934" lon="10.305204291113961"><ele>620.0</ele><time>2026-04-11T13:52:01.932Z</time></trkpt><trkpt lat="44.50111020128413" lon="10.305271040833368"><ele>620.0</ele><time>2026-04-11T13:52:02.932Z</time></trkpt><trkpt lat="44.50116819517552" lon="10.305388295612238"><ele>620.0</ele><time>2026-04-11T13:52:04.932Z</time></trkpt><trkpt lat="44.501133898202816" lon="10.305515557703083"><ele>620.0</ele><time>2026-04-11T13:52:06.932Z</time></trkpt><trkpt lat="44.50108179335125" lon="10.305577468903845"><ele>620.0</ele><time>2026-04-11T13:52:07.932Z</time></trkpt><trkpt lat="44.501027585720436" lon="10.305641859965075"><ele>619.8</ele><time>2026-04-11T13:52:08.932Z</time></trkpt><trkpt lat="44.50096534828794" lon="10.30571195326511"><ele>619.6</ele><time>2026-04-11T13:52:09.932Z</time></trkpt><trkpt lat="44.50089855164742" lon="10.305797410501619"><ele>619.4</ele><time>2026-04-11T13:52:10.932Z</time></trkpt><trkpt lat="44.500818983955625" lon="10.305881314450911"><ele>619.2</ele><time>2026-04-11T13:52:11.932Z</time></trkpt><trkpt lat="44.500738024617426" lon="10.30597236425787"><ele>619.0</ele><time>2026-04-11T13:52:12.932Z</time></trkpt><trkpt lat="44.500660050994426" lon="10.306057889129757"><ele>619.0</ele><time>2026-04-11T13:52:13.932Z</time></trkpt><trkpt lat="44.5005899006278" lon="10.306132660957259"><ele>619.0</ele><time>2026-04-11T13:52:14.932Z</time></trkpt><trkpt lat="44.50052255418366" lon="10.306207096308468"><ele>619.0</ele><time>2026-04-11T13:52:15.932Z</time></trkpt><trkpt lat="44.500473457959025" lon="10.306296838464158"><ele>619.0</ele><time>2026-04-11T13:52:16.932Z</time></trkpt><trkpt lat="44.500455265975276" lon="10.306408145293315"><ele>619.0</ele><time>2026-04-11T13:52:17.932Z</time></trkpt><trkpt lat="44.50045869081207" lon="10.306532740753815"><ele>619.0</ele><time>2026-04-11T13:52:18.932Z</time></trkpt><trkpt lat="44.50048917344356" lon="10.306650525437318"><ele>618.6</ele><time>2026-04-11T13:52:19.932Z</time></trkpt><trkpt lat="44.5005360044086" lon="10.30676716763133"><ele>618.2</ele><time>2026-04-11T13:52:20.932Z</time></trkpt><trkpt lat="44.5005869662073" lon="10.306892842059673"><ele>617.8000000000001</ele><time>2026-04-11T13:52:21.932Z</time></trkpt><trkpt lat="44.50064264650192" lon="10.307021079906326"><ele>617.4</ele><time>2026-04-11T13:52:22.932Z</time></trkpt><trkpt lat="44.50070561812553" lon="10.307144668373725"><ele>617.0</ele><time>2026-04-11T13:52:23.932Z</time></trkpt><trkpt lat="44.500774429186066" lon="10.307268729535016"><ele>616.4</ele><time>2026-04-11T13:52:24.932Z</time></trkpt><trkpt lat="44.50083615809604" lon="10.30739084354382"><ele>615.8000000000001</ele><time>2026-04-11T13:52:25.932Z</time></trkpt><trkpt lat="44.500881132313474" lon="10.307504968605288"><ele>615.2</ele><time>2026-04-11T13:52:26.932Z</time></trkpt><trkpt lat="44.50090430315523" lon="10.307616433081202"><ele>614.6</ele><time>2026-04-11T13:52:27.932Z</time></trkpt><trkpt lat="44.50092046363243" lon="10.30776719084334"><ele>614.0</ele><time>2026-04-11T13:52:28.932Z</time></trkpt><trkpt lat="44.5009107198336" lon="10.307922598751702"><ele>614.0</ele><time>2026-04-11T13:52:29.932Z</time></trkpt><trkpt lat="44.50089209337467" lon="10.308073412720827"><ele>614.0</ele><time>2026-04-11T13:52:30.932Z</time></trkpt><trkpt lat="44.50086576137265" lon="10.308224471909671"><ele>614.0</ele><time>2026-04-11T13:52:31.932Z</time></trkpt><trkpt lat="44.500840045177085" lon="10.308376339828921"><ele>614.0</ele><time>2026-04-11T13:52:32.932Z</time></trkpt><trkpt lat="44.50082528373031" lon="10.308521061394332"><ele>614.0</ele><time>2026-04-11T13:52:33.932Z</time></trkpt><trkpt lat="44.500809019368795" lon="10.308639771755043"><ele>613.8333333333333</ele><time>2026-04-11T13:52:34.932Z</time></trkpt><trkpt lat="44.50079076324118" lon="10.308747197164806"><ele>613.6666666666666</ele><time>2026-04-11T13:52:35.932Z</time></trkpt><trkpt lat="44.50076120163399" lon="10.308882971926096"><ele>613.5</ele><time>2026-04-11T13:52:37.932Z</time></trkpt><trkpt lat="44.5007515133342" lon="10.308975709476515"><ele>613.3333333333334</ele><time>2026-04-11T13:52:40.932Z</time></trkpt><trkpt lat="44.50074175258209" lon="10.309064311124274"><ele>613.1666666666667</ele><time>2026-04-11T13:53:04.932Z</time></trkpt><trkpt lat="44.5007433785698" lon="10.309257016139124"><ele>613.0</ele><time>2026-04-11T13:53:06.933Z</time></trkpt><trkpt lat="44.50073287270041" lon="10.309376207776648"><ele>613.0</ele><time>2026-04-11T13:53:07.933Z</time></trkpt><trkpt lat="44.500718148767895" lon="10.309532635480599"><ele>613.0</ele><time>2026-04-11T13:53:08.933Z</time></trkpt><trkpt lat="44.50070252405179" lon="10.309713052628448"><ele>613.0</ele><time>2026-04-11T13:53:09.933Z</time></trkpt><trkpt lat="44.500685303723756" lon="10.309921472199504"><ele>613.0</ele><time>2026-04-11T13:53:10.933Z</time></trkpt><trkpt lat="44.50066280355397" lon="10.310128450219523"><ele>613.75</ele><time>2026-04-11T13:53:11.933Z</time></trkpt><trkpt lat="44.5006404517008" lon="10.310310002611395"><ele>614.5</ele><time>2026-04-11T13:53:12.933Z</time></trkpt><trkpt lat="44.500622278581204" lon="10.310470826552322"><ele>615.25</ele><time>2026-04-11T13:53:13.933Z</time></trkpt><trkpt lat="44.50060641781874" lon="10.310634053885371"><ele>616.0</ele><time>2026-04-11T13:53:14.933Z</time></trkpt><trkpt lat="44.50058727694442" lon="10.310806312341672"><ele>616.5</ele><time>2026-04-11T13:53:15.933Z</time></trkpt><trkpt lat="44.500559568395275" lon="10.310973068832064"><ele>617.0</ele><time>2026-04-11T13:53:16.933Z</time></trkpt><trkpt lat="44.500533714931564" lon="10.311148110382623"><ele>617.5</ele><time>2026-04-11T13:53:17.933Z</time></trkpt><trkpt lat="44.50051445845409" lon="10.311343181318852"><ele>618.0</ele><time>2026-04-11T13:53:18.933Z</time></trkpt><trkpt lat="44.50049650540449" lon="10.311534311177882"><ele>618.1999999999999</ele><time>2026-04-11T13:53:19.933Z</time></trkpt><trkpt lat="44.500478221315554" lon="10.311707380079763"><ele>618.4</ele><time>2026-04-11T13:53:20.933Z</time></trkpt><trkpt lat="44.5004592825947" lon="10.311862200341576"><ele>618.5999999999999</ele><time>2026-04-11T13:53:21.933Z</time></trkpt><trkpt lat="44.50044478878858" lon="10.312001419942474"><ele>618.8</ele><time>2026-04-11T13:53:22.933Z</time></trkpt><trkpt lat="44.500432551650114" lon="10.312138854761468"><ele>619.0</ele><time>2026-04-11T13:53:23.933Z</time></trkpt><trkpt lat="44.500416845786596" lon="10.312263819788235"><ele>619.2</ele><time>2026-04-11T13:53:24.933Z</time></trkpt><trkpt lat="44.50038765253086" lon="10.31238120704105"><ele>619.4</ele><time>2026-04-11T13:53:25.933Z</time></trkpt><trkpt lat="44.50033532479191" lon="10.312481672777926"><ele>619.6</ele><time>2026-04-11T13:53:26.933Z</time></trkpt><trkpt lat="44.500259131061895" lon="10.312554109270014"><ele>619.8</ele><time>2026-04-11T13:53:27.933Z</time></trkpt><trkpt lat="44.500170616351106" lon="10.31261529704668"><ele>620.0</ele><time>2026-04-11T13:53:28.933Z</time></trkpt><trkpt lat="44.50006540951903" lon="10.312670076198277"><ele>620.0</ele><time>2026-04-11T13:53:29.933Z</time></trkpt><trkpt lat="44.499957086409516" lon="10.312726327631797"><ele>620.0</ele><time>2026-04-11T13:53:30.931Z</time></trkpt><trkpt lat="44.49984253514681" lon="10.312781069804648"><ele>620.0</ele><time>2026-04-11T13:53:31.931Z</time></trkpt><trkpt lat="44.499725249026085" lon="10.312853752525458"><ele>620.0</ele><time>2026-04-11T13:53:32.931Z</time></trkpt><trkpt lat="44.49960644144072" lon="10.312928630715247"><ele>620.75</ele><time>2026-04-11T13:53:33.931Z</time></trkpt><trkpt lat="44.49947989257549" lon="10.313013239695586"><ele>621.5</ele><time>2026-04-11T13:53:34.931Z</time></trkpt><trkpt lat="44.49934969866066" lon="10.3130874572472"><ele>622.25</ele><time>2026-04-11T13:53:35.931Z</time></trkpt><trkpt lat="44.49921918770638" lon="10.313162009985371"><ele>623.0</ele><time>2026-04-11T13:53:36.931Z</time></trkpt><trkpt lat="44.49909697295302" lon="10.313231485027723"><ele>619.5</ele><time>2026-04-11T13:53:37.931Z</time></trkpt><trkpt lat="44.498973807897286" lon="10.313310400129424"><ele>616.0</ele><time>2026-04-11T13:53:38.931Z</time></trkpt><trkpt lat="44.4988475069236" lon="10.313386430363982"><ele>612.5</ele><time>2026-04-11T13:53:39.931Z</time></trkpt><trkpt lat="44.498718406842805" lon="10.313467500225885"><ele>609.0</ele><time>2026-04-11T13:53:40.931Z</time></trkpt><trkpt lat="44.49858921239811" lon="10.313530113223878"><ele>609.0</ele><time>2026-04-11T13:53:41.931Z</time></trkpt><trkpt lat="44.49846812014594" lon="10.313565088249499"><ele>609.0</ele><time>2026-04-11T13:53:42.931Z</time></trkpt><trkpt lat="44.4983573881508" lon="10.313583601568268"><ele>609.0</ele><time>2026-04-11T13:53:43.931Z</time></trkpt><trkpt lat="44.498248142416756" lon="10.313583795407771"><ele>609.0</ele><time>2026-04-11T13:53:44.931Z</time></trkpt><trkpt lat="44.49813141109842" lon="10.313566308131728"><ele>609.0</ele><time>2026-04-11T13:53:45.931Z</time></trkpt><trkpt lat="44.4980120921718" lon="10.313539178476073"><ele>609.0</ele><time>2026-04-11T13:53:46.931Z</time></trkpt><trkpt lat="44.49790234205501" lon="10.313515824123437"><ele>609.0</ele><time>2026-04-11T13:53:47.931Z</time></trkpt><trkpt lat="44.49779491109144" lon="10.313490449117339"><ele>609.0</ele><time>2026-04-11T13:53:48.931Z</time></trkpt><trkpt lat="44.497690187773486" lon="10.313467476122973"><ele>609.0</ele><time>2026-04-11T13:53:49.931Z</time></trkpt><trkpt lat="44.49758776475681" lon="10.313461562577697"><ele>608.2</ele><time>2026-04-11T13:53:50.931Z</time></trkpt><trkpt lat="44.497488006716424" lon="10.313488931886186"><ele>607.4</ele><time>2026-04-11T13:53:51.931Z</time></trkpt><trkpt lat="44.49740017857869" lon="10.313563098984952"><ele>606.6</ele><time>2026-04-11T13:53:52.931Z</time></trkpt><trkpt lat="44.497334898584896" lon="10.31368718922683"><ele>605.8</ele><time>2026-04-11T13:53:53.931Z</time></trkpt><trkpt lat="44.49728509041993" lon="10.31384427863899"><ele>605.0</ele><time>2026-04-11T13:53:54.931Z</time></trkpt><trkpt lat="44.49725734960084" lon="10.314027093270413"><ele>602.75</ele><time>2026-04-11T13:53:55.931Z</time></trkpt><trkpt lat="44.497240702407396" lon="10.314220407955249"><ele>600.5</ele><time>2026-04-11T13:53:56.931Z</time></trkpt><trkpt lat="44.49722503002609" lon="10.314401862962335"><ele>598.25</ele><time>2026-04-11T13:53:57.931Z</time></trkpt><trkpt lat="44.497209369642135" lon="10.314580482030962"><ele>596.0</ele><time>2026-04-11T13:53:58.931Z</time></trkpt><trkpt lat="44.49719709441915" lon="10.31476146618436"><ele>595.8</ele><time>2026-04-11T13:53:59.931Z</time></trkpt><trkpt lat="44.497182227458" lon="10.314929028396898"><ele>595.6</ele><time>2026-04-11T13:54:00.931Z</time></trkpt><trkpt lat="44.497167866984924" lon="10.315091710291032"><ele>595.4</ele><time>2026-04-11T13:54:01.931Z</time></trkpt><trkpt lat="44.497151873016584" lon="10.315241490018233"><ele>595.2</ele><time>2026-04-11T13:54:02.931Z</time></trkpt><trkpt lat="44.49712979163411" lon="10.31537716658839"><ele>595.0</ele><time>2026-04-11T13:54:03.931Z</time></trkpt><trkpt lat="44.49709396704307" lon="10.315494278917422"><ele>594.6</ele><time>2026-04-11T13:54:04.931Z</time></trkpt><trkpt lat="44.49704359673652" lon="10.315609373740728"><ele>594.2</ele><time>2026-04-11T13:54:05.931Z</time></trkpt><trkpt lat="44.496980684743384" lon="10.315740865320608"><ele>593.8</ele><time>2026-04-11T13:54:06.931Z</time></trkpt><trkpt lat="44.49691762351345" lon="10.315879872522096"><ele>593.4</ele><time>2026-04-11T13:54:07.931Z</time></trkpt><trkpt lat="44.49685903306224" lon="10.316017102738408"><ele>593.0</ele><time>2026-04-11T13:54:08.931Z</time></trkpt><trkpt lat="44.49680056888813" lon="10.316153457348475"><ele>593.0</ele><time>2026-04-11T13:54:09.931Z</time></trkpt><trkpt lat="44.49673944887261" lon="10.316288843931918"><ele>593.0</ele><time>2026-04-11T13:54:10.931Z</time></trkpt><trkpt lat="44.49668192799002" lon="10.316422176041746"><ele>593.0</ele><time>2026-04-11T13:54:11.931Z</time></trkpt><trkpt lat="44.496626641670474" lon="10.31655668402149"><ele>593.0</ele><time>2026-04-11T13:54:12.931Z</time></trkpt><trkpt lat="44.49657091102425" lon="10.316686304790274"><ele>593.0</ele><time>2026-04-11T13:54:13.931Z</time></trkpt><trkpt lat="44.49651603878197" lon="10.31681356590684"><ele>591.5</ele><time>2026-04-11T13:54:14.931Z</time></trkpt><trkpt lat="44.496461539929605" lon="10.316944559401358"><ele>590.0</ele><time>2026-04-11T13:54:15.931Z</time></trkpt><trkpt lat="44.49640573065969" lon="10.317095232216682"><ele>588.5</ele><time>2026-04-11T13:54:16.931Z</time></trkpt><trkpt lat="44.496356443556316" lon="10.317251610858351"><ele>587.0</ele><time>2026-04-11T13:54:17.931Z</time></trkpt><trkpt lat="44.496314717054425" lon="10.317416694871978"><ele>585.25</ele><time>2026-04-11T13:54:18.931Z</time></trkpt><trkpt lat="44.49626585256152" lon="10.31757580689817"><ele>583.5</ele><time>2026-04-11T13:54:19.931Z</time></trkpt><trkpt lat="44.496214635362776" lon="10.317734993926093"><ele>581.75</ele><time>2026-04-11T13:54:20.931Z</time></trkpt><trkpt lat="44.49616251482442" lon="10.317894301342259"><ele>580.0</ele><time>2026-04-11T13:54:21.931Z</time></trkpt><trkpt lat="44.496111192397706" lon="10.318053004656447"><ele>575.25</ele><time>2026-04-11T13:54:22.931Z</time></trkpt><trkpt lat="44.49606374274114" lon="10.31820935161105"><ele>570.5</ele><time>2026-04-11T13:54:23.931Z</time></trkpt><trkpt lat="44.496013268550705" lon="10.318365391545479"><ele>565.75</ele><time>2026-04-11T13:54:24.931Z</time></trkpt><trkpt lat="44.49595738283646" lon="10.318519651683518"><ele>561.0</ele><time>2026-04-11T13:54:25.931Z</time></trkpt><trkpt lat="44.49589976163743" lon="10.31866745077469"><ele>561.0</ele><time>2026-04-11T13:54:26.931Z</time></trkpt><trkpt lat="44.49584746643836" lon="10.318815921837599"><ele>561.0</ele><time>2026-04-11T13:54:27.931Z</time></trkpt><trkpt lat="44.49579799248325" lon="10.318961348661707"><ele>561.0</ele><time>2026-04-11T13:54:28.931Z</time></trkpt><trkpt lat="44.4957505855102" lon="10.319107984578663"><ele>561.0</ele><time>2026-04-11T13:54:29.931Z</time></trkpt><trkpt lat="44.49571306986049" lon="10.31926319335074"><ele>560.25</ele><time>2026-04-11T13:54:30.931Z</time></trkpt><trkpt lat="44.495678957425824" lon="10.319426726988754"><ele>559.5</ele><time>2026-04-11T13:54:31.931Z</time></trkpt><trkpt lat="44.49564740877352" lon="10.319583347126734"><ele>558.75</ele><time>2026-04-11T13:54:32.931Z</time></trkpt><trkpt lat="44.49561770114982" lon="10.31973741458848"><ele>558.0</ele><time>2026-04-11T13:54:33.931Z</time></trkpt><trkpt lat="44.49559172372088" lon="10.319882851077166"><ele>557.6</ele><time>2026-04-11T13:54:34.931Z</time></trkpt><trkpt lat="44.495563951929334" lon="10.320021782692166"><ele>557.1999999999999</ele><time>2026-04-11T13:54:35.931Z</time></trkpt><trkpt lat="44.495536992998304" lon="10.320161507204435"><ele>556.8</ele><time>2026-04-11T13:54:36.931Z</time></trkpt><trkpt lat="44.49551392382386" lon="10.320301020677933"><ele>556.4</ele><time>2026-04-11T13:54:37.931Z</time></trkpt><trkpt lat="44.49549979561018" lon="10.320426214242902"><ele>556.0</ele><time>2026-04-11T13:54:38.931Z</time></trkpt><trkpt lat="44.495487804783195" lon="10.32053831812871"><ele>555.7142857142857</ele><time>2026-04-11T13:54:39.931Z</time></trkpt><trkpt lat="44.49547598497653" lon="10.32063736154192"><ele>555.4285714285714</ele><time>2026-04-11T13:54:40.931Z</time></trkpt><trkpt lat="44.495455746458745" lon="10.320732227099562"><ele>555.1428571428571</ele><time>2026-04-11T13:54:41.931Z</time></trkpt><trkpt lat="44.49542488864124" lon="10.320821732775247"><ele>554.8571428571429</ele><time>2026-04-11T13:54:42.931Z</time></trkpt><trkpt lat="44.49538652997363" lon="10.320920045607497"><ele>554.5714285714286</ele><time>2026-04-11T13:54:43.931Z</time></trkpt><trkpt lat="44.49534806500147" lon="10.321009494198833"><ele>554.2857142857142</ele><time>2026-04-11T13:54:44.931Z</time></trkpt><trkpt lat="44.495319436900935" lon="10.321092146021902"><ele>554.0</ele><time>2026-04-11T13:54:45.931Z</time></trkpt><trkpt lat="44.495312923980045" lon="10.321181228803441"><ele>554.0</ele><time>2026-04-11T13:54:46.931Z</time></trkpt><trkpt lat="44.49534109798784" lon="10.32127231779719"><ele>554.0</ele><time>2026-04-11T13:54:47.931Z</time></trkpt><trkpt lat="44.495403684099024" lon="10.321347908546747"><ele>554.0</ele><time>2026-04-11T13:54:48.931Z</time></trkpt><trkpt lat="44.49547797878351" lon="10.321383236023687"><ele>554.0</ele><time>2026-04-11T13:54:49.931Z</time></trkpt><trkpt lat="44.49554821191267" lon="10.321365120340271"><ele>554.0</ele><time>2026-04-11T13:54:50.931Z</time></trkpt><trkpt lat="44.49561187540886" lon="10.321390023865085"><ele>554.0</ele><time>2026-04-11T13:54:51.931Z</time></trkpt><trkpt lat="44.49569857379461" lon="10.32150420159426"><ele>553.0</ele><time>2026-04-11T13:54:53.931Z</time></trkpt><trkpt lat="44.49571255226797" lon="10.321592495024907"><ele>552.0</ele><time>2026-04-11T13:54:54.931Z</time></trkpt><trkpt lat="44.495705145306374" lon="10.321698934004472"><ele>551.0</ele><time>2026-04-11T13:54:55.931Z</time></trkpt><trkpt lat="44.495679201972216" lon="10.321802702953784"><ele>550.0</ele><time>2026-04-11T13:54:56.931Z</time></trkpt><trkpt lat="44.49564389192252" lon="10.32191510087908"><ele>549.0</ele><time>2026-04-11T13:54:57.931Z</time></trkpt><trkpt lat="44.49559760858049" lon="10.322024221219925"><ele>548.0</ele><time>2026-04-11T13:54:58.931Z</time></trkpt><trkpt lat="44.495546700268484" lon="10.322124285861078"><ele>548.0</ele><time>2026-04-11T13:54:59.931Z</time></trkpt><trkpt lat="44.49550112171426" lon="10.32220436379189"><ele>548.0</ele><time>2026-04-11T13:55:00.931Z</time></trkpt><trkpt lat="44.49546087981594" lon="10.322287762618346"><ele>548.0</ele><time>2026-04-11T13:55:01.931Z</time></trkpt><trkpt lat="44.495429629653614" lon="10.322376283171119"><ele>548.0</ele><time>2026-04-11T13:55:02.931Z</time></trkpt><trkpt lat="44.495420860511324" lon="10.322468165550264"><ele>548.0</ele><time>2026-04-11T13:55:03.931Z</time></trkpt><trkpt lat="44.4954629057123" lon="10.32262595789584"><ele>548.0</ele><time>2026-04-11T13:55:05.931Z</time></trkpt><trkpt lat="44.49552638581976" lon="10.322700233080743"><ele>546.8333333333333</ele><time>2026-04-11T13:55:06.931Z</time></trkpt><trkpt lat="44.49560207233173" lon="10.322753943186736"><ele>545.6666666666666</ele><time>2026-04-11T13:55:07.931Z</time></trkpt><trkpt lat="44.495689596368905" lon="10.322801798608378"><ele>544.5</ele><time>2026-04-11T13:55:08.931Z</time></trkpt><trkpt lat="44.49577545329115" lon="10.322842106743352"><ele>543.3333333333334</ele><time>2026-04-11T13:55:09.931Z</time></trkpt><trkpt lat="44.49585356095334" lon="10.322867820774361"><ele>542.1666666666667</ele><time>2026-04-11T13:55:10.932Z</time></trkpt><trkpt lat="44.49593882621618" lon="10.322883605025028"><ele>541.0</ele><time>2026-04-11T13:55:11.932Z</time></trkpt><trkpt lat="44.49602771209567" lon="10.322882758265054"><ele>541.0</ele><time>2026-04-11T13:55:12.932Z</time></trkpt><trkpt lat="44.49611611201398" lon="10.322871951984448"><ele>541.0</ele><time>2026-04-11T13:55:13.932Z</time></trkpt><trkpt lat="44.49620413983121" lon="10.322867045184967"><ele>541.0</ele><time>2026-04-11T13:55:14.932Z</time></trkpt><trkpt lat="44.49629135346012" lon="10.322866110211246"><ele>541.0</ele><time>2026-04-11T13:55:15.932Z</time></trkpt><trkpt lat="44.496388306942414" lon="10.322863583383661"><ele>541.0</ele><time>2026-04-11T13:55:16.932Z</time></trkpt><trkpt lat="44.496494662184304" lon="10.32286626180533"><ele>543.0</ele><time>2026-04-11T13:55:17.932Z</time></trkpt><trkpt lat="44.49659664062251" lon="10.322897292023834"><ele>545.0</ele><time>2026-04-11T13:55:18.932Z</time></trkpt><trkpt lat="44.49670583158676" lon="10.322972557097879"><ele>547.0</ele><time>2026-04-11T13:55:19.932Z</time></trkpt><trkpt lat="44.496814600937604" lon="10.323098190785986"><ele>549.0</ele><time>2026-04-11T13:55:20.932Z</time></trkpt><trkpt lat="44.496913158126404" lon="10.323266045125894"><ele>545.6666666666666</ele><time>2026-04-11T13:55:21.932Z</time></trkpt><trkpt lat="44.4970180387491" lon="10.323450279541722"><ele>542.3333333333333</ele><time>2026-04-11T13:55:22.932Z</time></trkpt><trkpt lat="44.4971232223115" lon="10.323627674288632"><ele>539.0</ele><time>2026-04-11T13:55:23.932Z</time></trkpt><trkpt lat="44.49721339223984" lon="10.323797091171725"><ele>535.0</ele><time>2026-04-11T13:55:24.932Z</time></trkpt><trkpt lat="44.49729355085763" lon="10.323969585472401"><ele>531.0</ele><time>2026-04-11T13:55:25.932Z</time></trkpt><trkpt lat="44.497360557844644" lon="10.324171789899003"><ele>527.0</ele><time>2026-04-11T13:55:26.932Z</time></trkpt><trkpt lat="44.49741290974076" lon="10.324391802379214"><ele>527.0</ele><time>2026-04-11T13:55:27.932Z</time></trkpt><trkpt lat="44.4974589532117" lon="10.324614047799463"><ele>527.0</ele><time>2026-04-11T13:55:28.932Z</time></trkpt><trkpt lat="44.49750495929672" lon="10.324830539151973"><ele>527.0</ele><time>2026-04-11T13:55:29.932Z</time></trkpt><trkpt lat="44.497546338954486" lon="10.325039254600128"><ele>525.0</ele><time>2026-04-11T13:55:30.932Z</time></trkpt><trkpt lat="44.497579432231895" lon="10.32523349865996"><ele>523.0</ele><time>2026-04-11T13:55:31.932Z</time></trkpt><trkpt lat="44.497609049305716" lon="10.325415131387752"><ele>521.0</ele><time>2026-04-11T13:55:32.932Z</time></trkpt><trkpt lat="44.49764306570204" lon="10.325581627577895"><ele>519.0</ele><time>2026-04-11T13:55:33.932Z</time></trkpt><trkpt lat="44.497702156744865" lon="10.32573475479306"><ele>515.6666666666666</ele><time>2026-04-11T13:55:34.932Z</time></trkpt><trkpt lat="44.49778634081135" lon="10.32589082620609"><ele>512.3333333333333</ele><time>2026-04-11T13:55:35.932Z</time></trkpt><trkpt lat="44.497893618909345" lon="10.32604849906842"><ele>509.0</ele><time>2026-04-11T13:55:36.93Z</time></trkpt><trkpt lat="44.49800451007183" lon="10.326232816859106"><ele>509.3333333333333</ele><time>2026-04-11T13:55:37.93Z</time></trkpt><trkpt lat="44.4981070892954" lon="10.326409778335098"><ele>509.66666666666663</ele><time>2026-04-11T13:55:38.93Z</time></trkpt><trkpt lat="44.49820995149372" lon="10.326576108831997"><ele>510.0</ele><time>2026-04-11T13:55:39.93Z</time></trkpt><trkpt lat="44.49829935100118" lon="10.326738004973956"><ele>510.0</ele><time>2026-04-11T13:55:40.93Z</time></trkpt><trkpt lat="44.49837146433292" lon="10.326918065631078"><ele>510.0</ele><time>2026-04-11T13:55:41.93Z</time></trkpt><trkpt lat="44.4984238002804" lon="10.327102675746053"><ele>510.0</ele><time>2026-04-11T13:55:42.931Z</time></trkpt><trkpt lat="44.498489312295014" lon="10.327252709719696"><ele>510.0</ele><time>2026-04-11T13:55:43.93Z</time></trkpt><trkpt lat="44.498572459331676" lon="10.327377338860535"><ele>512.5</ele><time>2026-04-11T13:55:44.93Z</time></trkpt><trkpt lat="44.4986505018269" lon="10.327495392061438"><ele>515.0</ele><time>2026-04-11T13:55:45.93Z</time></trkpt><trkpt lat="44.49871219420954" lon="10.327641294875585"><ele>517.5</ele><time>2026-04-11T13:55:46.93Z</time></trkpt><trkpt lat="44.498757463749826" lon="10.327818857277927"><ele>520.0</ele><time>2026-04-11T13:55:47.93Z</time></trkpt><trkpt lat="44.49877501316051" lon="10.328019168864069"><ele>519.25</ele><time>2026-04-11T13:55:48.93Z</time></trkpt><trkpt lat="44.49877063634589" lon="10.328229132277807"><ele>518.5</ele><time>2026-04-11T13:55:49.93Z</time></trkpt><trkpt lat="44.49875510581875" lon="10.32842647261093"><ele>517.75</ele><time>2026-04-11T13:55:50.93Z</time></trkpt><trkpt lat="44.49874125626738" lon="10.328601776537894"><ele>517.0</ele><time>2026-04-11T13:55:51.93Z</time></trkpt><trkpt lat="44.49872172246401" lon="10.328748346490741"><ele>514.6</ele><time>2026-04-11T13:55:52.93Z</time></trkpt><trkpt lat="44.498716677325426" lon="10.32888672136332"><ele>512.2</ele><time>2026-04-11T13:55:53.93Z</time></trkpt><trkpt lat="44.498743634290136" lon="10.329019908709068"><ele>509.8</ele><time>2026-04-11T13:55:54.93Z</time></trkpt><trkpt lat="44.49880363843957" lon="10.329148493087624"><ele>507.4</ele><time>2026-04-11T13:55:55.93Z</time></trkpt><trkpt lat="44.49887744160163" lon="10.329261094947626"><ele>505.0</ele><time>2026-04-11T13:55:56.93Z</time></trkpt><trkpt lat="44.49894616051708" lon="10.329371846112723"><ele>505.0</ele><time>2026-04-11T13:55:57.93Z</time></trkpt><trkpt lat="44.49901128633005" lon="10.329512931925688"><ele>505.0</ele><time>2026-04-11T13:55:58.93Z</time></trkpt><trkpt lat="44.49902576478383" lon="10.329683883617852"><ele>505.0</ele><time>2026-04-11T13:55:59.93Z</time></trkpt><trkpt lat="44.49900883719399" lon="10.329873992948874"><ele>505.0</ele><time>2026-04-11T13:56:00.93Z</time></trkpt><trkpt lat="44.4989873574475" lon="10.330059252559716"><ele>501.25</ele><time>2026-04-11T13:56:01.93Z</time></trkpt><trkpt lat="44.498963583575765" lon="10.330240624963487"><ele>497.5</ele><time>2026-04-11T13:56:02.93Z</time></trkpt><trkpt lat="44.498943946081454" lon="10.33041968909333"><ele>493.75</ele><time>2026-04-11T13:56:03.93Z</time></trkpt><trkpt lat="44.49892425077879" lon="10.330591279758371"><ele>490.0</ele><time>2026-04-11T13:56:04.93Z</time></trkpt><trkpt lat="44.49890154371163" lon="10.330744192826677"><ele>487.83333333333337</ele><time>2026-04-11T13:56:05.93Z</time></trkpt><trkpt lat="44.49886801868543" lon="10.33086736644536"><ele>485.6666666666667</ele><time>2026-04-11T13:56:06.93Z</time></trkpt><trkpt lat="44.498817960427935" lon="10.330967966068295"><ele>483.5</ele><time>2026-04-11T13:56:07.93Z</time></trkpt><trkpt lat="44.49877928349005" lon="10.331062977463036"><ele>481.33333333333337</ele><time>2026-04-11T13:56:08.93Z</time></trkpt><trkpt lat="44.498770057566155" lon="10.331171586145992"><ele>479.1666666666667</ele><time>2026-04-11T13:56:09.93Z</time></trkpt><trkpt lat="44.49879747062176" lon="10.331263364372997"><ele>477.0</ele><time>2026-04-11T13:56:10.93Z</time></trkpt><trkpt lat="44.49885327648616" lon="10.331329734410843"><ele>477.0</ele><time>2026-04-11T13:56:11.93Z</time></trkpt><trkpt lat="44.49895453691308" lon="10.331370167309636"><ele>477.00000000000006</ele><time>2026-04-11T13:56:12.93Z</time></trkpt><trkpt lat="44.49905285366068" lon="10.331381962313923"><ele>477.00000000000006</ele><time>2026-04-11T13:56:13.93Z</time></trkpt><trkpt lat="44.49916049555962" lon="10.331375036174535"><ele>477.0</ele><time>2026-04-11T13:56:14.93Z</time></trkpt><trkpt lat="44.49927528265791" lon="10.331353218077039"><ele>477.0</ele><time>2026-04-11T13:56:15.93Z</time></trkpt><trkpt lat="44.499395932914176" lon="10.331335790608641"><ele>477.0</ele><time>2026-04-11T13:56:16.93Z</time></trkpt><trkpt lat="44.49951732489956" lon="10.331335596993481"><ele>477.0</ele><time>2026-04-11T13:56:17.93Z</time></trkpt><trkpt lat="44.499627490235774" lon="10.331350174091869"><ele>477.0</ele><time>2026-04-11T13:56:18.93Z</time></trkpt><trkpt lat="44.49973498951115" lon="10.331374680304576"><ele>477.0</ele><time>2026-04-11T13:56:19.93Z</time></trkpt><trkpt lat="44.4998640272495" lon="10.331433246826686"><ele>470.0</ele><time>2026-04-11T13:56:20.93Z</time></trkpt><trkpt lat="44.4999873580266" lon="10.33152299696183"><ele>463.0</ele><time>2026-04-11T13:56:21.93Z</time></trkpt><trkpt lat="44.500096537985996" lon="10.33161313294054"><ele>456.0</ele><time>2026-04-11T13:56:22.93Z</time></trkpt><trkpt lat="44.500197621632694" lon="10.331704308691462"><ele>449.0</ele><time>2026-04-11T13:56:23.93Z</time></trkpt><trkpt lat="44.5002920056657" lon="10.331790959274617"><ele>449.0</ele><time>2026-04-11T13:56:24.93Z</time></trkpt><trkpt lat="44.500389892567014" lon="10.331865424985622"><ele>449.0</ele><time>2026-04-11T13:56:25.93Z</time></trkpt><trkpt lat="44.50048998195413" lon="10.331934221219901"><ele>449.0</ele><time>2026-04-11T13:56:26.93Z</time></trkpt><trkpt lat="44.50059609516388" lon="10.331996904050644"><ele>449.0</ele><time>2026-04-11T13:56:27.93Z</time></trkpt><trkpt lat="44.50069386177757" lon="10.33204498077841"><ele>449.0</ele><time>2026-04-11T13:56:28.93Z</time></trkpt><trkpt lat="44.50079060587746" lon="10.332110439056725"><ele>451.0</ele><time>2026-04-11T13:56:29.93Z</time></trkpt><trkpt lat="44.50089371909529" lon="10.332183391478463"><ele>453.0</ele><time>2026-04-11T13:56:30.93Z</time></trkpt><trkpt lat="44.50098865633698" lon="10.332264981901544"><ele>455.0</ele><time>2026-04-11T13:56:31.93Z</time></trkpt><trkpt lat="44.50107835798052" lon="10.332335516213485"><ele>457.0</ele><time>2026-04-11T13:56:32.93Z</time></trkpt><trkpt lat="44.50117422775738" lon="10.332382837049865"><ele>459.0</ele><time>2026-04-11T13:56:33.93Z</time></trkpt><trkpt lat="44.50126683752328" lon="10.332410533002019"><ele>452.6</ele><time>2026-04-11T13:56:34.93Z</time></trkpt><trkpt lat="44.50133648183198" lon="10.332420334162057"><ele>446.2</ele><time>2026-04-11T13:56:35.93Z</time></trkpt><trkpt lat="44.50139312859458" lon="10.33246764552174"><ele>439.80000000000007</ele><time>2026-04-11T13:56:37.93Z</time></trkpt><trkpt lat="44.50134174312403" lon="10.332569546309982"><ele>433.40000000000003</ele><time>2026-04-11T13:56:39.93Z</time></trkpt><trkpt lat="44.50120253002335" lon="10.332571317333471"><ele>427.0</ele><time>2026-04-11T13:56:41.93Z</time></trkpt><trkpt lat="44.50111356669553" lon="10.332560871955982"><ele>427.0</ele><time>2026-04-11T13:56:42.93Z</time></trkpt><trkpt lat="44.50100844556317" lon="10.332534223549926"><ele>427.0</ele><time>2026-04-11T13:56:43.93Z</time></trkpt><trkpt lat="44.50088662113982" lon="10.332511175085042"><ele>427.0</ele><time>2026-04-11T13:56:44.93Z</time></trkpt><trkpt lat="44.50075230641333" lon="10.332496258899825"><ele>427.0</ele><time>2026-04-11T13:56:45.93Z</time></trkpt><trkpt lat="44.50062400249701" lon="10.332472226442857"><ele>427.0</ele><time>2026-04-11T13:56:46.93Z</time></trkpt><trkpt lat="44.5005032286742" lon="10.332455374615884"><ele>427.0</ele><time>2026-04-11T13:56:47.93Z</time></trkpt><trkpt lat="44.50038519251493" lon="10.33245233897744"><ele>427.0</ele><time>2026-04-11T13:56:48.93Z</time></trkpt><trkpt lat="44.500262476122295" lon="10.332453438362814"><ele>427.0</ele><time>2026-04-11T13:56:49.93Z</time></trkpt><trkpt lat="44.500134851910914" lon="10.33247678061175"><ele>424.0</ele><time>2026-04-11T13:56:50.93Z</time></trkpt><trkpt lat="44.500000826308664" lon="10.332518642848518"><ele>421.0</ele><time>2026-04-11T13:56:51.93Z</time></trkpt><trkpt lat="44.49987864204182" lon="10.33253525904288"><ele>418.0</ele><time>2026-04-11T13:56:52.93Z</time></trkpt><trkpt lat="44.499768993226915" lon="10.332543919912927"><ele>415.0</ele><time>2026-04-11T13:56:53.93Z</time></trkpt><trkpt lat="44.49967048175387" lon="10.332573188878897"><ele>413.8</ele><time>2026-04-11T13:56:54.93Z</time></trkpt><trkpt lat="44.49958002165327" lon="10.332632255153259"><ele>412.6</ele><time>2026-04-11T13:56:55.93Z</time></trkpt><trkpt lat="44.499500425778535" lon="10.332747470440792"><ele>411.4</ele><time>2026-04-11T13:56:56.93Z</time></trkpt><trkpt lat="44.49942057661186" lon="10.332886809645009"><ele>410.2</ele><time>2026-04-11T13:56:57.93Z</time></trkpt><trkpt lat="44.49934691119233" lon="10.332984191539902"><ele>409.0</ele><time>2026-04-11T13:56:58.93Z</time></trkpt><trkpt lat="44.49927523562219" lon="10.333060326135525"><ele>409.0</ele><time>2026-04-11T13:56:59.93Z</time></trkpt><trkpt lat="44.49919637462815" lon="10.33310628611192"><ele>409.0</ele><time>2026-04-11T13:57:00.93Z</time></trkpt><trkpt lat="44.49910963121964" lon="10.333088346572499"><ele>409.0</ele><time>2026-04-11T13:57:01.93Z</time></trkpt><trkpt lat="44.49902355143871" lon="10.333039316052131"><ele>409.0</ele><time>2026-04-11T13:57:02.93Z</time></trkpt><trkpt lat="44.498946575159536" lon="10.332937307652603"><ele>409.0</ele><time>2026-04-11T13:57:03.93Z</time></trkpt><trkpt lat="44.49887557943983" lon="10.332832660770276"><ele>409.00000000000006</ele><time>2026-04-11T13:57:04.93Z</time></trkpt><trkpt lat="44.49881386516546" lon="10.332752783566562"><ele>409.0</ele><time>2026-04-11T13:57:05.93Z</time></trkpt><trkpt lat="44.49875229832351" lon="10.332684854699357"><ele>409.0</ele><time>2026-04-11T13:57:06.93Z</time></trkpt><trkpt lat="44.49868373395283" lon="10.332669966845645"><ele>409.0</ele><time>2026-04-11T13:57:07.93Z</time></trkpt><trkpt lat="44.498614047937785" lon="10.332732432551408"><ele>409.00000000000006</ele><time>2026-04-11T13:57:08.93Z</time></trkpt><trkpt lat="44.49856966797357" lon="10.332831849979332"><ele>409.0</ele><time>2026-04-11T13:57:09.93Z</time></trkpt><trkpt lat="44.49856353776225" lon="10.332965563966285"><ele>405.4</ele><time>2026-04-11T13:57:10.931Z</time></trkpt><trkpt lat="44.498595757647486" lon="10.333094115064615"><ele>401.79999999999995</ele><time>2026-04-11T13:57:11.931Z</time></trkpt><trkpt lat="44.49864668782407" lon="10.333213683854044"><ele>398.20000000000005</ele><time>2026-04-11T13:57:12.931Z</time></trkpt><trkpt lat="44.49870809826862" lon="10.333324048743021"><ele>394.6</ele><time>2026-04-11T13:57:13.931Z</time></trkpt><trkpt lat="44.49877923357468" lon="10.333443435077532"><ele>391.0</ele><time>2026-04-11T13:57:14.931Z</time></trkpt><trkpt lat="44.49884955358051" lon="10.333551831213995"><ele>391.0</ele><time>2026-04-11T13:57:15.931Z</time></trkpt><trkpt lat="44.498934756864536" lon="10.333663462926829"><ele>391.0</ele><time>2026-04-11T13:57:16.931Z</time></trkpt><trkpt lat="44.499010162040065" lon="10.333762564060617"><ele>391.0</ele><time>2026-04-11T13:57:17.931Z</time></trkpt><trkpt lat="44.49908263413111" lon="10.33384966231915"><ele>391.0</ele><time>2026-04-11T13:57:18.931Z</time></trkpt><trkpt lat="44.499145775347465" lon="10.333902324912822"><ele>391.0</ele><time>2026-04-11T13:57:19.931Z</time></trkpt><trkpt lat="44.499211161508576" lon="10.333925653776879"><ele>386.20000000000005</ele><time>2026-04-11T13:57:20.931Z</time></trkpt><trkpt lat="44.49929705336478" lon="10.333933802736333"><ele>381.40000000000003</ele><time>2026-04-11T13:57:21.931Z</time></trkpt><trkpt lat="44.499393653421315" lon="10.333915949542153"><ele>376.6</ele><time>2026-04-11T13:57:22.931Z</time></trkpt><trkpt lat="44.49949074736946" lon="10.333908897837054"><ele>371.8</ele><time>2026-04-11T13:57:23.931Z</time></trkpt><trkpt lat="44.49957646349957" lon="10.333918257817405"><ele>367.0</ele><time>2026-04-11T13:57:24.931Z</time></trkpt><trkpt lat="44.499659124751396" lon="10.333952301966976"><ele>367.0</ele><time>2026-04-11T13:57:25.931Z</time></trkpt><trkpt lat="44.499728630372076" lon="10.333977953836703"><ele>367.0</ele><time>2026-04-11T13:57:26.931Z</time></trkpt><trkpt lat="44.499786441739126" lon="10.334013346924097"><ele>367.0</ele><time>2026-04-11T13:57:27.931Z</time></trkpt><trkpt lat="44.499813291215624" lon="10.33411352789535"><ele>367.0</ele><time>2026-04-11T13:57:29.931Z</time></trkpt><trkpt lat="44.49974732573827" lon="10.334200451036413"><ele>367.0</ele><time>2026-04-11T13:57:31.931Z</time></trkpt><trkpt lat="44.499609352661864" lon="10.334240356248786"><ele>367.0</ele><time>2026-04-11T13:57:33.931Z</time></trkpt><trkpt lat="44.49953334436626" lon="10.334271459890426"><ele>366.8</ele><time>2026-04-11T13:57:34.931Z</time></trkpt><trkpt lat="44.49944492853472" lon="10.33428922304616"><ele>366.6</ele><time>2026-04-11T13:57:35.931Z</time></trkpt><trkpt lat="44.499339325846144" lon="10.334307753395574"><ele>366.40000000000003</ele><time>2026-04-11T13:57:36.931Z</time></trkpt><trkpt lat="44.499226311764076" lon="10.334314298376844"><ele>366.20000000000005</ele><time>2026-04-11T13:57:37.931Z</time></trkpt><trkpt lat="44.49910033549023" lon="10.334302732550613"><ele>366.0</ele><time>2026-04-11T13:57:38.931Z</time></trkpt><trkpt lat="44.4989682293252" lon="10.334285162450326"><ele>366.0</ele><time>2026-04-11T13:57:39.931Z</time></trkpt><trkpt lat="44.498828533204886" lon="10.334267240713764"><ele>366.0</ele><time>2026-04-11T13:57:40.931Z</time></trkpt><trkpt lat="44.49870794112788" lon="10.334254044116529"><ele>366.0</ele><time>2026-04-11T13:57:41.931Z</time></trkpt><trkpt lat="44.498589814185635" lon="10.334244065091339"><ele>366.0</ele><time>2026-04-11T13:57:42.929Z</time></trkpt><trkpt lat="44.49847392581354" lon="10.334232523224946"><ele>364.25</ele><time>2026-04-11T13:57:43.929Z</time></trkpt><trkpt lat="44.49835607236824" lon="10.334216310265072"><ele>362.5</ele><time>2026-04-11T13:57:44.929Z</time></trkpt><trkpt lat="44.498237679729314" lon="10.3341989667769"><ele>360.75</ele><time>2026-04-11T13:57:45.93Z</time></trkpt><trkpt lat="44.498118770941964" lon="10.334184799041505"><ele>359.0</ele><time>2026-04-11T13:57:46.929Z</time></trkpt><trkpt lat="44.49799923568716" lon="10.33416875418033"><ele>356.5</ele><time>2026-04-11T13:57:47.929Z</time></trkpt><trkpt lat="44.49788161779666" lon="10.334157831729405"><ele>354.0</ele><time>2026-04-11T13:57:48.929Z</time></trkpt><trkpt lat="44.49776725043165" lon="10.334143426121646"><ele>351.5</ele><time>2026-04-11T13:57:49.93Z</time></trkpt><trkpt lat="44.497658240732655" lon="10.334122724996524"><ele>349.0</ele><time>2026-04-11T13:57:50.93Z</time></trkpt><trkpt lat="44.49754614789788" lon="10.33408076172173"><ele>349.0</ele><time>2026-04-11T13:57:51.929Z</time></trkpt><trkpt lat="44.49743161025017" lon="10.334004261843765"><ele>349.0</ele><time>2026-04-11T13:57:52.929Z</time></trkpt><trkpt lat="44.49733007150759" lon="10.333897414529876"><ele>349.0</ele><time>2026-04-11T13:57:53.929Z</time></trkpt><trkpt lat="44.49724050027703" lon="10.333806217057147"><ele>349.0</ele><time>2026-04-11T13:57:54.929Z</time></trkpt><trkpt lat="44.49713897857809" lon="10.3337543970852"><ele>349.79999999999995</ele><time>2026-04-11T13:57:55.929Z</time></trkpt><trkpt lat="44.4970287999372" lon="10.333733686511804"><ele>350.59999999999997</ele><time>2026-04-11T13:57:56.929Z</time></trkpt><trkpt lat="44.496926349761836" lon="10.33373982646173"><ele>351.4</ele><time>2026-04-11T13:57:57.929Z</time></trkpt><trkpt lat="44.49683265803938" lon="10.333723309514317"><ele>352.2</ele><time>2026-04-11T13:57:58.929Z</time></trkpt><trkpt lat="44.49675226990471" lon="10.333664403632769"><ele>353.0</ele><time>2026-04-11T13:57:59.929Z</time></trkpt><trkpt lat="44.496691028803944" lon="10.33354896250228"><ele>353.0</ele><time>2026-04-11T13:58:00.929Z</time></trkpt><trkpt lat="44.49667220127189" lon="10.333385658452608"><ele>353.0</ele><time>2026-04-11T13:58:01.929Z</time></trkpt><trkpt lat="44.49669122653504" lon="10.333214239261881"><ele>353.0</ele><time>2026-04-11T13:58:02.929Z</time></trkpt><trkpt lat="44.496720398279066" lon="10.333049457132661"><ele>353.0</ele><time>2026-04-11T13:58:03.929Z</time></trkpt><trkpt lat="44.496735600001706" lon="10.332899372643993"><ele>354.0</ele><time>2026-04-11T13:58:04.929Z</time></trkpt><trkpt lat="44.49673816105299" lon="10.332754295896107"><ele>355.0</ele><time>2026-04-11T13:58:05.929Z</time></trkpt><trkpt lat="44.49670440159906" lon="10.332611704793598"><ele>356.0</ele><time>2026-04-11T13:58:06.929Z</time></trkpt><trkpt lat="44.49664274228966" lon="10.332469967646759"><ele>357.0</ele><time>2026-04-11T13:58:07.929Z</time></trkpt><trkpt lat="44.496571196204876" lon="10.332365034351724"><ele>358.0</ele><time>2026-04-11T13:58:08.929Z</time></trkpt><trkpt lat="44.496463487397556" lon="10.332277780908063"><ele>361.0</ele><time>2026-04-11T13:58:09.929Z</time></trkpt><trkpt lat="44.4963458328395" lon="10.33220087889428"><ele>364.0</ele><time>2026-04-11T13:58:10.929Z</time></trkpt><trkpt lat="44.496236951310784" lon="10.332113726790674"><ele>367.0</ele><time>2026-04-11T13:58:11.929Z</time></trkpt><trkpt lat="44.49614272982999" lon="10.332038494978137"><ele>370.0</ele><time>2026-04-11T13:58:12.929Z</time></trkpt><trkpt lat="44.496057244002394" lon="10.331948150016222"><ele>367.0</ele><time>2026-04-11T13:58:13.929Z</time></trkpt><trkpt lat="44.49597615357868" lon="10.33182597836612"><ele>364.0</ele><time>2026-04-11T13:58:14.929Z</time></trkpt><trkpt lat="44.49590925287346" lon="10.331667721586633"><ele>361.0</ele><time>2026-04-11T13:58:15.929Z</time></trkpt><trkpt lat="44.495858598460664" lon="10.331479167256484"><ele>358.0</ele><time>2026-04-11T13:58:16.929Z</time></trkpt><trkpt lat="44.49580352833614" lon="10.331294973891985"><ele>358.0</ele><time>2026-04-11T13:58:17.929Z</time></trkpt><trkpt lat="44.495742903817835" lon="10.331115078070152"><ele>358.0</ele><time>2026-04-11T13:58:18.929Z</time></trkpt><trkpt lat="44.49569034222211" lon="10.33094532671244"><ele>358.0</ele><time>2026-04-11T13:58:19.929Z</time></trkpt><trkpt lat="44.49562690198701" lon="10.330759499271059"><ele>358.0</ele><time>2026-04-11T13:58:20.929Z</time></trkpt><trkpt lat="44.49557068528883" lon="10.33058135904098"><ele>361.25</ele><time>2026-04-11T13:58:21.929Z</time></trkpt><trkpt lat="44.49550680380517" lon="10.330403805560133"><ele>364.5</ele><time>2026-04-11T13:58:22.929Z</time></trkpt><trkpt lat="44.49544456317294" lon="10.330244961630752"><ele>367.75</ele><time>2026-04-11T13:58:23.929Z</time></trkpt><trkpt lat="44.49537606293955" lon="10.330078539890515"><ele>371.0</ele><time>2026-04-11T13:58:24.929Z</time></trkpt><trkpt lat="44.49532561674847" lon="10.329909789535716"><ele>364.25</ele><time>2026-04-11T13:58:25.929Z</time></trkpt><trkpt lat="44.495285531641635" lon="10.329742574615176"><ele>357.5</ele><time>2026-04-11T13:58:26.929Z</time></trkpt><trkpt lat="44.495245764649546" lon="10.329593035717215"><ele>350.75</ele><time>2026-04-11T13:58:27.929Z</time></trkpt><trkpt lat="44.49520150440591" lon="10.329433256660877"><ele>344.0</ele><time>2026-04-11T13:58:28.929Z</time></trkpt><trkpt lat="44.49515935243495" lon="10.3292777685498"><ele>344.0</ele><time>2026-04-11T13:58:29.929Z</time></trkpt><trkpt lat="44.49511558796249" lon="10.32911557523419"><ele>344.0</ele><time>2026-04-11T13:58:30.929Z</time></trkpt><trkpt lat="44.49505659613483" lon="10.328965182498465"><ele>344.0</ele><time>2026-04-11T13:58:31.929Z</time></trkpt><trkpt lat="44.495002617454155" lon="10.328830686946858"><ele>344.0</ele><time>2026-04-11T13:58:32.929Z</time></trkpt><trkpt lat="44.49492977965267" lon="10.328709922001195"><ele>344.0</ele><time>2026-04-11T13:58:33.929Z</time></trkpt><trkpt lat="44.494823970244866" lon="10.328610297254796"><ele>344.0</ele><time>2026-04-11T13:58:34.929Z</time></trkpt><trkpt lat="44.49468813533419" lon="10.328541297774812"><ele>344.0</ele><time>2026-04-11T13:58:35.929Z</time></trkpt><trkpt lat="44.49455260397013" lon="10.328488896425778"><ele>344.0</ele><time>2026-04-11T13:58:36.929Z</time></trkpt><trkpt lat="44.494424394825806" lon="10.328448575610212"><ele>344.0</ele><time>2026-04-11T13:58:37.929Z</time></trkpt><trkpt lat="44.494287023674445" lon="10.328415133352904"><ele>344.0</ele><time>2026-04-11T13:58:38.929Z</time></trkpt><trkpt lat="44.49415276055331" lon="10.328385337076849"><ele>344.0</ele><time>2026-04-11T13:58:39.929Z</time></trkpt><trkpt lat="44.49402383864656" lon="10.32837004870057"><ele>344.0</ele><time>2026-04-11T13:58:40.929Z</time></trkpt><trkpt lat="44.49389083830067" lon="10.328385472116084"><ele>344.0</ele><time>2026-04-11T13:58:41.929Z</time></trkpt><trkpt lat="44.49376993947922" lon="10.328404919507621"><ele>344.0</ele><time>2026-04-11T13:58:42.929Z</time></trkpt><trkpt lat="44.49366501045386" lon="10.328435169920676"><ele>344.0</ele><time>2026-04-11T13:58:43.929Z</time></trkpt><trkpt lat="44.49356936618274" lon="10.328474781690577"><ele>344.0</ele><time>2026-04-11T13:58:44.929Z</time></trkpt><trkpt lat="44.49348788409725" lon="10.328524089826745"><ele>344.0</ele><time>2026-04-11T13:58:45.929Z</time></trkpt><trkpt lat="44.49342739352198" lon="10.32860547634912"><ele>344.2</ele><time>2026-04-11T13:58:46.929Z</time></trkpt><trkpt lat="44.493379042629066" lon="10.32871010650123"><ele>344.4</ele><time>2026-04-11T13:58:47.929Z</time></trkpt><trkpt lat="44.493361296333184" lon="10.328838356772323"><ele>344.6</ele><time>2026-04-11T13:58:48.93Z</time></trkpt><trkpt lat="44.49337064817866" lon="10.328968793833804"><ele>344.8</ele><time>2026-04-11T13:58:49.93Z</time></trkpt><trkpt lat="44.4933988230199" lon="10.32912697103072"><ele>345.0</ele><time>2026-04-11T13:58:50.93Z</time></trkpt><trkpt lat="44.49341024682584" lon="10.329270975180611"><ele>340.0</ele><time>2026-04-11T13:58:51.93Z</time></trkpt><trkpt lat="44.4934235308205" lon="10.329426417376828"><ele>335.0</ele><time>2026-04-11T13:58:52.93Z</time></trkpt><trkpt lat="44.49343488261524" lon="10.329594652876699"><ele>330.0</ele><time>2026-04-11T13:58:53.93Z</time></trkpt><trkpt lat="44.49344365821854" lon="10.329767797199459"><ele>325.0</ele><time>2026-04-11T13:58:54.93Z</time></trkpt><trkpt lat="44.49345579094585" lon="10.329953438667872"><ele>324.8</ele><time>2026-04-11T13:58:55.93Z</time></trkpt><trkpt lat="44.493465365850255" lon="10.330118964833222"><ele>324.6</ele><time>2026-04-11T13:58:56.93Z</time></trkpt><trkpt lat="44.493475513825075" lon="10.330266748826432"><ele>324.4</ele><time>2026-04-11T13:58:57.93Z</time></trkpt><trkpt lat="44.49348664114265" lon="10.33040321126675"><ele>324.2</ele><time>2026-04-11T13:58:58.93Z</time></trkpt><trkpt lat="44.49350956239157" lon="10.3305418257461"><ele>324.0</ele><time>2026-04-11T13:58:59.93Z</time></trkpt><trkpt lat="44.49354089764546" lon="10.330675990123925"><ele>324.0</ele><time>2026-04-11T13:59:00.93Z</time></trkpt><trkpt lat="44.49358054718914" lon="10.33082647310571"><ele>324.0</ele><time>2026-04-11T13:59:01.93Z</time></trkpt><trkpt lat="44.49362353636909" lon="10.330995373823244"><ele>324.0</ele><time>2026-04-11T13:59:02.93Z</time></trkpt><trkpt lat="44.49366705662538" lon="10.331173361002806"><ele>324.0</ele><time>2026-04-11T13:59:03.93Z</time></trkpt><trkpt lat="44.49371005173156" lon="10.331342857229608"><ele>327.2</ele><time>2026-04-11T13:59:04.93Z</time></trkpt><trkpt lat="44.493731977609755" lon="10.331482179556941"><ele>330.4</ele><time>2026-04-11T13:59:05.93Z</time></trkpt><trkpt lat="44.493739385167956" lon="10.331617914835238"><ele>333.6</ele><time>2026-04-11T13:59:06.93Z</time></trkpt><trkpt lat="44.49371844202564" lon="10.33175579556165"><ele>336.8</ele><time>2026-04-11T13:59:07.93Z</time></trkpt><trkpt lat="44.493681244130926" lon="10.331883763229765"><ele>340.0</ele><time>2026-04-11T13:59:08.93Z</time></trkpt><trkpt lat="44.49363043007691" lon="10.332024024411956"><ele>340.0</ele><time>2026-04-11T13:59:09.93Z</time></trkpt><trkpt lat="44.49357864397032" lon="10.332180780863359"><ele>340.0</ele><time>2026-04-11T13:59:10.93Z</time></trkpt><trkpt lat="44.49354156463482" lon="10.332345907016055"><ele>340.0</ele><time>2026-04-11T13:59:11.93Z</time></trkpt><trkpt lat="44.49351398674775" lon="10.332508373386872"><ele>340.0</ele><time>2026-04-11T13:59:12.93Z</time></trkpt><trkpt lat="44.49349319146234" lon="10.332666310371366"><ele>344.5</ele><time>2026-04-11T13:59:13.93Z</time></trkpt><trkpt lat="44.4934818906713" lon="10.332837706275221"><ele>349.0</ele><time>2026-04-11T13:59:14.93Z</time></trkpt><trkpt lat="44.493479223335356" lon="10.333009295930049"><ele>353.5</ele><time>2026-04-11T13:59:15.93Z</time></trkpt><trkpt lat="44.493480381419346" lon="10.33318107603218"><ele>358.0</ele><time>2026-04-11T13:59:16.93Z</time></trkpt><trkpt lat="44.4934695137651" lon="10.333343175581927"><ele>358.5</ele><time>2026-04-11T13:59:17.93Z</time></trkpt><trkpt lat="44.4934405974133" lon="10.333495153812377"><ele>359.0</ele><time>2026-04-11T13:59:18.93Z</time></trkpt><trkpt lat="44.49340050809824" lon="10.333647525813138"><ele>359.5</ele><time>2026-04-11T13:59:19.93Z</time></trkpt><trkpt lat="44.49338913075433" lon="10.333814582439384"><ele>360.0</ele><time>2026-04-11T13:59:20.93Z</time></trkpt><trkpt lat="44.49341160410112" lon="10.33398387104887"><ele>361.25</ele><time>2026-04-11T13:59:21.93Z</time></trkpt><trkpt lat="44.49343998044311" lon="10.334156591790242"><ele>362.5</ele><time>2026-04-11T13:59:22.93Z</time></trkpt><trkpt lat="44.49346028491617" lon="10.33434228053737"><ele>363.75</ele><time>2026-04-11T13:59:23.93Z</time></trkpt><trkpt lat="44.49345964063356" lon="10.334527188146378"><ele>365.0</ele><time>2026-04-11T13:59:24.93Z</time></trkpt><trkpt lat="44.4934690836919" lon="10.33470271092397"><ele>366.2</ele><time>2026-04-11T13:59:25.93Z</time></trkpt><trkpt lat="44.493483448957726" lon="10.334868262275062"><ele>367.4</ele><time>2026-04-11T13:59:26.93Z</time></trkpt><trkpt lat="44.49349623966903" lon="10.335016630076144"><ele>368.6</ele><time>2026-04-11T13:59:27.93Z</time></trkpt><trkpt lat="44.49351746994087" lon="10.335164917221734"><ele>369.8</ele><time>2026-04-11T13:59:28.93Z</time></trkpt><trkpt lat="44.49355963619037" lon="10.335312373912927"><ele>371.0</ele><time>2026-04-11T13:59:29.93Z</time></trkpt><trkpt lat="44.49361795745945" lon="10.335464943786604"><ele>373.25</ele><time>2026-04-11T13:59:30.93Z</time></trkpt><trkpt lat="44.49368712486988" lon="10.335631759929012"><ele>375.5</ele><time>2026-04-11T13:59:31.93Z</time></trkpt><trkpt lat="44.49375589834717" lon="10.335801422032713"><ele>377.75</ele><time>2026-04-11T13:59:32.93Z</time></trkpt><trkpt lat="44.4938135530147" lon="10.335951435368685"><ele>380.0</ele><time>2026-04-11T13:59:33.93Z</time></trkpt><trkpt lat="44.49385599766372" lon="10.336082854191629"><ele>376.33333333333337</ele><time>2026-04-11T13:59:34.93Z</time></trkpt><trkpt lat="44.493888682966634" lon="10.336190502885449"><ele>372.6666666666667</ele><time>2026-04-11T13:59:35.93Z</time></trkpt><trkpt lat="44.49391096323802" lon="10.336288352043592"><ele>369.0</ele><time>2026-04-11T13:59:36.93Z</time></trkpt><trkpt lat="44.49392754089401" lon="10.336396636633232"><ele>365.3333333333333</ele><time>2026-04-11T13:59:37.93Z</time></trkpt><trkpt lat="44.493929691471095" lon="10.336515536867703"><ele>361.66666666666663</ele><time>2026-04-11T13:59:38.93Z</time></trkpt><trkpt lat="44.49395205151096" lon="10.336619365299988"><ele>358.0</ele><time>2026-04-11T13:59:39.93Z</time></trkpt><trkpt lat="44.49400788294768" lon="10.336692031560917"><ele>358.0</ele><time>2026-04-11T13:59:40.93Z</time></trkpt><trkpt lat="44.49407600211707" lon="10.33673965082761"><ele>358.0</ele><time>2026-04-11T13:59:41.93Z</time></trkpt><trkpt lat="44.49413867321059" lon="10.336776992182768"><ele>358.0</ele><time>2026-04-11T13:59:42.93Z</time></trkpt><trkpt lat="44.494212068489524" lon="10.336912385680371"><ele>358.0</ele><time>2026-04-11T13:59:44.93Z</time></trkpt><trkpt lat="44.49421552158851" lon="10.337003629782156"><ele>358.0</ele><time>2026-04-11T13:59:45.93Z</time></trkpt><trkpt lat="44.494187568916374" lon="10.337126934773444"><ele>358.0</ele><time>2026-04-11T13:59:47.93Z</time></trkpt><trkpt lat="44.49412099932078" lon="10.337148165154646"><ele>358.0</ele><time>2026-04-11T13:59:49.929Z</time></trkpt><trkpt lat="44.49403610741056" lon="10.337096171817405"><ele>358.0</ele><time>2026-04-11T13:59:51.929Z</time></trkpt><trkpt lat="44.49396835792923" lon="10.337029288838016"><ele>358.0</ele><time>2026-04-11T13:59:52.929Z</time></trkpt><trkpt lat="44.49391392211136" lon="10.336932101003258"><ele>358.0</ele><time>2026-04-11T13:59:53.929Z</time></trkpt><trkpt lat="44.49387456000063" lon="10.33680978552524"><ele>358.0</ele><time>2026-04-11T13:59:54.928Z</time></trkpt><trkpt lat="44.49385795776969" lon="10.336668267505015"><ele>358.0</ele><time>2026-04-11T13:59:55.929Z</time></trkpt><trkpt lat="44.493850555173715" lon="10.33652512177887"><ele>358.0</ele><time>2026-04-11T13:59:56.929Z</time></trkpt><trkpt lat="44.493840001898754" lon="10.336397334597748"><ele>358.0</ele><time>2026-04-11T13:59:57.928Z</time></trkpt><trkpt lat="44.49381063892447" lon="10.336263508302553"><ele>358.0</ele><time>2026-04-11T13:59:58.928Z</time></trkpt><trkpt lat="44.49376228835326" lon="10.336134965641266"><ele>358.0</ele><time>2026-04-11T13:59:59.928Z</time></trkpt><trkpt lat="44.493682513326966" lon="10.33600874337394"><ele>361.25</ele><time>2026-04-11T14:00:00.929Z</time></trkpt><trkpt lat="44.49357195092183" lon="10.335863922889322"><ele>364.5</ele><time>2026-04-11T14:00:01.929Z</time></trkpt><trkpt lat="44.493499009459384" lon="10.335702185317263"><ele>367.75</ele><time>2026-04-11T14:00:02.929Z</time></trkpt><trkpt lat="44.49342121888796" lon="10.335518362890522"><ele>371.0</ele><time>2026-04-11T14:00:03.929Z</time></trkpt><trkpt lat="44.49335729308755" lon="10.335345231864778"><ele>371.0</ele><time>2026-04-11T14:00:04.929Z</time></trkpt><trkpt lat="44.49329652860661" lon="10.335177149018287"><ele>371.0</ele><time>2026-04-11T14:00:05.929Z</time></trkpt><trkpt lat="44.49325066937546" lon="10.335032678684426"><ele>371.0</ele><time>2026-04-11T14:00:06.929Z</time></trkpt><trkpt lat="44.493208780068365" lon="10.334889589135427"><ele>371.0</ele><time>2026-04-11T14:00:07.929Z</time></trkpt><trkpt lat="44.493188294028364" lon="10.334733717858565"><ele>369.8</ele><time>2026-04-11T14:00:08.929Z</time></trkpt><trkpt lat="44.49317865972012" lon="10.334583478072007"><ele>368.6</ele><time>2026-04-11T14:00:09.929Z</time></trkpt><trkpt lat="44.493175226681444" lon="10.334454007143481"><ele>367.4</ele><time>2026-04-11T14:00:10.929Z</time></trkpt><trkpt lat="44.493171634901756" lon="10.334330645709894"><ele>366.2</ele><time>2026-04-11T14:00:11.929Z</time></trkpt><trkpt lat="44.49315737370865" lon="10.334208721542927"><ele>365.0</ele><time>2026-04-11T14:00:12.929Z</time></trkpt><trkpt lat="44.49311484924965" lon="10.33409828674947"><ele>365.0</ele><time>2026-04-11T14:00:13.929Z</time></trkpt><trkpt lat="44.493054202862915" lon="10.333989864695637"><ele>365.0</ele><time>2026-04-11T14:00:14.929Z</time></trkpt><trkpt lat="44.492991113407435" lon="10.333882261508908"><ele>365.0</ele><time>2026-04-11T14:00:15.929Z</time></trkpt><trkpt lat="44.492939896540456" lon="10.333766903056233"><ele>365.0</ele><time>2026-04-11T14:00:16.929Z</time></trkpt><trkpt lat="44.49292278238872" lon="10.333640793062713"><ele>365.0</ele><time>2026-04-11T14:00:17.929Z</time></trkpt><trkpt lat="44.49294172667849" lon="10.333478624026398"><ele>364.0</ele><time>2026-04-11T14:00:18.929Z</time></trkpt><trkpt lat="44.49293026178465" lon="10.333336561061172"><ele>363.0</ele><time>2026-04-11T14:00:19.929Z</time></trkpt><trkpt lat="44.49289783512732" lon="10.333206033792774"><ele>362.0</ele><time>2026-04-11T14:00:20.929Z</time></trkpt><trkpt lat="44.492824182550045" lon="10.333106792392751"><ele>361.0</ele><time>2026-04-11T14:00:21.929Z</time></trkpt><trkpt lat="44.49274023476566" lon="10.333043270130327"><ele>360.0</ele><time>2026-04-11T14:00:22.929Z</time></trkpt><trkpt lat="44.49263784532424" lon="10.333034257746055"><ele>359.25</ele><time>2026-04-11T14:00:23.929Z</time></trkpt><trkpt lat="44.49253479727949" lon="10.33305330690348"><ele>358.5</ele><time>2026-04-11T14:00:24.929Z</time></trkpt><trkpt lat="44.49241952579559" lon="10.333091781258673"><ele>357.75</ele><time>2026-04-11T14:00:25.929Z</time></trkpt><trkpt lat="44.492282938119196" lon="10.333140524864069"><ele>357.0</ele><time>2026-04-11T14:00:26.929Z</time></trkpt><trkpt lat="44.492174384675515" lon="10.333165466043047"><ele>361.8</ele><time>2026-04-11T14:00:27.929Z</time></trkpt><trkpt lat="44.49208882271418" lon="10.333187464605281"><ele>366.6</ele><time>2026-04-11T14:00:28.929Z</time></trkpt><trkpt lat="44.49201391598445" lon="10.333250483047006"><ele>371.40000000000003</ele><time>2026-04-11T14:00:29.929Z</time></trkpt><trkpt lat="44.49194326321948" lon="10.333354613652757"><ele>376.20000000000005</ele><time>2026-04-11T14:00:30.929Z</time></trkpt><trkpt lat="44.49189014031934" lon="10.333465618288434"><ele>381.0</ele><time>2026-04-11T14:00:31.929Z</time></trkpt><trkpt lat="44.49180067595284" lon="10.333542326335719"><ele>381.0</ele><time>2026-04-11T14:00:32.929Z</time></trkpt><trkpt lat="44.49168920462967" lon="10.333571512250268"><ele>381.0</ele><time>2026-04-11T14:00:33.929Z</time></trkpt><trkpt lat="44.49156462668038" lon="10.333559815437466"><ele>381.0</ele><time>2026-04-11T14:00:34.929Z</time></trkpt><trkpt lat="44.49144139077179" lon="10.333550280993553"><ele>381.0</ele><time>2026-04-11T14:00:35.929Z</time></trkpt><trkpt lat="44.49132214848038" lon="10.333558094055531"><ele>383.0</ele><time>2026-04-11T14:00:36.929Z</time></trkpt><trkpt lat="44.491212949225556" lon="10.3335768139353"><ele>385.0</ele><time>2026-04-11T14:00:37.929Z</time></trkpt><trkpt lat="44.49109856242841" lon="10.333577218121661"><ele>387.0</ele><time>2026-04-11T14:00:38.929Z</time></trkpt><trkpt lat="44.49098328175724" lon="10.333558051238883"><ele>389.0</ele><time>2026-04-11T14:00:39.929Z</time></trkpt><trkpt lat="44.49086634789597" lon="10.333515890642204"><ele>389.0</ele><time>2026-04-11T14:00:40.929Z</time></trkpt><trkpt lat="44.490747034321444" lon="10.333476756955749"><ele>389.0</ele><time>2026-04-11T14:00:41.929Z</time></trkpt><trkpt lat="44.490634131971554" lon="10.333437713312213"><ele>389.0</ele><time>2026-04-11T14:00:42.929Z</time></trkpt><trkpt lat="44.49052295419857" lon="10.333389308758028"><ele>389.0</ele><time>2026-04-11T14:00:43.929Z</time></trkpt><trkpt lat="44.49040194072965" lon="10.33334383329797"><ele>394.5</ele><time>2026-04-11T14:00:44.929Z</time></trkpt><trkpt lat="44.49028032044001" lon="10.333281573700669"><ele>400.0</ele><time>2026-04-11T14:00:45.929Z</time></trkpt><trkpt lat="44.49016435556356" lon="10.333224632188214"><ele>405.5</ele><time>2026-04-11T14:00:46.929Z</time></trkpt><trkpt lat="44.490058558058735" lon="10.33316879534858"><ele>411.0</ele><time>2026-04-11T14:00:47.929Z</time></trkpt><trkpt lat="44.48995518070153" lon="10.333114544369842"><ele>411.0</ele><time>2026-04-11T14:00:48.929Z</time></trkpt><trkpt lat="44.48985519430391" lon="10.333060654014249"><ele>411.0</ele><time>2026-04-11T14:00:49.929Z</time></trkpt><trkpt lat="44.48975032937038" lon="10.332977150465037"><ele>411.0</ele><time>2026-04-11T14:00:50.929Z</time></trkpt><trkpt lat="44.48964481314356" lon="10.332860269530723"><ele>411.0</ele><time>2026-04-11T14:00:51.929Z</time></trkpt><trkpt lat="44.48955775144186" lon="10.332732693224472"><ele>409.4</ele><time>2026-04-11T14:00:52.929Z</time></trkpt><trkpt lat="44.4894760461047" lon="10.332619328905224"><ele>407.8</ele><time>2026-04-11T14:00:53.929Z</time></trkpt><trkpt lat="44.489403903324465" lon="10.332506873729624"><ele>406.2</ele><time>2026-04-11T14:00:54.929Z</time></trkpt><trkpt lat="44.48933977225918" lon="10.332409911616352"><ele>404.59999999999997</ele><time>2026-04-11T14:00:55.929Z</time></trkpt><trkpt lat="44.489274232424535" lon="10.332327035017274"><ele>403.0</ele><time>2026-04-11T14:00:56.929Z</time></trkpt><trkpt lat="44.489207667229344" lon="10.332265597407767"><ele>403.0</ele><time>2026-04-11T14:00:57.929Z</time></trkpt><trkpt lat="44.489129961050736" lon="10.332237309957812"><ele>403.0</ele><time>2026-04-11T14:00:58.929Z</time></trkpt><trkpt lat="44.489050429379226" lon="10.332257507345714"><ele>403.0</ele><time>2026-04-11T14:00:59.929Z</time></trkpt><trkpt lat="44.488966371785914" lon="10.332328069097672"><ele>403.0</ele><time>2026-04-11T14:01:00.929Z</time></trkpt><trkpt lat="44.488878532332244" lon="10.332435277055213"><ele>403.0</ele><time>2026-04-11T14:01:01.929Z</time></trkpt><trkpt lat="44.48880212472966" lon="10.33252696916596"><ele>401.59999999999997</ele><time>2026-04-11T14:01:02.929Z</time></trkpt><trkpt lat="44.488742233125535" lon="10.3326177862798"><ele>400.2</ele><time>2026-04-11T14:01:03.929Z</time></trkpt><trkpt lat="44.48870395153948" lon="10.332726588002092"><ele>398.8</ele><time>2026-04-11T14:01:04.929Z</time></trkpt><trkpt lat="44.488696065070506" lon="10.332866456474479"><ele>397.4</ele><time>2026-04-11T14:01:05.929Z</time></trkpt><trkpt lat="44.48870154958123" lon="10.333039176293964"><ele>396.0</ele><time>2026-04-11T14:01:06.929Z</time></trkpt><trkpt lat="44.48868123492596" lon="10.33321110594453"><ele>396.0</ele><time>2026-04-11T14:01:07.929Z</time></trkpt><trkpt lat="44.48864488052775" lon="10.333382853322947"><ele>396.0</ele><time>2026-04-11T14:01:08.929Z</time></trkpt><trkpt lat="44.48859797278502" lon="10.333539036572445"><ele>396.0</ele><time>2026-04-11T14:01:09.93Z</time></trkpt><trkpt lat="44.48854049128353" lon="10.333694557276123"><ele>396.0</ele><time>2026-04-11T14:01:10.93Z</time></trkpt><trkpt lat="44.48849065395576" lon="10.33384503683961"><ele>399.20000000000005</ele><time>2026-04-11T14:01:11.93Z</time></trkpt><trkpt lat="44.48843695363475" lon="10.333986699358716"><ele>402.40000000000003</ele><time>2026-04-11T14:01:12.93Z</time></trkpt><trkpt lat="44.488382587108134" lon="10.334132630876537"><ele>405.6</ele><time>2026-04-11T14:01:13.93Z</time></trkpt><trkpt lat="44.48833480445996" lon="10.334265477044767"><ele>408.8</ele><time>2026-04-11T14:01:14.93Z</time></trkpt><trkpt lat="44.48828530892112" lon="10.33438268462612"><ele>412.0</ele><time>2026-04-11T14:01:15.93Z</time></trkpt><trkpt lat="44.48824444548677" lon="10.33448612872985"><ele>412.0</ele><time>2026-04-11T14:01:16.93Z</time></trkpt><trkpt lat="44.48819898643075" lon="10.3345899470624"><ele>412.0</ele><time>2026-04-11T14:01:17.93Z</time></trkpt><trkpt lat="44.48811502450906" lon="10.334693431485267"><ele>412.0</ele><time>2026-04-11T14:01:18.93Z</time></trkpt><trkpt lat="44.48801374296454" lon="10.334760344668965"><ele>412.0</ele><time>2026-04-11T14:01:19.93Z</time></trkpt><trkpt lat="44.48789094148516" lon="10.334781780605542"><ele>412.0</ele><time>2026-04-11T14:01:20.93Z</time></trkpt><trkpt lat="44.48778516894817" lon="10.33481277667325"><ele>413.0</ele><time>2026-04-11T14:01:21.93Z</time></trkpt><trkpt lat="44.48769100939819" lon="10.334876986005264"><ele>414.0</ele><time>2026-04-11T14:01:22.93Z</time></trkpt><trkpt lat="44.487598113754025" lon="10.334966052550792"><ele>415.0</ele><time>2026-04-11T14:01:23.93Z</time></trkpt><trkpt lat="44.48751191331337" lon="10.335060364885384"><ele>416.0</ele><time>2026-04-11T14:01:24.93Z</time></trkpt><trkpt lat="44.487423360573686" lon="10.33515297443393"><ele>417.0</ele><time>2026-04-11T14:01:25.93Z</time></trkpt><trkpt lat="44.48733546715255" lon="10.335231940998892"><ele>417.0</ele><time>2026-04-11T14:01:26.93Z</time></trkpt><trkpt lat="44.48723604829018" lon="10.33528301930884"><ele>417.0</ele><time>2026-04-11T14:01:27.93Z</time></trkpt><trkpt lat="44.48712034925532" lon="10.335298783513638"><ele>417.0</ele><time>2026-04-11T14:01:28.93Z</time></trkpt><trkpt lat="44.48699657333392" lon="10.335283164119799"><ele>417.0</ele><time>2026-04-11T14:01:29.93Z</time></trkpt><trkpt lat="44.48687842298538" lon="10.335250679870505"><ele>417.5</ele><time>2026-04-11T14:01:30.93Z</time></trkpt><trkpt lat="44.48675647742629" lon="10.335209097533163"><ele>418.0</ele><time>2026-04-11T14:01:31.93Z</time></trkpt><trkpt lat="44.48664393494522" lon="10.3351902027163"><ele>418.5</ele><time>2026-04-11T14:01:32.93Z</time></trkpt><trkpt lat="44.48652619620268" lon="10.33516277594768"><ele>419.0</ele><time>2026-04-11T14:01:33.93Z</time></trkpt><trkpt lat="44.4864102911741" lon="10.335134928503903"><ele>419.0</ele><time>2026-04-11T14:01:34.93Z</time></trkpt><trkpt lat="44.4862932764768" lon="10.335110156736269"><ele>419.0</ele><time>2026-04-11T14:01:35.93Z</time></trkpt><trkpt lat="44.486177636417466" lon="10.335082009558146"><ele>419.0</ele><time>2026-04-11T14:01:36.93Z</time></trkpt><trkpt lat="44.48605905435149" lon="10.335058704723775"><ele>419.0</ele><time>2026-04-11T14:01:37.93Z</time></trkpt><trkpt lat="44.48594524835489" lon="10.33503547436766"><ele>420.75</ele><time>2026-04-11T14:01:38.93Z</time></trkpt><trkpt lat="44.48582933765443" lon="10.335000040080637"><ele>422.5</ele><time>2026-04-11T14:01:39.93Z</time></trkpt><trkpt lat="44.48571815840104" lon="10.334986457276901"><ele>424.25</ele><time>2026-04-11T14:01:40.93Z</time></trkpt><trkpt lat="44.485605184113155" lon="10.334991803637688"><ele>426.0</ele><time>2026-04-11T14:01:41.93Z</time></trkpt><trkpt lat="44.4854912234242" lon="10.335038915814424"><ele>425.0</ele><time>2026-04-11T14:01:42.93Z</time></trkpt><trkpt lat="44.485384030806856" lon="10.335104261240934"><ele>424.0</ele><time>2026-04-11T14:01:43.93Z</time></trkpt><trkpt lat="44.485292342241905" lon="10.33520064658732"><ele>423.0</ele><time>2026-04-11T14:01:44.93Z</time></trkpt><trkpt lat="44.48519773884528" lon="10.335271403014952"><ele>422.0</ele><time>2026-04-11T14:01:45.93Z</time></trkpt><trkpt lat="44.485094216912934" lon="10.33531645137687"><ele>421.0</ele><time>2026-04-11T14:01:46.93Z</time></trkpt><trkpt lat="44.48498971397398" lon="10.335318196588297"><ele>421.0</ele><time>2026-04-11T14:01:47.93Z</time></trkpt><trkpt lat="44.48488128167467" lon="10.335282702921928"><ele>421.0</ele><time>2026-04-11T14:01:48.93Z</time></trkpt><trkpt lat="44.48478352507889" lon="10.335239671703249"><ele>421.0</ele><time>2026-04-11T14:01:49.93Z</time></trkpt><trkpt lat="44.484692946737994" lon="10.335217121319577"><ele>421.0</ele><time>2026-04-11T14:01:50.93Z</time></trkpt><trkpt lat="44.48459930196138" lon="10.335224692891178"><ele>421.0</ele><time>2026-04-11T14:01:51.93Z</time></trkpt><trkpt lat="44.484501600931345" lon="10.335252109622182"><ele>422.0</ele><time>2026-04-11T14:01:52.93Z</time></trkpt><trkpt lat="44.484400082045305" lon="10.335306942076967"><ele>423.0</ele><time>2026-04-11T14:01:53.93Z</time></trkpt><trkpt lat="44.48429651214937" lon="10.335357234426848"><ele>424.0</ele><time>2026-04-11T14:01:54.928Z</time></trkpt><trkpt lat="44.48419802017862" lon="10.335402297821974"><ele>425.0</ele><time>2026-04-11T14:01:55.928Z</time></trkpt><trkpt lat="44.48411438832697" lon="10.335434455193056"><ele>426.0</ele><time>2026-04-11T14:01:56.928Z</time></trkpt><trkpt lat="44.48404626169879" lon="10.335447842634139"><ele>426.0</ele><time>2026-04-11T14:01:57.928Z</time></trkpt><trkpt lat="44.48393324666671" lon="10.335503835745978"><ele>426.0</ele><time>2026-04-11T14:01:59.928Z</time></trkpt><trkpt lat="44.483886364926924" lon="10.335590436052811"><ele>426.0</ele><time>2026-04-11T14:02:00.928Z</time></trkpt><trkpt lat="44.483838095892" lon="10.335673085175028"><ele>426.0</ele><time>2026-04-11T14:02:01.928Z</time></trkpt><trkpt lat="44.4838093768076" lon="10.335787553255754"><ele>426.0</ele><time>2026-04-11T14:02:02.928Z</time></trkpt><trkpt lat="44.48379010697163" lon="10.335920577538358"><ele>428.4</ele><time>2026-04-11T14:02:03.928Z</time></trkpt><trkpt lat="44.48376046819747" lon="10.33605153545164"><ele>430.8</ele><time>2026-04-11T14:02:04.928Z</time></trkpt><trkpt lat="44.48373211930897" lon="10.336177562227018"><ele>433.19999999999993</ele><time>2026-04-11T14:02:05.928Z</time></trkpt><trkpt lat="44.483713629437084" lon="10.336307848357054"><ele>435.59999999999997</ele><time>2026-04-11T14:02:06.928Z</time></trkpt><trkpt lat="44.48370728317473" lon="10.336440842546498"><ele>438.0</ele><time>2026-04-11T14:02:07.928Z</time></trkpt><trkpt lat="44.483715782393375" lon="10.336577317395829"><ele>438.0</ele><time>2026-04-11T14:02:08.928Z</time></trkpt><trkpt lat="44.48374222474601" lon="10.336704307762687"><ele>437.99999999999994</ele><time>2026-04-11T14:02:09.928Z</time></trkpt><trkpt lat="44.48378142686873" lon="10.336829022816087"><ele>437.99999999999994</ele><time>2026-04-11T14:02:10.928Z</time></trkpt><trkpt lat="44.48382194166128" lon="10.33693408759886"><ele>438.0</ele><time>2026-04-11T14:02:11.928Z</time></trkpt><trkpt lat="44.483872501568975" lon="10.337050919406975"><ele>438.0</ele><time>2026-04-11T14:02:12.928Z</time></trkpt><trkpt lat="44.4839093619034" lon="10.33717282798042"><ele>438.4</ele><time>2026-04-11T14:02:13.928Z</time></trkpt><trkpt lat="44.48393649542004" lon="10.337298289706727"><ele>438.79999999999995</ele><time>2026-04-11T14:02:14.928Z</time></trkpt><trkpt lat="44.483952519757274" lon="10.337427821781416"><ele>439.2</ele><time>2026-04-11T14:02:15.928Z</time></trkpt><trkpt lat="44.48395021075659" lon="10.3375609083851"><ele>439.6</ele><time>2026-04-11T14:02:16.928Z</time></trkpt><trkpt lat="44.48394466508725" lon="10.337687883097983"><ele>440.0</ele><time>2026-04-11T14:02:17.928Z</time></trkpt><trkpt lat="44.48393077512897" lon="10.337815913453124"><ele>439.99999999999994</ele><time>2026-04-11T14:02:18.928Z</time></trkpt><trkpt lat="44.48390328860685" lon="10.337936421674542"><ele>440.0</ele><time>2026-04-11T14:02:19.928Z</time></trkpt><trkpt lat="44.48388278985191" lon="10.33805007358394"><ele>440.0</ele><time>2026-04-11T14:02:20.928Z</time></trkpt><trkpt lat="44.48385747084096" lon="10.33815380354986"><ele>440.0</ele><time>2026-04-11T14:02:21.928Z</time></trkpt><trkpt lat="44.48383724434538" lon="10.338254652269978"><ele>439.99999999999994</ele><time>2026-04-11T14:02:22.928Z</time></trkpt><trkpt lat="44.483817602119416" lon="10.338340572570267"><ele>440.0</ele><time>2026-04-11T14:02:23.928Z</time></trkpt><trkpt lat="44.483806237593825" lon="10.338432155440913"><ele>440.2</ele><time>2026-04-11T14:02:24.928Z</time></trkpt><trkpt lat="44.483770208374835" lon="10.338591566260083"><ele>440.4</ele><time>2026-04-11T14:02:26.928Z</time></trkpt><trkpt lat="44.48374585177806" lon="10.33872178620463"><ele>440.6</ele><time>2026-04-11T14:02:28.928Z</time></trkpt><trkpt lat="44.48373202051453" lon="10.338851256247354"><ele>440.8</ele><time>2026-04-11T14:02:30.928Z</time></trkpt><trkpt lat="44.4837013720268" lon="10.338975456606283"><ele>441.0</ele><time>2026-04-11T14:02:32.928Z</time></trkpt><trkpt lat="44.48368824730909" lon="10.33909655016388"><ele>441.0</ele><time>2026-04-11T14:02:34.928Z</time></trkpt><trkpt lat="44.4836284455542" lon="10.339243016693027"><ele>441.0</ele><time>2026-04-11T14:02:36.928Z</time></trkpt><trkpt lat="44.483563382352685" lon="10.339324924206698"><ele>441.0</ele><time>2026-04-11T14:02:37.928Z</time></trkpt><trkpt lat="44.48348175881026" lon="10.339411642068429"><ele>441.0</ele><time>2026-04-11T14:02:38.928Z</time></trkpt><trkpt lat="44.48338148029059" lon="10.339505111368558"><ele>441.0</ele><time>2026-04-11T14:02:39.928Z</time></trkpt><trkpt lat="44.48327891006043" lon="10.33961054034105"><ele>441.0</ele><time>2026-04-11T14:02:40.928Z</time></trkpt><trkpt lat="44.4831784793064" lon="10.339696796354113"><ele>441.0</ele><time>2026-04-11T14:02:41.928Z</time></trkpt><trkpt lat="44.48308404651873" lon="10.339762238694314"><ele>441.0</ele><time>2026-04-11T14:02:42.928Z</time></trkpt><trkpt lat="44.48297916896307" lon="10.339802921819633"><ele>441.0</ele><time>2026-04-11T14:02:43.928Z</time></trkpt><trkpt lat="44.482861998886925" lon="10.339801812543314"><ele>441.0</ele><time>2026-04-11T14:02:44.928Z</time></trkpt><trkpt lat="44.482745145493" lon="10.339779202192988"><ele>441.25</ele><time>2026-04-11T14:02:45.928Z</time></trkpt><trkpt lat="44.48262974348683" lon="10.339742968957975"><ele>441.5</ele><time>2026-04-11T14:02:46.928Z</time></trkpt><trkpt lat="44.48252388652859" lon="10.339692722177507"><ele>441.75</ele><time>2026-04-11T14:02:47.928Z</time></trkpt><trkpt lat="44.482424518864676" lon="10.339620990130271"><ele>442.0</ele><time>2026-04-11T14:02:48.928Z</time></trkpt><trkpt lat="44.48233544292983" lon="10.339516615892814"><ele>442.0</ele><time>2026-04-11T14:02:49.928Z</time></trkpt><trkpt lat="44.48226916652718" lon="10.33937282806923"><ele>442.0</ele><time>2026-04-11T14:02:50.928Z</time></trkpt><trkpt lat="44.48220329721194" lon="10.339192151714494"><ele>442.0</ele><time>2026-04-11T14:02:51.928Z</time></trkpt><trkpt lat="44.48211055726959" lon="10.33901458888022"><ele>442.0</ele><time>2026-04-11T14:02:52.928Z</time></trkpt><trkpt lat="44.48200873465079" lon="10.338804228327728"><ele>445.33333333333337</ele><time>2026-04-11T14:02:53.928Z</time></trkpt><trkpt lat="44.48189092271979" lon="10.338612201931813"><ele>448.66666666666663</ele><time>2026-04-11T14:02:54.928Z</time></trkpt><trkpt lat="44.481781450600494" lon="10.338413347927581"><ele>452.0</ele><time>2026-04-11T14:02:55.928Z</time></trkpt><trkpt lat="44.4816652221218" lon="10.33822049572914"><ele>447.66666666666663</ele><time>2026-04-11T14:02:56.928Z</time></trkpt><trkpt lat="44.48152566044961" lon="10.338033840167732"><ele>443.33333333333337</ele><time>2026-04-11T14:02:57.928Z</time></trkpt><trkpt lat="44.48140055619006" lon="10.33782144208653"><ele>439.0</ele><time>2026-04-11T14:02:58.928Z</time></trkpt><trkpt lat="44.481291445837314" lon="10.337598938570832"><ele>445.6666666666667</ele><time>2026-04-11T14:02:59.929Z</time></trkpt><trkpt lat="44.48120461269133" lon="10.337355947342802"><ele>452.33333333333337</ele><time>2026-04-11T14:03:00.929Z</time></trkpt><trkpt lat="44.4811100644005" lon="10.337110083859491"><ele>459.0</ele><time>2026-04-11T14:03:01.929Z</time></trkpt><trkpt lat="44.48101616983732" lon="10.336890559767857"><ele>459.0</ele><time>2026-04-11T14:03:02.929Z</time></trkpt><trkpt lat="44.480929020459776" lon="10.33669696895516"><ele>459.0</ele><time>2026-04-11T14:03:03.929Z</time></trkpt><trkpt lat="44.480825623425375" lon="10.336527906786548"><ele>459.0</ele><time>2026-04-11T14:03:04.929Z</time></trkpt><trkpt lat="44.480754009229706" lon="10.336380935333644"><ele>459.0</ele><time>2026-04-11T14:03:05.929Z</time></trkpt><trkpt lat="44.480668241644686" lon="10.336253795661126"><ele>456.5</ele><time>2026-04-11T14:03:06.929Z</time></trkpt><trkpt lat="44.48055641419023" lon="10.336179880090869"><ele>454.0</ele><time>2026-04-11T14:03:07.929Z</time></trkpt><trkpt lat="44.48043672189849" lon="10.336109448069418"><ele>451.5</ele><time>2026-04-11T14:03:08.929Z</time></trkpt><trkpt lat="44.48030889208684" lon="10.33604607602964"><ele>449.0</ele><time>2026-04-11T14:03:09.929Z</time></trkpt><trkpt lat="44.48012875566551" lon="10.335998097015539"><ele>449.0</ele><time>2026-04-11T14:03:10.929Z</time></trkpt><trkpt lat="44.47994813771408" lon="10.335935003149608"><ele>449.0</ele><time>2026-04-11T14:03:11.929Z</time></trkpt><trkpt lat="44.47976570424411" lon="10.33586662673561"><ele>449.0</ele><time>2026-04-11T14:03:12.929Z</time></trkpt><trkpt lat="44.47956408373363" lon="10.335799049664615"><ele>446.0</ele><time>2026-04-11T14:03:13.929Z</time></trkpt><trkpt lat="44.479367826115976" lon="10.335725831915545"><ele>443.0</ele><time>2026-04-11T14:03:14.929Z</time></trkpt><trkpt lat="44.47917877388196" lon="10.335640676914688"><ele>440.0</ele><time>2026-04-11T14:03:15.929Z</time></trkpt><trkpt lat="44.47900626512883" lon="10.33552709962149"><ele>440.0</ele><time>2026-04-11T14:03:16.929Z</time></trkpt><trkpt lat="44.47883902062643" lon="10.335414543045962"><ele>440.0</ele><time>2026-04-11T14:03:17.929Z</time></trkpt><trkpt lat="44.47867952005922" lon="10.335300358604057"><ele>440.0</ele><time>2026-04-11T14:03:18.929Z</time></trkpt><trkpt lat="44.478517516115986" lon="10.335188720821835"><ele>446.0</ele><time>2026-04-11T14:03:19.929Z</time></trkpt><trkpt lat="44.47835918550842" lon="10.335079087447312"><ele>452.0</ele><time>2026-04-11T14:03:20.929Z</time></trkpt><trkpt lat="44.47820697001175" lon="10.334985949997463"><ele>458.0</ele><time>2026-04-11T14:03:21.929Z</time></trkpt><trkpt lat="44.47804956127158" lon="10.334926192842874"><ele>464.0</ele><time>2026-04-11T14:03:22.929Z</time></trkpt><trkpt lat="44.477895102950676" lon="10.334890316263284"><ele>470.0</ele><time>2026-04-11T14:03:23.929Z</time></trkpt><trkpt lat="44.477729195978874" lon="10.334860989471716"><ele>476.0</ele><time>2026-04-11T14:03:24.929Z</time></trkpt><trkpt lat="44.477561269568994" lon="10.334810961826827"><ele>473.0</ele><time>2026-04-11T14:03:25.929Z</time></trkpt><trkpt lat="44.477397427780105" lon="10.334693916934828"><ele>470.0</ele><time>2026-04-11T14:03:26.929Z</time></trkpt><trkpt lat="44.477237155020596" lon="10.334574766453867"><ele>467.0</ele><time>2026-04-11T14:03:27.929Z</time></trkpt><trkpt lat="44.47707440802349" lon="10.334453542255002"><ele>467.0</ele><time>2026-04-11T14:03:28.929Z</time></trkpt><trkpt lat="44.47691406749415" lon="10.334334629307923"><ele>467.0</ele><time>2026-04-11T14:03:29.929Z</time></trkpt><trkpt lat="44.47675745064513" lon="10.334211054477537"><ele>467.0</ele><time>2026-04-11T14:03:30.929Z</time></trkpt><trkpt lat="44.47661447442293" lon="10.334091107585728"><ele>467.0</ele><time>2026-04-11T14:03:31.929Z</time></trkpt><trkpt lat="44.47647512826683" lon="10.333988647474214"><ele>467.0</ele><time>2026-04-11T14:03:32.929Z</time></trkpt><trkpt lat="44.47632937673134" lon="10.333918039979467"><ele>467.0</ele><time>2026-04-11T14:03:33.929Z</time></trkpt><trkpt lat="44.47619014086232" lon="10.33387119178613"><ele>466.5</ele><time>2026-04-11T14:03:34.929Z</time></trkpt><trkpt lat="44.476053186023165" lon="10.33380903649568"><ele>466.0</ele><time>2026-04-11T14:03:35.929Z</time></trkpt><trkpt lat="44.47594609970415" lon="10.333704363384419"><ele>465.5</ele><time>2026-04-11T14:03:36.929Z</time></trkpt><trkpt lat="44.4758443994548" lon="10.333550387653215"><ele>465.0</ele><time>2026-04-11T14:03:37.929Z</time></trkpt><trkpt lat="44.47574373861417" lon="10.333389415435363"><ele>465.0</ele><time>2026-04-11T14:03:38.929Z</time></trkpt><trkpt lat="44.475642623867564" lon="10.333235088474567"><ele>465.0</ele><time>2026-04-11T14:03:39.929Z</time></trkpt><trkpt lat="44.47552935396886" lon="10.333104991151718"><ele>465.0</ele><time>2026-04-11T14:03:40.929Z</time></trkpt><trkpt lat="44.47541048626186" lon="10.332979905464786"><ele>465.0</ele><time>2026-04-11T14:03:41.929Z</time></trkpt><trkpt lat="44.475318113050854" lon="10.332825574995685"><ele>465.33333333333337</ele><time>2026-04-11T14:03:42.929Z</time></trkpt><trkpt lat="44.47526416370269" lon="10.332634289638019"><ele>465.6666666666667</ele><time>2026-04-11T14:03:43.929Z</time></trkpt><trkpt lat="44.475219203164684" lon="10.332398795477342"><ele>466.0</ele><time>2026-04-11T14:03:44.929Z</time></trkpt><trkpt lat="44.475177664317414" lon="10.3321842261808"><ele>466.0</ele><time>2026-04-11T14:03:45.929Z</time></trkpt><trkpt lat="44.47513046432663" lon="10.331992502578188"><ele>466.0</ele><time>2026-04-11T14:03:46.929Z</time></trkpt><trkpt lat="44.47508329002716" lon="10.331813490627601"><ele>466.0</ele><time>2026-04-11T14:03:47.929Z</time></trkpt><trkpt lat="44.47503864607982" lon="10.331664078175148"><ele>466.0</ele><time>2026-04-11T14:03:48.929Z</time></trkpt><trkpt lat="44.47499827466774" lon="10.33154810339604"><ele>466.0</ele><time>2026-04-11T14:03:49.929Z</time></trkpt><trkpt lat="44.4749441610873" lon="10.331448076036645"><ele>466.0</ele><time>2026-04-11T14:03:50.929Z</time></trkpt><trkpt lat="44.47488183900535" lon="10.331375643410333"><ele>466.0</ele><time>2026-04-11T14:03:51.929Z</time></trkpt><trkpt lat="44.474783517295606" lon="10.331361347410724"><ele>466.0</ele><time>2026-04-11T14:03:52.929Z</time></trkpt><trkpt lat="44.47465697650012" lon="10.33139458185966"><ele>466.0</ele><time>2026-04-11T14:03:53.929Z</time></trkpt><trkpt lat="44.47451163279415" lon="10.331470554052656"><ele>467.6666666666667</ele><time>2026-04-11T14:03:54.929Z</time></trkpt><trkpt lat="44.474358515663155" lon="10.331532226056128"><ele>469.33333333333337</ele><time>2026-04-11T14:03:55.929Z</time></trkpt><trkpt lat="44.47420160995388" lon="10.33158622636859"><ele>471.0</ele><time>2026-04-11T14:03:56.929Z</time></trkpt><trkpt lat="44.47405871699838" lon="10.331628701553882"><ele>471.0</ele><time>2026-04-11T14:03:57.929Z</time></trkpt><trkpt lat="44.473936318970466" lon="10.331671285936176"><ele>471.0</ele><time>2026-04-11T14:03:58.929Z</time></trkpt><trkpt lat="44.4738287568384" lon="10.331717875382736"><ele>471.0</ele><time>2026-04-11T14:03:59.929Z</time></trkpt><trkpt lat="44.4737420687465" lon="10.331782398078236"><ele>471.0</ele><time>2026-04-11T14:04:00.928Z</time></trkpt><trkpt lat="44.47367125610503" lon="10.331895054314993"><ele>471.0</ele><time>2026-04-11T14:04:01.928Z</time></trkpt><trkpt lat="44.473632145941274" lon="10.332045786779947"><ele>470.0</ele><time>2026-04-11T14:04:02.928Z</time></trkpt><trkpt lat="44.47363582494187" lon="10.332235405209785"><ele>469.0</ele><time>2026-04-11T14:04:03.928Z</time></trkpt><trkpt lat="44.473624914157455" lon="10.33244602545286"><ele>468.0</ele><time>2026-04-11T14:04:04.927Z</time></trkpt><trkpt lat="44.47359474125787" lon="10.33265346443801"><ele>467.0</ele><time>2026-04-11T14:04:05.927Z</time></trkpt><trkpt lat="44.473545968868244" lon="10.332843963009298"><ele>467.0</ele><time>2026-04-11T14:04:06.927Z</time></trkpt><trkpt lat="44.47351118365785" lon="10.333000729050063"><ele>467.00000000000006</ele><time>2026-04-11T14:04:07.927Z</time></trkpt><trkpt lat="44.473478558806086" lon="10.333106458690404"><ele>467.00000000000006</ele><time>2026-04-11T14:04:08.927Z</time></trkpt><trkpt lat="44.4734518286527" lon="10.333208357343807"><ele>467.0</ele><time>2026-04-11T14:04:09.927Z</time></trkpt><trkpt lat="44.473419401468924" lon="10.333330735770524"><ele>467.0</ele><time>2026-04-11T14:04:10.927Z</time></trkpt><trkpt lat="44.4733873400393" lon="10.333473416129324"><ele>468.0</ele><time>2026-04-11T14:04:11.927Z</time></trkpt><trkpt lat="44.47334695916469" lon="10.333615519439807"><ele>469.00000000000006</ele><time>2026-04-11T14:04:12.927Z</time></trkpt><trkpt lat="44.473278683577924" lon="10.333731888413656"><ele>470.00000000000006</ele><time>2026-04-11T14:04:13.927Z</time></trkpt><trkpt lat="44.47318435252608" lon="10.333820516642277"><ele>471.0</ele><time>2026-04-11T14:04:14.927Z</time></trkpt><trkpt lat="44.47308248121387" lon="10.333884935485276"><ele>472.0</ele><time>2026-04-11T14:04:15.927Z</time></trkpt><trkpt lat="44.47297272666125" lon="10.333922243354397"><ele>472.0</ele><time>2026-04-11T14:04:16.927Z</time></trkpt><trkpt lat="44.47285902894303" lon="10.333956500987451"><ele>472.0</ele><time>2026-04-11T14:04:17.927Z</time></trkpt><trkpt lat="44.472747720026675" lon="10.333986515817028"><ele>472.0</ele><time>2026-04-11T14:04:18.927Z</time></trkpt><trkpt lat="44.472638701153194" lon="10.334024269157723"><ele>472.0</ele><time>2026-04-11T14:04:19.927Z</time></trkpt><trkpt lat="44.47252962431928" lon="10.334068348116864"><ele>472.0</ele><time>2026-04-11T14:04:20.927Z</time></trkpt><trkpt lat="44.47241413628202" lon="10.334106490846592"><ele>472.0</ele><time>2026-04-11T14:04:21.927Z</time></trkpt><trkpt lat="44.47229587562831" lon="10.334158134456167"><ele>472.0</ele><time>2026-04-11T14:04:22.927Z</time></trkpt><trkpt lat="44.4721784351957" lon="10.334222026667467"><ele>472.0</ele><time>2026-04-11T14:04:23.927Z</time></trkpt><trkpt lat="44.47206530465195" lon="10.334302441667454"><ele>471.25</ele><time>2026-04-11T14:04:24.927Z</time></trkpt><trkpt lat="44.47195370513521" lon="10.334392146318256"><ele>470.5</ele><time>2026-04-11T14:04:25.927Z</time></trkpt><trkpt lat="44.47184656052373" lon="10.33448672659535"><ele>469.75</ele><time>2026-04-11T14:04:26.927Z</time></trkpt><trkpt lat="44.47174443280222" lon="10.334603455979966"><ele>469.0</ele><time>2026-04-11T14:04:27.927Z</time></trkpt><trkpt lat="44.47164623291924" lon="10.334746063803353"><ele>470.33333333333337</ele><time>2026-04-11T14:04:28.927Z</time></trkpt><trkpt lat="44.471536972725694" lon="10.334903483805094"><ele>471.66666666666663</ele><time>2026-04-11T14:04:29.927Z</time></trkpt><trkpt lat="44.47141219303646" lon="10.33504536682192"><ele>473.0</ele><time>2026-04-11T14:04:30.927Z</time></trkpt><trkpt lat="44.471266827088336" lon="10.3351675163055"><ele>473.0</ele><time>2026-04-11T14:04:31.927Z</time></trkpt><trkpt lat="44.47110321948424" lon="10.335267089801278"><ele>473.0</ele><time>2026-04-11T14:04:32.927Z</time></trkpt><trkpt lat="44.470952338505384" lon="10.335355287613503"><ele>473.0</ele><time>2026-04-11T14:04:33.927Z</time></trkpt><trkpt lat="44.47081789589854" lon="10.3354523704627"><ele>473.0</ele><time>2026-04-11T14:04:34.927Z</time></trkpt><trkpt lat="44.47069230638302" lon="10.335550764522694"><ele>473.0</ele><time>2026-04-11T14:04:35.927Z</time></trkpt><trkpt lat="44.470577981876716" lon="10.335685179375048"><ele>473.0</ele><time>2026-04-11T14:04:36.927Z</time></trkpt><trkpt lat="44.47048089915753" lon="10.33583210985261"><ele>473.0</ele><time>2026-04-11T14:04:37.927Z</time></trkpt><trkpt lat="44.47040503096316" lon="10.33597641933575"><ele>473.0</ele><time>2026-04-11T14:04:38.927Z</time></trkpt><trkpt lat="44.47034122224516" lon="10.33611943604987"><ele>473.0</ele><time>2026-04-11T14:04:39.927Z</time></trkpt><trkpt lat="44.470295457181564" lon="10.336284706959297"><ele>473.0</ele><time>2026-04-11T14:04:40.927Z</time></trkpt><trkpt lat="44.470269190984396" lon="10.3364691463597"><ele>473.0</ele><time>2026-04-11T14:04:41.927Z</time></trkpt><trkpt lat="44.4702681180326" lon="10.336686125505354"><ele>473.0</ele><time>2026-04-11T14:04:42.927Z</time></trkpt><trkpt lat="44.47029162254641" lon="10.336923882687817"><ele>473.0</ele><time>2026-04-11T14:04:43.927Z</time></trkpt><trkpt lat="44.47032575007391" lon="10.337164500441787"><ele>473.0</ele><time>2026-04-11T14:04:44.927Z</time></trkpt><trkpt lat="44.47036365305794" lon="10.337386607055645"><ele>473.66666666666663</ele><time>2026-04-11T14:04:45.927Z</time></trkpt><trkpt lat="44.470397397059195" lon="10.337590256583336"><ele>474.33333333333337</ele><time>2026-04-11T14:04:46.927Z</time></trkpt><trkpt lat="44.47041760351911" lon="10.337804336898921"><ele>475.0</ele><time>2026-04-11T14:04:47.927Z</time></trkpt><trkpt lat="44.470400493590354" lon="10.338022345164463"><ele>476.0</ele><time>2026-04-11T14:04:48.927Z</time></trkpt><trkpt lat="44.47035290428254" lon="10.33823434859668"><ele>477.0</ele><time>2026-04-11T14:04:49.927Z</time></trkpt><trkpt lat="44.47027332283458" lon="10.338436195770951"><ele>478.0</ele><time>2026-04-11T14:04:50.927Z</time></trkpt><trkpt lat="44.47015739056736" lon="10.33861635254928"><ele>478.0</ele><time>2026-04-11T14:04:51.927Z</time></trkpt><trkpt lat="44.47003705410067" lon="10.338777278295263"><ele>478.0</ele><time>2026-04-11T14:04:52.927Z</time></trkpt><trkpt lat="44.4699327945112" lon="10.338912149578"><ele>478.0</ele><time>2026-04-11T14:04:53.927Z</time></trkpt><trkpt lat="44.4698504692657" lon="10.339024668929937"><ele>478.0</ele><time>2026-04-11T14:04:54.927Z</time></trkpt><trkpt lat="44.46978499334871" lon="10.339144147711172"><ele>479.79999999999995</ele><time>2026-04-11T14:04:55.927Z</time></trkpt><trkpt lat="44.46975475823192" lon="10.339277647146943"><ele>481.59999999999997</ele><time>2026-04-11T14:04:56.927Z</time></trkpt><trkpt lat="44.46977219133487" lon="10.339442495245374"><ele>483.40000000000003</ele><time>2026-04-11T14:04:57.927Z</time></trkpt><trkpt lat="44.469811843548406" lon="10.339596906255693"><ele>485.20000000000005</ele><time>2026-04-11T14:04:58.927Z</time></trkpt><trkpt lat="44.469827088197825" lon="10.339718931433318"><ele>487.0</ele><time>2026-04-11T14:04:59.927Z</time></trkpt><trkpt lat="44.46982306215815" lon="10.339824324422839"><ele>488.40000000000003</ele><time>2026-04-11T14:05:00.927Z</time></trkpt><trkpt lat="44.469805832338295" lon="10.33991135897408"><ele>489.80000000000007</ele><time>2026-04-11T14:05:01.927Z</time></trkpt><trkpt lat="44.46974040651334" lon="10.340057118529797"><ele>491.2</ele><time>2026-04-11T14:05:03.927Z</time></trkpt><trkpt lat="44.469656199695635" lon="10.34017015832045"><ele>492.6</ele><time>2026-04-11T14:05:05.927Z</time></trkpt><trkpt lat="44.46956339735581" lon="10.340283349211234"><ele>494.0</ele><time>2026-04-11T14:05:07.927Z</time></trkpt><trkpt lat="44.46951182573253" lon="10.34034105385721"><ele>492.8333333333333</ele><time>2026-04-11T14:05:08.927Z</time></trkpt><trkpt lat="44.46945793491766" lon="10.34039743914585"><ele>491.66666666666663</ele><time>2026-04-11T14:05:09.927Z</time></trkpt><trkpt lat="44.46935824432788" lon="10.340504273592114"><ele>490.5</ele><time>2026-04-11T14:05:11.927Z</time></trkpt><trkpt lat="44.46931062982314" lon="10.34056362214244"><ele>489.33333333333337</ele><time>2026-04-11T14:05:12.927Z</time></trkpt><trkpt lat="44.469273862299254" lon="10.340642620393398"><ele>488.1666666666667</ele><time>2026-04-11T14:05:13.927Z</time></trkpt><trkpt lat="44.469241333122724" lon="10.340744581606796"><ele>487.0</ele><time>2026-04-11T14:05:14.927Z</time></trkpt><trkpt lat="44.469223815352706" lon="10.34083914026885"><ele>487.00000000000006</ele><time>2026-04-11T14:05:15.927Z</time></trkpt><trkpt lat="44.46922052496517" lon="10.340936439177666"><ele>487.0</ele><time>2026-04-11T14:05:16.927Z</time></trkpt><trkpt lat="44.4692268519721" lon="10.341037155043937"><ele>487.0</ele><time>2026-04-11T14:05:17.927Z</time></trkpt><trkpt lat="44.46923320095476" lon="10.341139605961716"><ele>487.0</ele><time>2026-04-11T14:05:18.927Z</time></trkpt><trkpt lat="44.469237846899276" lon="10.341242246367688"><ele>487.00000000000006</ele><time>2026-04-11T14:05:19.927Z</time></trkpt><trkpt lat="44.469244743499104" lon="10.341360369629456"><ele>487.0</ele><time>2026-04-11T14:05:20.927Z</time></trkpt><trkpt lat="44.46925686685493" lon="10.341495061573449"><ele>487.0</ele><time>2026-04-11T14:05:21.927Z</time></trkpt><trkpt lat="44.469272941102645" lon="10.341625870569755"><ele>487.00000000000006</ele><time>2026-04-11T14:05:22.928Z</time></trkpt><trkpt lat="44.469289373812416" lon="10.341760823763087"><ele>487.00000000000006</ele><time>2026-04-11T14:05:23.928Z</time></trkpt><trkpt lat="44.46932037237452" lon="10.34189985283761"><ele>487.0</ele><time>2026-04-11T14:05:24.928Z</time></trkpt><trkpt lat="44.469374693242855" lon="10.342079139660354"><ele>487.0</ele><time>2026-04-11T14:05:25.928Z</time></trkpt><trkpt lat="44.46944883697821" lon="10.342315067115884"><ele>487.0</ele><time>2026-04-11T14:05:26.928Z</time></trkpt><trkpt lat="44.46953141359466" lon="10.342559416844406"><ele>487.0</ele><time>2026-04-11T14:05:27.928Z</time></trkpt><trkpt lat="44.46962402073792" lon="10.342785797466522"><ele>487.0</ele><time>2026-04-11T14:05:28.928Z</time></trkpt><trkpt lat="44.469700800246756" lon="10.342969600455516"><ele>489.40000000000003</ele><time>2026-04-11T14:05:29.928Z</time></trkpt><trkpt lat="44.469766149515216" lon="10.343136063191162"><ele>491.80000000000007</ele><time>2026-04-11T14:05:30.928Z</time></trkpt><trkpt lat="44.46981892472954" lon="10.343282679256504"><ele>494.2</ele><time>2026-04-11T14:05:31.928Z</time></trkpt><trkpt lat="44.46984651248351" lon="10.343415209379902"><ele>496.6</ele><time>2026-04-11T14:05:32.928Z</time></trkpt><trkpt lat="44.46983989804898" lon="10.343545990227737"><ele>499.0</ele><time>2026-04-11T14:05:33.928Z</time></trkpt><trkpt lat="44.46979200885105" lon="10.343671886715853"><ele>499.0</ele><time>2026-04-11T14:05:34.928Z</time></trkpt><trkpt lat="44.46969141329989" lon="10.343760069557666"><ele>499.0</ele><time>2026-04-11T14:05:35.928Z</time></trkpt><trkpt lat="44.46956727353931" lon="10.343809688579036"><ele>499.0</ele><time>2026-04-11T14:05:36.928Z</time></trkpt><trkpt lat="44.46944015785669" lon="10.343840956473901"><ele>499.0</ele><time>2026-04-11T14:05:37.928Z</time></trkpt><trkpt lat="44.46932791547919" lon="10.343859356317779"><ele>498.5</ele><time>2026-04-11T14:05:38.928Z</time></trkpt><trkpt lat="44.46920873803348" lon="10.343826475569493"><ele>498.0</ele><time>2026-04-11T14:05:39.928Z</time></trkpt><trkpt lat="44.469090275962536" lon="10.343743882502961"><ele>497.5</ele><time>2026-04-11T14:05:40.928Z</time></trkpt><trkpt lat="44.468970266361964" lon="10.343607821796615"><ele>497.0</ele><time>2026-04-11T14:05:41.928Z</time></trkpt><trkpt lat="44.4688566461468" lon="10.343447161895913"><ele>499.0</ele><time>2026-04-11T14:05:42.928Z</time></trkpt><trkpt lat="44.46873679061186" lon="10.343286356279203"><ele>501.0</ele><time>2026-04-11T14:05:43.928Z</time></trkpt><trkpt lat="44.46861440817965" lon="10.343119448431233"><ele>503.0</ele><time>2026-04-11T14:05:44.928Z</time></trkpt><trkpt lat="44.468496945156595" lon="10.34295809194711"><ele>503.0</ele><time>2026-04-11T14:05:45.928Z</time></trkpt><trkpt lat="44.46840398042498" lon="10.342799878370231"><ele>503.0</ele><time>2026-04-11T14:05:46.928Z</time></trkpt><trkpt lat="44.46833754581169" lon="10.342653789254513"><ele>503.0</ele><time>2026-04-11T14:05:47.928Z</time></trkpt><trkpt lat="44.468265543897054" lon="10.34253710893137"><ele>503.0</ele><time>2026-04-11T14:05:48.928Z</time></trkpt><trkpt lat="44.46817330664813" lon="10.342447657026499"><ele>503.0</ele><time>2026-04-11T14:05:49.928Z</time></trkpt><trkpt lat="44.46804767237819" lon="10.342407319679607"><ele>503.0</ele><time>2026-04-11T14:05:50.928Z</time></trkpt><trkpt lat="44.467911586211564" lon="10.342389233678013"><ele>503.0</ele><time>2026-04-11T14:05:51.928Z</time></trkpt><trkpt lat="44.4677559847231" lon="10.34243354299397"><ele>503.0</ele><time>2026-04-11T14:05:52.928Z</time></trkpt><trkpt lat="44.46756301648096" lon="10.342482282186742"><ele>506.0</ele><time>2026-04-11T14:05:53.928Z</time></trkpt><trkpt lat="44.46736880997577" lon="10.342509216175456"><ele>509.0</ele><time>2026-04-11T14:05:54.928Z</time></trkpt><trkpt lat="44.46718608234338" lon="10.342517331926606"><ele>512.0</ele><time>2026-04-11T14:05:55.928Z</time></trkpt><trkpt lat="44.46700710637652" lon="10.34248673747412"><ele>514.3333333333333</ele><time>2026-04-11T14:05:56.928Z</time></trkpt><trkpt lat="44.466824373990455" lon="10.342422385548439"><ele>516.6666666666666</ele><time>2026-04-11T14:05:57.928Z</time></trkpt><trkpt lat="44.46664888454406" lon="10.34232345224955"><ele>519.0</ele><time>2026-04-11T14:05:58.928Z</time></trkpt><trkpt lat="44.46647614372286" lon="10.342227139168697"><ele>518.3333333333334</ele><time>2026-04-11T14:05:59.928Z</time></trkpt><trkpt lat="44.46632197526118" lon="10.342144974588427"><ele>517.6666666666667</ele><time>2026-04-11T14:06:00.928Z</time></trkpt><trkpt lat="44.46617225327141" lon="10.342042024817136"><ele>517.0</ele><time>2026-04-11T14:06:01.928Z</time></trkpt><trkpt lat="44.46602964160851" lon="10.341896347228547"><ele>517.0</ele><time>2026-04-11T14:06:02.928Z</time></trkpt><trkpt lat="44.46588939098764" lon="10.341713975315352"><ele>517.0</ele><time>2026-04-11T14:06:03.928Z</time></trkpt><trkpt lat="44.46574805758649" lon="10.341533284974577"><ele>517.0</ele><time>2026-04-11T14:06:04.928Z</time></trkpt><trkpt lat="44.4656114909209" lon="10.341362597563569"><ele>517.6666666666667</ele><time>2026-04-11T14:06:05.928Z</time></trkpt><trkpt lat="44.46548074703591" lon="10.341202358500484"><ele>518.3333333333334</ele><time>2026-04-11T14:06:06.926Z</time></trkpt><trkpt lat="44.465361976177654" lon="10.341048943427996"><ele>519.0</ele><time>2026-04-11T14:06:07.927Z</time></trkpt><trkpt lat="44.465258008471736" lon="10.340918196675432"><ele>519.0</ele><time>2026-04-11T14:06:08.927Z</time></trkpt><trkpt lat="44.46516393317599" lon="10.34080234215652"><ele>519.0</ele><time>2026-04-11T14:06:09.927Z</time></trkpt><trkpt lat="44.465077600698535" lon="10.34071294539431"><ele>519.0</ele><time>2026-04-11T14:06:10.926Z</time></trkpt><trkpt lat="44.46498140458073" lon="10.340659885281326"><ele>519.0</ele><time>2026-04-11T14:06:11.926Z</time></trkpt><trkpt lat="44.4648727721188" lon="10.340657405161013"><ele>519.0</ele><time>2026-04-11T14:06:12.926Z</time></trkpt><trkpt lat="44.464770473254" lon="10.340708736259312"><ele>519.0</ele><time>2026-04-11T14:06:13.927Z</time></trkpt><trkpt lat="44.46469378350424" lon="10.340806772370371"><ele>519.0</ele><time>2026-04-11T14:06:14.927Z</time></trkpt><trkpt lat="44.46465445473507" lon="10.340944024325914"><ele>519.0</ele><time>2026-04-11T14:06:15.927Z</time></trkpt><trkpt lat="44.464658151693" lon="10.341114592756448"><ele>519.0</ele><time>2026-04-11T14:06:16.927Z</time></trkpt><trkpt lat="44.464712540508025" lon="10.341290631647436"><ele>523.3333333333334</ele><time>2026-04-11T14:06:17.927Z</time></trkpt><trkpt lat="44.46480826819731" lon="10.341446379256185"><ele>527.6666666666667</ele><time>2026-04-11T14:06:18.926Z</time></trkpt><trkpt lat="44.46494958210231" lon="10.34160159174039"><ele>532.0</ele><time>2026-04-11T14:06:19.927Z</time></trkpt><trkpt lat="44.465106458128815" lon="10.341752913409325"><ele>532.0</ele><time>2026-04-11T14:06:20.927Z</time></trkpt><trkpt lat="44.46527454040991" lon="10.341870412520024"><ele>532.0</ele><time>2026-04-11T14:06:21.927Z</time></trkpt><trkpt lat="44.465438123139656" lon="10.341977419708945"><ele>532.0</ele><time>2026-04-11T14:06:22.927Z</time></trkpt><trkpt lat="44.46558759428543" lon="10.34212157572912"><ele>534.3333333333334</ele><time>2026-04-11T14:06:23.927Z</time></trkpt><trkpt lat="44.46572660447274" lon="10.342299382035343"><ele>536.6666666666666</ele><time>2026-04-11T14:06:24.927Z</time></trkpt><trkpt lat="44.46583072869488" lon="10.342489309898264"><ele>539.0</ele><time>2026-04-11T14:06:25.927Z</time></trkpt><trkpt lat="44.46591589938524" lon="10.342674430342603"><ele>539.0</ele><time>2026-04-11T14:06:26.927Z</time></trkpt><trkpt lat="44.46596909708248" lon="10.342869319225178"><ele>539.0</ele><time>2026-04-11T14:06:27.927Z</time></trkpt><trkpt lat="44.46602922794842" lon="10.343030006205948"><ele>539.0</ele><time>2026-04-11T14:06:28.927Z</time></trkpt><trkpt lat="44.466116812537074" lon="10.343152288134968"><ele>539.0</ele><time>2026-04-11T14:06:29.927Z</time></trkpt><trkpt lat="44.46623103744663" lon="10.343227529735298"><ele>540.6666666666666</ele><time>2026-04-11T14:06:30.927Z</time></trkpt><trkpt lat="44.466369628349064" lon="10.343258007939644"><ele>542.3333333333334</ele><time>2026-04-11T14:06:31.927Z</time></trkpt><trkpt lat="44.46652865622573" lon="10.34325975025531"><ele>544.0</ele><time>2026-04-11T14:06:32.927Z</time></trkpt><trkpt lat="44.46671204097237" lon="10.34323035685227"><ele>544.0</ele><time>2026-04-11T14:06:33.927Z</time></trkpt><trkpt lat="44.4669279442665" lon="10.343213778270268"><ele>544.0</ele><time>2026-04-11T14:06:34.927Z</time></trkpt><trkpt lat="44.46712135274496" lon="10.343211486798419"><ele>544.0</ele><time>2026-04-11T14:06:35.927Z</time></trkpt><trkpt lat="44.46729369502337" lon="10.343255305961042"><ele>542.3333333333334</ele><time>2026-04-11T14:06:36.927Z</time></trkpt><trkpt lat="44.467455055053456" lon="10.34334603885293"><ele>540.6666666666666</ele><time>2026-04-11T14:06:37.927Z</time></trkpt><trkpt lat="44.467618735133094" lon="10.343453495263828"><ele>539.0</ele><time>2026-04-11T14:06:38.927Z</time></trkpt><trkpt lat="44.46777730076271" lon="10.343518515107345"><ele>539.0</ele><time>2026-04-11T14:06:39.927Z</time></trkpt><trkpt lat="44.467931697694354" lon="10.343573137680481"><ele>539.0</ele><time>2026-04-11T14:06:40.927Z</time></trkpt><trkpt lat="44.46806217828791" lon="10.343646356013007"><ele>539.0</ele><time>2026-04-11T14:06:41.927Z</time></trkpt><trkpt lat="44.468170870818234" lon="10.343769760753126"><ele>539.0</ele><time>2026-04-11T14:06:42.927Z</time></trkpt><trkpt lat="44.46826506753597" lon="10.343924336321164"><ele>543.0</ele><time>2026-04-11T14:06:43.927Z</time></trkpt><trkpt lat="44.46834857605583" lon="10.344107578728579"><ele>547.0</ele><time>2026-04-11T14:06:44.927Z</time></trkpt><trkpt lat="44.46840527129119" lon="10.3443004229146"><ele>551.0</ele><time>2026-04-11T14:06:45.927Z</time></trkpt><trkpt lat="44.468455423181446" lon="10.344463741716126"><ele>555.0</ele><time>2026-04-11T14:06:46.927Z</time></trkpt><trkpt lat="44.468486233227075" lon="10.344612781908355"><ele>555.0</ele><time>2026-04-11T14:06:47.927Z</time></trkpt><trkpt lat="44.46846801325308" lon="10.344781571298642"><ele>555.0</ele><time>2026-04-11T14:06:48.927Z</time></trkpt><trkpt lat="44.468408190026025" lon="10.344936327148616"><ele>555.0</ele><time>2026-04-11T14:06:49.927Z</time></trkpt><trkpt lat="44.46831668486046" lon="10.34505443941185"><ele>555.0</ele><time>2026-04-11T14:06:50.927Z</time></trkpt><trkpt lat="44.46819185551338" lon="10.345150055856708"><ele>555.0</ele><time>2026-04-11T14:06:51.927Z</time></trkpt><trkpt lat="44.468065140230046" lon="10.345252187295003"><ele>555.0</ele><time>2026-04-11T14:06:52.927Z</time></trkpt><trkpt lat="44.46795108859932" lon="10.345377626296589"><ele>555.0</ele><time>2026-04-11T14:06:53.927Z</time></trkpt><trkpt lat="44.46785182753036" lon="10.34551370151007"><ele>555.0</ele><time>2026-04-11T14:06:54.927Z</time></trkpt><trkpt lat="44.467764889700675" lon="10.345628107114402"><ele>555.5</ele><time>2026-04-11T14:06:55.927Z</time></trkpt><trkpt lat="44.46765762616585" lon="10.345662756090505"><ele>556.0</ele><time>2026-04-11T14:06:56.927Z</time></trkpt><trkpt lat="44.46751618528254" lon="10.345674151543998"><ele>556.5</ele><time>2026-04-11T14:06:57.927Z</time></trkpt><trkpt lat="44.46735239096673" lon="10.34568613944537"><ele>557.0</ele><time>2026-04-11T14:06:58.927Z</time></trkpt><trkpt lat="44.46718994777219" lon="10.34570386852188"><ele>559.3333333333333</ele><time>2026-04-11T14:06:59.927Z</time></trkpt><trkpt lat="44.46702747725423" lon="10.345733795053418"><ele>561.6666666666666</ele><time>2026-04-11T14:07:00.927Z</time></trkpt><trkpt lat="44.46687126584457" lon="10.345751392743658"><ele>564.0</ele><time>2026-04-11T14:07:01.927Z</time></trkpt><trkpt lat="44.46671157359815" lon="10.345745308636758"><ele>564.0</ele><time>2026-04-11T14:07:02.927Z</time></trkpt><trkpt lat="44.466549141705094" lon="10.345726921534961"><ele>564.0</ele><time>2026-04-11T14:07:03.927Z</time></trkpt><trkpt lat="44.46640193303378" lon="10.34566239378925"><ele>564.0</ele><time>2026-04-11T14:07:04.927Z</time></trkpt><trkpt lat="44.466258886220004" lon="10.345612528819446"><ele>566.0</ele><time>2026-04-11T14:07:05.927Z</time></trkpt><trkpt lat="44.466103298011745" lon="10.345617102005315"><ele>568.0</ele><time>2026-04-11T14:07:06.927Z</time></trkpt><trkpt lat="44.46595532080381" lon="10.3456358360531"><ele>570.0</ele><time>2026-04-11T14:07:07.927Z</time></trkpt><trkpt lat="44.46583240427915" lon="10.34564576680741"><ele>572.0</ele><time>2026-04-11T14:07:08.927Z</time></trkpt><trkpt lat="44.46573314382587" lon="10.345675035343339"><ele>572.0</ele><time>2026-04-11T14:07:09.927Z</time></trkpt><trkpt lat="44.46564985568736" lon="10.345752162391857"><ele>572.0</ele><time>2026-04-11T14:07:10.927Z</time></trkpt><trkpt lat="44.46558829144562" lon="10.345892423827527"><ele>572.0</ele><time>2026-04-11T14:07:11.927Z</time></trkpt><trkpt lat="44.465547294038146" lon="10.346046514636859"><ele>572.0</ele><time>2026-04-11T14:07:12.927Z</time></trkpt><trkpt lat="44.46550084521422" lon="10.346210537357047"><ele>575.25</ele><time>2026-04-11T14:07:13.927Z</time></trkpt><trkpt lat="44.46544009667195" lon="10.346374494941083"><ele>578.5</ele><time>2026-04-11T14:07:14.927Z</time></trkpt><trkpt lat="44.465331347349355" lon="10.346497876170377"><ele>581.75</ele><time>2026-04-11T14:07:15.927Z</time></trkpt><trkpt lat="44.46519787913549" lon="10.346617524786279"><ele>585.0</ele><time>2026-04-11T14:07:16.927Z</time></trkpt><trkpt lat="44.46505570980638" lon="10.34675698352119"><ele>585.0</ele><time>2026-04-11T14:07:17.927Z</time></trkpt><trkpt lat="44.46490025690698" lon="10.346907941813706"><ele>585.0</ele><time>2026-04-11T14:07:18.927Z</time></trkpt><trkpt lat="44.464759848419696" lon="10.347050341871693"><ele>585.0</ele><time>2026-04-11T14:07:19.927Z</time></trkpt><trkpt lat="44.46463538130117" lon="10.347198532602855"><ele>586.0</ele><time>2026-04-11T14:07:20.927Z</time></trkpt><trkpt lat="44.46451899120632" lon="10.34735471901179"><ele>587.0</ele><time>2026-04-11T14:07:21.927Z</time></trkpt><trkpt lat="44.46442695712453" lon="10.347525425490545"><ele>588.0</ele><time>2026-04-11T14:07:22.927Z</time></trkpt><trkpt lat="44.464343434609056" lon="10.347711211765413"><ele>588.0</ele><time>2026-04-11T14:07:23.927Z</time></trkpt><trkpt lat="44.4642634021573" lon="10.347906975100068"><ele>588.0</ele><time>2026-04-11T14:07:24.927Z</time></trkpt><trkpt lat="44.4641832527725" lon="10.348100225358221"><ele>588.0</ele><time>2026-04-11T14:07:25.927Z</time></trkpt><trkpt lat="44.46410551392314" lon="10.348283389084541"><ele>587.6666666666666</ele><time>2026-04-11T14:07:26.927Z</time></trkpt><trkpt lat="44.464025588354396" lon="10.348486332329276"><ele>587.3333333333333</ele><time>2026-04-11T14:07:27.927Z</time></trkpt><trkpt lat="44.463955339114634" lon="10.348690151215317"><ele>587.0</ele><time>2026-04-11T14:07:28.927Z</time></trkpt><trkpt lat="44.46388951671027" lon="10.34888716659613"><ele>587.6666666666666</ele><time>2026-04-11T14:07:29.927Z</time></trkpt><trkpt lat="44.463828152841366" lon="10.349088454530934"><ele>588.3333333333334</ele><time>2026-04-11T14:07:30.927Z</time></trkpt><trkpt lat="44.46377589193434" lon="10.34929537877477"><ele>589.0</ele><time>2026-04-11T14:07:31.927Z</time></trkpt><trkpt lat="44.46372442849512" lon="10.349505539840402"><ele>585.25</ele><time>2026-04-11T14:07:32.927Z</time></trkpt><trkpt lat="44.46367957154043" lon="10.34969640553172"><ele>581.5</ele><time>2026-04-11T14:07:33.927Z</time></trkpt><trkpt lat="44.463631603735905" lon="10.34987694307326"><ele>577.75</ele><time>2026-04-11T14:07:34.927Z</time></trkpt><trkpt lat="44.46356373553669" lon="10.350047288654636"><ele>574.0</ele><time>2026-04-11T14:07:35.927Z</time></trkpt><trkpt lat="44.46347278035728" lon="10.350203406399212"><ele>574.0</ele><time>2026-04-11T14:07:36.927Z</time></trkpt><trkpt lat="44.46336250595581" lon="10.350340980004532"><ele>574.0</ele><time>2026-04-11T14:07:37.927Z</time></trkpt><trkpt lat="44.463229652601036" lon="10.350447921016897"><ele>574.0</ele><time>2026-04-11T14:07:38.927Z</time></trkpt><trkpt lat="44.46308048790499" lon="10.350532896124202"><ele>575.3333333333334</ele><time>2026-04-11T14:07:39.927Z</time></trkpt><trkpt lat="44.46292042701813" lon="10.350596651149482"><ele>576.6666666666666</ele><time>2026-04-11T14:07:40.927Z</time></trkpt><trkpt lat="44.46274179278488" lon="10.350651833704903"><ele>578.0</ele><time>2026-04-11T14:07:41.927Z</time></trkpt><trkpt lat="44.46256361915099" lon="10.350712224758356"><ele>578.0</ele><time>2026-04-11T14:07:42.927Z</time></trkpt><trkpt lat="44.462385331436366" lon="10.35076663833276"><ele>578.0</ele><time>2026-04-11T14:07:43.927Z</time></trkpt><trkpt lat="44.462206535507065" lon="10.35082608971863"><ele>578.0</ele><time>2026-04-11T14:07:44.927Z</time></trkpt><trkpt lat="44.46203947652633" lon="10.350890205693952"><ele>573.3333333333333</ele><time>2026-04-11T14:07:45.927Z</time></trkpt><trkpt lat="44.46187678818839" lon="10.350966645688649"><ele>568.6666666666666</ele><time>2026-04-11T14:07:46.927Z</time></trkpt><trkpt lat="44.461713822059785" lon="10.351064500125446"><ele>564.0</ele><time>2026-04-11T14:07:47.927Z</time></trkpt><trkpt lat="44.46155356225287" lon="10.351179160382106"><ele>564.0</ele><time>2026-04-11T14:07:48.927Z</time></trkpt><trkpt lat="44.46139237772097" lon="10.35129661655319"><ele>564.0</ele><time>2026-04-11T14:07:49.928Z</time></trkpt><trkpt lat="44.46122712831218" lon="10.351405157220883"><ele>564.0</ele><time>2026-04-11T14:07:50.928Z</time></trkpt><trkpt lat="44.46105708626295" lon="10.351507677390469"><ele>564.6666666666666</ele><time>2026-04-11T14:07:51.928Z</time></trkpt><trkpt lat="44.460882682626746" lon="10.351579892926951"><ele>565.3333333333333</ele><time>2026-04-11T14:07:52.928Z</time></trkpt><trkpt lat="44.46070903948167" lon="10.351643517168725"><ele>566.0</ele><time>2026-04-11T14:07:53.928Z</time></trkpt><trkpt lat="44.46052605159698" lon="10.351696151413284"><ele>562.3333333333333</ele><time>2026-04-11T14:07:54.928Z</time></trkpt><trkpt lat="44.46034351386134" lon="10.351761524880946"><ele>558.6666666666666</ele><time>2026-04-11T14:07:55.928Z</time></trkpt><trkpt lat="44.460171684171755" lon="10.351845692722385"><ele>555.0</ele><time>2026-04-11T14:07:56.928Z</time></trkpt><trkpt lat="44.460024512113655" lon="10.351936592610627"><ele>555.0</ele><time>2026-04-11T14:07:57.928Z</time></trkpt><trkpt lat="44.45990664753017" lon="10.352018751994748"><ele>555.0</ele><time>2026-04-11T14:07:58.928Z</time></trkpt><trkpt lat="44.45980686032229" lon="10.3520824636829"><ele>555.0</ele><time>2026-04-11T14:07:59.928Z</time></trkpt><trkpt lat="44.45971730246755" lon="10.35214921728929"><ele>555.0</ele><time>2026-04-11T14:08:00.928Z</time></trkpt><trkpt lat="44.45962940515066" lon="10.352218818234093"><ele>555.0</ele><time>2026-04-11T14:08:01.928Z</time></trkpt><trkpt lat="44.459554245733614" lon="10.352279720954511"><ele>555.0</ele><time>2026-04-11T14:08:02.928Z</time></trkpt><trkpt lat="44.45947747976422" lon="10.352349500053377"><ele>555.0</ele><time>2026-04-11T14:08:03.928Z</time></trkpt><trkpt lat="44.45939929322767" lon="10.352417721067512"><ele>555.0</ele><time>2026-04-11T14:08:04.928Z</time></trkpt><trkpt lat="44.459313839286544" lon="10.352497436780205"><ele>555.0</ele><time>2026-04-11T14:08:05.928Z</time></trkpt><trkpt lat="44.4592303147166" lon="10.352569519920076"><ele>555.0</ele><time>2026-04-11T14:08:06.928Z</time></trkpt><trkpt lat="44.45915220512287" lon="10.35263774805782"><ele>555.0</ele><time>2026-04-11T14:08:07.928Z</time></trkpt><trkpt lat="44.45907068364505" lon="10.352712187627862"><ele>555.0</ele><time>2026-04-11T14:08:08.928Z</time></trkpt><trkpt lat="44.45899027436374" lon="10.352792574307957"><ele>555.0</ele><time>2026-04-11T14:08:09.928Z</time></trkpt><trkpt lat="44.458916606306055" lon="10.352885780224849"><ele>555.0</ele><time>2026-04-11T14:08:10.928Z</time></trkpt><trkpt lat="44.45884487175885" lon="10.352986632630975"><ele>555.0</ele><time>2026-04-11T14:08:11.928Z</time></trkpt><trkpt lat="44.45875730251208" lon="10.353058698741734"><ele>555.6</ele><time>2026-04-11T14:08:12.926Z</time></trkpt><trkpt lat="44.458658799702036" lon="10.35311174896207"><ele>556.2</ele><time>2026-04-11T14:08:13.926Z</time></trkpt><trkpt lat="44.45855455571824" lon="10.353136118079611"><ele>556.8</ele><time>2026-04-11T14:08:14.926Z</time></trkpt><trkpt lat="44.45843781783603" lon="10.353119538444124"><ele>557.4</ele><time>2026-04-11T14:08:15.926Z</time></trkpt><trkpt lat="44.458323276706906" lon="10.353099547554212"><ele>558.0</ele><time>2026-04-11T14:08:16.926Z</time></trkpt><trkpt lat="44.45820923171006" lon="10.353063266629468"><ele>555.25</ele><time>2026-04-11T14:08:17.926Z</time></trkpt><trkpt lat="44.4580928667909" lon="10.353031275293139"><ele>552.5</ele><time>2026-04-11T14:08:18.926Z</time></trkpt><trkpt lat="44.45797522473263" lon="10.353009506448911"><ele>549.75</ele><time>2026-04-11T14:08:19.926Z</time></trkpt><trkpt lat="44.45785710698527" lon="10.353017124411881"><ele>547.0</ele><time>2026-04-11T14:08:20.926Z</time></trkpt><trkpt lat="44.457734087774035" lon="10.35303054631286"><ele>549.75</ele><time>2026-04-11T14:08:21.926Z</time></trkpt><trkpt lat="44.45761004698215" lon="10.35304295902515"><ele>552.5</ele><time>2026-04-11T14:08:22.926Z</time></trkpt><trkpt lat="44.457485034750896" lon="10.3530403089235"><ele>555.25</ele><time>2026-04-11T14:08:23.926Z</time></trkpt><trkpt lat="44.457357737421965" lon="10.353041262543904"><ele>558.0</ele><time>2026-04-11T14:08:24.926Z</time></trkpt><trkpt lat="44.45722989843081" lon="10.353046442967253"><ele>559.5</ele><time>2026-04-11T14:08:25.926Z</time></trkpt><trkpt lat="44.45709732858356" lon="10.353052841683754"><ele>561.0</ele><time>2026-04-11T14:08:26.926Z</time></trkpt><trkpt lat="44.4569667925292" lon="10.353057312413496"><ele>562.5</ele><time>2026-04-11T14:08:27.926Z</time></trkpt><trkpt lat="44.4568393444186" lon="10.353059337246755"><ele>564.0</ele><time>2026-04-11T14:08:28.926Z</time></trkpt><trkpt lat="44.45673019871701" lon="10.353066437812027"><ele>564.0</ele><time>2026-04-11T14:08:29.926Z</time></trkpt><trkpt lat="44.45663191404113" lon="10.35308272310997"><ele>564.0</ele><time>2026-04-11T14:08:30.926Z</time></trkpt><trkpt lat="44.45653895912931" lon="10.353124410857427"><ele>564.0</ele><time>2026-04-11T14:08:31.926Z</time></trkpt><trkpt lat="44.456453188859996" lon="10.353197895122564"><ele>564.0</ele><time>2026-04-11T14:08:32.926Z</time></trkpt><trkpt lat="44.45638539826893" lon="10.353301945614568"><ele>564.0</ele><time>2026-04-11T14:08:33.926Z</time></trkpt><trkpt lat="44.45633798697891" lon="10.353445844912143"><ele>564.0</ele><time>2026-04-11T14:08:34.926Z</time></trkpt><trkpt lat="44.45630539225229" lon="10.353607405662759"><ele>564.0</ele><time>2026-04-11T14:08:35.926Z</time></trkpt><trkpt lat="44.45627787571062" lon="10.35378040704198"><ele>564.0</ele><time>2026-04-11T14:08:36.926Z</time></trkpt><trkpt lat="44.45625836265306" lon="10.35397662067973"><ele>564.0</ele><time>2026-04-11T14:08:37.926Z</time></trkpt><trkpt lat="44.45622976863055" lon="10.35417561963883"><ele>564.0</ele><time>2026-04-11T14:08:38.926Z</time></trkpt><trkpt lat="44.45619446582381" lon="10.354379641595447"><ele>564.0</ele><time>2026-04-11T14:08:39.926Z</time></trkpt><trkpt lat="44.456158677133224" lon="10.354585171715696"><ele>564.0</ele><time>2026-04-11T14:08:40.926Z</time></trkpt><trkpt lat="44.456125631040784" lon="10.354791827783918"><ele>564.0</ele><time>2026-04-11T14:08:41.926Z</time></trkpt><trkpt lat="44.45609505271071" lon="10.35499735647146"><ele>564.0</ele><time>2026-04-11T14:08:42.926Z</time></trkpt><trkpt lat="44.456065568074806" lon="10.355176348488845"><ele>564.0</ele><time>2026-04-11T14:08:43.926Z</time></trkpt><trkpt lat="44.45603451772385" lon="10.355343690708072"><ele>564.0</ele><time>2026-04-11T14:08:44.926Z</time></trkpt><trkpt lat="44.45598173501244" lon="10.355498803631207"><ele>566.0</ele><time>2026-04-11T14:08:45.926Z</time></trkpt><trkpt lat="44.45589625936487" lon="10.355638695615418"><ele>568.0</ele><time>2026-04-11T14:08:46.926Z</time></trkpt><trkpt lat="44.45580757509773" lon="10.35576325058851"><ele>570.0</ele><time>2026-04-11T14:08:47.926Z</time></trkpt><trkpt lat="44.455726795769394" lon="10.355885876084798"><ele>572.0</ele><time>2026-04-11T14:08:48.926Z</time></trkpt><trkpt lat="44.45566991741507" lon="10.35600984339728"><ele>572.0</ele><time>2026-04-11T14:08:49.926Z</time></trkpt><trkpt lat="44.455638835933776" lon="10.356148923671515"><ele>572.0</ele><time>2026-04-11T14:08:50.926Z</time></trkpt><trkpt lat="44.45564280113566" lon="10.356321972846672"><ele>572.0</ele><time>2026-04-11T14:08:51.926Z</time></trkpt><trkpt lat="44.45565911458159" lon="10.356502279391929"><ele>572.0</ele><time>2026-04-11T14:08:52.926Z</time></trkpt><trkpt lat="44.45566477263922" lon="10.3566771501436"><ele>572.5</ele><time>2026-04-11T14:08:53.926Z</time></trkpt><trkpt lat="44.45567175097406" lon="10.356852429792768"><ele>573.0</ele><time>2026-04-11T14:08:54.926Z</time></trkpt><trkpt lat="44.4556558579508" lon="10.357029636785752"><ele>573.5</ele><time>2026-04-11T14:08:55.927Z</time></trkpt><trkpt lat="44.45559749341232" lon="10.35721017096797"><ele>574.0</ele><time>2026-04-11T14:08:56.927Z</time></trkpt><trkpt lat="44.45550952049705" lon="10.357376605533767"><ele>572.0</ele><time>2026-04-11T14:08:57.927Z</time></trkpt><trkpt lat="44.45542874560752" lon="10.35754150190376"><ele>570.0</ele><time>2026-04-11T14:08:58.927Z</time></trkpt><trkpt lat="44.455351052495516" lon="10.35769067464059"><ele>568.0</ele><time>2026-04-11T14:08:59.927Z</time></trkpt><trkpt lat="44.45526951255848" lon="10.357820974056981"><ele>566.0</ele><time>2026-04-11T14:09:00.927Z</time></trkpt><trkpt lat="44.4551761217406" lon="10.357928835220921"><ele>566.0</ele><time>2026-04-11T14:09:01.927Z</time></trkpt><trkpt lat="44.45506182508657" lon="10.357994317631153"><ele>566.0</ele><time>2026-04-11T14:09:02.927Z</time></trkpt><trkpt lat="44.454942540565355" lon="10.358024723992672"><ele>566.0</ele><time>2026-04-11T14:09:03.927Z</time></trkpt><trkpt lat="44.45483745975259" lon="10.3580610825548"><ele>566.0</ele><time>2026-04-11T14:09:04.927Z</time></trkpt><trkpt lat="44.45474185128134" lon="10.358107065493474"><ele>566.6</ele><time>2026-04-11T14:09:05.927Z</time></trkpt><trkpt lat="44.454657034558586" lon="10.358173639523827"><ele>567.2</ele><time>2026-04-11T14:09:06.927Z</time></trkpt><trkpt lat="44.45458326387299" lon="10.358265521209136"><ele>567.8</ele><time>2026-04-11T14:09:07.927Z</time></trkpt><trkpt lat="44.454532747454834" lon="10.358399257533483"><ele>568.4</ele><time>2026-04-11T14:09:08.927Z</time></trkpt><trkpt lat="44.4545006455863" lon="10.35856198814303"><ele>569.0</ele><time>2026-04-11T14:09:09.927Z</time></trkpt><trkpt lat="44.45447238737721" lon="10.358733396111642"><ele>570.75</ele><time>2026-04-11T14:09:10.927Z</time></trkpt><trkpt lat="44.4544695409976" lon="10.358912658926558"><ele>572.5</ele><time>2026-04-11T14:09:11.927Z</time></trkpt><trkpt lat="44.45447334209534" lon="10.359096832905594"><ele>574.25</ele><time>2026-04-11T14:09:12.927Z</time></trkpt><trkpt lat="44.454477091244534" lon="10.359264597974635"><ele>576.0</ele><time>2026-04-11T14:09:13.927Z</time></trkpt><trkpt lat="44.4544633650516" lon="10.359414337028758"><ele>576.0</ele><time>2026-04-11T14:09:14.927Z</time></trkpt><trkpt lat="44.454417661187236" lon="10.35955548629142"><ele>576.0</ele><time>2026-04-11T14:09:15.927Z</time></trkpt><trkpt lat="44.45432554934478" lon="10.359690186785153"><ele>576.0</ele><time>2026-04-11T14:09:16.927Z</time></trkpt><trkpt lat="44.454225299251654" lon="10.359819891060432"><ele>576.0</ele><time>2026-04-11T14:09:17.927Z</time></trkpt><trkpt lat="44.45411123405504" lon="10.359945473781224"><ele>577.5</ele><time>2026-04-11T14:09:18.927Z</time></trkpt><trkpt lat="44.45400374334802" lon="10.360080448515369"><ele>579.0</ele><time>2026-04-11T14:09:19.927Z</time></trkpt><trkpt lat="44.45389383557028" lon="10.360231413425167"><ele>580.5</ele><time>2026-04-11T14:09:20.927Z</time></trkpt><trkpt lat="44.45378738038159" lon="10.360368874079855"><ele>582.0</ele><time>2026-04-11T14:09:21.927Z</time></trkpt><trkpt lat="44.45368891224449" lon="10.360482186394956"><ele>586.0</ele><time>2026-04-11T14:09:22.927Z</time></trkpt><trkpt lat="44.45358379638624" lon="10.360578314114074"><ele>590.0</ele><time>2026-04-11T14:09:23.927Z</time></trkpt><trkpt lat="44.4534723763843" lon="10.360645776974241"><ele>594.0</ele><time>2026-04-11T14:09:24.927Z</time></trkpt><trkpt lat="44.453364161007755" lon="10.360705243866379"><ele>598.0</ele><time>2026-04-11T14:09:25.927Z</time></trkpt><trkpt lat="44.45327160844951" lon="10.360773158548037"><ele>598.0</ele><time>2026-04-11T14:09:26.927Z</time></trkpt><trkpt lat="44.45319807322476" lon="10.360870052854619"><ele>598.0</ele><time>2026-04-11T14:09:27.927Z</time></trkpt><trkpt lat="44.45313418226463" lon="10.361014320026007"><ele>598.0</ele><time>2026-04-11T14:09:28.927Z</time></trkpt><trkpt lat="44.453071160440196" lon="10.361182016649938"><ele>598.0</ele><time>2026-04-11T14:09:29.927Z</time></trkpt><trkpt lat="44.453015012214195" lon="10.361370805550779"><ele>597.0</ele><time>2026-04-11T14:09:30.927Z</time></trkpt><trkpt lat="44.452951156159784" lon="10.361558656863927"><ele>596.0</ele><time>2026-04-11T14:09:31.927Z</time></trkpt><trkpt lat="44.452885914425956" lon="10.361748518812178"><ele>595.0</ele><time>2026-04-11T14:09:32.927Z</time></trkpt><trkpt lat="44.4528155889473" lon="10.36193521117958"><ele>595.0</ele><time>2026-04-11T14:09:33.927Z</time></trkpt><trkpt lat="44.45275055802188" lon="10.362118173947723"><ele>595.0</ele><time>2026-04-11T14:09:34.927Z</time></trkpt><trkpt lat="44.45269781227883" lon="10.36230446999618"><ele>595.0</ele><time>2026-04-11T14:09:35.927Z</time></trkpt><trkpt lat="44.4526524688431" lon="10.362499095993496"><ele>595.0</ele><time>2026-04-11T14:09:36.927Z</time></trkpt><trkpt lat="44.452621302217004" lon="10.362709636037678"><ele>597.0</ele><time>2026-04-11T14:09:37.927Z</time></trkpt><trkpt lat="44.45259169572324" lon="10.362918806565073"><ele>599.0</ele><time>2026-04-11T14:09:38.927Z</time></trkpt><trkpt lat="44.452555918249175" lon="10.363114626110693"><ele>601.0</ele><time>2026-04-11T14:09:39.927Z</time></trkpt><trkpt lat="44.452514744833394" lon="10.363308198471724"><ele>603.0</ele><time>2026-04-11T14:09:40.927Z</time></trkpt><trkpt lat="44.452448757051556" lon="10.363484952592337"><ele>607.5</ele><time>2026-04-11T14:09:41.927Z</time></trkpt><trkpt lat="44.452376131759955" lon="10.363656939985171"><ele>612.0</ele><time>2026-04-11T14:09:42.927Z</time></trkpt><trkpt lat="44.45229965658977" lon="10.36379148823092"><ele>616.5</ele><time>2026-04-11T14:09:43.927Z</time></trkpt><trkpt lat="44.45222799043222" lon="10.363903445224796"><ele>621.0</ele><time>2026-04-11T14:09:44.927Z</time></trkpt><trkpt lat="44.45214418790702" lon="10.363983471977557"><ele>621.0</ele><time>2026-04-11T14:09:45.927Z</time></trkpt><trkpt lat="44.45202995303365" lon="10.364015082483505"><ele>621.0</ele><time>2026-04-11T14:09:46.927Z</time></trkpt><trkpt lat="44.451901532028835" lon="10.364017143286969"><ele>621.0</ele><time>2026-04-11T14:09:47.927Z</time></trkpt><trkpt lat="44.45178705018228" lon="10.364016256246334"><ele>621.0</ele><time>2026-04-11T14:09:48.927Z</time></trkpt><trkpt lat="44.45169932933831" lon="10.364032509401126"><ele>621.0</ele><time>2026-04-11T14:09:49.927Z</time></trkpt><trkpt lat="44.45163206359917" lon="10.36408400842363"><ele>621.0</ele><time>2026-04-11T14:09:50.927Z</time></trkpt><trkpt lat="44.451586230782326" lon="10.364168488489724"><ele>621.0</ele><time>2026-04-11T14:09:51.927Z</time></trkpt><trkpt lat="44.45158635641831" lon="10.364283545570235"><ele>621.0</ele><time>2026-04-11T14:09:52.927Z</time></trkpt><trkpt lat="44.45164557471959" lon="10.364402058320044"><ele>621.0</ele><time>2026-04-11T14:09:53.927Z</time></trkpt><trkpt lat="44.45174743205275" lon="10.364515679247221"><ele>621.0</ele><time>2026-04-11T14:09:54.927Z</time></trkpt><trkpt lat="44.45184875584654" lon="10.364635774899229"><ele>620.5</ele><time>2026-04-11T14:09:55.927Z</time></trkpt><trkpt lat="44.45194960613212" lon="10.36476991670435"><ele>620.0</ele><time>2026-04-11T14:09:56.927Z</time></trkpt><trkpt lat="44.452044317791824" lon="10.364908424387073"><ele>619.5</ele><time>2026-04-11T14:09:57.927Z</time></trkpt><trkpt lat="44.45214319482909" lon="10.365067265377148"><ele>619.0</ele><time>2026-04-11T14:09:58.927Z</time></trkpt><trkpt lat="44.45223674015155" lon="10.3652412291575"><ele>625.6666666666667</ele><time>2026-04-11T14:09:59.927Z</time></trkpt><trkpt lat="44.4523005946819" lon="10.36544239708377"><ele>632.3333333333334</ele><time>2026-04-11T14:10:00.927Z</time></trkpt><trkpt lat="44.45235297174073" lon="10.36567375606957"><ele>639.0</ele><time>2026-04-11T14:10:01.927Z</time></trkpt><trkpt lat="44.452407219325245" lon="10.365898358998399"><ele>639.0</ele><time>2026-04-11T14:10:02.927Z</time></trkpt><trkpt lat="44.45246571744087" lon="10.36610824552522"><ele>639.0</ele><time>2026-04-11T14:10:03.927Z</time></trkpt><trkpt lat="44.45253707875693" lon="10.366299059096468"><ele>639.0</ele><time>2026-04-11T14:10:04.927Z</time></trkpt><trkpt lat="44.452625652141215" lon="10.366463774643641"><ele>632.6666666666666</ele><time>2026-04-11T14:10:05.927Z</time></trkpt><trkpt lat="44.452736530115146" lon="10.366623178357685"><ele>626.3333333333333</ele><time>2026-04-11T14:10:06.927Z</time></trkpt><trkpt lat="44.45285676974528" lon="10.366760432832622"><ele>620.0</ele><time>2026-04-11T14:10:07.927Z</time></trkpt><trkpt lat="44.452958119819186" lon="10.366891695411038"><ele>628.25</ele><time>2026-04-11T14:10:08.927Z</time></trkpt><trkpt lat="44.453041244491445" lon="10.36704195691599"><ele>636.5</ele><time>2026-04-11T14:10:09.927Z</time></trkpt><trkpt lat="44.45309430103411" lon="10.367234271950446"><ele>644.75</ele><time>2026-04-11T14:10:10.927Z</time></trkpt><trkpt lat="44.45311694947576" lon="10.367442752188726"><ele>653.0</ele><time>2026-04-11T14:10:11.927Z</time></trkpt><trkpt lat="44.45313384115583" lon="10.367657585650893"><ele>653.0</ele><time>2026-04-11T14:10:12.927Z</time></trkpt><trkpt lat="44.453159719608635" lon="10.367870603325118"><ele>653.0</ele><time>2026-04-11T14:10:13.927Z</time></trkpt><trkpt lat="44.453176883752015" lon="10.368102992613633"><ele>653.0</ele><time>2026-04-11T14:10:14.927Z</time></trkpt><trkpt lat="44.45317981520129" lon="10.368336120821743"><ele>653.6666666666666</ele><time>2026-04-11T14:10:15.927Z</time></trkpt><trkpt lat="44.453169458004304" lon="10.368563205259322"><ele>654.3333333333334</ele><time>2026-04-11T14:10:16.927Z</time></trkpt><trkpt lat="44.453163509752294" lon="10.368777479561388"><ele>655.0</ele><time>2026-04-11T14:10:17.927Z</time></trkpt><trkpt lat="44.45315997643357" lon="10.368966717419003"><ele>653.75</ele><time>2026-04-11T14:10:18.926Z</time></trkpt><trkpt lat="44.45317966097869" lon="10.369147361997678"><ele>652.5</ele><time>2026-04-11T14:10:19.925Z</time></trkpt><trkpt lat="44.45322410690079" lon="10.369316437781185"><ele>651.25</ele><time>2026-04-11T14:10:20.925Z</time></trkpt><trkpt lat="44.45328122035728" lon="10.369459506227772"><ele>650.0</ele><time>2026-04-11T14:10:21.926Z</time></trkpt><trkpt lat="44.453358678075034" lon="10.369588946788964"><ele>643.0</ele><time>2026-04-11T14:10:22.926Z</time></trkpt><trkpt lat="44.45347352699058" lon="10.369706155384293"><ele>636.0</ele><time>2026-04-11T14:10:23.926Z</time></trkpt><trkpt lat="44.45360648317707" lon="10.369812803435474"><ele>629.0</ele><time>2026-04-11T14:10:24.926Z</time></trkpt><trkpt lat="44.45376023147609" lon="10.369912806315915"><ele>641.3333333333333</ele><time>2026-04-11T14:10:25.925Z</time></trkpt><trkpt lat="44.45391809081579" lon="10.37002995073318"><ele>653.6666666666666</ele><time>2026-04-11T14:10:26.925Z</time></trkpt><trkpt lat="44.45405544722895" lon="10.37018473308007"><ele>666.0</ele><time>2026-04-11T14:10:27.926Z</time></trkpt><trkpt lat="44.4541881767267" lon="10.37035462776368"><ele>666.0</ele><time>2026-04-11T14:10:28.926Z</time></trkpt><trkpt lat="44.45431166185705" lon="10.370521557930362"><ele>666.0</ele><time>2026-04-11T14:10:29.926Z</time></trkpt><trkpt lat="44.45443210132627" lon="10.370651684602247"><ele>666.0</ele><time>2026-04-11T14:10:30.925Z</time></trkpt><trkpt lat="44.454558666280676" lon="10.370755146735672"><ele>661.8</ele><time>2026-04-11T14:10:31.926Z</time></trkpt><trkpt lat="44.454674298566886" lon="10.370825083560295"><ele>657.5999999999999</ele><time>2026-04-11T14:10:32.926Z</time></trkpt><trkpt lat="44.4547778041186" lon="10.370871584885336"><ele>653.4</ele><time>2026-04-11T14:10:33.926Z</time></trkpt><trkpt lat="44.45487530420557" lon="10.37085743044945"><ele>649.2</ele><time>2026-04-11T14:10:34.926Z</time></trkpt><trkpt lat="44.454952745279215" lon="10.370816139334302"><ele>645.0</ele><time>2026-04-11T14:10:35.926Z</time></trkpt><trkpt lat="44.455030414309654" lon="10.370731373310358"><ele>645.0</ele><time>2026-04-11T14:10:36.926Z</time></trkpt><trkpt lat="44.45510111405581" lon="10.370607359396512"><ele>645.0</ele><time>2026-04-11T14:10:37.926Z</time></trkpt><trkpt lat="44.45518556525706" lon="10.37044089442148"><ele>645.0</ele><time>2026-04-11T14:10:38.926Z</time></trkpt><trkpt lat="44.45525495680049" lon="10.370325164944301"><ele>645.0</ele><time>2026-04-11T14:10:39.926Z</time></trkpt><trkpt lat="44.45531139957826" lon="10.370235300551464"><ele>650.75</ele><time>2026-04-11T14:10:40.926Z</time></trkpt><trkpt lat="44.45540166293372" lon="10.370184731261752"><ele>656.5</ele><time>2026-04-11T14:10:41.926Z</time></trkpt><trkpt lat="44.45549674962808" lon="10.370196043474024"><ele>662.25</ele><time>2026-04-11T14:10:42.926Z</time></trkpt><trkpt lat="44.45560399509995" lon="10.370300847170885"><ele>668.0</ele><time>2026-04-11T14:10:43.926Z</time></trkpt><trkpt lat="44.45569664663737" lon="10.370427910224912"><ele>663.25</ele><time>2026-04-11T14:10:44.926Z</time></trkpt><trkpt lat="44.45577636227138" lon="10.370567125700639"><ele>658.5</ele><time>2026-04-11T14:10:45.926Z</time></trkpt><trkpt lat="44.45587187013603" lon="10.370719761710006"><ele>653.75</ele><time>2026-04-11T14:10:46.926Z</time></trkpt><trkpt lat="44.455980255433616" lon="10.370889089704656"><ele>649.0</ele><time>2026-04-11T14:10:47.926Z</time></trkpt><trkpt lat="44.456096229491955" lon="10.371053740707378"><ele>649.0</ele><time>2026-04-11T14:10:48.926Z</time></trkpt><trkpt lat="44.45620034849604" lon="10.371207866212668"><ele>649.0</ele><time>2026-04-11T14:10:49.926Z</time></trkpt><trkpt lat="44.45629304089043" lon="10.371344952679168"><ele>649.0</ele><time>2026-04-11T14:10:50.926Z</time></trkpt><trkpt lat="44.45637330168837" lon="10.371461102700296"><ele>649.0</ele><time>2026-04-11T14:10:51.926Z</time></trkpt><trkpt lat="44.45645729177282" lon="10.371545265446091"><ele>648.75</ele><time>2026-04-11T14:10:52.926Z</time></trkpt><trkpt lat="44.45655085910703" lon="10.37160637107084"><ele>648.5</ele><time>2026-04-11T14:10:53.926Z</time></trkpt><trkpt lat="44.456655987636545" lon="10.371624640287639"><ele>648.25</ele><time>2026-04-11T14:10:54.926Z</time></trkpt><trkpt lat="44.456768036029665" lon="10.371598331987837"><ele>648.0</ele><time>2026-04-11T14:10:55.926Z</time></trkpt><trkpt lat="44.456922366659875" lon="10.371570420712017"><ele>648.0</ele><time>2026-04-11T14:10:56.926Z</time></trkpt><trkpt lat="44.457050643755665" lon="10.371566988482842"><ele>648.0</ele><time>2026-04-11T14:10:57.926Z</time></trkpt><trkpt lat="44.457167443102136" lon="10.371676896387749"><ele>648.0</ele><time>2026-04-11T14:10:58.926Z</time></trkpt><trkpt lat="44.45726686749082" lon="10.371814396014656"><ele>648.0</ele><time>2026-04-11T14:10:59.926Z</time></trkpt><trkpt lat="44.45733729957885" lon="10.371940622734403"><ele>651.25</ele><time>2026-04-11T14:11:00.926Z</time></trkpt><trkpt lat="44.45743696426086" lon="10.372025786873161"><ele>654.5</ele><time>2026-04-11T14:11:01.926Z</time></trkpt><trkpt lat="44.45754978102399" lon="10.3720743468827"><ele>657.75</ele><time>2026-04-11T14:11:02.926Z</time></trkpt><trkpt lat="44.4576700636111" lon="10.372103727241466"><ele>661.0</ele><time>2026-04-11T14:11:03.926Z</time></trkpt><trkpt lat="44.457836960177985" lon="10.372113350523104"><ele>665.0</ele><time>2026-04-11T14:11:04.926Z</time></trkpt><trkpt lat="44.458045917282035" lon="10.37209078845867"><ele>669.0</ele><time>2026-04-11T14:11:05.926Z</time></trkpt><trkpt lat="44.458236177111495" lon="10.372091289659537"><ele>673.0</ele><time>2026-04-11T14:11:06.926Z</time></trkpt><trkpt lat="44.45840091587718" lon="10.372102789724906"><ele>673.0</ele><time>2026-04-11T14:11:07.926Z</time></trkpt><trkpt lat="44.45854328135448" lon="10.37211665408713"><ele>673.0</ele><time>2026-04-11T14:11:08.926Z</time></trkpt><trkpt lat="44.45866618250123" lon="10.372134632399046"><ele>673.0</ele><time>2026-04-11T14:11:09.926Z</time></trkpt><trkpt lat="44.45876483865852" lon="10.37216475192971"><ele>673.0</ele><time>2026-04-11T14:11:10.926Z</time></trkpt><trkpt lat="44.458830945542886" lon="10.37223636583457"><ele>672.0</ele><time>2026-04-11T14:11:11.926Z</time></trkpt><trkpt lat="44.45887851594368" lon="10.372370567637473"><ele>671.0</ele><time>2026-04-11T14:11:12.926Z</time></trkpt><trkpt lat="44.45888561604614" lon="10.372564880295519"><ele>670.0</ele><time>2026-04-11T14:11:13.926Z</time></trkpt><trkpt lat="44.458843640882606" lon="10.372732296776656"><ele>669.0</ele><time>2026-04-11T14:11:14.926Z</time></trkpt><trkpt lat="44.458789429046035" lon="10.372906148145642"><ele>667.5</ele><time>2026-04-11T14:11:15.926Z</time></trkpt><trkpt lat="44.45874503962585" lon="10.373095078919444"><ele>666.0</ele><time>2026-04-11T14:11:16.926Z</time></trkpt><trkpt lat="44.45870699358648" lon="10.373291023360302"><ele>664.5</ele><time>2026-04-11T14:11:17.926Z</time></trkpt><trkpt lat="44.45867007671235" lon="10.373457229079579"><ele>663.0</ele><time>2026-04-11T14:11:18.926Z</time></trkpt><trkpt lat="44.458632099188904" lon="10.373597731305"><ele>663.0</ele><time>2026-04-11T14:11:19.926Z</time></trkpt><trkpt lat="44.45857229215639" lon="10.373724405520441"><ele>663.0</ele><time>2026-04-11T14:11:20.926Z</time></trkpt><trkpt lat="44.458480597300834" lon="10.373821377051677"><ele>663.0</ele><time>2026-04-11T14:11:21.926Z</time></trkpt><trkpt lat="44.458376211420116" lon="10.373876645422845"><ele>663.0</ele><time>2026-04-11T14:11:22.926Z</time></trkpt><trkpt lat="44.45824618389262" lon="10.373866444185353"><ele>663.0</ele><time>2026-04-11T14:11:23.926Z</time></trkpt><trkpt lat="44.4581017704522" lon="10.373830897609034"><ele>663.0</ele><time>2026-04-11T14:11:24.926Z</time></trkpt><trkpt lat="44.45796715900472" lon="10.373795182135707"><ele>663.0</ele><time>2026-04-11T14:11:25.926Z</time></trkpt><trkpt lat="44.457792016741806" lon="10.37376741216453"><ele>661.6666666666666</ele><time>2026-04-11T14:11:26.926Z</time></trkpt><trkpt lat="44.45761278963342" lon="10.373766723179584"><ele>660.3333333333333</ele><time>2026-04-11T14:11:27.926Z</time></trkpt><trkpt lat="44.45743968197424" lon="10.373766485309043"><ele>659.0</ele><time>2026-04-11T14:11:28.926Z</time></trkpt><trkpt lat="44.457295977674605" lon="10.373766115970447"><ele>659.0</ele><time>2026-04-11T14:11:29.926Z</time></trkpt><trkpt lat="44.45716674852688" lon="10.373763227940564"><ele>659.0</ele><time>2026-04-11T14:11:30.926Z</time></trkpt><trkpt lat="44.45704708081044" lon="10.373776388492736"><ele>659.0</ele><time>2026-04-11T14:11:31.926Z</time></trkpt><trkpt lat="44.45691596430395" lon="10.37382374152494"><ele>659.0</ele><time>2026-04-11T14:11:32.926Z</time></trkpt><trkpt lat="44.4567970461802" lon="10.37392810209943"><ele>662.0</ele><time>2026-04-11T14:11:33.926Z</time></trkpt><trkpt lat="44.45671841045443" lon="10.374060723367862"><ele>665.0</ele><time>2026-04-11T14:11:34.926Z</time></trkpt><trkpt lat="44.45665881404373" lon="10.374174231343277"><ele>668.0</ele><time>2026-04-11T14:11:35.926Z</time></trkpt><trkpt lat="44.45662454642377" lon="10.374280844643039"><ele>671.0</ele><time>2026-04-11T14:11:36.926Z</time></trkpt><trkpt lat="44.45662971069512" lon="10.374406506515482"><ele>674.0</ele><time>2026-04-11T14:11:37.926Z</time></trkpt><trkpt lat="44.45667470480183" lon="10.374525153665616"><ele>675.0</ele><time>2026-04-11T14:11:38.926Z</time></trkpt><trkpt lat="44.45674991751632" lon="10.374698058047903"><ele>676.0</ele><time>2026-04-11T14:11:39.926Z</time></trkpt><trkpt lat="44.45682445449845" lon="10.374909057775511"><ele>677.0</ele><time>2026-04-11T14:11:40.926Z</time></trkpt><trkpt lat="44.45690721363879" lon="10.375105437838766"><ele>677.0</ele><time>2026-04-11T14:11:41.926Z</time></trkpt><trkpt lat="44.45697128712772" lon="10.375301882926594"><ele>677.0</ele><time>2026-04-11T14:11:42.926Z</time></trkpt><trkpt lat="44.45703768512678" lon="10.375500209434252"><ele>677.0</ele><time>2026-04-11T14:11:43.926Z</time></trkpt><trkpt lat="44.45710789771879" lon="10.375699805441393"><ele>679.3333333333333</ele><time>2026-04-11T14:11:44.926Z</time></trkpt><trkpt lat="44.457174300422366" lon="10.37590267653534"><ele>681.6666666666666</ele><time>2026-04-11T14:11:45.926Z</time></trkpt><trkpt lat="44.45724657939197" lon="10.376103841477502"><ele>684.0</ele><time>2026-04-11T14:11:46.926Z</time></trkpt><trkpt lat="44.45731514675228" lon="10.376309103039832"><ele>682.6666666666666</ele><time>2026-04-11T14:11:47.926Z</time></trkpt><trkpt lat="44.45738724792304" lon="10.376511214334032"><ele>681.3333333333333</ele><time>2026-04-11T14:11:48.926Z</time></trkpt><trkpt lat="44.45745685437762" lon="10.37671065781302"><ele>680.0</ele><time>2026-04-11T14:11:49.926Z</time></trkpt><trkpt lat="44.45752211481651" lon="10.376904157865615"><ele>680.0</ele><time>2026-04-11T14:11:50.926Z</time></trkpt><trkpt lat="44.45758432599146" lon="10.377081863350655"><ele>680.0</ele><time>2026-04-11T14:11:51.926Z</time></trkpt><trkpt lat="44.45764294962813" lon="10.377245132171193"><ele>680.0</ele><time>2026-04-11T14:11:52.926Z</time></trkpt><trkpt lat="44.45770325476281" lon="10.377398464937015"><ele>680.0</ele><time>2026-04-11T14:11:53.926Z</time></trkpt><trkpt lat="44.45778455240113" lon="10.377544586735235"><ele>679.25</ele><time>2026-04-11T14:11:54.927Z</time></trkpt><trkpt lat="44.45789123885929" lon="10.377678018692995"><ele>678.5</ele><time>2026-04-11T14:11:55.927Z</time></trkpt><trkpt lat="44.45800912312884" lon="10.377814408754084"><ele>677.75</ele><time>2026-04-11T14:11:56.927Z</time></trkpt><trkpt lat="44.458129032464264" lon="10.377948320610269"><ele>677.0</ele><time>2026-04-11T14:11:57.927Z</time></trkpt><trkpt lat="44.458250260640064" lon="10.378083543354489"><ele>675.5</ele><time>2026-04-11T14:11:58.927Z</time></trkpt><trkpt lat="44.45836658400696" lon="10.378222390386252"><ele>674.0</ele><time>2026-04-11T14:11:59.927Z</time></trkpt><trkpt lat="44.458480025093266" lon="10.3783571654323"><ele>672.5</ele><time>2026-04-11T14:12:00.927Z</time></trkpt><trkpt lat="44.458582937469686" lon="10.378500154170528"><ele>671.0</ele><time>2026-04-11T14:12:01.927Z</time></trkpt><trkpt lat="44.45867541374985" lon="10.378655936544028"><ele>671.0</ele><time>2026-04-11T14:12:02.927Z</time></trkpt><trkpt lat="44.45875003865514" lon="10.37882525425399"><ele>671.0</ele><time>2026-04-11T14:12:03.927Z</time></trkpt><trkpt lat="44.45881554630597" lon="10.379004612604115"><ele>671.0</ele><time>2026-04-11T14:12:04.927Z</time></trkpt><trkpt lat="44.45887913477597" lon="10.379183650691463"><ele>671.0</ele><time>2026-04-11T14:12:05.927Z</time></trkpt><trkpt lat="44.45894566559918" lon="10.37936011456781"><ele>671.75</ele><time>2026-04-11T14:12:06.927Z</time></trkpt><trkpt lat="44.45901173044969" lon="10.379533122022558"><ele>672.5</ele><time>2026-04-11T14:12:07.927Z</time></trkpt><trkpt lat="44.4590640554223" lon="10.379707077498814"><ele>673.25</ele><time>2026-04-11T14:12:08.927Z</time></trkpt><trkpt lat="44.45909114300515" lon="10.379892138999772"><ele>674.0</ele><time>2026-04-11T14:12:09.927Z</time></trkpt><trkpt lat="44.4590903367438" lon="10.380078978292515"><ele>674.0</ele><time>2026-04-11T14:12:10.927Z</time></trkpt><trkpt lat="44.45906754862601" lon="10.380269777419672"><ele>674.0</ele><time>2026-04-11T14:12:11.927Z</time></trkpt><trkpt lat="44.45903757098213" lon="10.380447717034118"><ele>674.0</ele><time>2026-04-11T14:12:12.927Z</time></trkpt><trkpt lat="44.45900308360057" lon="10.380599728432964"><ele>674.0</ele><time>2026-04-11T14:12:13.927Z</time></trkpt><trkpt lat="44.458958815027486" lon="10.38074950309902"><ele>674.0</ele><time>2026-04-11T14:12:14.927Z</time></trkpt><trkpt lat="44.45888023262116" lon="10.38087201067999"><ele>674.0</ele><time>2026-04-11T14:12:15.927Z</time></trkpt><trkpt lat="44.458785614836756" lon="10.380973666183477"><ele>674.0</ele><time>2026-04-11T14:12:16.927Z</time></trkpt><trkpt lat="44.45867872615893" lon="10.381072912523601"><ele>674.0</ele><time>2026-04-11T14:12:17.927Z</time></trkpt><trkpt lat="44.458574031499516" lon="10.381181144450485"><ele>674.0</ele><time>2026-04-11T14:12:18.927Z</time></trkpt><trkpt lat="44.45848701640728" lon="10.381268919256662"><ele>674.0</ele><time>2026-04-11T14:12:19.927Z</time></trkpt><trkpt lat="44.45841704701133" lon="10.381354519000494"><ele>674.0</ele><time>2026-04-11T14:12:20.927Z</time></trkpt><trkpt lat="44.45836930804617" lon="10.381461676812025"><ele>674.0</ele><time>2026-04-11T14:12:21.927Z</time></trkpt><trkpt lat="44.45835197833302" lon="10.381594101736997"><ele>674.0</ele><time>2026-04-11T14:12:22.927Z</time></trkpt><trkpt lat="44.45836707926889" lon="10.381757960426905"><ele>674.5</ele><time>2026-04-11T14:12:23.927Z</time></trkpt><trkpt lat="44.458379585160955" lon="10.381924097021708"><ele>675.0</ele><time>2026-04-11T14:12:24.925Z</time></trkpt><trkpt lat="44.45839194392842" lon="10.382088381597335"><ele>675.5</ele><time>2026-04-11T14:12:25.925Z</time></trkpt><trkpt lat="44.45839840466502" lon="10.3822459478464"><ele>676.0</ele><time>2026-04-11T14:12:26.925Z</time></trkpt><trkpt lat="44.458395935606454" lon="10.382396545302043"><ele>674.25</ele><time>2026-04-11T14:12:27.925Z</time></trkpt><trkpt lat="44.45836486392498" lon="10.382538577071225"><ele>672.5</ele><time>2026-04-11T14:12:28.925Z</time></trkpt><trkpt lat="44.45830491390953" lon="10.382671168907708"><ele>670.75</ele><time>2026-04-11T14:12:29.925Z</time></trkpt><trkpt lat="44.45821505784897" lon="10.382804752450957"><ele>669.0</ele><time>2026-04-11T14:12:30.925Z</time></trkpt><trkpt lat="44.45810926545457" lon="10.382948821842904"><ele>668.75</ele><time>2026-04-11T14:12:31.926Z</time></trkpt><trkpt lat="44.458011292605896" lon="10.38309163810837"><ele>668.5</ele><time>2026-04-11T14:12:32.926Z</time></trkpt><trkpt lat="44.457919402949564" lon="10.38323236885645"><ele>668.25</ele><time>2026-04-11T14:12:33.925Z</time></trkpt><trkpt lat="44.45783648441424" lon="10.383369302614248"><ele>668.0</ele><time>2026-04-11T14:12:34.925Z</time></trkpt><trkpt lat="44.457758219385674" lon="10.383501885180197"><ele>668.0</ele><time>2026-04-11T14:12:35.925Z</time></trkpt><trkpt lat="44.45768877008482" lon="10.383625070342847"><ele>668.0</ele><time>2026-04-11T14:12:36.925Z</time></trkpt><trkpt lat="44.45763646963085" lon="10.383752867952056"><ele>668.0</ele><time>2026-04-11T14:12:37.925Z</time></trkpt><trkpt lat="44.45759822017901" lon="10.38390293903028"><ele>668.0</ele><time>2026-04-11T14:12:38.925Z</time></trkpt><trkpt lat="44.457580885081825" lon="10.384076931764614"><ele>667.25</ele><time>2026-04-11T14:12:39.925Z</time></trkpt><trkpt lat="44.4575927166979" lon="10.384253076159473"><ele>666.5</ele><time>2026-04-11T14:12:40.925Z</time></trkpt><trkpt lat="44.45760333926074" lon="10.384443983700107"><ele>665.75</ele><time>2026-04-11T14:12:41.925Z</time></trkpt><trkpt lat="44.45760665597846" lon="10.384607732367792"><ele>665.0</ele><time>2026-04-11T14:12:42.925Z</time></trkpt><trkpt lat="44.45760110569288" lon="10.384747235338995"><ele>661.6</ele><time>2026-04-11T14:12:43.925Z</time></trkpt><trkpt lat="44.457582221623156" lon="10.384872669896689"><ele>658.2</ele><time>2026-04-11T14:12:44.925Z</time></trkpt><trkpt lat="44.45753364931265" lon="10.384961933295394"><ele>654.8</ele><time>2026-04-11T14:12:45.925Z</time></trkpt><trkpt lat="44.457434991180676" lon="10.384992392230965"><ele>651.4</ele><time>2026-04-11T14:12:46.925Z</time></trkpt><trkpt lat="44.45733027742089" lon="10.384984757763513"><ele>648.0</ele><time>2026-04-11T14:12:47.925Z</time></trkpt><trkpt lat="44.45721999574889" lon="10.384938250104721"><ele>645.75</ele><time>2026-04-11T14:12:48.925Z</time></trkpt><trkpt lat="44.457105794057036" lon="10.384871734919091"><ele>643.5</ele><time>2026-04-11T14:12:49.925Z</time></trkpt><trkpt lat="44.456985838408386" lon="10.384796058282049"><ele>641.25</ele><time>2026-04-11T14:12:50.925Z</time></trkpt><trkpt lat="44.45686880425924" lon="10.384726064697462"><ele>639.0</ele><time>2026-04-11T14:12:51.925Z</time></trkpt><trkpt lat="44.45674710516391" lon="10.384649850749394"><ele>645.6666666666666</ele><time>2026-04-11T14:12:52.925Z</time></trkpt><trkpt lat="44.45662141072823" lon="10.38455696373089"><ele>652.3333333333333</ele><time>2026-04-11T14:12:53.925Z</time></trkpt><trkpt lat="44.45648664899724" lon="10.384438983091561"><ele>659.0</ele><time>2026-04-11T14:12:54.925Z</time></trkpt><trkpt lat="44.456358305352715" lon="10.384307211084023"><ele>654.0</ele><time>2026-04-11T14:12:55.925Z</time></trkpt><trkpt lat="44.45624463280198" lon="10.384196244449116"><ele>649.0</ele><time>2026-04-11T14:12:56.925Z</time></trkpt><trkpt lat="44.456126779962545" lon="10.384107204040673"><ele>644.0</ele><time>2026-04-11T14:12:57.925Z</time></trkpt><trkpt lat="44.45599377498445" lon="10.384041807344298"><ele>639.0</ele><time>2026-04-11T14:12:58.925Z</time></trkpt><trkpt lat="44.45584497411007" lon="10.384017549683211"><ele>639.0</ele><time>2026-04-11T14:12:59.925Z</time></trkpt><trkpt lat="44.45568728420278" lon="10.38402007644672"><ele>639.0</ele><time>2026-04-11T14:13:00.925Z</time></trkpt><trkpt lat="44.45553308540471" lon="10.384020409583883"><ele>639.0</ele><time>2026-04-11T14:13:01.925Z</time></trkpt><trkpt lat="44.455392017785584" lon="10.38399879723579"><ele>638.5</ele><time>2026-04-11T14:13:02.925Z</time></trkpt><trkpt lat="44.45526743996624" lon="10.38395151200101"><ele>638.0</ele><time>2026-04-11T14:13:03.925Z</time></trkpt><trkpt lat="44.45516274921978" lon="10.383854199661378"><ele>637.5</ele><time>2026-04-11T14:13:04.925Z</time></trkpt><trkpt lat="44.455067140878555" lon="10.383713126705096"><ele>637.0</ele><time>2026-04-11T14:13:05.925Z</time></trkpt><trkpt lat="44.45498506199019" lon="10.383547619837865"><ele>637.0</ele><time>2026-04-11T14:13:06.925Z</time></trkpt><trkpt lat="44.45491104333446" lon="10.383419041443513"><ele>637.0</ele><time>2026-04-11T14:13:07.925Z</time></trkpt><trkpt lat="44.454837781510506" lon="10.383326451624447"><ele>637.0</ele><time>2026-04-11T14:13:08.925Z</time></trkpt><trkpt lat="44.45475719183294" lon="10.383282918970792"><ele>637.0</ele><time>2026-04-11T14:13:09.925Z</time></trkpt><trkpt lat="44.454665854609736" lon="10.383302841564388"><ele>637.0</ele><time>2026-04-11T14:13:10.925Z</time></trkpt><trkpt lat="44.454566912253675" lon="10.383371326284738"><ele>635.0</ele><time>2026-04-11T14:13:11.925Z</time></trkpt><trkpt lat="44.454457839155474" lon="10.383478750600291"><ele>633.0</ele><time>2026-04-11T14:13:12.925Z</time></trkpt><trkpt lat="44.454335180063865" lon="10.383598544513273"><ele>631.0</ele><time>2026-04-11T14:13:13.925Z</time></trkpt><trkpt lat="44.45419127166646" lon="10.383733615118711"><ele>628.3333333333334</ele><time>2026-04-11T14:13:14.925Z</time></trkpt><trkpt lat="44.4540449886799" lon="10.383868695310293"><ele>625.6666666666666</ele><time>2026-04-11T14:13:15.925Z</time></trkpt><trkpt lat="44.4538991226445" lon="10.383996475125182"><ele>623.0</ele><time>2026-04-11T14:13:16.925Z</time></trkpt><trkpt lat="44.45376160439981" lon="10.384112724544856"><ele>621.6666666666666</ele><time>2026-04-11T14:13:17.925Z</time></trkpt><trkpt lat="44.45362873055269" lon="10.384226351997494"><ele>620.3333333333334</ele><time>2026-04-11T14:13:18.925Z</time></trkpt><trkpt lat="44.45349742064261" lon="10.384341793978708"><ele>619.0</ele><time>2026-04-11T14:13:19.925Z</time></trkpt><trkpt lat="44.453367322393845" lon="10.384452224149623"><ele>619.0</ele><time>2026-04-11T14:13:20.925Z</time></trkpt><trkpt lat="44.45323827012361" lon="10.384562117270592"><ele>619.0</ele><time>2026-04-11T14:13:21.925Z</time></trkpt><trkpt lat="44.45310756810631" lon="10.384680194987215"><ele>619.0</ele><time>2026-04-11T14:13:22.925Z</time></trkpt><trkpt lat="44.45297831025043" lon="10.384823278260413"><ele>621.3333333333334</ele><time>2026-04-11T14:13:23.925Z</time></trkpt><trkpt lat="44.45286273451252" lon="10.384983047390742"><ele>623.6666666666666</ele><time>2026-04-11T14:13:24.925Z</time></trkpt><trkpt lat="44.45274304205938" lon="10.385166815102403"><ele>626.0</ele><time>2026-04-11T14:13:25.925Z</time></trkpt><trkpt lat="44.45261879309058" lon="10.385373874556375"><ele>622.3333333333333</ele><time>2026-04-11T14:13:26.925Z</time></trkpt><trkpt lat="44.45248977416099" lon="10.385585542505897"><ele>618.6666666666666</ele><time>2026-04-11T14:13:27.925Z</time></trkpt><trkpt lat="44.452359180074396" lon="10.385793254531636"><ele>615.0</ele><time>2026-04-11T14:13:28.925Z</time></trkpt><trkpt lat="44.45224119826803" lon="10.385992092014414"><ele>615.0</ele><time>2026-04-11T14:13:29.925Z</time></trkpt><trkpt lat="44.452125564925915" lon="10.386168306352735"><ele>615.0</ele><time>2026-04-11T14:13:30.925Z</time></trkpt><trkpt lat="44.452021397482035" lon="10.386336726892988"><ele>615.0</ele><time>2026-04-11T14:13:31.925Z</time></trkpt><trkpt lat="44.45191729198734" lon="10.386502806374118"><ele>614.6666666666666</ele><time>2026-04-11T14:13:32.925Z</time></trkpt><trkpt lat="44.45181295657923" lon="10.386666065867328"><ele>614.3333333333333</ele><time>2026-04-11T14:13:33.925Z</time></trkpt><trkpt lat="44.451710637238335" lon="10.386828445188431"><ele>614.0</ele><time>2026-04-11T14:13:34.925Z</time></trkpt><trkpt lat="44.451610862591735" lon="10.386992395028212"><ele>614.0</ele><time>2026-04-11T14:13:35.925Z</time></trkpt><trkpt lat="44.45150989406078" lon="10.387156243136111"><ele>614.0</ele><time>2026-04-11T14:13:36.925Z</time></trkpt><trkpt lat="44.45141056589764" lon="10.387315446977698"><ele>614.0</ele><time>2026-04-11T14:13:37.925Z</time></trkpt><trkpt lat="44.45131231325738" lon="10.387469727668952"><ele>614.5</ele><time>2026-04-11T14:13:38.925Z</time></trkpt><trkpt lat="44.45121772644172" lon="10.38763423649358"><ele>615.0</ele><time>2026-04-11T14:13:39.925Z</time></trkpt><trkpt lat="44.451120810115455" lon="10.38779192924525"><ele>615.5</ele><time>2026-04-11T14:13:40.925Z</time></trkpt><trkpt lat="44.45102298755117" lon="10.387950365692543"><ele>616.0</ele><time>2026-04-11T14:13:41.925Z</time></trkpt><trkpt lat="44.45092488037414" lon="10.388111378892043"><ele>617.0</ele><time>2026-04-11T14:13:42.925Z</time></trkpt><trkpt lat="44.45082750862652" lon="10.388276762352362"><ele>618.0</ele><time>2026-04-11T14:13:43.925Z</time></trkpt><trkpt lat="44.450731737270075" lon="10.388437459899768"><ele>619.0</ele><time>2026-04-11T14:13:44.925Z</time></trkpt><trkpt lat="44.45063851327932" lon="10.38860185396701"><ele>619.0</ele><time>2026-04-11T14:13:45.925Z</time></trkpt><trkpt lat="44.45054594818491" lon="10.38875902569748"><ele>619.0</ele><time>2026-04-11T14:13:46.925Z</time></trkpt><trkpt lat="44.45044594884547" lon="10.38890558791397"><ele>619.0</ele><time>2026-04-11T14:13:47.925Z</time></trkpt><trkpt lat="44.450337861152796" lon="10.389051874260888"><ele>619.0</ele><time>2026-04-11T14:13:48.925Z</time></trkpt><trkpt lat="44.450208549260026" lon="10.389172012831132"><ele>620.3333333333334</ele><time>2026-04-11T14:13:49.925Z</time></trkpt><trkpt lat="44.45007323079416" lon="10.389285785426901"><ele>621.6666666666666</ele><time>2026-04-11T14:13:50.925Z</time></trkpt><trkpt lat="44.44994669265146" lon="10.389408729097928"><ele>623.0</ele><time>2026-04-11T14:13:51.925Z</time></trkpt><trkpt lat="44.44982593688213" lon="10.38952959856009"><ele>623.0</ele><time>2026-04-11T14:13:52.925Z</time></trkpt><trkpt lat="44.449721313551564" lon="10.389643647513342"><ele>623.0</ele><time>2026-04-11T14:13:53.925Z</time></trkpt><trkpt lat="44.44962922611567" lon="10.389748297882608"><ele>623.0</ele><time>2026-04-11T14:13:54.925Z</time></trkpt><trkpt lat="44.449544703409224" lon="10.389858457421607"><ele>623.0</ele><time>2026-04-11T14:13:55.925Z</time></trkpt><trkpt lat="44.44946960839737" lon="10.389988733516608"><ele>622.5</ele><time>2026-04-11T14:13:56.925Z</time></trkpt><trkpt lat="44.44940037057197" lon="10.39012991188269"><ele>622.0</ele><time>2026-04-11T14:13:57.925Z</time></trkpt><trkpt lat="44.44933534341964" lon="10.390301755329462"><ele>621.5</ele><time>2026-04-11T14:13:58.925Z</time></trkpt><trkpt lat="44.44928306306569" lon="10.390520704474712"><ele>621.0</ele><time>2026-04-11T14:13:59.925Z</time></trkpt><trkpt lat="44.44923982731494" lon="10.3907262385849"><ele>621.0</ele><time>2026-04-11T14:14:00.926Z</time></trkpt><trkpt lat="44.44918852881738" lon="10.390914059073532"><ele>621.0</ele><time>2026-04-11T14:14:01.926Z</time></trkpt><trkpt lat="44.44913922870306" lon="10.391099010935068"><ele>621.0</ele><time>2026-04-11T14:14:02.926Z</time></trkpt><trkpt lat="44.44907970008262" lon="10.39127498518653"><ele>621.0</ele><time>2026-04-11T14:14:03.926Z</time></trkpt><trkpt lat="44.44900233036148" lon="10.391426436934353"><ele>621.0</ele><time>2026-04-11T14:14:04.926Z</time></trkpt><trkpt lat="44.448900438701095" lon="10.391557869014598"><ele>621.0</ele><time>2026-04-11T14:14:05.926Z</time></trkpt><trkpt lat="44.44878167060659" lon="10.391668289925072"><ele>621.0</ele><time>2026-04-11T14:14:06.926Z</time></trkpt><trkpt lat="44.44864919101652" lon="10.391759903350682"><ele>621.0</ele><time>2026-04-11T14:14:07.926Z</time></trkpt><trkpt lat="44.44851542086728" lon="10.391849130775165"><ele>620.6666666666666</ele><time>2026-04-11T14:14:08.926Z</time></trkpt><trkpt lat="44.44837152092937" lon="10.391920276310504"><ele>620.3333333333333</ele><time>2026-04-11T14:14:09.926Z</time></trkpt><trkpt lat="44.44822578660428" lon="10.391977958102245"><ele>620.0</ele><time>2026-04-11T14:14:10.926Z</time></trkpt><trkpt lat="44.4480763952166" lon="10.392039044540294"><ele>620.3333333333333</ele><time>2026-04-11T14:14:11.926Z</time></trkpt><trkpt lat="44.44792593286357" lon="10.39211838107002"><ele>620.6666666666666</ele><time>2026-04-11T14:14:12.926Z</time></trkpt><trkpt lat="44.4477713490531" lon="10.3922052506707"><ele>621.0</ele><time>2026-04-11T14:14:13.926Z</time></trkpt><trkpt lat="44.44761440381973" lon="10.392279718942962"><ele>623.5</ele><time>2026-04-11T14:14:14.926Z</time></trkpt><trkpt lat="44.4474639884969" lon="10.392348465492537"><ele>626.0</ele><time>2026-04-11T14:14:15.926Z</time></trkpt><trkpt lat="44.44732864311424" lon="10.392403151992518"><ele>628.5</ele><time>2026-04-11T14:14:16.926Z</time></trkpt><trkpt lat="44.44718898528427" lon="10.392445367551023"><ele>631.0</ele><time>2026-04-11T14:14:17.926Z</time></trkpt><trkpt lat="44.44704208611073" lon="10.39247592598489"><ele>631.6666666666667</ele><time>2026-04-11T14:14:18.926Z</time></trkpt><trkpt lat="44.446879775027405" lon="10.392464651365625"><ele>632.3333333333334</ele><time>2026-04-11T14:14:19.926Z</time></trkpt><trkpt lat="44.44671450133788" lon="10.392429386696522"><ele>633.0</ele><time>2026-04-11T14:14:20.926Z</time></trkpt><trkpt lat="44.446545879878514" lon="10.392383961108836"><ele>633.0</ele><time>2026-04-11T14:14:21.926Z</time></trkpt><trkpt lat="44.44637174352326" lon="10.392346663291978"><ele>633.0</ele><time>2026-04-11T14:14:22.926Z</time></trkpt><trkpt lat="44.446198135611965" lon="10.392313354211815"><ele>633.0</ele><time>2026-04-11T14:14:23.926Z</time></trkpt><trkpt lat="44.44602322252162" lon="10.392275132778362"><ele>636.0</ele><time>2026-04-11T14:14:24.926Z</time></trkpt><trkpt lat="44.445847392625176" lon="10.39224762323212"><ele>639.0</ele><time>2026-04-11T14:14:25.926Z</time></trkpt><trkpt lat="44.445667721476596" lon="10.392221408409222"><ele>642.0</ele><time>2026-04-11T14:14:26.926Z</time></trkpt><trkpt lat="44.445490866398785" lon="10.392193646815523"><ele>640.6666666666666</ele><time>2026-04-11T14:14:27.926Z</time></trkpt><trkpt lat="44.445319651117465" lon="10.392169999864233"><ele>639.3333333333333</ele><time>2026-04-11T14:14:28.926Z</time></trkpt><trkpt lat="44.44515480091702" lon="10.39214406143838"><ele>638.0</ele><time>2026-04-11T14:14:29.926Z</time></trkpt><trkpt lat="44.44500072458668" lon="10.392104380709785"><ele>638.0</ele><time>2026-04-11T14:14:30.924Z</time></trkpt><trkpt lat="44.44483389350755" lon="10.392072830764224"><ele>638.0</ele><time>2026-04-11T14:14:31.925Z</time></trkpt><trkpt lat="44.44469045726898" lon="10.392052284939354"><ele>638.0</ele><time>2026-04-11T14:14:32.925Z</time></trkpt><trkpt lat="44.44452987087407" lon="10.392020827550336"><ele>641.5</ele><time>2026-04-11T14:14:33.924Z</time></trkpt><trkpt lat="44.44439693830235" lon="10.392000686046487"><ele>645.0</ele><time>2026-04-11T14:14:34.925Z</time></trkpt><trkpt lat="44.444265367991804" lon="10.392000290892867"><ele>648.5</ele><time>2026-04-11T14:14:35.925Z</time></trkpt><trkpt lat="44.44412935038555" lon="10.392039888296885"><ele>652.0</ele><time>2026-04-11T14:14:36.925Z</time></trkpt><trkpt lat="44.443976473942215" lon="10.392095086825943"><ele>652.0</ele><time>2026-04-11T14:14:37.924Z</time></trkpt><trkpt lat="44.443822962591106" lon="10.392161576448542"><ele>652.0</ele><time>2026-04-11T14:14:38.924Z</time></trkpt><trkpt lat="44.443661311018" lon="10.392236491335776"><ele>652.0</ele><time>2026-04-11T14:14:39.925Z</time></trkpt><trkpt lat="44.44349218930208" lon="10.392306771174544"><ele>651.6666666666667</ele><time>2026-04-11T14:14:40.924Z</time></trkpt><trkpt lat="44.443314268025176" lon="10.392371525992719"><ele>651.3333333333334</ele><time>2026-04-11T14:14:41.924Z</time></trkpt><trkpt lat="44.44313839547489" lon="10.392414270913813"><ele>651.0</ele><time>2026-04-11T14:14:42.925Z</time></trkpt><trkpt lat="44.44296221413982" lon="10.392450334365872"><ele>649.3333333333334</ele><time>2026-04-11T14:14:43.925Z</time></trkpt><trkpt lat="44.44278977904435" lon="10.392484828240216"><ele>647.6666666666667</ele><time>2026-04-11T14:14:44.925Z</time></trkpt><trkpt lat="44.44263474078157" lon="10.392495111375094"><ele>646.0</ele><time>2026-04-11T14:14:45.925Z</time></trkpt><trkpt lat="44.44248691818925" lon="10.39251075177849"><ele>646.0</ele><time>2026-04-11T14:14:46.925Z</time></trkpt><trkpt lat="44.44235060806123" lon="10.392512391861704"><ele>646.0</ele><time>2026-04-11T14:14:47.925Z</time></trkpt><trkpt lat="44.44222701873793" lon="10.39253132105617"><ele>646.0</ele><time>2026-04-11T14:14:48.925Z</time></trkpt><trkpt lat="44.442113549481185" lon="10.392595858523542"><ele>646.0</ele><time>2026-04-11T14:14:49.925Z</time></trkpt><trkpt lat="44.442002172745305" lon="10.392691367931606"><ele>647.25</ele><time>2026-04-11T14:14:50.925Z</time></trkpt><trkpt lat="44.44190607520321" lon="10.392819756904752"><ele>648.5</ele><time>2026-04-11T14:14:51.925Z</time></trkpt><trkpt lat="44.441823688272464" lon="10.392992689377014"><ele>649.75</ele><time>2026-04-11T14:14:52.925Z</time></trkpt><trkpt lat="44.441757402356096" lon="10.39320810399373"><ele>651.0</ele><time>2026-04-11T14:14:53.925Z</time></trkpt><trkpt lat="44.44170303108708" lon="10.393426808716129"><ele>653.0</ele><time>2026-04-11T14:14:54.925Z</time></trkpt><trkpt lat="44.44164507898973" lon="10.39365154462552"><ele>655.0</ele><time>2026-04-11T14:14:55.925Z</time></trkpt><trkpt lat="44.44159033840541" lon="10.393865010992867"><ele>657.0</ele><time>2026-04-11T14:14:56.925Z</time></trkpt><trkpt lat="44.44153434331332" lon="10.394047280406252"><ele>657.5</ele><time>2026-04-11T14:14:57.925Z</time></trkpt><trkpt lat="44.44148151006416" lon="10.394202171601954"><ele>658.0</ele><time>2026-04-11T14:14:58.925Z</time></trkpt><trkpt lat="44.44141910758907" lon="10.394331991473083"><ele>658.5</ele><time>2026-04-11T14:14:59.925Z</time></trkpt><trkpt lat="44.441314396865984" lon="10.39441584764784"><ele>659.0</ele><time>2026-04-11T14:15:00.925Z</time></trkpt><trkpt lat="44.441194788984966" lon="10.3944220087103"><ele>659.5</ele><time>2026-04-11T14:15:01.925Z</time></trkpt><trkpt lat="44.44106779166324" lon="10.394362324499024"><ele>660.0</ele><time>2026-04-11T14:15:02.925Z</time></trkpt><trkpt lat="44.440943930895514" lon="10.394246496693574"><ele>660.5</ele><time>2026-04-11T14:15:03.925Z</time></trkpt><trkpt lat="44.44081645103317" lon="10.394105902829622"><ele>661.0</ele><time>2026-04-11T14:15:04.925Z</time></trkpt><trkpt lat="44.44068806424475" lon="10.393955657149446"><ele>665.25</ele><time>2026-04-11T14:15:05.925Z</time></trkpt><trkpt lat="44.44057429762241" lon="10.393826033298604"><ele>669.5</ele><time>2026-04-11T14:15:06.925Z</time></trkpt><trkpt lat="44.4404708147954" lon="10.393710168112886"><ele>673.75</ele><time>2026-04-11T14:15:07.925Z</time></trkpt><trkpt lat="44.44036905571066" lon="10.393620712071368"><ele>678.0</ele><time>2026-04-11T14:15:08.925Z</time></trkpt><trkpt lat="44.440260829334505" lon="10.393574456635369"><ele>678.0</ele><time>2026-04-11T14:15:09.925Z</time></trkpt><trkpt lat="44.440144308545364" lon="10.393578484764092"><ele>678.0</ele><time>2026-04-11T14:15:10.925Z</time></trkpt><trkpt lat="44.440032608330945" lon="10.393625195160444"><ele>678.0</ele><time>2026-04-11T14:15:11.925Z</time></trkpt><trkpt lat="44.43992940510009" lon="10.393711760740054"><ele>678.0</ele><time>2026-04-11T14:15:12.925Z</time></trkpt><trkpt lat="44.43985315824321" lon="10.393835461027027"><ele>674.75</ele><time>2026-04-11T14:15:13.925Z</time></trkpt><trkpt lat="44.439783163330624" lon="10.393977066087434"><ele>671.5</ele><time>2026-04-11T14:15:14.925Z</time></trkpt><trkpt lat="44.43970522014034" lon="10.394124628195446"><ele>668.25</ele><time>2026-04-11T14:15:15.925Z</time></trkpt><trkpt lat="44.43960906397316" lon="10.394261745556054"><ele>665.0</ele><time>2026-04-11T14:15:16.925Z</time></trkpt><trkpt lat="44.43949932775993" lon="10.39437598868482"><ele>665.0</ele><time>2026-04-11T14:15:17.925Z</time></trkpt><trkpt lat="44.439367013516794" lon="10.394462865234258"><ele>665.0</ele><time>2026-04-11T14:15:18.925Z</time></trkpt><trkpt lat="44.439218138210755" lon="10.394528739474561"><ele>665.0</ele><time>2026-04-11T14:15:19.925Z</time></trkpt><trkpt lat="44.43905873318317" lon="10.39458538340447"><ele>665.0</ele><time>2026-04-11T14:15:20.925Z</time></trkpt><trkpt lat="44.438895695329656" lon="10.39463101414351"><ele>665.0</ele><time>2026-04-11T14:15:21.925Z</time></trkpt><trkpt lat="44.438735119830945" lon="10.394700495581674"><ele>665.0</ele><time>2026-04-11T14:15:22.925Z</time></trkpt><trkpt lat="44.43857142180082" lon="10.39479403556703"><ele>671.3333333333333</ele><time>2026-04-11T14:15:23.925Z</time></trkpt><trkpt lat="44.43840624039227" lon="10.39490112839406"><ele>677.6666666666666</ele><time>2026-04-11T14:15:24.925Z</time></trkpt><trkpt lat="44.43824600349763" lon="10.395021845244951"><ele>684.0</ele><time>2026-04-11T14:15:25.925Z</time></trkpt><trkpt lat="44.438087170661106" lon="10.395133246599315"><ele>683.6666666666666</ele><time>2026-04-11T14:15:26.925Z</time></trkpt><trkpt lat="44.437906152424546" lon="10.395196266428277"><ele>683.3333333333333</ele><time>2026-04-11T14:15:27.925Z</time></trkpt><trkpt lat="44.437710139252474" lon="10.395237988329555"><ele>683.0</ele><time>2026-04-11T14:15:28.925Z</time></trkpt><trkpt lat="44.43751027863728" lon="10.395282687537174"><ele>683.0</ele><time>2026-04-11T14:15:29.925Z</time></trkpt><trkpt lat="44.43732198767119" lon="10.395330786879521"><ele>683.0</ele><time>2026-04-11T14:15:30.925Z</time></trkpt><trkpt lat="44.43715878944155" lon="10.395374338027391"><ele>683.0</ele><time>2026-04-11T14:15:31.925Z</time></trkpt><trkpt lat="44.43700855237016" lon="10.395400375291574"><ele>686.0</ele><time>2026-04-11T14:15:32.925Z</time></trkpt><trkpt lat="44.436866822170614" lon="10.39540038978843"><ele>689.0</ele><time>2026-04-11T14:15:33.925Z</time></trkpt><trkpt lat="44.43673247881218" lon="10.395366011941745"><ele>692.0</ele><time>2026-04-11T14:15:34.925Z</time></trkpt><trkpt lat="44.43659410219412" lon="10.395297595348024"><ele>695.0</ele><time>2026-04-11T14:15:35.925Z</time></trkpt><trkpt lat="44.436464421317616" lon="10.395180833517298"><ele>695.0</ele><time>2026-04-11T14:15:36.926Z</time></trkpt><trkpt lat="44.436365654899596" lon="10.395028551426755"><ele>695.0</ele><time>2026-04-11T14:15:37.926Z</time></trkpt><trkpt lat="44.43630100641294" lon="10.39482092121179"><ele>695.0</ele><time>2026-04-11T14:15:38.926Z</time></trkpt><trkpt lat="44.43625243937528" lon="10.394593240234215"><ele>698.0</ele><time>2026-04-11T14:15:39.926Z</time></trkpt><trkpt lat="44.4362041436709" lon="10.394356820379253"><ele>701.0</ele><time>2026-04-11T14:15:40.926Z</time></trkpt><trkpt lat="44.4361355385815" lon="10.394141099656272"><ele>704.0</ele><time>2026-04-11T14:15:41.926Z</time></trkpt><trkpt lat="44.4360392351994" lon="10.393967629536437"><ele>711.0</ele><time>2026-04-11T14:15:42.926Z</time></trkpt><trkpt lat="44.43592652231062" lon="10.393831184853678"><ele>718.0</ele><time>2026-04-11T14:15:43.926Z</time></trkpt><trkpt lat="44.43579583644347" lon="10.393727703086146"><ele>725.0</ele><time>2026-04-11T14:15:44.926Z</time></trkpt><trkpt lat="44.4356418479056" lon="10.393665578616222"><ele>725.0</ele><time>2026-04-11T14:15:45.926Z</time></trkpt><trkpt lat="44.43548885439828" lon="10.393649627416439"><ele>725.0</ele><time>2026-04-11T14:15:46.926Z</time></trkpt><trkpt lat="44.43534112835791" lon="10.393650213840413"><ele>725.0</ele><time>2026-04-11T14:15:47.926Z</time></trkpt><trkpt lat="44.43519618627812" lon="10.393653725997087"><ele>725.0</ele><time>2026-04-11T14:15:48.926Z</time></trkpt><trkpt lat="44.435051624847034" lon="10.393656322690639"><ele>724.0</ele><time>2026-04-11T14:15:49.926Z</time></trkpt><trkpt lat="44.434877601993676" lon="10.39368747018171"><ele>723.0</ele><time>2026-04-11T14:15:50.926Z</time></trkpt><trkpt lat="44.43471819462928" lon="10.393897466304457"><ele>722.0</ele><time>2026-04-11T14:15:51.926Z</time></trkpt><trkpt lat="44.43455003793198" lon="10.394052552948438"><ele>722.0</ele><time>2026-04-11T14:15:52.926Z</time></trkpt><trkpt lat="44.43437786036042" lon="10.394076576701705"><ele>722.0</ele><time>2026-04-11T14:15:53.926Z</time></trkpt><trkpt lat="44.43421224270598" lon="10.394124902801869"><ele>722.0</ele><time>2026-04-11T14:15:54.926Z</time></trkpt><trkpt lat="44.43407241940245" lon="10.394135587295974"><ele>722.0</ele><time>2026-04-11T14:15:55.926Z</time></trkpt><trkpt lat="44.433966950241306" lon="10.394169254791004"><ele>722.0</ele><time>2026-04-11T14:15:56.926Z</time></trkpt><trkpt lat="44.433880932531544" lon="10.394188175927018"><ele>722.0</ele><time>2026-04-11T14:15:57.926Z</time></trkpt><trkpt lat="44.433785088246836" lon="10.394212579572885"><ele>722.0</ele><time>2026-04-11T14:15:58.926Z</time></trkpt><trkpt lat="44.43368154321423" lon="10.394237085450431"><ele>722.0</ele><time>2026-04-11T14:15:59.926Z</time></trkpt><trkpt lat="44.433571992894755" lon="10.394262904406249"><ele>722.0</ele><time>2026-04-11T14:16:00.926Z</time></trkpt><trkpt lat="44.43345471129257" lon="10.394283889379919"><ele>722.0</ele><time>2026-04-11T14:16:01.926Z</time></trkpt><trkpt lat="44.4333368108747" lon="10.3942991801523"><ele>722.0</ele><time>2026-04-11T14:16:02.926Z</time></trkpt><trkpt lat="44.433216248577885" lon="10.394320667906168"><ele>722.0</ele><time>2026-04-11T14:16:03.926Z</time></trkpt><trkpt lat="44.43309010177907" lon="10.394340128929933"><ele>721.0</ele><time>2026-04-11T14:16:04.926Z</time></trkpt><trkpt lat="44.432972057145875" lon="10.394353880324994"><ele>720.0</ele><time>2026-04-11T14:16:05.926Z</time></trkpt><trkpt lat="44.43285768287857" lon="10.394366873097995"><ele>719.0</ele><time>2026-04-11T14:16:06.926Z</time></trkpt><trkpt lat="44.432749354766216" lon="10.394378042185464"><ele>718.0</ele><time>2026-04-11T14:16:07.926Z</time></trkpt><trkpt lat="44.43264774314383" lon="10.394393934815493"><ele>717.0</ele><time>2026-04-11T14:16:08.926Z</time></trkpt><trkpt lat="44.43255609510478" lon="10.394410110453197"><ele>717.0</ele><time>2026-04-11T14:16:09.926Z</time></trkpt><trkpt lat="44.43247691116937" lon="10.394422419832901"><ele>717.0</ele><time>2026-04-11T14:16:10.926Z</time></trkpt><trkpt lat="44.43240503033329" lon="10.394439539635359"><ele>717.0</ele><time>2026-04-11T14:16:11.926Z</time></trkpt><trkpt lat="44.432342693977546" lon="10.394462977226755"><ele>717.0</ele><time>2026-04-11T14:16:12.926Z</time></trkpt><trkpt lat="44.43227217704515" lon="10.394532399577324"><ele>717.0</ele><time>2026-04-11T14:16:14.926Z</time></trkpt><trkpt lat="44.43225819892466" lon="10.394620051861136"><ele>717.0</ele><time>2026-04-11T14:16:26.926Z</time></trkpt><trkpt lat="44.43213875900541" lon="10.394692233690773"><ele>714.6666666666666</ele><time>2026-04-11T14:17:03.925Z</time></trkpt><trkpt lat="44.43206978211194" lon="10.394753920126679"><ele>712.3333333333334</ele><time>2026-04-11T14:17:04.925Z</time></trkpt><trkpt lat="44.43199503998467" lon="10.394825566665212"><ele>710.0</ele><time>2026-04-11T14:17:05.925Z</time></trkpt><trkpt lat="44.43192383754568" lon="10.394894034833765"><ele>707.6666666666667</ele><time>2026-04-11T14:17:06.925Z</time></trkpt><trkpt lat="44.43185329936871" lon="10.39494207470661"><ele>705.3333333333334</ele><time>2026-04-11T14:17:07.925Z</time></trkpt><trkpt lat="44.431772444609685" lon="10.394966276098174"><ele>703.0</ele><time>2026-04-11T14:17:08.925Z</time></trkpt><trkpt lat="44.431683080839676" lon="10.394958914263459"><ele>703.0</ele><time>2026-04-11T14:17:09.925Z</time></trkpt><trkpt lat="44.43158611633829" lon="10.394937958759266"><ele>703.0</ele><time>2026-04-11T14:17:10.925Z</time></trkpt><trkpt lat="44.43149609958676" lon="10.394895687032376"><ele>703.0</ele><time>2026-04-11T14:17:11.925Z</time></trkpt><trkpt lat="44.43141007054311" lon="10.394853604673296"><ele>703.0</ele><time>2026-04-11T14:17:12.925Z</time></trkpt><trkpt lat="44.43133060510872" lon="10.39480177355647"><ele>703.0</ele><time>2026-04-11T14:17:13.925Z</time></trkpt><trkpt lat="44.4312467143121" lon="10.39474450631822"><ele>703.0</ele><time>2026-04-11T14:17:14.925Z</time></trkpt><trkpt lat="44.43116673544182" lon="10.394669369737063"><ele>703.0</ele><time>2026-04-11T14:17:15.925Z</time></trkpt><trkpt lat="44.43109156243386" lon="10.394593569520916"><ele>703.0</ele><time>2026-04-11T14:17:16.925Z</time></trkpt><trkpt lat="44.43101892051829" lon="10.394521933475813"><ele>703.0</ele><time>2026-04-11T14:17:17.925Z</time></trkpt><trkpt lat="44.430941756599104" lon="10.394463865367596"><ele>703.0</ele><time>2026-04-11T14:17:18.925Z</time></trkpt><trkpt lat="44.43085659031186" lon="10.394416980700687"><ele>703.0</ele><time>2026-04-11T14:17:19.925Z</time></trkpt><trkpt lat="44.430778481502394" lon="10.394383796436186"><ele>703.0</ele><time>2026-04-11T14:17:20.925Z</time></trkpt><trkpt lat="44.43070543585789" lon="10.39435738377338"><ele>703.0</ele><time>2026-04-11T14:17:21.925Z</time></trkpt><trkpt lat="44.43063328992442" lon="10.39433845821908"><ele>703.0</ele><time>2026-04-11T14:17:22.925Z</time></trkpt><trkpt lat="44.430571165073545" lon="10.394319138627516"><ele>703.0</ele><time>2026-04-11T14:17:23.925Z</time></trkpt><trkpt lat="44.4304557345331" lon="10.394281728874926"><ele>703.0</ele><time>2026-04-11T14:17:25.925Z</time></trkpt><trkpt lat="44.43038211566826" lon="10.394226256250615"><ele>702.75</ele><time>2026-04-11T14:17:26.925Z</time></trkpt><trkpt lat="44.43030211382868" lon="10.394139837295333"><ele>702.5</ele><time>2026-04-11T14:17:27.925Z</time></trkpt><trkpt lat="44.43021643188005" lon="10.394038458702177"><ele>702.25</ele><time>2026-04-11T14:17:28.925Z</time></trkpt><trkpt lat="44.43012670661599" lon="10.3939361253606"><ele>702.0</ele><time>2026-04-11T14:17:29.925Z</time></trkpt><trkpt lat="44.430038494313024" lon="10.393814187262908"><ele>702.0</ele><time>2026-04-11T14:17:30.925Z</time></trkpt><trkpt lat="44.429953754509604" lon="10.393682710284722"><ele>702.0</ele><time>2026-04-11T14:17:31.925Z</time></trkpt><trkpt lat="44.42988153138936" lon="10.393537643132401"><ele>702.0</ele><time>2026-04-11T14:17:32.925Z</time></trkpt><trkpt lat="44.429817126329624" lon="10.393387675795863"><ele>702.0</ele><time>2026-04-11T14:17:33.925Z</time></trkpt><trkpt lat="44.429760863229085" lon="10.393219388797405"><ele>702.0</ele><time>2026-04-11T14:17:34.925Z</time></trkpt><trkpt lat="44.42971566103573" lon="10.393046686227214"><ele>702.0</ele><time>2026-04-11T14:17:35.925Z</time></trkpt><trkpt lat="44.429663706894246" lon="10.392888308059396"><ele>702.0</ele><time>2026-04-11T14:17:36.925Z</time></trkpt><trkpt lat="44.42961487339793" lon="10.39274139264955"><ele>702.0</ele><time>2026-04-11T14:17:37.925Z</time></trkpt><trkpt lat="44.42956934239126" lon="10.392589688536432"><ele>699.0</ele><time>2026-04-11T14:17:38.925Z</time></trkpt><trkpt lat="44.429523110817044" lon="10.392434302051626"><ele>696.0</ele><time>2026-04-11T14:17:39.925Z</time></trkpt><trkpt lat="44.42947866191571" lon="10.392278931290747"><ele>693.0</ele><time>2026-04-11T14:17:40.925Z</time></trkpt><trkpt lat="44.4294240766936" lon="10.392130786499019"><ele>690.0</ele><time>2026-04-11T14:17:41.925Z</time></trkpt><trkpt lat="44.42938469367698" lon="10.391976494668477"><ele>690.0</ele><time>2026-04-11T14:17:42.925Z</time></trkpt><trkpt lat="44.42933802522964" lon="10.391828081692475"><ele>690.0</ele><time>2026-04-11T14:17:43.925Z</time></trkpt><trkpt lat="44.42929068814067" lon="10.391683192442994"><ele>690.0</ele><time>2026-04-11T14:17:44.925Z</time></trkpt><trkpt lat="44.42924584125843" lon="10.391529505912708"><ele>690.0</ele><time>2026-04-11T14:17:45.925Z</time></trkpt><trkpt lat="44.42919795101509" lon="10.391373653579825"><ele>690.75</ele><time>2026-04-11T14:17:46.925Z</time></trkpt><trkpt lat="44.429149271934754" lon="10.391216470330583"><ele>691.5</ele><time>2026-04-11T14:17:47.925Z</time></trkpt><trkpt lat="44.42910284929897" lon="10.391056607719959"><ele>692.25</ele><time>2026-04-11T14:17:48.925Z</time></trkpt><trkpt lat="44.42905823870855" lon="10.390905747891287"><ele>693.0</ele><time>2026-04-11T14:17:49.925Z</time></trkpt><trkpt lat="44.429016882476546" lon="10.390761578711192"><ele>693.0</ele><time>2026-04-11T14:17:50.925Z</time></trkpt><trkpt lat="44.428990481311445" lon="10.39062231372365"><ele>693.0</ele><time>2026-04-11T14:17:51.925Z</time></trkpt><trkpt lat="44.42896704256885" lon="10.390476205778853"><ele>693.0</ele><time>2026-04-11T14:17:52.925Z</time></trkpt><trkpt lat="44.42895551703212" lon="10.390323694323893"><ele>693.0</ele><time>2026-04-11T14:17:53.925Z</time></trkpt><trkpt lat="44.428962220419336" lon="10.39016463620012"><ele>693.0</ele><time>2026-04-11T14:17:54.925Z</time></trkpt><trkpt lat="44.428979627344106" lon="10.390014867172884"><ele>692.5</ele><time>2026-04-11T14:17:55.925Z</time></trkpt><trkpt lat="44.42901339275817" lon="10.389864423591291"><ele>692.0</ele><time>2026-04-11T14:17:56.925Z</time></trkpt><trkpt lat="44.42906103289644" lon="10.38972072511704"><ele>691.5</ele><time>2026-04-11T14:17:57.925Z</time></trkpt><trkpt lat="44.4291231081764" lon="10.389585088209465"><ele>691.0</ele><time>2026-04-11T14:17:58.925Z</time></trkpt><trkpt lat="44.429190222693855" lon="10.389448108036675"><ele>689.0</ele><time>2026-04-11T14:17:59.925Z</time></trkpt><trkpt lat="44.42926636105192" lon="10.389326720009398"><ele>687.0</ele><time>2026-04-11T14:18:00.925Z</time></trkpt><trkpt lat="44.42933857866679" lon="10.389206432933006"><ele>685.0</ele><time>2026-04-11T14:18:01.925Z</time></trkpt><trkpt lat="44.429406887673565" lon="10.389089375189773"><ele>683.0</ele><time>2026-04-11T14:18:02.925Z</time></trkpt><trkpt lat="44.429474302573844" lon="10.388971537751235"><ele>681.0</ele><time>2026-04-11T14:18:03.925Z</time></trkpt><trkpt lat="44.42953782036095" lon="10.388844710397603"><ele>679.75</ele><time>2026-04-11T14:18:04.925Z</time></trkpt><trkpt lat="44.42959364236271" lon="10.38870622598351"><ele>678.5</ele><time>2026-04-11T14:18:05.925Z</time></trkpt><trkpt lat="44.42964121759194" lon="10.388554962068454"><ele>677.25</ele><time>2026-04-11T14:18:06.925Z</time></trkpt><trkpt lat="44.429676922633135" lon="10.388399738823283"><ele>676.0</ele><time>2026-04-11T14:18:07.925Z</time></trkpt><trkpt lat="44.429697316196716" lon="10.38824306540764"><ele>675.5</ele><time>2026-04-11T14:18:08.925Z</time></trkpt><trkpt lat="44.429705339560634" lon="10.388087189564432"><ele>675.0</ele><time>2026-04-11T14:18:09.925Z</time></trkpt><trkpt lat="44.429693794720926" lon="10.387927489228064"><ele>674.5</ele><time>2026-04-11T14:18:10.925Z</time></trkpt><trkpt lat="44.429668006951154" lon="10.387760510539094"><ele>674.0</ele><time>2026-04-11T14:18:11.925Z</time></trkpt><trkpt lat="44.429621883749036" lon="10.387600523561371"><ele>674.0</ele><time>2026-04-11T14:18:12.925Z</time></trkpt><trkpt lat="44.4295613301131" lon="10.387450724751403"><ele>674.0</ele><time>2026-04-11T14:18:13.925Z</time></trkpt><trkpt lat="44.42948718633107" lon="10.387313962324423"><ele>674.0</ele><time>2026-04-11T14:18:14.925Z</time></trkpt><trkpt lat="44.42940179630363" lon="10.387186464165126"><ele>674.0</ele><time>2026-04-11T14:18:15.925Z</time></trkpt><trkpt lat="44.42931098129169" lon="10.387065731065007"><ele>675.3333333333333</ele><time>2026-04-11T14:18:16.925Z</time></trkpt><trkpt lat="44.429208262820325" lon="10.386935209316057"><ele>676.6666666666666</ele><time>2026-04-11T14:18:17.925Z</time></trkpt><trkpt lat="44.429093768576045" lon="10.386791900655593"><ele>678.0</ele><time>2026-04-11T14:18:18.925Z</time></trkpt><trkpt lat="44.42894580094782" lon="10.386602724439676"><ele>675.5</ele><time>2026-04-11T14:18:19.925Z</time></trkpt><trkpt lat="44.42879090555003" lon="10.386383249038527"><ele>673.0</ele><time>2026-04-11T14:18:20.925Z</time></trkpt><trkpt lat="44.42862083736037" lon="10.38613817808838"><ele>673.0</ele><time>2026-04-11T14:18:21.925Z</time></trkpt><trkpt lat="44.42845449970506" lon="10.385900383870744"><ele>673.0</ele><time>2026-04-11T14:18:22.925Z</time></trkpt><trkpt lat="44.42829542306631" lon="10.38567401355159"><ele>672.3333333333334</ele><time>2026-04-11T14:18:23.925Z</time></trkpt><trkpt lat="44.42814005881516" lon="10.38546630225848"><ele>671.6666666666666</ele><time>2026-04-11T14:18:24.925Z</time></trkpt><trkpt lat="44.427990084017594" lon="10.385269286647695"><ele>671.0</ele><time>2026-04-11T14:18:25.925Z</time></trkpt><trkpt lat="44.427851459361285" lon="10.385086230884188"><ele>671.0</ele><time>2026-04-11T14:18:26.925Z</time></trkpt><trkpt lat="44.4277234884168" lon="10.384919934611009"><ele>671.0</ele><time>2026-04-11T14:18:27.925Z</time></trkpt><trkpt lat="44.427609756799825" lon="10.384763764545122"><ele>671.0</ele><time>2026-04-11T14:18:28.925Z</time></trkpt><trkpt lat="44.42751046137239" lon="10.384601863735792"><ele>672.6666666666666</ele><time>2026-04-11T14:18:29.925Z</time></trkpt><trkpt lat="44.427425611654634" lon="10.384411422393995"><ele>674.3333333333334</ele><time>2026-04-11T14:18:30.925Z</time></trkpt><trkpt lat="44.4273473686564" lon="10.384198305714772"><ele>676.0</ele><time>2026-04-11T14:18:31.925Z</time></trkpt><trkpt lat="44.427279600154236" lon="10.383967018132461"><ele>675.6666666666667</ele><time>2026-04-11T14:18:32.925Z</time></trkpt><trkpt lat="44.42722261406225" lon="10.383719930061138"><ele>675.3333333333334</ele><time>2026-04-11T14:18:33.926Z</time></trkpt><trkpt lat="44.42716430732276" lon="10.383467670474978"><ele>675.0</ele><time>2026-04-11T14:18:34.926Z</time></trkpt><trkpt lat="44.427106633209945" lon="10.383217431066164"><ele>676.6666666666666</ele><time>2026-04-11T14:18:35.926Z</time></trkpt><trkpt lat="44.42704636385225" lon="10.382974268995058"><ele>678.3333333333333</ele><time>2026-04-11T14:18:36.926Z</time></trkpt><trkpt lat="44.42699708709638" lon="10.382751032996044"><ele>680.0</ele><time>2026-04-11T14:18:37.926Z</time></trkpt><trkpt lat="44.42694236453896" lon="10.382561695564434"><ele>680.0</ele><time>2026-04-11T14:18:38.926Z</time></trkpt><trkpt lat="44.42686976935456" lon="10.382395357705068"><ele>680.0</ele><time>2026-04-11T14:18:39.926Z</time></trkpt><trkpt lat="44.42675819618152" lon="10.382241156834345"><ele>680.0</ele><time>2026-04-11T14:18:40.926Z</time></trkpt><trkpt lat="44.42661220321025" lon="10.382091580163662"><ele>680.0</ele><time>2026-04-11T14:18:41.926Z</time></trkpt><trkpt lat="44.42646894506151" lon="10.381938059244167"><ele>680.0</ele><time>2026-04-11T14:18:42.924Z</time></trkpt><trkpt lat="44.426335825055546" lon="10.38180187687351"><ele>680.0</ele><time>2026-04-11T14:18:43.924Z</time></trkpt><trkpt lat="44.42621624518961" lon="10.381671661833803"><ele>680.0</ele><time>2026-04-11T14:18:44.924Z</time></trkpt><trkpt lat="44.42608824270047" lon="10.381561579256124"><ele>680.0</ele><time>2026-04-11T14:18:45.925Z</time></trkpt><trkpt lat="44.42594456620874" lon="10.381478812042344"><ele>680.0</ele><time>2026-04-11T14:18:46.924Z</time></trkpt><trkpt lat="44.42578432491365" lon="10.381423958271705"><ele>680.0</ele><time>2026-04-11T14:18:47.924Z</time></trkpt><trkpt lat="44.42561368079485" lon="10.381380112076178"><ele>680.0</ele><time>2026-04-11T14:18:48.924Z</time></trkpt><trkpt lat="44.425444658204675" lon="10.381316958020387"><ele>680.0</ele><time>2026-04-11T14:18:49.924Z</time></trkpt><trkpt lat="44.42527698488875" lon="10.381221759061209"><ele>677.6666666666666</ele><time>2026-04-11T14:18:50.924Z</time></trkpt><trkpt lat="44.42511140071452" lon="10.381114157753183"><ele>675.3333333333334</ele><time>2026-04-11T14:18:51.924Z</time></trkpt><trkpt lat="44.424944988156305" lon="10.381006388815642"><ele>673.0</ele><time>2026-04-11T14:18:52.924Z</time></trkpt><trkpt lat="44.42477671677272" lon="10.380899363810395"><ele>675.3333333333334</ele><time>2026-04-11T14:18:53.924Z</time></trkpt><trkpt lat="44.424607793429225" lon="10.38080615023361"><ele>677.6666666666666</ele><time>2026-04-11T14:18:54.924Z</time></trkpt><trkpt lat="44.42444049591186" lon="10.380722862557242"><ele>680.0</ele><time>2026-04-11T14:18:55.924Z</time></trkpt><trkpt lat="44.42426347751318" lon="10.38064206193496"><ele>680.0</ele><time>2026-04-11T14:18:56.924Z</time></trkpt><trkpt lat="44.4240838736637" lon="10.380550795279738"><ele>680.0</ele><time>2026-04-11T14:18:57.924Z</time></trkpt><trkpt lat="44.42390267754306" lon="10.380428807283208"><ele>680.0</ele><time>2026-04-11T14:18:58.924Z</time></trkpt><trkpt lat="44.42371567397116" lon="10.380301388135063"><ele>681.6666666666666</ele><time>2026-04-11T14:18:59.924Z</time></trkpt><trkpt lat="44.42354297894981" lon="10.380157229832585"><ele>683.3333333333334</ele><time>2026-04-11T14:19:00.924Z</time></trkpt><trkpt lat="44.42336366696221" lon="10.379995711738177"><ele>685.0</ele><time>2026-04-11T14:19:01.924Z</time></trkpt><trkpt lat="44.42318450384113" lon="10.379829881826637"><ele>686.3333333333334</ele><time>2026-04-11T14:19:02.924Z</time></trkpt><trkpt lat="44.42300205520773" lon="10.379658422760212"><ele>687.6666666666666</ele><time>2026-04-11T14:19:03.924Z</time></trkpt><trkpt lat="44.42281476014108" lon="10.379484859073541"><ele>689.0</ele><time>2026-04-11T14:19:04.924Z</time></trkpt><trkpt lat="44.42262392884316" lon="10.379309610474232"><ele>689.0</ele><time>2026-04-11T14:19:05.924Z</time></trkpt><trkpt lat="44.4224294252704" lon="10.379130395341585"><ele>689.0</ele><time>2026-04-11T14:19:06.924Z</time></trkpt><trkpt lat="44.422242907874924" lon="10.378952549985131"><ele>690.0</ele><time>2026-04-11T14:19:07.924Z</time></trkpt><trkpt lat="44.42206097601873" lon="10.378792352066982"><ele>691.0</ele><time>2026-04-11T14:19:08.924Z</time></trkpt><trkpt lat="44.42188053855971" lon="10.378649993881236"><ele>692.0</ele><time>2026-04-11T14:19:09.924Z</time></trkpt><trkpt lat="44.421703423412744" lon="10.378506216189125"><ele>692.0</ele><time>2026-04-11T14:19:10.924Z</time></trkpt><trkpt lat="44.42153367893946" lon="10.37832750032099"><ele>692.0</ele><time>2026-04-11T14:19:11.924Z</time></trkpt><trkpt lat="44.42137837335599" lon="10.378120116433719"><ele>692.0</ele><time>2026-04-11T14:19:12.924Z</time></trkpt><trkpt lat="44.42122528405876" lon="10.377901720313588"><ele>693.3333333333333</ele><time>2026-04-11T14:19:13.924Z</time></trkpt><trkpt lat="44.42106684230348" lon="10.377691977849413"><ele>694.6666666666666</ele><time>2026-04-11T14:19:14.924Z</time></trkpt><trkpt lat="44.42091410661455" lon="10.377496025725755"><ele>696.0</ele><time>2026-04-11T14:19:15.924Z</time></trkpt><trkpt lat="44.42077567681043" lon="10.377304645582829"><ele>694.6666666666666</ele><time>2026-04-11T14:19:16.924Z</time></trkpt><trkpt lat="44.42065775303888" lon="10.37706670998928"><ele>693.3333333333333</ele><time>2026-04-11T14:19:17.924Z</time></trkpt><trkpt lat="44.42055715637884" lon="10.376810607542517"><ele>692.0</ele><time>2026-04-11T14:19:18.924Z</time></trkpt><trkpt lat="44.420480288817885" lon="10.376566565830467"><ele>692.6666666666666</ele><time>2026-04-11T14:19:19.924Z</time></trkpt><trkpt lat="44.420407594546596" lon="10.376348088948912"><ele>693.3333333333334</ele><time>2026-04-11T14:19:20.924Z</time></trkpt><trkpt lat="44.420338353534554" lon="10.376140543833166"><ele>694.0</ele><time>2026-04-11T14:19:21.924Z</time></trkpt><trkpt lat="44.420271283610965" lon="10.37593932552895"><ele>694.0</ele><time>2026-04-11T14:19:22.924Z</time></trkpt><trkpt lat="44.42021251665934" lon="10.37574738582979"><ele>694.0</ele><time>2026-04-11T14:19:23.924Z</time></trkpt><trkpt lat="44.42015753624576" lon="10.375554276130165"><ele>694.0</ele><time>2026-04-11T14:19:24.924Z</time></trkpt><trkpt lat="44.42010135281837" lon="10.375361696622504"><ele>694.0</ele><time>2026-04-11T14:19:25.924Z</time></trkpt><trkpt lat="44.42004574886378" lon="10.375174405944572"><ele>694.0</ele><time>2026-04-11T14:19:26.924Z</time></trkpt><trkpt lat="44.41999091294786" lon="10.374997207042705"><ele>694.0</ele><time>2026-04-11T14:19:27.924Z</time></trkpt><trkpt lat="44.419937243794976" lon="10.374830902049387"><ele>694.0</ele><time>2026-04-11T14:19:28.924Z</time></trkpt><trkpt lat="44.41988311553551" lon="10.374683243256449"><ele>694.0</ele><time>2026-04-11T14:19:29.924Z</time></trkpt><trkpt lat="44.419827273126856" lon="10.37455863322889"><ele>694.0</ele><time>2026-04-11T14:19:30.924Z</time></trkpt><trkpt lat="44.41976032728048" lon="10.374437293429372"><ele>694.0</ele><time>2026-04-11T14:19:31.924Z</time></trkpt><trkpt lat="44.419670006475116" lon="10.37430049577596"><ele>694.0</ele><time>2026-04-11T14:19:32.924Z</time></trkpt><trkpt lat="44.41957213409294" lon="10.374122146511517"><ele>694.0</ele><time>2026-04-11T14:19:33.924Z</time></trkpt><trkpt lat="44.419486480429605" lon="10.373924813474304"><ele>697.3333333333334</ele><time>2026-04-11T14:19:34.924Z</time></trkpt><trkpt lat="44.41940595893174" lon="10.37372839542489"><ele>700.6666666666666</ele><time>2026-04-11T14:19:35.924Z</time></trkpt><trkpt lat="44.41930806690439" lon="10.37355571948855"><ele>704.0</ele><time>2026-04-11T14:19:36.924Z</time></trkpt><trkpt lat="44.41918777441951" lon="10.373407410227461"><ele>704.0</ele><time>2026-04-11T14:19:37.924Z</time></trkpt><trkpt lat="44.41906704844777" lon="10.37327197201835"><ele>704.0</ele><time>2026-04-11T14:19:38.924Z</time></trkpt><trkpt lat="44.41897029186462" lon="10.37314220460448"><ele>704.0</ele><time>2026-04-11T14:19:39.924Z</time></trkpt><trkpt lat="44.41889958802281" lon="10.37301638269288"><ele>704.0</ele><time>2026-04-11T14:19:40.924Z</time></trkpt><trkpt lat="44.41888193096142" lon="10.37286594909582"><ele>705.25</ele><time>2026-04-11T14:19:41.924Z</time></trkpt><trkpt lat="44.41890769539596" lon="10.372691124409368"><ele>706.5</ele><time>2026-04-11T14:19:42.924Z</time></trkpt><trkpt lat="44.4189758721293" lon="10.372506345112368"><ele>707.75</ele><time>2026-04-11T14:19:43.924Z</time></trkpt><trkpt lat="44.41905351081678" lon="10.372317353307439"><ele>709.0</ele><time>2026-04-11T14:19:44.924Z</time></trkpt><trkpt lat="44.41912132595999" lon="10.372129178099854"><ele>710.75</ele><time>2026-04-11T14:19:45.924Z</time></trkpt><trkpt lat="44.41917169965725" lon="10.371930450369177"><ele>712.5</ele><time>2026-04-11T14:19:46.924Z</time></trkpt><trkpt lat="44.41919454608274" lon="10.37172967372456"><ele>714.25</ele><time>2026-04-11T14:19:47.924Z</time></trkpt><trkpt lat="44.41919454960603" lon="10.371549991935003"><ele>716.0</ele><time>2026-04-11T14:19:48.924Z</time></trkpt><trkpt lat="44.41919422778164" lon="10.37138980946985"><ele>718.5</ele><time>2026-04-11T14:19:49.924Z</time></trkpt><trkpt lat="44.41925523505275" lon="10.37128985602559"><ele>721.0</ele><time>2026-04-11T14:19:50.924Z</time></trkpt><trkpt lat="44.419373127909886" lon="10.3712517264915"><ele>723.5</ele><time>2026-04-11T14:19:51.924Z</time></trkpt><trkpt lat="44.41951730291711" lon="10.371255411020583"><ele>726.0</ele><time>2026-04-11T14:19:52.924Z</time></trkpt><trkpt lat="44.419670763621404" lon="10.371239057070103"><ele>727.0</ele><time>2026-04-11T14:19:53.924Z</time></trkpt><trkpt lat="44.41983585871326" lon="10.371198862959869"><ele>728.0</ele><time>2026-04-11T14:19:54.924Z</time></trkpt><trkpt lat="44.420008238680104" lon="10.371154995617118"><ele>729.0</ele><time>2026-04-11T14:19:55.924Z</time></trkpt><trkpt lat="44.4201839399617" lon="10.371115484305292"><ele>729.0</ele><time>2026-04-11T14:19:56.924Z</time></trkpt><trkpt lat="44.42035957027063" lon="10.37107511638823"><ele>729.0</ele><time>2026-04-11T14:19:57.924Z</time></trkpt><trkpt lat="44.420538133529966" lon="10.37103143928247"><ele>729.0</ele><time>2026-04-11T14:19:58.924Z</time></trkpt><trkpt lat="44.4207284340644" lon="10.370978994803247"><ele>730.6666666666666</ele><time>2026-04-11T14:19:59.924Z</time></trkpt><trkpt lat="44.42092307551424" lon="10.370932874022746"><ele>732.3333333333333</ele><time>2026-04-11T14:20:00.924Z</time></trkpt><trkpt lat="44.42111787935051" lon="10.370893297239638"><ele>734.0</ele><time>2026-04-11T14:20:01.924Z</time></trkpt><trkpt lat="44.42130692479154" lon="10.370872441534473"><ele>735.3333333333333</ele><time>2026-04-11T14:20:02.924Z</time></trkpt><trkpt lat="44.42149943298559" lon="10.370885706664549"><ele>736.6666666666666</ele><time>2026-04-11T14:20:03.924Z</time></trkpt><trkpt lat="44.42167321176779" lon="10.370955992223882"><ele>738.0</ele><time>2026-04-11T14:20:04.924Z</time></trkpt><trkpt lat="44.42182913635239" lon="10.371026957570711"><ele>738.0</ele><time>2026-04-11T14:20:05.924Z</time></trkpt><trkpt lat="44.421960650437406" lon="10.371079552539573"><ele>738.0</ele><time>2026-04-11T14:20:06.924Z</time></trkpt><trkpt lat="44.42207002496797" lon="10.371114179939378"><ele>738.0</ele><time>2026-04-11T14:20:07.924Z</time></trkpt><trkpt lat="44.42214833504306" lon="10.371125982773219"><ele>738.0</ele><time>2026-04-11T14:20:08.924Z</time></trkpt><trkpt lat="44.4222152222751" lon="10.37109326360708"><ele>738.0</ele><time>2026-04-11T14:20:09.924Z</time></trkpt><trkpt lat="44.42224549243988" lon="10.371001085664771"><ele>738.0</ele><time>2026-04-11T14:20:10.924Z</time></trkpt><trkpt lat="44.42222489156295" lon="10.370902764679508"><ele>738.0</ele><time>2026-04-11T14:20:11.924Z</time></trkpt><trkpt lat="44.422162755363125" lon="10.370807862303698"><ele>738.0</ele><time>2026-04-11T14:20:12.924Z</time></trkpt><trkpt lat="44.4220573637198" lon="10.370736004274328"><ele>738.0</ele><time>2026-04-11T14:20:13.925Z</time></trkpt><trkpt lat="44.42193070087112" lon="10.370644697412724"><ele>738.0</ele><time>2026-04-11T14:20:14.925Z</time></trkpt><trkpt lat="44.4218243746358" lon="10.370501107039003"><ele>742.0</ele><time>2026-04-11T14:20:15.925Z</time></trkpt><trkpt lat="44.42174265695364" lon="10.37032240873392"><ele>746.0</ele><time>2026-04-11T14:20:16.925Z</time></trkpt><trkpt lat="44.42166136342303" lon="10.370140796849613"><ele>750.0</ele><time>2026-04-11T14:20:17.925Z</time></trkpt><trkpt lat="44.421547425236604" lon="10.370010798095088"><ele>750.0</ele><time>2026-04-11T14:20:18.925Z</time></trkpt><trkpt lat="44.421393646644006" lon="10.369907653663464"><ele>750.0</ele><time>2026-04-11T14:20:19.925Z</time></trkpt><trkpt lat="44.42122937650094" lon="10.369804947325115"><ele>750.0</ele><time>2026-04-11T14:20:20.925Z</time></trkpt><trkpt lat="44.421066127096545" lon="10.369696119195845"><ele>751.75</ele><time>2026-04-11T14:20:21.925Z</time></trkpt><trkpt lat="44.420926627602604" lon="10.36960657904561"><ele>753.5</ele><time>2026-04-11T14:20:22.925Z</time></trkpt><trkpt lat="44.420786811581024" lon="10.369552421700156"><ele>755.25</ele><time>2026-04-11T14:20:23.925Z</time></trkpt><trkpt lat="44.42066044021965" lon="10.369508835014463"><ele>757.0</ele><time>2026-04-11T14:20:24.925Z</time></trkpt><trkpt lat="44.420562196658736" lon="10.369433680067234"><ele>757.0</ele><time>2026-04-11T14:20:25.925Z</time></trkpt><trkpt lat="44.42051081363423" lon="10.369296434972053"><ele>757.0</ele><time>2026-04-11T14:20:26.925Z</time></trkpt><trkpt lat="44.420503317762325" lon="10.369123600560323"><ele>757.0</ele><time>2026-04-11T14:20:27.925Z</time></trkpt><trkpt lat="44.420549390014685" lon="10.36894775565579"><ele>757.0</ele><time>2026-04-11T14:20:28.925Z</time></trkpt><trkpt lat="44.420602360950745" lon="10.36877678226411"><ele>758.75</ele><time>2026-04-11T14:20:29.925Z</time></trkpt><trkpt lat="44.420608898932564" lon="10.368607501410327"><ele>760.5</ele><time>2026-04-11T14:20:30.925Z</time></trkpt><trkpt lat="44.42054005312462" lon="10.368463732267623"><ele>762.25</ele><time>2026-04-11T14:20:31.925Z</time></trkpt><trkpt lat="44.42042038321601" lon="10.368348423438599"><ele>764.0</ele><time>2026-04-11T14:20:32.925Z</time></trkpt><trkpt lat="44.42025048850165" lon="10.368268125804187"><ele>764.6666666666666</ele><time>2026-04-11T14:20:33.925Z</time></trkpt><trkpt lat="44.42008245568049" lon="10.36817934096511"><ele>765.3333333333334</ele><time>2026-04-11T14:20:34.925Z</time></trkpt><trkpt lat="44.41993947382931" lon="10.368059558091632"><ele>766.0</ele><time>2026-04-11T14:20:35.925Z</time></trkpt><trkpt lat="44.41981104682291" lon="10.367899749438328"><ele>767.3333333333334</ele><time>2026-04-11T14:20:36.925Z</time></trkpt><trkpt lat="44.4196874435747" lon="10.367704650652865"><ele>768.6666666666667</ele><time>2026-04-11T14:20:37.925Z</time></trkpt><trkpt lat="44.419560410867234" lon="10.367502940294562"><ele>770.0</ele><time>2026-04-11T14:20:38.925Z</time></trkpt><trkpt lat="44.41942141653766" lon="10.367308985083325"><ele>774.0</ele><time>2026-04-11T14:20:39.925Z</time></trkpt><trkpt lat="44.41928350237771" lon="10.36712107307266"><ele>778.0</ele><time>2026-04-11T14:20:40.925Z</time></trkpt><trkpt lat="44.41915240658199" lon="10.3669553995833"><ele>782.0</ele><time>2026-04-11T14:20:41.925Z</time></trkpt><trkpt lat="44.41904770977972" lon="10.366805760221812"><ele>782.0</ele><time>2026-04-11T14:20:42.925Z</time></trkpt><trkpt lat="44.41892886492979" lon="10.366687974257127"><ele>782.0</ele><time>2026-04-11T14:20:43.925Z</time></trkpt><trkpt lat="44.41879350620455" lon="10.366612735885496"><ele>782.0</ele><time>2026-04-11T14:20:44.925Z</time></trkpt><trkpt lat="44.418665280693375" lon="10.366558686606146"><ele>782.0</ele><time>2026-04-11T14:20:45.925Z</time></trkpt><trkpt lat="44.41855385531936" lon="10.366503634402974"><ele>780.5</ele><time>2026-04-11T14:20:46.925Z</time></trkpt><trkpt lat="44.41845622339801" lon="10.366394414423793"><ele>779.0</ele><time>2026-04-11T14:20:47.925Z</time></trkpt><trkpt lat="44.41837092101993" lon="10.366245324775884"><ele>777.5</ele><time>2026-04-11T14:20:48.924Z</time></trkpt><trkpt lat="44.41830320242898" lon="10.366059258545318"><ele>776.0</ele><time>2026-04-11T14:20:49.924Z</time></trkpt><trkpt lat="44.41825471093249" lon="10.365919513362472"><ele>779.0</ele><time>2026-04-11T14:20:50.924Z</time></trkpt><trkpt lat="44.4182084771815" lon="10.365790355567366"><ele>782.0</ele><time>2026-04-11T14:20:51.924Z</time></trkpt><trkpt lat="44.418155067090595" lon="10.365667214990395"><ele>785.0</ele><time>2026-04-11T14:20:52.924Z</time></trkpt><trkpt lat="44.41811265378708" lon="10.365542115584327"><ele>788.0</ele><time>2026-04-11T14:20:53.924Z</time></trkpt><trkpt lat="44.418070923758705" lon="10.36540430900369"><ele>791.0</ele><time>2026-04-11T14:20:54.924Z</time></trkpt><trkpt lat="44.418024117625" lon="10.365266973339065"><ele>790.4</ele><time>2026-04-11T14:20:55.924Z</time></trkpt><trkpt lat="44.41798065591494" lon="10.365125369388661"><ele>789.8</ele><time>2026-04-11T14:20:56.924Z</time></trkpt><trkpt lat="44.41794598638478" lon="10.36497756549714"><ele>789.1999999999999</ele><time>2026-04-11T14:20:57.924Z</time></trkpt><trkpt lat="44.41792139225207" lon="10.364824176875544"><ele>788.5999999999999</ele><time>2026-04-11T14:20:58.924Z</time></trkpt><trkpt lat="44.417910695405105" lon="10.364668768956886"><ele>788.0</ele><time>2026-04-11T14:20:59.924Z</time></trkpt><trkpt lat="44.41790667012416" lon="10.36451640962839"><ele>788.0</ele><time>2026-04-11T14:21:00.924Z</time></trkpt><trkpt lat="44.41790813261168" lon="10.364355587510689"><ele>788.0</ele><time>2026-04-11T14:21:01.924Z</time></trkpt><trkpt lat="44.417915884006824" lon="10.364176679859263"><ele>788.0</ele><time>2026-04-11T14:21:02.924Z</time></trkpt><trkpt lat="44.41792881031375" lon="10.363963947202382"><ele>788.0</ele><time>2026-04-11T14:21:03.924Z</time></trkpt><trkpt lat="44.41795688012331" lon="10.363720249003123"><ele>793.6666666666667</ele><time>2026-04-11T14:21:04.924Z</time></trkpt><trkpt lat="44.41801175049825" lon="10.36347615143613"><ele>799.3333333333333</ele><time>2026-04-11T14:21:05.924Z</time></trkpt><trkpt lat="44.418073477071914" lon="10.363246496116114"><ele>805.0</ele><time>2026-04-11T14:21:06.924Z</time></trkpt><trkpt lat="44.41811706947649" lon="10.363006194557363"><ele>807.3333333333333</ele><time>2026-04-11T14:21:07.924Z</time></trkpt><trkpt lat="44.41816119019859" lon="10.362769703296511"><ele>809.6666666666667</ele><time>2026-04-11T14:21:08.924Z</time></trkpt><trkpt lat="44.4182032482414" lon="10.362525289441106"><ele>812.0</ele><time>2026-04-11T14:21:09.924Z</time></trkpt><trkpt lat="44.4182485898145" lon="10.362290955947222"><ele>813.0</ele><time>2026-04-11T14:21:10.924Z</time></trkpt><trkpt lat="44.41830041998429" lon="10.362072386959172"><ele>814.0</ele><time>2026-04-11T14:21:11.924Z</time></trkpt><trkpt lat="44.4183451133944" lon="10.361866784266104"><ele>815.0</ele><time>2026-04-11T14:21:12.924Z</time></trkpt><trkpt lat="44.418389456814985" lon="10.361686902238263"><ele>815.0</ele><time>2026-04-11T14:21:13.924Z</time></trkpt><trkpt lat="44.41842312090715" lon="10.361524557241385"><ele>815.0</ele><time>2026-04-11T14:21:14.924Z</time></trkpt><trkpt lat="44.418443166990954" lon="10.36137842619751"><ele>815.0</ele><time>2026-04-11T14:21:15.924Z</time></trkpt><trkpt lat="44.41844892918292" lon="10.361230740317101"><ele>815.0</ele><time>2026-04-11T14:21:16.924Z</time></trkpt><trkpt lat="44.418386397074116" lon="10.361082801225116"><ele>817.3333333333334</ele><time>2026-04-11T14:21:17.924Z</time></trkpt><trkpt lat="44.41827585923637" lon="10.360965323844503"><ele>819.6666666666667</ele><time>2026-04-11T14:21:18.924Z</time></trkpt><trkpt lat="44.41813240524497" lon="10.360840583200757"><ele>822.0</ele><time>2026-04-11T14:21:19.924Z</time></trkpt><trkpt lat="44.41798763354574" lon="10.360682651020777"><ele>823.6666666666667</ele><time>2026-04-11T14:21:20.924Z</time></trkpt><trkpt lat="44.41786171468876" lon="10.36048808043268"><ele>825.3333333333334</ele><time>2026-04-11T14:21:21.925Z</time></trkpt><trkpt lat="44.41774905008546" lon="10.360275701700358"><ele>827.0</ele><time>2026-04-11T14:21:22.925Z</time></trkpt><trkpt lat="44.41763980835721" lon="10.360078956106914"><ele>827.0</ele><time>2026-04-11T14:21:23.925Z</time></trkpt><trkpt lat="44.417527904836305" lon="10.359905205774947"><ele>827.0</ele><time>2026-04-11T14:21:24.925Z</time></trkpt><trkpt lat="44.417390543875115" lon="10.359758992997168"><ele>827.0</ele><time>2026-04-11T14:21:25.925Z</time></trkpt><trkpt lat="44.417226921103584" lon="10.35964272131818"><ele>830.0</ele><time>2026-04-11T14:21:26.925Z</time></trkpt><trkpt lat="44.41706552928794" lon="10.359548783114532"><ele>833.0</ele><time>2026-04-11T14:21:27.925Z</time></trkpt><trkpt lat="44.41693077098631" lon="10.359429261041454"><ele>836.0</ele><time>2026-04-11T14:21:28.925Z</time></trkpt><trkpt lat="44.41682282754009" lon="10.359272137790757"><ele>836.0</ele><time>2026-04-11T14:21:29.925Z</time></trkpt><trkpt lat="44.41672571630212" lon="10.359093310971662"><ele>836.0</ele><time>2026-04-11T14:21:30.925Z</time></trkpt><trkpt lat="44.41660772266668" lon="10.358937914142537"><ele>836.0</ele><time>2026-04-11T14:21:31.925Z</time></trkpt><trkpt lat="44.416454587712536" lon="10.358827174182855"><ele>840.0</ele><time>2026-04-11T14:21:32.925Z</time></trkpt><trkpt lat="44.4162823028445" lon="10.358732392778437"><ele>844.0</ele><time>2026-04-11T14:21:33.925Z</time></trkpt><trkpt lat="44.41610435222577" lon="10.358646342993476"><ele>848.0</ele><time>2026-04-11T14:21:34.925Z</time></trkpt><trkpt lat="44.41592813638954" lon="10.358554120413578"><ele>848.0</ele><time>2026-04-11T14:21:35.925Z</time></trkpt><trkpt lat="44.415750506699645" lon="10.358444965270385"><ele>848.0</ele><time>2026-04-11T14:21:36.925Z</time></trkpt><trkpt lat="44.41557863536432" lon="10.358343661496384"><ele>848.0</ele><time>2026-04-11T14:21:37.925Z</time></trkpt><trkpt lat="44.41542272195191" lon="10.358256303025058"><ele>847.5</ele><time>2026-04-11T14:21:38.925Z</time></trkpt><trkpt lat="44.415294484481116" lon="10.358183271112763"><ele>847.0</ele><time>2026-04-11T14:21:39.925Z</time></trkpt><trkpt lat="44.41518296148358" lon="10.358098726957454"><ele>846.5</ele><time>2026-04-11T14:21:40.925Z</time></trkpt><trkpt lat="44.415083524007365" lon="10.357974305211089"><ele>846.0</ele><time>2026-04-11T14:21:41.925Z</time></trkpt><trkpt lat="44.415019039506944" lon="10.3577862423793"><ele>847.75</ele><time>2026-04-11T14:21:42.925Z</time></trkpt><trkpt lat="44.414980338261614" lon="10.357593901069224"><ele>849.5</ele><time>2026-04-11T14:21:43.925Z</time></trkpt><trkpt lat="44.41498262128759" lon="10.357415573736327"><ele>851.25</ele><time>2026-04-11T14:21:44.925Z</time></trkpt><trkpt lat="44.415019503249596" lon="10.357242761295813"><ele>853.0</ele><time>2026-04-11T14:21:45.925Z</time></trkpt><trkpt lat="44.415088431241436" lon="10.357073931009031"><ele>855.75</ele><time>2026-04-11T14:21:46.925Z</time></trkpt><trkpt lat="44.41518709924429" lon="10.356938285205185"><ele>858.5</ele><time>2026-04-11T14:21:47.925Z</time></trkpt><trkpt lat="44.41531396884401" lon="10.35683889216539"><ele>861.25</ele><time>2026-04-11T14:21:48.925Z</time></trkpt><trkpt lat="44.415463107740955" lon="10.356782920730174"><ele>864.0</ele><time>2026-04-11T14:21:49.925Z</time></trkpt><trkpt lat="44.41562332711153" lon="10.356768189867156"><ele>865.3333333333333</ele><time>2026-04-11T14:21:50.925Z</time></trkpt><trkpt lat="44.41579333324862" lon="10.356762495701409"><ele>866.6666666666666</ele><time>2026-04-11T14:21:51.925Z</time></trkpt><trkpt lat="44.41596862666943" lon="10.35675635157163"><ele>868.0</ele><time>2026-04-11T14:21:52.925Z</time></trkpt><trkpt lat="44.41614818805598" lon="10.356750701936765"><ele>868.0</ele><time>2026-04-11T14:21:53.925Z</time></trkpt><trkpt lat="44.416312736294486" lon="10.356751975997675"><ele>868.0</ele><time>2026-04-11T14:21:54.925Z</time></trkpt><trkpt lat="44.41644988116099" lon="10.356757898947237"><ele>868.0</ele><time>2026-04-11T14:21:55.925Z</time></trkpt><trkpt lat="44.41656365814588" lon="10.356768377998943"><ele>868.0</ele><time>2026-04-11T14:21:56.925Z</time></trkpt><trkpt lat="44.41666125154219" lon="10.356769563449747"><ele>868.3333333333333</ele><time>2026-04-11T14:21:57.925Z</time></trkpt><trkpt lat="44.41674387503987" lon="10.356763110282511"><ele>868.6666666666666</ele><time>2026-04-11T14:21:58.925Z</time></trkpt><trkpt lat="44.41681018291301" lon="10.356735784551521"><ele>869.0</ele><time>2026-04-11T14:21:59.925Z</time></trkpt><trkpt lat="44.416848454322874" lon="10.356652131850996"><ele>869.3333333333333</ele><time>2026-04-11T14:22:00.925Z</time></trkpt><trkpt lat="44.41684667914762" lon="10.356539524665044"><ele>869.6666666666666</ele><time>2026-04-11T14:22:01.925Z</time></trkpt><trkpt lat="44.416790538228696" lon="10.356429423693427"><ele>870.0</ele><time>2026-04-11T14:22:02.925Z</time></trkpt><trkpt lat="44.416676860036866" lon="10.356336452571485"><ele>871.3333333333333</ele><time>2026-04-11T14:22:03.925Z</time></trkpt><trkpt lat="44.41653368588516" lon="10.356223442648483"><ele>872.6666666666666</ele><time>2026-04-11T14:22:04.925Z</time></trkpt><trkpt lat="44.41637209204836" lon="10.356072671906356"><ele>874.0</ele><time>2026-04-11T14:22:05.925Z</time></trkpt><trkpt lat="44.41621018153106" lon="10.355888623227244"><ele>876.3333333333333</ele><time>2026-04-11T14:22:06.925Z</time></trkpt><trkpt lat="44.41604358578938" lon="10.355686804017886"><ele>878.6666666666667</ele><time>2026-04-11T14:22:07.925Z</time></trkpt><trkpt lat="44.415884564528014" lon="10.355515901318714"><ele>881.0</ele><time>2026-04-11T14:22:08.925Z</time></trkpt><trkpt lat="44.41573382425122" lon="10.355387876514591"><ele>883.3333333333334</ele><time>2026-04-11T14:22:09.925Z</time></trkpt><trkpt lat="44.41556982560433" lon="10.355286712702844"><ele>885.6666666666667</ele><time>2026-04-11T14:22:10.925Z</time></trkpt><trkpt lat="44.415373994802756" lon="10.355207943574374"><ele>888.0</ele><time>2026-04-11T14:22:11.925Z</time></trkpt><trkpt lat="44.41519221762911" lon="10.355141131875904"><ele>888.0</ele><time>2026-04-11T14:22:12.925Z</time></trkpt><trkpt lat="44.41504563976786" lon="10.355068326603375"><ele>888.0</ele><time>2026-04-11T14:22:13.925Z</time></trkpt><trkpt lat="44.414933259086844" lon="10.354959350782943"><ele>888.0</ele><time>2026-04-11T14:22:14.925Z</time></trkpt><trkpt lat="44.41484891693047" lon="10.354805943182825"><ele>888.0</ele><time>2026-04-11T14:22:15.925Z</time></trkpt><trkpt lat="44.41476984724427" lon="10.354600784018547"><ele>888.4</ele><time>2026-04-11T14:22:16.925Z</time></trkpt><trkpt lat="44.414690346971014" lon="10.35441828521769"><ele>888.8</ele><time>2026-04-11T14:22:17.925Z</time></trkpt><trkpt lat="44.41462109003188" lon="10.354279548870656"><ele>889.2</ele><time>2026-04-11T14:22:18.925Z</time></trkpt><trkpt lat="44.41458106293866" lon="10.35417056837142"><ele>889.6</ele><time>2026-04-11T14:22:19.925Z</time></trkpt><trkpt lat="44.414576561450936" lon="10.354071008744102"><ele>890.0</ele><time>2026-04-11T14:22:20.925Z</time></trkpt><trkpt lat="44.41462861823154" lon="10.353980762232416"><ele>891.0</ele><time>2026-04-11T14:22:21.925Z</time></trkpt><trkpt lat="44.41471834795903" lon="10.353925710175531"><ele>892.0</ele><time>2026-04-11T14:22:22.925Z</time></trkpt><trkpt lat="44.41483947324569" lon="10.353900806012433"><ele>893.0</ele><time>2026-04-11T14:22:23.925Z</time></trkpt><trkpt lat="44.41499403444894" lon="10.35387600782"><ele>894.0</ele><time>2026-04-11T14:22:24.925Z</time></trkpt><trkpt lat="44.415145778217855" lon="10.353829363816564"><ele>895.75</ele><time>2026-04-11T14:22:25.925Z</time></trkpt><trkpt lat="44.41527191465309" lon="10.353788260185508"><ele>897.5</ele><time>2026-04-11T14:22:26.925Z</time></trkpt><trkpt lat="44.41537902698408" lon="10.353748115467607"><ele>899.25</ele><time>2026-04-11T14:22:27.925Z</time></trkpt><trkpt lat="44.41549080775697" lon="10.353707950063862"><ele>901.0</ele><time>2026-04-11T14:22:28.925Z</time></trkpt><trkpt lat="44.41560035554149" lon="10.353669275280298"><ele>901.5999999999999</ele><time>2026-04-11T14:22:29.925Z</time></trkpt><trkpt lat="44.41570993165259" lon="10.35363217574321"><ele>902.1999999999999</ele><time>2026-04-11T14:22:30.925Z</time></trkpt><trkpt lat="44.41581584318073" lon="10.35360054748332"><ele>902.8000000000001</ele><time>2026-04-11T14:22:31.925Z</time></trkpt><trkpt lat="44.41590910913789" lon="10.353558957848126"><ele>903.4000000000001</ele><time>2026-04-11T14:22:32.925Z</time></trkpt><trkpt lat="44.415983440201956" lon="10.353494019130254"><ele>904.0</ele><time>2026-04-11T14:22:33.925Z</time></trkpt><trkpt lat="44.41603708488976" lon="10.353406123472881"><ele>904.0</ele><time>2026-04-11T14:22:34.925Z</time></trkpt><trkpt lat="44.41607211949559" lon="10.353302495951992"><ele>904.0000000000001</ele><time>2026-04-11T14:22:35.925Z</time></trkpt><trkpt lat="44.41609148041183" lon="10.353185282564825"><ele>904.0000000000001</ele><time>2026-04-11T14:22:36.925Z</time></trkpt><trkpt lat="44.4161049145201" lon="10.353053381502948"><ele>904.0</ele><time>2026-04-11T14:22:37.925Z</time></trkpt><trkpt lat="44.41611167856966" lon="10.352914125524677"><ele>904.0</ele><time>2026-04-11T14:22:38.925Z</time></trkpt><trkpt lat="44.41612088991647" lon="10.352769822296628"><ele>905.6</ele><time>2026-04-11T14:22:39.925Z</time></trkpt><trkpt lat="44.416134897093585" lon="10.352620673311659"><ele>907.2</ele><time>2026-04-11T14:22:40.925Z</time></trkpt><trkpt lat="44.41615020606418" lon="10.35248084695145"><ele>908.8000000000001</ele><time>2026-04-11T14:22:41.925Z</time></trkpt><trkpt lat="44.41616254153332" lon="10.352340724011416"><ele>910.4000000000001</ele><time>2026-04-11T14:22:42.925Z</time></trkpt><trkpt lat="44.41617504698436" lon="10.35221394091219"><ele>912.0</ele><time>2026-04-11T14:22:43.925Z</time></trkpt><trkpt lat="44.416190536065066" lon="10.352090574209255"><ele>912.6</ele><time>2026-04-11T14:22:44.925Z</time></trkpt><trkpt lat="44.416219103609954" lon="10.351972749394632"><ele>913.2</ele><time>2026-04-11T14:22:45.925Z</time></trkpt><trkpt lat="44.416269394837265" lon="10.351865775423382"><ele>913.8</ele><time>2026-04-11T14:22:46.925Z</time></trkpt><trkpt lat="44.416331838339396" lon="10.35176689897592"><ele>914.4</ele><time>2026-04-11T14:22:47.925Z</time></trkpt><trkpt lat="44.416397150836225" lon="10.351685385543028"><ele>915.0</ele><time>2026-04-11T14:22:48.925Z</time></trkpt><trkpt lat="44.41647230497706" lon="10.351618944264919"><ele>915.0</ele><time>2026-04-11T14:22:49.925Z</time></trkpt><trkpt lat="44.416545858048316" lon="10.351550891775192"><ele>915.0</ele><time>2026-04-11T14:22:50.925Z</time></trkpt><trkpt lat="44.4166105784594" lon="10.3514830872"><ele>915.0</ele><time>2026-04-11T14:22:51.925Z</time></trkpt><trkpt lat="44.4166995845943" lon="10.351385558741507"><ele>915.0</ele><time>2026-04-11T14:22:53.925Z</time></trkpt><trkpt lat="44.41675272174543" lon="10.351270857901012"><ele>915.0</ele><time>2026-04-11T14:22:55.924Z</time></trkpt><trkpt lat="44.41673495671819" lon="10.35113422185494"><ele>915.8</ele><time>2026-04-11T14:22:57.924Z</time></trkpt><trkpt lat="44.416681160292384" lon="10.351082041697643"><ele>916.6</ele><time>2026-04-11T14:22:58.924Z</time></trkpt><trkpt lat="44.416598555237364" lon="10.351074196689648"><ele>917.4000000000001</ele><time>2026-04-11T14:22:59.924Z</time></trkpt><trkpt lat="44.41649796139423" lon="10.351120539189013"><ele>918.2</ele><time>2026-04-11T14:23:00.924Z</time></trkpt><trkpt lat="44.41637474478356" lon="10.351178041939813"><ele>919.0</ele><time>2026-04-11T14:23:01.924Z</time></trkpt><trkpt lat="44.41620750106861" lon="10.351220686015072"><ele>924.0</ele><time>2026-04-11T14:23:02.924Z</time></trkpt><trkpt lat="44.416011148538296" lon="10.35126782652343"><ele>929.0</ele><time>2026-04-11T14:23:03.924Z</time></trkpt><trkpt lat="44.41581721382135" lon="10.351317762450227"><ele>934.0</ele><time>2026-04-11T14:23:04.924Z</time></trkpt><trkpt lat="44.41564267235768" lon="10.351359498211696"><ele>932.0</ele><time>2026-04-11T14:23:05.924Z</time></trkpt><trkpt lat="44.41546337942369" lon="10.351376116302932"><ele>930.0</ele><time>2026-04-11T14:23:06.924Z</time></trkpt><trkpt lat="44.415281509264396" lon="10.351336313634315"><ele>928.0</ele><time>2026-04-11T14:23:07.924Z</time></trkpt><trkpt lat="44.41512545726108" lon="10.351277923105636"><ele>929.5</ele><time>2026-04-11T14:23:08.924Z</time></trkpt><trkpt lat="44.41498374620479" lon="10.351219637954522"><ele>931.0</ele><time>2026-04-11T14:23:09.924Z</time></trkpt><trkpt lat="44.414845546765775" lon="10.351144810719626"><ele>932.5</ele><time>2026-04-11T14:23:10.924Z</time></trkpt><trkpt lat="44.414721029646564" lon="10.351024966690874"><ele>934.0</ele><time>2026-04-11T14:23:11.924Z</time></trkpt><trkpt lat="44.41460092458194" lon="10.350863264389481"><ele>934.0</ele><time>2026-04-11T14:23:12.924Z</time></trkpt><trkpt lat="44.41448179525209" lon="10.350669866430053"><ele>934.0</ele><time>2026-04-11T14:23:13.924Z</time></trkpt><trkpt lat="44.414374658052644" lon="10.350489693623196"><ele>934.0</ele><time>2026-04-11T14:23:14.924Z</time></trkpt><trkpt lat="44.41427682689668" lon="10.350341281593609"><ele>937.25</ele><time>2026-04-11T14:23:15.924Z</time></trkpt><trkpt lat="44.41416383102532" lon="10.35022285647247"><ele>940.5</ele><time>2026-04-11T14:23:16.924Z</time></trkpt><trkpt lat="44.41403300588846" lon="10.350129214513606"><ele>943.75</ele><time>2026-04-11T14:23:17.924Z</time></trkpt><trkpt lat="44.41391886938972" lon="10.350020039492158"><ele>947.0</ele><time>2026-04-11T14:23:18.924Z</time></trkpt><trkpt lat="44.413829646679964" lon="10.349893794822057"><ele>948.6666666666667</ele><time>2026-04-11T14:23:19.924Z</time></trkpt><trkpt lat="44.41374608642436" lon="10.34972567483802"><ele>950.3333333333333</ele><time>2026-04-11T14:23:20.924Z</time></trkpt><trkpt lat="44.41367824603658" lon="10.349534808869647"><ele>952.0</ele><time>2026-04-11T14:23:21.924Z</time></trkpt><trkpt lat="44.41361180947377" lon="10.34932805601439"><ele>952.0</ele><time>2026-04-11T14:23:22.924Z</time></trkpt><trkpt lat="44.41354322454887" lon="10.349115298564458"><ele>952.0</ele><time>2026-04-11T14:23:23.924Z</time></trkpt><trkpt lat="44.413465494662354" lon="10.348910044743535"><ele>952.0</ele><time>2026-04-11T14:23:24.924Z</time></trkpt><trkpt lat="44.413382012285105" lon="10.348731371948206"><ele>955.25</ele><time>2026-04-11T14:23:25.924Z</time></trkpt><trkpt lat="44.4132982689669" lon="10.348587166890104"><ele>958.5</ele><time>2026-04-11T14:23:26.924Z</time></trkpt><trkpt lat="44.41324113970767" lon="10.348424357192934"><ele>961.75</ele><time>2026-04-11T14:23:27.924Z</time></trkpt><trkpt lat="44.41320102071357" lon="10.34823498367144"><ele>965.0</ele><time>2026-04-11T14:23:28.924Z</time></trkpt><trkpt lat="44.41315779017841" lon="10.348025820295364"><ele>965.5</ele><time>2026-04-11T14:23:29.924Z</time></trkpt><trkpt lat="44.413116021521084" lon="10.347824976453449"><ele>966.0</ele><time>2026-04-11T14:23:30.924Z</time></trkpt><trkpt lat="44.413070486384484" lon="10.347632947020287"><ele>966.5</ele><time>2026-04-11T14:23:31.924Z</time></trkpt><trkpt lat="44.413028955438236" lon="10.34744854581667"><ele>967.0</ele><time>2026-04-11T14:23:32.924Z</time></trkpt><trkpt lat="44.41299056428911" lon="10.34727314330394"><ele>969.0</ele><time>2026-04-11T14:23:33.924Z</time></trkpt><trkpt lat="44.41295602348342" lon="10.347114744942106"><ele>971.0</ele><time>2026-04-11T14:23:34.924Z</time></trkpt><trkpt lat="44.41292619344235" lon="10.3469826504419"><ele>973.0</ele><time>2026-04-11T14:23:35.924Z</time></trkpt><trkpt lat="44.41290590680339" lon="10.346867439821166"><ele>975.0</ele><time>2026-04-11T14:23:36.924Z</time></trkpt><trkpt lat="44.412878282265375" lon="10.3467609087294"><ele>977.0</ele><time>2026-04-11T14:23:37.924Z</time></trkpt><trkpt lat="44.41284389848142" lon="10.346636078501504"><ele>977.0</ele><time>2026-04-11T14:23:38.924Z</time></trkpt><trkpt lat="44.412802947827586" lon="10.346500815186822"><ele>977.0</ele><time>2026-04-11T14:23:39.924Z</time></trkpt><trkpt lat="44.41275537244968" lon="10.346361515900751"><ele>977.0</ele><time>2026-04-11T14:23:40.924Z</time></trkpt><trkpt lat="44.41268718155395" lon="10.34621694479415"><ele>977.0</ele><time>2026-04-11T14:23:41.924Z</time></trkpt><trkpt lat="44.41260228960832" lon="10.346075517609496"><ele>979.25</ele><time>2026-04-11T14:23:42.924Z</time></trkpt><trkpt lat="44.41251067081931" lon="10.345937516153418"><ele>981.5</ele><time>2026-04-11T14:23:43.924Z</time></trkpt><trkpt lat="44.412405234637575" lon="10.34580910134239"><ele>983.75</ele><time>2026-04-11T14:23:44.924Z</time></trkpt><trkpt lat="44.41228007760839" lon="10.345686077746146"><ele>986.0</ele><time>2026-04-11T14:23:45.924Z</time></trkpt><trkpt lat="44.41213916518346" lon="10.345570291282327"><ele>978.0</ele><time>2026-04-11T14:23:46.924Z</time></trkpt><trkpt lat="44.41198522088838" lon="10.345457003826692"><ele>970.0</ele><time>2026-04-11T14:23:47.924Z</time></trkpt><trkpt lat="44.411826045572035" lon="10.345347753727426"><ele>962.0</ele><time>2026-04-11T14:23:48.924Z</time></trkpt><trkpt lat="44.41165972558218" lon="10.345222036872935"><ele>962.0</ele><time>2026-04-11T14:23:49.924Z</time></trkpt><trkpt lat="44.411491423041994" lon="10.345099838497477"><ele>962.0</ele><time>2026-04-11T14:23:50.924Z</time></trkpt><trkpt lat="44.41132741901749" lon="10.344969589090447"><ele>962.0</ele><time>2026-04-11T14:23:51.924Z</time></trkpt><trkpt lat="44.41116826169814" lon="10.344855727142123"><ele>961.3333333333334</ele><time>2026-04-11T14:23:52.924Z</time></trkpt><trkpt lat="44.4110165810749" lon="10.344748012746386"><ele>960.6666666666667</ele><time>2026-04-11T14:23:53.924Z</time></trkpt><trkpt lat="44.41085100268106" lon="10.344638831258509"><ele>960.0</ele><time>2026-04-11T14:23:54.924Z</time></trkpt><trkpt lat="44.410680807642464" lon="10.344518863812992"><ele>960.0</ele><time>2026-04-11T14:23:55.924Z</time></trkpt><trkpt lat="44.41051315452253" lon="10.3443913830929"><ele>960.0</ele><time>2026-04-11T14:23:56.924Z</time></trkpt><trkpt lat="44.41034446767374" lon="10.344260333557632"><ele>960.0</ele><time>2026-04-11T14:23:57.924Z</time></trkpt><trkpt lat="44.410177075244455" lon="10.344138607710343"><ele>962.0</ele><time>2026-04-11T14:23:58.924Z</time></trkpt><trkpt lat="44.410008746054366" lon="10.344019711021174"><ele>964.0</ele><time>2026-04-11T14:23:59.924Z</time></trkpt><trkpt lat="44.40984826407307" lon="10.343897994109511"><ele>966.0</ele><time>2026-04-11T14:24:00.924Z</time></trkpt><trkpt lat="44.409695871456215" lon="10.343757305057862"><ele>970.3333333333333</ele><time>2026-04-11T14:24:01.924Z</time></trkpt><trkpt lat="44.40955443415609" lon="10.343585504790434"><ele>974.6666666666666</ele><time>2026-04-11T14:24:02.924Z</time></trkpt><trkpt lat="44.40943397609964" lon="10.343374278058278"><ele>979.0</ele><time>2026-04-11T14:24:03.924Z</time></trkpt><trkpt lat="44.40931524233511" lon="10.34315686898594"><ele>975.3333333333333</ele><time>2026-04-11T14:24:04.924Z</time></trkpt><trkpt lat="44.40918933469863" lon="10.342945629225053"><ele>971.6666666666667</ele><time>2026-04-11T14:24:05.924Z</time></trkpt><trkpt lat="44.40907132427866" lon="10.342741521952808"><ele>968.0</ele><time>2026-04-11T14:24:06.924Z</time></trkpt><trkpt lat="44.408956576147155" lon="10.34255667842538"><ele>968.0</ele><time>2026-04-11T14:24:07.924Z</time></trkpt><trkpt lat="44.40884765332587" lon="10.34238649690499"><ele>968.0</ele><time>2026-04-11T14:24:08.924Z</time></trkpt><trkpt lat="44.408740425633795" lon="10.342215838762016"><ele>968.0</ele><time>2026-04-11T14:24:09.924Z</time></trkpt><trkpt lat="44.40863585278027" lon="10.342036498233401"><ele>968.0</ele><time>2026-04-11T14:24:10.924Z</time></trkpt><trkpt lat="44.40853782862398" lon="10.341844756544441"><ele>968.0</ele><time>2026-04-11T14:24:11.924Z</time></trkpt><trkpt lat="44.40846087287922" lon="10.341628124984581"><ele>968.0</ele><time>2026-04-11T14:24:12.924Z</time></trkpt><trkpt lat="44.40839277417734" lon="10.341423860087808"><ele>968.6666666666667</ele><time>2026-04-11T14:24:13.924Z</time></trkpt><trkpt lat="44.408338251365" lon="10.341208980607812"><ele>969.3333333333333</ele><time>2026-04-11T14:24:14.924Z</time></trkpt><trkpt lat="44.40830331228612" lon="10.340975665652977"><ele>970.0</ele><time>2026-04-11T14:24:15.924Z</time></trkpt><trkpt lat="44.4082767947001" lon="10.340734705077443"><ele>969.3333333333333</ele><time>2026-04-11T14:24:16.924Z</time></trkpt><trkpt lat="44.40826201289524" lon="10.340479411660223"><ele>968.6666666666667</ele><time>2026-04-11T14:24:17.924Z</time></trkpt><trkpt lat="44.40824129247611" lon="10.340225943094794"><ele>968.0</ele><time>2026-04-11T14:24:18.924Z</time></trkpt><trkpt lat="44.40822339497244" lon="10.339986550691162"><ele>968.0</ele><time>2026-04-11T14:24:19.924Z</time></trkpt><trkpt lat="44.40820982916749" lon="10.339757650473956"><ele>968.0</ele><time>2026-04-11T14:24:20.924Z</time></trkpt><trkpt lat="44.408198453244054" lon="10.339534057552902"><ele>968.0</ele><time>2026-04-11T14:24:21.924Z</time></trkpt><trkpt lat="44.408183669875804" lon="10.339301952541799"><ele>967.0</ele><time>2026-04-11T14:24:22.924Z</time></trkpt><trkpt lat="44.408171415462874" lon="10.339070596951345"><ele>966.0</ele><time>2026-04-11T14:24:23.924Z</time></trkpt><trkpt lat="44.40815535147805" lon="10.338845667305732"><ele>965.0</ele><time>2026-04-11T14:24:24.924Z</time></trkpt><trkpt lat="44.408136781165545" lon="10.33863704166751"><ele>965.0</ele><time>2026-04-11T14:24:25.924Z</time></trkpt><trkpt lat="44.40810632497957" lon="10.338444429243957"><ele>965.0</ele><time>2026-04-11T14:24:26.924Z</time></trkpt><trkpt lat="44.40804679745365" lon="10.338258890615649"><ele>965.0</ele><time>2026-04-11T14:24:27.924Z</time></trkpt><trkpt lat="44.40796058918289" lon="10.338089246902106"><ele>965.0</ele><time>2026-04-11T14:24:28.924Z</time></trkpt><trkpt lat="44.40784300010564" lon="10.337938818416447"><ele>964.0</ele><time>2026-04-11T14:24:29.924Z</time></trkpt><trkpt lat="44.40771581181011" lon="10.337812527839363"><ele>963.0</ele><time>2026-04-11T14:24:30.924Z</time></trkpt><trkpt lat="44.40757369282182" lon="10.337715549967438"><ele>962.0</ele><time>2026-04-11T14:24:31.924Z</time></trkpt><trkpt lat="44.40742373764787" lon="10.337647354198657"><ele>962.0</ele><time>2026-04-11T14:24:32.924Z</time></trkpt><trkpt lat="44.4072627031932" lon="10.337616002796198"><ele>962.0</ele><time>2026-04-11T14:24:33.924Z</time></trkpt><trkpt lat="44.40709476921907" lon="10.337571883339676"><ele>962.0</ele><time>2026-04-11T14:24:34.924Z</time></trkpt><trkpt lat="44.40693009328037" lon="10.337486074212789"><ele>963.6666666666667</ele><time>2026-04-11T14:24:35.924Z</time></trkpt><trkpt lat="44.40678017185731" lon="10.33736143039068"><ele>965.3333333333333</ele><time>2026-04-11T14:24:36.925Z</time></trkpt><trkpt lat="44.406642681009174" lon="10.337220696930263"><ele>967.0</ele><time>2026-04-11T14:24:37.925Z</time></trkpt><trkpt lat="44.40650268580472" lon="10.337071220964802"><ele>967.0</ele><time>2026-04-11T14:24:38.925Z</time></trkpt><trkpt lat="44.40636266938869" lon="10.336921332229199"><ele>967.0</ele><time>2026-04-11T14:24:39.925Z</time></trkpt><trkpt lat="44.406250471578964" lon="10.336797992406083"><ele>967.0</ele><time>2026-04-11T14:24:40.925Z</time></trkpt><trkpt lat="44.40615593541578" lon="10.336691477295867"><ele>967.0</ele><time>2026-04-11T14:24:41.925Z</time></trkpt><trkpt lat="44.40606704255577" lon="10.336589008024344"><ele>966.25</ele><time>2026-04-11T14:24:42.925Z</time></trkpt><trkpt lat="44.40599001606782" lon="10.336471880852905"><ele>965.5</ele><time>2026-04-11T14:24:43.925Z</time></trkpt><trkpt lat="44.405922415365296" lon="10.33634108654524"><ele>964.75</ele><time>2026-04-11T14:24:44.925Z</time></trkpt><trkpt lat="44.40586254418054" lon="10.336201972989922"><ele>964.0</ele><time>2026-04-11T14:24:45.925Z</time></trkpt><trkpt lat="44.40581418393392" lon="10.336046256228313"><ele>964.0</ele><time>2026-04-11T14:24:46.925Z</time></trkpt><trkpt lat="44.40577285938317" lon="10.335877162309941"><ele>964.0</ele><time>2026-04-11T14:24:47.925Z</time></trkpt><trkpt lat="44.4057349397025" lon="10.335704755659876"><ele>964.0</ele><time>2026-04-11T14:24:48.925Z</time></trkpt><trkpt lat="44.40568950003784" lon="10.33553165382929"><ele>964.0</ele><time>2026-04-11T14:24:49.925Z</time></trkpt><trkpt lat="44.40563447474425" lon="10.335362290996738"><ele>965.25</ele><time>2026-04-11T14:24:50.925Z</time></trkpt><trkpt lat="44.40556983453289" lon="10.33519529487295"><ele>966.5</ele><time>2026-04-11T14:24:51.925Z</time></trkpt><trkpt lat="44.40550073589829" lon="10.33503036921492"><ele>967.75</ele><time>2026-04-11T14:24:52.925Z</time></trkpt><trkpt lat="44.405431224932265" lon="10.334873707724796"><ele>969.0</ele><time>2026-04-11T14:24:53.925Z</time></trkpt><trkpt lat="44.40536596175632" lon="10.334718514493876"><ele>965.75</ele><time>2026-04-11T14:24:54.925Z</time></trkpt><trkpt lat="44.40529815842733" lon="10.334564594855946"><ele>962.5</ele><time>2026-04-11T14:24:55.925Z</time></trkpt><trkpt lat="44.405233045770466" lon="10.334412342869786"><ele>959.25</ele><time>2026-04-11T14:24:56.925Z</time></trkpt><trkpt lat="44.405164018451984" lon="10.334263295510446"><ele>956.0</ele><time>2026-04-11T14:24:57.925Z</time></trkpt><trkpt lat="44.40509878066816" lon="10.33411084716237"><ele>956.0</ele><time>2026-04-11T14:24:58.925Z</time></trkpt><trkpt lat="44.40503077634546" lon="10.333959215898764"><ele>956.0</ele><time>2026-04-11T14:24:59.925Z</time></trkpt><trkpt lat="44.40496153826508" lon="10.333807660385041"><ele>956.0</ele><time>2026-04-11T14:25:00.924Z</time></trkpt><trkpt lat="44.40489520151568" lon="10.333654467062576"><ele>956.0</ele><time>2026-04-11T14:25:01.923Z</time></trkpt><trkpt lat="44.404827026170125" lon="10.333501615000666"><ele>954.75</ele><time>2026-04-11T14:25:02.924Z</time></trkpt><trkpt lat="44.40475957151817" lon="10.333345012810579"><ele>953.5</ele><time>2026-04-11T14:25:03.924Z</time></trkpt><trkpt lat="44.40468852350981" lon="10.33317853518138"><ele>952.25</ele><time>2026-04-11T14:25:04.923Z</time></trkpt><trkpt lat="44.404618592769005" lon="10.33301281050731"><ele>951.0</ele><time>2026-04-11T14:25:05.923Z</time></trkpt><trkpt lat="44.40454710102219" lon="10.332848278538394"><ele>951.0</ele><time>2026-04-11T14:25:06.924Z</time></trkpt><trkpt lat="44.40447312464819" lon="10.332683371063045"><ele>951.0</ele><time>2026-04-11T14:25:07.924Z</time></trkpt><trkpt lat="44.40439846099591" lon="10.332522986549145"><ele>951.0</ele><time>2026-04-11T14:25:08.924Z</time></trkpt><trkpt lat="44.40431894969271" lon="10.332366852141407"><ele>951.0</ele><time>2026-04-11T14:25:09.924Z</time></trkpt><trkpt lat="44.40423473345994" lon="10.332206883241655"><ele>953.3333333333333</ele><time>2026-04-11T14:25:10.924Z</time></trkpt><trkpt lat="44.40413575406191" lon="10.332032110088614"><ele>955.6666666666666</ele><time>2026-04-11T14:25:11.924Z</time></trkpt><trkpt lat="44.40402800382987" lon="10.33183931499849"><ele>958.0</ele><time>2026-04-11T14:25:12.924Z</time></trkpt><trkpt lat="44.40391681198479" lon="10.331649140083398"><ele>958.3333333333333</ele><time>2026-04-11T14:25:13.924Z</time></trkpt><trkpt lat="44.403802976814255" lon="10.331446649276764"><ele>958.6666666666667</ele><time>2026-04-11T14:25:14.924Z</time></trkpt><trkpt lat="44.4036839113675" lon="10.331232793341126"><ele>959.0</ele><time>2026-04-11T14:25:15.924Z</time></trkpt><trkpt lat="44.40356792038584" lon="10.33102520758109"><ele>959.0</ele><time>2026-04-11T14:25:16.924Z</time></trkpt><trkpt lat="44.40345406446912" lon="10.330831658943966"><ele>959.0</ele><time>2026-04-11T14:25:17.924Z</time></trkpt><trkpt lat="44.40335075286135" lon="10.330651365413999"><ele>959.0</ele><time>2026-04-11T14:25:18.924Z</time></trkpt><trkpt lat="44.403254217778546" lon="10.330487986073555"><ele>960.5</ele><time>2026-04-11T14:25:19.924Z</time></trkpt><trkpt lat="44.40316725322173" lon="10.330339901051769"><ele>962.0</ele><time>2026-04-11T14:25:20.924Z</time></trkpt><trkpt lat="44.40306972047635" lon="10.330211466635504"><ele>963.5</ele><time>2026-04-11T14:25:21.924Z</time></trkpt><trkpt lat="44.40295045480543" lon="10.33012801092564"><ele>965.0</ele><time>2026-04-11T14:25:22.924Z</time></trkpt><trkpt lat="44.402820543940024" lon="10.330096847993236"><ele>966.0</ele><time>2026-04-11T14:25:23.924Z</time></trkpt><trkpt lat="44.40268806132609" lon="10.330123441591285"><ele>967.0</ele><time>2026-04-11T14:25:24.924Z</time></trkpt><trkpt lat="44.402554154022695" lon="10.330201336514738"><ele>968.0</ele><time>2026-04-11T14:25:25.924Z</time></trkpt><trkpt lat="44.40241392542073" lon="10.330296373404824"><ele>969.0</ele><time>2026-04-11T14:25:26.924Z</time></trkpt><trkpt lat="44.40227166423119" lon="10.330388925292095"><ele>969.75</ele><time>2026-04-11T14:25:27.924Z</time></trkpt><trkpt lat="44.40213026588876" lon="10.330455404932117"><ele>970.5</ele><time>2026-04-11T14:25:28.924Z</time></trkpt><trkpt lat="44.401992791502614" lon="10.330482195338837"><ele>971.25</ele><time>2026-04-11T14:25:29.924Z</time></trkpt><trkpt lat="44.401848939067754" lon="10.330485278547663"><ele>972.0</ele><time>2026-04-11T14:25:30.924Z</time></trkpt><trkpt lat="44.40169784457132" lon="10.330438620141576"><ele>972.0</ele><time>2026-04-11T14:25:31.924Z</time></trkpt><trkpt lat="44.401541553143446" lon="10.330374232814826"><ele>972.0</ele><time>2026-04-11T14:25:32.924Z</time></trkpt><trkpt lat="44.40137884430944" lon="10.330313023043068"><ele>972.0</ele><time>2026-04-11T14:25:33.924Z</time></trkpt><trkpt lat="44.40120916272038" lon="10.330244860319995"><ele>969.0</ele><time>2026-04-11T14:25:34.924Z</time></trkpt><trkpt lat="44.40104412301917" lon="10.330151773130334"><ele>966.0</ele><time>2026-04-11T14:25:35.924Z</time></trkpt><trkpt lat="44.40087599816408" lon="10.330044180109706"><ele>963.0</ele><time>2026-04-11T14:25:36.924Z</time></trkpt><trkpt lat="44.400714906868714" lon="10.329936438132375"><ele>963.0</ele><time>2026-04-11T14:25:37.924Z</time></trkpt><trkpt lat="44.400569799806384" lon="10.329841516470143"><ele>963.0</ele><time>2026-04-11T14:25:38.924Z</time></trkpt><trkpt lat="44.400436165145386" lon="10.329751580316586"><ele>963.0</ele><time>2026-04-11T14:25:39.924Z</time></trkpt><trkpt lat="44.400306650862674" lon="10.32966564723842"><ele>963.25</ele><time>2026-04-11T14:25:40.924Z</time></trkpt><trkpt lat="44.400178748400194" lon="10.329579751817082"><ele>963.5</ele><time>2026-04-11T14:25:41.924Z</time></trkpt><trkpt lat="44.4000494152681" lon="10.32948948856434"><ele>963.75</ele><time>2026-04-11T14:25:42.924Z</time></trkpt><trkpt lat="44.39991852685276" lon="10.329398164600809"><ele>964.0</ele><time>2026-04-11T14:25:43.924Z</time></trkpt><trkpt lat="44.399777521492766" lon="10.329312281807393"><ele>962.3333333333333</ele><time>2026-04-11T14:25:44.924Z</time></trkpt><trkpt lat="44.39961257907631" lon="10.329240922114996"><ele>960.6666666666667</ele><time>2026-04-11T14:25:45.924Z</time></trkpt><trkpt lat="44.399418307686226" lon="10.329167235381048"><ele>959.0</ele><time>2026-04-11T14:25:46.924Z</time></trkpt><trkpt lat="44.399214708078055" lon="10.329087301963202"><ele>959.0</ele><time>2026-04-11T14:25:47.924Z</time></trkpt><trkpt lat="44.399033216468936" lon="10.329018543340457"><ele>959.0</ele><time>2026-04-11T14:25:48.924Z</time></trkpt><trkpt lat="44.39886605466335" lon="10.328960209044968"><ele>959.0</ele><time>2026-04-11T14:25:49.924Z</time></trkpt><trkpt lat="44.39869715473496" lon="10.328908509754324"><ele>958.6666666666667</ele><time>2026-04-11T14:25:50.924Z</time></trkpt><trkpt lat="44.398518544380494" lon="10.328877486008684"><ele>958.3333333333333</ele><time>2026-04-11T14:25:51.924Z</time></trkpt><trkpt lat="44.398334147114234" lon="10.328889184347814"><ele>958.0</ele><time>2026-04-11T14:25:52.924Z</time></trkpt><trkpt lat="44.39814375543173" lon="10.328929951981587"><ele>958.0</ele><time>2026-04-11T14:25:53.924Z</time></trkpt><trkpt lat="44.397954872509516" lon="10.328986003420486"><ele>958.0</ele><time>2026-04-11T14:25:54.924Z</time></trkpt><trkpt lat="44.39776716401058" lon="10.329041161988485"><ele>958.0</ele><time>2026-04-11T14:25:55.924Z</time></trkpt><trkpt lat="44.39758435203411" lon="10.32909588354657"><ele>958.0</ele><time>2026-04-11T14:25:56.924Z</time></trkpt><trkpt lat="44.39740897758083" lon="10.329144847039165"><ele>958.0</ele><time>2026-04-11T14:25:57.924Z</time></trkpt><trkpt lat="44.397245085961835" lon="10.3291919347037"><ele>958.0</ele><time>2026-04-11T14:25:58.924Z</time></trkpt><trkpt lat="44.397093906129484" lon="10.329236555221014"><ele>957.3333333333333</ele><time>2026-04-11T14:25:59.924Z</time></trkpt><trkpt lat="44.39694797602832" lon="10.329266888999985"><ele>956.6666666666667</ele><time>2026-04-11T14:26:00.924Z</time></trkpt><trkpt lat="44.39679109786291" lon="10.329267852904803"><ele>956.0</ele><time>2026-04-11T14:26:01.924Z</time></trkpt><trkpt lat="44.396625106935936" lon="10.329231429493747"><ele>956.0</ele><time>2026-04-11T14:26:02.924Z</time></trkpt><trkpt lat="44.396459326296274" lon="10.329151573931057"><ele>956.0</ele><time>2026-04-11T14:26:03.924Z</time></trkpt><trkpt lat="44.396295277829715" lon="10.329055284567861"><ele>956.0</ele><time>2026-04-11T14:26:04.924Z</time></trkpt><trkpt lat="44.39613181495573" lon="10.328950110114125"><ele>958.6666666666667</ele><time>2026-04-11T14:26:05.924Z</time></trkpt><trkpt lat="44.395961250120536" lon="10.32885724974116"><ele>961.3333333333333</ele><time>2026-04-11T14:26:06.924Z</time></trkpt><trkpt lat="44.39578621837129" lon="10.32876653948112"><ele>964.0</ele><time>2026-04-11T14:26:07.924Z</time></trkpt><trkpt lat="44.395609146450255" lon="10.328669683526332"><ele>961.3333333333333</ele><time>2026-04-11T14:26:08.924Z</time></trkpt><trkpt lat="44.39542684394833" lon="10.328574831312784"><ele>958.6666666666667</ele><time>2026-04-11T14:26:09.924Z</time></trkpt><trkpt lat="44.39523920316703" lon="10.328478118105613"><ele>956.0</ele><time>2026-04-11T14:26:10.924Z</time></trkpt><trkpt lat="44.395046437081206" lon="10.328392230156165"><ele>956.0</ele><time>2026-04-11T14:26:11.924Z</time></trkpt><trkpt lat="44.39484706966188" lon="10.328336378781433"><ele>956.0</ele><time>2026-04-11T14:26:12.924Z</time></trkpt><trkpt lat="44.39464395723462" lon="10.328304018077201"><ele>956.0</ele><time>2026-04-11T14:26:13.924Z</time></trkpt><trkpt lat="44.39444203067495" lon="10.328292605095832"><ele>956.0</ele><time>2026-04-11T14:26:14.924Z</time></trkpt><trkpt lat="44.39423753189237" lon="10.328294941919163"><ele>956.0</ele><time>2026-04-11T14:26:15.924Z</time></trkpt><trkpt lat="44.39403283293263" lon="10.328288970407622"><ele>956.0</ele><time>2026-04-11T14:26:16.924Z</time></trkpt><trkpt lat="44.39384215236876" lon="10.32827677647638"><ele>952.6666666666667</ele><time>2026-04-11T14:26:17.924Z</time></trkpt><trkpt lat="44.39366405256195" lon="10.328260343961418"><ele>949.3333333333333</ele><time>2026-04-11T14:26:18.924Z</time></trkpt><trkpt lat="44.393489754363635" lon="10.328227475926925"><ele>946.0</ele><time>2026-04-11T14:26:19.924Z</time></trkpt><trkpt lat="44.39333369241834" lon="10.328167878510913"><ele>947.3333333333333</ele><time>2026-04-11T14:26:20.924Z</time></trkpt><trkpt lat="44.3931964490675" lon="10.32805730205193"><ele>948.6666666666667</ele><time>2026-04-11T14:26:21.924Z</time></trkpt><trkpt lat="44.39307154581043" lon="10.327915389780037"><ele>950.0</ele><time>2026-04-11T14:26:22.924Z</time></trkpt><trkpt lat="44.392964211457866" lon="10.327744156451415"><ele>950.0</ele><time>2026-04-11T14:26:23.924Z</time></trkpt><trkpt lat="44.39287470453605" lon="10.327571182691301"><ele>950.0</ele><time>2026-04-11T14:26:24.924Z</time></trkpt><trkpt lat="44.3927832710016" lon="10.327424313282693"><ele>950.0</ele><time>2026-04-11T14:26:25.924Z</time></trkpt><trkpt lat="44.392679431302945" lon="10.327299622918988"><ele>950.0</ele><time>2026-04-11T14:26:26.924Z</time></trkpt><trkpt lat="44.39255106846669" lon="10.327211444694994"><ele>951.6666666666667</ele><time>2026-04-11T14:26:27.924Z</time></trkpt><trkpt lat="44.392410993162876" lon="10.327168793417298"><ele>953.3333333333333</ele><time>2026-04-11T14:26:28.924Z</time></trkpt><trkpt lat="44.39225721438203" lon="10.327192981897083"><ele>955.0</ele><time>2026-04-11T14:26:29.924Z</time></trkpt><trkpt lat="44.39210235949549" lon="10.327280578020227"><ele>955.0</ele><time>2026-04-11T14:26:30.924Z</time></trkpt><trkpt lat="44.39195413931371" lon="10.327412537064138"><ele>955.0</ele><time>2026-04-11T14:26:31.924Z</time></trkpt><trkpt lat="44.391802189828574" lon="10.327562151851177"><ele>955.0</ele><time>2026-04-11T14:26:32.924Z</time></trkpt><trkpt lat="44.391646628239165" lon="10.327722073799478"><ele>955.0</ele><time>2026-04-11T14:26:33.924Z</time></trkpt><trkpt lat="44.391486993340386" lon="10.32790464979212"><ele>955.0</ele><time>2026-04-11T14:26:34.924Z</time></trkpt><trkpt lat="44.391324748434734" lon="10.328069333956297"><ele>955.0</ele><time>2026-04-11T14:26:35.924Z</time></trkpt><trkpt lat="44.391159112234064" lon="10.328232494450251"><ele>954.3333333333333</ele><time>2026-04-11T14:26:36.924Z</time></trkpt><trkpt lat="44.39099427344006" lon="10.328394573084152"><ele>953.6666666666667</ele><time>2026-04-11T14:26:37.924Z</time></trkpt><trkpt lat="44.39083799494449" lon="10.328544989823044"><ele>953.0</ele><time>2026-04-11T14:26:38.924Z</time></trkpt><trkpt lat="44.39069117938872" lon="10.328686238400197"><ele>953.0</ele><time>2026-04-11T14:26:39.924Z</time></trkpt><trkpt lat="44.39055495442569" lon="10.328811789487656"><ele>953.0</ele><time>2026-04-11T14:26:40.924Z</time></trkpt><trkpt lat="44.390424607089486" lon="10.328912908852304"><ele>953.0</ele><time>2026-04-11T14:26:41.924Z</time></trkpt><trkpt lat="44.39028660465347" lon="10.328975712932692"><ele>955.0</ele><time>2026-04-11T14:26:42.924Z</time></trkpt><trkpt lat="44.39013316099128" lon="10.328982633005598"><ele>957.0</ele><time>2026-04-11T14:26:43.924Z</time></trkpt><trkpt lat="44.38997045453362" lon="10.328935349699474"><ele>959.0</ele><time>2026-04-11T14:26:44.924Z</time></trkpt><trkpt lat="44.38980149458493" lon="10.328853498245596"><ele>958.0</ele><time>2026-04-11T14:26:45.924Z</time></trkpt><trkpt lat="44.389628558901656" lon="10.328768559101567"><ele>957.0</ele><time>2026-04-11T14:26:46.925Z</time></trkpt><trkpt lat="44.38945483054851" lon="10.328688732823915"><ele>956.0</ele><time>2026-04-11T14:26:47.925Z</time></trkpt><trkpt lat="44.38929619605637" lon="10.328616882317576"><ele>956.0</ele><time>2026-04-11T14:26:48.925Z</time></trkpt><trkpt lat="44.389131951196944" lon="10.328592810805581"><ele>956.0</ele><time>2026-04-11T14:26:49.925Z</time></trkpt><trkpt lat="44.38895460796387" lon="10.32861159954471"><ele>956.0</ele><time>2026-04-11T14:26:50.925Z</time></trkpt><trkpt lat="44.38876255219021" lon="10.328659054129712"><ele>956.3333333333334</ele><time>2026-04-11T14:26:51.925Z</time></trkpt><trkpt lat="44.38856133165331" lon="10.328724272305507"><ele>956.6666666666667</ele><time>2026-04-11T14:26:52.925Z</time></trkpt><trkpt lat="44.38834927402982" lon="10.328803904983722"><ele>957.0</ele><time>2026-04-11T14:26:53.925Z</time></trkpt><trkpt lat="44.38813061611092" lon="10.328888178426846"><ele>949.6666666666667</ele><time>2026-04-11T14:26:54.925Z</time></trkpt><trkpt lat="44.3879192755952" lon="10.328943831855213"><ele>942.3333333333334</ele><time>2026-04-11T14:26:55.925Z</time></trkpt><trkpt lat="44.38771323008661" lon="10.329042274083681"><ele>935.0</ele><time>2026-04-11T14:26:56.925Z</time></trkpt><trkpt lat="44.38752409327264" lon="10.329092645771793"><ele>935.0</ele><time>2026-04-11T14:26:57.925Z</time></trkpt><trkpt lat="44.38733822562371" lon="10.329144308758012"><ele>935.0</ele><time>2026-04-11T14:26:58.925Z</time></trkpt><trkpt lat="44.38714259700251" lon="10.329183230175246"><ele>935.0</ele><time>2026-04-11T14:26:59.925Z</time></trkpt><trkpt lat="44.386935886594834" lon="10.32918392986746"><ele>933.6666666666667</ele><time>2026-04-11T14:27:00.925Z</time></trkpt><trkpt lat="44.38672520799823" lon="10.329151988669569"><ele>932.3333333333333</ele><time>2026-04-11T14:27:01.925Z</time></trkpt><trkpt lat="44.38651282184039" lon="10.329119714940472"><ele>931.0</ele><time>2026-04-11T14:27:02.925Z</time></trkpt><trkpt lat="44.386300409573074" lon="10.329094771235539"><ele>930.0</ele><time>2026-04-11T14:27:03.925Z</time></trkpt><trkpt lat="44.38608779940237" lon="10.329070057139557"><ele>929.0</ele><time>2026-04-11T14:27:04.925Z</time></trkpt><trkpt lat="44.38587123279811" lon="10.32905475035041"><ele>928.0</ele><time>2026-04-11T14:27:05.925Z</time></trkpt><trkpt lat="44.38565924888338" lon="10.329026531194444"><ele>927.0</ele><time>2026-04-11T14:27:06.923Z</time></trkpt><trkpt lat="44.385456082949474" lon="10.328992681365214"><ele>926.0</ele><time>2026-04-11T14:27:07.924Z</time></trkpt><trkpt lat="44.38525383525148" lon="10.32897219342831"><ele>925.0</ele><time>2026-04-11T14:27:08.924Z</time></trkpt><trkpt lat="44.385059701538864" lon="10.328951225355118"><ele>925.0</ele><time>2026-04-11T14:27:09.924Z</time></trkpt><trkpt lat="44.384877394552525" lon="10.328923848723644"><ele>925.0</ele><time>2026-04-11T14:27:10.924Z</time></trkpt><trkpt lat="44.38470787576069" lon="10.328892630170392"><ele>925.0</ele><time>2026-04-11T14:27:11.924Z</time></trkpt><trkpt lat="44.38455183722982" lon="10.328867035988484"><ele>927.0</ele><time>2026-04-11T14:27:12.924Z</time></trkpt><trkpt lat="44.38439706375159" lon="10.328867626053821"><ele>929.0</ele><time>2026-04-11T14:27:13.924Z</time></trkpt><trkpt lat="44.38423958090981" lon="10.328908104312193"><ele>931.0</ele><time>2026-04-11T14:27:14.924Z</time></trkpt><trkpt lat="44.38408441575919" lon="10.328995744231584"><ele>929.6666666666666</ele><time>2026-04-11T14:27:15.923Z</time></trkpt><trkpt lat="44.38393675088284" lon="10.329125007849475"><ele>928.3333333333333</ele><time>2026-04-11T14:27:16.924Z</time></trkpt><trkpt lat="44.38380312850943" lon="10.329299865882467"><ele>927.0</ele><time>2026-04-11T14:27:17.924Z</time></trkpt><trkpt lat="44.38369354417239" lon="10.329497346858805"><ele>925.0</ele><time>2026-04-11T14:27:18.924Z</time></trkpt><trkpt lat="44.38359624886275" lon="10.329734634383481"><ele>923.0</ele><time>2026-04-11T14:27:19.924Z</time></trkpt><trkpt lat="44.383505667243774" lon="10.329987758035447"><ele>921.0</ele><time>2026-04-11T14:27:20.924Z</time></trkpt><trkpt lat="44.38340484938041" lon="10.330249616650706"><ele>921.0</ele><time>2026-04-11T14:27:21.924Z</time></trkpt><trkpt lat="44.38329944667496" lon="10.330520165736495"><ele>921.0</ele><time>2026-04-11T14:27:22.924Z</time></trkpt><trkpt lat="44.38319255533309" lon="10.33078507762509"><ele>921.0</ele><time>2026-04-11T14:27:23.924Z</time></trkpt><trkpt lat="44.38306540467598" lon="10.331043838635033"><ele>921.6666666666667</ele><time>2026-04-11T14:27:24.924Z</time></trkpt><trkpt lat="44.38293005289804" lon="10.331289922347041"><ele>922.3333333333334</ele><time>2026-04-11T14:27:25.924Z</time></trkpt><trkpt lat="44.382793321191556" lon="10.331535807653978"><ele>923.0</ele><time>2026-04-11T14:27:26.924Z</time></trkpt><trkpt lat="44.382661789832675" lon="10.331774762895868"><ele>923.0</ele><time>2026-04-11T14:27:27.924Z</time></trkpt><trkpt lat="44.382537225156746" lon="10.33199901316958"><ele>923.0</ele><time>2026-04-11T14:27:28.924Z</time></trkpt><trkpt lat="44.382417752381606" lon="10.332212124427459"><ele>923.0</ele><time>2026-04-11T14:27:29.924Z</time></trkpt><trkpt lat="44.382304224468555" lon="10.332409391325694"><ele>926.3333333333334</ele><time>2026-04-11T14:27:30.924Z</time></trkpt><trkpt lat="44.38219579192048" lon="10.332594217436776"><ele>929.6666666666667</ele><time>2026-04-11T14:27:31.924Z</time></trkpt><trkpt lat="44.38209776748294" lon="10.332765965667233"><ele>933.0</ele><time>2026-04-11T14:27:32.924Z</time></trkpt><trkpt lat="44.38201197843662" lon="10.332923832295913"><ele>929.0</ele><time>2026-04-11T14:27:33.924Z</time></trkpt><trkpt lat="44.38192958554442" lon="10.333066160581609"><ele>925.0</ele><time>2026-04-11T14:27:34.924Z</time></trkpt><trkpt lat="44.38185067203" lon="10.333196547812918"><ele>921.0</ele><time>2026-04-11T14:27:35.924Z</time></trkpt><trkpt lat="44.38176915859807" lon="10.333291862149636"><ele>917.0</ele><time>2026-04-11T14:27:36.924Z</time></trkpt><trkpt lat="44.38169000693481" lon="10.333353818630078"><ele>917.0000000000001</ele><time>2026-04-11T14:27:37.924Z</time></trkpt><trkpt lat="44.38162210857878" lon="10.333390918649739"><ele>917.0</ele><time>2026-04-11T14:27:38.924Z</time></trkpt><trkpt lat="44.38153870140057" lon="10.33342797155282"><ele>917.0</ele><time>2026-04-11T14:27:40.924Z</time></trkpt><trkpt lat="44.38152402087596" lon="10.333603775787495"><ele>917.0</ele><time>2026-04-11T14:27:43.924Z</time></trkpt><trkpt lat="44.381581797181326" lon="10.333665298220023"><ele>917.0000000000001</ele><time>2026-04-11T14:27:45.924Z</time></trkpt><trkpt lat="44.38163636468732" lon="10.333613240755621"><ele>917.0</ele><time>2026-04-11T14:28:38.924Z</time></trkpt><trkpt lat="44.38160040416526" lon="10.333533515884127"><ele>917.0</ele><time>2026-04-11T14:28:42.924Z</time></trkpt><trkpt lat="44.38152881291478" lon="10.333503638224622"><ele>917.0</ele><time>2026-04-11T14:28:50.924Z</time></trkpt><trkpt lat="44.381391274579066" lon="10.333487876305638"><ele>917.0</ele><time>2026-04-11T14:28:52.925Z</time></trkpt><trkpt lat="44.381226110743796" lon="10.333497751034947"><ele>917.0</ele><time>2026-04-11T14:28:53.925Z</time></trkpt><trkpt lat="44.38109679657963" lon="10.33351602035961"><ele>919.25</ele><time>2026-04-11T14:28:54.925Z</time></trkpt><trkpt lat="44.3809553603383" lon="10.333533533304037"><ele>921.5</ele><time>2026-04-11T14:28:55.925Z</time></trkpt><trkpt lat="44.3808086368845" lon="10.33353804757196"><ele>923.75</ele><time>2026-04-11T14:28:56.925Z</time></trkpt><trkpt lat="44.38066078166868" lon="10.33355132412573"><ele>926.0</ele><time>2026-04-11T14:28:57.925Z</time></trkpt><trkpt lat="44.380526555671665" lon="10.33356073278373"><ele>922.0</ele><time>2026-04-11T14:28:58.925Z</time></trkpt><trkpt lat="44.38040120081569" lon="10.33354225524355"><ele>918.0</ele><time>2026-04-11T14:28:59.925Z</time></trkpt><trkpt lat="44.380273725467724" lon="10.333505821047316"><ele>914.0</ele><time>2026-04-11T14:29:00.925Z</time></trkpt><trkpt lat="44.380154286686995" lon="10.333437685948905"><ele>910.0</ele><time>2026-04-11T14:29:01.925Z</time></trkpt><trkpt lat="44.380051416908785" lon="10.333355664064838"><ele>910.0</ele><time>2026-04-11T14:29:02.925Z</time></trkpt><trkpt lat="44.37996296399421" lon="10.33327426025076"><ele>910.0</ele><time>2026-04-11T14:29:03.925Z</time></trkpt><trkpt lat="44.37989072269259" lon="10.333172794479152"><ele>910.0</ele><time>2026-04-11T14:29:04.925Z</time></trkpt><trkpt lat="44.37985073498371" lon="10.333043124954466"><ele>910.0</ele><time>2026-04-11T14:29:05.925Z</time></trkpt><trkpt lat="44.37986515188582" lon="10.332886666014305"><ele>910.0</ele><time>2026-04-11T14:29:06.925Z</time></trkpt><trkpt lat="44.379908707100896" lon="10.332726798484542"><ele>912.25</ele><time>2026-04-11T14:29:07.925Z</time></trkpt><trkpt lat="44.37996086131823" lon="10.332557496575424"><ele>914.5</ele><time>2026-04-11T14:29:08.925Z</time></trkpt><trkpt lat="44.380008073911554" lon="10.332412261566166"><ele>916.75</ele><time>2026-04-11T14:29:09.925Z</time></trkpt><trkpt lat="44.380046191004915" lon="10.332274677830352"><ele>919.0</ele><time>2026-04-11T14:29:10.925Z</time></trkpt><trkpt lat="44.38004792463958" lon="10.332130289295815"><ele>921.0</ele><time>2026-04-11T14:29:11.925Z</time></trkpt><trkpt lat="44.380005879224036" lon="10.331979166676321"><ele>923.0</ele><time>2026-04-11T14:29:12.924Z</time></trkpt><trkpt lat="44.37993364325403" lon="10.331787555333706"><ele>925.0</ele><time>2026-04-11T14:29:13.924Z</time></trkpt><trkpt lat="44.379853851620865" lon="10.331605911146395"><ele>927.0</ele><time>2026-04-11T14:29:14.924Z</time></trkpt><trkpt lat="44.37976143813296" lon="10.331434014454468"><ele>919.0</ele><time>2026-04-11T14:29:15.924Z</time></trkpt><trkpt lat="44.37966661810953" lon="10.331285930536763"><ele>911.0</ele><time>2026-04-11T14:29:16.924Z</time></trkpt><trkpt lat="44.37958377570429" lon="10.331157777547412"><ele>903.0</ele><time>2026-04-11T14:29:17.924Z</time></trkpt><trkpt lat="44.37951483887972" lon="10.331049561725548"><ele>895.0</ele><time>2026-04-11T14:29:18.924Z</time></trkpt><trkpt lat="44.37946555656439" lon="10.33093672168197"><ele>895.0</ele><time>2026-04-11T14:29:19.924Z</time></trkpt><trkpt lat="44.3794476445786" lon="10.330775205868832"><ele>895.0</ele><time>2026-04-11T14:29:20.924Z</time></trkpt><trkpt lat="44.37947933964945" lon="10.330602097792651"><ele>895.0</ele><time>2026-04-11T14:29:21.924Z</time></trkpt><trkpt lat="44.37953457454706" lon="10.330437222184559"><ele>895.0</ele><time>2026-04-11T14:29:22.924Z</time></trkpt><trkpt lat="44.37959251247911" lon="10.330260973976898"><ele>896.0</ele><time>2026-04-11T14:29:23.924Z</time></trkpt><trkpt lat="44.37965057534948" lon="10.330074053940702"><ele>897.0</ele><time>2026-04-11T14:29:24.924Z</time></trkpt><trkpt lat="44.37970073469419" lon="10.32990462488576"><ele>898.0</ele><time>2026-04-11T14:29:25.924Z</time></trkpt><trkpt lat="44.37975056995238" lon="10.329758455622738"><ele>899.0</ele><time>2026-04-11T14:29:26.924Z</time></trkpt><trkpt lat="44.37977602527911" lon="10.329635483985754"><ele>900.6</ele><time>2026-04-11T14:29:27.925Z</time></trkpt><trkpt lat="44.37975734381931" lon="10.329496972225494"><ele>902.2</ele><time>2026-04-11T14:29:28.925Z</time></trkpt><trkpt lat="44.37969987293225" lon="10.329364035062476"><ele>903.8000000000001</ele><time>2026-04-11T14:29:29.925Z</time></trkpt><trkpt lat="44.37964254112645" lon="10.329232054544708"><ele>905.4000000000001</ele><time>2026-04-11T14:29:30.925Z</time></trkpt><trkpt lat="44.37959732684424" lon="10.329083960331522"><ele>907.0</ele><time>2026-04-11T14:29:31.925Z</time></trkpt><trkpt lat="44.3795698622458" lon="10.328920038984394"><ele>909.75</ele><time>2026-04-11T14:29:32.925Z</time></trkpt><trkpt lat="44.379554966379764" lon="10.328755081612917"><ele>912.5</ele><time>2026-04-11T14:29:33.925Z</time></trkpt><trkpt lat="44.379545814872166" lon="10.328575104149287"><ele>915.25</ele><time>2026-04-11T14:29:34.925Z</time></trkpt><trkpt lat="44.379550402049404" lon="10.328383956710226"><ele>918.0</ele><time>2026-04-11T14:29:35.925Z</time></trkpt><trkpt lat="44.37954567076537" lon="10.32819459561463"><ele>920.5</ele><time>2026-04-11T14:29:36.925Z</time></trkpt><trkpt lat="44.379516556496895" lon="10.328015168607845"><ele>923.0</ele><time>2026-04-11T14:29:37.925Z</time></trkpt><trkpt lat="44.37946331023343" lon="10.327841728760436"><ele>925.5</ele><time>2026-04-11T14:29:38.925Z</time></trkpt><trkpt lat="44.379393645260514" lon="10.327661722342183"><ele>928.0</ele><time>2026-04-11T14:29:39.925Z</time></trkpt><trkpt lat="44.37932138364282" lon="10.327478338733922"><ele>928.0</ele><time>2026-04-11T14:29:40.925Z</time></trkpt><trkpt lat="44.37925278315334" lon="10.327294618008102"><ele>928.0</ele><time>2026-04-11T14:29:41.925Z</time></trkpt><trkpt lat="44.379204382779356" lon="10.327096256676858"><ele>928.0</ele><time>2026-04-11T14:29:42.925Z</time></trkpt><trkpt lat="44.37917211832161" lon="10.326894620475256"><ele>928.0</ele><time>2026-04-11T14:29:43.925Z</time></trkpt><trkpt lat="44.3791435520568" lon="10.326701553390844"><ele>929.5999999999999</ele><time>2026-04-11T14:29:44.925Z</time></trkpt><trkpt lat="44.37911832272946" lon="10.326526427922724"><ele>931.1999999999999</ele><time>2026-04-11T14:29:45.925Z</time></trkpt><trkpt lat="44.379092521138325" lon="10.326370247739899"><ele>932.8</ele><time>2026-04-11T14:29:46.925Z</time></trkpt><trkpt lat="44.379061975640525" lon="10.326237204069132"><ele>934.4</ele><time>2026-04-11T14:29:47.925Z</time></trkpt><trkpt lat="44.379021951811644" lon="10.326129889507055"><ele>936.0</ele><time>2026-04-11T14:29:48.925Z</time></trkpt><trkpt lat="44.3789600000846" lon="10.326051495258213"><ele>936.5</ele><time>2026-04-11T14:29:49.925Z</time></trkpt><trkpt lat="44.37887900949501" lon="10.326005037181137"><ele>937.0</ele><time>2026-04-11T14:29:50.925Z</time></trkpt><trkpt lat="44.37879192498286" lon="10.325984775867717"><ele>937.5</ele><time>2026-04-11T14:29:51.925Z</time></trkpt><trkpt lat="44.378695882781784" lon="10.32598354161435"><ele>938.0</ele><time>2026-04-11T14:29:52.925Z</time></trkpt><trkpt lat="44.37860561888482" lon="10.325987176765878"><ele>938.5</ele><time>2026-04-11T14:29:53.925Z</time></trkpt><trkpt lat="44.3785204730036" lon="10.326004701506863"><ele>939.0</ele><time>2026-04-11T14:29:54.925Z</time></trkpt><trkpt lat="44.37844175841466" lon="10.326060884379771"><ele>939.1666666666666</ele><time>2026-04-11T14:29:55.925Z</time></trkpt><trkpt lat="44.37838344023323" lon="10.326146526807156"><ele>939.3333333333333</ele><time>2026-04-11T14:29:56.925Z</time></trkpt><trkpt lat="44.37833583755542" lon="10.32625422205487"><ele>939.5</ele><time>2026-04-11T14:29:57.925Z</time></trkpt><trkpt lat="44.378297606026315" lon="10.326353559668139"><ele>939.6666666666666</ele><time>2026-04-11T14:29:58.925Z</time></trkpt><trkpt lat="44.378251874449354" lon="10.326455606303625"><ele>939.8333333333333</ele><time>2026-04-11T14:29:59.925Z</time></trkpt><trkpt lat="44.37820653125022" lon="10.326560110918887"><ele>940.0</ele><time>2026-04-11T14:30:00.925Z</time></trkpt><trkpt lat="44.37816151683293" lon="10.326669218741795"><ele>939.0</ele><time>2026-04-11T14:30:01.925Z</time></trkpt><trkpt lat="44.37812035003791" lon="10.32679117591182"><ele>938.0</ele><time>2026-04-11T14:30:02.925Z</time></trkpt><trkpt lat="44.37807843592135" lon="10.326917888626229"><ele>937.0</ele><time>2026-04-11T14:30:03.925Z</time></trkpt><trkpt lat="44.3780542849344" lon="10.327053892203734"><ele>936.0</ele><time>2026-04-11T14:30:04.925Z</time></trkpt><trkpt lat="44.37804478838151" lon="10.32719307184354"><ele>935.0</ele><time>2026-04-11T14:30:05.925Z</time></trkpt><trkpt lat="44.37803732746678" lon="10.327340825666603"><ele>936.0</ele><time>2026-04-11T14:30:06.925Z</time></trkpt><trkpt lat="44.37802826958811" lon="10.327484918330986"><ele>937.0</ele><time>2026-04-11T14:30:07.925Z</time></trkpt><trkpt lat="44.37801570363871" lon="10.327619783639888"><ele>938.0</ele><time>2026-04-11T14:30:08.925Z</time></trkpt><trkpt lat="44.377984927496286" lon="10.327745368394906"><ele>939.0</ele><time>2026-04-11T14:30:09.925Z</time></trkpt><trkpt lat="44.37794265375563" lon="10.327870974307139"><ele>940.0</ele><time>2026-04-11T14:30:10.925Z</time></trkpt><trkpt lat="44.37788766119814" lon="10.327982478269622"><ele>938.0</ele><time>2026-04-11T14:30:11.925Z</time></trkpt><trkpt lat="44.37782874653036" lon="10.32809166013072"><ele>936.0</ele><time>2026-04-11T14:30:12.925Z</time></trkpt><trkpt lat="44.377776929639346" lon="10.328204688541948"><ele>934.0</ele><time>2026-04-11T14:30:13.925Z</time></trkpt><trkpt lat="44.37772974992315" lon="10.328310700165327"><ele>932.0</ele><time>2026-04-11T14:30:14.925Z</time></trkpt><trkpt lat="44.37766786914155" lon="10.328386518798098"><ele>930.0</ele><time>2026-04-11T14:30:15.925Z</time></trkpt><trkpt lat="44.37758817382241" lon="10.328433683962192"><ele>930.0</ele><time>2026-04-11T14:30:16.925Z</time></trkpt><trkpt lat="44.37750135796806" lon="10.328432681986534"><ele>930.0</ele><time>2026-04-11T14:30:17.925Z</time></trkpt><trkpt lat="44.377405516583245" lon="10.328421952329755"><ele>930.0</ele><time>2026-04-11T14:30:18.925Z</time></trkpt><trkpt lat="44.37731337398856" lon="10.32841141054131"><ele>930.0</ele><time>2026-04-11T14:30:19.925Z</time></trkpt><trkpt lat="44.37721866422291" lon="10.328410199998126"><ele>930.0</ele><time>2026-04-11T14:30:20.925Z</time></trkpt><trkpt lat="44.37711689107097" lon="10.328425801816138"><ele>930.0</ele><time>2026-04-11T14:30:21.925Z</time></trkpt><trkpt lat="44.37702167017604" lon="10.328450519469751"><ele>930.0</ele><time>2026-04-11T14:30:22.925Z</time></trkpt><trkpt lat="44.376924515446625" lon="10.32846627498823"><ele>930.0</ele><time>2026-04-11T14:30:23.925Z</time></trkpt><trkpt lat="44.37681770237675" lon="10.328475812495173"><ele>930.0</ele><time>2026-04-11T14:30:24.925Z</time></trkpt><trkpt lat="44.376709403545256" lon="10.328452713118665"><ele>930.0</ele><time>2026-04-11T14:30:25.925Z</time></trkpt><trkpt lat="44.37659997812176" lon="10.328398656579893"><ele>930.0</ele><time>2026-04-11T14:30:26.925Z</time></trkpt><trkpt lat="44.37649796594739" lon="10.328318829196496"><ele>930.0</ele><time>2026-04-11T14:30:27.925Z</time></trkpt><trkpt lat="44.37640635494864" lon="10.328228772129783"><ele>930.0</ele><time>2026-04-11T14:30:28.925Z</time></trkpt><trkpt lat="44.376322628637354" lon="10.328144308776357"><ele>930.0</ele><time>2026-04-11T14:30:29.925Z</time></trkpt><trkpt lat="44.37624143211352" lon="10.328082505556747"><ele>930.0</ele><time>2026-04-11T14:30:30.925Z</time></trkpt><trkpt lat="44.376139956855745" lon="10.32806105996259"><ele>930.8333333333334</ele><time>2026-04-11T14:30:31.925Z</time></trkpt><trkpt lat="44.37604208463445" lon="10.328057628683952"><ele>931.6666666666667</ele><time>2026-04-11T14:30:32.925Z</time></trkpt><trkpt lat="44.37597615801079" lon="10.328061531213132"><ele>932.5</ele><time>2026-04-11T14:30:33.925Z</time></trkpt><trkpt lat="44.3758555829502" lon="10.328115973371242"><ele>933.3333333333334</ele><time>2026-04-11T14:30:35.925Z</time></trkpt><trkpt lat="44.37580874386305" lon="10.328177700297761"><ele>934.1666666666667</ele><time>2026-04-11T14:30:36.925Z</time></trkpt><trkpt lat="44.37577398056996" lon="10.328276010911221"><ele>935.0</ele><time>2026-04-11T14:30:37.925Z</time></trkpt><trkpt lat="44.37577229512976" lon="10.328370268116535"><ele>931.6</ele><time>2026-04-11T14:30:38.925Z</time></trkpt><trkpt lat="44.375778644709534" lon="10.328492757602255"><ele>928.2</ele><time>2026-04-11T14:30:39.925Z</time></trkpt><trkpt lat="44.37580345287951" lon="10.328620374074209"><ele>924.8</ele><time>2026-04-11T14:30:40.925Z</time></trkpt><trkpt lat="44.37584642687365" lon="10.32874139436404"><ele>921.4</ele><time>2026-04-11T14:30:41.925Z</time></trkpt><trkpt lat="44.375924401489826" lon="10.328858708064685"><ele>918.0</ele><time>2026-04-11T14:30:42.925Z</time></trkpt><trkpt lat="44.37599572569084" lon="10.328967886555148"><ele>920.0</ele><time>2026-04-11T14:30:43.925Z</time></trkpt><trkpt lat="44.376091063948294" lon="10.32908189842446"><ele>922.0</ele><time>2026-04-11T14:30:44.925Z</time></trkpt><trkpt lat="44.37619045596685" lon="10.329155188571642"><ele>924.0</ele><time>2026-04-11T14:30:45.925Z</time></trkpt><trkpt lat="44.37489023329653" lon="10.328885625773838"><ele>924.0</ele><time>2026-04-11T14:30:46.925Z</time></trkpt><trkpt lat="44.3747893512202" lon="10.328891149986243"><ele>924.0</ele><time>2026-04-11T14:30:47.925Z</time></trkpt><trkpt lat="44.37468756918538" lon="10.328858408126555"><ele>924.0</ele><time>2026-04-11T14:30:48.925Z</time></trkpt><trkpt lat="44.37457326639725" lon="10.328779341335306"><ele>924.0</ele><time>2026-04-11T14:30:49.925Z</time></trkpt><trkpt lat="44.37444669404676" lon="10.328694160814782"><ele>920.3333333333333</ele><time>2026-04-11T14:30:50.925Z</time></trkpt><trkpt lat="44.37432581637397" lon="10.328608486230905"><ele>916.6666666666666</ele><time>2026-04-11T14:30:51.925Z</time></trkpt><trkpt lat="44.37417752530283" lon="10.328530695189265"><ele>913.0</ele><time>2026-04-11T14:30:52.925Z</time></trkpt><trkpt lat="44.37399420650949" lon="10.328416938746216"><ele>914.3333333333333</ele><time>2026-04-11T14:30:53.925Z</time></trkpt><trkpt lat="44.37379567657967" lon="10.328282771018914"><ele>915.6666666666667</ele><time>2026-04-11T14:30:54.925Z</time></trkpt><trkpt lat="44.373619120343314" lon="10.3281466759748"><ele>917.0</ele><time>2026-04-11T14:30:55.925Z</time></trkpt><trkpt lat="44.37346040991573" lon="10.328026890848111"><ele>917.0</ele><time>2026-04-11T14:30:56.925Z</time></trkpt><trkpt lat="44.37331101196668" lon="10.327915068720918"><ele>917.0</ele><time>2026-04-11T14:30:57.925Z</time></trkpt><trkpt lat="44.3731665296069" lon="10.327773514688598"><ele>917.0</ele><time>2026-04-11T14:30:58.925Z</time></trkpt><trkpt lat="44.37303936126086" lon="10.327616020649062"><ele>919.5</ele><time>2026-04-11T14:30:59.925Z</time></trkpt><trkpt lat="44.37292223655871" lon="10.327471625155448"><ele>922.0</ele><time>2026-04-11T14:31:00.925Z</time></trkpt><trkpt lat="44.3728178432679" lon="10.327344926119517"><ele>924.5</ele><time>2026-04-11T14:31:01.925Z</time></trkpt><trkpt lat="44.37270314407482" lon="10.327242768905734"><ele>927.0</ele><time>2026-04-11T14:31:02.926Z</time></trkpt><trkpt lat="44.37256263796434" lon="10.327187482998792"><ele>927.0</ele><time>2026-04-11T14:31:03.926Z</time></trkpt><trkpt lat="44.372413096626715" lon="10.327178639422039"><ele>927.0</ele><time>2026-04-11T14:31:04.926Z</time></trkpt><trkpt lat="44.37225762947432" lon="10.32721748322171"><ele>927.0</ele><time>2026-04-11T14:31:05.926Z</time></trkpt><trkpt lat="44.37210591750404" lon="10.327282527176564"><ele>920.0</ele><time>2026-04-11T14:31:06.926Z</time></trkpt><trkpt lat="44.371972115777965" lon="10.327342945428187"><ele>913.0</ele><time>2026-04-11T14:31:07.926Z</time></trkpt><trkpt lat="44.3718548465543" lon="10.3273984979309"><ele>906.0</ele><time>2026-04-11T14:31:08.926Z</time></trkpt><trkpt lat="44.371736420900675" lon="10.327450038407651"><ele>899.0</ele><time>2026-04-11T14:31:09.926Z</time></trkpt><trkpt lat="44.37160289574166" lon="10.327433430695582"><ele>899.0</ele><time>2026-04-11T14:31:10.926Z</time></trkpt><trkpt lat="44.371450091761496" lon="10.327387521125253"><ele>899.0</ele><time>2026-04-11T14:31:11.926Z</time></trkpt><trkpt lat="44.37130643834289" lon="10.327287856369452"><ele>899.0</ele><time>2026-04-11T14:31:12.926Z</time></trkpt><trkpt lat="44.37116707138918" lon="10.32716763058888"><ele>900.0</ele><time>2026-04-11T14:31:13.926Z</time></trkpt><trkpt lat="44.371023144283875" lon="10.327016655184893"><ele>901.0</ele><time>2026-04-11T14:31:14.926Z</time></trkpt><trkpt lat="44.3708670555259" lon="10.326857560756185"><ele>902.0</ele><time>2026-04-11T14:31:15.926Z</time></trkpt><trkpt lat="44.37069681191888" lon="10.326696032211768"><ele>898.3333333333334</ele><time>2026-04-11T14:31:16.926Z</time></trkpt><trkpt lat="44.37052011350916" lon="10.32653976049125"><ele>894.6666666666667</ele><time>2026-04-11T14:31:17.926Z</time></trkpt><trkpt lat="44.37035510333051" lon="10.326388138848104"><ele>891.0</ele><time>2026-04-11T14:31:18.924Z</time></trkpt><trkpt lat="44.370205572737945" lon="10.32624423445817"><ele>891.0</ele><time>2026-04-11T14:31:19.924Z</time></trkpt><trkpt lat="44.37006471593705" lon="10.326100470216232"><ele>891.0</ele><time>2026-04-11T14:31:20.924Z</time></trkpt><trkpt lat="44.36994147892696" lon="10.325963038228245"><ele>891.0</ele><time>2026-04-11T14:31:21.924Z</time></trkpt><trkpt lat="44.36983747045027" lon="10.325798688313176"><ele>891.0</ele><time>2026-04-11T14:31:22.924Z</time></trkpt><trkpt lat="44.36975278356378" lon="10.325604087888529"><ele>891.0</ele><time>2026-04-11T14:31:23.924Z</time></trkpt><trkpt lat="44.36969417881878" lon="10.325384380306502"><ele>891.0</ele><time>2026-04-11T14:31:24.924Z</time></trkpt><trkpt lat="44.369672139550886" lon="10.32514737129498"><ele>892.3333333333333</ele><time>2026-04-11T14:31:25.924Z</time></trkpt><trkpt lat="44.369678027525154" lon="10.324911428676279"><ele>893.6666666666666</ele><time>2026-04-11T14:31:26.924Z</time></trkpt><trkpt lat="44.36970624982102" lon="10.324675216733668"><ele>895.0</ele><time>2026-04-11T14:31:27.924Z</time></trkpt><trkpt lat="44.36975044853862" lon="10.324426824432598"><ele>895.0</ele><time>2026-04-11T14:31:28.924Z</time></trkpt><trkpt lat="44.369799640669065" lon="10.324185441539058"><ele>895.0</ele><time>2026-04-11T14:31:29.924Z</time></trkpt><trkpt lat="44.369834189726696" lon="10.323940363983677"><ele>895.0</ele><time>2026-04-11T14:31:30.924Z</time></trkpt><trkpt lat="44.36987018733321" lon="10.323703270307922"><ele>894.0</ele><time>2026-04-11T14:31:31.925Z</time></trkpt><trkpt lat="44.36989550870187" lon="10.323464151811498"><ele>893.0</ele><time>2026-04-11T14:31:32.925Z</time></trkpt><trkpt lat="44.369904266160326" lon="10.323248559693628"><ele>892.0</ele><time>2026-04-11T14:31:33.925Z</time></trkpt><trkpt lat="44.36989751638299" lon="10.323035049912585"><ele>892.0</ele><time>2026-04-11T14:31:34.925Z</time></trkpt><trkpt lat="44.3698898923435" lon="10.3228197201672"><ele>892.0</ele><time>2026-04-11T14:31:35.925Z</time></trkpt><trkpt lat="44.36986772207436" lon="10.322586851005207"><ele>892.0</ele><time>2026-04-11T14:31:36.925Z</time></trkpt><trkpt lat="44.36985059830022" lon="10.322352857461345"><ele>892.0</ele><time>2026-04-11T14:31:37.925Z</time></trkpt><trkpt lat="44.36984344781396" lon="10.322125991233795"><ele>892.0</ele><time>2026-04-11T14:31:38.925Z</time></trkpt><trkpt lat="44.36983807983891" lon="10.321904491942346"><ele>892.0</ele><time>2026-04-11T14:31:39.925Z</time></trkpt><trkpt lat="44.369829092005936" lon="10.321684439804626"><ele>892.0</ele><time>2026-04-11T14:31:40.925Z</time></trkpt><trkpt lat="44.3698191973165" lon="10.321476830799108"><ele>892.0</ele><time>2026-04-11T14:31:41.925Z</time></trkpt><trkpt lat="44.36979510997873" lon="10.321281095619929"><ele>892.0</ele><time>2026-04-11T14:31:42.925Z</time></trkpt><trkpt lat="44.36974711130841" lon="10.321086667405467"><ele>892.0</ele><time>2026-04-11T14:31:43.925Z</time></trkpt><trkpt lat="44.36967367057963" lon="10.320906754469068"><ele>888.25</ele><time>2026-04-11T14:31:44.925Z</time></trkpt><trkpt lat="44.36959243841337" lon="10.32073682837475"><ele>884.5</ele><time>2026-04-11T14:31:45.925Z</time></trkpt><trkpt lat="44.36950861574694" lon="10.320573650813827"><ele>880.75</ele><time>2026-04-11T14:31:46.925Z</time></trkpt><trkpt lat="44.369435148955944" lon="10.320421524838798"><ele>877.0</ele><time>2026-04-11T14:31:47.925Z</time></trkpt><trkpt lat="44.369388240562145" lon="10.320246605126991"><ele>877.0</ele><time>2026-04-11T14:31:48.925Z</time></trkpt><trkpt lat="44.36936962364342" lon="10.320033848998444"><ele>877.0</ele><time>2026-04-11T14:31:49.925Z</time></trkpt><trkpt lat="44.369392953463425" lon="10.319817692556565"><ele>877.0</ele><time>2026-04-11T14:31:50.925Z</time></trkpt><trkpt lat="44.36945077261564" lon="10.319626058235073"><ele>881.6666666666666</ele><time>2026-04-11T14:31:51.925Z</time></trkpt><trkpt lat="44.369545545984415" lon="10.31944993180337"><ele>886.3333333333333</ele><time>2026-04-11T14:31:52.925Z</time></trkpt><trkpt lat="44.36967125289774" lon="10.319288705618778"><ele>891.0</ele><time>2026-04-11T14:31:53.925Z</time></trkpt><trkpt lat="44.369807420973544" lon="10.319129599396987"><ele>891.0</ele><time>2026-04-11T14:31:54.925Z</time></trkpt><trkpt lat="44.36994913873474" lon="10.318969747708236"><ele>891.0</ele><time>2026-04-11T14:31:55.925Z</time></trkpt><trkpt lat="44.3700922580113" lon="10.318802136640354"><ele>891.0</ele><time>2026-04-11T14:31:56.925Z</time></trkpt><trkpt lat="44.370234955392306" lon="10.318631762980033"><ele>893.6666666666667</ele><time>2026-04-11T14:31:57.925Z</time></trkpt><trkpt lat="44.370358697900905" lon="10.318474231763336"><ele>896.3333333333334</ele><time>2026-04-11T14:31:58.925Z</time></trkpt><trkpt lat="44.370470747381425" lon="10.318330313729787"><ele>899.0</ele><time>2026-04-11T14:31:59.925Z</time></trkpt><trkpt lat="44.37057461312345" lon="10.318174975345817"><ele>894.75</ele><time>2026-04-11T14:32:00.925Z</time></trkpt><trkpt lat="44.370652459856586" lon="10.317992075206977"><ele>890.5</ele><time>2026-04-11T14:32:01.925Z</time></trkpt><trkpt lat="44.370717367378134" lon="10.317820978938794"><ele>886.25</ele><time>2026-04-11T14:32:02.925Z</time></trkpt><trkpt lat="44.37078284577821" lon="10.317656598290771"><ele>882.0</ele><time>2026-04-11T14:32:03.925Z</time></trkpt><trkpt lat="44.37085352976975" lon="10.317510647797269"><ele>882.0</ele><time>2026-04-11T14:32:04.925Z</time></trkpt><trkpt lat="44.3709243852785" lon="10.317371879127398"><ele>882.0</ele><time>2026-04-11T14:32:05.925Z</time></trkpt><trkpt lat="44.3710149173665" lon="10.317256742824327"><ele>882.0</ele><time>2026-04-11T14:32:06.925Z</time></trkpt><trkpt lat="44.37112129001488" lon="10.317179886394138"><ele>882.0</ele><time>2026-04-11T14:32:07.925Z</time></trkpt><trkpt lat="44.37123886990206" lon="10.317151771897366"><ele>879.75</ele><time>2026-04-11T14:32:08.925Z</time></trkpt><trkpt lat="44.37135934177992" lon="10.317145780467136"><ele>877.5</ele><time>2026-04-11T14:32:09.925Z</time></trkpt><trkpt lat="44.37149507351135" lon="10.317142796942822"><ele>875.25</ele><time>2026-04-11T14:32:10.925Z</time></trkpt><trkpt lat="44.37164345836598" lon="10.317127108391187"><ele>873.0</ele><time>2026-04-11T14:32:11.925Z</time></trkpt><trkpt lat="44.37179343791881" lon="10.31711593586652"><ele>873.0</ele><time>2026-04-11T14:32:12.925Z</time></trkpt><trkpt lat="44.371942419038625" lon="10.317082397784489"><ele>873.0</ele><time>2026-04-11T14:32:13.925Z</time></trkpt><trkpt lat="44.37209348223717" lon="10.317073287486409"><ele>873.0</ele><time>2026-04-11T14:32:14.925Z</time></trkpt><trkpt lat="44.37223577226836" lon="10.317065658601443"><ele>873.0</ele><time>2026-04-11T14:32:15.925Z</time></trkpt><trkpt lat="44.372383877431005" lon="10.317051573476279"><ele>875.0</ele><time>2026-04-11T14:32:16.925Z</time></trkpt><trkpt lat="44.37253114805507" lon="10.317043147728059"><ele>877.0</ele><time>2026-04-11T14:32:17.925Z</time></trkpt><trkpt lat="44.372669977894475" lon="10.317032355642544"><ele>879.0</ele><time>2026-04-11T14:32:18.925Z</time></trkpt><trkpt lat="44.37279112374306" lon="10.317022246984925"><ele>881.0</ele><time>2026-04-11T14:32:19.925Z</time></trkpt><trkpt lat="44.37289801671384" lon="10.317003463321354"><ele>881.0</ele><time>2026-04-11T14:32:20.925Z</time></trkpt><trkpt lat="44.37299107928014" lon="10.316950678231981"><ele>881.0</ele><time>2026-04-11T14:32:21.925Z</time></trkpt><trkpt lat="44.373072153561836" lon="10.316841030572824"><ele>881.0</ele><time>2026-04-11T14:32:22.925Z</time></trkpt><trkpt lat="44.3731450039514" lon="10.316707689821989"><ele>881.0</ele><time>2026-04-11T14:32:23.925Z</time></trkpt><trkpt lat="44.37323014020389" lon="10.31655457677683"><ele>882.4</ele><time>2026-04-11T14:32:24.925Z</time></trkpt><trkpt lat="44.37330703741172" lon="10.316417273872556"><ele>883.8</ele><time>2026-04-11T14:32:25.925Z</time></trkpt><trkpt lat="44.37336707681589" lon="10.316292602909712"><ele>885.1999999999999</ele><time>2026-04-11T14:32:26.925Z</time></trkpt><trkpt lat="44.373401740687704" lon="10.316151892349524"><ele>886.5999999999999</ele><time>2026-04-11T14:32:27.925Z</time></trkpt><trkpt lat="44.37340005452835" lon="10.315997147276986"><ele>888.0</ele><time>2026-04-11T14:32:28.925Z</time></trkpt><trkpt lat="44.373372442501974" lon="10.315819517695171"><ele>888.0</ele><time>2026-04-11T14:32:29.925Z</time></trkpt><trkpt lat="44.37331927070132" lon="10.315644210934762"><ele>888.0</ele><time>2026-04-11T14:32:30.925Z</time></trkpt><trkpt lat="44.37325060732288" lon="10.31549125319998"><ele>888.0</ele><time>2026-04-11T14:32:31.925Z</time></trkpt><trkpt lat="44.373163463755084" lon="10.315352845463151"><ele>888.0</ele><time>2026-04-11T14:32:32.925Z</time></trkpt><trkpt lat="44.37306549959503" lon="10.315210208201574"><ele>889.25</ele><time>2026-04-11T14:32:33.925Z</time></trkpt><trkpt lat="44.37296468664999" lon="10.315067388259722"><ele>890.5</ele><time>2026-04-11T14:32:34.925Z</time></trkpt><trkpt lat="44.372856159523174" lon="10.314931965567713"><ele>891.75</ele><time>2026-04-11T14:32:35.925Z</time></trkpt><trkpt lat="44.37273749066538" lon="10.314806002092162"><ele>893.0</ele><time>2026-04-11T14:32:36.925Z</time></trkpt><trkpt lat="44.372607883640526" lon="10.314691152168093"><ele>893.0</ele><time>2026-04-11T14:32:37.925Z</time></trkpt><trkpt lat="44.37247690018311" lon="10.314574217297494"><ele>893.0</ele><time>2026-04-11T14:32:38.925Z</time></trkpt><trkpt lat="44.37235039134995" lon="10.314456650322613"><ele>893.0</ele><time>2026-04-11T14:32:39.925Z</time></trkpt><trkpt lat="44.37223025866218" lon="10.314338325181888"><ele>890.5</ele><time>2026-04-11T14:32:40.925Z</time></trkpt><trkpt lat="44.37212538297095" lon="10.314227162173406"><ele>888.0</ele><time>2026-04-11T14:32:41.925Z</time></trkpt><trkpt lat="44.37202237970817" lon="10.3141567841996"><ele>885.5</ele><time>2026-04-11T14:32:42.925Z</time></trkpt><trkpt lat="44.37191155886881" lon="10.31412442926135"><ele>883.0</ele><time>2026-04-11T14:32:43.925Z</time></trkpt><trkpt lat="44.37179468448291" lon="10.31417385624741"><ele>883.0</ele><time>2026-04-11T14:32:44.925Z</time></trkpt><trkpt lat="44.37167166576735" lon="10.314238194769327"><ele>883.0</ele><time>2026-04-11T14:32:45.925Z</time></trkpt><trkpt lat="44.37155014582496" lon="10.314284345338832"><ele>883.0</ele><time>2026-04-11T14:32:46.925Z</time></trkpt><trkpt lat="44.37143430932082" lon="10.314314866276055"><ele>883.0</ele><time>2026-04-11T14:32:47.925Z</time></trkpt><trkpt lat="44.371327647530975" lon="10.314315889473537"><ele>881.0</ele><time>2026-04-11T14:32:48.925Z</time></trkpt><trkpt lat="44.37121265061004" lon="10.314270276116208"><ele>879.0</ele><time>2026-04-11T14:32:49.925Z</time></trkpt><trkpt lat="44.3710933156349" lon="10.314169235818316"><ele>877.0</ele><time>2026-04-11T14:32:50.925Z</time></trkpt><trkpt lat="44.370979428307486" lon="10.31406054507253"><ele>875.0</ele><time>2026-04-11T14:32:51.925Z</time></trkpt><trkpt lat="44.37087389112014" lon="10.31391261651833"><ele>881.3333333333334</ele><time>2026-04-11T14:32:52.925Z</time></trkpt><trkpt lat="44.37077283654271" lon="10.313755485511077"><ele>887.6666666666667</ele><time>2026-04-11T14:32:53.925Z</time></trkpt><trkpt lat="44.370664848938894" lon="10.313605259981928"><ele>894.0</ele><time>2026-04-11T14:32:54.925Z</time></trkpt><trkpt lat="44.37055099339229" lon="10.313466682905435"><ele>893.25</ele><time>2026-04-11T14:32:55.925Z</time></trkpt><trkpt lat="44.37045189512932" lon="10.313342111729277"><ele>892.5</ele><time>2026-04-11T14:32:56.925Z</time></trkpt><trkpt lat="44.37035549846472" lon="10.313227721069467"><ele>891.75</ele><time>2026-04-11T14:32:57.925Z</time></trkpt><trkpt lat="44.37024359329991" lon="10.313126924013943"><ele>891.0</ele><time>2026-04-11T14:32:58.925Z</time></trkpt><trkpt lat="44.37011686595803" lon="10.313054971252388"><ele>891.0</ele><time>2026-04-11T14:32:59.925Z</time></trkpt><trkpt lat="44.369970752536325" lon="10.313011464367708"><ele>891.0</ele><time>2026-04-11T14:33:00.926Z</time></trkpt><trkpt lat="44.36981245046568" lon="10.312988333971214"><ele>891.0</ele><time>2026-04-11T14:33:01.926Z</time></trkpt><trkpt lat="44.36964570021353" lon="10.31297096686767"><ele>889.6666666666667</ele><time>2026-04-11T14:33:02.926Z</time></trkpt><trkpt lat="44.369476369500646" lon="10.312950125474641"><ele>888.3333333333334</ele><time>2026-04-11T14:33:03.926Z</time></trkpt><trkpt lat="44.36930757937088" lon="10.312918373619569"><ele>887.0</ele><time>2026-04-11T14:33:04.926Z</time></trkpt><trkpt lat="44.3691360306769" lon="10.312894957703799"><ele>887.0</ele><time>2026-04-11T14:33:05.926Z</time></trkpt><trkpt lat="44.36896500518154" lon="10.312871348073697"><ele>887.0</ele><time>2026-04-11T14:33:06.926Z</time></trkpt><trkpt lat="44.36880216302046" lon="10.31284689954245"><ele>887.0</ele><time>2026-04-11T14:33:07.926Z</time></trkpt><trkpt lat="44.36864116419589" lon="10.31282010179415"><ele>884.75</ele><time>2026-04-11T14:33:08.926Z</time></trkpt><trkpt lat="44.36849368330918" lon="10.312793174559665"><ele>882.5</ele><time>2026-04-11T14:33:09.926Z</time></trkpt><trkpt lat="44.36835289719016" lon="10.312770386863185"><ele>880.25</ele><time>2026-04-11T14:33:10.926Z</time></trkpt><trkpt lat="44.3682330083215" lon="10.312745965802156"><ele>878.0</ele><time>2026-04-11T14:33:11.926Z</time></trkpt><trkpt lat="44.36812667589486" lon="10.312718578220702"><ele>878.0</ele><time>2026-04-11T14:33:12.926Z</time></trkpt><trkpt lat="44.3680560364893" lon="10.312636627929146"><ele>878.0</ele><time>2026-04-11T14:33:13.926Z</time></trkpt><trkpt lat="44.36799998965825" lon="10.312512191198223"><ele>878.0</ele><time>2026-04-11T14:33:14.926Z</time></trkpt><trkpt lat="44.367984593879775" lon="10.312336670398524"><ele>878.0</ele><time>2026-04-11T14:33:15.926Z</time></trkpt><trkpt lat="44.36800582568078" lon="10.312148859324125"><ele>880.25</ele><time>2026-04-11T14:33:16.926Z</time></trkpt><trkpt lat="44.36804008732111" lon="10.311950659785428"><ele>882.5</ele><time>2026-04-11T14:33:17.926Z</time></trkpt><trkpt lat="44.368072570809545" lon="10.311751508330913"><ele>884.75</ele><time>2026-04-11T14:33:18.926Z</time></trkpt><trkpt lat="44.36809256705254" lon="10.311553548752697"><ele>887.0</ele><time>2026-04-11T14:33:19.926Z</time></trkpt><trkpt lat="44.36809533336122" lon="10.311381774190313"><ele>886.0</ele><time>2026-04-11T14:33:20.926Z</time></trkpt><trkpt lat="44.368086974905516" lon="10.31123840254997"><ele>885.0</ele><time>2026-04-11T14:33:21.926Z</time></trkpt><trkpt lat="44.368058746778274" lon="10.311114033289694"><ele>884.0</ele><time>2026-04-11T14:33:22.926Z</time></trkpt><trkpt lat="44.368018369946334" lon="10.31100302929742"><ele>883.0</ele><time>2026-04-11T14:33:23.926Z</time></trkpt><trkpt lat="44.36792753252909" lon="10.310923823362614"><ele>882.0</ele><time>2026-04-11T14:33:24.924Z</time></trkpt><trkpt lat="44.36779820808529" lon="10.310893118884866"><ele>882.0</ele><time>2026-04-11T14:33:25.924Z</time></trkpt><trkpt lat="44.36768269869568" lon="10.310894090646915"><ele>882.0</ele><time>2026-04-11T14:33:26.924Z</time></trkpt><trkpt lat="44.36756387985005" lon="10.310907591074121"><ele>882.0</ele><time>2026-04-11T14:33:27.924Z</time></trkpt><trkpt lat="44.367427078344065" lon="10.310908481853227"><ele>882.0</ele><time>2026-04-11T14:33:28.924Z</time></trkpt><trkpt lat="44.367296776917414" lon="10.31091190807741"><ele>886.0</ele><time>2026-04-11T14:33:29.924Z</time></trkpt><trkpt lat="44.36717700311268" lon="10.310865258169233"><ele>890.0</ele><time>2026-04-11T14:33:30.924Z</time></trkpt><trkpt lat="44.36705495155868" lon="10.310760797631652"><ele>894.0</ele><time>2026-04-11T14:33:31.924Z</time></trkpt><trkpt lat="44.36693261524246" lon="10.31065056342087"><ele>898.0</ele><time>2026-04-11T14:33:32.924Z</time></trkpt><trkpt lat="44.3668019087655" lon="10.310572109246772"><ele>898.0</ele><time>2026-04-11T14:33:33.924Z</time></trkpt><trkpt lat="44.36666323987796" lon="10.310533414454527"><ele>898.0</ele><time>2026-04-11T14:33:34.924Z</time></trkpt><trkpt lat="44.36652439343227" lon="10.31050952630125"><ele>898.0</ele><time>2026-04-11T14:33:35.924Z</time></trkpt><trkpt lat="44.36639546682679" lon="10.310463931890226"><ele>898.0</ele><time>2026-04-11T14:33:36.924Z</time></trkpt><trkpt lat="44.366274777151396" lon="10.310395629086987"><ele>889.0</ele><time>2026-04-11T14:33:37.924Z</time></trkpt><trkpt lat="44.36618070313009" lon="10.31029744145541"><ele>880.0</ele><time>2026-04-11T14:33:38.924Z</time></trkpt><trkpt lat="44.36610834065797" lon="10.31017381579971"><ele>871.0</ele><time>2026-04-11T14:33:39.924Z</time></trkpt><trkpt lat="44.366055793685696" lon="10.310011020942005"><ele>862.0</ele><time>2026-04-11T14:33:40.924Z</time></trkpt><trkpt lat="44.3659942872308" lon="10.30985977798646"><ele>859.25</ele><time>2026-04-11T14:33:41.924Z</time></trkpt><trkpt lat="44.3659051096012" lon="10.309739428735028"><ele>856.5</ele><time>2026-04-11T14:33:42.924Z</time></trkpt><trkpt lat="44.36579090603169" lon="10.30963567982294"><ele>853.75</ele><time>2026-04-11T14:33:43.924Z</time></trkpt><trkpt lat="44.36565411471293" lon="10.30953731535466"><ele>851.0</ele><time>2026-04-11T14:33:44.924Z</time></trkpt><trkpt lat="44.36551663223639" lon="10.309428473886117"><ele>851.0</ele><time>2026-04-11T14:33:45.924Z</time></trkpt><trkpt lat="44.36538857108866" lon="10.309320101402204"><ele>851.0</ele><time>2026-04-11T14:33:46.924Z</time></trkpt><trkpt lat="44.36528260197278" lon="10.30917544798577"><ele>851.0</ele><time>2026-04-11T14:33:47.924Z</time></trkpt><trkpt lat="44.36519410129032" lon="10.309007000430173"><ele>851.0</ele><time>2026-04-11T14:33:48.924Z</time></trkpt><trkpt lat="44.365127173511496" lon="10.308810803009528"><ele>853.0</ele><time>2026-04-11T14:33:49.924Z</time></trkpt><trkpt lat="44.365065711411326" lon="10.308602961926601"><ele>855.0</ele><time>2026-04-11T14:33:50.924Z</time></trkpt><trkpt lat="44.36500381226325" lon="10.308414120733653"><ele>857.0</ele><time>2026-04-11T14:33:51.924Z</time></trkpt><trkpt lat="44.36496952024678" lon="10.30822147028584"><ele>856.3333333333334</ele><time>2026-04-11T14:33:52.924Z</time></trkpt><trkpt lat="44.36496933504438" lon="10.308016171375158"><ele>855.6666666666667</ele><time>2026-04-11T14:33:53.924Z</time></trkpt><trkpt lat="44.36499868708254" lon="10.307804472800596"><ele>855.0</ele><time>2026-04-11T14:33:54.925Z</time></trkpt><trkpt lat="44.365023582643865" lon="10.307592557447412"><ele>855.0</ele><time>2026-04-11T14:33:55.925Z</time></trkpt><trkpt lat="44.36503826972858" lon="10.307373805707506"><ele>855.0</ele><time>2026-04-11T14:33:56.925Z</time></trkpt><trkpt lat="44.36504146930936" lon="10.307159814145976"><ele>855.0</ele><time>2026-04-11T14:33:57.925Z</time></trkpt><trkpt lat="44.36502035746595" lon="10.306947495191693"><ele>855.0</ele><time>2026-04-11T14:33:58.925Z</time></trkpt><trkpt lat="44.36498753136711" lon="10.306731618527696"><ele>855.0</ele><time>2026-04-11T14:33:59.925Z</time></trkpt><trkpt lat="44.36494342800347" lon="10.306514148078426"><ele>855.0</ele><time>2026-04-11T14:34:00.925Z</time></trkpt><trkpt lat="44.36489958349466" lon="10.30629485733409"><ele>856.5</ele><time>2026-04-11T14:34:01.925Z</time></trkpt><trkpt lat="44.36486525000785" lon="10.306079445332404"><ele>858.0</ele><time>2026-04-11T14:34:02.925Z</time></trkpt><trkpt lat="44.364833274668044" lon="10.30587393669737"><ele>859.5</ele><time>2026-04-11T14:34:03.925Z</time></trkpt><trkpt lat="44.364811009264905" lon="10.305681178838238"><ele>861.0</ele><time>2026-04-11T14:34:04.925Z</time></trkpt><trkpt lat="44.364805506087585" lon="10.305539717057162"><ele>861.5714285714286</ele><time>2026-04-11T14:34:05.925Z</time></trkpt><trkpt lat="44.364789828255454" lon="10.305443255896707"><ele>862.1428571428571</ele><time>2026-04-11T14:34:06.925Z</time></trkpt><trkpt lat="44.36480337924297" lon="10.305344080878289"><ele>862.7142857142858</ele><time>2026-04-11T14:34:08.925Z</time></trkpt><trkpt lat="44.3647678617659" lon="10.305265931609698"><ele>863.2857142857142</ele><time>2026-04-11T14:34:16.925Z</time></trkpt><trkpt lat="44.3647316948168" lon="10.3051545266082"><ele>863.8571428571429</ele><time>2026-04-11T14:34:37.925Z</time></trkpt><trkpt lat="44.364739795913415" lon="10.3050640597729"><ele>864.4285714285714</ele><time>2026-04-11T14:34:38.925Z</time></trkpt><trkpt lat="44.3647429908204" lon="10.30495793884838"><ele>865.0</ele><time>2026-04-11T14:34:39.925Z</time></trkpt><trkpt lat="44.36474454722821" lon="10.304840452190675"><ele>864.8</ele><time>2026-04-11T14:34:40.925Z</time></trkpt><trkpt lat="44.36474513207608" lon="10.304706188056297"><ele>864.6</ele><time>2026-04-11T14:34:41.925Z</time></trkpt><trkpt lat="44.36474044820212" lon="10.304574298539338"><ele>864.4000000000001</ele><time>2026-04-11T14:34:42.925Z</time></trkpt><trkpt lat="44.36470968762948" lon="10.304445547474145"><ele>864.2</ele><time>2026-04-11T14:34:43.925Z</time></trkpt><trkpt lat="44.364666449288585" lon="10.304312303716532"><ele>864.0</ele><time>2026-04-11T14:34:44.925Z</time></trkpt><trkpt lat="44.36461419189161" lon="10.304189913803768"><ele>857.6</ele><time>2026-04-11T14:34:45.925Z</time></trkpt><trkpt lat="44.3645578544649" lon="10.304060844623544"><ele>851.2</ele><time>2026-04-11T14:34:46.925Z</time></trkpt><trkpt lat="44.36452068424135" lon="10.303939017722303"><ele>844.8000000000001</ele><time>2026-04-11T14:34:47.925Z</time></trkpt><trkpt lat="44.364508195012874" lon="10.303791245065284"><ele>838.4000000000001</ele><time>2026-04-11T14:34:48.925Z</time></trkpt><trkpt lat="44.36451397152463" lon="10.303626362730105"><ele>832.0</ele><time>2026-04-11T14:34:49.925Z</time></trkpt><trkpt lat="44.364550314837025" lon="10.303461967957706"><ele>832.0</ele><time>2026-04-11T14:34:50.925Z</time></trkpt><trkpt lat="44.3646250407299" lon="10.303328975284364"><ele>832.0</ele><time>2026-04-11T14:34:51.925Z</time></trkpt><trkpt lat="44.3647050317394" lon="10.303210232566107"><ele>832.0</ele><time>2026-04-11T14:34:52.925Z</time></trkpt><trkpt lat="44.364775505275844" lon="10.303115748197914"><ele>832.0</ele><time>2026-04-11T14:34:53.925Z</time></trkpt><trkpt lat="44.36482858389866" lon="10.303033659398215"><ele>832.0</ele><time>2026-04-11T14:34:54.925Z</time></trkpt><trkpt lat="44.36486858967802" lon="10.302937859351257"><ele>833.2</ele><time>2026-04-11T14:34:55.925Z</time></trkpt><trkpt lat="44.36487505399807" lon="10.302834632431239"><ele>834.4000000000001</ele><time>2026-04-11T14:34:56.925Z</time></trkpt><trkpt lat="44.36483766928321" lon="10.302734724439768"><ele>835.5999999999999</ele><time>2026-04-11T14:34:57.925Z</time></trkpt><trkpt lat="44.36476623130699" lon="10.302591978291192"><ele>836.8</ele><time>2026-04-11T14:34:58.925Z</time></trkpt><trkpt lat="44.36466162432329" lon="10.302443365294954"><ele>838.0</ele><time>2026-04-11T14:34:59.925Z</time></trkpt><trkpt lat="44.364549095889146" lon="10.302333185236554"><ele>841.25</ele><time>2026-04-11T14:35:00.925Z</time></trkpt><trkpt lat="44.36443294289882" lon="10.302241092904296"><ele>844.5</ele><time>2026-04-11T14:35:01.925Z</time></trkpt><trkpt lat="44.364301917116826" lon="10.302163312524899"><ele>847.75</ele><time>2026-04-11T14:35:02.925Z</time></trkpt><trkpt lat="44.364173157349306" lon="10.302073687714062"><ele>851.0</ele><time>2026-04-11T14:35:03.925Z</time></trkpt><trkpt lat="44.36404109347648" lon="10.301959365850907"><ele>851.0</ele><time>2026-04-11T14:35:04.925Z</time></trkpt><trkpt lat="44.36390743489721" lon="10.301840935254058"><ele>851.0</ele><time>2026-04-11T14:35:05.925Z</time></trkpt><trkpt lat="44.3637735070797" lon="10.301719257557055"><ele>851.0</ele><time>2026-04-11T14:35:06.925Z</time></trkpt><trkpt lat="44.3636432374226" lon="10.301614221205734"><ele>849.3333333333334</ele><time>2026-04-11T14:35:07.925Z</time></trkpt><trkpt lat="44.363513648928375" lon="10.301493579763688"><ele>847.6666666666667</ele><time>2026-04-11T14:35:08.925Z</time></trkpt><trkpt lat="44.36338858759619" lon="10.301376405640688"><ele>846.0</ele><time>2026-04-11T14:35:09.925Z</time></trkpt><trkpt lat="44.363255416161444" lon="10.30127580880107"><ele>846.0</ele><time>2026-04-11T14:35:10.925Z</time></trkpt><trkpt lat="44.363139725047034" lon="10.301168424275554"><ele>846.0</ele><time>2026-04-11T14:35:11.925Z</time></trkpt><trkpt lat="44.363021406774685" lon="10.30106936097589"><ele>846.0</ele><time>2026-04-11T14:35:12.925Z</time></trkpt><trkpt lat="44.36289526248765" lon="10.300989180516693"><ele>846.0</ele><time>2026-04-11T14:35:13.925Z</time></trkpt><trkpt lat="44.362760292858155" lon="10.300939563366537"><ele>847.6666666666667</ele><time>2026-04-11T14:35:14.925Z</time></trkpt><trkpt lat="44.36261022566159" lon="10.300935983274018"><ele>849.3333333333334</ele><time>2026-04-11T14:35:15.925Z</time></trkpt><trkpt lat="44.3624541862472" lon="10.300956539136259"><ele>851.0</ele><time>2026-04-11T14:35:16.925Z</time></trkpt><trkpt lat="44.362292197246546" lon="10.300992506060226"><ele>847.6666666666667</ele><time>2026-04-11T14:35:17.925Z</time></trkpt><trkpt lat="44.36212848997503" lon="10.301027308574943"><ele>844.3333333333333</ele><time>2026-04-11T14:35:18.925Z</time></trkpt><trkpt lat="44.3619528734802" lon="10.301054213138476"><ele>841.0</ele><time>2026-04-11T14:35:19.925Z</time></trkpt><trkpt lat="44.361772482644334" lon="10.301035098539893"><ele>841.0</ele><time>2026-04-11T14:35:20.925Z</time></trkpt><trkpt lat="44.3616082309434" lon="10.300999375521044"><ele>841.0</ele><time>2026-04-11T14:35:21.925Z</time></trkpt><trkpt lat="44.36145825418553" lon="10.300959498656177"><ele>841.0</ele><time>2026-04-11T14:35:22.925Z</time></trkpt><trkpt lat="44.36131895549839" lon="10.30087155027179"><ele>838.75</ele><time>2026-04-11T14:35:23.925Z</time></trkpt><trkpt lat="44.36118541029581" lon="10.300792477926255"><ele>836.5</ele><time>2026-04-11T14:35:24.925Z</time></trkpt><trkpt lat="44.36107454999381" lon="10.300746286775883"><ele>834.25</ele><time>2026-04-11T14:35:25.925Z</time></trkpt><trkpt lat="44.360954796080854" lon="10.300756026051403"><ele>832.0</ele><time>2026-04-11T14:35:26.925Z</time></trkpt><trkpt lat="44.360827507067064" lon="10.300822727713358"><ele>832.0</ele><time>2026-04-11T14:35:27.925Z</time></trkpt><trkpt lat="44.36070538831312" lon="10.300911963330503"><ele>832.0</ele><time>2026-04-11T14:35:28.926Z</time></trkpt><trkpt lat="44.360570324753446" lon="10.301049232374979"><ele>832.0</ele><time>2026-04-11T14:35:29.926Z</time></trkpt><trkpt lat="44.36044013651965" lon="10.301168618494659"><ele>834.0</ele><time>2026-04-11T14:35:30.924Z</time></trkpt><trkpt lat="44.36032489456788" lon="10.301276116935956"><ele>836.0</ele><time>2026-04-11T14:35:31.924Z</time></trkpt><trkpt lat="44.36020952944213" lon="10.301344686619364"><ele>838.0</ele><time>2026-04-11T14:35:32.924Z</time></trkpt><trkpt lat="44.360083163217276" lon="10.30135510801638"><ele>840.0</ele><time>2026-04-11T14:35:33.924Z</time></trkpt><trkpt lat="44.359942569058035" lon="10.301319678645262"><ele>840.0</ele><time>2026-04-11T14:35:34.924Z</time></trkpt><trkpt lat="44.35979459564606" lon="10.301254632089359"><ele>840.0</ele><time>2026-04-11T14:35:35.924Z</time></trkpt><trkpt lat="44.35964712748658" lon="10.301215399541777"><ele>840.0</ele><time>2026-04-11T14:35:36.924Z</time></trkpt><trkpt lat="44.35948927068698" lon="10.301189781803178"><ele>838.3333333333333</ele><time>2026-04-11T14:35:37.924Z</time></trkpt><trkpt lat="44.35932494778147" lon="10.301187825697491"><ele>836.6666666666666</ele><time>2026-04-11T14:35:38.924Z</time></trkpt><trkpt lat="44.3591559468672" lon="10.301228228848846"><ele>835.0</ele><time>2026-04-11T14:35:39.924Z</time></trkpt><trkpt lat="44.358980963970716" lon="10.301279057563397"><ele>831.0</ele><time>2026-04-11T14:35:40.924Z</time></trkpt><trkpt lat="44.35880299475264" lon="10.301298219300364"><ele>827.0</ele><time>2026-04-11T14:35:41.924Z</time></trkpt><trkpt lat="44.358635935496615" lon="10.301290586193101"><ele>823.0</ele><time>2026-04-11T14:35:42.924Z</time></trkpt><trkpt lat="44.35848112641123" lon="10.30128414522022"><ele>823.0</ele><time>2026-04-11T14:35:43.925Z</time></trkpt><trkpt lat="44.35833371883229" lon="10.301281419715195"><ele>823.0</ele><time>2026-04-11T14:35:44.925Z</time></trkpt><trkpt lat="44.358181777362105" lon="10.301255955216472"><ele>823.0</ele><time>2026-04-11T14:35:45.925Z</time></trkpt><trkpt lat="44.35802891717371" lon="10.301175610148789"><ele>813.6666666666666</ele><time>2026-04-11T14:35:46.925Z</time></trkpt><trkpt lat="44.35788078560222" lon="10.301096599940347"><ele>804.3333333333333</ele><time>2026-04-11T14:35:47.925Z</time></trkpt><trkpt lat="44.35774485386543" lon="10.301009403370344"><ele>795.0</ele><time>2026-04-11T14:35:48.925Z</time></trkpt><trkpt lat="44.357618920141554" lon="10.300911753145876"><ele>795.0</ele><time>2026-04-11T14:35:49.925Z</time></trkpt><trkpt lat="44.35751443165424" lon="10.3007621804873"><ele>795.0</ele><time>2026-04-11T14:35:50.925Z</time></trkpt><trkpt lat="44.35742185079222" lon="10.300573078007256"><ele>795.0</ele><time>2026-04-11T14:35:51.925Z</time></trkpt><trkpt lat="44.357320569912574" lon="10.300375734331732"><ele>800.6666666666667</ele><time>2026-04-11T14:35:52.925Z</time></trkpt><trkpt lat="44.357216410123264" lon="10.30018111522954"><ele>806.3333333333334</ele><time>2026-04-11T14:35:53.925Z</time></trkpt><trkpt lat="44.357117301560436" lon="10.300007354259085"><ele>812.0</ele><time>2026-04-11T14:35:54.925Z</time></trkpt><trkpt lat="44.35703039276461" lon="10.29985491896538"><ele>804.0</ele><time>2026-04-11T14:35:55.925Z</time></trkpt><trkpt lat="44.35695626020459" lon="10.299724792559394"><ele>796.0</ele><time>2026-04-11T14:35:56.925Z</time></trkpt><trkpt lat="44.356912467740116" lon="10.299588918790578"><ele>788.0</ele><time>2026-04-11T14:35:57.925Z</time></trkpt><trkpt lat="44.35690760295578" lon="10.299423321433336"><ele>780.0</ele><time>2026-04-11T14:35:58.925Z</time></trkpt><trkpt lat="44.35694630324357" lon="10.29923869498196"><ele>780.0</ele><time>2026-04-11T14:35:59.925Z</time></trkpt><trkpt lat="44.35700947533069" lon="10.299052456640993"><ele>780.0</ele><time>2026-04-11T14:36:00.925Z</time></trkpt><trkpt lat="44.357041389274954" lon="10.298859275082775"><ele>780.0</ele><time>2026-04-11T14:36:01.925Z</time></trkpt><trkpt lat="44.35706968186359" lon="10.298682600729462"><ele>780.0</ele><time>2026-04-11T14:36:02.925Z</time></trkpt><trkpt lat="44.357127215955394" lon="10.29853540105361"><ele>782.0</ele><time>2026-04-11T14:36:03.925Z</time></trkpt><trkpt lat="44.35722340270412" lon="10.298412259454018"><ele>784.0</ele><time>2026-04-11T14:36:04.925Z</time></trkpt><trkpt lat="44.35732192101453" lon="10.298298993922037"><ele>786.0</ele><time>2026-04-11T14:36:05.925Z</time></trkpt><trkpt lat="44.35738278517509" lon="10.298178759977835"><ele>788.0</ele><time>2026-04-11T14:36:06.925Z</time></trkpt><trkpt lat="44.35739178228998" lon="10.298007903207338"><ele>788.0</ele><time>2026-04-11T14:36:07.925Z</time></trkpt><trkpt lat="44.357353247957285" lon="10.297795457086924"><ele>788.0</ele><time>2026-04-11T14:36:08.925Z</time></trkpt><trkpt lat="44.35730791230465" lon="10.297578031252334"><ele>788.0</ele><time>2026-04-11T14:36:09.925Z</time></trkpt><trkpt lat="44.3572558940502" lon="10.297331136147035"><ele>788.6666666666667</ele><time>2026-04-11T14:36:10.925Z</time></trkpt><trkpt lat="44.35721540464488" lon="10.297096130272458"><ele>789.3333333333333</ele><time>2026-04-11T14:36:11.925Z</time></trkpt><trkpt lat="44.35717414017312" lon="10.296860802138502"><ele>790.0</ele><time>2026-04-11T14:36:12.925Z</time></trkpt><trkpt lat="44.357123247199645" lon="10.29663107538569"><ele>783.0</ele><time>2026-04-11T14:36:13.925Z</time></trkpt><trkpt lat="44.35705069301458" lon="10.296411777585417"><ele>776.0</ele><time>2026-04-11T14:36:14.925Z</time></trkpt><trkpt lat="44.356968706795485" lon="10.296207789316604"><ele>769.0</ele><time>2026-04-11T14:36:15.925Z</time></trkpt><trkpt lat="44.356895773163686" lon="10.296013699444662"><ele>769.0</ele><time>2026-04-11T14:36:16.925Z</time></trkpt><trkpt lat="44.35684671153892" lon="10.295827644604142"><ele>769.0</ele><time>2026-04-11T14:36:17.925Z</time></trkpt><trkpt lat="44.35683460176728" lon="10.295624281244365"><ele>769.0</ele><time>2026-04-11T14:36:18.925Z</time></trkpt><trkpt lat="44.356857331955126" lon="10.29540606316871"><ele>769.0</ele><time>2026-04-11T14:36:19.925Z</time></trkpt><trkpt lat="44.35687967878214" lon="10.295198976017328"><ele>769.25</ele><time>2026-04-11T14:36:20.925Z</time></trkpt><trkpt lat="44.35688832497023" lon="10.295001150148975"><ele>769.5</ele><time>2026-04-11T14:36:21.925Z</time></trkpt><trkpt lat="44.356865634966674" lon="10.29481189490864"><ele>769.75</ele><time>2026-04-11T14:36:22.925Z</time></trkpt><trkpt lat="44.35681678445085" lon="10.294641367504008"><ele>770.0</ele><time>2026-04-11T14:36:23.925Z</time></trkpt><trkpt lat="44.35675513320973" lon="10.294496027989906"><ele>770.75</ele><time>2026-04-11T14:36:24.925Z</time></trkpt><trkpt lat="44.35669351878966" lon="10.294337770966465"><ele>771.5</ele><time>2026-04-11T14:36:25.925Z</time></trkpt><trkpt lat="44.356616789007795" lon="10.294174916108016"><ele>772.25</ele><time>2026-04-11T14:36:26.925Z</time></trkpt><trkpt lat="44.35655369385312" lon="10.294013674856807"><ele>773.0</ele><time>2026-04-11T14:36:27.925Z</time></trkpt><trkpt lat="44.35650329821709" lon="10.293856532801014"><ele>775.0</ele><time>2026-04-11T14:36:28.925Z</time></trkpt><trkpt lat="44.35645867174383" lon="10.293705200018547"><ele>777.0</ele><time>2026-04-11T14:36:29.925Z</time></trkpt><trkpt lat="44.35641645095763" lon="10.293551838379491"><ele>779.0</ele><time>2026-04-11T14:36:30.925Z</time></trkpt><trkpt lat="44.356376676362444" lon="10.293398970865825"><ele>781.0</ele><time>2026-04-11T14:36:31.925Z</time></trkpt><trkpt lat="44.356336762214454" lon="10.293249405073711"><ele>777.4</ele><time>2026-04-11T14:36:32.925Z</time></trkpt><trkpt lat="44.35629552604288" lon="10.293103764683984"><ele>773.8</ele><time>2026-04-11T14:36:33.925Z</time></trkpt><trkpt lat="44.35625117329085" lon="10.292959124780248"><ele>770.1999999999999</ele><time>2026-04-11T14:36:34.925Z</time></trkpt><trkpt lat="44.35620822529835" lon="10.292817857373805"><ele>766.5999999999999</ele><time>2026-04-11T14:36:35.925Z</time></trkpt><trkpt lat="44.35616709193842" lon="10.292676584615332"><ele>763.0</ele><time>2026-04-11T14:36:36.925Z</time></trkpt><trkpt lat="44.35612053941089" lon="10.292533306628735"><ele>763.0</ele><time>2026-04-11T14:36:37.925Z</time></trkpt><trkpt lat="44.3560750171221" lon="10.292392100769572"><ele>763.0</ele><time>2026-04-11T14:36:38.925Z</time></trkpt><trkpt lat="44.356025967613604" lon="10.292250871888093"><ele>763.0</ele><time>2026-04-11T14:36:39.925Z</time></trkpt><trkpt lat="44.35597545004385" lon="10.292117323453002"><ele>763.0</ele><time>2026-04-11T14:36:40.925Z</time></trkpt><trkpt lat="44.355930131397194" lon="10.29198664778917"><ele>763.0</ele><time>2026-04-11T14:36:41.925Z</time></trkpt><trkpt lat="44.355898954646136" lon="10.291850558011497"><ele>765.5</ele><time>2026-04-11T14:36:42.925Z</time></trkpt><trkpt lat="44.3558915859841" lon="10.291702941521695"><ele>768.0</ele><time>2026-04-11T14:36:43.925Z</time></trkpt><trkpt lat="44.35591235077096" lon="10.291543960583411"><ele>770.5</ele><time>2026-04-11T14:36:44.925Z</time></trkpt><trkpt lat="44.35594086083244" lon="10.291381017471041"><ele>773.0</ele><time>2026-04-11T14:36:45.925Z</time></trkpt><trkpt lat="44.355966365478245" lon="10.291229794900998"><ele>773.5999999999999</ele><time>2026-04-11T14:36:46.925Z</time></trkpt><trkpt lat="44.35597975533625" lon="10.291083507738952"><ele>774.1999999999999</ele><time>2026-04-11T14:36:47.925Z</time></trkpt><trkpt lat="44.3559829088442" lon="10.290932673634455"><ele>774.8</ele><time>2026-04-11T14:36:48.925Z</time></trkpt><trkpt lat="44.35597262840744" lon="10.290790375750381"><ele>775.4</ele><time>2026-04-11T14:36:49.925Z</time></trkpt><trkpt lat="44.355944702806646" lon="10.290661007925141"><ele>776.0</ele><time>2026-04-11T14:36:50.925Z</time></trkpt><trkpt lat="44.355878526614894" lon="10.290547304495574"><ele>776.8</ele><time>2026-04-11T14:36:51.925Z</time></trkpt><trkpt lat="44.35578730801492" lon="10.290462831942676"><ele>777.5999999999999</ele><time>2026-04-11T14:36:52.925Z</time></trkpt><trkpt lat="44.355674330715885" lon="10.290399233652021"><ele>778.4</ele><time>2026-04-11T14:36:53.925Z</time></trkpt><trkpt lat="44.35557542950352" lon="10.290353797820691"><ele>779.2</ele><time>2026-04-11T14:36:54.925Z</time></trkpt><trkpt lat="44.35548671134177" lon="10.290333959136262"><ele>780.0</ele><time>2026-04-11T14:36:55.925Z</time></trkpt><trkpt lat="44.35539848684014" lon="10.29034178672043"><ele>780.0</ele><time>2026-04-11T14:36:56.925Z</time></trkpt><trkpt lat="44.35531724110926" lon="10.290394321793116"><ele>780.0</ele><time>2026-04-11T14:36:57.925Z</time></trkpt><trkpt lat="44.35524036019639" lon="10.290481022390953"><ele>780.0</ele><time>2026-04-11T14:36:58.925Z</time></trkpt><trkpt lat="44.35516607769326" lon="10.290554934638049"><ele>780.0</ele><time>2026-04-11T14:36:59.925Z</time></trkpt><trkpt lat="44.3551028831211" lon="10.290601583189439"><ele>780.0</ele><time>2026-04-11T14:37:00.925Z</time></trkpt><trkpt lat="44.35499171346074" lon="10.290529546027585"><ele>780.0</ele><time>2026-04-11T14:37:02.925Z</time></trkpt><trkpt lat="44.35496395327285" lon="10.290401841982613"><ele>780.0</ele><time>2026-04-11T14:37:03.925Z</time></trkpt><trkpt lat="44.35493662179646" lon="10.290261264234529"><ele>780.0</ele><time>2026-04-11T14:37:04.925Z</time></trkpt><trkpt lat="44.35490039514984" lon="10.290104248528687"><ele>780.0</ele><time>2026-04-11T14:37:05.925Z</time></trkpt><trkpt lat="44.354843596617414" lon="10.289965207572077"><ele>780.0</ele><time>2026-04-11T14:37:06.925Z</time></trkpt><trkpt lat="44.354766492934516" lon="10.289855376890058"><ele>777.5</ele><time>2026-04-11T14:37:07.925Z</time></trkpt><trkpt lat="44.35466456175784" lon="10.28977427066895"><ele>775.0</ele><time>2026-04-11T14:37:08.925Z</time></trkpt><trkpt lat="44.35455575755336" lon="10.289725493769424"><ele>772.5</ele><time>2026-04-11T14:37:09.925Z</time></trkpt><trkpt lat="44.35444639344927" lon="10.289698852983873"><ele>770.0</ele><time>2026-04-11T14:37:10.925Z</time></trkpt><trkpt lat="44.35433485434412" lon="10.289660832999283"><ele>770.0</ele><time>2026-04-11T14:37:11.925Z</time></trkpt><trkpt lat="44.354233367744314" lon="10.289586277837131"><ele>770.0</ele><time>2026-04-11T14:37:12.925Z</time></trkpt><trkpt lat="44.35414757890811" lon="10.289476346774213"><ele>770.0</ele><time>2026-04-11T14:37:13.925Z</time></trkpt><trkpt lat="44.354083882962016" lon="10.28933334488388"><ele>770.0</ele><time>2026-04-11T14:37:14.926Z</time></trkpt><trkpt lat="44.35404096853589" lon="10.289160040544846"><ele>770.0</ele><time>2026-04-11T14:37:15.926Z</time></trkpt><trkpt lat="44.353993746678114" lon="10.288974393873142"><ele>770.0</ele><time>2026-04-11T14:37:16.926Z</time></trkpt><trkpt lat="44.35392949656712" lon="10.288794390042987"><ele>770.0</ele><time>2026-04-11T14:37:17.926Z</time></trkpt><trkpt lat="44.35383706658654" lon="10.288633555064768"><ele>770.0</ele><time>2026-04-11T14:37:18.926Z</time></trkpt><trkpt lat="44.35373131321493" lon="10.28848677860067"><ele>769.5</ele><time>2026-04-11T14:37:19.926Z</time></trkpt><trkpt lat="44.35362606254376" lon="10.288341733616365"><ele>769.0</ele><time>2026-04-11T14:37:20.926Z</time></trkpt><trkpt lat="44.353531604536144" lon="10.288210517427856"><ele>768.5</ele><time>2026-04-11T14:37:21.926Z</time></trkpt><trkpt lat="44.353452009384064" lon="10.288093602505286"><ele>768.0</ele><time>2026-04-11T14:37:22.926Z</time></trkpt><trkpt lat="44.35338154184623" lon="10.287994134478515"><ele>768.0</ele><time>2026-04-11T14:37:23.926Z</time></trkpt><trkpt lat="44.35329616361543" lon="10.28793717649359"><ele>768.0</ele><time>2026-04-11T14:37:24.926Z</time></trkpt><trkpt lat="44.35318934065579" lon="10.287929887816071"><ele>768.0</ele><time>2026-04-11T14:37:25.926Z</time></trkpt><trkpt lat="44.353075899688015" lon="10.287989157065233"><ele>768.0</ele><time>2026-04-11T14:37:26.926Z</time></trkpt><trkpt lat="44.35296762346248" lon="10.288077638183275"><ele>768.0</ele><time>2026-04-11T14:37:27.926Z</time></trkpt><trkpt lat="44.35287173176921" lon="10.288158112757738"><ele>765.4</ele><time>2026-04-11T14:37:28.926Z</time></trkpt><trkpt lat="44.352773502762915" lon="10.288193519814445"><ele>762.8</ele><time>2026-04-11T14:37:29.926Z</time></trkpt><trkpt lat="44.352666407126286" lon="10.288173645048644"><ele>760.2</ele><time>2026-04-11T14:37:30.926Z</time></trkpt><trkpt lat="44.35255966867149" lon="10.288113025304842"><ele>757.6</ele><time>2026-04-11T14:37:31.926Z</time></trkpt><trkpt lat="44.3524689466859" lon="10.2880081687628"><ele>755.0</ele><time>2026-04-11T14:37:32.926Z</time></trkpt><trkpt lat="44.352389169096014" lon="10.287871329175898"><ele>755.0</ele><time>2026-04-11T14:37:33.926Z</time></trkpt><trkpt lat="44.35232446338116" lon="10.287680647321618"><ele>755.0</ele><time>2026-04-11T14:37:34.926Z</time></trkpt><trkpt lat="44.352240265446525" lon="10.287480573873228"><ele>755.0</ele><time>2026-04-11T14:37:35.926Z</time></trkpt><trkpt lat="44.35215531431252" lon="10.287300032784607"><ele>752.25</ele><time>2026-04-11T14:37:36.924Z</time></trkpt><trkpt lat="44.352077761866404" lon="10.287136033957204"><ele>749.5</ele><time>2026-04-11T14:37:37.924Z</time></trkpt><trkpt lat="44.35201203504982" lon="10.286983569229985"><ele>746.75</ele><time>2026-04-11T14:37:38.924Z</time></trkpt><trkpt lat="44.35196648220884" lon="10.2868212441542"><ele>744.0</ele><time>2026-04-11T14:37:39.924Z</time></trkpt><trkpt lat="44.351953565705514" lon="10.286639109080326"><ele>744.0</ele><time>2026-04-11T14:37:40.924Z</time></trkpt><trkpt lat="44.3519761702557" lon="10.286465459164058"><ele>744.0</ele><time>2026-04-11T14:37:41.924Z</time></trkpt><trkpt lat="44.35201306994189" lon="10.286301278439208"><ele>744.0</ele><time>2026-04-11T14:37:42.924Z</time></trkpt><trkpt lat="44.35207971583729" lon="10.286144020359123"><ele>744.0</ele><time>2026-04-11T14:37:43.924Z</time></trkpt><trkpt lat="44.352159515666415" lon="10.28598939009135"><ele>744.5</ele><time>2026-04-11T14:37:44.924Z</time></trkpt><trkpt lat="44.35225868746816" lon="10.285860132583956"><ele>745.0</ele><time>2026-04-11T14:37:45.924Z</time></trkpt><trkpt lat="44.35237668166334" lon="10.285757148276534"><ele>745.5</ele><time>2026-04-11T14:37:46.924Z</time></trkpt><trkpt lat="44.35248522749815" lon="10.285675231819564"><ele>746.0</ele><time>2026-04-11T14:37:47.924Z</time></trkpt><trkpt lat="44.3525740336421" lon="10.28559494048289"><ele>743.0</ele><time>2026-04-11T14:37:48.924Z</time></trkpt><trkpt lat="44.35262045041907" lon="10.285460637101014"><ele>740.0</ele><time>2026-04-11T14:37:49.924Z</time></trkpt><trkpt lat="44.35262795185864" lon="10.28528081007069"><ele>737.0</ele><time>2026-04-11T14:37:50.924Z</time></trkpt><trkpt lat="44.3526166151036" lon="10.2850640423797"><ele>734.0</ele><time>2026-04-11T14:37:51.924Z</time></trkpt><trkpt lat="44.35261365938508" lon="10.28483740678998"><ele>732.0</ele><time>2026-04-11T14:37:52.924Z</time></trkpt><trkpt lat="44.35261239517126" lon="10.284626558352358"><ele>730.0</ele><time>2026-04-11T14:37:53.924Z</time></trkpt><trkpt lat="44.35260806127021" lon="10.284414457265274"><ele>728.0</ele><time>2026-04-11T14:37:54.924Z</time></trkpt><trkpt lat="44.35260682581163" lon="10.284201542020275"><ele>728.0</ele><time>2026-04-11T14:37:55.924Z</time></trkpt><trkpt lat="44.35260677321971" lon="10.283992712086375"><ele>728.0</ele><time>2026-04-11T14:37:56.924Z</time></trkpt><trkpt lat="44.35262503511601" lon="10.283799425392175"><ele>728.0</ele><time>2026-04-11T14:37:57.924Z</time></trkpt><trkpt lat="44.35264839539902" lon="10.283612503412991"><ele>728.0</ele><time>2026-04-11T14:37:58.924Z</time></trkpt><trkpt lat="44.35267655372599" lon="10.283445999674733"><ele>724.75</ele><time>2026-04-11T14:37:59.924Z</time></trkpt><trkpt lat="44.35272217345539" lon="10.283299403239653"><ele>721.5</ele><time>2026-04-11T14:38:00.924Z</time></trkpt><trkpt lat="44.35279713413062" lon="10.283177935883158"><ele>718.25</ele><time>2026-04-11T14:38:01.924Z</time></trkpt><trkpt lat="44.35289399425343" lon="10.283080809505572"><ele>715.0</ele><time>2026-04-11T14:38:02.924Z</time></trkpt><trkpt lat="44.35298200875216" lon="10.282973160692599"><ele>712.75</ele><time>2026-04-11T14:38:03.924Z</time></trkpt><trkpt lat="44.35303653159892" lon="10.282835163165641"><ele>710.5</ele><time>2026-04-11T14:38:04.924Z</time></trkpt><trkpt lat="44.35304989578955" lon="10.2826579143227"><ele>708.25</ele><time>2026-04-11T14:38:05.924Z</time></trkpt><trkpt lat="44.35303461063258" lon="10.282478366647105"><ele>706.0</ele><time>2026-04-11T14:38:06.924Z</time></trkpt><trkpt lat="44.35299781855354" lon="10.282324789046923"><ele>709.5</ele><time>2026-04-11T14:38:07.924Z</time></trkpt><trkpt lat="44.35292281098909" lon="10.28220259512323"><ele>713.0</ele><time>2026-04-11T14:38:08.924Z</time></trkpt><trkpt lat="44.35280911969239" lon="10.282121417871984"><ele>716.5</ele><time>2026-04-11T14:38:09.924Z</time></trkpt><trkpt lat="44.35266751164978" lon="10.28207717768428"><ele>720.0</ele><time>2026-04-11T14:38:10.924Z</time></trkpt><trkpt lat="44.35251613781183" lon="10.282029952288266"><ele>720.0</ele><time>2026-04-11T14:38:11.924Z</time></trkpt><trkpt lat="44.35235022418328" lon="10.281967107029406"><ele>720.0</ele><time>2026-04-11T14:38:12.924Z</time></trkpt><trkpt lat="44.352172092958995" lon="10.281900406906399"><ele>720.0</ele><time>2026-04-11T14:38:13.924Z</time></trkpt><trkpt lat="44.35198512370319" lon="10.281836962658033"><ele>725.0</ele><time>2026-04-11T14:38:14.924Z</time></trkpt><trkpt lat="44.35181190513464" lon="10.281781947707255"><ele>730.0</ele><time>2026-04-11T14:38:15.924Z</time></trkpt><trkpt lat="44.351624195435825" lon="10.281769935061591"><ele>735.0</ele><time>2026-04-11T14:38:16.924Z</time></trkpt><trkpt lat="44.351424783793505" lon="10.28179556927825"><ele>735.6666666666666</ele><time>2026-04-11T14:38:17.924Z</time></trkpt><trkpt lat="44.351254394595486" lon="10.281856114191742"><ele>736.3333333333333</ele><time>2026-04-11T14:38:18.924Z</time></trkpt><trkpt lat="44.351106983463836" lon="10.281935878091492"><ele>737.0</ele><time>2026-04-11T14:38:19.924Z</time></trkpt><trkpt lat="44.35096918739906" lon="10.281992699266073"><ele>737.0</ele><time>2026-04-11T14:38:20.924Z</time></trkpt><trkpt lat="44.35083477867804" lon="10.281979455238181"><ele>737.0</ele><time>2026-04-11T14:38:21.924Z</time></trkpt><trkpt lat="44.35069694835649" lon="10.281927424097598"><ele>737.0</ele><time>2026-04-11T14:38:22.924Z</time></trkpt><trkpt lat="44.35054034371335" lon="10.281859770101432"><ele>737.0</ele><time>2026-04-11T14:38:23.924Z</time></trkpt><trkpt lat="44.35037773045582" lon="10.281764873896318"><ele>736.5</ele><time>2026-04-11T14:38:24.925Z</time></trkpt><trkpt lat="44.35023705367126" lon="10.281695148861665"><ele>736.0</ele><time>2026-04-11T14:38:25.925Z</time></trkpt><trkpt lat="44.350097605373655" lon="10.281651470071754"><ele>735.5</ele><time>2026-04-11T14:38:26.925Z</time></trkpt><trkpt lat="44.34995036304146" lon="10.28165840336625"><ele>735.0</ele><time>2026-04-11T14:38:27.925Z</time></trkpt><trkpt lat="44.349794901624556" lon="10.281707553177467"><ele>737.3333333333334</ele><time>2026-04-11T14:38:28.925Z</time></trkpt><trkpt lat="44.34963240406753" lon="10.28176169259615"><ele>739.6666666666667</ele><time>2026-04-11T14:38:29.925Z</time></trkpt><trkpt lat="44.34946567953194" lon="10.281776130074775"><ele>742.0</ele><time>2026-04-11T14:38:30.925Z</time></trkpt><trkpt lat="44.34929291518672" lon="10.28172713094467"><ele>742.0</ele><time>2026-04-11T14:38:31.925Z</time></trkpt><trkpt lat="44.34911106857852" lon="10.281672700669063"><ele>742.0</ele><time>2026-04-11T14:38:32.925Z</time></trkpt><trkpt lat="44.34892610972103" lon="10.281621684725387"><ele>742.0</ele><time>2026-04-11T14:38:33.925Z</time></trkpt><trkpt lat="44.3487368753138" lon="10.281565236315926"><ele>745.0</ele><time>2026-04-11T14:38:34.925Z</time></trkpt><trkpt lat="44.34855387413343" lon="10.281511873378196"><ele>748.0</ele><time>2026-04-11T14:38:35.925Z</time></trkpt><trkpt lat="44.348375825851576" lon="10.281456237530788"><ele>751.0</ele><time>2026-04-11T14:38:36.925Z</time></trkpt><trkpt lat="44.34821175675799" lon="10.281392953278182"><ele>754.3333333333334</ele><time>2026-04-11T14:38:37.925Z</time></trkpt><trkpt lat="44.34805458975314" lon="10.281328585571774"><ele>757.6666666666666</ele><time>2026-04-11T14:38:38.925Z</time></trkpt><trkpt lat="44.347903294215925" lon="10.28124273578677"><ele>761.0</ele><time>2026-04-11T14:38:39.925Z</time></trkpt><trkpt lat="44.34775018055134" lon="10.281157680579845"><ele>761.0</ele><time>2026-04-11T14:38:40.925Z</time></trkpt><trkpt lat="44.3475970911287" lon="10.281068969298582"><ele>761.0</ele><time>2026-04-11T14:38:41.925Z</time></trkpt><trkpt lat="44.347441071679455" lon="10.280974747992706"><ele>761.0</ele><time>2026-04-11T14:38:42.925Z</time></trkpt><trkpt lat="44.34728322449787" lon="10.280878046947159"><ele>758.3333333333333</ele><time>2026-04-11T14:38:43.925Z</time></trkpt><trkpt lat="44.34715552900557" lon="10.280757440039933"><ele>755.6666666666666</ele><time>2026-04-11T14:38:44.925Z</time></trkpt><trkpt lat="44.347051622745134" lon="10.280454184679781"><ele>753.0</ele><time>2026-04-11T14:38:45.925Z</time></trkpt><trkpt lat="44.34692365807863" lon="10.280200765104988"><ele>753.0</ele><time>2026-04-11T14:38:46.925Z</time></trkpt><trkpt lat="44.34681594086952" lon="10.279974862911958"><ele>753.0</ele><time>2026-04-11T14:38:47.925Z</time></trkpt><trkpt lat="44.34670146715915" lon="10.279753073466804"><ele>753.0</ele><time>2026-04-11T14:38:48.925Z</time></trkpt><trkpt lat="44.34658149124079" lon="10.27952889269342"><ele>753.0</ele><time>2026-04-11T14:38:49.925Z</time></trkpt><trkpt lat="44.34646189162551" lon="10.279313172308765"><ele>753.0</ele><time>2026-04-11T14:38:50.925Z</time></trkpt><trkpt lat="44.34634616044492" lon="10.279102827247353"><ele>753.0</ele><time>2026-04-11T14:38:51.925Z</time></trkpt><trkpt lat="44.34623040500961" lon="10.278894263445604"><ele>758.6666666666667</ele><time>2026-04-11T14:38:52.925Z</time></trkpt><trkpt lat="44.346115503327034" lon="10.27868178186255"><ele>764.3333333333334</ele><time>2026-04-11T14:38:53.925Z</time></trkpt><trkpt lat="44.34599788498586" lon="10.278468915255273"><ele>770.0</ele><time>2026-04-11T14:38:54.925Z</time></trkpt><trkpt lat="44.345881041501116" lon="10.278254404678387"><ele>768.6666666666667</ele><time>2026-04-11T14:38:55.925Z</time></trkpt><trkpt lat="44.345763997510176" lon="10.278041136889996"><ele>767.3333333333334</ele><time>2026-04-11T14:38:56.925Z</time></trkpt><trkpt lat="44.345645526683555" lon="10.27782994623329"><ele>766.0</ele><time>2026-04-11T14:38:57.925Z</time></trkpt><trkpt lat="44.34553181212609" lon="10.277626950114078"><ele>766.0</ele><time>2026-04-11T14:38:58.925Z</time></trkpt><trkpt lat="44.34541336974423" lon="10.277427613711271"><ele>766.0</ele><time>2026-04-11T14:38:59.925Z</time></trkpt><trkpt lat="44.34531040819324" lon="10.277261409842383"><ele>766.0</ele><time>2026-04-11T14:39:00.925Z</time></trkpt><trkpt lat="44.34520299942535" lon="10.277057297208158"><ele>768.6666666666667</ele><time>2026-04-11T14:39:01.925Z</time></trkpt><trkpt lat="44.34509579308814" lon="10.276870637838718"><ele>771.3333333333334</ele><time>2026-04-11T14:39:02.925Z</time></trkpt><trkpt lat="44.34499398657593" lon="10.276675931172058"><ele>774.0</ele><time>2026-04-11T14:39:03.925Z</time></trkpt><trkpt lat="44.3448917089788" lon="10.276478311871474"><ele>771.3333333333334</ele><time>2026-04-11T14:39:04.925Z</time></trkpt><trkpt lat="44.34477666531768" lon="10.27627839238588"><ele>768.6666666666667</ele><time>2026-04-11T14:39:05.925Z</time></trkpt><trkpt lat="44.34466311382066" lon="10.276081779928578"><ele>766.0</ele><time>2026-04-11T14:39:06.925Z</time></trkpt><trkpt lat="44.3445485656221" lon="10.275877171263257"><ele>766.0</ele><time>2026-04-11T14:39:07.925Z</time></trkpt><trkpt lat="44.34442752863281" lon="10.275679832442194"><ele>766.0</ele><time>2026-04-11T14:39:08.925Z</time></trkpt><trkpt lat="44.344308985842105" lon="10.275471443322296"><ele>766.0</ele><time>2026-04-11T14:39:09.925Z</time></trkpt><trkpt lat="44.34418355450548" lon="10.275242976857578"><ele>768.6666666666667</ele><time>2026-04-11T14:39:10.925Z</time></trkpt><trkpt lat="44.34404312475035" lon="10.275003587822324"><ele>771.3333333333334</ele><time>2026-04-11T14:39:11.925Z</time></trkpt><trkpt lat="44.34390298991582" lon="10.27475636518626"><ele>774.0</ele><time>2026-04-11T14:39:12.925Z</time></trkpt><trkpt lat="44.343761003355134" lon="10.274504550163142"><ele>777.0</ele><time>2026-04-11T14:39:13.925Z</time></trkpt><trkpt lat="44.3436152067236" lon="10.274247487292394"><ele>780.0</ele><time>2026-04-11T14:39:14.925Z</time></trkpt><trkpt lat="44.34346937718723" lon="10.273993334916653"><ele>784.3333333333333</ele><time>2026-04-11T14:39:15.925Z</time></trkpt><trkpt lat="44.34332684044566" lon="10.273736899525362"><ele>788.6666666666666</ele><time>2026-04-11T14:39:16.925Z</time></trkpt><trkpt lat="44.34319507789573" lon="10.273501059195578"><ele>793.0</ele><time>2026-04-11T14:39:17.925Z</time></trkpt><trkpt lat="44.34307176684632" lon="10.2732797964161"><ele>791.6666666666666</ele><time>2026-04-11T14:39:18.925Z</time></trkpt><trkpt lat="44.34295838056511" lon="10.273052551194258"><ele>790.3333333333333</ele><time>2026-04-11T14:39:19.925Z</time></trkpt><trkpt lat="44.34285289766443" lon="10.272811115359454"><ele>789.0</ele><time>2026-04-11T14:39:20.925Z</time></trkpt><trkpt lat="44.34275570218144" lon="10.272554731924197"><ele>789.0</ele><time>2026-04-11T14:39:21.925Z</time></trkpt><trkpt lat="44.34267187130568" lon="10.272294104319252"><ele>789.0</ele><time>2026-04-11T14:39:22.925Z</time></trkpt><trkpt lat="44.34260321120356" lon="10.272031136651783"><ele>789.0</ele><time>2026-04-11T14:39:23.925Z</time></trkpt><trkpt lat="44.342538646502604" lon="10.271760616892388"><ele>792.3333333333333</ele><time>2026-04-11T14:39:24.925Z</time></trkpt><trkpt lat="44.34248829821" lon="10.271485205377731"><ele>795.6666666666666</ele><time>2026-04-11T14:39:25.925Z</time></trkpt><trkpt lat="44.34245150125442" lon="10.27120656909169"><ele>799.0</ele><time>2026-04-11T14:39:26.925Z</time></trkpt><trkpt lat="44.34242360466884" lon="10.270915055054305"><ele>800.6666666666666</ele><time>2026-04-11T14:39:27.925Z</time></trkpt><trkpt lat="44.34240458601451" lon="10.27061922972811"><ele>802.3333333333333</ele><time>2026-04-11T14:39:28.925Z</time></trkpt><trkpt lat="44.34238941539873" lon="10.270322387249072"><ele>804.0</ele><time>2026-04-11T14:39:29.925Z</time></trkpt><trkpt lat="44.34237681323989" lon="10.270023909525205"><ele>806.3333333333333</ele><time>2026-04-11T14:39:30.925Z</time></trkpt><trkpt lat="44.34236069514878" lon="10.269728165261757"><ele>808.6666666666666</ele><time>2026-04-11T14:39:31.925Z</time></trkpt><trkpt lat="44.342344062511515" lon="10.269449016725119"><ele>811.0</ele><time>2026-04-11T14:39:32.925Z</time></trkpt><trkpt lat="44.34232548985421" lon="10.269184626931736"><ele>810.6666666666666</ele><time>2026-04-11T14:39:33.925Z</time></trkpt><trkpt lat="44.34231418186655" lon="10.268929292430272"><ele>810.3333333333333</ele><time>2026-04-11T14:39:34.925Z</time></trkpt><trkpt lat="44.34229457095297" lon="10.26867501121309"><ele>810.0</ele><time>2026-04-11T14:39:35.925Z</time></trkpt><trkpt lat="44.342268714087496" lon="10.268418439183009"><ele>810.0</ele><time>2026-04-11T14:39:36.925Z</time></trkpt><trkpt lat="44.34222283424503" lon="10.268154281802623"><ele>810.0</ele><time>2026-04-11T14:39:37.925Z</time></trkpt><trkpt lat="44.34216136769516" lon="10.267895058373805"><ele>810.0</ele><time>2026-04-11T14:39:38.925Z</time></trkpt><trkpt lat="44.34208365089804" lon="10.267639402288232"><ele>809.0</ele><time>2026-04-11T14:39:39.925Z</time></trkpt><trkpt lat="44.341988443025706" lon="10.2673959709652"><ele>808.0</ele><time>2026-04-11T14:39:40.925Z</time></trkpt><trkpt lat="44.3418776946691" lon="10.267162897112483"><ele>807.0</ele><time>2026-04-11T14:39:41.925Z</time></trkpt><trkpt lat="44.341754707363805" lon="10.266941319480338"><ele>807.0</ele><time>2026-04-11T14:39:42.924Z</time></trkpt><trkpt lat="44.341617856763406" lon="10.266734477555495"><ele>807.0</ele><time>2026-04-11T14:39:43.924Z</time></trkpt><trkpt lat="44.3414726909396" lon="10.26654147616516"><ele>807.0</ele><time>2026-04-11T14:39:44.924Z</time></trkpt><trkpt lat="44.341315661848114" lon="10.266366931632112"><ele>806.3333333333333</ele><time>2026-04-11T14:39:45.924Z</time></trkpt><trkpt lat="44.34115124325488" lon="10.266208038263763"><ele>805.6666666666666</ele><time>2026-04-11T14:39:46.924Z</time></trkpt><trkpt lat="44.34097729197465" lon="10.26607153594004"><ele>805.0</ele><time>2026-04-11T14:39:47.924Z</time></trkpt><trkpt lat="44.34080784392608" lon="10.265965078588001"><ele>805.0</ele><time>2026-04-11T14:39:48.923Z</time></trkpt><trkpt lat="44.34064940782861" lon="10.265878706959123"><ele>805.0</ele><time>2026-04-11T14:39:49.923Z</time></trkpt><trkpt lat="44.34050084337539" lon="10.265811142418702"><ele>805.0</ele><time>2026-04-11T14:39:50.923Z</time></trkpt><trkpt lat="44.34036320973575" lon="10.265755921561851"><ele>804.0</ele><time>2026-04-11T14:39:51.923Z</time></trkpt><trkpt lat="44.34023264591465" lon="10.265691157332808"><ele>803.0</ele><time>2026-04-11T14:39:52.923Z</time></trkpt><trkpt lat="44.340113922977906" lon="10.265616886713572"><ele>802.0</ele><time>2026-04-11T14:39:53.923Z</time></trkpt><trkpt lat="44.340010552388" lon="10.265540439104281"><ele>801.0</ele><time>2026-04-11T14:39:54.924Z</time></trkpt><trkpt lat="44.33992354094764" lon="10.265470767229441"><ele>801.4</ele><time>2026-04-11T14:39:55.924Z</time></trkpt><trkpt lat="44.33984807702551" lon="10.265402833912884"><ele>801.8</ele><time>2026-04-11T14:39:56.924Z</time></trkpt><trkpt lat="44.339780395938746" lon="10.26531946849609"><ele>802.1999999999999</ele><time>2026-04-11T14:39:57.924Z</time></trkpt><trkpt lat="44.33970871537526" lon="10.265220030837154"><ele>802.5999999999999</ele><time>2026-04-11T14:39:58.924Z</time></trkpt><trkpt lat="44.339627606908984" lon="10.26512963225296"><ele>803.0</ele><time>2026-04-11T14:39:59.924Z</time></trkpt><trkpt lat="44.339548491492124" lon="10.265045387984987"><ele>803.0</ele><time>2026-04-11T14:40:00.924Z</time></trkpt><trkpt lat="44.33949169040283" lon="10.264930909463926"><ele>803.0</ele><time>2026-04-11T14:40:01.924Z</time></trkpt><trkpt lat="44.339467096137106" lon="10.264778110965269"><ele>803.0</ele><time>2026-04-11T14:40:02.924Z</time></trkpt><trkpt lat="44.33947292818705" lon="10.264590414815878"><ele>803.0</ele><time>2026-04-11T14:40:03.924Z</time></trkpt><trkpt lat="44.33950288586642" lon="10.26439903774925"><ele>801.25</ele><time>2026-04-11T14:40:04.924Z</time></trkpt><trkpt lat="44.33953979481236" lon="10.264202655802602"><ele>799.5</ele><time>2026-04-11T14:40:05.924Z</time></trkpt><trkpt lat="44.33955166807808" lon="10.264000472165076"><ele>797.75</ele><time>2026-04-11T14:40:06.924Z</time></trkpt><trkpt lat="44.33952748308801" lon="10.26378898688778"><ele>796.0</ele><time>2026-04-11T14:40:07.924Z</time></trkpt><trkpt lat="44.33948703705029" lon="10.263584826523903"><ele>796.0</ele><time>2026-04-11T14:40:08.924Z</time></trkpt><trkpt lat="44.339453967675155" lon="10.263404124923834"><ele>796.0</ele><time>2026-04-11T14:40:09.924Z</time></trkpt><trkpt lat="44.33945469013964" lon="10.263235463034404"><ele>796.0</ele><time>2026-04-11T14:40:10.924Z</time></trkpt><trkpt lat="44.33949403082211" lon="10.263084047981575"><ele>796.0</ele><time>2026-04-11T14:40:11.924Z</time></trkpt><trkpt lat="44.339576846160234" lon="10.262950294981279"><ele>795.0</ele><time>2026-04-11T14:40:12.924Z</time></trkpt><trkpt lat="44.33967595657555" lon="10.26282989982495"><ele>794.0</ele><time>2026-04-11T14:40:13.924Z</time></trkpt><trkpt lat="44.33974931754206" lon="10.262712289167093"><ele>793.0</ele><time>2026-04-11T14:40:14.924Z</time></trkpt><trkpt lat="44.33978337324839" lon="10.262586093020346"><ele>792.0</ele><time>2026-04-11T14:40:15.924Z</time></trkpt><trkpt lat="44.33976899521489" lon="10.262430504516292"><ele>793.25</ele><time>2026-04-11T14:40:16.924Z</time></trkpt><trkpt lat="44.33970283570662" lon="10.262279134872662"><ele>794.5</ele><time>2026-04-11T14:40:17.924Z</time></trkpt><trkpt lat="44.339620627052874" lon="10.262142981287395"><ele>795.75</ele><time>2026-04-11T14:40:18.924Z</time></trkpt><trkpt lat="44.339511375282136" lon="10.262019950804719"><ele>797.0</ele><time>2026-04-11T14:40:19.924Z</time></trkpt><trkpt lat="44.339380285236686" lon="10.261918393196176"><ele>797.0</ele><time>2026-04-11T14:40:20.924Z</time></trkpt><trkpt lat="44.33925572692104" lon="10.26185283241339"><ele>797.0</ele><time>2026-04-11T14:40:21.924Z</time></trkpt><trkpt lat="44.33915139884212" lon="10.261775681452454"><ele>797.0</ele><time>2026-04-11T14:40:22.924Z</time></trkpt><trkpt lat="44.33906539447907" lon="10.261635649411645"><ele>797.0</ele><time>2026-04-11T14:40:23.924Z</time></trkpt><trkpt lat="44.3389906807284" lon="10.261477628786437"><ele>797.75</ele><time>2026-04-11T14:40:24.924Z</time></trkpt><trkpt lat="44.3389471740446" lon="10.26130532811233"><ele>798.5</ele><time>2026-04-11T14:40:25.924Z</time></trkpt><trkpt lat="44.338938714247256" lon="10.26112192655049"><ele>799.25</ele><time>2026-04-11T14:40:26.924Z</time></trkpt><trkpt lat="44.338964141918126" lon="10.260918578693056"><ele>800.0</ele><time>2026-04-11T14:40:27.924Z</time></trkpt><trkpt lat="44.33898993300755" lon="10.260715811396187"><ele>798.75</ele><time>2026-04-11T14:40:28.924Z</time></trkpt><trkpt lat="44.33901927359556" lon="10.260526825782758"><ele>797.5</ele><time>2026-04-11T14:40:29.924Z</time></trkpt><trkpt lat="44.339058333413476" lon="10.260339529546636"><ele>796.25</ele><time>2026-04-11T14:40:30.924Z</time></trkpt><trkpt lat="44.339108795056404" lon="10.260169554249165"><ele>795.0</ele><time>2026-04-11T14:40:31.924Z</time></trkpt><trkpt lat="44.339129441702276" lon="10.260014094449183"><ele>795.0</ele><time>2026-04-11T14:40:32.924Z</time></trkpt><trkpt lat="44.33910752013929" lon="10.259840982497728"><ele>795.0</ele><time>2026-04-11T14:40:33.924Z</time></trkpt><trkpt lat="44.339038058104535" lon="10.259656852508844"><ele>795.0</ele><time>2026-04-11T14:40:34.924Z</time></trkpt><trkpt lat="44.33896149425888" lon="10.259485635163035"><ele>795.0</ele><time>2026-04-11T14:40:35.924Z</time></trkpt><trkpt lat="44.338882993990154" lon="10.259334343792872"><ele>792.0</ele><time>2026-04-11T14:40:36.924Z</time></trkpt><trkpt lat="44.33877681517143" lon="10.259199235584397"><ele>789.0</ele><time>2026-04-11T14:40:37.924Z</time></trkpt><trkpt lat="44.33864195669474" lon="10.259104115528556"><ele>786.0</ele><time>2026-04-11T14:40:38.924Z</time></trkpt><trkpt lat="44.33850008700993" lon="10.259028617274662"><ele>783.0</ele><time>2026-04-11T14:40:39.924Z</time></trkpt><trkpt lat="44.338351671255204" lon="10.258967086723132"><ele>782.3333333333333</ele><time>2026-04-11T14:40:40.924Z</time></trkpt><trkpt lat="44.33820176527776" lon="10.258898393546396"><ele>781.6666666666666</ele><time>2026-04-11T14:40:41.924Z</time></trkpt><trkpt lat="44.338072146992296" lon="10.258801787980877"><ele>781.0</ele><time>2026-04-11T14:40:42.924Z</time></trkpt><trkpt lat="44.33796531688043" lon="10.258662745398677"><ele>781.0</ele><time>2026-04-11T14:40:43.924Z</time></trkpt><trkpt lat="44.337882480228124" lon="10.258501865285055"><ele>781.0</ele><time>2026-04-11T14:40:44.924Z</time></trkpt><trkpt lat="44.33782713643348" lon="10.258311822727173"><ele>781.0</ele><time>2026-04-11T14:40:45.924Z</time></trkpt><trkpt lat="44.33779128208588" lon="10.258092896420242"><ele>781.0</ele><time>2026-04-11T14:40:46.924Z</time></trkpt><trkpt lat="44.3377552641511" lon="10.257852083120408"><ele>782.6666666666666</ele><time>2026-04-11T14:40:47.924Z</time></trkpt><trkpt lat="44.3377158303855" lon="10.257583530249736"><ele>784.3333333333333</ele><time>2026-04-11T14:40:48.924Z</time></trkpt><trkpt lat="44.337670794112924" lon="10.257313363205629"><ele>786.0</ele><time>2026-04-11T14:40:49.924Z</time></trkpt><trkpt lat="44.337627742356226" lon="10.257046672841838"><ele>789.0</ele><time>2026-04-11T14:40:50.924Z</time></trkpt><trkpt lat="44.33758581396654" lon="10.256802979920407"><ele>792.0</ele><time>2026-04-11T14:40:51.924Z</time></trkpt><trkpt lat="44.33755036680883" lon="10.256599080343488"><ele>795.0</ele><time>2026-04-11T14:40:52.924Z</time></trkpt><trkpt lat="44.33751237051801" lon="10.256415151161416"><ele>796.5</ele><time>2026-04-11T14:40:53.925Z</time></trkpt><trkpt lat="44.33745840975569" lon="10.25625167631386"><ele>798.0</ele><time>2026-04-11T14:40:54.925Z</time></trkpt><trkpt lat="44.33736713291778" lon="10.256101687747325"><ele>799.5</ele><time>2026-04-11T14:40:55.925Z</time></trkpt><trkpt lat="44.337255405245216" lon="10.255998429883437"><ele>801.0</ele><time>2026-04-11T14:40:56.925Z</time></trkpt><trkpt lat="44.33713827432495" lon="10.255917570458429"><ele>793.4</ele><time>2026-04-11T14:40:57.925Z</time></trkpt><trkpt lat="44.33705727798762" lon="10.25583860089925"><ele>785.8</ele><time>2026-04-11T14:40:58.925Z</time></trkpt><trkpt lat="44.33702043346135" lon="10.25573361299465"><ele>778.1999999999999</ele><time>2026-04-11T14:40:59.925Z</time></trkpt><trkpt lat="44.33703589395437" lon="10.25561378486568"><ele>770.5999999999999</ele><time>2026-04-11T14:41:00.925Z</time></trkpt><trkpt lat="44.337109774649534" lon="10.255492657044611"><ele>763.0</ele><time>2026-04-11T14:41:01.925Z</time></trkpt><trkpt lat="44.33719917633606" lon="10.255386059404321"><ele>765.75</ele><time>2026-04-11T14:41:02.925Z</time></trkpt><trkpt lat="44.33729313367828" lon="10.255264332060559"><ele>768.5</ele><time>2026-04-11T14:41:03.925Z</time></trkpt><trkpt lat="44.337377942642306" lon="10.255122439867911"><ele>771.25</ele><time>2026-04-11T14:41:04.925Z</time></trkpt><trkpt lat="44.33743808750683" lon="10.254947565169287"><ele>774.0</ele><time>2026-04-11T14:41:05.925Z</time></trkpt><trkpt lat="44.33748246620838" lon="10.254744302733378"><ele>774.0</ele><time>2026-04-11T14:41:06.925Z</time></trkpt><trkpt lat="44.33751773522535" lon="10.254543774653538"><ele>774.0</ele><time>2026-04-11T14:41:07.925Z</time></trkpt><trkpt lat="44.33753288379116" lon="10.254337253555867"><ele>774.0</ele><time>2026-04-11T14:41:08.925Z</time></trkpt><trkpt lat="44.33752408748394" lon="10.254153666059384"><ele>774.0</ele><time>2026-04-11T14:41:09.925Z</time></trkpt><trkpt lat="44.33749597462202" lon="10.253978536564986"><ele>775.0</ele><time>2026-04-11T14:41:10.925Z</time></trkpt><trkpt lat="44.33743511769063" lon="10.253814488911312"><ele>776.0</ele><time>2026-04-11T14:41:11.925Z</time></trkpt><trkpt lat="44.337345481791026" lon="10.253669956047199"><ele>777.0</ele><time>2026-04-11T14:41:12.925Z</time></trkpt><trkpt lat="44.33723858303069" lon="10.253519885105339"><ele>778.0</ele><time>2026-04-11T14:41:13.925Z</time></trkpt><trkpt lat="44.3371354792017" lon="10.253362155693418"><ele>779.25</ele><time>2026-04-11T14:41:14.925Z</time></trkpt><trkpt lat="44.3370342911608" lon="10.253204149093236"><ele>780.5</ele><time>2026-04-11T14:41:15.925Z</time></trkpt><trkpt lat="44.3369345730158" lon="10.253054439115305"><ele>781.75</ele><time>2026-04-11T14:41:16.925Z</time></trkpt><trkpt lat="44.33683988738094" lon="10.252912871386807"><ele>783.0</ele><time>2026-04-11T14:41:17.925Z</time></trkpt><trkpt lat="44.33675250979689" lon="10.252779172082171"><ele>785.4</ele><time>2026-04-11T14:41:18.925Z</time></trkpt><trkpt lat="44.33666818383028" lon="10.252652662029963"><ele>787.8</ele><time>2026-04-11T14:41:19.925Z</time></trkpt><trkpt lat="44.33659325441391" lon="10.252543832505356"><ele>790.2</ele><time>2026-04-11T14:41:20.925Z</time></trkpt><trkpt lat="44.33653462730168" lon="10.252457323339637"><ele>792.6</ele><time>2026-04-11T14:41:21.925Z</time></trkpt><trkpt lat="44.33647541512938" lon="10.252406607597933"><ele>795.0</ele><time>2026-04-11T14:41:22.925Z</time></trkpt><trkpt lat="44.336403027097" lon="10.252404941277847"><ele>801.5</ele><time>2026-04-11T14:41:23.925Z</time></trkpt><trkpt lat="44.33633763642315" lon="10.252457598942327"><ele>808.0</ele><time>2026-04-11T14:41:24.925Z</time></trkpt><trkpt lat="44.3362744045276" lon="10.252569746159518"><ele>814.5</ele><time>2026-04-11T14:41:25.925Z</time></trkpt><trkpt lat="44.33618920450628" lon="10.252725841853549"><ele>821.0</ele><time>2026-04-11T14:41:26.925Z</time></trkpt><trkpt lat="44.336112050440775" lon="10.252896960319628"><ele>821.0</ele><time>2026-04-11T14:41:27.925Z</time></trkpt><trkpt lat="44.33606183342939" lon="10.253049949850176"><ele>821.0</ele><time>2026-04-11T14:41:28.925Z</time></trkpt><trkpt lat="44.33603691985027" lon="10.25320190714798"><ele>821.0</ele><time>2026-04-11T14:41:29.925Z</time></trkpt><trkpt lat="44.33601576639677" lon="10.253306542167234"><ele>821.0</ele><time>2026-04-11T14:41:30.925Z</time></trkpt><trkpt lat="44.33595403455885" lon="10.253408676515281"><ele>821.0</ele><time>2026-04-11T14:41:32.925Z</time></trkpt><trkpt lat="44.33589329281778" lon="10.253363414829616"><ele>821.0</ele><time>2026-04-11T14:41:33.925Z</time></trkpt><trkpt lat="44.33587604392561" lon="10.253260962031112"><ele>821.0</ele><time>2026-04-11T14:41:34.925Z</time></trkpt><trkpt lat="44.33590674406952" lon="10.253132000915057"><ele>821.0</ele><time>2026-04-11T14:41:35.925Z</time></trkpt><trkpt lat="44.335957352507364" lon="10.25299917547335"><ele>821.0</ele><time>2026-04-11T14:41:36.925Z</time></trkpt><trkpt lat="44.33600700761487" lon="10.25283933418918"><ele>821.0</ele><time>2026-04-11T14:41:37.925Z</time></trkpt><trkpt lat="44.33607931308358" lon="10.252664892306772"><ele>821.0</ele><time>2026-04-11T14:41:38.925Z</time></trkpt><trkpt lat="44.336159310779365" lon="10.252483321197417"><ele>821.0</ele><time>2026-04-11T14:41:39.925Z</time></trkpt><trkpt lat="44.33622543122241" lon="10.252275747686772"><ele>821.0</ele><time>2026-04-11T14:41:40.925Z</time></trkpt><trkpt lat="44.33630896503283" lon="10.252071329070914"><ele>821.0</ele><time>2026-04-11T14:41:41.925Z</time></trkpt><trkpt lat="44.33639988988857" lon="10.25186143157271"><ele>821.0</ele><time>2026-04-11T14:41:42.925Z</time></trkpt><trkpt lat="44.336484021955805" lon="10.251646051286237"><ele>821.0</ele><time>2026-04-11T14:41:43.925Z</time></trkpt><trkpt lat="44.3365515348438" lon="10.251452068107247"><ele>821.0</ele><time>2026-04-11T14:41:44.925Z</time></trkpt><trkpt lat="44.336611291753286" lon="10.251303559689356"><ele>821.0</ele><time>2026-04-11T14:41:45.925Z</time></trkpt><trkpt lat="44.336645535762116" lon="10.25119309196229"><ele>821.0</ele><time>2026-04-11T14:41:46.925Z</time></trkpt><trkpt lat="44.336660971519976" lon="10.251094555059273"><ele>821.0</ele><time>2026-04-11T14:41:47.925Z</time></trkpt><trkpt lat="44.33658531037767" lon="10.250995056878088"><ele>821.0</ele><time>2026-04-11T14:41:49.923Z</time></trkpt><trkpt lat="44.33651309400258" lon="10.251015654256207"><ele>821.0</ele><time>2026-04-11T14:41:50.923Z</time></trkpt><trkpt lat="44.33645532336437" lon="10.251121057315709"><ele>821.0</ele><time>2026-04-11T14:41:51.923Z</time></trkpt><trkpt lat="44.33639656959225" lon="10.251278536728735"><ele>821.0</ele><time>2026-04-11T14:41:52.923Z</time></trkpt><trkpt lat="44.33630955961575" lon="10.251482979441764"><ele>821.0</ele><time>2026-04-11T14:41:53.923Z</time></trkpt><trkpt lat="44.33619765697569" lon="10.25167847187582"><ele>821.0</ele><time>2026-04-11T14:41:54.923Z</time></trkpt><trkpt lat="44.33606933614744" lon="10.251885295255976"><ele>821.0</ele><time>2026-04-11T14:41:55.923Z</time></trkpt><trkpt lat="44.33593945673996" lon="10.252098216812737"><ele>821.0</ele><time>2026-04-11T14:41:56.923Z</time></trkpt><trkpt lat="44.33580070448427" lon="10.25231731997451"><ele>821.0</ele><time>2026-04-11T14:41:57.923Z</time></trkpt><trkpt lat="44.33565083031098" lon="10.252559794062005"><ele>821.0</ele><time>2026-04-11T14:41:58.923Z</time></trkpt><trkpt lat="44.335500278985485" lon="10.252802739443055"><ele>832.5</ele><time>2026-04-11T14:41:59.924Z</time></trkpt><trkpt lat="44.33532699879631" lon="10.253043327480963"><ele>844.0</ele><time>2026-04-11T14:42:00.923Z</time></trkpt><trkpt lat="44.33516726906638" lon="10.25325833167969"><ele>844.0</ele><time>2026-04-11T14:42:01.923Z</time></trkpt><trkpt lat="44.3350184657993" lon="10.253448499023651"><ele>844.0</ele><time>2026-04-11T14:42:02.923Z</time></trkpt><trkpt lat="44.33487466304037" lon="10.253628113087316"><ele>844.0</ele><time>2026-04-11T14:42:03.923Z</time></trkpt><trkpt lat="44.33474268706218" lon="10.253798107906922"><ele>849.0</ele><time>2026-04-11T14:42:04.923Z</time></trkpt><trkpt lat="44.334630111024005" lon="10.253949017974307"><ele>854.0</ele><time>2026-04-11T14:42:05.923Z</time></trkpt><trkpt lat="44.33453358993681" lon="10.254095793010965"><ele>859.0</ele><time>2026-04-11T14:42:06.923Z</time></trkpt><trkpt lat="44.33444721201363" lon="10.254233148565298"><ele>864.0</ele><time>2026-04-11T14:42:07.923Z</time></trkpt><trkpt lat="44.33437780624206" lon="10.254376357468342"><ele>864.0</ele><time>2026-04-11T14:42:08.923Z</time></trkpt><trkpt lat="44.33433542698158" lon="10.254528898737716"><ele>864.0000000000001</ele><time>2026-04-11T14:42:09.923Z</time></trkpt><trkpt lat="44.334318313078626" lon="10.254691000234514"><ele>864.0000000000001</ele><time>2026-04-11T14:42:10.923Z</time></trkpt><trkpt lat="44.33431175325436" lon="10.254846237433608"><ele>864.0</ele><time>2026-04-11T14:42:11.923Z</time></trkpt><trkpt lat="44.334306327913204" lon="10.2549748376207"><ele>864.0</ele><time>2026-04-11T14:42:12.923Z</time></trkpt><trkpt lat="44.33429552392306" lon="10.255068809129996"><ele>864.0</ele><time>2026-04-11T14:42:13.923Z</time></trkpt><trkpt lat="44.334231382481526" lon="10.255133036327946"><ele>864.0000000000001</ele><time>2026-04-11T14:42:15.923Z</time></trkpt><trkpt lat="44.33418020909581" lon="10.254995902466446"><ele>864.0000000000001</ele><time>2026-04-11T14:42:17.923Z</time></trkpt><trkpt lat="44.33419437172853" lon="10.254908014917005"><ele>864.0</ele><time>2026-04-11T14:42:18.923Z</time></trkpt><trkpt lat="44.33421165726412" lon="10.254782830115822"><ele>864.0</ele><time>2026-04-11T14:42:19.923Z</time></trkpt><trkpt lat="44.33423920968082" lon="10.254607010737427"><ele>864.0</ele><time>2026-04-11T14:42:20.923Z</time></trkpt><trkpt lat="44.334268833713" lon="10.254434227279555"><ele>864.0000000000001</ele><time>2026-04-11T14:42:21.923Z</time></trkpt><trkpt lat="44.33430089413249" lon="10.254304496789633"><ele>864.0000000000001</ele><time>2026-04-11T14:42:22.923Z</time></trkpt><trkpt lat="44.33433118343524" lon="10.25421221659613"><ele>864.0</ele><time>2026-04-11T14:42:23.923Z</time></trkpt><trkpt lat="44.33433175953194" lon="10.254088224626683"><ele>864.0</ele><time>2026-04-11T14:42:25.923Z</time></trkpt><trkpt lat="44.33423021860164" lon="10.254098871001903"><ele>864.0</ele><time>2026-04-11T14:42:27.923Z</time></trkpt><trkpt lat="44.334148181698865" lon="10.254154491636166"><ele>864.0</ele><time>2026-04-11T14:42:28.923Z</time></trkpt><trkpt lat="44.3340948173486" lon="10.254266277132233"><ele>864.0</ele><time>2026-04-11T14:42:29.923Z</time></trkpt><trkpt lat="44.334054910338004" lon="10.254450955673098"><ele>864.0</ele><time>2026-04-11T14:42:30.923Z</time></trkpt><trkpt lat="44.33399925258057" lon="10.25465914293749"><ele>859.5</ele><time>2026-04-11T14:42:31.923Z</time></trkpt><trkpt lat="44.33393500192592" lon="10.254846997454003"><ele>855.0</ele><time>2026-04-11T14:42:32.923Z</time></trkpt><trkpt lat="44.33386918753372" lon="10.255005594039208"><ele>850.5</ele><time>2026-04-11T14:42:33.923Z</time></trkpt><trkpt lat="44.33380249494252" lon="10.255142870153668"><ele>846.0</ele><time>2026-04-11T14:42:34.923Z</time></trkpt><trkpt lat="44.333726265120504" lon="10.255260172028647"><ele>851.25</ele><time>2026-04-11T14:42:35.923Z</time></trkpt><trkpt lat="44.33362015762125" lon="10.255346531964259"><ele>856.5</ele><time>2026-04-11T14:42:36.923Z</time></trkpt><trkpt lat="44.333505966317006" lon="10.255421600370555"><ele>861.75</ele><time>2026-04-11T14:42:37.923Z</time></trkpt><trkpt lat="44.33342112244594" lon="10.255522744885166"><ele>867.0</ele><time>2026-04-11T14:42:38.923Z</time></trkpt><trkpt lat="44.333363877396266" lon="10.255680683017431"><ele>867.0</ele><time>2026-04-11T14:42:39.923Z</time></trkpt><trkpt lat="44.33329043775502" lon="10.255836789400806"><ele>867.0</ele><time>2026-04-11T14:42:40.923Z</time></trkpt><trkpt lat="44.333187572396994" lon="10.255988464004329"><ele>867.0</ele><time>2026-04-11T14:42:41.923Z</time></trkpt><trkpt lat="44.33306345016764" lon="10.256110746540044"><ele>867.0</ele><time>2026-04-11T14:42:42.923Z</time></trkpt><trkpt lat="44.33292059268114" lon="10.256237388247285"><ele>872.0</ele><time>2026-04-11T14:42:43.923Z</time></trkpt><trkpt lat="44.33278709267556" lon="10.256401608332043"><ele>877.0</ele><time>2026-04-11T14:42:44.923Z</time></trkpt><trkpt lat="44.332655382689836" lon="10.25657963139739"><ele>882.0</ele><time>2026-04-11T14:42:45.923Z</time></trkpt><trkpt lat="44.332538485898056" lon="10.25673674166171"><ele>882.0</ele><time>2026-04-11T14:42:46.923Z</time></trkpt><trkpt lat="44.3324376460074" lon="10.25686410553236"><ele>882.0</ele><time>2026-04-11T14:42:47.923Z</time></trkpt><trkpt lat="44.332334837178344" lon="10.256965600839623"><ele>882.0</ele><time>2026-04-11T14:42:48.923Z</time></trkpt><trkpt lat="44.33221117608866" lon="10.257023479172931"><ele>882.0</ele><time>2026-04-11T14:42:49.923Z</time></trkpt><trkpt lat="44.332070879980876" lon="10.257038730387613"><ele>885.75</ele><time>2026-04-11T14:42:50.923Z</time></trkpt><trkpt lat="44.331943220083225" lon="10.257057617510497"><ele>889.5</ele><time>2026-04-11T14:42:51.923Z</time></trkpt><trkpt lat="44.33182908696685" lon="10.257075776057098"><ele>893.25</ele><time>2026-04-11T14:42:52.923Z</time></trkpt><trkpt lat="44.33172682705569" lon="10.25705547143632"><ele>897.0</ele><time>2026-04-11T14:42:53.923Z</time></trkpt><trkpt lat="44.33163849461828" lon="10.256977010218282"><ele>897.0</ele><time>2026-04-11T14:42:54.923Z</time></trkpt><trkpt lat="44.33155694007846" lon="10.256856080610456"><ele>897.0</ele><time>2026-04-11T14:42:55.923Z</time></trkpt><trkpt lat="44.33146114539904" lon="10.256720829744973"><ele>897.0</ele><time>2026-04-11T14:42:56.923Z</time></trkpt><trkpt lat="44.331353653954494" lon="10.256598142541796"><ele>897.0</ele><time>2026-04-11T14:42:57.923Z</time></trkpt><trkpt lat="44.33123139179923" lon="10.256494122108524"><ele>903.6666666666667</ele><time>2026-04-11T14:42:58.923Z</time></trkpt><trkpt lat="44.33108812448422" lon="10.256408370946314"><ele>910.3333333333334</ele><time>2026-04-11T14:42:59.923Z</time></trkpt><trkpt lat="44.33093332961328" lon="10.256325883242965"><ele>917.0</ele><time>2026-04-11T14:43:00.923Z</time></trkpt><trkpt lat="44.330779015145374" lon="10.256229558203977"><ele>917.0</ele><time>2026-04-11T14:43:01.923Z</time></trkpt><trkpt lat="44.3306335877582" lon="10.256137081709914"><ele>917.0</ele><time>2026-04-11T14:43:02.923Z</time></trkpt><trkpt lat="44.33050843122878" lon="10.256046759902366"><ele>917.0</ele><time>2026-04-11T14:43:03.923Z</time></trkpt><trkpt lat="44.33041366938308" lon="10.25595651308063"><ele>917.0</ele><time>2026-04-11T14:43:04.923Z</time></trkpt><trkpt lat="44.33035334899602" lon="10.255825999933798"><ele>919.8</ele><time>2026-04-11T14:43:05.923Z</time></trkpt><trkpt lat="44.330327855048864" lon="10.25568321366088"><ele>922.6</ele><time>2026-04-11T14:43:06.923Z</time></trkpt><trkpt lat="44.33031413224649" lon="10.25554179178747"><ele>925.3999999999999</ele><time>2026-04-11T14:43:07.923Z</time></trkpt><trkpt lat="44.33027230899708" lon="10.255422132952187"><ele>928.1999999999999</ele><time>2026-04-11T14:43:08.923Z</time></trkpt><trkpt lat="44.3301827108307" lon="10.255343469901392"><ele>931.0</ele><time>2026-04-11T14:43:09.923Z</time></trkpt><trkpt lat="44.330076063260556" lon="10.255323102775085"><ele>931.0</ele><time>2026-04-11T14:43:10.923Z</time></trkpt><trkpt lat="44.329960218624244" lon="10.255364205403115"><ele>931.0</ele><time>2026-04-11T14:43:11.923Z</time></trkpt><trkpt lat="44.32983276226488" lon="10.255398323830669"><ele>931.0</ele><time>2026-04-11T14:43:12.923Z</time></trkpt><trkpt lat="44.32971434321202" lon="10.255426850029592"><ele>931.0</ele><time>2026-04-11T14:43:13.923Z</time></trkpt><trkpt lat="44.32961273811074" lon="10.255436942297832"><ele>923.8</ele><time>2026-04-11T14:43:14.923Z</time></trkpt><trkpt lat="44.32953544317774" lon="10.25541631232217"><ele>916.5999999999999</ele><time>2026-04-11T14:43:15.923Z</time></trkpt><trkpt lat="44.32947169422962" lon="10.255344032752205"><ele>909.4</ele><time>2026-04-11T14:43:16.923Z</time></trkpt><trkpt lat="44.32944871220019" lon="10.255218847806587"><ele>902.2</ele><time>2026-04-11T14:43:17.923Z</time></trkpt><trkpt lat="44.32947263441849" lon="10.255073564659561"><ele>895.0</ele><time>2026-04-11T14:43:18.923Z</time></trkpt><trkpt lat="44.329493641785746" lon="10.254929584040568"><ele>895.0</ele><time>2026-04-11T14:43:19.923Z</time></trkpt><trkpt lat="44.32950644204389" lon="10.25479190828651"><ele>895.0</ele><time>2026-04-11T14:43:20.923Z</time></trkpt><trkpt lat="44.32950312860553" lon="10.254680668707389"><ele>895.0</ele><time>2026-04-11T14:43:21.923Z</time></trkpt><trkpt lat="44.3294711891148" lon="10.254587398831976"><ele>895.0</ele><time>2026-04-11T14:43:22.923Z</time></trkpt><trkpt lat="44.329392492062524" lon="10.254518337735533"><ele>895.0</ele><time>2026-04-11T14:43:23.923Z</time></trkpt><trkpt lat="44.329286710467045" lon="10.254491540522118"><ele>895.2</ele><time>2026-04-11T14:43:24.923Z</time></trkpt><trkpt lat="44.32918080958928" lon="10.254506140670612"><ele>895.4</ele><time>2026-04-11T14:43:25.923Z</time></trkpt><trkpt lat="44.32909172924008" lon="10.254505265239349"><ele>895.5999999999999</ele><time>2026-04-11T14:43:26.923Z</time></trkpt><trkpt lat="44.32901278175766" lon="10.254435960721201"><ele>895.8</ele><time>2026-04-11T14:43:27.924Z</time></trkpt><trkpt lat="44.32894244570432" lon="10.254313944634607"><ele>896.0</ele><time>2026-04-11T14:43:28.924Z</time></trkpt><trkpt lat="44.32886928529601" lon="10.254187278878138"><ele>896.0</ele><time>2026-04-11T14:43:29.924Z</time></trkpt><trkpt lat="44.328772674310244" lon="10.25410947104898"><ele>895.9999999999999</ele><time>2026-04-11T14:43:30.924Z</time></trkpt><trkpt lat="44.328670659814655" lon="10.254100215768702"><ele>895.9999999999999</ele><time>2026-04-11T14:43:31.924Z</time></trkpt><trkpt lat="44.3285871272899" lon="10.25410072071131"><ele>896.0</ele><time>2026-04-11T14:43:32.924Z</time></trkpt><trkpt lat="44.328522986685186" lon="10.254030203306142"><ele>896.0</ele><time>2026-04-11T14:43:33.924Z</time></trkpt><trkpt lat="44.32849269788441" lon="10.25390135018521"><ele>903.5999999999999</ele><time>2026-04-11T14:43:34.924Z</time></trkpt><trkpt lat="44.328493639746476" lon="10.253758653290372"><ele>911.1999999999999</ele><time>2026-04-11T14:43:35.924Z</time></trkpt><trkpt lat="44.32846676296305" lon="10.253640285540191"><ele>918.8000000000001</ele><time>2026-04-11T14:43:36.924Z</time></trkpt><trkpt lat="44.328396951191785" lon="10.253542963140662"><ele>926.4000000000001</ele><time>2026-04-11T14:43:37.924Z</time></trkpt><trkpt lat="44.32828416235929" lon="10.253493072672377"><ele>934.0</ele><time>2026-04-11T14:43:38.924Z</time></trkpt><trkpt lat="44.32818389177243" lon="10.253479401411404"><ele>934.0</ele><time>2026-04-11T14:43:39.924Z</time></trkpt><trkpt lat="44.32811677428494" lon="10.253415233903832"><ele>934.0</ele><time>2026-04-11T14:43:40.924Z</time></trkpt><trkpt lat="44.32804856471177" lon="10.253291874332026"><ele>934.0</ele><time>2026-04-11T14:43:41.924Z</time></trkpt><trkpt lat="44.32796311401504" lon="10.253146540962673"><ele>934.0</ele><time>2026-04-11T14:43:42.924Z</time></trkpt><trkpt lat="44.32786969645555" lon="10.252995094580122"><ele>930.0</ele><time>2026-04-11T14:43:43.924Z</time></trkpt><trkpt lat="44.32777820816635" lon="10.252855354403131"><ele>926.0000000000001</ele><time>2026-04-11T14:43:44.924Z</time></trkpt><trkpt lat="44.32771821396849" lon="10.25273427130966"><ele>922.0000000000001</ele><time>2026-04-11T14:43:45.924Z</time></trkpt><trkpt lat="44.32770226010153" lon="10.252598881722962"><ele>918.0</ele><time>2026-04-11T14:43:46.924Z</time></trkpt><trkpt lat="44.32772071629781" lon="10.252454136717567"><ele>914.0</ele><time>2026-04-11T14:43:47.924Z</time></trkpt><trkpt lat="44.32771156712902" lon="10.252328459966819"><ele>921.25</ele><time>2026-04-11T14:43:48.924Z</time></trkpt><trkpt lat="44.32764877114752" lon="10.252210529311537"><ele>928.5</ele><time>2026-04-11T14:43:49.924Z</time></trkpt><trkpt lat="44.327557261549806" lon="10.252082407716639"><ele>935.75</ele><time>2026-04-11T14:43:50.924Z</time></trkpt><trkpt lat="44.32743000649442" lon="10.251966839984433"><ele>943.0</ele><time>2026-04-11T14:43:51.924Z</time></trkpt><trkpt lat="44.32727574748294" lon="10.251874319510382"><ele>932.0</ele><time>2026-04-11T14:43:52.924Z</time></trkpt><trkpt lat="44.32713124297605" lon="10.251820125503787"><ele>921.0</ele><time>2026-04-11T14:43:53.924Z</time></trkpt><trkpt lat="44.327006435492464" lon="10.251786483899464"><ele>910.0</ele><time>2026-04-11T14:43:54.923Z</time></trkpt><trkpt lat="44.32691052873791" lon="10.251749235678279"><ele>899.0</ele><time>2026-04-11T14:43:55.923Z</time></trkpt><trkpt lat="44.32683465456718" lon="10.251674472138461"><ele>899.0</ele><time>2026-04-11T14:43:56.923Z</time></trkpt><trkpt lat="44.32679259232142" lon="10.251548086512933"><ele>899.0</ele><time>2026-04-11T14:43:57.923Z</time></trkpt><trkpt lat="44.326772873776655" lon="10.251374456761576"><ele>899.0</ele><time>2026-04-11T14:43:58.923Z</time></trkpt><trkpt lat="44.326737780602016" lon="10.25118144720425"><ele>899.0</ele><time>2026-04-11T14:43:59.923Z</time></trkpt><trkpt lat="44.32666544889379" lon="10.25098253672812"><ele>904.0</ele><time>2026-04-11T14:44:00.923Z</time></trkpt><trkpt lat="44.3265742410574" lon="10.25076972526279"><ele>909.0</ele><time>2026-04-11T14:44:01.923Z</time></trkpt><trkpt lat="44.32648431123847" lon="10.250570186952004"><ele>914.0</ele><time>2026-04-11T14:44:02.923Z</time></trkpt><trkpt lat="44.32641431162237" lon="10.250396762036482"><ele>914.0</ele><time>2026-04-11T14:44:03.923Z</time></trkpt><trkpt lat="44.32636460597904" lon="10.250267799800248"><ele>914.0000000000001</ele><time>2026-04-11T14:44:04.923Z</time></trkpt><trkpt lat="44.326336482222274" lon="10.250155598311933"><ele>914.0000000000001</ele><time>2026-04-11T14:44:05.923Z</time></trkpt><trkpt lat="44.32635416469629" lon="10.250046117974914"><ele>914.0</ele><time>2026-04-11T14:44:06.922Z</time></trkpt><trkpt lat="44.32642670558007" lon="10.24995945414596"><ele>914.0</ele><time>2026-04-11T14:44:07.923Z</time></trkpt><trkpt lat="44.32651756797574" lon="10.249872482926923"><ele>915.4000000000001</ele><time>2026-04-11T14:44:08.923Z</time></trkpt><trkpt lat="44.32658110831663" lon="10.249779386497767"><ele>916.8000000000001</ele><time>2026-04-11T14:44:09.923Z</time></trkpt><trkpt lat="44.32660830444815" lon="10.249650356176659"><ele>918.1999999999999</ele><time>2026-04-11T14:44:10.923Z</time></trkpt><trkpt lat="44.32658609915313" lon="10.249491557227607"><ele>919.5999999999999</ele><time>2026-04-11T14:44:11.923Z</time></trkpt><trkpt lat="44.326521573115805" lon="10.249327260791052"><ele>921.0</ele><time>2026-04-11T14:44:12.923Z</time></trkpt><trkpt lat="44.32643238154565" lon="10.24916447977528"><ele>913.0</ele><time>2026-04-11T14:44:13.923Z</time></trkpt><trkpt lat="44.326330671848034" lon="10.249017440355553"><ele>905.0</ele><time>2026-04-11T14:44:14.923Z</time></trkpt><trkpt lat="44.32623134749549" lon="10.248889804842051"><ele>897.0</ele><time>2026-04-11T14:44:15.923Z</time></trkpt><trkpt lat="44.326155318543314" lon="10.248736769664152"><ele>889.0</ele><time>2026-04-11T14:44:16.923Z</time></trkpt><trkpt lat="44.32610451070125" lon="10.248536798599446"><ele>889.0</ele><time>2026-04-11T14:44:17.923Z</time></trkpt><trkpt lat="44.32605758076691" lon="10.248315717826411"><ele>889.0</ele><time>2026-04-11T14:44:18.923Z</time></trkpt><trkpt lat="44.32600985779447" lon="10.248083119721377"><ele>889.0</ele><time>2026-04-11T14:44:19.923Z</time></trkpt><trkpt lat="44.325962026124294" lon="10.247853375961371"><ele>890.6666666666666</ele><time>2026-04-11T14:44:20.923Z</time></trkpt><trkpt lat="44.325913354220255" lon="10.247644498964801"><ele>892.3333333333333</ele><time>2026-04-11T14:44:21.923Z</time></trkpt><trkpt lat="44.325852318986364" lon="10.247450727496826"><ele>894.0</ele><time>2026-04-11T14:44:22.923Z</time></trkpt><trkpt lat="44.32576828580194" lon="10.247284860444164"><ele>893.3333333333333</ele><time>2026-04-11T14:44:23.923Z</time></trkpt><trkpt lat="44.32565725019479" lon="10.247151681307699"><ele>892.6666666666666</ele><time>2026-04-11T14:44:24.923Z</time></trkpt><trkpt lat="44.32552443907356" lon="10.24701593708454"><ele>892.0</ele><time>2026-04-11T14:44:25.923Z</time></trkpt><trkpt lat="44.32538408822848" lon="10.2468829790894"><ele>892.0</ele><time>2026-04-11T14:44:26.923Z</time></trkpt><trkpt lat="44.325256620518935" lon="10.246756431540316"><ele>892.0</ele><time>2026-04-11T14:44:27.923Z</time></trkpt><trkpt lat="44.32514457825686" lon="10.246645759433726"><ele>892.0</ele><time>2026-04-11T14:44:28.923Z</time></trkpt><trkpt lat="44.32506193315183" lon="10.24654410172693"><ele>892.0</ele><time>2026-04-11T14:44:29.923Z</time></trkpt><trkpt lat="44.32500112385895" lon="10.24642273405367"><ele>893.25</ele><time>2026-04-11T14:44:30.923Z</time></trkpt><trkpt lat="44.324954088389646" lon="10.246267857744243"><ele>894.5</ele><time>2026-04-11T14:44:31.923Z</time></trkpt><trkpt lat="44.324914804254774" lon="10.246077837038536"><ele>895.75</ele><time>2026-04-11T14:44:32.923Z</time></trkpt><trkpt lat="44.32487797123404" lon="10.245862759197642"><ele>897.0</ele><time>2026-04-11T14:44:33.923Z</time></trkpt><trkpt lat="44.324835581876435" lon="10.245637191576746"><ele>900.3333333333333</ele><time>2026-04-11T14:44:34.923Z</time></trkpt><trkpt lat="44.32479382383789" lon="10.245399565965492"><ele>903.6666666666666</ele><time>2026-04-11T14:44:35.923Z</time></trkpt><trkpt lat="44.324744724241434" lon="10.245156142791158"><ele>907.0</ele><time>2026-04-11T14:44:36.924Z</time></trkpt><trkpt lat="44.32469774985893" lon="10.244910023940507"><ele>899.0</ele><time>2026-04-11T14:44:37.924Z</time></trkpt><trkpt lat="44.32464613626227" lon="10.244664747162071"><ele>891.0</ele><time>2026-04-11T14:44:38.924Z</time></trkpt><trkpt lat="44.324600233370546" lon="10.244420227163387"><ele>883.0</ele><time>2026-04-11T14:44:39.924Z</time></trkpt><trkpt lat="44.3245545453351" lon="10.244187237521931"><ele>883.0</ele><time>2026-04-11T14:44:40.924Z</time></trkpt><trkpt lat="44.32450958535416" lon="10.243970531742127"><ele>883.0</ele><time>2026-04-11T14:44:41.924Z</time></trkpt><trkpt lat="44.324436307411936" lon="10.243752181829935"><ele>883.0</ele><time>2026-04-11T14:44:42.924Z</time></trkpt><trkpt lat="44.32434373708751" lon="10.243546641839218"><ele>887.3333333333333</ele><time>2026-04-11T14:44:43.924Z</time></trkpt><trkpt lat="44.32422999054673" lon="10.243328756943741"><ele>891.6666666666667</ele><time>2026-04-11T14:44:44.924Z</time></trkpt><trkpt lat="44.32410224817238" lon="10.243101245678634"><ele>896.0</ele><time>2026-04-11T14:44:45.924Z</time></trkpt><trkpt lat="44.32396877431873" lon="10.24287154560994"><ele>897.0</ele><time>2026-04-11T14:44:46.924Z</time></trkpt><trkpt lat="44.32382768151761" lon="10.24263661569797"><ele>898.0</ele><time>2026-04-11T14:44:47.924Z</time></trkpt><trkpt lat="44.323685330462695" lon="10.242424451123503"><ele>899.0</ele><time>2026-04-11T14:44:48.924Z</time></trkpt><trkpt lat="44.32354184749529" lon="10.242240238520687"><ele>899.0</ele><time>2026-04-11T14:44:49.924Z</time></trkpt><trkpt lat="44.32341203975029" lon="10.242060443567986"><ele>899.0</ele><time>2026-04-11T14:44:50.924Z</time></trkpt><trkpt lat="44.323308662174306" lon="10.241854891606984"><ele>899.0</ele><time>2026-04-11T14:44:51.924Z</time></trkpt><trkpt lat="44.323221341800235" lon="10.241619581562002"><ele>900.3333333333334</ele><time>2026-04-11T14:44:52.924Z</time></trkpt><trkpt lat="44.32314022864784" lon="10.241363102236738"><ele>901.6666666666667</ele><time>2026-04-11T14:44:53.924Z</time></trkpt><trkpt lat="44.32305388613326" lon="10.241104672279924"><ele>903.0</ele><time>2026-04-11T14:44:54.924Z</time></trkpt><trkpt lat="44.32296713805226" lon="10.2408569829311"><ele>903.0</ele><time>2026-04-11T14:44:55.924Z</time></trkpt><trkpt lat="44.32289909184828" lon="10.24063761442731"><ele>903.0</ele><time>2026-04-11T14:44:56.924Z</time></trkpt><trkpt lat="44.322835333596096" lon="10.240434697341847"><ele>903.0</ele><time>2026-04-11T14:44:57.924Z</time></trkpt><trkpt lat="44.322776255798246" lon="10.240250643005032"><ele>906.0</ele><time>2026-04-11T14:44:58.924Z</time></trkpt><trkpt lat="44.32272069146769" lon="10.240103740211623"><ele>909.0</ele><time>2026-04-11T14:44:59.924Z</time></trkpt><trkpt lat="44.32265277561069" lon="10.24000340007359"><ele>912.0</ele><time>2026-04-11T14:45:00.924Z</time></trkpt><trkpt lat="44.32256052988645" lon="10.239947590887002"><ele>915.0</ele><time>2026-04-11T14:45:01.924Z</time></trkpt><trkpt lat="44.322451771312245" lon="10.23994003245516"><ele>918.0</ele><time>2026-04-11T14:45:02.924Z</time></trkpt><trkpt lat="44.32235457058944" lon="10.239935248810996"><ele>918.0</ele><time>2026-04-11T14:45:03.924Z</time></trkpt><trkpt lat="44.32226243504122" lon="10.239873186418874"><ele>918.0</ele><time>2026-04-11T14:45:04.924Z</time></trkpt><trkpt lat="44.32219772156927" lon="10.239752138378364"><ele>918.0</ele><time>2026-04-11T14:45:05.924Z</time></trkpt><trkpt lat="44.32214455167679" lon="10.239625120265593"><ele>918.0</ele><time>2026-04-11T14:45:06.924Z</time></trkpt><trkpt lat="44.322089411464034" lon="10.239525573343906"><ele>918.0</ele><time>2026-04-11T14:45:07.924Z</time></trkpt><trkpt lat="44.32201617856468" lon="10.239463776670128"><ele>922.0</ele><time>2026-04-11T14:45:08.924Z</time></trkpt><trkpt lat="44.32192246200725" lon="10.239466037527558"><ele>926.0</ele><time>2026-04-11T14:45:09.924Z</time></trkpt><trkpt lat="44.32183714978399" lon="10.239521058556202"><ele>930.0</ele><time>2026-04-11T14:45:10.924Z</time></trkpt><trkpt lat="44.321760487671455" lon="10.239613709870566"><ele>934.0</ele><time>2026-04-11T14:45:11.924Z</time></trkpt><trkpt lat="44.32168315071015" lon="10.239706409117218"><ele>938.0</ele><time>2026-04-11T14:45:12.924Z</time></trkpt><trkpt lat="44.32157936838334" lon="10.239724333653824"><ele>938.0</ele><time>2026-04-11T14:45:13.924Z</time></trkpt><trkpt lat="44.321456842241595" lon="10.239684560185296"><ele>938.0</ele><time>2026-04-11T14:45:14.924Z</time></trkpt><trkpt lat="44.321322342226104" lon="10.239630770055282"><ele>938.0</ele><time>2026-04-11T14:45:15.924Z</time></trkpt><trkpt lat="44.321178657582095" lon="10.239599274052914"><ele>938.0</ele><time>2026-04-11T14:45:16.924Z</time></trkpt><trkpt lat="44.32102541172831" lon="10.239554870071963"><ele>938.0</ele><time>2026-04-11T14:45:17.924Z</time></trkpt><trkpt lat="44.32086858721195" lon="10.239475292010942"><ele>938.0</ele><time>2026-04-11T14:45:18.924Z</time></trkpt><trkpt lat="44.32072562232264" lon="10.239385238408095"><ele>938.0</ele><time>2026-04-11T14:45:19.924Z</time></trkpt><trkpt lat="44.32060972330917" lon="10.239297329050505"><ele>939.0</ele><time>2026-04-11T14:45:20.924Z</time></trkpt><trkpt lat="44.320505455970064" lon="10.23920720837229"><ele>940.0</ele><time>2026-04-11T14:45:21.924Z</time></trkpt><trkpt lat="44.32040357876219" lon="10.239085629061409"><ele>941.0</ele><time>2026-04-11T14:45:22.924Z</time></trkpt><trkpt lat="44.320312735491044" lon="10.23893284383499"><ele>942.0</ele><time>2026-04-11T14:45:23.924Z</time></trkpt><trkpt lat="44.320201553378496" lon="10.238784958143599"><ele>942.0</ele><time>2026-04-11T14:45:24.924Z</time></trkpt><trkpt lat="44.32005980690463" lon="10.238660760492188"><ele>942.0</ele><time>2026-04-11T14:45:25.924Z</time></trkpt><trkpt lat="44.31990021569413" lon="10.238543617266421"><ele>942.0</ele><time>2026-04-11T14:45:26.924Z</time></trkpt><trkpt lat="44.319730740991695" lon="10.238420828328788"><ele>940.3333333333333</ele><time>2026-04-11T14:45:27.924Z</time></trkpt><trkpt lat="44.31956135999843" lon="10.238308646089374"><ele>938.6666666666666</ele><time>2026-04-11T14:45:28.924Z</time></trkpt><trkpt lat="44.31940709530436" lon="10.238226030988933"><ele>937.0</ele><time>2026-04-11T14:45:29.924Z</time></trkpt><trkpt lat="44.319256582707595" lon="10.238143294967973"><ele>940.3333333333333</ele><time>2026-04-11T14:45:30.924Z</time></trkpt><trkpt lat="44.31909401111726" lon="10.23807022089726"><ele>943.6666666666667</ele><time>2026-04-11T14:45:31.924Z</time></trkpt><trkpt lat="44.31890522775334" lon="10.238047827434682"><ele>947.0</ele><time>2026-04-11T14:45:32.924Z</time></trkpt><trkpt lat="44.31871942112355" lon="10.238039015760684"><ele>947.0</ele><time>2026-04-11T14:45:33.924Z</time></trkpt><trkpt lat="44.3185457543191" lon="10.23803475025584"><ele>947.0</ele><time>2026-04-11T14:45:34.924Z</time></trkpt><trkpt lat="44.318416775160756" lon="10.238033924119714"><ele>947.0</ele><time>2026-04-11T14:45:35.924Z</time></trkpt><trkpt lat="44.31829812161589" lon="10.2380661829601"><ele>947.0</ele><time>2026-04-11T14:45:36.924Z</time></trkpt><trkpt lat="44.318194999087666" lon="10.238133936043827"><ele>944.8</ele><time>2026-04-11T14:45:37.924Z</time></trkpt><trkpt lat="44.318097326666226" lon="10.238270195269171"><ele>942.6</ele><time>2026-04-11T14:45:38.924Z</time></trkpt><trkpt lat="44.31799815119589" lon="10.238380731237946"><ele>940.3999999999999</ele><time>2026-04-11T14:45:39.924Z</time></trkpt><trkpt lat="44.317911728916606" lon="10.238419993270528"><ele>938.1999999999999</ele><time>2026-04-11T14:45:40.924Z</time></trkpt><trkpt lat="44.31783341334825" lon="10.238389082324161"><ele>936.0</ele><time>2026-04-11T14:45:41.924Z</time></trkpt><trkpt lat="44.317744021339664" lon="10.23830542627129"><ele>939.5</ele><time>2026-04-11T14:45:42.924Z</time></trkpt><trkpt lat="44.31764767697752" lon="10.238202247288791"><ele>943.0</ele><time>2026-04-11T14:45:43.924Z</time></trkpt><trkpt lat="44.3175593894358" lon="10.238095887626327"><ele>946.5</ele><time>2026-04-11T14:45:44.924Z</time></trkpt><trkpt lat="44.317484245686764" lon="10.23794545668651"><ele>950.0</ele><time>2026-04-11T14:45:45.924Z</time></trkpt><trkpt lat="44.31744754754332" lon="10.237741934801962"><ele>950.0</ele><time>2026-04-11T14:45:46.924Z</time></trkpt><trkpt lat="44.317410268880955" lon="10.237538528075877"><ele>950.0</ele><time>2026-04-11T14:45:47.924Z</time></trkpt><trkpt lat="44.31738789102338" lon="10.237338705384492"><ele>950.0</ele><time>2026-04-11T14:45:48.924Z</time></trkpt><trkpt lat="44.31734809227421" lon="10.23715282155107"><ele>950.0</ele><time>2026-04-11T14:45:49.924Z</time></trkpt><trkpt lat="44.317287663693676" lon="10.236996658479375"><ele>953.5</ele><time>2026-04-11T14:45:50.924Z</time></trkpt><trkpt lat="44.317205376426415" lon="10.236848283223045"><ele>957.0</ele><time>2026-04-11T14:45:51.924Z</time></trkpt><trkpt lat="44.3171048672035" lon="10.236736606151817"><ele>960.5</ele><time>2026-04-11T14:45:52.924Z</time></trkpt><trkpt lat="44.31697275144929" lon="10.236682672032613"><ele>964.0</ele><time>2026-04-11T14:45:53.924Z</time></trkpt><trkpt lat="44.31684347084003" lon="10.23667563263863"><ele>964.0</ele><time>2026-04-11T14:45:54.924Z</time></trkpt><trkpt lat="44.316718332453945" lon="10.236680167493255"><ele>964.0</ele><time>2026-04-11T14:45:55.924Z</time></trkpt><trkpt lat="44.31659751408243" lon="10.23670846256988"><ele>964.0</ele><time>2026-04-11T14:45:56.924Z</time></trkpt><trkpt lat="44.316456887029126" lon="10.236702423219006"><ele>964.0</ele><time>2026-04-11T14:45:57.924Z</time></trkpt><trkpt lat="44.31632867584597" lon="10.236658597442487"><ele>966.0</ele><time>2026-04-11T14:45:58.924Z</time></trkpt><trkpt lat="44.316203889643134" lon="10.236589930347979"><ele>968.0</ele><time>2026-04-11T14:45:59.924Z</time></trkpt><trkpt lat="44.316076794346316" lon="10.2364987074292"><ele>970.0</ele><time>2026-04-11T14:46:00.922Z</time></trkpt><trkpt lat="44.31596679278684" lon="10.23635048169197"><ele>972.0</ele><time>2026-04-11T14:46:01.923Z</time></trkpt><trkpt lat="44.3158598150468" lon="10.236207968457839"><ele>972.0</ele><time>2026-04-11T14:46:02.923Z</time></trkpt><trkpt lat="44.315777304129654" lon="10.236073662876889"><ele>972.0</ele><time>2026-04-11T14:46:03.922Z</time></trkpt><trkpt lat="44.315720484079655" lon="10.235957442405462"><ele>972.0</ele><time>2026-04-11T14:46:04.923Z</time></trkpt><trkpt lat="44.31567658653362" lon="10.235883488563054"><ele>972.0</ele><time>2026-04-11T14:46:05.923Z</time></trkpt><trkpt lat="44.315588760677805" lon="10.235855880809206"><ele>972.0</ele><time>2026-04-11T14:46:07.923Z</time></trkpt><trkpt lat="44.31557026382371" lon="10.23594887834532"><ele>972.0</ele><time>2026-04-11T14:46:09.923Z</time></trkpt><trkpt lat="44.31563052701325" lon="10.236048231695541"><ele>972.0</ele><time>2026-04-11T14:46:10.923Z</time></trkpt><trkpt lat="44.31570307027775" lon="10.236145770261349"><ele>972.0</ele><time>2026-04-11T14:46:11.923Z</time></trkpt><trkpt lat="44.31578416997649" lon="10.236239616068632"><ele>972.0</ele><time>2026-04-11T14:46:12.923Z</time></trkpt><trkpt lat="44.31586510516594" lon="10.236381289162837"><ele>972.0</ele><time>2026-04-11T14:46:13.922Z</time></trkpt><trkpt lat="44.31593061484539" lon="10.236549109291659"><ele>977.6666666666667</ele><time>2026-04-11T14:46:14.922Z</time></trkpt><trkpt lat="44.315982963942496" lon="10.23674980956683"><ele>983.3333333333334</ele><time>2026-04-11T14:46:15.922Z</time></trkpt><trkpt lat="44.31604376541968" lon="10.236960627684955"><ele>989.0</ele><time>2026-04-11T14:46:16.922Z</time></trkpt><trkpt lat="44.31609795375894" lon="10.237184211810403"><ele>993.25</ele><time>2026-04-11T14:46:17.922Z</time></trkpt><trkpt lat="44.31614166844231" lon="10.237398121489788"><ele>997.5</ele><time>2026-04-11T14:46:18.922Z</time></trkpt><trkpt lat="44.31618517140998" lon="10.237585744719041"><ele>1001.75</ele><time>2026-04-11T14:46:19.922Z</time></trkpt><trkpt lat="44.31621921413069" lon="10.23777683502411"><ele>1006.0</ele><time>2026-04-11T14:46:20.922Z</time></trkpt><trkpt lat="44.31627539932693" lon="10.237954120231333"><ele>1006.0</ele><time>2026-04-11T14:46:21.922Z</time></trkpt><trkpt lat="44.31633509377565" lon="10.238107675906756"><ele>1005.9999999999999</ele><time>2026-04-11T14:46:22.922Z</time></trkpt><trkpt lat="44.31639445743185" lon="10.238233457436849"><ele>1005.9999999999999</ele><time>2026-04-11T14:46:23.922Z</time></trkpt><trkpt lat="44.31644288339876" lon="10.238326256991273"><ele>1006.0</ele><time>2026-04-11T14:46:24.922Z</time></trkpt><trkpt lat="44.31645770635922" lon="10.238450372411247"><ele>1006.0</ele><time>2026-04-11T14:46:26.922Z</time></trkpt><trkpt lat="44.316376017284554" lon="10.238465626400947"><ele>1006.0</ele><time>2026-04-11T14:46:28.923Z</time></trkpt><trkpt lat="44.316342441435296" lon="10.238270359161843"><ele>1006.0</ele><time>2026-04-11T14:46:30.923Z</time></trkpt><trkpt lat="44.316294377740206" lon="10.238143531839887"><ele>1006.0</ele><time>2026-04-11T14:46:31.923Z</time></trkpt><trkpt lat="44.316229911620965" lon="10.237995042863595"><ele>1006.0</ele><time>2026-04-11T14:46:32.923Z</time></trkpt><trkpt lat="44.316159484979096" lon="10.237826970577677"><ele>1006.0</ele><time>2026-04-11T14:46:33.923Z</time></trkpt><trkpt lat="44.31606862432615" lon="10.237666204588935"><ele>1006.0</ele><time>2026-04-11T14:46:34.923Z</time></trkpt><trkpt lat="44.31593748921808" lon="10.23751050604316"><ele>1006.0</ele><time>2026-04-11T14:46:35.923Z</time></trkpt><trkpt lat="44.315794092734656" lon="10.237369702203088"><ele>1000.3333333333333</ele><time>2026-04-11T14:46:36.923Z</time></trkpt><trkpt lat="44.315661793107694" lon="10.237236507872666"><ele>994.6666666666667</ele><time>2026-04-11T14:46:37.923Z</time></trkpt><trkpt lat="44.315531126714696" lon="10.237117913640677"><ele>989.0</ele><time>2026-04-11T14:46:38.923Z</time></trkpt><trkpt lat="44.31541518342625" lon="10.236988143095944"><ele>993.75</ele><time>2026-04-11T14:46:39.923Z</time></trkpt><trkpt lat="44.31531554905285" lon="10.236835214181001"><ele>998.5</ele><time>2026-04-11T14:46:40.923Z</time></trkpt><trkpt lat="44.31522908238549" lon="10.236677524689263"><ele>1003.25</ele><time>2026-04-11T14:46:41.923Z</time></trkpt><trkpt lat="44.31514664501183" lon="10.236518114419466"><ele>1008.0</ele><time>2026-04-11T14:46:42.923Z</time></trkpt><trkpt lat="44.31506232061308" lon="10.236368709180146"><ele>1008.0</ele><time>2026-04-11T14:46:43.923Z</time></trkpt><trkpt lat="44.314981625012265" lon="10.23621598171314"><ele>1008.0</ele><time>2026-04-11T14:46:44.923Z</time></trkpt><trkpt lat="44.314907914367325" lon="10.236073229120528"><ele>1008.0</ele><time>2026-04-11T14:46:45.923Z</time></trkpt><trkpt lat="44.314820213103445" lon="10.235918382926247"><ele>1008.0</ele><time>2026-04-11T14:46:46.923Z</time></trkpt><trkpt lat="44.31471989574761" lon="10.235763668166827"><ele>1014.3333333333333</ele><time>2026-04-11T14:46:47.923Z</time></trkpt><trkpt lat="44.314614554168884" lon="10.23560537695097"><ele>1020.6666666666666</ele><time>2026-04-11T14:46:48.923Z</time></trkpt><trkpt lat="44.314513996966646" lon="10.235433023339418"><ele>1027.0</ele><time>2026-04-11T14:46:49.923Z</time></trkpt><trkpt lat="44.31441845260201" lon="10.235278778791386"><ele>1027.0</ele><time>2026-04-11T14:46:50.923Z</time></trkpt><trkpt lat="44.314337770222046" lon="10.235145201168818"><ele>1027.0</ele><time>2026-04-11T14:46:51.923Z</time></trkpt><trkpt lat="44.31427688071057" lon="10.235036048360326"><ele>1027.0</ele><time>2026-04-11T14:46:52.923Z</time></trkpt><trkpt lat="44.314224592921505" lon="10.234946791350298"><ele>1027.0</ele><time>2026-04-11T14:46:53.923Z</time></trkpt><trkpt lat="44.314161245663755" lon="10.23489596479891"><ele>1027.0</ele><time>2026-04-11T14:46:54.923Z</time></trkpt><trkpt lat="44.314092081221084" lon="10.234908817783294"><ele>1027.0</ele><time>2026-04-11T14:46:55.923Z</time></trkpt><trkpt lat="44.31406207899808" lon="10.235077046534643"><ele>1027.0</ele><time>2026-04-11T14:46:57.923Z</time></trkpt><trkpt lat="44.31409394869927" lon="10.235204633284685"><ele>1027.0</ele><time>2026-04-11T14:46:58.923Z</time></trkpt><trkpt lat="44.31415350582073" lon="10.235366340418318"><ele>1027.0</ele><time>2026-04-11T14:46:59.923Z</time></trkpt><trkpt lat="44.31420424070977" lon="10.235550205348126"><ele>1027.0</ele><time>2026-04-11T14:47:00.923Z</time></trkpt><trkpt lat="44.31426018719501" lon="10.235751743832818"><ele>1031.0</ele><time>2026-04-11T14:47:01.923Z</time></trkpt><trkpt lat="44.31431883455352" lon="10.23597623825167"><ele>1035.0</ele><time>2026-04-11T14:47:02.923Z</time></trkpt><trkpt lat="44.31436715699095" lon="10.236193735727213"><ele>1039.0</ele><time>2026-04-11T14:47:03.923Z</time></trkpt><trkpt lat="44.31439604561038" lon="10.23640830688524"><ele>1041.6000000000001</ele><time>2026-04-11T14:47:04.923Z</time></trkpt><trkpt lat="44.31441108377846" lon="10.236593942236764"><ele>1044.2</ele><time>2026-04-11T14:47:05.923Z</time></trkpt><trkpt lat="44.31440883628218" lon="10.236748024534819"><ele>1046.8000000000002</ele><time>2026-04-11T14:47:06.923Z</time></trkpt><trkpt lat="44.31440220490803" lon="10.23686537401871"><ele>1049.4</ele><time>2026-04-11T14:47:07.923Z</time></trkpt><trkpt lat="44.314361901046546" lon="10.236941678422419"><ele>1052.0</ele><time>2026-04-11T14:47:09.923Z</time></trkpt><trkpt lat="44.31429021904076" lon="10.23685992050437"><ele>1052.0</ele><time>2026-04-11T14:47:11.923Z</time></trkpt><trkpt lat="44.314302189720394" lon="10.236745897602429"><ele>1052.0</ele><time>2026-04-11T14:47:12.923Z</time></trkpt><trkpt lat="44.31431386599107" lon="10.236633144456839"><ele>1052.0</ele><time>2026-04-11T14:47:13.923Z</time></trkpt><trkpt lat="44.31430303165327" lon="10.236511218141603"><ele>1052.0</ele><time>2026-04-11T14:47:14.923Z</time></trkpt><trkpt lat="44.31426228800473" lon="10.236390408367862"><ele>1052.0</ele><time>2026-04-11T14:47:15.923Z</time></trkpt><trkpt lat="44.314186141027506" lon="10.236256026905112"><ele>1048.75</ele><time>2026-04-11T14:47:16.923Z</time></trkpt><trkpt lat="44.31409305257133" lon="10.236134287927545"><ele>1045.5</ele><time>2026-04-11T14:47:17.923Z</time></trkpt><trkpt lat="44.31398388967868" lon="10.235991067346236"><ele>1042.25</ele><time>2026-04-11T14:47:18.923Z</time></trkpt><trkpt lat="44.31388046108152" lon="10.235858619696"><ele>1039.0</ele><time>2026-04-11T14:47:19.923Z</time></trkpt><trkpt lat="44.31379525978505" lon="10.235736742968722"><ele>1046.25</ele><time>2026-04-11T14:47:20.923Z</time></trkpt><trkpt lat="44.313736546989524" lon="10.235591164756087"><ele>1053.5</ele><time>2026-04-11T14:47:21.923Z</time></trkpt><trkpt lat="44.313704978935746" lon="10.235421967707444"><ele>1060.75</ele><time>2026-04-11T14:47:22.923Z</time></trkpt><trkpt lat="44.31366088609691" lon="10.235243790486836"><ele>1068.0</ele><time>2026-04-11T14:47:23.923Z</time></trkpt><trkpt lat="44.313597765291" lon="10.235071510942984"><ele>1068.0</ele><time>2026-04-11T14:47:24.923Z</time></trkpt><trkpt lat="44.31353104340785" lon="10.234905459682652"><ele>1068.0</ele><time>2026-04-11T14:47:25.923Z</time></trkpt><trkpt lat="44.31345767264263" lon="10.23475166062617"><ele>1068.0</ele><time>2026-04-11T14:47:26.923Z</time></trkpt><trkpt lat="44.31339427475622" lon="10.234625524769042"><ele>1068.0</ele><time>2026-04-11T14:47:27.923Z</time></trkpt><trkpt lat="44.313323578842294" lon="10.234524579744962"><ele>1066.0</ele><time>2026-04-11T14:47:28.923Z</time></trkpt><trkpt lat="44.313232545086684" lon="10.234444280569711"><ele>1064.0</ele><time>2026-04-11T14:47:29.923Z</time></trkpt><trkpt lat="44.31311944660575" lon="10.234393977636707"><ele>1062.0</ele><time>2026-04-11T14:47:30.923Z</time></trkpt><trkpt lat="44.313018118829824" lon="10.234351657414523"><ele>1060.0</ele><time>2026-04-11T14:47:31.923Z</time></trkpt><trkpt lat="44.31294197990307" lon="10.234316194328796"><ele>1058.0</ele><time>2026-04-11T14:47:32.923Z</time></trkpt><trkpt lat="44.312888108283445" lon="10.234264623202506"><ele>1058.4</ele><time>2026-04-11T14:47:33.923Z</time></trkpt><trkpt lat="44.312882002384136" lon="10.234103243462053"><ele>1058.8</ele><time>2026-04-11T14:47:35.923Z</time></trkpt><trkpt lat="44.312946933867636" lon="10.234005426311462"><ele>1059.2</ele><time>2026-04-11T14:47:36.923Z</time></trkpt><trkpt lat="44.313028921765444" lon="10.233944757749592"><ele>1059.6</ele><time>2026-04-11T14:47:37.923Z</time></trkpt><trkpt lat="44.313098609434" lon="10.233864342389532"><ele>1060.0</ele><time>2026-04-11T14:47:38.923Z</time></trkpt><trkpt lat="44.31315929062973" lon="10.23375521648942"><ele>1060.0</ele><time>2026-04-11T14:47:39.923Z</time></trkpt><trkpt lat="44.313192888451105" lon="10.23362062755615"><ele>1060.0</ele><time>2026-04-11T14:47:40.923Z</time></trkpt><trkpt lat="44.3131755886926" lon="10.233490307024862"><ele>1060.0</ele><time>2026-04-11T14:47:41.923Z</time></trkpt><trkpt lat="44.31312453312496" lon="10.233358330669722"><ele>1060.0</ele><time>2026-04-11T14:47:42.923Z</time></trkpt><trkpt lat="44.31303246427073" lon="10.233208749778825"><ele>1060.0</ele><time>2026-04-11T14:47:43.923Z</time></trkpt><trkpt lat="44.312927885236405" lon="10.233051890148698"><ele>1067.6666666666665</ele><time>2026-04-11T14:47:44.923Z</time></trkpt><trkpt lat="44.31281786138417" lon="10.232892633004967"><ele>1075.3333333333333</ele><time>2026-04-11T14:47:45.923Z</time></trkpt><trkpt lat="44.31269921958028" lon="10.232727045247003"><ele>1083.0</ele><time>2026-04-11T14:47:46.923Z</time></trkpt><trkpt lat="44.31257753428037" lon="10.232551351753134"><ele>1083.0</ele><time>2026-04-11T14:47:47.923Z</time></trkpt><trkpt lat="44.312460046462384" lon="10.232355038238726"><ele>1083.0</ele><time>2026-04-11T14:47:48.923Z</time></trkpt><trkpt lat="44.31235555272004" lon="10.232150406821447"><ele>1083.0</ele><time>2026-04-11T14:47:49.923Z</time></trkpt><trkpt lat="44.31225570987183" lon="10.231973079117163"><ele>1085.25</ele><time>2026-04-11T14:47:50.923Z</time></trkpt><trkpt lat="44.31216590554519" lon="10.23182536687533"><ele>1087.5</ele><time>2026-04-11T14:47:51.923Z</time></trkpt><trkpt lat="44.31208368371526" lon="10.231703326296417"><ele>1089.75</ele><time>2026-04-11T14:47:52.923Z</time></trkpt><trkpt lat="44.311977035019694" lon="10.231607573900657"><ele>1092.0</ele><time>2026-04-11T14:47:53.923Z</time></trkpt><trkpt lat="44.311844391607316" lon="10.231541313713302"><ele>1092.0</ele><time>2026-04-11T14:47:54.923Z</time></trkpt><trkpt lat="44.31169177087432" lon="10.231488101423881"><ele>1092.0</ele><time>2026-04-11T14:47:55.923Z</time></trkpt><trkpt lat="44.311534107580975" lon="10.23145463680152"><ele>1092.0</ele><time>2026-04-11T14:47:56.923Z</time></trkpt><trkpt lat="44.311389382532994" lon="10.231392984229421"><ele>1095.6666666666667</ele><time>2026-04-11T14:47:57.923Z</time></trkpt><trkpt lat="44.31126061818535" lon="10.231279566569741"><ele>1099.3333333333335</ele><time>2026-04-11T14:47:58.923Z</time></trkpt><trkpt lat="44.3111488160419" lon="10.231122975625015"><ele>1103.0</ele><time>2026-04-11T14:47:59.923Z</time></trkpt><trkpt lat="44.311048276115024" lon="10.230950022220565"><ele>1103.0</ele><time>2026-04-11T14:48:00.923Z</time></trkpt><trkpt lat="44.310965756435806" lon="10.230792047070187"><ele>1103.0</ele><time>2026-04-11T14:48:01.923Z</time></trkpt><trkpt lat="44.310896395343214" lon="10.230659207228037"><ele>1103.0</ele><time>2026-04-11T14:48:02.923Z</time></trkpt><trkpt lat="44.31081139917541" lon="10.230563629275693"><ele>1103.0</ele><time>2026-04-11T14:48:03.924Z</time></trkpt><trkpt lat="44.31070624456987" lon="10.230495793593892"><ele>1102.5</ele><time>2026-04-11T14:48:04.924Z</time></trkpt><trkpt lat="44.310603031620865" lon="10.230456532673935"><ele>1102.0</ele><time>2026-04-11T14:48:05.924Z</time></trkpt><trkpt lat="44.31050426911643" lon="10.230442906306338"><ele>1101.5</ele><time>2026-04-11T14:48:06.922Z</time></trkpt><trkpt lat="44.31044219834612" lon="10.230414799345725"><ele>1101.0</ele><time>2026-04-11T14:48:07.922Z</time></trkpt><trkpt lat="44.31042020637226" lon="10.230330645050092"><ele>1100.5</ele><time>2026-04-11T14:48:08.922Z</time></trkpt><trkpt lat="44.31042417833975" lon="10.230208091511614"><ele>1100.0</ele><time>2026-04-11T14:48:09.922Z</time></trkpt><trkpt lat="44.3104921622455" lon="10.23010145702747"><ele>1100.0</ele><time>2026-04-11T14:48:10.922Z</time></trkpt><trkpt lat="44.3105874488463" lon="10.230014169098471"><ele>1100.0</ele><time>2026-04-11T14:48:11.922Z</time></trkpt><trkpt lat="44.31069207224281" lon="10.229896006449911"><ele>1100.0</ele><time>2026-04-11T14:48:12.922Z</time></trkpt><trkpt lat="44.31080668238672" lon="10.229752079568458"><ele>1100.0</ele><time>2026-04-11T14:48:13.923Z</time></trkpt><trkpt lat="44.31091898231055" lon="10.229627539519289"><ele>1105.5</ele><time>2026-04-11T14:48:14.923Z</time></trkpt><trkpt lat="44.31104023343749" lon="10.22953128425154"><ele>1111.0</ele><time>2026-04-11T14:48:15.922Z</time></trkpt><trkpt lat="44.31116335465702" lon="10.229472497379522"><ele>1116.5</ele><time>2026-04-11T14:48:16.922Z</time></trkpt><trkpt lat="44.31128161693905" lon="10.229431166757122"><ele>1122.0</ele><time>2026-04-11T14:48:17.922Z</time></trkpt><trkpt lat="44.31139476352632" lon="10.22936276620801"><ele>1120.0</ele><time>2026-04-11T14:48:18.922Z</time></trkpt><trkpt lat="44.31149025841125" lon="10.229236021471964"><ele>1118.0</ele><time>2026-04-11T14:48:19.923Z</time></trkpt><trkpt lat="44.31156670276852" lon="10.229059492428606"><ele>1116.0</ele><time>2026-04-11T14:48:20.923Z</time></trkpt><trkpt lat="44.31162222332489" lon="10.228896077015063"><ele>1114.0</ele><time>2026-04-11T14:48:21.923Z</time></trkpt><trkpt lat="44.31167804747182" lon="10.22874682477588"><ele>1114.0</ele><time>2026-04-11T14:48:22.923Z</time></trkpt><trkpt lat="44.311720021790904" lon="10.228623817363578"><ele>1114.0</ele><time>2026-04-11T14:48:23.923Z</time></trkpt><trkpt lat="44.31175211124505" lon="10.22850651066774"><ele>1114.0</ele><time>2026-04-11T14:48:24.923Z</time></trkpt><trkpt lat="44.311760401227296" lon="10.228374497978729"><ele>1114.0</ele><time>2026-04-11T14:48:25.923Z</time></trkpt><trkpt lat="44.31173090869107" lon="10.228215939212093"><ele>1114.0</ele><time>2026-04-11T14:48:26.923Z</time></trkpt><trkpt lat="44.311684790850265" lon="10.228034994953765"><ele>1114.0</ele><time>2026-04-11T14:48:27.923Z</time></trkpt><trkpt lat="44.31162965374265" lon="10.227862893485009"><ele>1114.0</ele><time>2026-04-11T14:48:28.923Z</time></trkpt><trkpt lat="44.311557693077155" lon="10.227707170656338"><ele>1114.0</ele><time>2026-04-11T14:48:29.923Z</time></trkpt><trkpt lat="44.311468286252506" lon="10.227566538143199"><ele>1114.0</ele><time>2026-04-11T14:48:30.923Z</time></trkpt><trkpt lat="44.311357447700686" lon="10.227442696057393"><ele>1116.25</ele><time>2026-04-11T14:48:31.923Z</time></trkpt><trkpt lat="44.31123328750386" lon="10.227331824203029"><ele>1118.5</ele><time>2026-04-11T14:48:32.923Z</time></trkpt><trkpt lat="44.311116382127096" lon="10.227214273249748"><ele>1120.75</ele><time>2026-04-11T14:48:33.923Z</time></trkpt><trkpt lat="44.31100428083067" lon="10.227084223417757"><ele>1123.0</ele><time>2026-04-11T14:48:34.923Z</time></trkpt><trkpt lat="44.310902808806006" lon="10.226933737541838"><ele>1123.0</ele><time>2026-04-11T14:48:35.923Z</time></trkpt><trkpt lat="44.31079798782836" lon="10.22678391883995"><ele>1123.0</ele><time>2026-04-11T14:48:36.923Z</time></trkpt><trkpt lat="44.310697308878076" lon="10.226628405890391"><ele>1123.0</ele><time>2026-04-11T14:48:37.923Z</time></trkpt><trkpt lat="44.31059638615909" lon="10.226485748868726"><ele>1123.0</ele><time>2026-04-11T14:48:38.923Z</time></trkpt><trkpt lat="44.310509078834784" lon="10.226358043687748"><ele>1125.0</ele><time>2026-04-11T14:48:39.923Z</time></trkpt><trkpt lat="44.31043553538594" lon="10.226250025471753"><ele>1127.0</ele><time>2026-04-11T14:48:40.923Z</time></trkpt><trkpt lat="44.31038158468559" lon="10.226168771262786"><ele>1129.0</ele><time>2026-04-11T14:48:41.923Z</time></trkpt><trkpt lat="44.31033736230538" lon="10.226103547263083"><ele>1131.0</ele><time>2026-04-11T14:48:42.923Z</time></trkpt><trkpt lat="44.31027845843518" lon="10.226008848050903"><ele>1133.0</ele><time>2026-04-11T14:48:44.923Z</time></trkpt><trkpt lat="44.31025146091542" lon="10.225885264252165"><ele>1135.0</ele><time>2026-04-11T14:48:46.923Z</time></trkpt><trkpt lat="44.310234478123604" lon="10.225786906001293"><ele>1135.0</ele><time>2026-04-11T14:48:48.923Z</time></trkpt><trkpt lat="44.31015236691018" lon="10.225744420686501"><ele>1135.0</ele><time>2026-04-11T14:59:59.001Z</time></trkpt><trkpt lat="44.31008086880199" lon="10.225700197581922"><ele>1135.0</ele><time>2026-04-11T15:00:01.001Z</time></trkpt><trkpt lat="44.309973049234024" lon="10.225618182781329"><ele>1135.0</ele><time>2026-04-11T15:00:03.001Z</time></trkpt><trkpt lat="44.309902388190395" lon="10.22555755064888"><ele>1135.0</ele><time>2026-04-11T15:00:04.001Z</time></trkpt><trkpt lat="44.309826472780685" lon="10.225490593452426"><ele>1135.75</ele><time>2026-04-11T15:00:05.001Z</time></trkpt><trkpt lat="44.30973965908501" lon="10.225421908179962"><ele>1136.5</ele><time>2026-04-11T15:00:06.001Z</time></trkpt><trkpt lat="44.309631788004225" lon="10.225354876252254"><ele>1137.25</ele><time>2026-04-11T15:00:07.001Z</time></trkpt><trkpt lat="44.30951029590641" lon="10.225293649385982"><ele>1138.0</ele><time>2026-04-11T15:00:08.001Z</time></trkpt><trkpt lat="44.309386879374614" lon="10.225231521904899"><ele>1138.0</ele><time>2026-04-11T15:00:09.001Z</time></trkpt><trkpt lat="44.30926119580653" lon="10.225158956337754"><ele>1138.0</ele><time>2026-04-11T15:00:10.001Z</time></trkpt><trkpt lat="44.30913003827401" lon="10.225083362204582"><ele>1138.0</ele><time>2026-04-11T15:00:11.001Z</time></trkpt><trkpt lat="44.30899937065581" lon="10.225015224011958"><ele>1138.0</ele><time>2026-04-11T15:00:12.001Z</time></trkpt><trkpt lat="44.308861128694886" lon="10.22495033493359"><ele>1137.5</ele><time>2026-04-11T15:00:13.001Z</time></trkpt><trkpt lat="44.308736773177465" lon="10.224876418723813"><ele>1137.0</ele><time>2026-04-11T15:00:14.001Z</time></trkpt><trkpt lat="44.30861145375363" lon="10.224812419242141"><ele>1136.5</ele><time>2026-04-11T15:00:15.001Z</time></trkpt><trkpt lat="44.3084927925749" lon="10.224755066426876"><ele>1136.0</ele><time>2026-04-11T15:00:16.001Z</time></trkpt><trkpt lat="44.308371917641665" lon="10.224712355216818"><ele>1136.0</ele><time>2026-04-11T15:00:17.001Z</time></trkpt><trkpt lat="44.30824477339347" lon="10.224689500463748"><ele>1136.0</ele><time>2026-04-11T15:00:18.001Z</time></trkpt><trkpt lat="44.308106232784816" lon="10.224669068960461"><ele>1136.0</ele><time>2026-04-11T15:00:19.001Z</time></trkpt><trkpt lat="44.307966788305826" lon="10.224656131112052"><ele>1136.0</ele><time>2026-04-11T15:00:20.001Z</time></trkpt><trkpt lat="44.30782363408612" lon="10.224666855400388"><ele>1138.5</ele><time>2026-04-11T15:00:21.001Z</time></trkpt><trkpt lat="44.30767790643462" lon="10.2246886480523"><ele>1141.0</ele><time>2026-04-11T15:00:22.001Z</time></trkpt><trkpt lat="44.307532089804624" lon="10.224721366232401"><ele>1143.5</ele><time>2026-04-11T15:00:23.001Z</time></trkpt><trkpt lat="44.307392551739596" lon="10.224758804773044"><ele>1146.0</ele><time>2026-04-11T15:00:24.001Z</time></trkpt><trkpt lat="44.307247535050266" lon="10.224808069903874"><ele>1150.6666666666667</ele><time>2026-04-11T15:00:25.001Z</time></trkpt><trkpt lat="44.30710438930568" lon="10.224866878749786"><ele>1155.3333333333335</ele><time>2026-04-11T15:00:26.001Z</time></trkpt><trkpt lat="44.30695233989665" lon="10.224929813281978"><ele>1160.0</ele><time>2026-04-11T15:00:27.001Z</time></trkpt><trkpt lat="44.30680139394899" lon="10.22496910791658"><ele>1160.0</ele><time>2026-04-11T15:00:28.001Z</time></trkpt><trkpt lat="44.30665262387965" lon="10.224999754426335"><ele>1160.0</ele><time>2026-04-11T15:00:29.001Z</time></trkpt><trkpt lat="44.30649854941182" lon="10.225025054043952"><ele>1160.0</ele><time>2026-04-11T15:00:30.001Z</time></trkpt><trkpt lat="44.30634327778638" lon="10.22504920895332"><ele>1159.3333333333335</ele><time>2026-04-11T15:00:31.001Z</time></trkpt><trkpt lat="44.30619032651346" lon="10.225077996258419"><ele>1158.6666666666667</ele><time>2026-04-11T15:00:32.001Z</time></trkpt><trkpt lat="44.306043021685326" lon="10.225101925520026"><ele>1158.0</ele><time>2026-04-11T15:00:33.001Z</time></trkpt><trkpt lat="44.30589374039935" lon="10.22514663663626"><ele>1158.0</ele><time>2026-04-11T15:00:34.001Z</time></trkpt><trkpt lat="44.30575178611889" lon="10.2252135892594"><ele>1158.0</ele><time>2026-04-11T15:00:35.001Z</time></trkpt><trkpt lat="44.305612750438684" lon="10.225290255036462"><ele>1158.0</ele><time>2026-04-11T15:00:36.001Z</time></trkpt><trkpt lat="44.30549054813594" lon="10.225358881194031"><ele>1158.0</ele><time>2026-04-11T15:00:37.001Z</time></trkpt><trkpt lat="44.30537283005742" lon="10.22543803099527"><ele>1158.5</ele><time>2026-04-11T15:00:38.001Z</time></trkpt><trkpt lat="44.305250432317486" lon="10.225561195144081"><ele>1159.0</ele><time>2026-04-11T15:00:39.001Z</time></trkpt><trkpt lat="44.30513992288598" lon="10.225688236099462"><ele>1159.5</ele><time>2026-04-11T15:00:40.001Z</time></trkpt><trkpt lat="44.30504834244151" lon="10.2257941050834"><ele>1160.0</ele><time>2026-04-11T15:00:41.001Z</time></trkpt><trkpt lat="44.30495345227553" lon="10.22586487084255"><ele>1162.4</ele><time>2026-04-11T15:00:42.001Z</time></trkpt><trkpt lat="44.30484878170991" lon="10.225883947348299"><ele>1164.8</ele><time>2026-04-11T15:00:43Z</time></trkpt><trkpt lat="44.30474926468288" lon="10.225852715260507"><ele>1167.2</ele><time>2026-04-11T15:00:44Z</time></trkpt><trkpt lat="44.30466793371768" lon="10.225747935478985"><ele>1169.6</ele><time>2026-04-11T15:00:45Z</time></trkpt><trkpt lat="44.304625536630695" lon="10.22558914770231"><ele>1172.0</ele><time>2026-04-11T15:00:46Z</time></trkpt><trkpt lat="44.30462180021505" lon="10.225396901101641"><ele>1174.5</ele><time>2026-04-11T15:00:47Z</time></trkpt><trkpt lat="44.30460031201239" lon="10.225221551488156"><ele>1177.0</ele><time>2026-04-11T15:00:48Z</time></trkpt><trkpt lat="44.30458878270438" lon="10.225032027901058"><ele>1179.5</ele><time>2026-04-11T15:00:49Z</time></trkpt><trkpt lat="44.30456273774336" lon="10.224839011621027"><ele>1182.0</ele><time>2026-04-11T15:00:50Z</time></trkpt><trkpt lat="44.30454413002678" lon="10.224650498309124"><ele>1184.75</ele><time>2026-04-11T15:00:51Z</time></trkpt><trkpt lat="44.304550432647545" lon="10.22445104148248"><ele>1187.5</ele><time>2026-04-11T15:00:52Z</time></trkpt><trkpt lat="44.304576917048095" lon="10.224257454047763"><ele>1190.25</ele><time>2026-04-11T15:00:53Z</time></trkpt><trkpt lat="44.30463648500188" lon="10.224071081081245"><ele>1193.0</ele><time>2026-04-11T15:00:54Z</time></trkpt><trkpt lat="44.30470712884044" lon="10.223909990615644"><ele>1192.0</ele><time>2026-04-11T15:00:55Z</time></trkpt><trkpt lat="44.3047925335732" lon="10.223755556196188"><ele>1191.0</ele><time>2026-04-11T15:00:56Z</time></trkpt><trkpt lat="44.30490484032203" lon="10.22362680444154"><ele>1190.0</ele><time>2026-04-11T15:00:57Z</time></trkpt><trkpt lat="44.30502197060026" lon="10.223504868944149"><ele>1189.0</ele><time>2026-04-11T15:00:58Z</time></trkpt><trkpt lat="44.305140694145386" lon="10.22336689743899"><ele>1189.0</ele><time>2026-04-11T15:00:59Z</time></trkpt><trkpt lat="44.305237230112866" lon="10.223204589590502"><ele>1189.0</ele><time>2026-04-11T15:01:00Z</time></trkpt><trkpt lat="44.30532567507842" lon="10.22301688248817"><ele>1189.0</ele><time>2026-04-11T15:01:01Z</time></trkpt><trkpt lat="44.3054165997634" lon="10.222825406768942"><ele>1187.3333333333333</ele><time>2026-04-11T15:01:02Z</time></trkpt><trkpt lat="44.30551082023027" lon="10.222646667633533"><ele>1185.6666666666667</ele><time>2026-04-11T15:01:03Z</time></trkpt><trkpt lat="44.30559390979438" lon="10.222476816316101"><ele>1184.0</ele><time>2026-04-11T15:01:04Z</time></trkpt><trkpt lat="44.30565725029039" lon="10.222295383636116"><ele>1189.75</ele><time>2026-04-11T15:01:05Z</time></trkpt><trkpt lat="44.30570449386794" lon="10.222106697237432"><ele>1195.5</ele><time>2026-04-11T15:01:06Z</time></trkpt><trkpt lat="44.305739640258835" lon="10.221953252118102"><ele>1201.25</ele><time>2026-04-11T15:01:07Z</time></trkpt><trkpt lat="44.30577597396544" lon="10.221822302701197"><ele>1207.0</ele><time>2026-04-11T15:01:08Z</time></trkpt><trkpt lat="44.305846400665466" lon="10.221704593759704"><ele>1207.0</ele><time>2026-04-11T15:01:09Z</time></trkpt><trkpt lat="44.3059462114531" lon="10.221601788649277"><ele>1207.0</ele><time>2026-04-11T15:01:10Z</time></trkpt><trkpt lat="44.306068630551955" lon="10.221516707225446"><ele>1207.0</ele><time>2026-04-11T15:01:11Z</time></trkpt><trkpt lat="44.30619450126334" lon="10.22148474157812"><ele>1207.0</ele><time>2026-04-11T15:01:12Z</time></trkpt><trkpt lat="44.306334472150965" lon="10.22146482054663"><ele>1209.0</ele><time>2026-04-11T15:01:13Z</time></trkpt><trkpt lat="44.306481475361664" lon="10.22143886974882"><ele>1211.0</ele><time>2026-04-11T15:01:14Z</time></trkpt><trkpt lat="44.30662636171539" lon="10.22140871224261"><ele>1213.0</ele><time>2026-04-11T15:01:15Z</time></trkpt><trkpt lat="44.30676739693186" lon="10.221363101829537"><ele>1215.0</ele><time>2026-04-11T15:01:16Z</time></trkpt><trkpt lat="44.30690480423871" lon="10.221265427308984"><ele>1215.0</ele><time>2026-04-11T15:01:17Z</time></trkpt><trkpt lat="44.307036672873416" lon="10.221145176038801"><ele>1215.0</ele><time>2026-04-11T15:01:18Z</time></trkpt><trkpt lat="44.307171155950556" lon="10.2210289489389"><ele>1215.0</ele><time>2026-04-11T15:01:19Z</time></trkpt><trkpt lat="44.30729827922728" lon="10.220911379423674"><ele>1215.0</ele><time>2026-04-11T15:01:20Z</time></trkpt><trkpt lat="44.30741014407358" lon="10.22079056947993"><ele>1215.0</ele><time>2026-04-11T15:01:21Z</time></trkpt><trkpt lat="44.30750177837039" lon="10.220693804846869"><ele>1215.0</ele><time>2026-04-11T15:01:22Z</time></trkpt><trkpt lat="44.30758846978518" lon="10.220605332607429"><ele>1215.0</ele><time>2026-04-11T15:01:23Z</time></trkpt><trkpt lat="44.30764535643898" lon="10.220503379678098"><ele>1215.0</ele><time>2026-04-11T15:01:24Z</time></trkpt><trkpt lat="44.30767669788519" lon="10.220374932597663"><ele>1215.0</ele><time>2026-04-11T15:01:25Z</time></trkpt><trkpt lat="44.30767291195695" lon="10.220232255090098"><ele>1215.0</ele><time>2026-04-11T15:01:26Z</time></trkpt><trkpt lat="44.30763081818797" lon="10.22011099029375"><ele>1215.0</ele><time>2026-04-11T15:01:27Z</time></trkpt><trkpt lat="44.307535153401155" lon="10.220008361168667"><ele>1215.0</ele><time>2026-04-11T15:01:28Z</time></trkpt><trkpt lat="44.30741379804795" lon="10.219923485389778"><ele>1215.0</ele><time>2026-04-11T15:01:29Z</time></trkpt><trkpt lat="44.307272861269674" lon="10.219842244146147"><ele>1215.0</ele><time>2026-04-11T15:01:30.001Z</time></trkpt><trkpt lat="44.30713071728954" lon="10.219775490727388"><ele>1215.0</ele><time>2026-04-11T15:01:31.001Z</time></trkpt><trkpt lat="44.306976455639926" lon="10.219746979992497"><ele>1216.6666666666667</ele><time>2026-04-11T15:01:32.001Z</time></trkpt><trkpt lat="44.30680509010109" lon="10.219757485898873"><ele>1218.3333333333335</ele><time>2026-04-11T15:01:33.001Z</time></trkpt><trkpt lat="44.30662203167604" lon="10.219777882168765"><ele>1220.0</ele><time>2026-04-11T15:01:34.001Z</time></trkpt><trkpt lat="44.306437617211074" lon="10.219796354392013"><ele>1223.6666666666667</ele><time>2026-04-11T15:01:35.001Z</time></trkpt><trkpt lat="44.30626487067665" lon="10.219788343515937"><ele>1227.3333333333333</ele><time>2026-04-11T15:01:36.001Z</time></trkpt><trkpt lat="44.306108473686564" lon="10.219757587312047"><ele>1231.0</ele><time>2026-04-11T15:01:37.001Z</time></trkpt><trkpt lat="44.30598218092671" lon="10.219717172388918"><ele>1231.0</ele><time>2026-04-11T15:01:38.001Z</time></trkpt><trkpt lat="44.30586094503653" lon="10.219659808250988"><ele>1231.0</ele><time>2026-04-11T15:01:39.001Z</time></trkpt><trkpt lat="44.30576303488637" lon="10.219598529118745"><ele>1231.0</ele><time>2026-04-11T15:01:40.001Z</time></trkpt><trkpt lat="44.3056807064179" lon="10.21950194147306"><ele>1231.0</ele><time>2026-04-11T15:01:41.001Z</time></trkpt><trkpt lat="44.30562458179492" lon="10.2193692781027"><ele>1231.0</ele><time>2026-04-11T15:01:42.001Z</time></trkpt><trkpt lat="44.30561138283331" lon="10.219205694421486"><ele>1231.0</ele><time>2026-04-11T15:01:43.001Z</time></trkpt><trkpt lat="44.305643980735745" lon="10.219038877233888"><ele>1231.0</ele><time>2026-04-11T15:01:44.001Z</time></trkpt><trkpt lat="44.305700853187524" lon="10.218871553579104"><ele>1231.0</ele><time>2026-04-11T15:01:45.001Z</time></trkpt><trkpt lat="44.30575316741434" lon="10.218715064680095"><ele>1230.5</ele><time>2026-04-11T15:01:46.001Z</time></trkpt><trkpt lat="44.30578748914539" lon="10.218559247576637"><ele>1230.0</ele><time>2026-04-11T15:01:47.001Z</time></trkpt><trkpt lat="44.305785996306376" lon="10.21840229481687"><ele>1229.5</ele><time>2026-04-11T15:01:48.001Z</time></trkpt><trkpt lat="44.30572884070499" lon="10.218237446316067"><ele>1229.0</ele><time>2026-04-11T15:01:49.001Z</time></trkpt><trkpt lat="44.30563169625098" lon="10.218098184168076"><ele>1234.0</ele><time>2026-04-11T15:01:50.001Z</time></trkpt><trkpt lat="44.30551223417011" lon="10.217954500617513"><ele>1239.0</ele><time>2026-04-11T15:01:51.001Z</time></trkpt><trkpt lat="44.30537803494239" lon="10.217814438712212"><ele>1244.0</ele><time>2026-04-11T15:01:52.001Z</time></trkpt><trkpt lat="44.30524666858592" lon="10.217671521496575"><ele>1244.0</ele><time>2026-04-11T15:01:53.001Z</time></trkpt><trkpt lat="44.305121993888726" lon="10.217528101494013"><ele>1244.0</ele><time>2026-04-11T15:01:54.001Z</time></trkpt><trkpt lat="44.30500070165357" lon="10.217387077991217"><ele>1244.0</ele><time>2026-04-11T15:01:55.001Z</time></trkpt><trkpt lat="44.30489354093701" lon="10.217254261791698"><ele>1245.0</ele><time>2026-04-11T15:01:56.001Z</time></trkpt><trkpt lat="44.304796404311794" lon="10.217149184905875"><ele>1246.0</ele><time>2026-04-11T15:01:57.001Z</time></trkpt><trkpt lat="44.30469880433256" lon="10.217071177379006"><ele>1247.0</ele><time>2026-04-11T15:01:58.001Z</time></trkpt><trkpt lat="44.30458936362138" lon="10.21702251168139"><ele>1248.0</ele><time>2026-04-11T15:01:59.001Z</time></trkpt><trkpt lat="44.30448113323643" lon="10.216997150565112"><ele>1248.0</ele><time>2026-04-11T15:02:00.001Z</time></trkpt><trkpt lat="44.304370291530276" lon="10.217009652855152"><ele>1248.0</ele><time>2026-04-11T15:02:01.001Z</time></trkpt><trkpt lat="44.30425326776645" lon="10.217048943314209"><ele>1248.0</ele><time>2026-04-11T15:02:02.001Z</time></trkpt><trkpt lat="44.304137557118736" lon="10.217101359682399"><ele>1248.0</ele><time>2026-04-11T15:02:03.001Z</time></trkpt><trkpt lat="44.30403044636241" lon="10.217158815995031"><ele>1248.0</ele><time>2026-04-11T15:02:04.001Z</time></trkpt><trkpt lat="44.30393564507998" lon="10.217208811392343"><ele>1248.0</ele><time>2026-04-11T15:02:05.001Z</time></trkpt><trkpt lat="44.30384670302633" lon="10.217231635321399"><ele>1248.0</ele><time>2026-04-11T15:02:06.001Z</time></trkpt><trkpt lat="44.30375873857208" lon="10.217212136821532"><ele>1248.0</ele><time>2026-04-11T15:02:07.001Z</time></trkpt><trkpt lat="44.30365906064654" lon="10.217132332793849"><ele>1248.0</ele><time>2026-04-11T15:02:08.001Z</time></trkpt><trkpt lat="44.30355880514697" lon="10.217009542645513"><ele>1247.3333333333333</ele><time>2026-04-11T15:02:09.001Z</time></trkpt><trkpt lat="44.30344989943415" lon="10.21687428509519"><ele>1246.6666666666665</ele><time>2026-04-11T15:02:10.001Z</time></trkpt><trkpt lat="44.303327520705494" lon="10.216736605504739"><ele>1246.0</ele><time>2026-04-11T15:02:11.001Z</time></trkpt><trkpt lat="44.30319882846853" lon="10.216613324467232"><ele>1242.3333333333333</ele><time>2026-04-11T15:02:12.001Z</time></trkpt><trkpt lat="44.303055128631584" lon="10.216499010570807"><ele>1238.6666666666667</ele><time>2026-04-11T15:02:13.001Z</time></trkpt><trkpt lat="44.30291306637735" lon="10.216383729259539"><ele>1235.0</ele><time>2026-04-11T15:02:14.001Z</time></trkpt><trkpt lat="44.30278472586508" lon="10.216260493259291"><ele>1235.0</ele><time>2026-04-11T15:02:15.001Z</time></trkpt><trkpt lat="44.302670688134036" lon="10.216118119256368"><ele>1235.0</ele><time>2026-04-11T15:02:16.001Z</time></trkpt><trkpt lat="44.3025856613943" lon="10.215963336210345"><ele>1235.0</ele><time>2026-04-11T15:02:17.001Z</time></trkpt><trkpt lat="44.302514125809004" lon="10.215779253663774"><ele>1235.0</ele><time>2026-04-11T15:02:18.001Z</time></trkpt><trkpt lat="44.30245348600271" lon="10.215570181120322"><ele>1236.6666666666667</ele><time>2026-04-11T15:02:19.001Z</time></trkpt><trkpt lat="44.30240077361261" lon="10.215346558406248"><ele>1238.3333333333333</ele><time>2026-04-11T15:02:20.001Z</time></trkpt><trkpt lat="44.30235704491915" lon="10.215115516441339"><ele>1240.0</ele><time>2026-04-11T15:02:21.001Z</time></trkpt><trkpt lat="44.30230838683979" lon="10.21491238317911"><ele>1240.75</ele><time>2026-04-11T15:02:22.001Z</time></trkpt><trkpt lat="44.302272179046696" lon="10.214730989515369"><ele>1241.5</ele><time>2026-04-11T15:02:23.001Z</time></trkpt><trkpt lat="44.30224031038305" lon="10.214574028894438"><ele>1242.25</ele><time>2026-04-11T15:02:24.001Z</time></trkpt><trkpt lat="44.30218763300541" lon="10.214454803159171"><ele>1243.0</ele><time>2026-04-11T15:02:25.001Z</time></trkpt><trkpt lat="44.30211047970225" lon="10.214366780598306"><ele>1239.0</ele><time>2026-04-11T15:02:26.001Z</time></trkpt><trkpt lat="44.30202284979181" lon="10.21432263498762"><ele>1235.0</ele><time>2026-04-11T15:02:27.001Z</time></trkpt><trkpt lat="44.30191579750551" lon="10.214304099752912"><ele>1231.0</ele><time>2026-04-11T15:02:28.001Z</time></trkpt><trkpt lat="44.301821472914426" lon="10.214297123583762"><ele>1227.0</ele><time>2026-04-11T15:02:29.001Z</time></trkpt><trkpt lat="44.3017162502767" lon="10.214232202085356"><ele>1223.0</ele><time>2026-04-11T15:02:30.001Z</time></trkpt><trkpt lat="44.30161166059086" lon="10.21413149686228"><ele>1223.0</ele><time>2026-04-11T15:02:31.001Z</time></trkpt><trkpt lat="44.30150511454764" lon="10.21401230319619"><ele>1223.0</ele><time>2026-04-11T15:02:32.001Z</time></trkpt><trkpt lat="44.3013960057671" lon="10.213864608105347"><ele>1223.0</ele><time>2026-04-11T15:02:33.001Z</time></trkpt><trkpt lat="44.301273574626286" lon="10.213705850339199"><ele>1220.3333333333335</ele><time>2026-04-11T15:02:34.001Z</time></trkpt><trkpt lat="44.3011409950252" lon="10.213549077435166"><ele>1217.6666666666667</ele><time>2026-04-11T15:02:35.001Z</time></trkpt><trkpt lat="44.30101529985486" lon="10.213408986213606"><ele>1215.0</ele><time>2026-04-11T15:02:36.001Z</time></trkpt><trkpt lat="44.30088314667334" lon="10.213290276817654"><ele>1215.0</ele><time>2026-04-11T15:02:37.001Z</time></trkpt><trkpt lat="44.30073364149631" lon="10.213179247672086"><ele>1215.0</ele><time>2026-04-11T15:02:38.001Z</time></trkpt><trkpt lat="44.30057428235759" lon="10.21306767121484"><ele>1215.0</ele><time>2026-04-11T15:02:39.001Z</time></trkpt><trkpt lat="44.30042755448945" lon="10.212963572439165"><ele>1211.0</ele><time>2026-04-11T15:02:40.001Z</time></trkpt><trkpt lat="44.30029494059531" lon="10.212843229811034"><ele>1207.0</ele><time>2026-04-11T15:02:41.001Z</time></trkpt><trkpt lat="44.30017239529052" lon="10.21270375311335"><ele>1203.0</ele><time>2026-04-11T15:02:42.001Z</time></trkpt><trkpt lat="44.300078003467206" lon="10.212538113910107"><ele>1203.0</ele><time>2026-04-11T15:02:43.001Z</time></trkpt><trkpt lat="44.30001047356983" lon="10.212352259298644"><ele>1203.0</ele><time>2026-04-11T15:02:44.001Z</time></trkpt><trkpt lat="44.299961946667636" lon="10.212167841696683"><ele>1203.0</ele><time>2026-04-11T15:02:45.001Z</time></trkpt><trkpt lat="44.299939326110355" lon="10.211989780986455"><ele>1203.0</ele><time>2026-04-11T15:02:46.001Z</time></trkpt><trkpt lat="44.29993124946838" lon="10.211810772332274"><ele>1203.6</ele><time>2026-04-11T15:02:47.001Z</time></trkpt><trkpt lat="44.299910675632155" lon="10.211666524382217"><ele>1204.1999999999998</ele><time>2026-04-11T15:02:48.001Z</time></trkpt><trkpt lat="44.29986636918566" lon="10.211540462278618"><ele>1204.8</ele><time>2026-04-11T15:02:49.001Z</time></trkpt><trkpt lat="44.29980183634673" lon="10.211454348271834"><ele>1205.3999999999999</ele><time>2026-04-11T15:02:50.001Z</time></trkpt><trkpt lat="44.299713434737946" lon="10.211402636634256"><ele>1206.0</ele><time>2026-04-11T15:02:51.001Z</time></trkpt><trkpt lat="44.299613862822596" lon="10.211408574072152"><ele>1201.2</ele><time>2026-04-11T15:02:52.001Z</time></trkpt><trkpt lat="44.2995202616121" lon="10.211465164968937"><ele>1196.3999999999999</ele><time>2026-04-11T15:02:53.001Z</time></trkpt><trkpt lat="44.2994370289415" lon="10.21157139679195"><ele>1191.6</ele><time>2026-04-11T15:02:54.001Z</time></trkpt><trkpt lat="44.29938261334031" lon="10.211714058732568"><ele>1186.8</ele><time>2026-04-11T15:02:55.001Z</time></trkpt><trkpt lat="44.29936699253799" lon="10.211878026370119"><ele>1182.0</ele><time>2026-04-11T15:02:56.001Z</time></trkpt><trkpt lat="44.29938376675756" lon="10.21204248151354"><ele>1182.0</ele><time>2026-04-11T15:02:57.001Z</time></trkpt><trkpt lat="44.2994106209033" lon="10.212206572774454"><ele>1182.0</ele><time>2026-04-11T15:02:58.001Z</time></trkpt><trkpt lat="44.29944315696201" lon="10.212373113155126"><ele>1182.0</ele><time>2026-04-11T15:02:59.001Z</time></trkpt><trkpt lat="44.299478922003935" lon="10.212529351323608"><ele>1182.0</ele><time>2026-04-11T15:03:00.001Z</time></trkpt><trkpt lat="44.29951620442564" lon="10.212695014486082"><ele>1182.6</ele><time>2026-04-11T15:03:01.001Z</time></trkpt><trkpt lat="44.29956344547936" lon="10.212853008356026"><ele>1183.2</ele><time>2026-04-11T15:03:02.001Z</time></trkpt><trkpt lat="44.29960801428922" lon="10.21299886311686"><ele>1183.8</ele><time>2026-04-11T15:03:03.001Z</time></trkpt><trkpt lat="44.29964197586672" lon="10.213141682047869"><ele>1184.4</ele><time>2026-04-11T15:03:04.001Z</time></trkpt><trkpt lat="44.299621839294986" lon="10.213276945861828"><ele>1185.0</ele><time>2026-04-11T15:03:05.001Z</time></trkpt><trkpt lat="44.29957514364841" lon="10.213378609866146"><ele>1185.0</ele><time>2026-04-11T15:03:06.001Z</time></trkpt><trkpt lat="44.299487080691925" lon="10.213410742464427"><ele>1185.0</ele><time>2026-04-11T15:03:07.001Z</time></trkpt><trkpt lat="44.29938078781081" lon="10.213386931697924"><ele>1185.0</ele><time>2026-04-11T15:03:08.001Z</time></trkpt><trkpt lat="44.299284540009495" lon="10.213309755990315"><ele>1185.0</ele><time>2026-04-11T15:03:09.001Z</time></trkpt><trkpt lat="44.29919346561963" lon="10.213195765225379"><ele>1185.0</ele><time>2026-04-11T15:03:10.001Z</time></trkpt><trkpt lat="44.29910523314803" lon="10.213084676832922"><ele>1185.0</ele><time>2026-04-11T15:03:11.001Z</time></trkpt><trkpt lat="44.299006145528544" lon="10.212986211227202"><ele>1185.0</ele><time>2026-04-11T15:03:12.001Z</time></trkpt><trkpt lat="44.29890213975976" lon="10.212916225293524"><ele>1185.0</ele><time>2026-04-11T15:03:13.001Z</time></trkpt><trkpt lat="44.29878839205852" lon="10.212876953462947"><ele>1185.0</ele><time>2026-04-11T15:03:14.001Z</time></trkpt><trkpt lat="44.29867510946484" lon="10.21288919705836"><ele>1184.75</ele><time>2026-04-11T15:03:15.001Z</time></trkpt><trkpt lat="44.29856042040369" lon="10.212947312850767"><ele>1184.5</ele><time>2026-04-11T15:03:16.001Z</time></trkpt><trkpt lat="44.29845612871998" lon="10.213012219931667"><ele>1184.25</ele><time>2026-04-11T15:03:17.001Z</time></trkpt><trkpt lat="44.29835056031403" lon="10.213053198353734"><ele>1184.0</ele><time>2026-04-11T15:03:18.001Z</time></trkpt><trkpt lat="44.29823616057661" lon="10.213051946335773"><ele>1184.0</ele><time>2026-04-11T15:03:19.001Z</time></trkpt><trkpt lat="44.29811668901271" lon="10.213020116582188"><ele>1184.0</ele><time>2026-04-11T15:03:20.001Z</time></trkpt><trkpt lat="44.29799492178347" lon="10.21293176799199"><ele>1184.0</ele><time>2026-04-11T15:03:21.001Z</time></trkpt><trkpt lat="44.29787957143245" lon="10.212800818810358"><ele>1184.0</ele><time>2026-04-11T15:03:22.001Z</time></trkpt><trkpt lat="44.29775914882009" lon="10.212676157575965"><ele>1182.3333333333335</ele><time>2026-04-11T15:03:23.001Z</time></trkpt><trkpt lat="44.29761877220829" lon="10.212573678499917"><ele>1180.6666666666667</ele><time>2026-04-11T15:03:24.001Z</time></trkpt><trkpt lat="44.297465529159666" lon="10.212482135576616"><ele>1179.0</ele><time>2026-04-11T15:03:25.001Z</time></trkpt><trkpt lat="44.29732057101699" lon="10.212362342515606"><ele>1175.6666666666667</ele><time>2026-04-11T15:03:26.001Z</time></trkpt><trkpt lat="44.2971867813754" lon="10.2122333223077"><ele>1172.3333333333335</ele><time>2026-04-11T15:03:27.001Z</time></trkpt><trkpt lat="44.297043420743705" lon="10.212084952716353"><ele>1169.0</ele><time>2026-04-11T15:03:28.001Z</time></trkpt><trkpt lat="44.29690093647897" lon="10.211918241470526"><ele>1169.0</ele><time>2026-04-11T15:03:29.001Z</time></trkpt><trkpt lat="44.29677146625408" lon="10.211741976908574"><ele>1169.0</ele><time>2026-04-11T15:03:30.001Z</time></trkpt><trkpt lat="44.296639840029" lon="10.211569276605426"><ele>1169.0</ele><time>2026-04-11T15:03:31.002Z</time></trkpt><trkpt lat="44.29651982046249" lon="10.211405671468919"><ele>1164.6666666666667</ele><time>2026-04-11T15:03:32.002Z</time></trkpt><trkpt lat="44.29641669991608" lon="10.211221923798007"><ele>1160.3333333333333</ele><time>2026-04-11T15:03:33.002Z</time></trkpt><trkpt lat="44.29630980695513" lon="10.211013595413146"><ele>1156.0</ele><time>2026-04-11T15:03:34.002Z</time></trkpt><trkpt lat="44.296216564851974" lon="10.210745566050837"><ele>1155.6666666666665</ele><time>2026-04-11T15:03:35.002Z</time></trkpt><trkpt lat="44.296129776101154" lon="10.210482626236693"><ele>1155.3333333333333</ele><time>2026-04-11T15:03:36.002Z</time></trkpt><trkpt lat="44.29603474519717" lon="10.210235606230869"><ele>1155.0</ele><time>2026-04-11T15:03:37.002Z</time></trkpt><trkpt lat="44.29595181196692" lon="10.209974478948821"><ele>1152.0</ele><time>2026-04-11T15:03:38.002Z</time></trkpt><trkpt lat="44.29587648703366" lon="10.20972912030853"><ele>1149.0</ele><time>2026-04-11T15:03:39.002Z</time></trkpt><trkpt lat="44.29578134365862" lon="10.20949338634212"><ele>1146.0</ele><time>2026-04-11T15:03:40.002Z</time></trkpt><trkpt lat="44.295679436481436" lon="10.209266153067965"><ele>1149.0</ele><time>2026-04-11T15:03:41.002Z</time></trkpt><trkpt lat="44.29558155374977" lon="10.20905406217573"><ele>1152.0</ele><time>2026-04-11T15:03:42.002Z</time></trkpt><trkpt lat="44.2954976258385" lon="10.208842043854686"><ele>1155.0</ele><time>2026-04-11T15:03:43.002Z</time></trkpt><trkpt lat="44.29542634878142" lon="10.208638331171215"><ele>1155.0</ele><time>2026-04-11T15:03:44.002Z</time></trkpt><trkpt lat="44.29537020642909" lon="10.208445338121823"><ele>1155.0</ele><time>2026-04-11T15:03:45.002Z</time></trkpt><trkpt lat="44.29532587668972" lon="10.208227431359512"><ele>1155.0</ele><time>2026-04-11T15:03:46.002Z</time></trkpt><trkpt lat="44.29529287389144" lon="10.207998950470875"><ele>1154.6666666666667</ele><time>2026-04-11T15:03:47.002Z</time></trkpt><trkpt lat="44.29526516493637" lon="10.207759726582516"><ele>1154.3333333333335</ele><time>2026-04-11T15:03:48.002Z</time></trkpt><trkpt lat="44.295239276605955" lon="10.207526807179812"><ele>1154.0</ele><time>2026-04-11T15:03:49.002Z</time></trkpt><trkpt lat="44.29520720346542" lon="10.207314645739771"><ele>1150.6666666666667</ele><time>2026-04-11T15:03:50.002Z</time></trkpt><trkpt lat="44.29516497876847" lon="10.207108860437135"><ele>1147.3333333333333</ele><time>2026-04-11T15:03:51.002Z</time></trkpt><trkpt lat="44.29511804926764" lon="10.206905550358583"><ele>1144.0</ele><time>2026-04-11T15:03:52.002Z</time></trkpt><trkpt lat="44.29505780049906" lon="10.206719329880254"><ele>1144.0</ele><time>2026-04-11T15:03:53.002Z</time></trkpt><trkpt lat="44.29501514280993" lon="10.206562764602864"><ele>1144.0</ele><time>2026-04-11T15:03:54.002Z</time></trkpt><trkpt lat="44.2949584883421" lon="10.20644115782596"><ele>1144.0</ele><time>2026-04-11T15:03:55.002Z</time></trkpt><trkpt lat="44.29487495064634" lon="10.206346003036757"><ele>1144.0</ele><time>2026-04-11T15:03:56.002Z</time></trkpt><trkpt lat="44.294768836500104" lon="10.206273220470223"><ele>1140.0</ele><time>2026-04-11T15:03:57.002Z</time></trkpt><trkpt lat="44.29465994108993" lon="10.206239105353077"><ele>1136.0</ele><time>2026-04-11T15:03:58.002Z</time></trkpt><trkpt lat="44.294524205316506" lon="10.206242066892928"><ele>1132.0</ele><time>2026-04-11T15:03:59.002Z</time></trkpt><trkpt lat="44.2943814872613" lon="10.206255871778868"><ele>1128.0</ele><time>2026-04-11T15:04:00.002Z</time></trkpt><trkpt lat="44.294232058592655" lon="10.206266625764496"><ele>1128.0</ele><time>2026-04-11T15:04:01.002Z</time></trkpt><trkpt lat="44.29407808452611" lon="10.206262001216956"><ele>1128.0</ele><time>2026-04-11T15:04:02.002Z</time></trkpt><trkpt lat="44.29391757520212" lon="10.206222996862852"><ele>1128.0</ele><time>2026-04-11T15:04:03.002Z</time></trkpt><trkpt lat="44.29376435894548" lon="10.206168667883707"><ele>1131.3333333333333</ele><time>2026-04-11T15:04:04.002Z</time></trkpt><trkpt lat="44.293621804736695" lon="10.206067367149169"><ele>1134.6666666666665</ele><time>2026-04-11T15:04:05.002Z</time></trkpt><trkpt lat="44.29349016814469" lon="10.205922768294938"><ele>1138.0</ele><time>2026-04-11T15:04:06.002Z</time></trkpt><trkpt lat="44.29337407606749" lon="10.205760384682065"><ele>1133.25</ele><time>2026-04-11T15:04:07.002Z</time></trkpt><trkpt lat="44.2932648412619" lon="10.205612329316784"><ele>1128.5</ele><time>2026-04-11T15:04:08.002Z</time></trkpt><trkpt lat="44.293153985167706" lon="10.205473694857533"><ele>1123.75</ele><time>2026-04-11T15:04:09.002Z</time></trkpt><trkpt lat="44.293046840827564" lon="10.205354407452484"><ele>1119.0</ele><time>2026-04-11T15:04:10.002Z</time></trkpt><trkpt lat="44.292961857871" lon="10.20523024547785"><ele>1119.0</ele><time>2026-04-11T15:04:11.002Z</time></trkpt><trkpt lat="44.29291472820753" lon="10.205068626404417"><ele>1119.0</ele><time>2026-04-11T15:04:12.002Z</time></trkpt><trkpt lat="44.29288900448231" lon="10.204928549703967"><ele>1119.0</ele><time>2026-04-11T15:04:13.002Z</time></trkpt><trkpt lat="44.292849905943704" lon="10.204830482307887"><ele>1119.0</ele><time>2026-04-11T15:04:14.002Z</time></trkpt><trkpt lat="44.292776538710115" lon="10.204775132990882"><ele>1119.0</ele><time>2026-04-11T15:04:15.002Z</time></trkpt><trkpt lat="44.29268707809996" lon="10.204769545157182"><ele>1119.0</ele><time>2026-04-11T15:04:16.002Z</time></trkpt><trkpt lat="44.29258921434844" lon="10.204793966722706"><ele>1119.0</ele><time>2026-04-11T15:04:17.002Z</time></trkpt><trkpt lat="44.29248732361072" lon="10.204848454988394"><ele>1119.0</ele><time>2026-04-11T15:04:18.002Z</time></trkpt><trkpt lat="44.29238235048122" lon="10.204924552211493"><ele>1119.0</ele><time>2026-04-11T15:04:19.002Z</time></trkpt><trkpt lat="44.29228154938841" lon="10.205004326831162"><ele>1119.0</ele><time>2026-04-11T15:04:20.002Z</time></trkpt><trkpt lat="44.29219403415089" lon="10.205079372171673"><ele>1118.2</ele><time>2026-04-11T15:04:21.002Z</time></trkpt><trkpt lat="44.29210824311281" lon="10.205119487250155"><ele>1117.4</ele><time>2026-04-11T15:04:22.002Z</time></trkpt><trkpt lat="44.292011226628475" lon="10.205099658388296"><ele>1116.6</ele><time>2026-04-11T15:04:23.002Z</time></trkpt><trkpt lat="44.29190319934903" lon="10.205029319665782"><ele>1115.8</ele><time>2026-04-11T15:04:24.002Z</time></trkpt><trkpt lat="44.29181906626473" lon="10.204913168709256"><ele>1115.0</ele><time>2026-04-11T15:04:25.002Z</time></trkpt><trkpt lat="44.291730731969785" lon="10.204776052034559"><ele>1111.0</ele><time>2026-04-11T15:04:26.002Z</time></trkpt><trkpt lat="44.291645613689674" lon="10.204627414739267"><ele>1107.0</ele><time>2026-04-11T15:04:27.002Z</time></trkpt><trkpt lat="44.29156786284985" lon="10.204501264168755"><ele>1103.0</ele><time>2026-04-11T15:04:28.002Z</time></trkpt><trkpt lat="44.29151198180756" lon="10.204417676441064"><ele>1099.0</ele><time>2026-04-11T15:04:29.002Z</time></trkpt><trkpt lat="44.29143777603746" lon="10.20439062880327"><ele>1095.0</ele><time>2026-04-11T15:04:30.002Z</time></trkpt><trkpt lat="44.291360405975816" lon="10.204434146474538"><ele>1093.5</ele><time>2026-04-11T15:04:31.002Z</time></trkpt><trkpt lat="44.29128824335416" lon="10.204523634989995"><ele>1092.0</ele><time>2026-04-11T15:04:32.002Z</time></trkpt><trkpt lat="44.29120250731686" lon="10.204635607522814"><ele>1090.5</ele><time>2026-04-11T15:04:33.002Z</time></trkpt><trkpt lat="44.29111825992453" lon="10.204768997024674"><ele>1089.0</ele><time>2026-04-11T15:04:34.002Z</time></trkpt><trkpt lat="44.29104530538068" lon="10.204933019916435"><ele>1089.0</ele><time>2026-04-11T15:04:35.002Z</time></trkpt><trkpt lat="44.290982840383975" lon="10.205095489747515"><ele>1089.0</ele><time>2026-04-11T15:04:36.002Z</time></trkpt><trkpt lat="44.29091600016064" lon="10.205264577268078"><ele>1089.0</ele><time>2026-04-11T15:04:37.002Z</time></trkpt><trkpt lat="44.29082051324997" lon="10.20540931451385"><ele>1089.0</ele><time>2026-04-11T15:04:38.002Z</time></trkpt><trkpt lat="44.29069183927139" lon="10.205495995219232"><ele>1088.0</ele><time>2026-04-11T15:04:39.002Z</time></trkpt><trkpt lat="44.29055371977239" lon="10.205563628028655"><ele>1087.0</ele><time>2026-04-11T15:04:40.002Z</time></trkpt><trkpt lat="44.290435928551084" lon="10.205680596848469"><ele>1086.0</ele><time>2026-04-11T15:04:41.002Z</time></trkpt><trkpt lat="44.290344483773424" lon="10.205829520674328"><ele>1085.0</ele><time>2026-04-11T15:04:42.002Z</time></trkpt><trkpt lat="44.2902680102028" lon="10.205975315267866"><ele>1085.0</ele><time>2026-04-11T15:04:43.002Z</time></trkpt><trkpt lat="44.290211551361104" lon="10.206083831108954"><ele>1085.0</ele><time>2026-04-11T15:04:44.002Z</time></trkpt><trkpt lat="44.290131978896866" lon="10.206141870666267"><ele>1085.0</ele><time>2026-04-11T15:04:45.002Z</time></trkpt><trkpt lat="44.290021522476124" lon="10.206160912335628"><ele>1085.0</ele><time>2026-04-11T15:04:46.002Z</time></trkpt><trkpt lat="44.28990115267312" lon="10.20614692742129"><ele>1085.0</ele><time>2026-04-11T15:04:47.002Z</time></trkpt><trkpt lat="44.28980793563506" lon="10.206104424532159"><ele>1087.25</ele><time>2026-04-11T15:04:48.002Z</time></trkpt><trkpt lat="44.289719019849834" lon="10.20600260978705"><ele>1089.5</ele><time>2026-04-11T15:04:49.002Z</time></trkpt><trkpt lat="44.289640410828774" lon="10.205852516502024"><ele>1091.75</ele><time>2026-04-11T15:04:50.002Z</time></trkpt><trkpt lat="44.289586217536964" lon="10.2056876510866"><ele>1094.0</ele><time>2026-04-11T15:04:51.002Z</time></trkpt><trkpt lat="44.289551269034085" lon="10.205524727927543"><ele>1087.6000000000001</ele><time>2026-04-11T15:04:52.002Z</time></trkpt><trkpt lat="44.28948805871233" lon="10.205421295100727"><ele>1081.2</ele><time>2026-04-11T15:04:53.002Z</time></trkpt><trkpt lat="44.28941101829708" lon="10.205355543047112"><ele>1074.8000000000002</ele><time>2026-04-11T15:04:54.002Z</time></trkpt><trkpt lat="44.28930937649279" lon="10.205339762252441"><ele>1068.4</ele><time>2026-04-11T15:04:55.002Z</time></trkpt><trkpt lat="44.28919963275742" lon="10.205340985590775"><ele>1062.0</ele><time>2026-04-11T15:04:56.002Z</time></trkpt><trkpt lat="44.28907664431256" lon="10.205352268482514"><ele>1062.0</ele><time>2026-04-11T15:04:57.002Z</time></trkpt><trkpt lat="44.28894050810637" lon="10.2053678181465"><ele>1062.0</ele><time>2026-04-11T15:04:58.002Z</time></trkpt><trkpt lat="44.28881215954323" lon="10.205402560472576"><ele>1062.0</ele><time>2026-04-11T15:04:59.002Z</time></trkpt><trkpt lat="44.28869164701104" lon="10.205474585048428"><ele>1062.0</ele><time>2026-04-11T15:05:00.002Z</time></trkpt><trkpt lat="44.28858236796223" lon="10.205538483395513"><ele>1060.0</ele><time>2026-04-11T15:05:01.002Z</time></trkpt><trkpt lat="44.28847544350532" lon="10.205564708400571"><ele>1058.0</ele><time>2026-04-11T15:05:02.002Z</time></trkpt><trkpt lat="44.28834751125207" lon="10.205557066361319"><ele>1056.0</ele><time>2026-04-11T15:05:03.002Z</time></trkpt><trkpt lat="44.288224007594316" lon="10.205507339576029"><ele>1054.0</ele><time>2026-04-11T15:05:04.002Z</time></trkpt><trkpt lat="44.28809726050012" lon="10.205470757410472"><ele>1059.0</ele><time>2026-04-11T15:05:05.002Z</time></trkpt><trkpt lat="44.28795867814526" lon="10.205430121658063"><ele>1064.0</ele><time>2026-04-11T15:05:06.002Z</time></trkpt><trkpt lat="44.28783856589541" lon="10.205389382450408"><ele>1069.0</ele><time>2026-04-11T15:05:07.002Z</time></trkpt><trkpt lat="44.287737000527464" lon="10.205315365894993"><ele>1074.0</ele><time>2026-04-11T15:05:08.002Z</time></trkpt><trkpt lat="44.287659828116254" lon="10.205191080674226"><ele>1074.0</ele><time>2026-04-11T15:05:09.002Z</time></trkpt><trkpt lat="44.2875909770676" lon="10.205033564887668"><ele>1074.0</ele><time>2026-04-11T15:05:10.002Z</time></trkpt><trkpt lat="44.287529603731286" lon="10.204856015478665"><ele>1074.0</ele><time>2026-04-11T15:05:11.002Z</time></trkpt><trkpt lat="44.287476839303835" lon="10.204643412113501"><ele>1074.0</ele><time>2026-04-11T15:05:12.002Z</time></trkpt><trkpt lat="44.287440015697314" lon="10.204414881930273"><ele>1069.0</ele><time>2026-04-11T15:05:13.002Z</time></trkpt><trkpt lat="44.28742463518477" lon="10.204182182934256"><ele>1064.0</ele><time>2026-04-11T15:05:14.002Z</time></trkpt><trkpt lat="44.287421536411166" lon="10.203945062756938"><ele>1059.0</ele><time>2026-04-11T15:05:15.002Z</time></trkpt><trkpt lat="44.28742292691111" lon="10.20372051519318"><ele>1062.25</ele><time>2026-04-11T15:05:16.002Z</time></trkpt><trkpt lat="44.287381857836955" lon="10.203516332917493"><ele>1065.5</ele><time>2026-04-11T15:05:17.002Z</time></trkpt><trkpt lat="44.28732753858535" lon="10.203329977483682"><ele>1068.75</ele><time>2026-04-11T15:05:18.002Z</time></trkpt><trkpt lat="44.28724416943536" lon="10.203165277732447"><ele>1072.0</ele><time>2026-04-11T15:05:19.002Z</time></trkpt><trkpt lat="44.287133673499966" lon="10.203030739202275"><ele>1063.0</ele><time>2026-04-11T15:05:20.002Z</time></trkpt><trkpt lat="44.28701164404598" lon="10.202905375285898"><ele>1054.0</ele><time>2026-04-11T15:05:21.002Z</time></trkpt><trkpt lat="44.28689381617172" lon="10.202781401142778"><ele>1045.0</ele><time>2026-04-11T15:05:22.002Z</time></trkpt><trkpt lat="44.2867771990058" lon="10.202670052941285"><ele>1036.0</ele><time>2026-04-11T15:05:23.002Z</time></trkpt><trkpt lat="44.28665898412237" lon="10.20259131577492"><ele>1036.0</ele><time>2026-04-11T15:05:24.002Z</time></trkpt><trkpt lat="44.28652212110618" lon="10.202525594006163"><ele>1036.0</ele><time>2026-04-11T15:05:25.002Z</time></trkpt><trkpt lat="44.286376500306154" lon="10.202491581942107"><ele>1036.0</ele><time>2026-04-11T15:05:26.002Z</time></trkpt><trkpt lat="44.28622123108225" lon="10.202503754939716"><ele>1036.0</ele><time>2026-04-11T15:05:27.002Z</time></trkpt><trkpt lat="44.286076707250025" lon="10.202504149659145"><ele>1033.0</ele><time>2026-04-11T15:05:28.002Z</time></trkpt><trkpt lat="44.28596143621971" lon="10.202479110095698"><ele>1030.0</ele><time>2026-04-11T15:05:29.002Z</time></trkpt><trkpt lat="44.28587189712814" lon="10.202427451417975"><ele>1027.0</ele><time>2026-04-11T15:05:30.003Z</time></trkpt><trkpt lat="44.285789270484216" lon="10.202314184527165"><ele>1024.0</ele><time>2026-04-11T15:05:31.003Z</time></trkpt><trkpt lat="44.28574580697506" lon="10.2021255808294"><ele>1024.0</ele><time>2026-04-11T15:05:32.003Z</time></trkpt><trkpt lat="44.28570302696349" lon="10.20197130826485"><ele>1024.0</ele><time>2026-04-11T15:05:33.003Z</time></trkpt><trkpt lat="44.28565985270281" lon="10.201814062194577"><ele>1024.0</ele><time>2026-04-11T15:05:34.003Z</time></trkpt><trkpt lat="44.28559207116046" lon="10.201719864262936"><ele>1024.0</ele><time>2026-04-11T15:05:35.003Z</time></trkpt><trkpt lat="44.28550672854965" lon="10.2016792683262"><ele>1024.0</ele><time>2026-04-11T15:05:36.003Z</time></trkpt><trkpt lat="44.28541542502901" lon="10.201656058102063"><ele>1025.0</ele><time>2026-04-11T15:05:37.003Z</time></trkpt><trkpt lat="44.28531922536406" lon="10.201622415991022"><ele>1026.0</ele><time>2026-04-11T15:05:38.003Z</time></trkpt><trkpt lat="44.28526167377144" lon="10.201522210094465"><ele>1027.0</ele><time>2026-04-11T15:05:39.003Z</time></trkpt><trkpt lat="44.285225888127044" lon="10.201370591662592"><ele>1028.0</ele><time>2026-04-11T15:05:40.003Z</time></trkpt><trkpt lat="44.28522664420042" lon="10.201191878924977"><ele>1029.0</ele><time>2026-04-11T15:05:41.003Z</time></trkpt><trkpt lat="44.28523944576494" lon="10.201017742629588"><ele>1029.0</ele><time>2026-04-11T15:05:42.003Z</time></trkpt><trkpt lat="44.28521961331263" lon="10.200829988411716"><ele>1029.0</ele><time>2026-04-11T15:05:43.003Z</time></trkpt><trkpt lat="44.2851794278907" lon="10.200635041180576"><ele>1029.0</ele><time>2026-04-11T15:05:44.003Z</time></trkpt><trkpt lat="44.28510998823546" lon="10.200478455750359"><ele>1029.0</ele><time>2026-04-11T15:05:45.003Z</time></trkpt><trkpt lat="44.285011903543065" lon="10.20033196560658"><ele>1026.3333333333333</ele><time>2026-04-11T15:05:46.003Z</time></trkpt><trkpt lat="44.28489976377083" lon="10.200197072469178"><ele>1023.6666666666666</ele><time>2026-04-11T15:05:47.003Z</time></trkpt><trkpt lat="44.28480108629468" lon="10.200031765724662"><ele>1021.0</ele><time>2026-04-11T15:05:48.003Z</time></trkpt><trkpt lat="44.28474286755828" lon="10.19982530962356"><ele>1021.0</ele><time>2026-04-11T15:05:49.003Z</time></trkpt><trkpt lat="44.284700510030014" lon="10.199602702691218"><ele>1021.0</ele><time>2026-04-11T15:05:50.003Z</time></trkpt><trkpt lat="44.284639315510766" lon="10.199404082694093"><ele>1021.0</ele><time>2026-04-11T15:05:51.003Z</time></trkpt><trkpt lat="44.28456020627565" lon="10.199229432371691"><ele>1021.0</ele><time>2026-04-11T15:05:52.003Z</time></trkpt><trkpt lat="44.28446358014825" lon="10.199054975599811"><ele>1021.0</ele><time>2026-04-11T15:05:53.003Z</time></trkpt><trkpt lat="44.28434945458895" lon="10.198898716424235"><ele>1021.0</ele><time>2026-04-11T15:05:54.003Z</time></trkpt><trkpt lat="44.2842274206585" lon="10.198743367862008"><ele>1017.25</ele><time>2026-04-11T15:05:55.003Z</time></trkpt><trkpt lat="44.284109283435804" lon="10.198595016247813"><ele>1013.5</ele><time>2026-04-11T15:05:56.003Z</time></trkpt><trkpt lat="44.284008812054324" lon="10.19846557789038"><ele>1009.75</ele><time>2026-04-11T15:05:57.003Z</time></trkpt><trkpt lat="44.28391742034161" lon="10.198360276745117"><ele>1006.0</ele><time>2026-04-11T15:05:58.003Z</time></trkpt><trkpt lat="44.283824863111576" lon="10.198296578478324"><ele>1006.0</ele><time>2026-04-11T15:05:59.003Z</time></trkpt><trkpt lat="44.28372271316549" lon="10.198273641841736"><ele>1006.0</ele><time>2026-04-11T15:06:00.003Z</time></trkpt><trkpt lat="44.28360637509005" lon="10.19829504157893"><ele>1006.0</ele><time>2026-04-11T15:06:01.003Z</time></trkpt><trkpt lat="44.28348797396389" lon="10.198345590681797"><ele>1006.0</ele><time>2026-04-11T15:06:02.003Z</time></trkpt><trkpt lat="44.28336925298095" lon="10.198386059665328"><ele>1006.0</ele><time>2026-04-11T15:06:03.003Z</time></trkpt><trkpt lat="44.283245674488505" lon="10.198400391637916"><ele>1006.0</ele><time>2026-04-11T15:06:04.003Z</time></trkpt><trkpt lat="44.28310772012311" lon="10.198386980227115"><ele>1006.0</ele><time>2026-04-11T15:06:05.003Z</time></trkpt><trkpt lat="44.28297069733199" lon="10.1983540232586"><ele>1006.0</ele><time>2026-04-11T15:06:06.003Z</time></trkpt><trkpt lat="44.28283910671062" lon="10.198324122293558"><ele>1003.75</ele><time>2026-04-11T15:06:07.003Z</time></trkpt><trkpt lat="44.28271840389825" lon="10.198314575068832"><ele>1001.5</ele><time>2026-04-11T15:06:08.003Z</time></trkpt><trkpt lat="44.28257851668499" lon="10.198330268299705"><ele>999.25</ele><time>2026-04-11T15:06:09.003Z</time></trkpt><trkpt lat="44.28243789322691" lon="10.198337871678838"><ele>997.0</ele><time>2026-04-11T15:06:10.003Z</time></trkpt><trkpt lat="44.282311763887336" lon="10.19834649832806"><ele>993.2</ele><time>2026-04-11T15:06:11.003Z</time></trkpt><trkpt lat="44.28219557525213" lon="10.19832415665964"><ele>989.4000000000001</ele><time>2026-04-11T15:06:12.003Z</time></trkpt><trkpt lat="44.28210026066324" lon="10.198301354823851"><ele>985.5999999999999</ele><time>2026-04-11T15:06:13.003Z</time></trkpt><trkpt lat="44.282025193884145" lon="10.198301906179868"><ele>981.8</ele><time>2026-04-11T15:06:14.003Z</time></trkpt><trkpt lat="44.281959612766826" lon="10.198324459693193"><ele>978.0</ele><time>2026-04-11T15:06:15.003Z</time></trkpt><trkpt lat="44.281881699978236" lon="10.198404143680841"><ele>978.0</ele><time>2026-04-11T15:06:16.003Z</time></trkpt><trkpt lat="44.28178447012882" lon="10.198494577287077"><ele>978.0</ele><time>2026-04-11T15:06:17.003Z</time></trkpt><trkpt lat="44.28167440095752" lon="10.198586997836298"><ele>978.0</ele><time>2026-04-11T15:06:18.003Z</time></trkpt><trkpt lat="44.281541006393475" lon="10.198672528862936"><ele>978.0</ele><time>2026-04-11T15:06:19.003Z</time></trkpt><trkpt lat="44.2813944830469" lon="10.198756428162023"><ele>980.25</ele><time>2026-04-11T15:06:20.003Z</time></trkpt><trkpt lat="44.281246379211446" lon="10.198855156893424"><ele>982.5</ele><time>2026-04-11T15:06:21.003Z</time></trkpt><trkpt lat="44.281109241437974" lon="10.198932539103357"><ele>984.75</ele><time>2026-04-11T15:06:22.003Z</time></trkpt><trkpt lat="44.280978385242655" lon="10.198984725324278"><ele>987.0</ele><time>2026-04-11T15:06:23.003Z</time></trkpt><trkpt lat="44.28084650492408" lon="10.199046186719233"><ele>987.0</ele><time>2026-04-11T15:06:24.003Z</time></trkpt><trkpt lat="44.28071787760416" lon="10.199089886240564"><ele>987.0</ele><time>2026-04-11T15:06:25.003Z</time></trkpt><trkpt lat="44.28058085282301" lon="10.199114336379997"><ele>987.0</ele><time>2026-04-11T15:06:26.003Z</time></trkpt><trkpt lat="44.28044389483613" lon="10.199091343832109"><ele>987.0</ele><time>2026-04-11T15:06:27.003Z</time></trkpt><trkpt lat="44.280303891790574" lon="10.19903436663753"><ele>971.6666666666667</ele><time>2026-04-11T15:06:28.003Z</time></trkpt><trkpt lat="44.28015732258289" lon="10.19896128875418"><ele>956.3333333333334</ele><time>2026-04-11T15:06:29.003Z</time></trkpt><trkpt lat="44.28000874583336" lon="10.198875715719755"><ele>941.0</ele><time>2026-04-11T15:06:30.003Z</time></trkpt><trkpt lat="44.2798522194674" lon="10.198805982195442"><ele>948.75</ele><time>2026-04-11T15:06:31.003Z</time></trkpt><trkpt lat="44.27970975407274" lon="10.198746805904921"><ele>956.5</ele><time>2026-04-11T15:06:32.003Z</time></trkpt><trkpt lat="44.279582250120676" lon="10.1986848632145"><ele>964.25</ele><time>2026-04-11T15:06:33.003Z</time></trkpt><trkpt lat="44.27947169901406" lon="10.198610928096008"><ele>972.0</ele><time>2026-04-11T15:06:34.003Z</time></trkpt><trkpt lat="44.279373231674406" lon="10.198488316412078"><ele>972.0</ele><time>2026-04-11T15:06:35.003Z</time></trkpt><trkpt lat="44.2792933400087" lon="10.198324248387006"><ele>972.0</ele><time>2026-04-11T15:06:36.003Z</time></trkpt><trkpt lat="44.279226519171246" lon="10.198141230323534"><ele>972.0</ele><time>2026-04-11T15:06:37.003Z</time></trkpt><trkpt lat="44.279156002698116" lon="10.197952163008766"><ele>972.0</ele><time>2026-04-11T15:06:38.003Z</time></trkpt><trkpt lat="44.27906699418411" lon="10.197761113119745"><ele>969.0</ele><time>2026-04-11T15:06:39.003Z</time></trkpt><trkpt lat="44.27899163847496" lon="10.19755138498238"><ele>966.0</ele><time>2026-04-11T15:06:40.003Z</time></trkpt><trkpt lat="44.278931029336334" lon="10.197329876724575"><ele>963.0</ele><time>2026-04-11T15:06:41.003Z</time></trkpt><trkpt lat="44.27887881888853" lon="10.197106417986042"><ele>960.3333333333333</ele><time>2026-04-11T15:06:42.003Z</time></trkpt><trkpt lat="44.278827329372135" lon="10.196889537670687"><ele>957.6666666666666</ele><time>2026-04-11T15:06:43.003Z</time></trkpt><trkpt lat="44.2787730786588" lon="10.196669010127744"><ele>955.0</ele><time>2026-04-11T15:06:44.003Z</time></trkpt><trkpt lat="44.27871245248512" lon="10.196447090009112"><ele>953.0</ele><time>2026-04-11T15:06:45.003Z</time></trkpt><trkpt lat="44.278659292419704" lon="10.19623052749568"><ele>951.0</ele><time>2026-04-11T15:06:46.003Z</time></trkpt><trkpt lat="44.278597926417646" lon="10.196014915412094"><ele>949.0</ele><time>2026-04-11T15:06:47.003Z</time></trkpt><trkpt lat="44.27855053516989" lon="10.195819001186738"><ele>953.75</ele><time>2026-04-11T15:06:48.003Z</time></trkpt><trkpt lat="44.27850759644406" lon="10.195634620570615"><ele>958.5</ele><time>2026-04-11T15:06:49.003Z</time></trkpt><trkpt lat="44.27845840643916" lon="10.195455373038913"><ele>963.25</ele><time>2026-04-11T15:06:50.003Z</time></trkpt><trkpt lat="44.27841815003602" lon="10.195272023023122"><ele>968.0</ele><time>2026-04-11T15:06:51.003Z</time></trkpt><trkpt lat="44.27839761522346" lon="10.195084419603578"><ele>968.0</ele><time>2026-04-11T15:06:52.003Z</time></trkpt><trkpt lat="44.27840500392034" lon="10.19488475626177"><ele>968.0</ele><time>2026-04-11T15:06:53.003Z</time></trkpt><trkpt lat="44.27843443684057" lon="10.194667935386978"><ele>968.0</ele><time>2026-04-11T15:06:54.003Z</time></trkpt><trkpt lat="44.27849635407893" lon="10.194458797599339"><ele>972.0</ele><time>2026-04-11T15:06:55.003Z</time></trkpt><trkpt lat="44.27857026752894" lon="10.194250244748835"><ele>976.0</ele><time>2026-04-11T15:06:56.003Z</time></trkpt><trkpt lat="44.2786598022962" lon="10.194039830323735"><ele>980.0</ele><time>2026-04-11T15:06:57.003Z</time></trkpt><trkpt lat="44.278758387650896" lon="10.193836514837466"><ele>983.3333333333334</ele><time>2026-04-11T15:06:58.003Z</time></trkpt><trkpt lat="44.27887482978191" lon="10.193645134014524"><ele>986.6666666666667</ele><time>2026-04-11T15:06:59.003Z</time></trkpt><trkpt lat="44.27900141928812" lon="10.193468208813945"><ele>990.0</ele><time>2026-04-11T15:07:00.003Z</time></trkpt><trkpt lat="44.27912905975363" lon="10.193295339968612"><ele>987.6666666666667</ele><time>2026-04-11T15:07:01.003Z</time></trkpt><trkpt lat="44.27925040174532" lon="10.193134499069807"><ele>985.3333333333334</ele><time>2026-04-11T15:07:02.003Z</time></trkpt><trkpt lat="44.27937051135871" lon="10.192991439870198"><ele>983.0</ele><time>2026-04-11T15:07:03.003Z</time></trkpt><trkpt lat="44.2794747471928" lon="10.192863724977324"><ele>983.0</ele><time>2026-04-11T15:07:04.003Z</time></trkpt><trkpt lat="44.27956342407123" lon="10.192724722845012"><ele>983.0</ele><time>2026-04-11T15:07:05.003Z</time></trkpt><trkpt lat="44.279623272899045" lon="10.192565401294216"><ele>983.0</ele><time>2026-04-11T15:07:06.003Z</time></trkpt><trkpt lat="44.27966069778292" lon="10.192379925066062"><ele>983.0</ele><time>2026-04-11T15:07:07.003Z</time></trkpt><trkpt lat="44.27968308349683" lon="10.192173072572524"><ele>983.3333333333334</ele><time>2026-04-11T15:07:08.003Z</time></trkpt><trkpt lat="44.279686550649224" lon="10.191945388312387"><ele>983.6666666666667</ele><time>2026-04-11T15:07:09.003Z</time></trkpt><trkpt lat="44.27969219153444" lon="10.191696569468998"><ele>984.0</ele><time>2026-04-11T15:07:10.003Z</time></trkpt><trkpt lat="44.279697699470056" lon="10.191449797753386"><ele>980.0</ele><time>2026-04-11T15:07:11.003Z</time></trkpt><trkpt lat="44.27970027496011" lon="10.191224869394144"><ele>976.0</ele><time>2026-04-11T15:07:12.003Z</time></trkpt><trkpt lat="44.27970410001852" lon="10.191012396754264"><ele>972.0</ele><time>2026-04-11T15:07:13.003Z</time></trkpt><trkpt lat="44.2796790999554" lon="10.190817275559594"><ele>967.0</ele><time>2026-04-11T15:07:14.003Z</time></trkpt><trkpt lat="44.27961577694603" lon="10.190607544796157"><ele>962.0</ele><time>2026-04-11T15:07:15.003Z</time></trkpt><trkpt lat="44.2795275050454" lon="10.190412263212215"><ele>957.0</ele><time>2026-04-11T15:07:16.003Z</time></trkpt><trkpt lat="44.27942308263042" lon="10.190206692132472"><ele>957.0</ele><time>2026-04-11T15:07:17.003Z</time></trkpt><trkpt lat="44.27933140305328" lon="10.189981078488897"><ele>957.0</ele><time>2026-04-11T15:07:18.003Z</time></trkpt><trkpt lat="44.279257763087315" lon="10.189736520638897"><ele>957.0</ele><time>2026-04-11T15:07:19.003Z</time></trkpt><trkpt lat="44.27918841775842" lon="10.189471465799903"><ele>952.6666666666667</ele><time>2026-04-11T15:07:20.003Z</time></trkpt><trkpt lat="44.27912490863376" lon="10.18920526246329"><ele>948.3333333333334</ele><time>2026-04-11T15:07:21.003Z</time></trkpt><trkpt lat="44.27905952606636" lon="10.188963915427138"><ele>944.0</ele><time>2026-04-11T15:07:22.003Z</time></trkpt><trkpt lat="44.27900393439451" lon="10.18872010433725"><ele>940.3333333333334</ele><time>2026-04-11T15:07:23.003Z</time></trkpt><trkpt lat="44.27896079787348" lon="10.188462599122046"><ele>936.6666666666667</ele><time>2026-04-11T15:07:24.003Z</time></trkpt><trkpt lat="44.27892027331732" lon="10.188206088811578"><ele>933.0</ele><time>2026-04-11T15:07:25.003Z</time></trkpt><trkpt lat="44.27888392618937" lon="10.187963352209179"><ele>936.5</ele><time>2026-04-11T15:07:26.003Z</time></trkpt><trkpt lat="44.278847208643384" lon="10.18773341646877"><ele>940.0</ele><time>2026-04-11T15:07:27.003Z</time></trkpt><trkpt lat="44.278817443695935" lon="10.187526965077156"><ele>943.5</ele><time>2026-04-11T15:07:28.003Z</time></trkpt><trkpt lat="44.27880779202223" lon="10.187345879181544"><ele>947.0</ele><time>2026-04-11T15:07:29.003Z</time></trkpt><trkpt lat="44.27882259036712" lon="10.187167949355544"><ele>947.0</ele><time>2026-04-11T15:07:30.004Z</time></trkpt><trkpt lat="44.278879115327456" lon="10.187004406828093"><ele>947.0</ele><time>2026-04-11T15:07:31.004Z</time></trkpt><trkpt lat="44.27898788987734" lon="10.186848478256806"><ele>947.0</ele><time>2026-04-11T15:07:32.004Z</time></trkpt><trkpt lat="44.27911647531594" lon="10.18671978681018"><ele>947.0</ele><time>2026-04-11T15:07:33.004Z</time></trkpt><trkpt lat="44.279219906892806" lon="10.186589080667485"><ele>941.75</ele><time>2026-04-11T15:07:34.004Z</time></trkpt><trkpt lat="44.27929524709267" lon="10.186434080333392"><ele>936.5</ele><time>2026-04-11T15:07:35.004Z</time></trkpt><trkpt lat="44.279339371866946" lon="10.186261196280194"><ele>931.25</ele><time>2026-04-11T15:07:36.004Z</time></trkpt><trkpt lat="44.279338583879785" lon="10.186075856320901"><ele>926.0</ele><time>2026-04-11T15:07:37.004Z</time></trkpt><trkpt lat="44.27930500690369" lon="10.185902720593186"><ele>926.0</ele><time>2026-04-11T15:07:38.004Z</time></trkpt><trkpt lat="44.27924859606686" lon="10.185751420897239"><ele>926.0</ele><time>2026-04-11T15:07:39.004Z</time></trkpt><trkpt lat="44.27916779639407" lon="10.185624459497244"><ele>926.0</ele><time>2026-04-11T15:07:40.004Z</time></trkpt><trkpt lat="44.27906477781092" lon="10.185528439052359"><ele>926.0</ele><time>2026-04-11T15:07:41.004Z</time></trkpt><trkpt lat="44.27894037329667" lon="10.185477113453215"><ele>920.6666666666667</ele><time>2026-04-11T15:07:42.004Z</time></trkpt><trkpt lat="44.27879781412194" lon="10.185478322920751"><ele>915.3333333333333</ele><time>2026-04-11T15:07:43.004Z</time></trkpt><trkpt lat="44.278645502108574" lon="10.185515027364001"><ele>910.0</ele><time>2026-04-11T15:07:44.004Z</time></trkpt><trkpt lat="44.278481933155796" lon="10.185547157463148"><ele>910.0</ele><time>2026-04-11T15:07:45.004Z</time></trkpt><trkpt lat="44.27832618005939" lon="10.185584905905166"><ele>910.0</ele><time>2026-04-11T15:07:46.004Z</time></trkpt><trkpt lat="44.27818596564018" lon="10.185641949359987"><ele>910.0</ele><time>2026-04-11T15:07:47.004Z</time></trkpt><trkpt lat="44.27805655245594" lon="10.185719869623565"><ele>910.0</ele><time>2026-04-11T15:07:48.004Z</time></trkpt><trkpt lat="44.2779351796205" lon="10.185836670390612"><ele>912.25</ele><time>2026-04-11T15:07:49.004Z</time></trkpt><trkpt lat="44.27781273651636" lon="10.185941858544576"><ele>914.5</ele><time>2026-04-11T15:07:50.004Z</time></trkpt><trkpt lat="44.27767886462528" lon="10.186015839259811"><ele>916.75</ele><time>2026-04-11T15:07:51.004Z</time></trkpt><trkpt lat="44.277531308823015" lon="10.186060972917836"><ele>919.0</ele><time>2026-04-11T15:07:52.004Z</time></trkpt><trkpt lat="44.27738458113379" lon="10.186084541038838"><ele>920.75</ele><time>2026-04-11T15:07:53.004Z</time></trkpt><trkpt lat="44.27723683257493" lon="10.18607362145751"><ele>922.5</ele><time>2026-04-11T15:07:54.004Z</time></trkpt><trkpt lat="44.27709147455887" lon="10.186027389418472"><ele>924.25</ele><time>2026-04-11T15:07:55.004Z</time></trkpt><trkpt lat="44.27695160274683" lon="10.185948570825452"><ele>926.0</ele><time>2026-04-11T15:07:56.004Z</time></trkpt><trkpt lat="44.276805265086075" lon="10.185836458867392"><ele>926.0</ele><time>2026-04-11T15:07:57.004Z</time></trkpt><trkpt lat="44.27665894319643" lon="10.185725869610051"><ele>926.0</ele><time>2026-04-11T15:07:58.004Z</time></trkpt><trkpt lat="44.27652799524562" lon="10.185637062297351"><ele>926.0</ele><time>2026-04-11T15:07:59.004Z</time></trkpt><trkpt lat="44.27640908905408" lon="10.185520662774051"><ele>930.6666666666667</ele><time>2026-04-11T15:08:00.004Z</time></trkpt><trkpt lat="44.27630767512727" lon="10.185361380294243"><ele>935.3333333333333</ele><time>2026-04-11T15:08:01.004Z</time></trkpt><trkpt lat="44.27621450490004" lon="10.185160636558228"><ele>940.0</ele><time>2026-04-11T15:08:02.004Z</time></trkpt><trkpt lat="44.2761189304994" lon="10.18494361441193"><ele>937.0</ele><time>2026-04-11T15:08:03.004Z</time></trkpt><trkpt lat="44.276020087177" lon="10.184738265604505"><ele>934.0</ele><time>2026-04-11T15:08:04.004Z</time></trkpt><trkpt lat="44.27592095317318" lon="10.18454078692351"><ele>931.0</ele><time>2026-04-11T15:08:05.004Z</time></trkpt><trkpt lat="44.27583978086467" lon="10.184353600646844"><ele>931.0</ele><time>2026-04-11T15:08:06.004Z</time></trkpt><trkpt lat="44.275777026115875" lon="10.18415780864724"><ele>931.0</ele><time>2026-04-11T15:08:07.004Z</time></trkpt><trkpt lat="44.275718587047095" lon="10.183971893855542"><ele>931.0</ele><time>2026-04-11T15:08:08.004Z</time></trkpt><trkpt lat="44.275655417619994" lon="10.183776341161144"><ele>933.6666666666666</ele><time>2026-04-11T15:08:09.004Z</time></trkpt><trkpt lat="44.275574180989096" lon="10.183593299461657"><ele>936.3333333333333</ele><time>2026-04-11T15:08:10.004Z</time></trkpt><trkpt lat="44.27546377748303" lon="10.183437489410823"><ele>939.0</ele><time>2026-04-11T15:08:11.004Z</time></trkpt><trkpt lat="44.27532619128122" lon="10.183299473626857"><ele>937.0</ele><time>2026-04-11T15:08:12.004Z</time></trkpt><trkpt lat="44.27517222562745" lon="10.183168033402888"><ele>935.0</ele><time>2026-04-11T15:08:13.004Z</time></trkpt><trkpt lat="44.275011980539446" lon="10.183031933095444"><ele>933.0</ele><time>2026-04-11T15:08:14.004Z</time></trkpt><trkpt lat="44.27485939321405" lon="10.182902135459774"><ele>939.0</ele><time>2026-04-11T15:08:15.004Z</time></trkpt><trkpt lat="44.274720754318" lon="10.182781071732725"><ele>945.0</ele><time>2026-04-11T15:08:16.004Z</time></trkpt><trkpt lat="44.27459470263755" lon="10.182649111977282"><ele>951.0</ele><time>2026-04-11T15:08:17.004Z</time></trkpt><trkpt lat="44.27448712986478" lon="10.182484420800192"><ele>950.3333333333333</ele><time>2026-04-11T15:08:18.004Z</time></trkpt><trkpt lat="44.27439914697936" lon="10.182286728169199"><ele>949.6666666666666</ele><time>2026-04-11T15:08:19.004Z</time></trkpt><trkpt lat="44.27433988678714" lon="10.182069750417588"><ele>949.0</ele><time>2026-04-11T15:08:20.004Z</time></trkpt><trkpt lat="44.27431222495322" lon="10.181847793855429"><ele>949.0</ele><time>2026-04-11T15:08:21.004Z</time></trkpt><trkpt lat="44.274316210139524" lon="10.181629502627633"><ele>949.0</ele><time>2026-04-11T15:08:22.004Z</time></trkpt><trkpt lat="44.27433185201651" lon="10.181441440013787"><ele>949.0</ele><time>2026-04-11T15:08:23.004Z</time></trkpt><trkpt lat="44.27434261436788" lon="10.181277122153817"><ele>949.0</ele><time>2026-04-11T15:08:24.004Z</time></trkpt><trkpt lat="44.274323180029654" lon="10.181119737396855"><ele>951.25</ele><time>2026-04-11T15:08:25.004Z</time></trkpt><trkpt lat="44.274262528235305" lon="10.180981954825445"><ele>953.5</ele><time>2026-04-11T15:08:26.004Z</time></trkpt><trkpt lat="44.27417366770656" lon="10.180881848806527"><ele>955.75</ele><time>2026-04-11T15:08:27.004Z</time></trkpt><trkpt lat="44.27404137717364" lon="10.180784212834341"><ele>958.0</ele><time>2026-04-11T15:08:28.004Z</time></trkpt><trkpt lat="44.27387834970843" lon="10.180689563911775"><ele>946.3333333333333</ele><time>2026-04-11T15:08:29.004Z</time></trkpt><trkpt lat="44.27370157646179" lon="10.18060836605736"><ele>934.6666666666667</ele><time>2026-04-11T15:08:30.004Z</time></trkpt><trkpt lat="44.27350901388347" lon="10.180538595218659"><ele>923.0</ele><time>2026-04-11T15:08:31.004Z</time></trkpt><trkpt lat="44.27331639824251" lon="10.18047519415364"><ele>923.0</ele><time>2026-04-11T15:08:32.004Z</time></trkpt><trkpt lat="44.273142531926474" lon="10.180418044530018"><ele>923.0</ele><time>2026-04-11T15:08:33.004Z</time></trkpt><trkpt lat="44.27298583853772" lon="10.18037325322779"><ele>923.0</ele><time>2026-04-11T15:08:34.004Z</time></trkpt><trkpt lat="44.27284471849272" lon="10.180365058282272"><ele>919.6666666666667</ele><time>2026-04-11T15:08:35.004Z</time></trkpt><trkpt lat="44.27269958308686" lon="10.180396843493826"><ele>916.3333333333333</ele><time>2026-04-11T15:08:36.004Z</time></trkpt><trkpt lat="44.272544281082105" lon="10.180472382994038"><ele>913.0</ele><time>2026-04-11T15:08:37.004Z</time></trkpt><trkpt lat="44.27237769839976" lon="10.180562205184845"><ele>917.0</ele><time>2026-04-11T15:08:38.004Z</time></trkpt><trkpt lat="44.272205124463" lon="10.180664875752411"><ele>921.0</ele><time>2026-04-11T15:08:39.004Z</time></trkpt><trkpt lat="44.27203717980472" lon="10.1807764295604"><ele>925.0</ele><time>2026-04-11T15:08:40.004Z</time></trkpt><trkpt lat="44.271884664153525" lon="10.180881987479232"><ele>929.0</ele><time>2026-04-11T15:08:41.004Z</time></trkpt><trkpt lat="44.271743515236565" lon="10.180965755982674"><ele>933.0</ele><time>2026-04-11T15:08:42.004Z</time></trkpt><trkpt lat="44.27162451789584" lon="10.18103955933286"><ele>937.0</ele><time>2026-04-11T15:08:43.004Z</time></trkpt><trkpt lat="44.27151833053203" lon="10.181077528603742"><ele>941.0</ele><time>2026-04-11T15:08:44.004Z</time></trkpt><trkpt lat="44.2714206196346" lon="10.18106229278791"><ele>947.8</ele><time>2026-04-11T15:08:45.004Z</time></trkpt><trkpt lat="44.27133728788556" lon="10.18100769274214"><ele>954.5999999999999</ele><time>2026-04-11T15:08:46.004Z</time></trkpt><trkpt lat="44.27127244937523" lon="10.18087679717619"><ele>961.4</ele><time>2026-04-11T15:08:47.004Z</time></trkpt><trkpt lat="44.27126744674001" lon="10.180727002171395"><ele>968.2</ele><time>2026-04-11T15:08:48.004Z</time></trkpt><trkpt lat="44.27131717367887" lon="10.180581119572135"><ele>975.0</ele><time>2026-04-11T15:08:49.004Z</time></trkpt><trkpt lat="44.27136752968322" lon="10.180398949140207"><ele>975.0</ele><time>2026-04-11T15:08:50.004Z</time></trkpt><trkpt lat="44.27139017273508" lon="10.180196281194908"><ele>975.0</ele><time>2026-04-11T15:08:51.004Z</time></trkpt><trkpt lat="44.27137963457125" lon="10.179993971632612"><ele>975.0</ele><time>2026-04-11T15:08:52.004Z</time></trkpt><trkpt lat="44.27135399510578" lon="10.179800945313604"><ele>975.0</ele><time>2026-04-11T15:08:53.004Z</time></trkpt><trkpt lat="44.271317855330416" lon="10.179628119828486"><ele>970.75</ele><time>2026-04-11T15:08:54.004Z</time></trkpt><trkpt lat="44.27125142964551" lon="10.179466807348785"><ele>966.5</ele><time>2026-04-11T15:08:55.004Z</time></trkpt><trkpt lat="44.271157298968184" lon="10.179315483113761"><ele>962.25</ele><time>2026-04-11T15:08:56.004Z</time></trkpt><trkpt lat="44.271057692390926" lon="10.179149308493692"><ele>958.0</ele><time>2026-04-11T15:08:57.004Z</time></trkpt><trkpt lat="44.27095895582622" lon="10.17896671592471"><ele>954.0</ele><time>2026-04-11T15:08:58.004Z</time></trkpt><trkpt lat="44.27086905582526" lon="10.178780619355354"><ele>950.0</ele><time>2026-04-11T15:08:59.004Z</time></trkpt><trkpt lat="44.27080578401819" lon="10.178597448734344"><ele>946.0</ele><time>2026-04-11T15:09:00.004Z</time></trkpt><trkpt lat="44.27075464901898" lon="10.178426815744452"><ele>942.0</ele><time>2026-04-11T15:09:01.004Z</time></trkpt><trkpt lat="44.270694970194015" lon="10.178289660273409"><ele>943.2</ele><time>2026-04-11T15:09:02.004Z</time></trkpt><trkpt lat="44.27062337882233" lon="10.178183451793357"><ele>944.4000000000001</ele><time>2026-04-11T15:09:03.004Z</time></trkpt><trkpt lat="44.2705302934458" lon="10.178127157547872"><ele>945.5999999999999</ele><time>2026-04-11T15:09:04.004Z</time></trkpt><trkpt lat="44.2704183167462" lon="10.178121677899634"><ele>946.8</ele><time>2026-04-11T15:09:05.004Z</time></trkpt><trkpt lat="44.27030135100516" lon="10.178166002392802"><ele>948.0</ele><time>2026-04-11T15:09:06.004Z</time></trkpt><trkpt lat="44.270170291523165" lon="10.178220829118928"><ele>948.0</ele><time>2026-04-11T15:09:07.004Z</time></trkpt><trkpt lat="44.27003358582001" lon="10.178294055274398"><ele>948.0</ele><time>2026-04-11T15:09:08.004Z</time></trkpt><trkpt lat="44.2698864017576" lon="10.178372907146993"><ele>948.0</ele><time>2026-04-11T15:09:09.004Z</time></trkpt><trkpt lat="44.26973719816471" lon="10.178452588468296"><ele>943.6666666666667</ele><time>2026-04-11T15:09:10.004Z</time></trkpt><trkpt lat="44.26958453161634" lon="10.178512827219755"><ele>939.3333333333334</ele><time>2026-04-11T15:09:11.004Z</time></trkpt><trkpt lat="44.26943086163777" lon="10.178549047432705"><ele>935.0</ele><time>2026-04-11T15:09:12.004Z</time></trkpt><trkpt lat="44.26928825836692" lon="10.178566391854257"><ele>935.0</ele><time>2026-04-11T15:09:13.004Z</time></trkpt><trkpt lat="44.269164453034655" lon="10.17859611626735"><ele>935.0</ele><time>2026-04-11T15:09:14.004Z</time></trkpt><trkpt lat="44.26905358029941" lon="10.178674528710847"><ele>935.0</ele><time>2026-04-11T15:09:15.004Z</time></trkpt><trkpt lat="44.26894413077905" lon="10.178787789454923"><ele>935.0</ele><time>2026-04-11T15:09:16.004Z</time></trkpt><trkpt lat="44.26881500105828" lon="10.178879764989723"><ele>939.75</ele><time>2026-04-11T15:09:17.004Z</time></trkpt><trkpt lat="44.26867587722293" lon="10.178950161118443"><ele>944.5</ele><time>2026-04-11T15:09:18.004Z</time></trkpt><trkpt lat="44.26854221298363" lon="10.179020206803925"><ele>949.25</ele><time>2026-04-11T15:09:19.004Z</time></trkpt><trkpt lat="44.26842240954654" lon="10.179113134834681"><ele>954.0</ele><time>2026-04-11T15:09:20.004Z</time></trkpt><trkpt lat="44.26832009180435" lon="10.179241034931305"><ele>954.0</ele><time>2026-04-11T15:09:21.004Z</time></trkpt><trkpt lat="44.26824063468918" lon="10.179381969888738"><ele>954.0</ele><time>2026-04-11T15:09:22.004Z</time></trkpt><trkpt lat="44.26815693620461" lon="10.179517871825364"><ele>954.0</ele><time>2026-04-11T15:09:23.004Z</time></trkpt><trkpt lat="44.26808563425875" lon="10.179633781545432"><ele>954.0</ele><time>2026-04-11T15:09:24.004Z</time></trkpt><trkpt lat="44.26800439680145" lon="10.179713787823232"><ele>949.8000000000001</ele><time>2026-04-11T15:09:25.004Z</time></trkpt><trkpt lat="44.26790595957094" lon="10.179723202632058"><ele>945.6000000000001</ele><time>2026-04-11T15:09:26.004Z</time></trkpt><trkpt lat="44.26781595799195" lon="10.179661284703243"><ele>941.4</ele><time>2026-04-11T15:09:27.004Z</time></trkpt><trkpt lat="44.26774353204279" lon="10.179538086427703"><ele>937.2</ele><time>2026-04-11T15:09:28.004Z</time></trkpt><trkpt lat="44.26767963721994" lon="10.179417944469892"><ele>933.0</ele><time>2026-04-11T15:09:29.005Z</time></trkpt><trkpt lat="44.267605357904294" lon="10.179368695400061"><ele>933.0</ele><time>2026-04-11T15:09:30.005Z</time></trkpt><trkpt lat="44.26750294839912" lon="10.17938951234877"><ele>933.0</ele><time>2026-04-11T15:09:31.005Z</time></trkpt><trkpt lat="44.26738544912869" lon="10.179442390654637"><ele>933.0</ele><time>2026-04-11T15:09:32.005Z</time></trkpt><trkpt lat="44.26727398094023" lon="10.179512196670508"><ele>933.0</ele><time>2026-04-11T15:09:33.005Z</time></trkpt><trkpt lat="44.26714664919007" lon="10.179578345754141"><ele>932.0</ele><time>2026-04-11T15:09:34.005Z</time></trkpt><trkpt lat="44.267023188630894" lon="10.179650761496694"><ele>931.0</ele><time>2026-04-11T15:09:35.005Z</time></trkpt><trkpt lat="44.26691967927658" lon="10.179711038667646"><ele>930.0</ele><time>2026-04-11T15:09:36.005Z</time></trkpt><trkpt lat="44.266804229383446" lon="10.179711082309172"><ele>929.0</ele><time>2026-04-11T15:09:37.005Z</time></trkpt><trkpt lat="44.266695423402744" lon="10.179646880177215"><ele>929.0</ele><time>2026-04-11T15:09:38.005Z</time></trkpt><trkpt lat="44.266582487627524" lon="10.17953579703998"><ele>929.0</ele><time>2026-04-11T15:09:39.005Z</time></trkpt><trkpt lat="44.26645409529526" lon="10.179430435013074"><ele>929.0</ele><time>2026-04-11T15:09:40.005Z</time></trkpt><trkpt lat="44.26632612673741" lon="10.17933203235694"><ele>929.0</ele><time>2026-04-11T15:09:41.005Z</time></trkpt><trkpt lat="44.266191526017465" lon="10.179240082654836"><ele>932.3333333333334</ele><time>2026-04-11T15:09:42.005Z</time></trkpt><trkpt lat="44.26604850479613" lon="10.179181395134899"><ele>935.6666666666667</ele><time>2026-04-11T15:09:43.005Z</time></trkpt><trkpt lat="44.265892327995566" lon="10.179146318834427"><ele>939.0</ele><time>2026-04-11T15:09:44.005Z</time></trkpt><trkpt lat="44.265737371761865" lon="10.179129117122653"><ele>946.0</ele><time>2026-04-11T15:09:45.005Z</time></trkpt><trkpt lat="44.265593047446025" lon="10.17912802110864"><ele>953.0</ele><time>2026-04-11T15:09:46.005Z</time></trkpt><trkpt lat="44.26546937348373" lon="10.179124871951313"><ele>960.0</ele><time>2026-04-11T15:09:47.005Z</time></trkpt><trkpt lat="44.26536158282286" lon="10.17911170273194"><ele>967.0</ele><time>2026-04-11T15:09:48.005Z</time></trkpt><trkpt lat="44.26527340469099" lon="10.17903714854837"><ele>962.25</ele><time>2026-04-11T15:09:49.005Z</time></trkpt><trkpt lat="44.26521385966659" lon="10.178902239494027"><ele>957.5</ele><time>2026-04-11T15:09:50.005Z</time></trkpt><trkpt lat="44.2652130606947" lon="10.178725329727094"><ele>952.75</ele><time>2026-04-11T15:09:51.005Z</time></trkpt><trkpt lat="44.265244057929415" lon="10.1785309147136"><ele>948.0</ele><time>2026-04-11T15:09:52.005Z</time></trkpt><trkpt lat="44.26528797898832" lon="10.17831702066828"><ele>944.0</ele><time>2026-04-11T15:09:53.005Z</time></trkpt><trkpt lat="44.26532646497896" lon="10.178091897937845"><ele>940.0</ele><time>2026-04-11T15:09:54.005Z</time></trkpt><trkpt lat="44.265349925228634" lon="10.177873709683364"><ele>936.0</ele><time>2026-04-11T15:09:55.005Z</time></trkpt><trkpt lat="44.265367662778004" lon="10.177676015371665"><ele>936.0</ele><time>2026-04-11T15:09:56.005Z</time></trkpt><trkpt lat="44.26536647519109" lon="10.177494194189446"><ele>936.0</ele><time>2026-04-11T15:09:57.005Z</time></trkpt><trkpt lat="44.2653314870477" lon="10.177308103079358"><ele>936.0</ele><time>2026-04-11T15:09:58.005Z</time></trkpt><trkpt lat="44.265270160272365" lon="10.177121348893023"><ele>936.0</ele><time>2026-04-11T15:09:59.005Z</time></trkpt><trkpt lat="44.26523484864106" lon="10.176923337895461"><ele>933.3333333333333</ele><time>2026-04-11T15:10:00.005Z</time></trkpt><trkpt lat="44.26521672761493" lon="10.176687332849744"><ele>930.6666666666666</ele><time>2026-04-11T15:10:01.005Z</time></trkpt><trkpt lat="44.265211781745066" lon="10.176440838707434"><ele>928.0</ele><time>2026-04-11T15:10:02.005Z</time></trkpt><trkpt lat="44.265209140330285" lon="10.176179541953585"><ele>927.6666666666666</ele><time>2026-04-11T15:10:03.005Z</time></trkpt><trkpt lat="44.26521775552414" lon="10.175912117960522"><ele>927.3333333333333</ele><time>2026-04-11T15:10:04.005Z</time></trkpt><trkpt lat="44.26525329312792" lon="10.17564746969535"><ele>927.0</ele><time>2026-04-11T15:10:05.005Z</time></trkpt><trkpt lat="44.26528918447521" lon="10.175397158128353"><ele>927.0</ele><time>2026-04-11T15:10:06.005Z</time></trkpt><trkpt lat="44.265308649614" lon="10.17515319170564"><ele>927.0</ele><time>2026-04-11T15:10:07.005Z</time></trkpt><trkpt lat="44.26530440533344" lon="10.174913067435183"><ele>927.0</ele><time>2026-04-11T15:10:08.005Z</time></trkpt><trkpt lat="44.2652739588522" lon="10.174654328175011"><ele>926.0</ele><time>2026-04-11T15:10:09.005Z</time></trkpt><trkpt lat="44.26522447268028" lon="10.17440196586538"><ele>925.0</ele><time>2026-04-11T15:10:10.005Z</time></trkpt><trkpt lat="44.26516610041122" lon="10.174157494560653"><ele>924.0</ele><time>2026-04-11T15:10:11.005Z</time></trkpt><trkpt lat="44.265129912287605" lon="10.173912134776154"><ele>921.3333333333333</ele><time>2026-04-11T15:10:12.005Z</time></trkpt><trkpt lat="44.265118686169124" lon="10.173642625357557"><ele>918.6666666666666</ele><time>2026-04-11T15:10:13.005Z</time></trkpt><trkpt lat="44.26512751704833" lon="10.173382109284242"><ele>916.0</ele><time>2026-04-11T15:10:14.005Z</time></trkpt><trkpt lat="44.26514919779151" lon="10.173154567203516"><ele>912.25</ele><time>2026-04-11T15:10:15.005Z</time></trkpt><trkpt lat="44.26517830730144" lon="10.172975821983421"><ele>908.5</ele><time>2026-04-11T15:10:16.005Z</time></trkpt><trkpt lat="44.26519592483898" lon="10.172824892403483"><ele>904.75</ele><time>2026-04-11T15:10:17.005Z</time></trkpt><trkpt lat="44.26518179624511" lon="10.172683238980165"><ele>901.0</ele><time>2026-04-11T15:10:18.005Z</time></trkpt><trkpt lat="44.26510631840248" lon="10.172556469926802"><ele>901.0</ele><time>2026-04-11T15:10:19.005Z</time></trkpt><trkpt lat="44.264995578294254" lon="10.17245142371324"><ele>901.0</ele><time>2026-04-11T15:10:20.005Z</time></trkpt><trkpt lat="44.264875803508666" lon="10.172308955825438"><ele>901.0</ele><time>2026-04-11T15:10:21.005Z</time></trkpt><trkpt lat="44.26475662812145" lon="10.172122453415998"><ele>904.3333333333333</ele><time>2026-04-11T15:10:22.005Z</time></trkpt><trkpt lat="44.26464757760568" lon="10.171909979743615"><ele>907.6666666666667</ele><time>2026-04-11T15:10:23.005Z</time></trkpt><trkpt lat="44.26453042532493" lon="10.171661397213395"><ele>911.0</ele><time>2026-04-11T15:10:24.005Z</time></trkpt><trkpt lat="44.26441261954575" lon="10.171414265585335"><ele>904.3333333333334</ele><time>2026-04-11T15:10:25.005Z</time></trkpt><trkpt lat="44.26430317438889" lon="10.171187245916213"><ele>897.6666666666667</ele><time>2026-04-11T15:10:26.005Z</time></trkpt><trkpt lat="44.26420112488204" lon="10.170967646903453"><ele>891.0</ele><time>2026-04-11T15:10:27.005Z</time></trkpt><trkpt lat="44.26412012687331" lon="10.170741817146855"><ele>887.6666666666667</ele><time>2026-04-11T15:10:28.005Z</time></trkpt><trkpt lat="44.26407062671925" lon="10.17049018664453"><ele>884.3333333333334</ele><time>2026-04-11T15:10:29.005Z</time></trkpt><trkpt lat="44.26406453304824" lon="10.170209727103607"><ele>881.0</ele><time>2026-04-11T15:10:30.005Z</time></trkpt><trkpt lat="44.264072984430946" lon="10.169909097415868"><ele>879.0</ele><time>2026-04-11T15:10:31.005Z</time></trkpt><trkpt lat="44.26408657426103" lon="10.169600116596772"><ele>877.0</ele><time>2026-04-11T15:10:32.005Z</time></trkpt><trkpt lat="44.26409028206939" lon="10.169304844664085"><ele>875.0</ele><time>2026-04-11T15:10:33.005Z</time></trkpt><trkpt lat="44.26409041936055" lon="10.16903442981352"><ele>872.0</ele><time>2026-04-11T15:10:34.005Z</time></trkpt><trkpt lat="44.26408554003809" lon="10.168798870268626"><ele>869.0</ele><time>2026-04-11T15:10:35.005Z</time></trkpt><trkpt lat="44.26408098957694" lon="10.168592053193168"><ele>866.0</ele><time>2026-04-11T15:10:36.005Z</time></trkpt><trkpt lat="44.26405226017737" lon="10.168395922030419"><ele>866.0</ele><time>2026-04-11T15:10:37.005Z</time></trkpt><trkpt lat="44.263987568044925" lon="10.168217309797418"><ele>866.0</ele><time>2026-04-11T15:10:38.005Z</time></trkpt><trkpt lat="44.263905271238066" lon="10.16803658174772"><ele>866.0</ele><time>2026-04-11T15:10:39.005Z</time></trkpt><trkpt lat="44.26383140395799" lon="10.167884892233014"><ele>866.0</ele><time>2026-04-11T15:10:40.005Z</time></trkpt><trkpt lat="44.26375366597581" lon="10.167762268816146"><ele>864.25</ele><time>2026-04-11T15:10:41.005Z</time></trkpt><trkpt lat="44.263660464759695" lon="10.167682294289026"><ele>862.5</ele><time>2026-04-11T15:10:42.005Z</time></trkpt><trkpt lat="44.26353797139304" lon="10.167662218165432"><ele>860.75</ele><time>2026-04-11T15:10:43.005Z</time></trkpt><trkpt lat="44.26340274788708" lon="10.167700444210885"><ele>859.0</ele><time>2026-04-11T15:10:44.005Z</time></trkpt><trkpt lat="44.26324748494415" lon="10.167753665056631"><ele>858.3333333333333</ele><time>2026-04-11T15:10:45.005Z</time></trkpt><trkpt lat="44.26308592765872" lon="10.167801110674692"><ele>857.6666666666667</ele><time>2026-04-11T15:10:46.005Z</time></trkpt><trkpt lat="44.26293098610704" lon="10.167827828868981"><ele>857.0</ele><time>2026-04-11T15:10:47.005Z</time></trkpt><trkpt lat="44.2627795030705" lon="10.167826683535207"><ele>857.0</ele><time>2026-04-11T15:10:48.005Z</time></trkpt><trkpt lat="44.26262814450649" lon="10.16779768541785"><ele>857.0</ele><time>2026-04-11T15:10:49.005Z</time></trkpt><trkpt lat="44.262475038620245" lon="10.167723263549552"><ele>857.0</ele><time>2026-04-11T15:10:50.005Z</time></trkpt><trkpt lat="44.26232920412156" lon="10.16760864895123"><ele>858.6666666666667</ele><time>2026-04-11T15:10:51.005Z</time></trkpt><trkpt lat="44.26218108004978" lon="10.167466197455838"><ele>860.3333333333333</ele><time>2026-04-11T15:10:52.005Z</time></trkpt><trkpt lat="44.262014395350036" lon="10.16733491236308"><ele>862.0</ele><time>2026-04-11T15:10:53.005Z</time></trkpt><trkpt lat="44.26183898231501" lon="10.167222056859032"><ele>854.6666666666666</ele><time>2026-04-11T15:10:54.005Z</time></trkpt><trkpt lat="44.26168620458689" lon="10.167068934092628"><ele>847.3333333333333</ele><time>2026-04-11T15:10:55.005Z</time></trkpt><trkpt lat="44.26152522655737" lon="10.166911712145273"><ele>840.0</ele><time>2026-04-11T15:10:56.005Z</time></trkpt><trkpt lat="44.26136479779693" lon="10.166768148603168"><ele>838.6666666666667</ele><time>2026-04-11T15:10:57.005Z</time></trkpt><trkpt lat="44.26120576924057" lon="10.166630422900422"><ele>837.3333333333334</ele><time>2026-04-11T15:10:58.005Z</time></trkpt><trkpt lat="44.26105351651995" lon="10.166521826707397"><ele>836.0</ele><time>2026-04-11T15:10:59.005Z</time></trkpt><trkpt lat="44.26091150880139" lon="10.166448986679626"><ele>834.25</ele><time>2026-04-11T15:11:00.005Z</time></trkpt><trkpt lat="44.260778265054896" lon="10.166361377547371"><ele>832.5</ele><time>2026-04-11T15:11:01.005Z</time></trkpt><trkpt lat="44.260673571090024" lon="10.166224388885952"><ele>830.75</ele><time>2026-04-11T15:11:02.005Z</time></trkpt><trkpt lat="44.260591955272844" lon="10.166050032672452"><ele>829.0</ele><time>2026-04-11T15:11:03.005Z</time></trkpt><trkpt lat="44.26052765435692" lon="10.165867755068225"><ele>828.8000000000001</ele><time>2026-04-11T15:11:04.005Z</time></trkpt><trkpt lat="44.26047040229673" lon="10.165721794884714"><ele>828.6</ele><time>2026-04-11T15:11:05.005Z</time></trkpt><trkpt lat="44.26039674882608" lon="10.165618030670169"><ele>828.4</ele><time>2026-04-11T15:11:06.005Z</time></trkpt><trkpt lat="44.2602993098148" lon="10.165579852446294"><ele>828.2</ele><time>2026-04-11T15:11:07.005Z</time></trkpt><trkpt lat="44.260205577649174" lon="10.165621521132561"><ele>828.0</ele><time>2026-04-11T15:11:08.005Z</time></trkpt><trkpt lat="44.260148229296064" lon="10.165725385686779"><ele>826.5</ele><time>2026-04-11T15:11:09.005Z</time></trkpt><trkpt lat="44.26015178114941" lon="10.165866319174397"><ele>825.0</ele><time>2026-04-11T15:11:10.005Z</time></trkpt><trkpt lat="44.26019466502117" lon="10.166024816926713"><ele>823.5</ele><time>2026-04-11T15:11:11.005Z</time></trkpt><trkpt lat="44.26027172791903" lon="10.166172528557574"><ele>822.0</ele><time>2026-04-11T15:11:12.005Z</time></trkpt><trkpt lat="44.26038204642552" lon="10.166325552428729"><ele>822.0</ele><time>2026-04-11T15:11:13.005Z</time></trkpt><trkpt lat="44.26049199134958" lon="10.166502830903783"><ele>822.0</ele><time>2026-04-11T15:11:14.005Z</time></trkpt><trkpt lat="44.26058167906275" lon="10.166688212535778"><ele>822.0</ele><time>2026-04-11T15:11:15.005Z</time></trkpt><trkpt lat="44.26064558768122" lon="10.166880759281613"><ele>825.5</ele><time>2026-04-11T15:11:16.005Z</time></trkpt><trkpt lat="44.26068487032596" lon="10.167074784862201"><ele>829.0</ele><time>2026-04-11T15:11:17.005Z</time></trkpt><trkpt lat="44.26069589568704" lon="10.167264420655"><ele>832.5</ele><time>2026-04-11T15:11:18.005Z</time></trkpt><trkpt lat="44.260665991988475" lon="10.167449490160957"><ele>836.0</ele><time>2026-04-11T15:11:19.005Z</time></trkpt><trkpt lat="44.26061950888744" lon="10.167647557315474"><ele>819.6666666666667</ele><time>2026-04-11T15:11:20.005Z</time></trkpt><trkpt lat="44.26055188708384" lon="10.167855020367993"><ele>803.3333333333333</ele><time>2026-04-11T15:11:21.005Z</time></trkpt><trkpt lat="44.260485740224" lon="10.168053381095891"><ele>787.0</ele><time>2026-04-11T15:11:22.005Z</time></trkpt><trkpt lat="44.26044264322593" lon="10.168239094140832"><ele>787.0</ele><time>2026-04-11T15:11:23.005Z</time></trkpt><trkpt lat="44.260428948483884" lon="10.168428478044692"><ele>787.0</ele><time>2026-04-11T15:11:24.005Z</time></trkpt><trkpt lat="44.26045324079095" lon="10.16862120644748"><ele>787.0</ele><time>2026-04-11T15:11:25.005Z</time></trkpt><trkpt lat="44.26050868565351" lon="10.16880893878837"><ele>787.0</ele><time>2026-04-11T15:11:26.005Z</time></trkpt><trkpt lat="44.26057971564604" lon="10.168992787085044"><ele>796.0</ele><time>2026-04-11T15:11:27.005Z</time></trkpt><trkpt lat="44.26064796523592" lon="10.169157675492684"><ele>805.0</ele><time>2026-04-11T15:11:28.006Z</time></trkpt><trkpt lat="44.26069549505227" lon="10.169353778964762"><ele>814.0</ele><time>2026-04-11T15:11:29.006Z</time></trkpt><trkpt lat="44.26072318040583" lon="10.169537110680974"><ele>823.0</ele><time>2026-04-11T15:11:30.006Z</time></trkpt><trkpt lat="44.260712923326075" lon="10.16969996689678"><ele>823.0</ele><time>2026-04-11T15:11:31.006Z</time></trkpt><trkpt lat="44.26065464225412" lon="10.169846297563554"><ele>823.0</ele><time>2026-04-11T15:11:32.006Z</time></trkpt><trkpt lat="44.26055136154672" lon="10.16997440707736"><ele>823.0</ele><time>2026-04-11T15:11:33.006Z</time></trkpt><trkpt lat="44.2604498318816" lon="10.1700974648238"><ele>823.0</ele><time>2026-04-11T15:11:34.006Z</time></trkpt><trkpt lat="44.26037926146921" lon="10.170242468232196"><ele>810.5</ele><time>2026-04-11T15:11:35.006Z</time></trkpt><trkpt lat="44.26034761260462" lon="10.170407871103901"><ele>798.0</ele><time>2026-04-11T15:11:36.006Z</time></trkpt><trkpt lat="44.26035900572851" lon="10.17058103665153"><ele>785.5</ele><time>2026-04-11T15:11:37.006Z</time></trkpt><trkpt lat="44.26041730262119" lon="10.170765071741155"><ele>773.0</ele><time>2026-04-11T15:11:38.006Z</time></trkpt><trkpt lat="44.26050896813359" lon="10.1709627527289"><ele>779.6666666666667</ele><time>2026-04-11T15:11:39.006Z</time></trkpt><trkpt lat="44.26061761594807" lon="10.17116268622477"><ele>786.3333333333333</ele><time>2026-04-11T15:11:40.006Z</time></trkpt><trkpt lat="44.26070909346246" lon="10.171346713047834"><ele>793.0</ele><time>2026-04-11T15:11:41.006Z</time></trkpt><trkpt lat="44.260777377587836" lon="10.171540385519977"><ele>793.0</ele><time>2026-04-11T15:11:42.006Z</time></trkpt><trkpt lat="44.26084956698344" lon="10.171712724487936"><ele>793.0</ele><time>2026-04-11T15:11:43.006Z</time></trkpt><trkpt lat="44.26093679372869" lon="10.171852864183828"><ele>793.0</ele><time>2026-04-11T15:11:44.006Z</time></trkpt><trkpt lat="44.26105098673779" lon="10.171938968529894"><ele>793.0</ele><time>2026-04-11T15:11:45.006Z</time></trkpt><trkpt lat="44.26116880020961" lon="10.17201116923662"><ele>793.0</ele><time>2026-04-11T15:11:46.006Z</time></trkpt><trkpt lat="44.26126125130303" lon="10.172132724633318"><ele>793.0</ele><time>2026-04-11T15:11:47.006Z</time></trkpt><trkpt lat="44.2613398682182" lon="10.172314854724512"><ele>793.0</ele><time>2026-04-11T15:11:48.006Z</time></trkpt><trkpt lat="44.26141451255563" lon="10.172524750634215"><ele>793.0</ele><time>2026-04-11T15:11:49.006Z</time></trkpt><trkpt lat="44.261495778817235" lon="10.172738074337142"><ele>798.0</ele><time>2026-04-11T15:11:50.006Z</time></trkpt><trkpt lat="44.261605424521534" lon="10.172955625971374"><ele>803.0</ele><time>2026-04-11T15:11:51.006Z</time></trkpt><trkpt lat="44.261733311767586" lon="10.173165116604732"><ele>808.0</ele><time>2026-04-11T15:11:52.006Z</time></trkpt><trkpt lat="44.26186051302557" lon="10.173371053053367"><ele>798.0</ele><time>2026-04-11T15:11:53.006Z</time></trkpt><trkpt lat="44.26197507186244" lon="10.17356980876281"><ele>788.0</ele><time>2026-04-11T15:11:54.006Z</time></trkpt><trkpt lat="44.26207277191458" lon="10.173745088127415"><ele>778.0</ele><time>2026-04-11T15:11:55.006Z</time></trkpt><trkpt lat="44.26214803328234" lon="10.173896509633087"><ele>773.25</ele><time>2026-04-11T15:11:56.006Z</time></trkpt><trkpt lat="44.26219829077441" lon="10.17405506597564"><ele>768.5</ele><time>2026-04-11T15:11:57.006Z</time></trkpt><trkpt lat="44.26220748890239" lon="10.174232235957069"><ele>763.75</ele><time>2026-04-11T15:11:58.006Z</time></trkpt><trkpt lat="44.262174216409086" lon="10.174411159726175"><ele>759.0</ele><time>2026-04-11T15:11:59.006Z</time></trkpt><trkpt lat="44.262095881408605" lon="10.174557039980929"><ele>759.0</ele><time>2026-04-11T15:12:00.006Z</time></trkpt><trkpt lat="44.261975712717394" lon="10.174650945146002"><ele>759.0</ele><time>2026-04-11T15:12:01.006Z</time></trkpt><trkpt lat="44.26182485630923" lon="10.174701434751896"><ele>759.0</ele><time>2026-04-11T15:12:02.006Z</time></trkpt><trkpt lat="44.261669905651985" lon="10.174759699263069"><ele>759.0</ele><time>2026-04-11T15:12:03.006Z</time></trkpt><trkpt lat="44.26154347263031" lon="10.174847573963909"><ele>759.0</ele><time>2026-04-11T15:12:04.006Z</time></trkpt><trkpt lat="44.2614327736231" lon="10.174966819445016"><ele>759.0</ele><time>2026-04-11T15:12:05.006Z</time></trkpt><trkpt lat="44.261316816985556" lon="10.175047190420214"><ele>759.0</ele><time>2026-04-11T15:12:06.006Z</time></trkpt><trkpt lat="44.26117875681868" lon="10.1750546456623"><ele>762.3333333333333</ele><time>2026-04-11T15:12:07.006Z</time></trkpt><trkpt lat="44.26101851207372" lon="10.175031419353969"><ele>765.6666666666666</ele><time>2026-04-11T15:12:08.006Z</time></trkpt><trkpt lat="44.26084909608018" lon="10.174999098860374"><ele>769.0</ele><time>2026-04-11T15:12:09.006Z</time></trkpt><trkpt lat="44.26066841426851" lon="10.174951147257296"><ele>768.6666666666666</ele><time>2026-04-11T15:12:10.006Z</time></trkpt><trkpt lat="44.26047665365036" lon="10.174899816849909"><ele>768.3333333333333</ele><time>2026-04-11T15:12:11.006Z</time></trkpt><trkpt lat="44.26028056494431" lon="10.174844924039855"><ele>768.0</ele><time>2026-04-11T15:12:12.006Z</time></trkpt><trkpt lat="44.26009275153487" lon="10.174807271540095"><ele>755.0</ele><time>2026-04-11T15:12:13.006Z</time></trkpt><trkpt lat="44.259883678565274" lon="10.174776973479611"><ele>742.0</ele><time>2026-04-11T15:12:14.006Z</time></trkpt><trkpt lat="44.259678945718434" lon="10.174735291704698"><ele>729.0</ele><time>2026-04-11T15:12:15.006Z</time></trkpt><trkpt lat="44.2594928695641" lon="10.174683875541772"><ele>729.0</ele><time>2026-04-11T15:12:16.006Z</time></trkpt><trkpt lat="44.25932082116048" lon="10.174612093833666"><ele>729.0</ele><time>2026-04-11T15:12:17.006Z</time></trkpt><trkpt lat="44.25916814921718" lon="10.174511949016319"><ele>729.0</ele><time>2026-04-11T15:12:18.006Z</time></trkpt><trkpt lat="44.25905101241046" lon="10.174423829607848"><ele>725.0</ele><time>2026-04-11T15:12:19.006Z</time></trkpt><trkpt lat="44.258949677191204" lon="10.174364135601063"><ele>721.0</ele><time>2026-04-11T15:12:20.006Z</time></trkpt><trkpt lat="44.25883865049963" lon="10.174325178101851"><ele>717.0</ele><time>2026-04-11T15:12:21.006Z</time></trkpt><trkpt lat="44.25871982938407" lon="10.174364560327916"><ele>713.0</ele><time>2026-04-11T15:12:22.006Z</time></trkpt><trkpt lat="44.25862824674394" lon="10.174450553305586"><ele>713.0</ele><time>2026-04-11T15:12:23.006Z</time></trkpt><trkpt lat="44.25856370497429" lon="10.174562645879533"><ele>713.0</ele><time>2026-04-11T15:12:24.006Z</time></trkpt><trkpt lat="44.258558535499134" lon="10.1747108840736"><ele>713.0</ele><time>2026-04-11T15:12:25.006Z</time></trkpt><trkpt lat="44.25857011664861" lon="10.174921367114846"><ele>713.0</ele><time>2026-04-11T15:12:26.006Z</time></trkpt><trkpt lat="44.25856015002274" lon="10.175141605635165"><ele>714.0</ele><time>2026-04-11T15:12:27.006Z</time></trkpt><trkpt lat="44.25856727551256" lon="10.175338626503466"><ele>715.0</ele><time>2026-04-11T15:12:28.006Z</time></trkpt><trkpt lat="44.258561113476546" lon="10.17551115654762"><ele>716.0</ele><time>2026-04-11T15:12:29.006Z</time></trkpt><trkpt lat="44.258575956994896" lon="10.175654005923114"><ele>717.0</ele><time>2026-04-11T15:12:30.006Z</time></trkpt><trkpt lat="44.258646081249005" lon="10.175789392014446"><ele>717.0</ele><time>2026-04-11T15:12:31.006Z</time></trkpt><trkpt lat="44.25874027561801" lon="10.175922153142375"><ele>717.0</ele><time>2026-04-11T15:12:32.006Z</time></trkpt><trkpt lat="44.258835449438514" lon="10.176109687059157"><ele>717.0</ele><time>2026-04-11T15:12:33.006Z</time></trkpt><trkpt lat="44.25894299041598" lon="10.176295941358884"><ele>720.75</ele><time>2026-04-11T15:12:34.006Z</time></trkpt><trkpt lat="44.259043382283494" lon="10.176455478893704"><ele>724.5</ele><time>2026-04-11T15:12:35.006Z</time></trkpt><trkpt lat="44.25914051114417" lon="10.1766051746732"><ele>728.25</ele><time>2026-04-11T15:12:36.006Z</time></trkpt><trkpt lat="44.259232711523865" lon="10.176745827160875"><ele>732.0</ele><time>2026-04-11T15:12:37.006Z</time></trkpt><trkpt lat="44.2592977796207" lon="10.176899960204924"><ele>732.0</ele><time>2026-04-11T15:12:38.006Z</time></trkpt><trkpt lat="44.25933375912205" lon="10.177052103382666"><ele>732.0</ele><time>2026-04-11T15:12:39.006Z</time></trkpt><trkpt lat="44.259325920318936" lon="10.177228895492823"><ele>732.0</ele><time>2026-04-11T15:12:40.006Z</time></trkpt><trkpt lat="44.25933322119373" lon="10.17739161963148"><ele>732.0</ele><time>2026-04-11T15:12:41.006Z</time></trkpt><trkpt lat="44.25938728188787" lon="10.177558673862848"><ele>727.5</ele><time>2026-04-11T15:12:42.006Z</time></trkpt><trkpt lat="44.25947860860001" lon="10.177716224512608"><ele>723.0</ele><time>2026-04-11T15:12:43.006Z</time></trkpt><trkpt lat="44.25957839426537" lon="10.177867328372018"><ele>718.5</ele><time>2026-04-11T15:12:44.006Z</time></trkpt><trkpt lat="44.259675421963145" lon="10.178003883182075"><ele>714.0</ele><time>2026-04-11T15:12:45.006Z</time></trkpt><trkpt lat="44.25975169215113" lon="10.178150172165273"><ele>718.8000000000001</ele><time>2026-04-11T15:12:46.006Z</time></trkpt><trkpt lat="44.25980886245343" lon="10.178291961943918"><ele>723.6</ele><time>2026-04-11T15:12:47.006Z</time></trkpt><trkpt lat="44.25983694207586" lon="10.178437960967923"><ele>728.4</ele><time>2026-04-11T15:12:48.006Z</time></trkpt><trkpt lat="44.25984542072635" lon="10.178588235553862"><ele>733.2</ele><time>2026-04-11T15:12:49.006Z</time></trkpt><trkpt lat="44.25982568216057" lon="10.17872029796334"><ele>738.0</ele><time>2026-04-11T15:12:50.006Z</time></trkpt><trkpt lat="44.25978854305763" lon="10.178836516836476"><ele>730.6666666666666</ele><time>2026-04-11T15:12:51.006Z</time></trkpt><trkpt lat="44.25974641394234" lon="10.178920930926326"><ele>723.3333333333334</ele><time>2026-04-11T15:12:52.006Z</time></trkpt><trkpt lat="44.259654981981086" lon="10.17898439325992"><ele>716.0</ele><time>2026-04-11T15:12:54.006Z</time></trkpt><trkpt lat="44.25961760621411" lon="10.178848972334384"><ele>708.6666666666667</ele><time>2026-04-11T15:12:56.006Z</time></trkpt><trkpt lat="44.2596687111215" lon="10.178766189697113"><ele>701.3333333333334</ele><time>2026-04-11T15:12:57.006Z</time></trkpt><trkpt lat="44.25972906313067" lon="10.17868878725566"><ele>694.0</ele><time>2026-04-11T15:12:58.006Z</time></trkpt><trkpt lat="44.25976548297447" lon="10.178587796878908"><ele>694.0</ele><time>2026-04-11T15:12:59.006Z</time></trkpt><trkpt lat="44.259777226965824" lon="10.178458518768918"><ele>694.0</ele><time>2026-04-11T15:13:00.006Z</time></trkpt><trkpt lat="44.25973295770801" lon="10.17830826865383"><ele>694.0</ele><time>2026-04-11T15:13:01.006Z</time></trkpt><trkpt lat="44.25963634456149" lon="10.17816056906718"><ele>694.0</ele><time>2026-04-11T15:13:02.006Z</time></trkpt><trkpt lat="44.25953371949785" lon="10.17804217076855"><ele>700.6666666666667</ele><time>2026-04-11T15:13:03.006Z</time></trkpt><trkpt lat="44.25941582751839" lon="10.177925794796563"><ele>707.3333333333334</ele><time>2026-04-11T15:13:04.006Z</time></trkpt><trkpt lat="44.25927355143323" lon="10.177804055862005"><ele>714.0</ele><time>2026-04-11T15:13:05.006Z</time></trkpt><trkpt lat="44.259145999703726" lon="10.17768430556909"><ele>714.0</ele><time>2026-04-11T15:13:06.006Z</time></trkpt><trkpt lat="44.25904514070742" lon="10.177553280829438"><ele>714.0</ele><time>2026-04-11T15:13:07.006Z</time></trkpt><trkpt lat="44.25898160424172" lon="10.177385893624908"><ele>714.0</ele><time>2026-04-11T15:13:08.006Z</time></trkpt><trkpt lat="44.258945550055174" lon="10.17720118574777"><ele>714.0</ele><time>2026-04-11T15:13:09.006Z</time></trkpt><trkpt lat="44.25888794800386" lon="10.177028671633174"><ele>704.0</ele><time>2026-04-11T15:13:10.006Z</time></trkpt><trkpt lat="44.258799483678835" lon="10.176892374173947"><ele>694.0</ele><time>2026-04-11T15:13:11.006Z</time></trkpt><trkpt lat="44.25867097555288" lon="10.176752900627633"><ele>684.0</ele><time>2026-04-11T15:13:12.006Z</time></trkpt><trkpt lat="44.25852724899468" lon="10.176601554304849"><ele>681.3333333333334</ele><time>2026-04-11T15:13:13.006Z</time></trkpt><trkpt lat="44.25838551981387" lon="10.176447862448004"><ele>678.6666666666667</ele><time>2026-04-11T15:13:14.006Z</time></trkpt><trkpt lat="44.258237013376636" lon="10.176313690193323"><ele>676.0</ele><time>2026-04-11T15:13:15.006Z</time></trkpt><trkpt lat="44.25810046740524" lon="10.176180385674462"><ele>676.0</ele><time>2026-04-11T15:13:16.006Z</time></trkpt><trkpt lat="44.25800064606275" lon="10.176011140652996"><ele>676.0</ele><time>2026-04-11T15:13:17.006Z</time></trkpt><trkpt lat="44.25792076855326" lon="10.175815558522016"><ele>676.0</ele><time>2026-04-11T15:13:18.006Z</time></trkpt><trkpt lat="44.25783572841931" lon="10.175618214159538"><ele>676.5999999999999</ele><time>2026-04-11T15:13:19.006Z</time></trkpt><trkpt lat="44.25774395186331" lon="10.175457853752052"><ele>677.2</ele><time>2026-04-11T15:13:20.006Z</time></trkpt><trkpt lat="44.257652243646746" lon="10.175339504070418"><ele>677.8</ele><time>2026-04-11T15:13:21.006Z</time></trkpt><trkpt lat="44.25757896897489" lon="10.175245345679768"><ele>678.4000000000001</ele><time>2026-04-11T15:13:22.006Z</time></trkpt><trkpt lat="44.257545490740355" lon="10.175155455425168"><ele>679.0</ele><time>2026-04-11T15:13:23.006Z</time></trkpt><trkpt lat="44.257548515911054" lon="10.175062446947688"><ele>679.0</ele><time>2026-04-11T15:13:24.006Z</time></trkpt><trkpt lat="44.25757609024936" lon="10.174958434710838"><ele>679.0</ele><time>2026-04-11T15:13:25.006Z</time></trkpt><trkpt lat="44.2576274366047" lon="10.174824168638608"><ele>679.0</ele><time>2026-04-11T15:13:26.006Z</time></trkpt><trkpt lat="44.25770867994664" lon="10.174629229348369"><ele>679.0</ele><time>2026-04-11T15:13:27.007Z</time></trkpt><trkpt lat="44.25775856546659" lon="10.174422749503407"><ele>677.75</ele><time>2026-04-11T15:13:28.007Z</time></trkpt><trkpt lat="44.25777596786796" lon="10.174237670598478"><ele>676.5</ele><time>2026-04-11T15:13:29.007Z</time></trkpt><trkpt lat="44.25776258446398" lon="10.174048445195774"><ele>675.25</ele><time>2026-04-11T15:13:30.007Z</time></trkpt><trkpt lat="44.25774872792954" lon="10.173893795707167"><ele>674.0</ele><time>2026-04-11T15:13:31.007Z</time></trkpt><trkpt lat="44.257717167585206" lon="10.173743446658126"><ele>672.5</ele><time>2026-04-11T15:13:32.007Z</time></trkpt><trkpt lat="44.25767576208395" lon="10.173572519607548"><ele>671.0</ele><time>2026-04-11T15:13:33.007Z</time></trkpt><trkpt lat="44.25762641118065" lon="10.173394381104492"><ele>669.5</ele><time>2026-04-11T15:13:34.007Z</time></trkpt><trkpt lat="44.25757716099001" lon="10.17322658149611"><ele>668.0</ele><time>2026-04-11T15:13:35.007Z</time></trkpt><trkpt lat="44.2575376237025" lon="10.173064929232735"><ele>665.8</ele><time>2026-04-11T15:13:36.007Z</time></trkpt><trkpt lat="44.2575114831275" lon="10.172937439269717"><ele>663.5999999999999</ele><time>2026-04-11T15:13:37.007Z</time></trkpt><trkpt lat="44.257530167957576" lon="10.172821370419017"><ele>661.4000000000001</ele><time>2026-04-11T15:13:38.007Z</time></trkpt><trkpt lat="44.25759339806297" lon="10.17271401621995"><ele>659.2</ele><time>2026-04-11T15:13:39.007Z</time></trkpt><trkpt lat="44.257687569658145" lon="10.172638682379683"><ele>657.0</ele><time>2026-04-11T15:13:40.007Z</time></trkpt><trkpt lat="44.2578021283324" lon="10.172599571384152"><ele>657.0</ele><time>2026-04-11T15:13:41.007Z</time></trkpt><trkpt lat="44.25792048077881" lon="10.17259956759503"><ele>657.0</ele><time>2026-04-11T15:13:42.007Z</time></trkpt><trkpt lat="44.2580405407163" lon="10.172618989316465"><ele>657.0</ele><time>2026-04-11T15:13:43.007Z</time></trkpt><trkpt lat="44.25815556896146" lon="10.17261610812658"><ele>657.0</ele><time>2026-04-11T15:13:44.007Z</time></trkpt><trkpt lat="44.258259449568904" lon="10.172609426472462"><ele>656.6666666666666</ele><time>2026-04-11T15:13:45.007Z</time></trkpt><trkpt lat="44.25834420305636" lon="10.1725987138779"><ele>656.3333333333334</ele><time>2026-04-11T15:13:46.007Z</time></trkpt><trkpt lat="44.2584141045754" lon="10.172577873687688"><ele>656.0</ele><time>2026-04-11T15:13:47.007Z</time></trkpt><trkpt lat="44.2584613031873" lon="10.172516908393018"><ele>655.6666666666667</ele><time>2026-04-11T15:13:48.007Z</time></trkpt><trkpt lat="44.258470891705436" lon="10.172419561077715"><ele>655.3333333333334</ele><time>2026-04-11T15:13:49.007Z</time></trkpt><trkpt lat="44.258412202915544" lon="10.172345148570578"><ele>655.0</ele><time>2026-04-11T15:13:50.007Z</time></trkpt><trkpt lat="44.25831761563242" lon="10.172308547418979"><ele>655.0</ele><time>2026-04-11T15:13:51.007Z</time></trkpt><trkpt lat="44.25819578076459" lon="10.172312677693267"><ele>655.0</ele><time>2026-04-11T15:13:52.007Z</time></trkpt><trkpt lat="44.2580667223024" lon="10.172307317876125"><ele>655.0</ele><time>2026-04-11T15:13:53.007Z</time></trkpt><trkpt lat="44.25792964066957" lon="10.172261961804061"><ele>655.0</ele><time>2026-04-11T15:13:54.007Z</time></trkpt><trkpt lat="44.257816915684295" lon="10.172167734742597"><ele>651.25</ele><time>2026-04-11T15:13:55.007Z</time></trkpt><trkpt lat="44.2577178699145" lon="10.172065784815633"><ele>647.5</ele><time>2026-04-11T15:13:56.007Z</time></trkpt><trkpt lat="44.2576194585803" lon="10.17200573315718"><ele>643.75</ele><time>2026-04-11T15:13:57.007Z</time></trkpt><trkpt lat="44.257503723199115" lon="10.17200612176862"><ele>640.0</ele><time>2026-04-11T15:13:58.007Z</time></trkpt><trkpt lat="44.25739227993475" lon="10.172040824485478"><ele>641.0</ele><time>2026-04-11T15:13:59.007Z</time></trkpt><trkpt lat="44.25727973315884" lon="10.172118732501138"><ele>642.0</ele><time>2026-04-11T15:14:00.007Z</time></trkpt><trkpt lat="44.25717199063982" lon="10.172227774273182"><ele>643.0</ele><time>2026-04-11T15:14:01.007Z</time></trkpt><trkpt lat="44.25707593442538" lon="10.1723547332648"><ele>644.0</ele><time>2026-04-11T15:14:02.007Z</time></trkpt><trkpt lat="44.25698621215015" lon="10.172497466176265"><ele>644.0</ele><time>2026-04-11T15:14:03.007Z</time></trkpt><trkpt lat="44.25690851847787" lon="10.172648884368439"><ele>644.0</ele><time>2026-04-11T15:14:04.007Z</time></trkpt><trkpt lat="44.25682808159397" lon="10.172816178074575"><ele>644.0</ele><time>2026-04-11T15:14:05.007Z</time></trkpt><trkpt lat="44.25675540899521" lon="10.172991781888879"><ele>644.0</ele><time>2026-04-11T15:14:06.007Z</time></trkpt><trkpt lat="44.25667937489533" lon="10.173183199464699"><ele>644.5</ele><time>2026-04-11T15:14:07.007Z</time></trkpt><trkpt lat="44.2566001765468" lon="10.173363161256688"><ele>645.0</ele><time>2026-04-11T15:14:08.007Z</time></trkpt><trkpt lat="44.25651958399121" lon="10.173538910798582"><ele>645.5</ele><time>2026-04-11T15:14:09.007Z</time></trkpt><trkpt lat="44.25643350400807" lon="10.173699676934428"><ele>646.0</ele><time>2026-04-11T15:14:10.007Z</time></trkpt><trkpt lat="44.25635004697274" lon="10.173837714231293"><ele>641.25</ele><time>2026-04-11T15:14:11.007Z</time></trkpt><trkpt lat="44.25627444465447" lon="10.173977443215293"><ele>636.5</ele><time>2026-04-11T15:14:12.007Z</time></trkpt><trkpt lat="44.25620584343737" lon="10.174113420950816"><ele>631.75</ele><time>2026-04-11T15:14:13.007Z</time></trkpt><trkpt lat="44.256165302274" lon="10.174260281159883"><ele>627.0</ele><time>2026-04-11T15:14:14.007Z</time></trkpt><trkpt lat="44.25618333931908" lon="10.174441476004631"><ele>625.6</ele><time>2026-04-11T15:14:15.007Z</time></trkpt><trkpt lat="44.25621738471537" lon="10.174631013031727"><ele>624.2</ele><time>2026-04-11T15:14:16.007Z</time></trkpt><trkpt lat="44.25623029883059" lon="10.17477338331709"><ele>622.8</ele><time>2026-04-11T15:14:17.007Z</time></trkpt><trkpt lat="44.256256077762394" lon="10.174884305271728"><ele>621.4</ele><time>2026-04-11T15:14:18.007Z</time></trkpt><trkpt lat="44.25630931011154" lon="10.174995189790378"><ele>620.0</ele><time>2026-04-11T15:14:19.007Z</time></trkpt><trkpt lat="44.25636822153809" lon="10.175115361008118"><ele>620.0</ele><time>2026-04-11T15:14:20.007Z</time></trkpt><trkpt lat="44.256432883276034" lon="10.175233946266175"><ele>620.0</ele><time>2026-04-11T15:14:21.007Z</time></trkpt><trkpt lat="44.25649988130401" lon="10.175354036020156"><ele>620.0</ele><time>2026-04-11T15:14:22.007Z</time></trkpt><trkpt lat="44.25652654484729" lon="10.175467139136428"><ele>620.0</ele><time>2026-04-11T15:14:23.007Z</time></trkpt><trkpt lat="44.25651655506955" lon="10.175605620251957"><ele>620.0</ele><time>2026-04-11T15:14:24.007Z</time></trkpt><trkpt lat="44.2564442194823" lon="10.175756170484533"><ele>622.6</ele><time>2026-04-11T15:14:25.007Z</time></trkpt><trkpt lat="44.25636816229757" lon="10.175860257064405"><ele>625.2</ele><time>2026-04-11T15:14:26.007Z</time></trkpt><trkpt lat="44.25627901756828" lon="10.175914076022915"><ele>627.8</ele><time>2026-04-11T15:14:27.007Z</time></trkpt><trkpt lat="44.25618388261692" lon="10.175882563135854"><ele>630.4</ele><time>2026-04-11T15:14:28.007Z</time></trkpt><trkpt lat="44.256124143553755" lon="10.175819486970138"><ele>633.0</ele><time>2026-04-11T15:14:29.007Z</time></trkpt><trkpt lat="44.25608321934135" lon="10.175696641894246"><ele>629.75</ele><time>2026-04-11T15:14:30.007Z</time></trkpt><trkpt lat="44.256036691839086" lon="10.175566918895436"><ele>626.5</ele><time>2026-04-11T15:14:31.007Z</time></trkpt><trkpt lat="44.25595608651458" lon="10.175463863762372"><ele>623.25</ele><time>2026-04-11T15:14:32.007Z</time></trkpt><trkpt lat="44.25584319113584" lon="10.175371766212583"><ele>620.0</ele><time>2026-04-11T15:14:33.007Z</time></trkpt><trkpt lat="44.25572912283896" lon="10.17528217013311"><ele>619.25</ele><time>2026-04-11T15:14:34.007Z</time></trkpt><trkpt lat="44.25560778978081" lon="10.175174103068661"><ele>618.5</ele><time>2026-04-11T15:14:35.007Z</time></trkpt><trkpt lat="44.2554874161446" lon="10.175093411532334"><ele>617.75</ele><time>2026-04-11T15:14:36.007Z</time></trkpt><trkpt lat="44.255358703179354" lon="10.175019177815905"><ele>617.0</ele><time>2026-04-11T15:14:37.007Z</time></trkpt><trkpt lat="44.255217380953354" lon="10.174971345263994"><ele>617.0</ele><time>2026-04-11T15:14:38.007Z</time></trkpt><trkpt lat="44.255066043942925" lon="10.17493262338247"><ele>617.0</ele><time>2026-04-11T15:14:39.007Z</time></trkpt><trkpt lat="44.25491949886364" lon="10.174921900132853"><ele>617.0</ele><time>2026-04-11T15:14:40.007Z</time></trkpt><trkpt lat="44.25477032876501" lon="10.174945417027928"><ele>615.25</ele><time>2026-04-11T15:14:41.007Z</time></trkpt><trkpt lat="44.25462883355283" lon="10.174975973868904"><ele>613.5</ele><time>2026-04-11T15:14:42.007Z</time></trkpt><trkpt lat="44.25450096134218" lon="10.17501199289272"><ele>611.75</ele><time>2026-04-11T15:14:43.007Z</time></trkpt><trkpt lat="44.25438119859735" lon="10.175049923177456"><ele>610.0</ele><time>2026-04-11T15:14:44.007Z</time></trkpt><trkpt lat="44.254268121967954" lon="10.175060689465841"><ele>610.0</ele><time>2026-04-11T15:14:45.007Z</time></trkpt><trkpt lat="44.254171493722595" lon="10.175027134323333"><ele>610.0</ele><time>2026-04-11T15:14:46.007Z</time></trkpt><trkpt lat="44.25409254973658" lon="10.174950240148673"><ele>610.0</ele><time>2026-04-11T15:14:47.007Z</time></trkpt><trkpt lat="44.2540120859303" lon="10.174824271752293"><ele>610.0</ele><time>2026-04-11T15:14:48.007Z</time></trkpt><trkpt lat="44.253933092556814" lon="10.174678302825571"><ele>610.0</ele><time>2026-04-11T15:14:49.007Z</time></trkpt><trkpt lat="44.25385717458814" lon="10.174511089710968"><ele>607.5</ele><time>2026-04-11T15:14:50.007Z</time></trkpt><trkpt lat="44.25378588192944" lon="10.17434246284443"><ele>605.0</ele><time>2026-04-11T15:14:51.007Z</time></trkpt><trkpt lat="44.25368670064933" lon="10.174193445806628"><ele>602.5</ele><time>2026-04-11T15:14:52.007Z</time></trkpt><trkpt lat="44.25358284931432" lon="10.174067393892624"><ele>600.0</ele><time>2026-04-11T15:14:53.007Z</time></trkpt><trkpt lat="44.25347152006772" lon="10.173968305841589"><ele>592.0</ele><time>2026-04-11T15:14:54.007Z</time></trkpt><trkpt lat="44.2533644930876" lon="10.173876532143781"><ele>584.0</ele><time>2026-04-11T15:14:55.007Z</time></trkpt><trkpt lat="44.253240980252116" lon="10.173799196890657"><ele>576.0</ele><time>2026-04-11T15:14:56.007Z</time></trkpt><trkpt lat="44.25310490400079" lon="10.17375321876875"><ele>568.0</ele><time>2026-04-11T15:14:57.007Z</time></trkpt><trkpt lat="44.25297385625901" lon="10.17372135115382"><ele>567.5</ele><time>2026-04-11T15:14:58.007Z</time></trkpt><trkpt lat="44.25284764274593" lon="10.173714964985017"><ele>567.0</ele><time>2026-04-11T15:14:59.007Z</time></trkpt><trkpt lat="44.25273020160453" lon="10.173731285251439"><ele>566.5</ele><time>2026-04-11T15:15:00.007Z</time></trkpt><trkpt lat="44.25262490082383" lon="10.17378473839644"><ele>566.0</ele><time>2026-04-11T15:15:01.007Z</time></trkpt><trkpt lat="44.252526636635835" lon="10.173880726485152"><ele>566.0</ele><time>2026-04-11T15:15:02.007Z</time></trkpt><trkpt lat="44.25242267524902" lon="10.174016977037562"><ele>566.0</ele><time>2026-04-11T15:15:03.007Z</time></trkpt><trkpt lat="44.25230557496936" lon="10.174160889446142"><ele>566.0</ele><time>2026-04-11T15:15:04.007Z</time></trkpt><trkpt lat="44.25219350318429" lon="10.174303124323512"><ele>567.6666666666666</ele><time>2026-04-11T15:15:05.007Z</time></trkpt><trkpt lat="44.252095128035" lon="10.17445603749097"><ele>569.3333333333334</ele><time>2026-04-11T15:15:06.007Z</time></trkpt><trkpt lat="44.25200427557604" lon="10.1746315119074"><ele>571.0</ele><time>2026-04-11T15:15:07.007Z</time></trkpt><trkpt lat="44.25190026457177" lon="10.174818872428832"><ele>573.3333333333334</ele><time>2026-04-11T15:15:08.007Z</time></trkpt><trkpt lat="44.251796404178485" lon="10.174983154247785"><ele>575.6666666666666</ele><time>2026-04-11T15:15:09.007Z</time></trkpt><trkpt lat="44.25172017515562" lon="10.17518210660391"><ele>578.0</ele><time>2026-04-11T15:15:10.007Z</time></trkpt><trkpt lat="44.25165971471645" lon="10.175396582954063"><ele>578.0</ele><time>2026-04-11T15:15:11.007Z</time></trkpt><trkpt lat="44.25159567758816" lon="10.175632718913088"><ele>578.0</ele><time>2026-04-11T15:15:12.007Z</time></trkpt><trkpt lat="44.251540416915354" lon="10.17586276048016"><ele>578.0</ele><time>2026-04-11T15:15:13.007Z</time></trkpt><trkpt lat="44.25149577613042" lon="10.176120098644729"><ele>581.6666666666666</ele><time>2026-04-11T15:15:14.007Z</time></trkpt><trkpt lat="44.251459808444444" lon="10.176374811323592"><ele>585.3333333333334</ele><time>2026-04-11T15:15:15.007Z</time></trkpt><trkpt lat="44.25142104349702" lon="10.176613752900968"><ele>589.0</ele><time>2026-04-11T15:15:16.007Z</time></trkpt><trkpt lat="44.25137414652829" lon="10.176835373293454"><ele>582.5</ele><time>2026-04-11T15:15:17.007Z</time></trkpt><trkpt lat="44.2513186277984" lon="10.177031896821592"><ele>576.0</ele><time>2026-04-11T15:15:18.007Z</time></trkpt><trkpt lat="44.251256169984195" lon="10.177179289803318"><ele>569.5</ele><time>2026-04-11T15:15:19.007Z</time></trkpt><trkpt lat="44.251196460076635" lon="10.17728927943148"><ele>563.0</ele><time>2026-04-11T15:15:20.007Z</time></trkpt><trkpt lat="44.25114074442326" lon="10.177371746475856"><ele>563.0</ele><time>2026-04-11T15:15:21.007Z</time></trkpt><trkpt lat="44.25109033551574" lon="10.17742602921925"><ele>563.0</ele><time>2026-04-11T15:15:22.007Z</time></trkpt><trkpt lat="44.2509900762524" lon="10.177354142190163"><ele>563.0</ele><time>2026-04-11T15:15:24.007Z</time></trkpt><trkpt lat="44.25105513853697" lon="10.177178819672761"><ele>563.0</ele><time>2026-04-11T15:15:26.007Z</time></trkpt><trkpt lat="44.251125309246575" lon="10.17708366459057"><ele>563.0</ele><time>2026-04-11T15:15:27.008Z</time></trkpt><trkpt lat="44.251180583615074" lon="10.176941131804291"><ele>561.25</ele><time>2026-04-11T15:15:28.008Z</time></trkpt><trkpt lat="44.25121431053797" lon="10.176780815513839"><ele>559.5</ele><time>2026-04-11T15:15:29.008Z</time></trkpt><trkpt lat="44.25120947165531" lon="10.176584667032504"><ele>557.75</ele><time>2026-04-11T15:15:30.008Z</time></trkpt><trkpt lat="44.251183828027614" lon="10.17638709465068"><ele>556.0</ele><time>2026-04-11T15:15:31.008Z</time></trkpt><trkpt lat="44.25115135406859" lon="10.176211227523737"><ele>553.75</ele><time>2026-04-11T15:15:32.008Z</time></trkpt><trkpt lat="44.251086227407264" lon="10.176051652544906"><ele>551.5</ele><time>2026-04-11T15:15:33.008Z</time></trkpt><trkpt lat="44.25103766471266" lon="10.175892162377508"><ele>549.25</ele><time>2026-04-11T15:15:34.008Z</time></trkpt><trkpt lat="44.25102507190935" lon="10.175742736325876"><ele>547.0</ele><time>2026-04-11T15:15:35.008Z</time></trkpt><trkpt lat="44.25104680177797" lon="10.175603205373063"><ele>545.0</ele><time>2026-04-11T15:15:36.008Z</time></trkpt><trkpt lat="44.251088628404375" lon="10.175479632087015"><ele>543.0</ele><time>2026-04-11T15:15:37.008Z</time></trkpt><trkpt lat="44.25114807930185" lon="10.175355962755612"><ele>541.0</ele><time>2026-04-11T15:15:38.008Z</time></trkpt><trkpt lat="44.251213082280756" lon="10.175214206888386"><ele>539.0</ele><time>2026-04-11T15:15:39.008Z</time></trkpt><trkpt lat="44.25127895877988" lon="10.17508086736331"><ele>537.0</ele><time>2026-04-11T15:15:40.008Z</time></trkpt><trkpt lat="44.25135014666316" lon="10.174939127999302"><ele>536.6</ele><time>2026-04-11T15:15:41.008Z</time></trkpt><trkpt lat="44.251410145754306" lon="10.174792065923164"><ele>536.2</ele><time>2026-04-11T15:15:42.008Z</time></trkpt><trkpt lat="44.25147170157255" lon="10.174680144760394"><ele>535.8</ele><time>2026-04-11T15:15:43.008Z</time></trkpt><trkpt lat="44.25152482746203" lon="10.174576478796295"><ele>535.4</ele><time>2026-04-11T15:15:44.008Z</time></trkpt><trkpt lat="44.25154923283502" lon="10.174469579184693"><ele>535.0</ele><time>2026-04-11T15:15:45.008Z</time></trkpt><trkpt lat="44.25148621981114" lon="10.174327235706887"><ele>535.0</ele><time>2026-04-11T15:15:47.008Z</time></trkpt><trkpt lat="44.25140923358785" lon="10.174348740039362"><ele>535.0</ele><time>2026-04-11T15:15:48.008Z</time></trkpt><trkpt lat="44.25136237991426" lon="10.174441190670764"><ele>535.0</ele><time>2026-04-11T15:15:49.008Z</time></trkpt><trkpt lat="44.25133569161929" lon="10.174567686994871"><ele>535.0</ele><time>2026-04-11T15:15:50.008Z</time></trkpt><trkpt lat="44.251284032172805" lon="10.174718892776333"><ele>535.0</ele><time>2026-04-11T15:15:51.008Z</time></trkpt><trkpt lat="44.25119883848543" lon="10.174872918629458"><ele>535.6666666666667</ele><time>2026-04-11T15:15:52.008Z</time></trkpt><trkpt lat="44.25108820104583" lon="10.175019584942559"><ele>536.3333333333334</ele><time>2026-04-11T15:15:53.008Z</time></trkpt><trkpt lat="44.250968375666446" lon="10.17518034422455"><ele>537.0</ele><time>2026-04-11T15:15:54.008Z</time></trkpt><trkpt lat="44.250863279820216" lon="10.175346075746255"><ele>537.0</ele><time>2026-04-11T15:15:55.008Z</time></trkpt><trkpt lat="44.25076327928325" lon="10.175515026127592"><ele>537.0</ele><time>2026-04-11T15:15:56.008Z</time></trkpt><trkpt lat="44.250674952083095" lon="10.175679808527926"><ele>537.0</ele><time>2026-04-11T15:15:57.008Z</time></trkpt><trkpt lat="44.250610747493106" lon="10.175859689765304"><ele>537.0</ele><time>2026-04-11T15:15:58.008Z</time></trkpt><trkpt lat="44.25056308711367" lon="10.176056555823857"><ele>533.25</ele><time>2026-04-11T15:15:59.008Z</time></trkpt><trkpt lat="44.25050943286285" lon="10.176257836578257"><ele>529.5</ele><time>2026-04-11T15:16:00.008Z</time></trkpt><trkpt lat="44.250439426789605" lon="10.176434073030356"><ele>525.75</ele><time>2026-04-11T15:16:01.008Z</time></trkpt><trkpt lat="44.250375911467025" lon="10.176622143742504"><ele>522.0</ele><time>2026-04-11T15:16:02.008Z</time></trkpt><trkpt lat="44.250337318791765" lon="10.176831704118143"><ele>522.0</ele><time>2026-04-11T15:16:03.008Z</time></trkpt><trkpt lat="44.25030795802953" lon="10.177036377448353"><ele>522.0</ele><time>2026-04-11T15:16:04.008Z</time></trkpt><trkpt lat="44.25024876628005" lon="10.177226675474502"><ele>522.0</ele><time>2026-04-11T15:16:05.008Z</time></trkpt><trkpt lat="44.25017585543966" lon="10.177397751312387"><ele>522.0</ele><time>2026-04-11T15:16:06.008Z</time></trkpt><trkpt lat="44.25009114509139" lon="10.177565331015737"><ele>522.75</ele><time>2026-04-11T15:16:07.008Z</time></trkpt><trkpt lat="44.25001920411347" lon="10.17772776760728"><ele>523.5</ele><time>2026-04-11T15:16:08.008Z</time></trkpt><trkpt lat="44.24998255979131" lon="10.177904236115584"><ele>524.25</ele><time>2026-04-11T15:16:09.008Z</time></trkpt><trkpt lat="44.24998366052419" lon="10.178074911787693"><ele>525.0</ele><time>2026-04-11T15:16:10.008Z</time></trkpt><trkpt lat="44.24996157771212" lon="10.17825605412975"><ele>526.5</ele><time>2026-04-11T15:16:11.008Z</time></trkpt><trkpt lat="44.24989323194022" lon="10.178427654583556"><ele>528.0</ele><time>2026-04-11T15:16:12.008Z</time></trkpt><trkpt lat="44.24980710887462" lon="10.178584935988738"><ele>529.5</ele><time>2026-04-11T15:16:13.008Z</time></trkpt><trkpt lat="44.24972610453184" lon="10.178713149616517"><ele>531.0</ele><time>2026-04-11T15:16:14.008Z</time></trkpt><trkpt lat="44.249637372569076" lon="10.178795457231429"><ele>527.5</ele><time>2026-04-11T15:16:15.008Z</time></trkpt><trkpt lat="44.24953166244723" lon="10.178822186483371"><ele>524.0</ele><time>2026-04-11T15:16:16.008Z</time></trkpt><trkpt lat="44.24941116955525" lon="10.178793230821345"><ele>520.5</ele><time>2026-04-11T15:16:17.008Z</time></trkpt><trkpt lat="44.249282288812374" lon="10.178712604403113"><ele>517.0</ele><time>2026-04-11T15:16:18.008Z</time></trkpt><trkpt lat="44.24914603258607" lon="10.178603403686182"><ele>517.0</ele><time>2026-04-11T15:16:19.008Z</time></trkpt><trkpt lat="44.24900449189021" lon="10.178482454823119"><ele>517.0</ele><time>2026-04-11T15:16:20.008Z</time></trkpt><trkpt lat="44.248868110742606" lon="10.178366308017527"><ele>517.0</ele><time>2026-04-11T15:16:21.008Z</time></trkpt><trkpt lat="44.24874267816661" lon="10.17827350325801"><ele>521.4</ele><time>2026-04-11T15:16:22.008Z</time></trkpt><trkpt lat="44.248633348312076" lon="10.17820942683685"><ele>525.8000000000001</ele><time>2026-04-11T15:16:23.008Z</time></trkpt><trkpt lat="44.24854215630457" lon="10.178163029850015"><ele>530.2</ele><time>2026-04-11T15:16:24.008Z</time></trkpt><trkpt lat="44.24846926620135" lon="10.178080704068215"><ele>534.6</ele><time>2026-04-11T15:16:25.008Z</time></trkpt><trkpt lat="44.24841720527683" lon="10.17797826620762"><ele>539.0</ele><time>2026-04-11T15:16:26.008Z</time></trkpt><trkpt lat="44.24841737203067" lon="10.177857850801104"><ele>539.0</ele><time>2026-04-11T15:16:27.008Z</time></trkpt><trkpt lat="44.248421185504554" lon="10.177718835062818"><ele>539.0</ele><time>2026-04-11T15:16:28.008Z</time></trkpt><trkpt lat="44.24842617990212" lon="10.177566611042282"><ele>539.0</ele><time>2026-04-11T15:16:29.008Z</time></trkpt><trkpt lat="44.24842488999315" lon="10.177396901983887"><ele>539.0</ele><time>2026-04-11T15:16:30.008Z</time></trkpt><trkpt lat="44.24840783477939" lon="10.177243183714708"><ele>539.0</ele><time>2026-04-11T15:16:31.008Z</time></trkpt><trkpt lat="44.248394443584694" lon="10.177098091725847"><ele>538.4</ele><time>2026-04-11T15:16:32.008Z</time></trkpt><trkpt lat="44.24838792038783" lon="10.17695302146298"><ele>537.8</ele><time>2026-04-11T15:16:33.008Z</time></trkpt><trkpt lat="44.24836457435337" lon="10.176798177482153"><ele>537.2</ele><time>2026-04-11T15:16:34.008Z</time></trkpt><trkpt lat="44.24832883795569" lon="10.17664488022159"><ele>536.6</ele><time>2026-04-11T15:16:35.008Z</time></trkpt><trkpt lat="44.24828281066481" lon="10.176496173675519"><ele>536.0</ele><time>2026-04-11T15:16:36.008Z</time></trkpt><trkpt lat="44.24822599330388" lon="10.176359731878852"><ele>535.0</ele><time>2026-04-11T15:16:37.008Z</time></trkpt><trkpt lat="44.248160244791045" lon="10.176231225592044"><ele>534.0</ele><time>2026-04-11T15:16:38.008Z</time></trkpt><trkpt lat="44.24810816828423" lon="10.176100849235137"><ele>533.0</ele><time>2026-04-11T15:16:39.008Z</time></trkpt><trkpt lat="44.24806082401458" lon="10.175967527403698"><ele>532.0</ele><time>2026-04-11T15:16:40.008Z</time></trkpt><trkpt lat="44.248018513819936" lon="10.175828952923418"><ele>531.0</ele><time>2026-04-11T15:16:41.008Z</time></trkpt><trkpt lat="44.24799071349569" lon="10.175669582344058"><ele>538.25</ele><time>2026-04-11T15:16:42.008Z</time></trkpt><trkpt lat="44.24798048669351" lon="10.175495165413054"><ele>545.5</ele><time>2026-04-11T15:16:43.008Z</time></trkpt><trkpt lat="44.24798958506706" lon="10.175323916837014"><ele>552.75</ele><time>2026-04-11T15:16:44.008Z</time></trkpt><trkpt lat="44.24800657505785" lon="10.17514897501575"><ele>560.0</ele><time>2026-04-11T15:16:45.008Z</time></trkpt><trkpt lat="44.24802950573182" lon="10.17498507559886"><ele>559.75</ele><time>2026-04-11T15:16:46.008Z</time></trkpt><trkpt lat="44.2480448451689" lon="10.174803639808566"><ele>559.5</ele><time>2026-04-11T15:16:47.008Z</time></trkpt><trkpt lat="44.248041762072575" lon="10.174622645962499"><ele>559.25</ele><time>2026-04-11T15:16:48.008Z</time></trkpt><trkpt lat="44.248035128523895" lon="10.174455671575775"><ele>559.0</ele><time>2026-04-11T15:16:49.008Z</time></trkpt><trkpt lat="44.24802999607339" lon="10.174293706404328"><ele>559.0</ele><time>2026-04-11T15:16:50.008Z</time></trkpt><trkpt lat="44.24802630322863" lon="10.174134542708256"><ele>559.0</ele><time>2026-04-11T15:16:51.008Z</time></trkpt><trkpt lat="44.248027048700855" lon="10.17397760362096"><ele>559.0</ele><time>2026-04-11T15:16:52.008Z</time></trkpt><trkpt lat="44.24801895204208" lon="10.173814659438548"><ele>559.0</ele><time>2026-04-11T15:16:53.008Z</time></trkpt><trkpt lat="44.24800905694397" lon="10.173655232104002"><ele>557.0</ele><time>2026-04-11T15:16:54.008Z</time></trkpt><trkpt lat="44.2480017289932" lon="10.173502287894868"><ele>555.0</ele><time>2026-04-11T15:16:55.008Z</time></trkpt><trkpt lat="44.247996687061395" lon="10.173341329169284"><ele>553.0</ele><time>2026-04-11T15:16:56.008Z</time></trkpt><trkpt lat="44.247991517440354" lon="10.17316593981005"><ele>551.0</ele><time>2026-04-11T15:16:57.008Z</time></trkpt><trkpt lat="44.24798774237864" lon="10.172991386488029"><ele>548.75</ele><time>2026-04-11T15:16:58.008Z</time></trkpt><trkpt lat="44.247983256505776" lon="10.17281611999426"><ele>546.5</ele><time>2026-04-11T15:16:59.008Z</time></trkpt><trkpt lat="44.247979792670506" lon="10.172641570895433"><ele>544.25</ele><time>2026-04-11T15:17:00.008Z</time></trkpt><trkpt lat="44.247971945441364" lon="10.172480355902271"><ele>542.0</ele><time>2026-04-11T15:17:01.008Z</time></trkpt><trkpt lat="44.24796100952359" lon="10.172316515592632"><ele>540.5</ele><time>2026-04-11T15:17:02.008Z</time></trkpt><trkpt lat="44.247956522947796" lon="10.172153971506521"><ele>539.0</ele><time>2026-04-11T15:17:03.008Z</time></trkpt><trkpt lat="44.247947412886155" lon="10.171990424722429"><ele>537.5</ele><time>2026-04-11T15:17:04.008Z</time></trkpt><trkpt lat="44.24793926682241" lon="10.171821160404996"><ele>536.0</ele><time>2026-04-11T15:17:05.008Z</time></trkpt><trkpt lat="44.24792936974801" lon="10.171642937170354"><ele>534.75</ele><time>2026-04-11T15:17:06.008Z</time></trkpt><trkpt lat="44.24791878597845" lon="10.171478783915124"><ele>533.5</ele><time>2026-04-11T15:17:07.008Z</time></trkpt><trkpt lat="44.24791339946651" lon="10.171314211743157"><ele>532.25</ele><time>2026-04-11T15:17:08.008Z</time></trkpt><trkpt lat="44.2479084884082" lon="10.171146657690828"><ele>531.0</ele><time>2026-04-11T15:17:09.008Z</time></trkpt><trkpt lat="44.24790530231166" lon="10.170978636398148"><ele>531.0</ele><time>2026-04-11T15:17:10.008Z</time></trkpt><trkpt lat="44.247897500377576" lon="10.170804931534784"><ele>531.0</ele><time>2026-04-11T15:17:11.008Z</time></trkpt><trkpt lat="44.247887626227275" lon="10.170630891164967"><ele>531.0</ele><time>2026-04-11T15:17:12.008Z</time></trkpt><trkpt lat="44.24787354842405" lon="10.170457372932619"><ele>531.0</ele><time>2026-04-11T15:17:13.008Z</time></trkpt><trkpt lat="44.24784915289681" lon="10.170265360152122"><ele>530.0</ele><time>2026-04-11T15:17:14.008Z</time></trkpt><trkpt lat="44.247814181765506" lon="10.1700572668326"><ele>529.0</ele><time>2026-04-11T15:17:15.008Z</time></trkpt><trkpt lat="44.24776188748279" lon="10.169831950121075"><ele>528.0</ele><time>2026-04-11T15:17:16.008Z</time></trkpt><trkpt lat="44.24768312823972" lon="10.169568313332846"><ele>524.0</ele><time>2026-04-11T15:17:17.008Z</time></trkpt><trkpt lat="44.24760711667114" lon="10.169283645548196"><ele>520.0</ele><time>2026-04-11T15:17:18.008Z</time></trkpt><trkpt lat="44.247532167430236" lon="10.168974597866292"><ele>515.5</ele><time>2026-04-11T15:17:19.008Z</time></trkpt><trkpt lat="44.24745352534836" lon="10.16866368243417"><ele>511.0</ele><time>2026-04-11T15:17:20.008Z</time></trkpt><trkpt lat="44.24737953722461" lon="10.168376794012929"><ele>508.0</ele><time>2026-04-11T15:17:21.008Z</time></trkpt><trkpt lat="44.24730495665181" lon="10.168110321369637"><ele>505.0</ele><time>2026-04-11T15:17:22.008Z</time></trkpt><trkpt lat="44.24722035008969" lon="10.167858720489287"><ele>502.0</ele><time>2026-04-11T15:17:23.008Z</time></trkpt><trkpt lat="44.24712327993217" lon="10.167623933024895"><ele>505.33333333333337</ele><time>2026-04-11T15:17:24.008Z</time></trkpt><trkpt lat="44.24703135606332" lon="10.167406474261472"><ele>508.66666666666663</ele><time>2026-04-11T15:17:25.008Z</time></trkpt><trkpt lat="44.24696190304258" lon="10.167205220567087"><ele>512.0</ele><time>2026-04-11T15:17:26.009Z</time></trkpt><trkpt lat="44.246912328667385" lon="10.16701533034734"><ele>512.0</ele><time>2026-04-11T15:17:27.009Z</time></trkpt><trkpt lat="44.24683335189817" lon="10.166851961503808"><ele>512.0</ele><time>2026-04-11T15:17:28.009Z</time></trkpt><trkpt lat="44.2467197197885" lon="10.166716572712266"><ele>512.0</ele><time>2026-04-11T15:17:29.009Z</time></trkpt><trkpt lat="44.24659066892761" lon="10.166613366603155"><ele>512.0</ele><time>2026-04-11T15:17:30.009Z</time></trkpt><trkpt lat="44.24646803969031" lon="10.166500080299532"><ele>517.6666666666666</ele><time>2026-04-11T15:17:31.009Z</time></trkpt><trkpt lat="44.24635613138696" lon="10.166356098541213"><ele>523.3333333333334</ele><time>2026-04-11T15:17:32.009Z</time></trkpt><trkpt lat="44.24625216426562" lon="10.166198347882087"><ele>529.0</ele><time>2026-04-11T15:17:33.009Z</time></trkpt><trkpt lat="44.24616797204848" lon="10.166032927671814"><ele>529.0</ele><time>2026-04-11T15:17:34.009Z</time></trkpt><trkpt lat="44.246088663015485" lon="10.165874818995434"><ele>529.0</ele><time>2026-04-11T15:17:35.009Z</time></trkpt><trkpt lat="44.246023427212265" lon="10.165711147469013"><ele>529.0</ele><time>2026-04-11T15:17:36.009Z</time></trkpt><trkpt lat="44.245960915132436" lon="10.165548709609855"><ele>529.0</ele><time>2026-04-11T15:17:37.009Z</time></trkpt><trkpt lat="44.24590572660376" lon="10.165395443185291"><ele>524.0</ele><time>2026-04-11T15:17:38.009Z</time></trkpt><trkpt lat="44.245847503575" lon="10.165251215866235"><ele>519.0</ele><time>2026-04-11T15:17:39.009Z</time></trkpt><trkpt lat="44.24579073648286" lon="10.165096216006337"><ele>514.0</ele><time>2026-04-11T15:17:40.009Z</time></trkpt><trkpt lat="44.24573345198625" lon="10.164957148393173"><ele>509.0</ele><time>2026-04-11T15:17:41.009Z</time></trkpt><trkpt lat="44.24567658338614" lon="10.164827001151446"><ele>507.5</ele><time>2026-04-11T15:17:42.009Z</time></trkpt><trkpt lat="44.24560268075648" lon="10.164697650032586"><ele>506.0</ele><time>2026-04-11T15:17:43.009Z</time></trkpt><trkpt lat="44.245516950062715" lon="10.164576005292204"><ele>504.5</ele><time>2026-04-11T15:17:44.009Z</time></trkpt><trkpt lat="44.24542273715264" lon="10.164444739608157"><ele>503.0</ele><time>2026-04-11T15:17:45.009Z</time></trkpt><trkpt lat="44.24531458884783" lon="10.164347117833653"><ele>503.0</ele><time>2026-04-11T15:17:46.009Z</time></trkpt><trkpt lat="44.24519741888943" lon="10.164291637456099"><ele>503.0</ele><time>2026-04-11T15:17:47.009Z</time></trkpt><trkpt lat="44.24506523860453" lon="10.164312732071895"><ele>503.0</ele><time>2026-04-11T15:17:48.009Z</time></trkpt><trkpt lat="44.24494087196289" lon="10.164371758960018"><ele>503.0</ele><time>2026-04-11T15:17:49.009Z</time></trkpt><trkpt lat="44.244844325965545" lon="10.164441478542209"><ele>505.4</ele><time>2026-04-11T15:17:50.009Z</time></trkpt><trkpt lat="44.24475962058316" lon="10.16448520259132"><ele>507.79999999999995</ele><time>2026-04-11T15:17:51.009Z</time></trkpt><trkpt lat="44.244671777640114" lon="10.164510708070356"><ele>510.2</ele><time>2026-04-11T15:17:52.009Z</time></trkpt><trkpt lat="44.24457704323994" lon="10.164487443268825"><ele>512.6</ele><time>2026-04-11T15:17:53.009Z</time></trkpt><trkpt lat="44.24448972388228" lon="10.164428762933463"><ele>515.0</ele><time>2026-04-11T15:17:54.009Z</time></trkpt><trkpt lat="44.244416635121546" lon="10.164355468461636"><ele>515.0</ele><time>2026-04-11T15:17:55.009Z</time></trkpt><trkpt lat="44.24435453886256" lon="10.164245769141521"><ele>515.0</ele><time>2026-04-11T15:17:56.009Z</time></trkpt><trkpt lat="44.24430673994279" lon="10.164115487723732"><ele>515.0</ele><time>2026-04-11T15:17:57.009Z</time></trkpt><trkpt lat="44.244291767575824" lon="10.16396797896849"><ele>515.0</ele><time>2026-04-11T15:17:58.009Z</time></trkpt><trkpt lat="44.24431184862478" lon="10.163806024991855"><ele>515.0</ele><time>2026-04-11T15:17:59.009Z</time></trkpt><trkpt lat="44.244337897604716" lon="10.163633457635633"><ele>516.0</ele><time>2026-04-11T15:18:00.009Z</time></trkpt><trkpt lat="44.24437419542646" lon="10.163451819485514"><ele>517.0</ele><time>2026-04-11T15:18:01.009Z</time></trkpt><trkpt lat="44.24441434369351" lon="10.163257868089442"><ele>518.0</ele><time>2026-04-11T15:18:02.009Z</time></trkpt><trkpt lat="44.24446060127932" lon="10.163069967827328"><ele>519.0</ele><time>2026-04-11T15:18:03.009Z</time></trkpt><trkpt lat="44.24451326353867" lon="10.162909540560468"><ele>519.0</ele><time>2026-04-11T15:18:04.009Z</time></trkpt><trkpt lat="44.244565852641124" lon="10.162757758456337"><ele>519.0</ele><time>2026-04-11T15:18:05.009Z</time></trkpt><trkpt lat="44.24461735382836" lon="10.162609305738087"><ele>519.0</ele><time>2026-04-11T15:18:06.009Z</time></trkpt><trkpt lat="44.244662716133874" lon="10.162459916481994"><ele>519.0</ele><time>2026-04-11T15:18:07.009Z</time></trkpt><trkpt lat="44.24469582722844" lon="10.162290066122694"><ele>516.75</ele><time>2026-04-11T15:18:08.009Z</time></trkpt><trkpt lat="44.24472088543086" lon="10.162122462387243"><ele>514.5</ele><time>2026-04-11T15:18:09.009Z</time></trkpt><trkpt lat="44.24474671093771" lon="10.16197184858899"><ele>512.25</ele><time>2026-04-11T15:18:10.009Z</time></trkpt><trkpt lat="44.24476225714783" lon="10.161808866957115"><ele>510.0</ele><time>2026-04-11T15:18:11.009Z</time></trkpt><trkpt lat="44.24475892721134" lon="10.161632302124314"><ele>509.5</ele><time>2026-04-11T15:18:12.009Z</time></trkpt><trkpt lat="44.244743699024575" lon="10.161452356209711"><ele>509.0</ele><time>2026-04-11T15:18:13.009Z</time></trkpt><trkpt lat="44.24470859884968" lon="10.161268764180084"><ele>508.5</ele><time>2026-04-11T15:18:14.009Z</time></trkpt><trkpt lat="44.2446641976189" lon="10.16108850378371"><ele>508.0</ele><time>2026-04-11T15:18:15.009Z</time></trkpt><trkpt lat="44.24461290333427" lon="10.160907349819034"><ele>508.0</ele><time>2026-04-11T15:18:16.009Z</time></trkpt><trkpt lat="44.244564475241496" lon="10.160725515023447"><ele>508.0</ele><time>2026-04-11T15:18:17.009Z</time></trkpt><trkpt lat="44.24450830199328" lon="10.160547398124674"><ele>508.0</ele><time>2026-04-11T15:18:18.009Z</time></trkpt><trkpt lat="44.24444229797157" lon="10.160384249394424"><ele>508.0</ele><time>2026-04-11T15:18:19.009Z</time></trkpt><trkpt lat="44.244358758262905" lon="10.160226168673418"><ele>505.5</ele><time>2026-04-11T15:18:20.009Z</time></trkpt><trkpt lat="44.24427786715779" lon="10.16007368966815"><ele>503.0</ele><time>2026-04-11T15:18:21.009Z</time></trkpt><trkpt lat="44.24419436182074" lon="10.159924034526249"><ele>500.5</ele><time>2026-04-11T15:18:22.009Z</time></trkpt><trkpt lat="44.2441256718384" lon="10.159767155244479"><ele>498.0</ele><time>2026-04-11T15:18:23.009Z</time></trkpt><trkpt lat="44.24407770667483" lon="10.159608445104054"><ele>495.3333333333333</ele><time>2026-04-11T15:18:24.009Z</time></trkpt><trkpt lat="44.24406590279674" lon="10.159457530915544"><ele>492.66666666666663</ele><time>2026-04-11T15:18:25.009Z</time></trkpt><trkpt lat="44.24406977155574" lon="10.159327003805641"><ele>490.0</ele><time>2026-04-11T15:18:26.009Z</time></trkpt><trkpt lat="44.244086071590175" lon="10.159214545704057"><ele>487.3333333333333</ele><time>2026-04-11T15:18:27.009Z</time></trkpt><trkpt lat="44.24405248446479" lon="10.159126345052732"><ele>484.66666666666663</ele><time>2026-04-11T15:18:28.009Z</time></trkpt><trkpt lat="44.24397926028814" lon="10.159066186155858"><ele>482.0</ele><time>2026-04-11T15:18:29.009Z</time></trkpt><trkpt lat="44.243873762589615" lon="10.15902674412005"><ele>479.25</ele><time>2026-04-11T15:18:30.009Z</time></trkpt><trkpt lat="44.24376904618749" lon="10.159002439855854"><ele>476.5</ele><time>2026-04-11T15:18:31.009Z</time></trkpt><trkpt lat="44.24365605050012" lon="10.158982180756773"><ele>473.75</ele><time>2026-04-11T15:18:32.009Z</time></trkpt><trkpt lat="44.24354155955249" lon="10.158961467437074"><ele>471.0</ele><time>2026-04-11T15:18:33.009Z</time></trkpt><trkpt lat="44.243425072053036" lon="10.158942850575185"><ele>471.0</ele><time>2026-04-11T15:18:34.009Z</time></trkpt><trkpt lat="44.2433057490595" lon="10.158958524209618"><ele>471.0</ele><time>2026-04-11T15:18:35.009Z</time></trkpt><trkpt lat="44.24318213719989" lon="10.1589848138199"><ele>471.0</ele><time>2026-04-11T15:18:36.009Z</time></trkpt><trkpt lat="44.24306915816842" lon="10.159026839347915"><ele>471.0</ele><time>2026-04-11T15:18:37.009Z</time></trkpt><trkpt lat="44.242960678049876" lon="10.159045091343597"><ele>473.75</ele><time>2026-04-11T15:18:38.009Z</time></trkpt><trkpt lat="44.242864983984845" lon="10.159039121734196"><ele>476.5</ele><time>2026-04-11T15:18:39.009Z</time></trkpt><trkpt lat="44.24276450275" lon="10.158994029665491"><ele>479.25</ele><time>2026-04-11T15:18:40.009Z</time></trkpt><trkpt lat="44.24266501583165" lon="10.15890431172314"><ele>482.0</ele><time>2026-04-11T15:18:41.009Z</time></trkpt><trkpt lat="44.24257017190583" lon="10.158770309001165"><ele>482.0</ele><time>2026-04-11T15:18:42.009Z</time></trkpt><trkpt lat="44.24247151009573" lon="10.1586286974373"><ele>482.0</ele><time>2026-04-11T15:18:43.009Z</time></trkpt><trkpt lat="44.2423779137544" lon="10.158472043532054"><ele>482.0</ele><time>2026-04-11T15:18:44.009Z</time></trkpt><trkpt lat="44.242292496149645" lon="10.15831253784009"><ele>482.0</ele><time>2026-04-11T15:18:45.009Z</time></trkpt><trkpt lat="44.24222451107496" lon="10.158154601760616"><ele>481.75</ele><time>2026-04-11T15:18:46.009Z</time></trkpt><trkpt lat="44.24217633461693" lon="10.157990957675372"><ele>481.5</ele><time>2026-04-11T15:18:47.009Z</time></trkpt><trkpt lat="44.242160647575375" lon="10.15779843718021"><ele>481.25</ele><time>2026-04-11T15:18:48.009Z</time></trkpt><trkpt lat="44.2421890299188" lon="10.157576276493447"><ele>481.0</ele><time>2026-04-11T15:18:49.009Z</time></trkpt><trkpt lat="44.24224950043376" lon="10.157346986249108"><ele>480.33333333333337</ele><time>2026-04-11T15:18:50.009Z</time></trkpt><trkpt lat="44.24233485868099" lon="10.157125409253348"><ele>479.66666666666663</ele><time>2026-04-11T15:18:51.009Z</time></trkpt><trkpt lat="44.2423748925171" lon="10.156917226399075"><ele>479.0</ele><time>2026-04-11T15:18:52.009Z</time></trkpt><trkpt lat="44.24242749469669" lon="10.156713956637619"><ele>481.0</ele><time>2026-04-11T15:18:53.009Z</time></trkpt><trkpt lat="44.242482302213396" lon="10.156521075112968"><ele>483.0</ele><time>2026-04-11T15:18:54.009Z</time></trkpt><trkpt lat="44.24255836979699" lon="10.156330915778025"><ele>485.0</ele><time>2026-04-11T15:18:55.009Z</time></trkpt><trkpt lat="44.24265647076991" lon="10.156172336328144"><ele>485.0</ele><time>2026-04-11T15:18:56.009Z</time></trkpt><trkpt lat="44.24275506606163" lon="10.156028126918756"><ele>485.0</ele><time>2026-04-11T15:18:57.009Z</time></trkpt><trkpt lat="44.24286472551816" lon="10.155906165947812"><ele>485.0</ele><time>2026-04-11T15:18:58.009Z</time></trkpt><trkpt lat="44.242990074071884" lon="10.155804768320602"><ele>485.0</ele><time>2026-04-11T15:18:59.009Z</time></trkpt><trkpt lat="44.24312696970809" lon="10.155726008229356"><ele>482.25</ele><time>2026-04-11T15:19:00.009Z</time></trkpt><trkpt lat="44.24325197028987" lon="10.155638702030512"><ele>479.5</ele><time>2026-04-11T15:19:01.009Z</time></trkpt><trkpt lat="44.243358811552014" lon="10.155526732365885"><ele>476.75</ele><time>2026-04-11T15:19:02.009Z</time></trkpt><trkpt lat="44.24345143921886" lon="10.155393787886544"><ele>474.0</ele><time>2026-04-11T15:19:03.009Z</time></trkpt><trkpt lat="44.243536103648616" lon="10.15524753603498"><ele>474.0</ele><time>2026-04-11T15:19:04.009Z</time></trkpt><trkpt lat="44.24360590457573" lon="10.155094901788628"><ele>474.0</ele><time>2026-04-11T15:19:05.009Z</time></trkpt><trkpt lat="44.24367167885102" lon="10.154927531049122"><ele>474.0</ele><time>2026-04-11T15:19:06.009Z</time></trkpt><trkpt lat="44.24372960185863" lon="10.154757379059388"><ele>474.0</ele><time>2026-04-11T15:19:07.009Z</time></trkpt><trkpt lat="44.24377207001218" lon="10.154589504676753"><ele>473.0</ele><time>2026-04-11T15:19:08.009Z</time></trkpt><trkpt lat="44.24380054352032" lon="10.15442208723913"><ele>472.0</ele><time>2026-04-11T15:19:09.009Z</time></trkpt><trkpt lat="44.2438091070668" lon="10.15424895006907"><ele>471.0</ele><time>2026-04-11T15:19:10.009Z</time></trkpt><trkpt lat="44.24380216966836" lon="10.154062135615858"><ele>470.0</ele><time>2026-04-11T15:19:11.009Z</time></trkpt><trkpt lat="44.24377926591184" lon="10.153879182638748"><ele>468.75</ele><time>2026-04-11T15:19:12.009Z</time></trkpt><trkpt lat="44.24373882172424" lon="10.153698814865011"><ele>467.5</ele><time>2026-04-11T15:19:13.009Z</time></trkpt><trkpt lat="44.24369520961847" lon="10.153525027005822"><ele>466.25</ele><time>2026-04-11T15:19:14.009Z</time></trkpt><trkpt lat="44.24365453972873" lon="10.153353221864611"><ele>465.0</ele><time>2026-04-11T15:19:15.009Z</time></trkpt><trkpt lat="44.24360666077598" lon="10.153191319921923"><ele>463.4</ele><time>2026-04-11T15:19:16.009Z</time></trkpt><trkpt lat="44.243552703288934" lon="10.153048343964905"><ele>461.8</ele><time>2026-04-11T15:19:17.009Z</time></trkpt><trkpt lat="44.24349752614439" lon="10.15292390219191"><ele>460.20000000000005</ele><time>2026-04-11T15:19:18.009Z</time></trkpt><trkpt lat="44.24345466766258" lon="10.152809919461179"><ele>458.6</ele><time>2026-04-11T15:19:19.009Z</time></trkpt><trkpt lat="44.24343626536622" lon="10.152684413539113"><ele>457.0</ele><time>2026-04-11T15:19:20.009Z</time></trkpt><trkpt lat="44.24345275420196" lon="10.152544807819725"><ele>457.0</ele><time>2026-04-11T15:19:21.009Z</time></trkpt><trkpt lat="44.24348965045436" lon="10.15239272829752"><ele>457.0</ele><time>2026-04-11T15:19:22.009Z</time></trkpt><trkpt lat="44.24351976623536" lon="10.152235322870053"><ele>457.0</ele><time>2026-04-11T15:19:23.009Z</time></trkpt><trkpt lat="44.24352855880863" lon="10.152071213902362"><ele>457.0</ele><time>2026-04-11T15:19:24.009Z</time></trkpt><trkpt lat="44.24351248301651" lon="10.1519043233925"><ele>454.75</ele><time>2026-04-11T15:19:25.01Z</time></trkpt><trkpt lat="44.243467167732106" lon="10.151731602791884"><ele>452.5</ele><time>2026-04-11T15:19:26.01Z</time></trkpt><trkpt lat="44.24343399308559" lon="10.151560369597023"><ele>450.25</ele><time>2026-04-11T15:19:27.01Z</time></trkpt><trkpt lat="44.24339936115155" lon="10.151406736461404"><ele>448.0</ele><time>2026-04-11T15:19:28.01Z</time></trkpt><trkpt lat="44.243336456774166" lon="10.151270032764545"><ele>445.0</ele><time>2026-04-11T15:19:29.01Z</time></trkpt><trkpt lat="44.243252632377164" lon="10.151155689877028"><ele>441.99999999999994</ele><time>2026-04-11T15:19:30.01Z</time></trkpt><trkpt lat="44.24315982521214" lon="10.151066334318198"><ele>438.99999999999994</ele><time>2026-04-11T15:19:31.01Z</time></trkpt><trkpt lat="44.24308200572939" lon="10.150970645282701"><ele>436.0</ele><time>2026-04-11T15:19:32.01Z</time></trkpt><trkpt lat="44.243033056002616" lon="10.150864048858006"><ele>433.0</ele><time>2026-04-11T15:19:33.01Z</time></trkpt><trkpt lat="44.243011598123545" lon="10.150728902159765"><ele>440.6666666666667</ele><time>2026-04-11T15:19:34.01Z</time></trkpt><trkpt lat="44.243020705150386" lon="10.150572574942796"><ele>448.33333333333337</ele><time>2026-04-11T15:19:35.01Z</time></trkpt><trkpt lat="44.2430233881917" lon="10.150356378944759"><ele>456.0</ele><time>2026-04-11T15:19:36.01Z</time></trkpt><trkpt lat="44.24304255738304" lon="10.150068616697896"><ele>455.0</ele><time>2026-04-11T15:19:37.01Z</time></trkpt><trkpt lat="44.24306679299159" lon="10.149750506854016"><ele>454.0</ele><time>2026-04-11T15:19:38.01Z</time></trkpt><trkpt lat="44.24306804449672" lon="10.149379830748748"><ele>448.5</ele><time>2026-04-11T15:19:39.01Z</time></trkpt><trkpt lat="44.24309247642427" lon="10.149033462279787"><ele>443.0</ele><time>2026-04-11T15:19:40.01Z</time></trkpt><trkpt lat="44.24310791853475" lon="10.148735904620104"><ele>443.0</ele><time>2026-04-11T15:19:41.01Z</time></trkpt><trkpt lat="44.24310202827606" lon="10.148473554829131"><ele>443.0</ele><time>2026-04-11T15:19:42.01Z</time></trkpt><trkpt lat="44.24309955607899" lon="10.148259588611912"><ele>443.0</ele><time>2026-04-11T15:19:43.01Z</time></trkpt><trkpt lat="44.24307546395848" lon="10.148067959634853"><ele>437.66666666666663</ele><time>2026-04-11T15:19:44.01Z</time></trkpt><trkpt lat="44.2429953526372" lon="10.147855880331196"><ele>432.33333333333337</ele><time>2026-04-11T15:19:45.01Z</time></trkpt><trkpt lat="44.242879931358054" lon="10.147659590894705"><ele>427.0</ele><time>2026-04-11T15:19:46.01Z</time></trkpt><trkpt lat="44.24281068047724" lon="10.147472913383162"><ele>422.25</ele><time>2026-04-11T15:19:47.01Z</time></trkpt><trkpt lat="44.242771047398655" lon="10.14730506560113"><ele>417.5</ele><time>2026-04-11T15:19:48.01Z</time></trkpt><trkpt lat="44.24271878998029" lon="10.147135388563715"><ele>412.75</ele><time>2026-04-11T15:19:49.01Z</time></trkpt><trkpt lat="44.24264797802769" lon="10.14701768619752"><ele>408.0</ele><time>2026-04-11T15:19:50.01Z</time></trkpt><trkpt lat="44.24251066031631" lon="10.146925452450493"><ele>408.0</ele><time>2026-04-11T15:19:51.01Z</time></trkpt><trkpt lat="44.24240637471706" lon="10.146841515320219"><ele>408.0</ele><time>2026-04-11T15:19:52.01Z</time></trkpt><trkpt lat="44.24229344871336" lon="10.14670616438141"><ele>408.0</ele><time>2026-04-11T15:19:53.01Z</time></trkpt><trkpt lat="44.24222617199021" lon="10.146496578035997"><ele>408.0</ele><time>2026-04-11T15:19:54.01Z</time></trkpt><trkpt lat="44.242180749556866" lon="10.146229050831595"><ele>408.33333333333337</ele><time>2026-04-11T15:19:55.01Z</time></trkpt><trkpt lat="44.24213513189304" lon="10.145960035607434"><ele>408.6666666666667</ele><time>2026-04-11T15:19:56.01Z</time></trkpt><trkpt lat="44.24212111529681" lon="10.145674134779592"><ele>409.0</ele><time>2026-04-11T15:19:57.01Z</time></trkpt><trkpt lat="44.24212115041441" lon="10.145377985602968"><ele>407.6666666666667</ele><time>2026-04-11T15:19:58.01Z</time></trkpt><trkpt lat="44.24212616066858" lon="10.145085670642548"><ele>406.33333333333337</ele><time>2026-04-11T15:19:59.01Z</time></trkpt><trkpt lat="44.242152463120505" lon="10.144839766657299"><ele>405.0</ele><time>2026-04-11T15:20:00.01Z</time></trkpt><trkpt lat="44.242167639219396" lon="10.144620674713824"><ele>404.0</ele><time>2026-04-11T15:20:01.01Z</time></trkpt><trkpt lat="44.24218009397057" lon="10.144436693591084"><ele>403.0</ele><time>2026-04-11T15:20:02.01Z</time></trkpt><trkpt lat="44.24218341544389" lon="10.144291354150704"><ele>402.0</ele><time>2026-04-11T15:20:03.01Z</time></trkpt><trkpt lat="44.24216951291963" lon="10.144158827471491"><ele>401.0</ele><time>2026-04-11T15:20:04.01Z</time></trkpt><trkpt lat="44.242098571929525" lon="10.144031356785547"><ele>400.0</ele><time>2026-04-11T15:20:05.01Z</time></trkpt><trkpt lat="44.24200496732324" lon="10.143910521169417"><ele>398.75</ele><time>2026-04-11T15:20:06.01Z</time></trkpt><trkpt lat="44.24193312889084" lon="10.143753158008343"><ele>397.5</ele><time>2026-04-11T15:20:07.01Z</time></trkpt><trkpt lat="44.24191114381918" lon="10.143570462391235"><ele>396.25</ele><time>2026-04-11T15:20:08.01Z</time></trkpt><trkpt lat="44.24192271277073" lon="10.143376670589882"><ele>395.0</ele><time>2026-04-11T15:20:09.01Z</time></trkpt><trkpt lat="44.24197401636544" lon="10.143167285570101"><ele>393.66666666666663</ele><time>2026-04-11T15:20:10.01Z</time></trkpt><trkpt lat="44.24202686984003" lon="10.142952222364348"><ele>392.33333333333337</ele><time>2026-04-11T15:20:11.01Z</time></trkpt><trkpt lat="44.24206816346524" lon="10.142717705260594"><ele>391.0</ele><time>2026-04-11T15:20:12.01Z</time></trkpt><trkpt lat="44.24210848226267" lon="10.142467190327483"><ele>392.33333333333337</ele><time>2026-04-11T15:20:13.01Z</time></trkpt><trkpt lat="44.24216497147054" lon="10.14221610708586"><ele>393.66666666666663</ele><time>2026-04-11T15:20:14.01Z</time></trkpt><trkpt lat="44.24224377480869" lon="10.14198360285711"><ele>395.0</ele><time>2026-04-11T15:20:15.01Z</time></trkpt><trkpt lat="44.24234113844203" lon="10.1417544633412"><ele>386.3333333333333</ele><time>2026-04-11T15:20:16.01Z</time></trkpt><trkpt lat="44.24241025185217" lon="10.141508173417698"><ele>377.66666666666663</ele><time>2026-04-11T15:20:17.01Z</time></trkpt><trkpt lat="44.242452089636174" lon="10.14126780779878"><ele>369.0</ele><time>2026-04-11T15:20:18.01Z</time></trkpt><trkpt lat="44.24248464277035" lon="10.141020321069286"><ele>369.0</ele><time>2026-04-11T15:20:19.01Z</time></trkpt><trkpt lat="44.242500903504926" lon="10.140757448428095"><ele>369.0</ele><time>2026-04-11T15:20:20.01Z</time></trkpt><trkpt lat="44.24252597892287" lon="10.14050316729148"><ele>369.0</ele><time>2026-04-11T15:20:21.01Z</time></trkpt><trkpt lat="44.242553085599525" lon="10.140250901255913"><ele>369.3333333333333</ele><time>2026-04-11T15:20:22.01Z</time></trkpt><trkpt lat="44.2425841269219" lon="10.140006403362548"><ele>369.66666666666663</ele><time>2026-04-11T15:20:23.01Z</time></trkpt><trkpt lat="44.242611851144154" lon="10.139773905946877"><ele>370.0</ele><time>2026-04-11T15:20:24.01Z</time></trkpt><trkpt lat="44.24263919782212" lon="10.13954102936029"><ele>370.3333333333333</ele><time>2026-04-11T15:20:25.01Z</time></trkpt><trkpt lat="44.24267029859171" lon="10.139312212907132"><ele>370.6666666666667</ele><time>2026-04-11T15:20:26.01Z</time></trkpt><trkpt lat="44.242697935466765" lon="10.139089025550264"><ele>371.0</ele><time>2026-04-11T15:20:27.01Z</time></trkpt><trkpt lat="44.24272012767436" lon="10.138865046933683"><ele>370.25</ele><time>2026-04-11T15:20:28.01Z</time></trkpt><trkpt lat="44.24274402182361" lon="10.138650719279509"><ele>369.5</ele><time>2026-04-11T15:20:29.01Z</time></trkpt><trkpt lat="44.242758179224545" lon="10.138447634689204"><ele>368.75</ele><time>2026-04-11T15:20:30.01Z</time></trkpt><trkpt lat="44.2427749478232" lon="10.138258630966359"><ele>368.0</ele><time>2026-04-11T15:20:31.01Z</time></trkpt><trkpt lat="44.24277731850069" lon="10.13807987027469"><ele>366.4</ele><time>2026-04-11T15:20:32.01Z</time></trkpt><trkpt lat="44.24277020080951" lon="10.137920350250662"><ele>364.79999999999995</ele><time>2026-04-11T15:20:33.01Z</time></trkpt><trkpt lat="44.242746829502295" lon="10.13778208897903"><ele>363.2</ele><time>2026-04-11T15:20:34.01Z</time></trkpt><trkpt lat="44.242687507138356" lon="10.137668706351862"><ele>361.6</ele><time>2026-04-11T15:20:35.01Z</time></trkpt><trkpt lat="44.2426044158653" lon="10.13759093646909"><ele>360.0</ele><time>2026-04-11T15:20:36.01Z</time></trkpt><trkpt lat="44.242504366408234" lon="10.1375585992988"><ele>360.0</ele><time>2026-04-11T15:20:37.01Z</time></trkpt><trkpt lat="44.242404061104715" lon="10.137549596309793"><ele>360.0</ele><time>2026-04-11T15:20:38.01Z</time></trkpt><trkpt lat="44.24230017914228" lon="10.137514916368616"><ele>360.0</ele><time>2026-04-11T15:20:39.01Z</time></trkpt><trkpt lat="44.242197778702355" lon="10.137443721186594"><ele>360.0</ele><time>2026-04-11T15:20:40.01Z</time></trkpt><trkpt lat="44.2421156282794" lon="10.137335871531661"><ele>360.0</ele><time>2026-04-11T15:20:41.01Z</time></trkpt><trkpt lat="44.24206377585612" lon="10.137209358706844"><ele>368.5</ele><time>2026-04-11T15:20:42.01Z</time></trkpt><trkpt lat="44.24203347645312" lon="10.137059513077128"><ele>377.0</ele><time>2026-04-11T15:20:43.01Z</time></trkpt><trkpt lat="44.24202779710212" lon="10.136895060276007"><ele>385.5</ele><time>2026-04-11T15:20:44.01Z</time></trkpt><trkpt lat="44.242037758067084" lon="10.136715938719707"><ele>394.0</ele><time>2026-04-11T15:20:45.01Z</time></trkpt><trkpt lat="44.24204773400667" lon="10.136531707546109"><ele>396.33333333333337</ele><time>2026-04-11T15:20:46.01Z</time></trkpt><trkpt lat="44.24206025581859" lon="10.136329527107497"><ele>398.66666666666663</ele><time>2026-04-11T15:20:47.01Z</time></trkpt><trkpt lat="44.24206564689139" lon="10.136109874868454"><ele>401.0</ele><time>2026-04-11T15:20:48.01Z</time></trkpt><trkpt lat="44.242068473699405" lon="10.135880900971653"><ele>401.66666666666663</ele><time>2026-04-11T15:20:49.01Z</time></trkpt><trkpt lat="44.242072423718255" lon="10.13564883727468"><ele>402.33333333333337</ele><time>2026-04-11T15:20:50.01Z</time></trkpt><trkpt lat="44.24206827316389" lon="10.135428325489153"><ele>403.0</ele><time>2026-04-11T15:20:51.01Z</time></trkpt><trkpt lat="44.24206088872864" lon="10.135218764230476"><ele>403.0</ele><time>2026-04-11T15:20:52.01Z</time></trkpt><trkpt lat="44.242055794170874" lon="10.135016651169073"><ele>403.0</ele><time>2026-04-11T15:20:53.01Z</time></trkpt><trkpt lat="44.2420619245235" lon="10.134818494830206"><ele>403.0</ele><time>2026-04-11T15:20:54.01Z</time></trkpt><trkpt lat="44.242104383465914" lon="10.134623456262547"><ele>403.0</ele><time>2026-04-11T15:20:55.01Z</time></trkpt><trkpt lat="44.24216122073481" lon="10.134433806121171"><ele>402.5</ele><time>2026-04-11T15:20:55.995Z</time></trkpt><trkpt lat="44.24220694384377" lon="10.134241820748887"><ele>402.0</ele><time>2026-04-11T15:20:56.995Z</time></trkpt><trkpt lat="44.242246413019096" lon="10.13403848427387"><ele>401.5</ele><time>2026-04-11T15:20:57.995Z</time></trkpt><trkpt lat="44.24226964335409" lon="10.133833659435208"><ele>401.0</ele><time>2026-04-11T15:20:58.995Z</time></trkpt><trkpt lat="44.24227245259767" lon="10.133612303067896"><ele>398.0</ele><time>2026-04-11T15:20:59.995Z</time></trkpt><trkpt lat="44.24227380075026" lon="10.133377256648982"><ele>395.0</ele><time>2026-04-11T15:21:00.995Z</time></trkpt><trkpt lat="44.24227163103065" lon="10.133144619500943"><ele>392.0</ele><time>2026-04-11T15:21:01.995Z</time></trkpt><trkpt lat="44.242267633417434" lon="10.132925895886101"><ele>385.66666666666663</ele><time>2026-04-11T15:21:02.995Z</time></trkpt><trkpt lat="44.24224746963725" lon="10.132702528575404"><ele>379.3333333333333</ele><time>2026-04-11T15:21:03.995Z</time></trkpt><trkpt lat="44.242234079903675" lon="10.132467943343913"><ele>373.0</ele><time>2026-04-11T15:21:04.995Z</time></trkpt><trkpt lat="44.24221476116252" lon="10.132240767837233"><ele>370.25</ele><time>2026-04-11T15:21:05.995Z</time></trkpt><trkpt lat="44.24218918415951" lon="10.132026994738727"><ele>367.5</ele><time>2026-04-11T15:21:06.995Z</time></trkpt><trkpt lat="44.24216371248399" lon="10.131838486604492"><ele>364.75</ele><time>2026-04-11T15:21:07.995Z</time></trkpt><trkpt lat="44.24212714108527" lon="10.131649961102754"><ele>362.0</ele><time>2026-04-11T15:21:08.995Z</time></trkpt><trkpt lat="44.24208365184499" lon="10.131469673022234"><ele>361.25</ele><time>2026-04-11T15:21:09.995Z</time></trkpt><trkpt lat="44.24201446892734" lon="10.131301747504605"><ele>360.5</ele><time>2026-04-11T15:21:10.995Z</time></trkpt><trkpt lat="44.241930128384446" lon="10.13113399270666"><ele>359.75</ele><time>2026-04-11T15:21:11.995Z</time></trkpt><trkpt lat="44.24184062310295" lon="10.13097110553227"><ele>359.0</ele><time>2026-04-11T15:21:12.995Z</time></trkpt><trkpt lat="44.24175201961081" lon="10.130804342710249"><ele>359.25</ele><time>2026-04-11T15:21:13.995Z</time></trkpt><trkpt lat="44.24166819777651" lon="10.13063146861894"><ele>359.5</ele><time>2026-04-11T15:21:14.995Z</time></trkpt><trkpt lat="44.241583873488715" lon="10.130454390972105"><ele>359.75</ele><time>2026-04-11T15:21:15.995Z</time></trkpt><trkpt lat="44.241503504024124" lon="10.130291019141557"><ele>360.0</ele><time>2026-04-11T15:21:16.995Z</time></trkpt><trkpt lat="44.24142769842163" lon="10.130141774421284"><ele>358.75</ele><time>2026-04-11T15:21:17.995Z</time></trkpt><trkpt lat="44.24135618586312" lon="10.130000887426435"><ele>357.5</ele><time>2026-04-11T15:21:18.995Z</time></trkpt><trkpt lat="44.241279484658136" lon="10.129864136726345"><ele>356.25</ele><time>2026-04-11T15:21:19.995Z</time></trkpt><trkpt lat="44.241182061888026" lon="10.129746327331166"><ele>355.0</ele><time>2026-04-11T15:21:20.995Z</time></trkpt><trkpt lat="44.24106379546676" lon="10.12964452297026"><ele>354.5</ele><time>2026-04-11T15:21:21.995Z</time></trkpt><trkpt lat="44.240937114692535" lon="10.129568087388122"><ele>354.0</ele><time>2026-04-11T15:21:22.995Z</time></trkpt><trkpt lat="44.24081009696823" lon="10.129526441981382"><ele>353.5</ele><time>2026-04-11T15:21:23.995Z</time></trkpt><trkpt lat="44.24068362487631" lon="10.129511150417864"><ele>353.0</ele><time>2026-04-11T15:21:24.995Z</time></trkpt><trkpt lat="44.24055162746417" lon="10.129526478745467"><ele>352.0</ele><time>2026-04-11T15:21:25.995Z</time></trkpt><trkpt lat="44.24040987885797" lon="10.129561224608796"><ele>351.0</ele><time>2026-04-11T15:21:26.995Z</time></trkpt><trkpt lat="44.24025692089138" lon="10.12958938941947"><ele>350.0</ele><time>2026-04-11T15:21:27.995Z</time></trkpt><trkpt lat="44.24010887626994" lon="10.129599243832688"><ele>349.0</ele><time>2026-04-11T15:21:28.995Z</time></trkpt><trkpt lat="44.239959440752386" lon="10.129604255815499"><ele>349.0</ele><time>2026-04-11T15:21:29.995Z</time></trkpt><trkpt lat="44.239805842733915" lon="10.12960069032679"><ele>349.0</ele><time>2026-04-11T15:21:30.995Z</time></trkpt><trkpt lat="44.23964874373843" lon="10.129561551678545"><ele>349.0</ele><time>2026-04-11T15:21:31.995Z</time></trkpt><trkpt lat="44.23949367837881" lon="10.129491544232678"><ele>349.66666666666663</ele><time>2026-04-11T15:21:32.995Z</time></trkpt><trkpt lat="44.23933609714913" lon="10.129393882900855"><ele>350.3333333333333</ele><time>2026-04-11T15:21:33.995Z</time></trkpt><trkpt lat="44.23918512838896" lon="10.129263153737059"><ele>351.0</ele><time>2026-04-11T15:21:34.995Z</time></trkpt><trkpt lat="44.23906207148867" lon="10.129106539707463"><ele>349.0</ele><time>2026-04-11T15:21:35.995Z</time></trkpt><trkpt lat="44.23894549007075" lon="10.128925521970292"><ele>347.0</ele><time>2026-04-11T15:21:36.995Z</time></trkpt><trkpt lat="44.23884179146875" lon="10.128729559562963"><ele>345.0</ele><time>2026-04-11T15:21:37.995Z</time></trkpt><trkpt lat="44.23873482768265" lon="10.128536198002251"><ele>345.0</ele><time>2026-04-11T15:21:38.995Z</time></trkpt><trkpt lat="44.23863128702304" lon="10.128350356082686"><ele>345.0</ele><time>2026-04-11T15:21:39.995Z</time></trkpt><trkpt lat="44.238528473054814" lon="10.128177605545005"><ele>345.0</ele><time>2026-04-11T15:21:40.995Z</time></trkpt><trkpt lat="44.238432658462344" lon="10.12801451014976"><ele>344.25</ele><time>2026-04-11T15:21:41.995Z</time></trkpt><trkpt lat="44.238343117954" lon="10.127858407025434"><ele>343.5</ele><time>2026-04-11T15:21:42.993Z</time></trkpt><trkpt lat="44.23825942072687" lon="10.127709466930641"><ele>342.75</ele><time>2026-04-11T15:21:43.993Z</time></trkpt><trkpt lat="44.23818422121863" lon="10.127569911941546"><ele>342.0</ele><time>2026-04-11T15:21:44.993Z</time></trkpt><trkpt lat="44.23811042257574" lon="10.127435360267633"><ele>341.40000000000003</ele><time>2026-04-11T15:21:45.994Z</time></trkpt><trkpt lat="44.238036606956726" lon="10.127310691688924"><ele>340.8</ele><time>2026-04-11T15:21:46.994Z</time></trkpt><trkpt lat="44.23796650048162" lon="10.127196597885634"><ele>340.2</ele><time>2026-04-11T15:21:47.994Z</time></trkpt><trkpt lat="44.23790771585553" lon="10.127093190143926"><ele>339.6</ele><time>2026-04-11T15:21:48.994Z</time></trkpt><trkpt lat="44.23785814382255" lon="10.127000115111398"><ele>339.0</ele><time>2026-04-11T15:21:49.993Z</time></trkpt><trkpt lat="44.23781296787548" lon="10.126920640242725"><ele>339.0</ele><time>2026-04-11T15:21:50.993Z</time></trkpt><trkpt lat="44.2377752133495" lon="10.126846751000476"><ele>339.0</ele><time>2026-04-11T15:21:51.993Z</time></trkpt><trkpt lat="44.237726354885105" lon="10.126763883963351"><ele>339.0</ele><time>2026-04-11T15:21:52.994Z</time></trkpt><trkpt lat="44.2376419450111" lon="10.126640840649102"><ele>339.0</ele><time>2026-04-11T15:21:53.994Z</time></trkpt><trkpt lat="44.23754567482146" lon="10.126489482616646"><ele>339.0</ele><time>2026-04-11T15:21:54.993Z</time></trkpt><trkpt lat="44.23744510201376" lon="10.126308489443845"><ele>338.3333333333333</ele><time>2026-04-11T15:21:55.993Z</time></trkpt><trkpt lat="44.23732693425509" lon="10.12613773786047"><ele>337.66666666666663</ele><time>2026-04-11T15:21:56.993Z</time></trkpt><trkpt lat="44.23720422797275" lon="10.125953359234382"><ele>337.0</ele><time>2026-04-11T15:21:57.993Z</time></trkpt><trkpt lat="44.237068144561334" lon="10.125749070431734"><ele>334.3333333333333</ele><time>2026-04-11T15:21:58.993Z</time></trkpt><trkpt lat="44.23692180516362" lon="10.125546349358626"><ele>331.6666666666667</ele><time>2026-04-11T15:21:59.993Z</time></trkpt><trkpt lat="44.236775962552116" lon="10.125337407006194"><ele>329.0</ele><time>2026-04-11T15:22:00.993Z</time></trkpt><trkpt lat="44.23662874532371" lon="10.125139504002203"><ele>329.0</ele><time>2026-04-11T15:22:01.993Z</time></trkpt><trkpt lat="44.23648272731752" lon="10.124951249468971"><ele>329.0</ele><time>2026-04-11T15:22:02.993Z</time></trkpt><trkpt lat="44.236340098846995" lon="10.12475668689611"><ele>329.0</ele><time>2026-04-11T15:22:03.993Z</time></trkpt><trkpt lat="44.236201108374594" lon="10.124565575695549"><ele>326.6666666666667</ele><time>2026-04-11T15:22:04.993Z</time></trkpt><trkpt lat="44.236065187617676" lon="10.124378103209692"><ele>324.3333333333333</ele><time>2026-04-11T15:22:05.993Z</time></trkpt><trkpt lat="44.235927478362925" lon="10.124190039639439"><ele>322.0</ele><time>2026-04-11T15:22:06.993Z</time></trkpt><trkpt lat="44.235788896861976" lon="10.124000896043471"><ele>320.0</ele><time>2026-04-11T15:22:07.993Z</time></trkpt><trkpt lat="44.235650291074684" lon="10.123814727199928"><ele>318.0</ele><time>2026-04-11T15:22:08.993Z</time></trkpt><trkpt lat="44.23551392952626" lon="10.123624624292148"><ele>316.0</ele><time>2026-04-11T15:22:09.993Z</time></trkpt><trkpt lat="44.23538020773862" lon="10.123438301599894"><ele>316.0</ele><time>2026-04-11T15:22:10.993Z</time></trkpt><trkpt lat="44.235250401118066" lon="10.123266256750611"><ele>316.0</ele><time>2026-04-11T15:22:11.993Z</time></trkpt><trkpt lat="44.23512084423279" lon="10.123098024310545"><ele>316.0</ele><time>2026-04-11T15:22:12.993Z</time></trkpt><trkpt lat="44.23497412382715" lon="10.122958099713376"><ele>313.3333333333333</ele><time>2026-04-11T15:22:13.993Z</time></trkpt><trkpt lat="44.23482517418067" lon="10.122836050059494"><ele>310.6666666666667</ele><time>2026-04-11T15:22:14.993Z</time></trkpt><trkpt lat="44.234694560104366" lon="10.122717942214297"><ele>308.0</ele><time>2026-04-11T15:22:15.993Z</time></trkpt><trkpt lat="44.234581715963486" lon="10.122586335012954"><ele>308.0</ele><time>2026-04-11T15:22:16.993Z</time></trkpt><trkpt lat="44.23450246413332" lon="10.122439534004354"><ele>308.0</ele><time>2026-04-11T15:22:17.993Z</time></trkpt><trkpt lat="44.23443846021788" lon="10.122278491915335"><ele>308.0</ele><time>2026-04-11T15:22:18.993Z</time></trkpt><trkpt lat="44.23436928697452" lon="10.122134031445993"><ele>308.0</ele><time>2026-04-11T15:22:19.993Z</time></trkpt><trkpt lat="44.23422222240397" lon="10.121959096810034"><ele>304.0</ele><time>2026-04-11T15:22:20.993Z</time></trkpt><trkpt lat="44.23411666649886" lon="10.121871758905337"><ele>300.0</ele><time>2026-04-11T15:22:21.993Z</time></trkpt><trkpt lat="44.23398590987788" lon="10.12183761073267"><ele>296.0</ele><time>2026-04-11T15:22:22.993Z</time></trkpt><trkpt lat="44.23385412241395" lon="10.121858833894859"><ele>292.0</ele><time>2026-04-11T15:22:23.993Z</time></trkpt><trkpt lat="44.23373339563613" lon="10.12194454623099"><ele>291.3333333333333</ele><time>2026-04-11T15:22:24.993Z</time></trkpt><trkpt lat="44.23363046594148" lon="10.122076267955215"><ele>290.6666666666667</ele><time>2026-04-11T15:22:25.993Z</time></trkpt><trkpt lat="44.23354849644458" lon="10.122253392019692"><ele>290.0</ele><time>2026-04-11T15:22:26.993Z</time></trkpt><trkpt lat="44.23349460145774" lon="10.122472580605383"><ele>290.0</ele><time>2026-04-11T15:22:27.993Z</time></trkpt><trkpt lat="44.23346666084685" lon="10.122699144860063"><ele>290.0</ele><time>2026-04-11T15:22:28.993Z</time></trkpt><trkpt lat="44.23343844694026" lon="10.122939216680454"><ele>290.0</ele><time>2026-04-11T15:22:29.993Z</time></trkpt><trkpt lat="44.23340387807778" lon="10.123145056727846"><ele>290.5</ele><time>2026-04-11T15:22:30.993Z</time></trkpt><trkpt lat="44.23336115616392" lon="10.123330252122715"><ele>291.0</ele><time>2026-04-11T15:22:31.993Z</time></trkpt><trkpt lat="44.23329950778058" lon="10.123494660757721"><ele>291.5</ele><time>2026-04-11T15:22:32.993Z</time></trkpt><trkpt lat="44.23321550970864" lon="10.123633842392046"><ele>292.0</ele><time>2026-04-11T15:22:33.993Z</time></trkpt><trkpt lat="44.23310947938184" lon="10.12374072151171"><ele>292.0</ele><time>2026-04-11T15:22:34.993Z</time></trkpt><trkpt lat="44.23298172511874" lon="10.12380545758038"><ele>292.0</ele><time>2026-04-11T15:22:35.993Z</time></trkpt><trkpt lat="44.23283907251138" lon="10.123822723877414"><ele>292.0</ele><time>2026-04-11T15:22:36.993Z</time></trkpt><trkpt lat="44.23270390020396" lon="10.123798415903105"><ele>292.0</ele><time>2026-04-11T15:22:37.993Z</time></trkpt><trkpt lat="44.232578178357755" lon="10.123724686089478"><ele>292.0</ele><time>2026-04-11T15:22:38.993Z</time></trkpt><trkpt lat="44.232465400280375" lon="10.123623510193374"><ele>292.0</ele><time>2026-04-11T15:22:39.993Z</time></trkpt><trkpt lat="44.23236765718494" lon="10.123484123273855"><ele>292.0</ele><time>2026-04-11T15:22:40.993Z</time></trkpt><trkpt lat="44.232299159563034" lon="10.12331791781013"><ele>292.0</ele><time>2026-04-11T15:22:41.993Z</time></trkpt><trkpt lat="44.23224489528732" lon="10.123145532416682"><ele>293.75</ele><time>2026-04-11T15:22:42.993Z</time></trkpt><trkpt lat="44.2322433805794" lon="10.122905102621917"><ele>295.5</ele><time>2026-04-11T15:22:43.993Z</time></trkpt><trkpt lat="44.232215994362896" lon="10.122739352762387"><ele>297.25</ele><time>2026-04-11T15:22:44.993Z</time></trkpt><trkpt lat="44.23218777573959" lon="10.122572778126418"><ele>299.0</ele><time>2026-04-11T15:22:45.993Z</time></trkpt><trkpt lat="44.232140153003385" lon="10.122421876386735"><ele>296.8</ele><time>2026-04-11T15:22:46.993Z</time></trkpt><trkpt lat="44.23209639755286" lon="10.122280666444404"><ele>294.59999999999997</ele><time>2026-04-11T15:22:47.993Z</time></trkpt><trkpt lat="44.23205340946928" lon="10.12215693271449"><ele>292.4</ele><time>2026-04-11T15:22:48.993Z</time></trkpt><trkpt lat="44.23201624459766" lon="10.12204082055811"><ele>290.2</ele><time>2026-04-11T15:22:49.993Z</time></trkpt><trkpt lat="44.23197845180423" lon="10.121928222643325"><ele>288.0</ele><time>2026-04-11T15:22:50.993Z</time></trkpt><trkpt lat="44.23194183075315" lon="10.121808940037257"><ele>288.0</ele><time>2026-04-11T15:22:51.993Z</time></trkpt><trkpt lat="44.23190685305869" lon="10.121674738507565"><ele>288.0</ele><time>2026-04-11T15:22:52.993Z</time></trkpt><trkpt lat="44.23185345864564" lon="10.121499737469733"><ele>288.0</ele><time>2026-04-11T15:22:53.993Z</time></trkpt><trkpt lat="44.23179300451501" lon="10.121301698183258"><ele>288.0</ele><time>2026-04-11T15:22:54.993Z</time></trkpt><trkpt lat="44.23170713431653" lon="10.121057491797142"><ele>289.0</ele><time>2026-04-11T15:22:55.993Z</time></trkpt><trkpt lat="44.231599755506046" lon="10.120793442849019"><ele>290.0</ele><time>2026-04-11T15:22:56.993Z</time></trkpt><trkpt lat="44.23145851750131" lon="10.120519437099269"><ele>290.0</ele><time>2026-04-11T15:22:57.993Z</time></trkpt><trkpt lat="44.23131034866309" lon="10.120227664437026"><ele>290.0</ele><time>2026-04-11T15:22:58.993Z</time></trkpt><trkpt lat="44.23117498023656" lon="10.119955400208259"><ele>284.6666666666667</ele><time>2026-04-11T15:22:59.993Z</time></trkpt><trkpt lat="44.23105510751527" lon="10.11971102182598"><ele>279.3333333333333</ele><time>2026-04-11T15:23:00.993Z</time></trkpt><trkpt lat="44.23094820237993" lon="10.119497084653945"><ele>274.0</ele><time>2026-04-11T15:23:01.993Z</time></trkpt><trkpt lat="44.23085697147897" lon="10.119312561251403"><ele>274.0</ele><time>2026-04-11T15:23:02.993Z</time></trkpt><trkpt lat="44.23074918135295" lon="10.119145353587168"><ele>274.0</ele><time>2026-04-11T15:23:03.994Z</time></trkpt><trkpt lat="44.230613391879444" lon="10.11899939649268"><ele>274.0</ele><time>2026-04-11T15:23:04.994Z</time></trkpt><trkpt lat="44.230458432582274" lon="10.118859668238596"><ele>274.0</ele><time>2026-04-11T15:23:05.994Z</time></trkpt><trkpt lat="44.230286817208004" lon="10.118724343979626"><ele>274.0</ele><time>2026-04-11T15:23:06.994Z</time></trkpt><trkpt lat="44.23012177015978" lon="10.118530520367704"><ele>274.0</ele><time>2026-04-11T15:23:07.994Z</time></trkpt><trkpt lat="44.22996995470091" lon="10.1182943399845"><ele>272.3333333333333</ele><time>2026-04-11T15:23:08.994Z</time></trkpt><trkpt lat="44.22983575657781" lon="10.118055100043394"><ele>270.6666666666667</ele><time>2026-04-11T15:23:09.994Z</time></trkpt><trkpt lat="44.22971701416771" lon="10.117837061931377"><ele>269.0</ele><time>2026-04-11T15:23:10.994Z</time></trkpt><trkpt lat="44.229600281672404" lon="10.117650761425937"><ele>269.0</ele><time>2026-04-11T15:23:11.994Z</time></trkpt><trkpt lat="44.229481352160185" lon="10.117496580791814"><ele>269.0</ele><time>2026-04-11T15:23:12.994Z</time></trkpt><trkpt lat="44.229347208903405" lon="10.117365643520555"><ele>269.0</ele><time>2026-04-11T15:23:13.994Z</time></trkpt><trkpt lat="44.229189256092134" lon="10.117253903295607"><ele>266.0</ele><time>2026-04-11T15:23:14.994Z</time></trkpt><trkpt lat="44.229016242055046" lon="10.117151663393088"><ele>263.0</ele><time>2026-04-11T15:23:15.994Z</time></trkpt><trkpt lat="44.22885691817936" lon="10.117077073417647"><ele>260.0</ele><time>2026-04-11T15:23:16.994Z</time></trkpt><trkpt lat="44.22870926246229" lon="10.117027256252879"><ele>260.0</ele><time>2026-04-11T15:23:17.994Z</time></trkpt><trkpt lat="44.22854076683672" lon="10.117018945500183"><ele>260.0</ele><time>2026-04-11T15:23:18.994Z</time></trkpt><trkpt lat="44.228360921504084" lon="10.117053251444348"><ele>260.0</ele><time>2026-04-11T15:23:19.994Z</time></trkpt><trkpt lat="44.228169643378806" lon="10.117124819396306"><ele>254.33333333333334</ele><time>2026-04-11T15:23:20.994Z</time></trkpt><trkpt lat="44.22798862740849" lon="10.11720568634768"><ele>248.66666666666669</ele><time>2026-04-11T15:23:21.994Z</time></trkpt><trkpt lat="44.22779613164421" lon="10.117312945219767"><ele>243.0</ele><time>2026-04-11T15:23:22.994Z</time></trkpt><trkpt lat="44.227620489463035" lon="10.117397743219241"><ele>244.33333333333331</ele><time>2026-04-11T15:23:23.994Z</time></trkpt><trkpt lat="44.22744207350858" lon="10.117452645439442"><ele>245.66666666666666</ele><time>2026-04-11T15:23:24.994Z</time></trkpt><trkpt lat="44.22725764396647" lon="10.117479108975587"><ele>247.0</ele><time>2026-04-11T15:23:25.994Z</time></trkpt><trkpt lat="44.22707657960955" lon="10.117454266066817"><ele>246.0</ele><time>2026-04-11T15:23:26.994Z</time></trkpt><trkpt lat="44.226888563929535" lon="10.117400259203283"><ele>245.0</ele><time>2026-04-11T15:23:27.994Z</time></trkpt><trkpt lat="44.22670419816684" lon="10.117310842212671"><ele>244.0</ele><time>2026-04-11T15:23:28.994Z</time></trkpt><trkpt lat="44.22653516205915" lon="10.117170731561666"><ele>250.0</ele><time>2026-04-11T15:23:29.994Z</time></trkpt><trkpt lat="44.22638199812127" lon="10.11700030538402"><ele>256.0</ele><time>2026-04-11T15:23:30.994Z</time></trkpt><trkpt lat="44.226239795423226" lon="10.116799715597129"><ele>262.0</ele><time>2026-04-11T15:23:31.994Z</time></trkpt><trkpt lat="44.22609775436924" lon="10.116581072237931"><ele>254.0</ele><time>2026-04-11T15:23:32.994Z</time></trkpt><trkpt lat="44.22595113600918" lon="10.116338723781185"><ele>246.0</ele><time>2026-04-11T15:23:33.994Z</time></trkpt><trkpt lat="44.225801073220346" lon="10.116096865809387"><ele>246.0</ele><time>2026-04-11T15:23:34.994Z</time></trkpt><trkpt lat="44.225666607305314" lon="10.115872102142033"><ele>246.0</ele><time>2026-04-11T15:23:35.994Z</time></trkpt><trkpt lat="44.22554525233774" lon="10.115656674121505"><ele>246.0</ele><time>2026-04-11T15:23:36.994Z</time></trkpt><trkpt lat="44.22543688153697" lon="10.115437398129812"><ele>245.33333333333331</ele><time>2026-04-11T15:23:37.994Z</time></trkpt><trkpt lat="44.22536719223793" lon="10.115200932167593"><ele>244.66666666666666</ele><time>2026-04-11T15:23:38.994Z</time></trkpt><trkpt lat="44.22531771448856" lon="10.11495079990803"><ele>244.0</ele><time>2026-04-11T15:23:39.994Z</time></trkpt><trkpt lat="44.225291796881905" lon="10.114677850073454"><ele>245.33333333333331</ele><time>2026-04-11T15:23:40.994Z</time></trkpt><trkpt lat="44.2253013203873" lon="10.11440068825354"><ele>246.66666666666669</ele><time>2026-04-11T15:23:41.994Z</time></trkpt><trkpt lat="44.22533703694848" lon="10.11413613174515"><ele>248.0</ele><time>2026-04-11T15:23:42.994Z</time></trkpt><trkpt lat="44.22539502252157" lon="10.113870812462416"><ele>249.0</ele><time>2026-04-11T15:23:43.994Z</time></trkpt><trkpt lat="44.225480121692634" lon="10.113598666388688"><ele>250.0</ele><time>2026-04-11T15:23:44.994Z</time></trkpt><trkpt lat="44.22558222030582" lon="10.11334182850411"><ele>251.0</ele><time>2026-04-11T15:23:45.994Z</time></trkpt><trkpt lat="44.22567253755148" lon="10.113114161847037"><ele>246.5</ele><time>2026-04-11T15:23:46.994Z</time></trkpt><trkpt lat="44.22572139036294" lon="10.112921268482944"><ele>242.0</ele><time>2026-04-11T15:23:47.994Z</time></trkpt><trkpt lat="44.22576265447221" lon="10.112776855025311"><ele>237.5</ele><time>2026-04-11T15:23:48.993Z</time></trkpt><trkpt lat="44.22578363831355" lon="10.11262297087408"><ele>233.0</ele><time>2026-04-11T15:23:49.992Z</time></trkpt><trkpt lat="44.22576256226784" lon="10.112462912816907"><ele>234.0</ele><time>2026-04-11T15:23:50.992Z</time></trkpt><trkpt lat="44.22570409467632" lon="10.112302006981999"><ele>235.0</ele><time>2026-04-11T15:23:51.992Z</time></trkpt><trkpt lat="44.225599536331934" lon="10.112189463365059"><ele>236.0</ele><time>2026-04-11T15:23:52.993Z</time></trkpt><trkpt lat="44.22546133796555" lon="10.112113025787096"><ele>237.0</ele><time>2026-04-11T15:23:53.993Z</time></trkpt><trkpt lat="44.22529223918927" lon="10.112063866276898"><ele>237.0</ele><time>2026-04-11T15:23:54.992Z</time></trkpt><trkpt lat="44.22512337022073" lon="10.112023603667541"><ele>237.0</ele><time>2026-04-11T15:23:55.993Z</time></trkpt><trkpt lat="44.2249679474124" lon="10.111968070671308"><ele>237.0</ele><time>2026-04-11T15:23:56.993Z</time></trkpt><trkpt lat="44.2248626686974" lon="10.111891871560607"><ele>239.75</ele><time>2026-04-11T15:23:57.992Z</time></trkpt><trkpt lat="44.224793527926394" lon="10.111755401758076"><ele>242.5</ele><time>2026-04-11T15:23:58.992Z</time></trkpt><trkpt lat="44.2247600321209" lon="10.111554105322131"><ele>245.25</ele><time>2026-04-11T15:23:59.992Z</time></trkpt><trkpt lat="44.22475614823906" lon="10.111303242248999"><ele>248.0</ele><time>2026-04-11T15:24:00.993Z</time></trkpt><trkpt lat="44.22476835952398" lon="10.111022285101289"><ele>246.33333333333334</ele><time>2026-04-11T15:24:01.992Z</time></trkpt><trkpt lat="44.22477491722261" lon="10.110710353185977"><ele>244.66666666666669</ele><time>2026-04-11T15:24:02.992Z</time></trkpt><trkpt lat="44.224768426523724" lon="10.110413834566804"><ele>243.0</ele><time>2026-04-11T15:24:03.992Z</time></trkpt><trkpt lat="44.224749275701875" lon="10.110156884855686"><ele>243.0</ele><time>2026-04-11T15:24:04.992Z</time></trkpt><trkpt lat="44.22470559635505" lon="10.109915519422215"><ele>243.0</ele><time>2026-04-11T15:24:05.992Z</time></trkpt><trkpt lat="44.22463575972572" lon="10.109653741158507"><ele>243.0</ele><time>2026-04-11T15:24:06.992Z</time></trkpt><trkpt lat="44.22454807438963" lon="10.109367339596277"><ele>237.5</ele><time>2026-04-11T15:24:07.993Z</time></trkpt><trkpt lat="44.22444407384041" lon="10.109037637205917"><ele>232.0</ele><time>2026-04-11T15:24:08.993Z</time></trkpt><trkpt lat="44.22434555985898" lon="10.108709548266798"><ele>232.0</ele><time>2026-04-11T15:24:09.993Z</time></trkpt><trkpt lat="44.224261617975486" lon="10.108396732202571"><ele>232.0</ele><time>2026-04-11T15:24:10.993Z</time></trkpt><trkpt lat="44.22417913001624" lon="10.108126991370408"><ele>229.0</ele><time>2026-04-11T15:24:11.993Z</time></trkpt><trkpt lat="44.224101414526224" lon="10.107879715573208"><ele>226.0</ele><time>2026-04-11T15:24:12.993Z</time></trkpt><trkpt lat="44.224036501133504" lon="10.107660591956089"><ele>223.0</ele><time>2026-04-11T15:24:13.993Z</time></trkpt><trkpt lat="44.223999302288306" lon="10.10746774999724"><ele>224.0</ele><time>2026-04-11T15:24:14.993Z</time></trkpt><trkpt lat="44.224009233198956" lon="10.107303882699828"><ele>225.0</ele><time>2026-04-11T15:24:15.993Z</time></trkpt><trkpt lat="44.22404487671444" lon="10.10712686341149"><ele>226.0</ele><time>2026-04-11T15:24:16.993Z</time></trkpt><trkpt lat="44.22409732245974" lon="10.106952644013633"><ele>227.0</ele><time>2026-04-11T15:24:17.993Z</time></trkpt><trkpt lat="44.22413759867844" lon="10.106780610526155"><ele>227.0</ele><time>2026-04-11T15:24:18.993Z</time></trkpt><trkpt lat="44.224164845127014" lon="10.106607246372297"><ele>227.0</ele><time>2026-04-11T15:24:19.993Z</time></trkpt><trkpt lat="44.224127457890326" lon="10.106419710565937"><ele>227.0</ele><time>2026-04-11T15:24:20.993Z</time></trkpt><trkpt lat="44.22406042389931" lon="10.106199193795975"><ele>227.0</ele><time>2026-04-11T15:24:21.993Z</time></trkpt><trkpt lat="44.22399269903033" lon="10.105953427612414"><ele>240.0</ele><time>2026-04-11T15:24:22.993Z</time></trkpt><trkpt lat="44.22392864631584" lon="10.105678744873206"><ele>253.0</ele><time>2026-04-11T15:24:23.993Z</time></trkpt><trkpt lat="44.22387099519731" lon="10.105378206787375"><ele>266.0</ele><time>2026-04-11T15:24:24.993Z</time></trkpt><trkpt lat="44.22380543607321" lon="10.105070281503163"><ele>258.0</ele><time>2026-04-11T15:24:25.993Z</time></trkpt><trkpt lat="44.22374678814386" lon="10.104756554823732"><ele>250.0</ele><time>2026-04-11T15:24:26.993Z</time></trkpt><trkpt lat="44.22368472315192" lon="10.10441875081656"><ele>242.0</ele><time>2026-04-11T15:24:27.993Z</time></trkpt><trkpt lat="44.22362522162673" lon="10.104031930117223"><ele>234.0</ele><time>2026-04-11T15:24:28.993Z</time></trkpt><trkpt lat="44.22354013385041" lon="10.103627467080287"><ele>229.5</ele><time>2026-04-11T15:24:29.993Z</time></trkpt><trkpt lat="44.223464846759335" lon="10.103238226386846"><ele>225.0</ele><time>2026-04-11T15:24:30.993Z</time></trkpt><trkpt lat="44.22338717626368" lon="10.102881130123654"><ele>225.0</ele><time>2026-04-11T15:24:31.993Z</time></trkpt><trkpt lat="44.22334163210795" lon="10.102560462585112"><ele>225.0</ele><time>2026-04-11T15:24:32.993Z</time></trkpt><trkpt lat="44.2233211818257" lon="10.10225458106457"><ele>221.0</ele><time>2026-04-11T15:24:33.993Z</time></trkpt><trkpt lat="44.22329706503263" lon="10.101971183661416"><ele>217.0</ele><time>2026-04-11T15:24:34.993Z</time></trkpt><trkpt lat="44.22327720845101" lon="10.10174444694255"><ele>213.0</ele><time>2026-04-11T15:24:35.993Z</time></trkpt><trkpt lat="44.223245195939505" lon="10.101566803044049"><ele>208.0</ele><time>2026-04-11T15:24:36.993Z</time></trkpt><trkpt lat="44.223193912845716" lon="10.10139598582388"><ele>203.0</ele><time>2026-04-11T15:24:37.993Z</time></trkpt><trkpt lat="44.22310137678018" lon="10.101218303705801"><ele>198.0</ele><time>2026-04-11T15:24:38.993Z</time></trkpt><trkpt lat="44.22296142454738" lon="10.101056629681759"><ele>202.33333333333331</ele><time>2026-04-11T15:24:39.993Z</time></trkpt><trkpt lat="44.22281661723161" lon="10.100864711366857"><ele>206.66666666666666</ele><time>2026-04-11T15:24:40.993Z</time></trkpt><trkpt lat="44.222714039242916" lon="10.10063474666481"><ele>211.0</ele><time>2026-04-11T15:24:41.993Z</time></trkpt><trkpt lat="44.22262638285397" lon="10.100413347782446"><ele>211.0</ele><time>2026-04-11T15:24:42.993Z</time></trkpt><trkpt lat="44.2225533550944" lon="10.100218136569564"><ele>211.0</ele><time>2026-04-11T15:24:43.993Z</time></trkpt><trkpt lat="44.222469033762984" lon="10.100066114464775"><ele>211.0</ele><time>2026-04-11T15:24:44.993Z</time></trkpt><trkpt lat="44.22235476030932" lon="10.09995187695684"><ele>211.0</ele><time>2026-04-11T15:24:45.993Z</time></trkpt><trkpt lat="44.22220764109924" lon="10.099855721097784"><ele>207.0</ele><time>2026-04-11T15:24:46.993Z</time></trkpt><trkpt lat="44.22204069697656" lon="10.099772374520628"><ele>203.0</ele><time>2026-04-11T15:24:47.993Z</time></trkpt><trkpt lat="44.22186269605588" lon="10.099673226537304"><ele>199.0</ele><time>2026-04-11T15:24:48.993Z</time></trkpt><trkpt lat="44.22169830872373" lon="10.099592700099162"><ele>199.0</ele><time>2026-04-11T15:24:49.993Z</time></trkpt><trkpt lat="44.22152393497046" lon="10.099542734770687"><ele>199.0</ele><time>2026-04-11T15:24:50.993Z</time></trkpt><trkpt lat="44.22132452486281" lon="10.099517638974223"><ele>199.0</ele><time>2026-04-11T15:24:51.993Z</time></trkpt><trkpt lat="44.22114094102109" lon="10.099500018108388"><ele>204.0</ele><time>2026-04-11T15:24:52.993Z</time></trkpt><trkpt lat="44.22096799249262" lon="10.099481236820953"><ele>209.0</ele><time>2026-04-11T15:24:53.993Z</time></trkpt><trkpt lat="44.22079935322158" lon="10.099450429385076"><ele>214.0</ele><time>2026-04-11T15:24:54.993Z</time></trkpt><trkpt lat="44.22064854698246" lon="10.099354495723963"><ele>213.33333333333331</ele><time>2026-04-11T15:24:55.993Z</time></trkpt><trkpt lat="44.22048288014424" lon="10.099140484175543"><ele>212.66666666666669</ele><time>2026-04-11T15:24:56.993Z</time></trkpt><trkpt lat="44.22033269364512" lon="10.098923754270006"><ele>212.0</ele><time>2026-04-11T15:24:57.993Z</time></trkpt><trkpt lat="44.220200449978016" lon="10.098746258325047"><ele>212.0</ele><time>2026-04-11T15:24:58.993Z</time></trkpt><trkpt lat="44.220059311376104" lon="10.09857397868859"><ele>212.0</ele><time>2026-04-11T15:24:59.993Z</time></trkpt><trkpt lat="44.219945809919096" lon="10.098395789519602"><ele>212.0</ele><time>2026-04-11T15:25:00.993Z</time></trkpt><trkpt lat="44.21985430143958" lon="10.098213428747583"><ele>216.0</ele><time>2026-04-11T15:25:01.993Z</time></trkpt><trkpt lat="44.219780184195734" lon="10.097988505809985"><ele>220.0</ele><time>2026-04-11T15:25:02.993Z</time></trkpt><trkpt lat="44.21971783441508" lon="10.097738986776362"><ele>224.0</ele><time>2026-04-11T15:25:03.993Z</time></trkpt><trkpt lat="44.21966466442579" lon="10.09747324687622"><ele>218.33333333333334</ele><time>2026-04-11T15:25:04.993Z</time></trkpt><trkpt lat="44.219603852448614" lon="10.097172928803705"><ele>212.66666666666669</ele><time>2026-04-11T15:25:05.993Z</time></trkpt><trkpt lat="44.219542460818936" lon="10.096895377847435"><ele>207.0</ele><time>2026-04-11T15:25:06.993Z</time></trkpt><trkpt lat="44.21948870645315" lon="10.096649612735805"><ele>203.5</ele><time>2026-04-11T15:25:07.993Z</time></trkpt><trkpt lat="44.21943008873953" lon="10.09644388674188"><ele>200.0</ele><time>2026-04-11T15:25:08.993Z</time></trkpt><trkpt lat="44.21938944462375" lon="10.096275158340902"><ele>196.5</ele><time>2026-04-11T15:25:09.993Z</time></trkpt><trkpt lat="44.219341453689275" lon="10.096132431012277"><ele>193.0</ele><time>2026-04-11T15:25:10.993Z</time></trkpt><trkpt lat="44.21926100304162" lon="10.096022016472036"><ele>193.0</ele><time>2026-04-11T15:25:11.993Z</time></trkpt><trkpt lat="44.219150700555524" lon="10.09593309335721"><ele>193.0</ele><time>2026-04-11T15:25:12.993Z</time></trkpt><trkpt lat="44.21904253793854" lon="10.095820391696815"><ele>193.0</ele><time>2026-04-11T15:25:13.993Z</time></trkpt><trkpt lat="44.21895481953454" lon="10.09566375253608"><ele>193.0</ele><time>2026-04-11T15:25:14.993Z</time></trkpt><trkpt lat="44.21887356624099" lon="10.095485300466239"><ele>197.66666666666666</ele><time>2026-04-11T15:25:15.993Z</time></trkpt><trkpt lat="44.21879760953828" lon="10.095298098587348"><ele>202.33333333333331</ele><time>2026-04-11T15:25:16.993Z</time></trkpt><trkpt lat="44.218703653296465" lon="10.095130944534834"><ele>207.0</ele><time>2026-04-11T15:25:17.993Z</time></trkpt><trkpt lat="44.21856833333865" lon="10.094984703598575"><ele>200.66666666666666</ele><time>2026-04-11T15:25:18.993Z</time></trkpt><trkpt lat="44.218424956966345" lon="10.0948434526591"><ele>194.33333333333331</ele><time>2026-04-11T15:25:19.993Z</time></trkpt><trkpt lat="44.218303969617544" lon="10.094665637422008"><ele>188.0</ele><time>2026-04-11T15:25:20.993Z</time></trkpt><trkpt lat="44.21820536762846" lon="10.094468965301699"><ele>187.75</ele><time>2026-04-11T15:25:21.993Z</time></trkpt><trkpt lat="44.21812789786798" lon="10.094289881970722"><ele>187.5</ele><time>2026-04-11T15:25:22.993Z</time></trkpt><trkpt lat="44.2180416815714" lon="10.094137888996324"><ele>187.25</ele><time>2026-04-11T15:25:23.993Z</time></trkpt><trkpt lat="44.217935344219306" lon="10.09403348448336"><ele>187.0</ele><time>2026-04-11T15:25:24.993Z</time></trkpt><trkpt lat="44.21779792930301" lon="10.093956756881413"><ele>187.0</ele><time>2026-04-11T15:25:25.993Z</time></trkpt><trkpt lat="44.21764812892506" lon="10.093904001089689"><ele>187.0</ele><time>2026-04-11T15:25:26.993Z</time></trkpt><trkpt lat="44.21752592931777" lon="10.0937949005812"><ele>187.0</ele><time>2026-04-11T15:25:27.993Z</time></trkpt><trkpt lat="44.21744257145338" lon="10.093638639284055"><ele>187.0</ele><time>2026-04-11T15:25:28.993Z</time></trkpt><trkpt lat="44.21735150538422" lon="10.093502905673034"><ele>188.66666666666669</ele><time>2026-04-11T15:25:29.993Z</time></trkpt><trkpt lat="44.21722533111434" lon="10.093406585188822"><ele>190.33333333333334</ele><time>2026-04-11T15:25:30.993Z</time></trkpt><trkpt lat="44.21705349446564" lon="10.093345699125665"><ele>192.0</ele><time>2026-04-11T15:25:31.993Z</time></trkpt><trkpt lat="44.21684583390576" lon="10.093300012386173"><ele>191.0</ele><time>2026-04-11T15:25:32.993Z</time></trkpt><trkpt lat="44.21664801907828" lon="10.093250397600556"><ele>190.0</ele><time>2026-04-11T15:25:33.993Z</time></trkpt><trkpt lat="44.21648478947654" lon="10.093197400565424"><ele>189.0</ele><time>2026-04-11T15:25:34.993Z</time></trkpt><trkpt lat="44.216341717245086" lon="10.093153313420679"><ele>189.0</ele><time>2026-04-11T15:25:35.993Z</time></trkpt><trkpt lat="44.216227353427406" lon="10.09310247073662"><ele>189.0</ele><time>2026-04-11T15:25:36.993Z</time></trkpt><trkpt lat="44.21613756599101" lon="10.093024384174877"><ele>189.0</ele><time>2026-04-11T15:25:37.993Z</time></trkpt><trkpt lat="44.21607891606381" lon="10.09290141607728"><ele>189.0</ele><time>2026-04-11T15:25:38.993Z</time></trkpt><trkpt lat="44.21603734225061" lon="10.09276154332194"><ele>189.0</ele><time>2026-04-11T15:25:39.993Z</time></trkpt><trkpt lat="44.215988471113064" lon="10.092644983584684"><ele>189.0</ele><time>2026-04-11T15:25:40.993Z</time></trkpt><trkpt lat="44.21594739040435" lon="10.092539315629683"><ele>189.0</ele><time>2026-04-11T15:25:41.993Z</time></trkpt><trkpt lat="44.215897750875314" lon="10.092428892043678"><ele>189.0</ele><time>2026-04-11T15:25:42.993Z</time></trkpt><trkpt lat="44.21584020051183" lon="10.092318517235139"><ele>189.0</ele><time>2026-04-11T15:25:43.993Z</time></trkpt><trkpt lat="44.21576453843074" lon="10.092216197762804"><ele>189.0</ele><time>2026-04-11T15:25:44.993Z</time></trkpt><trkpt lat="44.2156602101766" lon="10.092142935442972"><ele>186.2</ele><time>2026-04-11T15:25:45.993Z</time></trkpt><trkpt lat="44.21555233424311" lon="10.09209772108595"><ele>183.39999999999998</ele><time>2026-04-11T15:25:46.993Z</time></trkpt><trkpt lat="44.215446030609456" lon="10.092075373264963"><ele>180.6</ele><time>2026-04-11T15:25:47.993Z</time></trkpt><trkpt lat="44.21533514772332" lon="10.092054851436654"><ele>177.8</ele><time>2026-04-11T15:25:48.993Z</time></trkpt><trkpt lat="44.215226643639355" lon="10.092029659600481"><ele>175.0</ele><time>2026-04-11T15:25:49.993Z</time></trkpt><trkpt lat="44.21510743659313" lon="10.0920098971502"><ele>175.0</ele><time>2026-04-11T15:25:50.993Z</time></trkpt><trkpt lat="44.21498787838425" lon="10.092005061001263"><ele>175.0</ele><time>2026-04-11T15:25:51.993Z</time></trkpt><trkpt lat="44.21485513514828" lon="10.092015135939718"><ele>175.0</ele><time>2026-04-11T15:25:52.993Z</time></trkpt><trkpt lat="44.21472548991097" lon="10.092046020311495"><ele>175.0</ele><time>2026-04-11T15:25:53.993Z</time></trkpt><trkpt lat="44.21461517610647" lon="10.092092248663953"><ele>173.75</ele><time>2026-04-11T15:25:54.99Z</time></trkpt><trkpt lat="44.214503192281235" lon="10.092134657434018"><ele>172.5</ele><time>2026-04-11T15:25:55.991Z</time></trkpt><trkpt lat="44.21438652907734" lon="10.09218257065104"><ele>171.25</ele><time>2026-04-11T15:25:56.991Z</time></trkpt><trkpt lat="44.21426304073272" lon="10.092227345509858"><ele>170.0</ele><time>2026-04-11T15:25:57.991Z</time></trkpt><trkpt lat="44.21414499698782" lon="10.09226661845577"><ele>170.0</ele><time>2026-04-11T15:25:58.991Z</time></trkpt><trkpt lat="44.21402242701423" lon="10.092302728894024"><ele>170.0</ele><time>2026-04-11T15:25:59.991Z</time></trkpt><trkpt lat="44.213896406348944" lon="10.092337655470223"><ele>170.0</ele><time>2026-04-11T15:26:00.99Z</time></trkpt><trkpt lat="44.21375618699491" lon="10.092346033699766"><ele>170.0</ele><time>2026-04-11T15:26:01.991Z</time></trkpt><trkpt lat="44.21360895619431" lon="10.092344280116984"><ele>170.0</ele><time>2026-04-11T15:26:02.991Z</time></trkpt><trkpt lat="44.21342391990633" lon="10.092329988334706"><ele>170.0</ele><time>2026-04-11T15:26:03.991Z</time></trkpt><trkpt lat="44.21324861938052" lon="10.092288194728098"><ele>170.0</ele><time>2026-04-11T15:26:04.991Z</time></trkpt><trkpt lat="44.21306913054237" lon="10.092243824487323"><ele>170.0</ele><time>2026-04-11T15:26:05.991Z</time></trkpt><trkpt lat="44.21289812381998" lon="10.092206788498643"><ele>170.0</ele><time>2026-04-11T15:26:06.991Z</time></trkpt><trkpt lat="44.21274822304064" lon="10.092174076993768"><ele>170.0</ele><time>2026-04-11T15:26:07.991Z</time></trkpt><trkpt lat="44.212600796036654" lon="10.09213467761649"><ele>170.0</ele><time>2026-04-11T15:26:08.991Z</time></trkpt><trkpt lat="44.21245960359501" lon="10.092107264661914"><ele>170.0</ele><time>2026-04-11T15:26:09.991Z</time></trkpt><trkpt lat="44.21232846137403" lon="10.092087814884843"><ele>170.0</ele><time>2026-04-11T15:26:10.991Z</time></trkpt><trkpt lat="44.21220556091246" lon="10.092064487113614"><ele>170.0</ele><time>2026-04-11T15:26:11.991Z</time></trkpt><trkpt lat="44.21209571257204" lon="10.09204857694102"><ele>170.4</ele><time>2026-04-11T15:26:12.991Z</time></trkpt><trkpt lat="44.21199735618339" lon="10.092024407015632"><ele>170.8</ele><time>2026-04-11T15:26:13.991Z</time></trkpt><trkpt lat="44.2118993816536" lon="10.091992542664208"><ele>171.2</ele><time>2026-04-11T15:26:14.991Z</time></trkpt><trkpt lat="44.21180096657183" lon="10.091943009566226"><ele>171.6</ele><time>2026-04-11T15:26:15.991Z</time></trkpt><trkpt lat="44.21169982345537" lon="10.091877724824828"><ele>172.0</ele><time>2026-04-11T15:26:16.991Z</time></trkpt><trkpt lat="44.211600822676054" lon="10.091791286011054"><ele>173.0</ele><time>2026-04-11T15:26:17.991Z</time></trkpt><trkpt lat="44.21148990179659" lon="10.091693861212853"><ele>174.0</ele><time>2026-04-11T15:26:18.991Z</time></trkpt><trkpt lat="44.211376221843885" lon="10.091582851059057"><ele>175.0</ele><time>2026-04-11T15:26:19.991Z</time></trkpt><trkpt lat="44.21124858848121" lon="10.091453686938381"><ele>176.0</ele><time>2026-04-11T15:26:20.991Z</time></trkpt><trkpt lat="44.21109442143579" lon="10.091274687570932"><ele>176.0</ele><time>2026-04-11T15:26:21.991Z</time></trkpt><trkpt lat="44.2109386529664" lon="10.091049020269947"><ele>176.0</ele><time>2026-04-11T15:26:22.991Z</time></trkpt><trkpt lat="44.21077677523839" lon="10.090775641131163"><ele>177.5</ele><time>2026-04-11T15:26:23.991Z</time></trkpt><trkpt lat="44.21061857758995" lon="10.090464930718703"><ele>179.0</ele><time>2026-04-11T15:26:24.991Z</time></trkpt><trkpt lat="44.21047067288472" lon="10.090145959862086"><ele>175.0</ele><time>2026-04-11T15:26:25.991Z</time></trkpt><trkpt lat="44.21036380298027" lon="10.08985929665214"><ele>171.0</ele><time>2026-04-11T15:26:26.991Z</time></trkpt><trkpt lat="44.21026185272454" lon="10.089600966080813"><ele>167.0</ele><time>2026-04-11T15:26:27.991Z</time></trkpt><trkpt lat="44.21016178053794" lon="10.089342802075029"><ele>167.66666666666666</ele><time>2026-04-11T15:26:28.991Z</time></trkpt><trkpt lat="44.21005739933183" lon="10.089079803052789"><ele>168.33333333333334</ele><time>2026-04-11T15:26:29.991Z</time></trkpt><trkpt lat="44.209936027713674" lon="10.088814879433231"><ele>169.0</ele><time>2026-04-11T15:26:30.991Z</time></trkpt><trkpt lat="44.20975697056191" lon="10.088550793303249"><ele>169.0</ele><time>2026-04-11T15:26:31.991Z</time></trkpt><trkpt lat="44.209623394071485" lon="10.088310505057768"><ele>169.0</ele><time>2026-04-11T15:26:32.991Z</time></trkpt><trkpt lat="44.209511551999526" lon="10.08806545555021"><ele>169.0</ele><time>2026-04-11T15:26:33.991Z</time></trkpt><trkpt lat="44.209420509712395" lon="10.087795443291892"><ele>168.0</ele><time>2026-04-11T15:26:34.991Z</time></trkpt><trkpt lat="44.20935791085182" lon="10.087503740773982"><ele>167.0</ele><time>2026-04-11T15:26:35.991Z</time></trkpt><trkpt lat="44.20930824576259" lon="10.087207155220323"><ele>166.0</ele><time>2026-04-11T15:26:36.991Z</time></trkpt><trkpt lat="44.20925407123414" lon="10.08691830272132"><ele>165.33333333333334</ele><time>2026-04-11T15:26:37.991Z</time></trkpt><trkpt lat="44.209209657633885" lon="10.086646659224197"><ele>164.66666666666666</ele><time>2026-04-11T15:26:38.991Z</time></trkpt><trkpt lat="44.2091580376814" lon="10.086384898986692"><ele>164.0</ele><time>2026-04-11T15:26:39.991Z</time></trkpt><trkpt lat="44.20910375432053" lon="10.086125014938391"><ele>163.66666666666666</ele><time>2026-04-11T15:26:40.991Z</time></trkpt><trkpt lat="44.20904478346129" lon="10.085864048053095"><ele>163.33333333333334</ele><time>2026-04-11T15:26:41.991Z</time></trkpt><trkpt lat="44.20895926296829" lon="10.085611397088364"><ele>163.0</ele><time>2026-04-11T15:26:42.991Z</time></trkpt><trkpt lat="44.20885293980743" lon="10.085363122323312"><ele>165.0</ele><time>2026-04-11T15:26:43.991Z</time></trkpt><trkpt lat="44.20875088814838" lon="10.085103587698455"><ele>167.0</ele><time>2026-04-11T15:26:44.991Z</time></trkpt><trkpt lat="44.20866513524461" lon="10.084839118100032"><ele>169.0</ele><time>2026-04-11T15:26:45.991Z</time></trkpt><trkpt lat="44.208603388749765" lon="10.08459651415507"><ele>169.0</ele><time>2026-04-11T15:26:46.991Z</time></trkpt><trkpt lat="44.20856362475974" lon="10.084353771450273"><ele>169.0</ele><time>2026-04-11T15:26:47.991Z</time></trkpt><trkpt lat="44.20852410308638" lon="10.084127545015413"><ele>169.0</ele><time>2026-04-11T15:26:48.991Z</time></trkpt><trkpt lat="44.20847426198519" lon="10.083929543293802"><ele>164.66666666666669</ele><time>2026-04-11T15:26:49.991Z</time></trkpt><trkpt lat="44.20840577304926" lon="10.083753896928942"><ele>160.33333333333334</ele><time>2026-04-11T15:26:50.991Z</time></trkpt><trkpt lat="44.20830615338458" lon="10.083599703397795"><ele>156.0</ele><time>2026-04-11T15:26:51.991Z</time></trkpt><trkpt lat="44.20817131600661" lon="10.083471798224156"><ele>154.33333333333334</ele><time>2026-04-11T15:26:52.991Z</time></trkpt><trkpt lat="44.20802285137089" lon="10.083335138927213"><ele>152.66666666666669</ele><time>2026-04-11T15:26:53.991Z</time></trkpt><trkpt lat="44.20787709332547" lon="10.083187547895111"><ele>151.0</ele><time>2026-04-11T15:26:54.991Z</time></trkpt><trkpt lat="44.2077355552505" lon="10.083037687378393"><ele>151.0</ele><time>2026-04-11T15:26:55.991Z</time></trkpt><trkpt lat="44.20759210624562" lon="10.082879829591725"><ele>151.0</ele><time>2026-04-11T15:26:56.991Z</time></trkpt><trkpt lat="44.207446251790856" lon="10.082726531761324"><ele>151.0</ele><time>2026-04-11T15:26:57.991Z</time></trkpt><trkpt lat="44.20729786302994" lon="10.082575205597974"><ele>151.0</ele><time>2026-04-11T15:26:58.992Z</time></trkpt><trkpt lat="44.20714749442184" lon="10.08241949212499"><ele>151.0</ele><time>2026-04-11T15:26:59.992Z</time></trkpt><trkpt lat="44.206988582144156" lon="10.08226855248508"><ele>151.0</ele><time>2026-04-11T15:27:00.992Z</time></trkpt><trkpt lat="44.20683315677148" lon="10.082107837882418"><ele>151.0</ele><time>2026-04-11T15:27:01.992Z</time></trkpt><trkpt lat="44.20667768705591" lon="10.081948000870273"><ele>151.0</ele><time>2026-04-11T15:27:02.992Z</time></trkpt><trkpt lat="44.20652631119933" lon="10.081794529056934"><ele>151.0</ele><time>2026-04-11T15:27:03.992Z</time></trkpt><trkpt lat="44.20638768483847" lon="10.081654954759586"><ele>150.0</ele><time>2026-04-11T15:27:04.992Z</time></trkpt><trkpt lat="44.20626027708768" lon="10.081524094654316"><ele>149.0</ele><time>2026-04-11T15:27:05.992Z</time></trkpt><trkpt lat="44.206140196752166" lon="10.081403202471774"><ele>148.0</ele><time>2026-04-11T15:27:06.992Z</time></trkpt><trkpt lat="44.206027129229305" lon="10.081283938789356"><ele>147.0</ele><time>2026-04-11T15:27:07.992Z</time></trkpt><trkpt lat="44.20592315805803" lon="10.081147524199407"><ele>147.0</ele><time>2026-04-11T15:27:08.992Z</time></trkpt><trkpt lat="44.20583459803677" lon="10.080984058312925"><ele>147.0</ele><time>2026-04-11T15:27:09.992Z</time></trkpt><trkpt lat="44.205770068487816" lon="10.080786496170147"><ele>147.0</ele><time>2026-04-11T15:27:10.992Z</time></trkpt><trkpt lat="44.20572919424111" lon="10.080558179515831"><ele>147.33333333333334</ele><time>2026-04-11T15:27:11.992Z</time></trkpt><trkpt lat="44.20571850969974" lon="10.080312385484849"><ele>147.66666666666669</ele><time>2026-04-11T15:27:12.992Z</time></trkpt><trkpt lat="44.20573525524246" lon="10.080050479526772"><ele>148.0</ele><time>2026-04-11T15:27:13.992Z</time></trkpt><trkpt lat="44.20576860795611" lon="10.079786718713105"><ele>148.66666666666669</ele><time>2026-04-11T15:27:14.992Z</time></trkpt><trkpt lat="44.20580174723612" lon="10.07951111869758"><ele>149.33333333333334</ele><time>2026-04-11T15:27:15.992Z</time></trkpt><trkpt lat="44.20583625373915" lon="10.079216862420747"><ele>150.0</ele><time>2026-04-11T15:27:16.992Z</time></trkpt><trkpt lat="44.205868608447275" lon="10.078927801700216"><ele>150.66666666666666</ele><time>2026-04-11T15:27:17.992Z</time></trkpt><trkpt lat="44.20589391139512" lon="10.078662667752765"><ele>151.33333333333331</ele><time>2026-04-11T15:27:18.992Z</time></trkpt><trkpt lat="44.20591577431189" lon="10.07840994294405"><ele>152.0</ele><time>2026-04-11T15:27:19.992Z</time></trkpt><trkpt lat="44.20594065792517" lon="10.078187126087322"><ele>149.66666666666666</ele><time>2026-04-11T15:27:20.992Z</time></trkpt><trkpt lat="44.20594305095814" lon="10.077974035575334"><ele>147.33333333333334</ele><time>2026-04-11T15:27:21.992Z</time></trkpt><trkpt lat="44.205897653745545" lon="10.077762954417464"><ele>145.0</ele><time>2026-04-11T15:27:22.992Z</time></trkpt><trkpt lat="44.2058133456028" lon="10.077547552117391"><ele>143.33333333333334</ele><time>2026-04-11T15:27:23.992Z</time></trkpt><trkpt lat="44.20572186849308" lon="10.077328436858632"><ele>141.66666666666666</ele><time>2026-04-11T15:27:24.992Z</time></trkpt><trkpt lat="44.20563898169881" lon="10.077098821778357"><ele>140.0</ele><time>2026-04-11T15:27:25.992Z</time></trkpt><trkpt lat="44.20558454483517" lon="10.076849245299854"><ele>152.0</ele><time>2026-04-11T15:27:26.992Z</time></trkpt><trkpt lat="44.205551318372784" lon="10.076589047578025"><ele>164.0</ele><time>2026-04-11T15:27:27.992Z</time></trkpt><trkpt lat="44.20553340286427" lon="10.076336080088517"><ele>176.0</ele><time>2026-04-11T15:27:28.992Z</time></trkpt><trkpt lat="44.20552734984259" lon="10.076099977362883"><ele>176.0</ele><time>2026-04-11T15:27:29.992Z</time></trkpt><trkpt lat="44.20552017989742" lon="10.075865282410524"><ele>176.0</ele><time>2026-04-11T15:27:30.992Z</time></trkpt><trkpt lat="44.205509963870796" lon="10.075630460413457"><ele>176.0</ele><time>2026-04-11T15:27:31.992Z</time></trkpt><trkpt lat="44.20550064556649" lon="10.075400928525209"><ele>174.33333333333331</ele><time>2026-04-11T15:27:32.992Z</time></trkpt><trkpt lat="44.20548731750481" lon="10.075180200397403"><ele>172.66666666666666</ele><time>2026-04-11T15:27:33.992Z</time></trkpt><trkpt lat="44.20545334705012" lon="10.074962196237143"><ele>171.0</ele><time>2026-04-11T15:27:34.992Z</time></trkpt><trkpt lat="44.20540120113609" lon="10.074751571214627"><ele>166.0</ele><time>2026-04-11T15:27:35.992Z</time></trkpt><trkpt lat="44.20534139035849" lon="10.074556734713141"><ele>161.0</ele><time>2026-04-11T15:27:36.992Z</time></trkpt><trkpt lat="44.205279596445216" lon="10.07436292892363"><ele>156.0</ele><time>2026-04-11T15:27:37.992Z</time></trkpt><trkpt lat="44.205222037575105" lon="10.074173267892384"><ele>152.25</ele><time>2026-04-11T15:27:38.992Z</time></trkpt><trkpt lat="44.20516980597468" lon="10.073976380915296"><ele>148.5</ele><time>2026-04-11T15:27:39.992Z</time></trkpt><trkpt lat="44.2051139625167" lon="10.073786083709722"><ele>144.75</ele><time>2026-04-11T15:27:40.992Z</time></trkpt><trkpt lat="44.20505641603509" lon="10.073593097887388"><ele>141.0</ele><time>2026-04-11T15:27:41.992Z</time></trkpt><trkpt lat="44.20499891410186" lon="10.073394078750644"><ele>138.33333333333334</ele><time>2026-04-11T15:27:42.992Z</time></trkpt><trkpt lat="44.204939019656486" lon="10.073196283369189"><ele>135.66666666666669</ele><time>2026-04-11T15:27:43.992Z</time></trkpt><trkpt lat="44.20487750934039" lon="10.073000948495526"><ele>133.0</ele><time>2026-04-11T15:27:44.992Z</time></trkpt><trkpt lat="44.20482408033585" lon="10.072813618097397"><ele>134.0</ele><time>2026-04-11T15:27:45.992Z</time></trkpt><trkpt lat="44.20476711062596" lon="10.07262920382364"><ele>135.0</ele><time>2026-04-11T15:27:46.992Z</time></trkpt><trkpt lat="44.204692546227314" lon="10.07244234419469"><ele>136.0</ele><time>2026-04-11T15:27:47.992Z</time></trkpt><trkpt lat="44.20458109210119" lon="10.07224919968449"><ele>136.0</ele><time>2026-04-11T15:27:48.992Z</time></trkpt><trkpt lat="44.204441519118944" lon="10.072047838254477"><ele>136.0</ele><time>2026-04-11T15:27:49.992Z</time></trkpt><trkpt lat="44.204292969022575" lon="10.071820694039888"><ele>136.0</ele><time>2026-04-11T15:27:50.992Z</time></trkpt><trkpt lat="44.204140857893876" lon="10.071566086031188"><ele>139.5</ele><time>2026-04-11T15:27:51.992Z</time></trkpt><trkpt lat="44.20398098383906" lon="10.071300950874493"><ele>143.0</ele><time>2026-04-11T15:27:52.992Z</time></trkpt><trkpt lat="44.20382004119382" lon="10.071047297504862"><ele>143.0</ele><time>2026-04-11T15:27:53.992Z</time></trkpt><trkpt lat="44.20366552095016" lon="10.070811360061558"><ele>143.0</ele><time>2026-04-11T15:27:54.992Z</time></trkpt><trkpt lat="44.20352356840659" lon="10.070598680110956"><ele>143.0</ele><time>2026-04-11T15:27:55.992Z</time></trkpt><trkpt lat="44.203406737769946" lon="10.070421509246055"><ele>139.5</ele><time>2026-04-11T15:27:56.992Z</time></trkpt><trkpt lat="44.20331196479852" lon="10.070269746096406"><ele>136.0</ele><time>2026-04-11T15:27:57.992Z</time></trkpt><trkpt lat="44.20323498864749" lon="10.070123598437243"><ele>132.5</ele><time>2026-04-11T15:27:58.992Z</time></trkpt><trkpt lat="44.203193992902165" lon="10.069963955788204"><ele>129.0</ele><time>2026-04-11T15:27:59.992Z</time></trkpt><trkpt lat="44.203212386341995" lon="10.069790023164531"><ele>126.33333333333334</ele><time>2026-04-11T15:28:00.989Z</time></trkpt><trkpt lat="44.20327981909405" lon="10.06961826365889"><ele>123.66666666666667</ele><time>2026-04-11T15:28:01.989Z</time></trkpt><trkpt lat="44.20337346201595" lon="10.069444625103174"><ele>121.0</ele><time>2026-04-11T15:28:02.989Z</time></trkpt><trkpt lat="44.203465230976775" lon="10.06927176500938"><ele>121.66666666666667</ele><time>2026-04-11T15:28:03.989Z</time></trkpt><trkpt lat="44.203549608010476" lon="10.069093712507764"><ele>122.33333333333334</ele><time>2026-04-11T15:28:04.99Z</time></trkpt><trkpt lat="44.20363581707448" lon="10.068917597075"><ele>123.0</ele><time>2026-04-11T15:28:05.99Z</time></trkpt><trkpt lat="44.203719912924605" lon="10.068750494250695"><ele>123.0</ele><time>2026-04-11T15:28:06.99Z</time></trkpt><trkpt lat="44.203793381076466" lon="10.068600379264279"><ele>123.0</ele><time>2026-04-11T15:28:07.99Z</time></trkpt><trkpt lat="44.20385940558777" lon="10.06846033710128"><ele>123.0</ele><time>2026-04-11T15:28:08.99Z</time></trkpt><trkpt lat="44.20391887557761" lon="10.068336490702944"><ele>123.0</ele><time>2026-04-11T15:28:09.99Z</time></trkpt><trkpt lat="44.203969313397494" lon="10.068221105336681"><ele>123.5</ele><time>2026-04-11T15:28:10.989Z</time></trkpt><trkpt lat="44.20401214058823" lon="10.068113563814723"><ele>124.0</ele><time>2026-04-11T15:28:11.989Z</time></trkpt><trkpt lat="44.20404659825698" lon="10.068012631438782"><ele>124.5</ele><time>2026-04-11T15:28:12.989Z</time></trkpt><trkpt lat="44.20408527197071" lon="10.067868167672255"><ele>125.0</ele><time>2026-04-11T15:28:14.989Z</time></trkpt><trkpt lat="44.20411260084198" lon="10.067769488524144"><ele>125.5</ele><time>2026-04-11T15:28:16.989Z</time></trkpt><trkpt lat="44.2041365961534" lon="10.067683289781137"><ele>126.0</ele><time>2026-04-11T15:28:18.989Z</time></trkpt><trkpt lat="44.20415759590827" lon="10.06760002794489"><ele>126.0</ele><time>2026-04-11T15:28:20.989Z</time></trkpt><trkpt lat="44.20418014129303" lon="10.067509137008916"><ele>126.0</ele><time>2026-04-11T15:28:22.989Z</time></trkpt><trkpt lat="44.204187358724866" lon="10.067393340639105"><ele>126.0</ele><time>2026-04-11T15:28:36.99Z</time></trkpt><trkpt lat="44.20420791280166" lon="10.06728264940453"><ele>126.0</ele><time>2026-04-11T15:28:37.99Z</time></trkpt><trkpt lat="44.20424578882921" lon="10.067138436444726"><ele>126.0</ele><time>2026-04-11T15:28:38.99Z</time></trkpt><trkpt lat="44.20429919800794" lon="10.066945665614975"><ele>125.33333333333334</ele><time>2026-04-11T15:28:39.99Z</time></trkpt><trkpt lat="44.204364125175" lon="10.066724115343389"><ele>124.66666666666667</ele><time>2026-04-11T15:28:40.99Z</time></trkpt><trkpt lat="44.2044404870798" lon="10.066478684336344"><ele>124.0</ele><time>2026-04-11T15:28:41.99Z</time></trkpt><trkpt lat="44.2045113676761" lon="10.066260279145736"><ele>123.66666666666667</ele><time>2026-04-11T15:28:42.99Z</time></trkpt><trkpt lat="44.20456796527967" lon="10.066057741707109"><ele>123.33333333333334</ele><time>2026-04-11T15:28:43.99Z</time></trkpt><trkpt lat="44.2046033324406" lon="10.065859770529435"><ele>123.0</ele><time>2026-04-11T15:28:44.99Z</time></trkpt><trkpt lat="44.20461533743925" lon="10.06564458880074"><ele>123.0</ele><time>2026-04-11T15:28:45.99Z</time></trkpt><trkpt lat="44.20461095053843" lon="10.065426603293616"><ele>123.0</ele><time>2026-04-11T15:28:46.99Z</time></trkpt><trkpt lat="44.20458771803695" lon="10.065232349925527"><ele>123.0</ele><time>2026-04-11T15:28:47.99Z</time></trkpt><trkpt lat="44.204536514661775" lon="10.065065391419747"><ele>123.0</ele><time>2026-04-11T15:28:48.99Z</time></trkpt><trkpt lat="44.204455099357475" lon="10.064906299400727"><ele>128.0</ele><time>2026-04-11T15:28:49.99Z</time></trkpt><trkpt lat="44.20433923566502" lon="10.064740750818174"><ele>133.0</ele><time>2026-04-11T15:28:50.99Z</time></trkpt><trkpt lat="44.204213381074716" lon="10.064554985334736"><ele>138.0</ele><time>2026-04-11T15:28:51.99Z</time></trkpt><trkpt lat="44.204068540704" lon="10.064365700342774"><ele>132.66666666666666</ele><time>2026-04-11T15:28:52.99Z</time></trkpt><trkpt lat="44.20394744187797" lon="10.06418517659796"><ele>127.33333333333333</ele><time>2026-04-11T15:28:53.99Z</time></trkpt><trkpt lat="44.20383746888277" lon="10.064023010535287"><ele>122.0</ele><time>2026-04-11T15:28:54.99Z</time></trkpt><trkpt lat="44.20374040199259" lon="10.063849513260292"><ele>122.0</ele><time>2026-04-11T15:28:55.99Z</time></trkpt><trkpt lat="44.20365189961391" lon="10.06367461079469"><ele>122.0</ele><time>2026-04-11T15:28:56.99Z</time></trkpt><trkpt lat="44.20357048637831" lon="10.063509712389326"><ele>122.0</ele><time>2026-04-11T15:28:57.99Z</time></trkpt><trkpt lat="44.203491484570364" lon="10.063343967871903"><ele>122.0</ele><time>2026-04-11T15:28:58.99Z</time></trkpt><trkpt lat="44.20342461977351" lon="10.063177382139191"><ele>125.33333333333333</ele><time>2026-04-11T15:28:59.99Z</time></trkpt><trkpt lat="44.2033499618297" lon="10.06300553266287"><ele>128.66666666666666</ele><time>2026-04-11T15:29:00.99Z</time></trkpt><trkpt lat="44.20328634539901" lon="10.062813124815515"><ele>132.0</ele><time>2026-04-11T15:29:01.99Z</time></trkpt><trkpt lat="44.20322011221788" lon="10.062602263710097"><ele>127.0</ele><time>2026-04-11T15:29:02.99Z</time></trkpt><trkpt lat="44.203142500739816" lon="10.062378800835186"><ele>122.0</ele><time>2026-04-11T15:29:03.99Z</time></trkpt><trkpt lat="44.203067361464164" lon="10.06215702450934"><ele>117.0</ele><time>2026-04-11T15:29:04.99Z</time></trkpt><trkpt lat="44.20299566303574" lon="10.061941197539806"><ele>117.0</ele><time>2026-04-11T15:29:05.99Z</time></trkpt><trkpt lat="44.20291942340295" lon="10.061738158445902"><ele>117.0</ele><time>2026-04-11T15:29:06.99Z</time></trkpt><trkpt lat="44.202845722280266" lon="10.061538364652025"><ele>117.0</ele><time>2026-04-11T15:29:07.99Z</time></trkpt><trkpt lat="44.20277717835478" lon="10.061332625300636"><ele>120.0</ele><time>2026-04-11T15:29:08.99Z</time></trkpt><trkpt lat="44.202713526723066" lon="10.061132261051549"><ele>123.0</ele><time>2026-04-11T15:29:09.99Z</time></trkpt><trkpt lat="44.20264659851417" lon="10.06093344717175"><ele>126.0</ele><time>2026-04-11T15:29:10.99Z</time></trkpt><trkpt lat="44.202570103586694" lon="10.060732384496996"><ele>123.33333333333334</ele><time>2026-04-11T15:29:11.99Z</time></trkpt><trkpt lat="44.202487504760036" lon="10.06053889841488"><ele>120.66666666666667</ele><time>2026-04-11T15:29:12.99Z</time></trkpt><trkpt lat="44.202404172877664" lon="10.060349159697177"><ele>118.0</ele><time>2026-04-11T15:29:13.99Z</time></trkpt><trkpt lat="44.202317845249986" lon="10.060159584733762"><ele>118.0</ele><time>2026-04-11T15:29:14.99Z</time></trkpt><trkpt lat="44.20223228315019" lon="10.059971500072212"><ele>118.0</ele><time>2026-04-11T15:29:15.99Z</time></trkpt><trkpt lat="44.20214356584937" lon="10.059789664724283"><ele>118.0</ele><time>2026-04-11T15:29:16.99Z</time></trkpt><trkpt lat="44.20205952267689" lon="10.059608523576202"><ele>122.0</ele><time>2026-04-11T15:29:17.99Z</time></trkpt><trkpt lat="44.201968052012376" lon="10.059439735377913"><ele>126.0</ele><time>2026-04-11T15:29:18.99Z</time></trkpt><trkpt lat="44.20186172201256" lon="10.05928701120673"><ele>130.0</ele><time>2026-04-11T15:29:19.99Z</time></trkpt><trkpt lat="44.20175412672724" lon="10.059146468019113"><ele>127.25</ele><time>2026-04-11T15:29:20.99Z</time></trkpt><trkpt lat="44.20163920781395" lon="10.0590146080818"><ele>124.5</ele><time>2026-04-11T15:29:21.99Z</time></trkpt><trkpt lat="44.20153159188853" lon="10.05889207679113"><ele>121.75</ele><time>2026-04-11T15:29:22.99Z</time></trkpt><trkpt lat="44.2014344264356" lon="10.058778691057318"><ele>119.0</ele><time>2026-04-11T15:29:23.99Z</time></trkpt><trkpt lat="44.20134961932238" lon="10.058670762374376"><ele>119.0</ele><time>2026-04-11T15:29:24.99Z</time></trkpt><trkpt lat="44.20127052113525" lon="10.058567751550155"><ele>119.0</ele><time>2026-04-11T15:29:25.99Z</time></trkpt><trkpt lat="44.20119499237302" lon="10.058457923176533"><ele>119.0</ele><time>2026-04-11T15:29:26.99Z</time></trkpt><trkpt lat="44.20113079622363" lon="10.058326648421685"><ele>119.0</ele><time>2026-04-11T15:29:27.99Z</time></trkpt><trkpt lat="44.20107733547961" lon="10.058186447118867"><ele>119.0</ele><time>2026-04-11T15:29:28.99Z</time></trkpt><trkpt lat="44.201032246449955" lon="10.058035941240274"><ele>120.2</ele><time>2026-04-11T15:29:29.99Z</time></trkpt><trkpt lat="44.20099302458589" lon="10.057888384063345"><ele>121.4</ele><time>2026-04-11T15:29:30.99Z</time></trkpt><trkpt lat="44.20095738133647" lon="10.057750130067097"><ele>122.6</ele><time>2026-04-11T15:29:31.99Z</time></trkpt><trkpt lat="44.20092006536554" lon="10.057610910045401"><ele>123.8</ele><time>2026-04-11T15:29:32.99Z</time></trkpt><trkpt lat="44.200878217206" lon="10.057467842787872"><ele>125.0</ele><time>2026-04-11T15:29:33.99Z</time></trkpt><trkpt lat="44.2008360885346" lon="10.057326607466612"><ele>126.75</ele><time>2026-04-11T15:29:34.99Z</time></trkpt><trkpt lat="44.20078796545837" lon="10.057176566106943"><ele>128.5</ele><time>2026-04-11T15:29:35.99Z</time></trkpt><trkpt lat="44.20074635371993" lon="10.057024676289611"><ele>130.25</ele><time>2026-04-11T15:29:36.99Z</time></trkpt><trkpt lat="44.20070833609796" lon="10.05687532753676"><ele>132.0</ele><time>2026-04-11T15:29:37.99Z</time></trkpt><trkpt lat="44.200668809675214" lon="10.05673034857401"><ele>128.79999999999998</ele><time>2026-04-11T15:29:38.99Z</time></trkpt><trkpt lat="44.200631944605945" lon="10.056587723232191"><ele>125.6</ele><time>2026-04-11T15:29:39.99Z</time></trkpt><trkpt lat="44.200597299561075" lon="10.056450385048324"><ele>122.39999999999999</ele><time>2026-04-11T15:29:40.99Z</time></trkpt><trkpt lat="44.200557628879814" lon="10.056310161322035"><ele>119.19999999999999</ele><time>2026-04-11T15:29:41.99Z</time></trkpt><trkpt lat="44.20051678257962" lon="10.0561661709824"><ele>116.0</ele><time>2026-04-11T15:29:42.99Z</time></trkpt><trkpt lat="44.200485871827496" lon="10.056021500751115"><ele>116.0</ele><time>2026-04-11T15:29:43.99Z</time></trkpt><trkpt lat="44.20047012968756" lon="10.055871764878688"><ele>116.0</ele><time>2026-04-11T15:29:44.99Z</time></trkpt><trkpt lat="44.20047092290642" lon="10.055707876089977"><ele>116.0</ele><time>2026-04-11T15:29:45.99Z</time></trkpt><trkpt lat="44.20048177209294" lon="10.055526988655853"><ele>116.0</ele><time>2026-04-11T15:29:46.99Z</time></trkpt><trkpt lat="44.200491395639744" lon="10.055303912665813"><ele>116.0</ele><time>2026-04-11T15:29:47.99Z</time></trkpt><trkpt lat="44.20049900556136" lon="10.05505096481217"><ele>116.0</ele><time>2026-04-11T15:29:48.99Z</time></trkpt><trkpt lat="44.20051677195146" lon="10.054789192699362"><ele>116.0</ele><time>2026-04-11T15:29:49.99Z</time></trkpt><trkpt lat="44.20053588689141" lon="10.054518072545399"><ele>115.33333333333333</ele><time>2026-04-11T15:29:50.99Z</time></trkpt><trkpt lat="44.20055609384261" lon="10.054243975702011"><ele>114.66666666666666</ele><time>2026-04-11T15:29:51.99Z</time></trkpt><trkpt lat="44.200571929403324" lon="10.053969849018081"><ele>114.0</ele><time>2026-04-11T15:29:52.99Z</time></trkpt><trkpt lat="44.20058887416714" lon="10.053705686674451"><ele>114.0</ele><time>2026-04-11T15:29:53.99Z</time></trkpt><trkpt lat="44.20060141332304" lon="10.053457492577053"><ele>114.0</ele><time>2026-04-11T15:29:54.99Z</time></trkpt><trkpt lat="44.20061297346307" lon="10.053222775967225"><ele>114.0</ele><time>2026-04-11T15:29:55.99Z</time></trkpt><trkpt lat="44.200629290794566" lon="10.052985947693985"><ele>114.33333333333334</ele><time>2026-04-11T15:29:56.99Z</time></trkpt><trkpt lat="44.20064476917625" lon="10.052764751391688"><ele>114.66666666666667</ele><time>2026-04-11T15:29:57.99Z</time></trkpt><trkpt lat="44.200651369045076" lon="10.052558027586599"><ele>115.0</ele><time>2026-04-11T15:29:58.99Z</time></trkpt><trkpt lat="44.20065696681729" lon="10.052355351492267"><ele>115.0</ele><time>2026-04-11T15:29:59.99Z</time></trkpt><trkpt lat="44.2006587962075" lon="10.052153836467498"><ele>115.0</ele><time>2026-04-11T15:30:00.99Z</time></trkpt><trkpt lat="44.20064897390811" lon="10.051947160488085"><ele>115.0</ele><time>2026-04-11T15:30:01.99Z</time></trkpt><trkpt lat="44.20060430807166" lon="10.051735374390205"><ele>114.33333333333334</ele><time>2026-04-11T15:30:02.99Z</time></trkpt><trkpt lat="44.20053656447749" lon="10.051524561652524"><ele>113.66666666666666</ele><time>2026-04-11T15:30:03.99Z</time></trkpt><trkpt lat="44.2004655228458" lon="10.051302617988371"><ele>113.0</ele><time>2026-04-11T15:30:04.99Z</time></trkpt><trkpt lat="44.20040507117845" lon="10.051083600791598"><ele>113.0</ele><time>2026-04-11T15:30:05.99Z</time></trkpt><trkpt lat="44.20033017509814" lon="10.050876154847606"><ele>113.0</ele><time>2026-04-11T15:30:06.988Z</time></trkpt><trkpt lat="44.200266783165084" lon="10.05067954348519"><ele>113.0</ele><time>2026-04-11T15:30:07.989Z</time></trkpt><trkpt lat="44.2002079210006" lon="10.05050598205333"><ele>112.80000000000001</ele><time>2026-04-11T15:30:08.989Z</time></trkpt><trkpt lat="44.200162563267234" lon="10.050358402343987"><ele>112.60000000000001</ele><time>2026-04-11T15:30:09.988Z</time></trkpt><trkpt lat="44.20011892449315" lon="10.05023784230971"><ele>112.39999999999999</ele><time>2026-04-11T15:30:10.988Z</time></trkpt><trkpt lat="44.200034823206565" lon="10.050155816159792"><ele>112.19999999999999</ele><time>2026-04-11T15:30:11.988Z</time></trkpt><trkpt lat="44.19991991126883" lon="10.050086555745189"><ele>112.0</ele><time>2026-04-11T15:30:12.989Z</time></trkpt><trkpt lat="44.19979164668123" lon="10.050021135981254"><ele>109.66666666666667</ele><time>2026-04-11T15:30:13.988Z</time></trkpt><trkpt lat="44.19965788882589" lon="10.049919494238042"><ele>107.33333333333334</ele><time>2026-04-11T15:30:14.988Z</time></trkpt><trkpt lat="44.199521115847304" lon="10.049776283423391"><ele>105.0</ele><time>2026-04-11T15:30:15.988Z</time></trkpt><trkpt lat="44.19939266852253" lon="10.04960610168115"><ele>105.0</ele><time>2026-04-11T15:30:16.988Z</time></trkpt><trkpt lat="44.19928033905398" lon="10.049409851050141"><ele>105.0</ele><time>2026-04-11T15:30:17.988Z</time></trkpt><trkpt lat="44.19918024932932" lon="10.049190528274575"><ele>105.0</ele><time>2026-04-11T15:30:18.988Z</time></trkpt><trkpt lat="44.19908911481003" lon="10.048956332484662"><ele>105.33333333333334</ele><time>2026-04-11T15:30:19.988Z</time></trkpt><trkpt lat="44.199008806190534" lon="10.048705011068886"><ele>105.66666666666667</ele><time>2026-04-11T15:30:20.988Z</time></trkpt><trkpt lat="44.19892947129707" lon="10.048429940446052"><ele>106.0</ele><time>2026-04-11T15:30:21.988Z</time></trkpt><trkpt lat="44.198851907471536" lon="10.048141777033042"><ele>104.5</ele><time>2026-04-11T15:30:22.988Z</time></trkpt><trkpt lat="44.19877172664864" lon="10.04784867991745"><ele>103.0</ele><time>2026-04-11T15:30:23.988Z</time></trkpt><trkpt lat="44.19868499665391" lon="10.047553686454131"><ele>103.0</ele><time>2026-04-11T15:30:24.988Z</time></trkpt><trkpt lat="44.19860423788112" lon="10.047261400495596"><ele>103.0</ele><time>2026-04-11T15:30:25.988Z</time></trkpt><trkpt lat="44.19852978262256" lon="10.04698400853855"><ele>103.0</ele><time>2026-04-11T15:30:26.988Z</time></trkpt><trkpt lat="44.198462184864056" lon="10.046726150665831"><ele>103.0</ele><time>2026-04-11T15:30:27.988Z</time></trkpt><trkpt lat="44.198402540168054" lon="10.046472274177757"><ele>103.0</ele><time>2026-04-11T15:30:28.988Z</time></trkpt><trkpt lat="44.19835755884135" lon="10.04620357869503"><ele>103.0</ele><time>2026-04-11T15:30:29.988Z</time></trkpt><trkpt lat="44.19834063422555" lon="10.045919888340324"><ele>103.33333333333334</ele><time>2026-04-11T15:30:30.988Z</time></trkpt><trkpt lat="44.1983504068665" lon="10.045625743341686"><ele>103.66666666666666</ele><time>2026-04-11T15:30:31.988Z</time></trkpt><trkpt lat="44.19837759999693" lon="10.04533116232992"><ele>104.0</ele><time>2026-04-11T15:30:32.988Z</time></trkpt><trkpt lat="44.19840135411084" lon="10.045049221935606"><ele>104.0</ele><time>2026-04-11T15:30:33.988Z</time></trkpt><trkpt lat="44.19840840438299" lon="10.044764283529867"><ele>104.0</ele><time>2026-04-11T15:30:34.988Z</time></trkpt><trkpt lat="44.19838385984548" lon="10.044481275771107"><ele>104.0</ele><time>2026-04-11T15:30:35.988Z</time></trkpt><trkpt lat="44.198343575648565" lon="10.044194791620633"><ele>104.33333333333333</ele><time>2026-04-11T15:30:36.988Z</time></trkpt><trkpt lat="44.19830185348952" lon="10.043918394445665"><ele>104.66666666666666</ele><time>2026-04-11T15:30:37.988Z</time></trkpt><trkpt lat="44.19827283123065" lon="10.043653128960996"><ele>105.0</ele><time>2026-04-11T15:30:38.988Z</time></trkpt><trkpt lat="44.19826870219839" lon="10.043381617470782"><ele>104.66666666666666</ele><time>2026-04-11T15:30:39.988Z</time></trkpt><trkpt lat="44.19829845456845" lon="10.043098469576282"><ele>104.33333333333333</ele><time>2026-04-11T15:30:40.988Z</time></trkpt><trkpt lat="44.19835597254395" lon="10.042811599080158"><ele>104.0</ele><time>2026-04-11T15:30:41.988Z</time></trkpt><trkpt lat="44.198430542403514" lon="10.04252100684379"><ele>102.0</ele><time>2026-04-11T15:30:42.988Z</time></trkpt><trkpt lat="44.198513024893245" lon="10.042227720842208"><ele>100.0</ele><time>2026-04-11T15:30:43.988Z</time></trkpt><trkpt lat="44.19859638031033" lon="10.041924884619478"><ele>100.5</ele><time>2026-04-11T15:30:44.988Z</time></trkpt><trkpt lat="44.19867753940794" lon="10.041607470241294"><ele>101.0</ele><time>2026-04-11T15:30:45.988Z</time></trkpt><trkpt lat="44.19876249206143" lon="10.041280997355068"><ele>101.0</ele><time>2026-04-11T15:30:46.988Z</time></trkpt><trkpt lat="44.1988457703336" lon="10.040952673495807"><ele>101.0</ele><time>2026-04-11T15:30:47.988Z</time></trkpt><trkpt lat="44.1989260142382" lon="10.040647080634528"><ele>100.66666666666666</ele><time>2026-04-11T15:30:48.988Z</time></trkpt><trkpt lat="44.199007310473185" lon="10.040361792484726"><ele>100.33333333333334</ele><time>2026-04-11T15:30:49.988Z</time></trkpt><trkpt lat="44.19908313010352" lon="10.040077244647797"><ele>100.0</ele><time>2026-04-11T15:30:50.988Z</time></trkpt><trkpt lat="44.199152298527565" lon="10.039808982996473"><ele>100.0</ele><time>2026-04-11T15:30:51.988Z</time></trkpt><trkpt lat="44.19923517647349" lon="10.039562208250835"><ele>100.0</ele><time>2026-04-11T15:30:52.988Z</time></trkpt><trkpt lat="44.199330540605" lon="10.039313729778272"><ele>100.0</ele><time>2026-04-11T15:30:53.988Z</time></trkpt><trkpt lat="44.19943773450053" lon="10.039068926817547"><ele>99.0</ele><time>2026-04-11T15:30:54.988Z</time></trkpt><trkpt lat="44.19955347762382" lon="10.038832102775725"><ele>98.0</ele><time>2026-04-11T15:30:55.988Z</time></trkpt><trkpt lat="44.199683939709296" lon="10.038611455496934"><ele>97.0</ele><time>2026-04-11T15:30:56.988Z</time></trkpt><trkpt lat="44.19982837466858" lon="10.038403030457358"><ele>97.33333333333334</ele><time>2026-04-11T15:30:57.988Z</time></trkpt><trkpt lat="44.19998913730621" lon="10.038213549731214"><ele>97.66666666666666</ele><time>2026-04-11T15:30:58.988Z</time></trkpt><trkpt lat="44.200154643700984" lon="10.038041487210062"><ele>98.0</ele><time>2026-04-11T15:30:59.988Z</time></trkpt><trkpt lat="44.20030811124394" lon="10.03786103729863"><ele>98.0</ele><time>2026-04-11T15:31:00.988Z</time></trkpt><trkpt lat="44.20045218581726" lon="10.037618866535466"><ele>98.0</ele><time>2026-04-11T15:31:01.988Z</time></trkpt><trkpt lat="44.200593367055674" lon="10.037346023243932"><ele>99.5</ele><time>2026-04-11T15:31:02.988Z</time></trkpt><trkpt lat="44.20073888621644" lon="10.037045986465067"><ele>101.0</ele><time>2026-04-11T15:31:03.988Z</time></trkpt><trkpt lat="44.20088841656452" lon="10.036754300757911"><ele>100.0</ele><time>2026-04-11T15:31:04.988Z</time></trkpt><trkpt lat="44.20103425691403" lon="10.03648620910708"><ele>99.0</ele><time>2026-04-11T15:31:05.988Z</time></trkpt><trkpt lat="44.20116379640913" lon="10.036216541293062"><ele>99.0</ele><time>2026-04-11T15:31:06.988Z</time></trkpt><trkpt lat="44.20127462048312" lon="10.035928120615662"><ele>99.0</ele><time>2026-04-11T15:31:07.988Z</time></trkpt><trkpt lat="44.20137417498872" lon="10.0356217899075"><ele>99.0</ele><time>2026-04-11T15:31:08.988Z</time></trkpt><trkpt lat="44.201468693225834" lon="10.035313842362546"><ele>99.0</ele><time>2026-04-11T15:31:09.988Z</time></trkpt><trkpt lat="44.20156604816997" lon="10.035012371071275"><ele>98.0</ele><time>2026-04-11T15:31:10.988Z</time></trkpt><trkpt lat="44.20166298839475" lon="10.034723313206324"><ele>97.0</ele><time>2026-04-11T15:31:11.988Z</time></trkpt><trkpt lat="44.20176049494236" lon="10.034427695785608"><ele>96.5</ele><time>2026-04-11T15:31:12.988Z</time></trkpt><trkpt lat="44.201856884179605" lon="10.034134545869106"><ele>96.0</ele><time>2026-04-11T15:31:13.988Z</time></trkpt><trkpt lat="44.20194976019215" lon="10.033848633807422"><ele>96.0</ele><time>2026-04-11T15:31:14.988Z</time></trkpt><trkpt lat="44.2020378263955" lon="10.033581475803588"><ele>96.0</ele><time>2026-04-11T15:31:15.988Z</time></trkpt><trkpt lat="44.20212505162928" lon="10.033326753392005"><ele>96.0</ele><time>2026-04-11T15:31:16.988Z</time></trkpt><trkpt lat="44.20220812660954" lon="10.033075996413729"><ele>96.0</ele><time>2026-04-11T15:31:17.988Z</time></trkpt><trkpt lat="44.202288935339666" lon="10.03282963329181"><ele>96.0</ele><time>2026-04-11T15:31:18.988Z</time></trkpt><trkpt lat="44.202367413547904" lon="10.032585865434935"><ele>96.0</ele><time>2026-04-11T15:31:19.988Z</time></trkpt><trkpt lat="44.202446926245294" lon="10.032348622764712"><ele>96.0</ele><time>2026-04-11T15:31:20.988Z</time></trkpt><trkpt lat="44.20252671407301" lon="10.032113024439246"><ele>96.0</ele><time>2026-04-11T15:31:21.988Z</time></trkpt><trkpt lat="44.20260651151242" lon="10.031874539027736"><ele>96.0</ele><time>2026-04-11T15:31:22.988Z</time></trkpt><trkpt lat="44.20268515320395" lon="10.031636402543725"><ele>95.33333333333333</ele><time>2026-04-11T15:31:23.988Z</time></trkpt><trkpt lat="44.20276377083407" lon="10.031401400388047"><ele>94.66666666666666</ele><time>2026-04-11T15:31:24.988Z</time></trkpt><trkpt lat="44.20284062589756" lon="10.031169125508317"><ele>94.0</ele><time>2026-04-11T15:31:25.988Z</time></trkpt><trkpt lat="44.20291886429412" lon="10.030936810461537"><ele>93.33333333333333</ele><time>2026-04-11T15:31:26.989Z</time></trkpt><trkpt lat="44.20299342948363" lon="10.030710529024946"><ele>92.66666666666667</ele><time>2026-04-11T15:31:27.989Z</time></trkpt><trkpt lat="44.20306900245364" lon="10.030495782328218"><ele>92.0</ele><time>2026-04-11T15:31:28.989Z</time></trkpt><trkpt lat="44.20313719766584" lon="10.03029693530309"><ele>92.25</ele><time>2026-04-11T15:31:29.989Z</time></trkpt><trkpt lat="44.20319917221467" lon="10.030108317861966"><ele>92.5</ele><time>2026-04-11T15:31:30.989Z</time></trkpt><trkpt lat="44.20325475696529" lon="10.029935916124847"><ele>92.75</ele><time>2026-04-11T15:31:31.989Z</time></trkpt><trkpt lat="44.2032944958362" lon="10.029763887169823"><ele>93.0</ele><time>2026-04-11T15:31:32.989Z</time></trkpt><trkpt lat="44.203301921961135" lon="10.029596348543189"><ele>93.0</ele><time>2026-04-11T15:31:33.989Z</time></trkpt><trkpt lat="44.20328038221626" lon="10.029443056287056"><ele>93.0</ele><time>2026-04-11T15:31:34.989Z</time></trkpt><trkpt lat="44.203220748097735" lon="10.029289024894487"><ele>93.0</ele><time>2026-04-11T15:31:35.989Z</time></trkpt><trkpt lat="44.203130010497496" lon="10.029163220182316"><ele>93.0</ele><time>2026-04-11T15:31:36.989Z</time></trkpt><trkpt lat="44.20299811902478" lon="10.0290614799526"><ele>91.33333333333333</ele><time>2026-04-11T15:31:37.989Z</time></trkpt><trkpt lat="44.202863095426046" lon="10.02894672292262"><ele>89.66666666666666</ele><time>2026-04-11T15:31:38.989Z</time></trkpt><trkpt lat="44.20271226740918" lon="10.02882870779234"><ele>88.0</ele><time>2026-04-11T15:31:39.989Z</time></trkpt><trkpt lat="44.20255716631599" lon="10.028709105002639"><ele>88.0</ele><time>2026-04-11T15:31:40.989Z</time></trkpt><trkpt lat="44.20242143567458" lon="10.028586802350263"><ele>88.0</ele><time>2026-04-11T15:31:41.989Z</time></trkpt><trkpt lat="44.20229829144036" lon="10.02846990317095"><ele>88.0</ele><time>2026-04-11T15:31:42.989Z</time></trkpt><trkpt lat="44.20219120531725" lon="10.028353768612215"><ele>88.0</ele><time>2026-04-11T15:31:43.989Z</time></trkpt><trkpt lat="44.20210748021851" lon="10.028214789463528"><ele>91.75</ele><time>2026-04-11T15:31:44.989Z</time></trkpt><trkpt lat="44.20205294896197" lon="10.02804469227986"><ele>95.5</ele><time>2026-04-11T15:31:45.989Z</time></trkpt><trkpt lat="44.2020385719329" lon="10.027851412284111"><ele>99.25</ele><time>2026-04-11T15:31:46.989Z</time></trkpt><trkpt lat="44.20206658685964" lon="10.027658839929758"><ele>103.0</ele><time>2026-04-11T15:31:47.989Z</time></trkpt><trkpt lat="44.20211601149182" lon="10.027462895337782"><ele>106.33333333333334</ele><time>2026-04-11T15:31:48.989Z</time></trkpt><trkpt lat="44.20217023421069" lon="10.027264365349467"><ele>109.66666666666666</ele><time>2026-04-11T15:31:49.989Z</time></trkpt><trkpt lat="44.20222307900652" lon="10.027056639631198"><ele>113.0</ele><time>2026-04-11T15:31:50.989Z</time></trkpt><trkpt lat="44.202265957378884" lon="10.026844703539368"><ele>112.66666666666666</ele><time>2026-04-11T15:31:51.989Z</time></trkpt><trkpt lat="44.20229353016165" lon="10.026625070717271"><ele>112.33333333333334</ele><time>2026-04-11T15:31:52.989Z</time></trkpt><trkpt lat="44.202292771207084" lon="10.026407117631711"><ele>112.0</ele><time>2026-04-11T15:31:53.989Z</time></trkpt><trkpt lat="44.20226861926225" lon="10.026195278799978"><ele>112.0</ele><time>2026-04-11T15:31:54.989Z</time></trkpt><trkpt lat="44.20221712853378" lon="10.02595616212741"><ele>112.0</ele><time>2026-04-11T15:31:55.989Z</time></trkpt><trkpt lat="44.20214514493358" lon="10.025672383273536"><ele>112.0</ele><time>2026-04-11T15:31:56.989Z</time></trkpt><trkpt lat="44.20207598662966" lon="10.025342817573275"><ele>110.0</ele><time>2026-04-11T15:31:57.989Z</time></trkpt><trkpt lat="44.20201132001096" lon="10.024993739318644"><ele>108.0</ele><time>2026-04-11T15:31:58.989Z</time></trkpt><trkpt lat="44.20194599392515" lon="10.024616046245082"><ele>106.0</ele><time>2026-04-11T15:31:59.989Z</time></trkpt><trkpt lat="44.201869633982284" lon="10.024219572121037"><ele>104.0</ele><time>2026-04-11T15:32:00.989Z</time></trkpt><trkpt lat="44.20180339921076" lon="10.02385384111439"><ele>101.5</ele><time>2026-04-11T15:32:01.989Z</time></trkpt><trkpt lat="44.20173663739906" lon="10.023519041838828"><ele>99.0</ele><time>2026-04-11T15:32:02.989Z</time></trkpt><trkpt lat="44.201671453070055" lon="10.023206067813108"><ele>98.0</ele><time>2026-04-11T15:32:03.989Z</time></trkpt><trkpt lat="44.201614304356" lon="10.022912224886573"><ele>97.0</ele><time>2026-04-11T15:32:04.989Z</time></trkpt><trkpt lat="44.201585366363126" lon="10.022637483875256"><ele>96.0</ele><time>2026-04-11T15:32:05.989Z</time></trkpt><trkpt lat="44.20158356146076" lon="10.022324634890108"><ele>96.0</ele><time>2026-04-11T15:32:06.989Z</time></trkpt><trkpt lat="44.20158746638711" lon="10.021970201996675"><ele>96.0</ele><time>2026-04-11T15:32:07.989Z</time></trkpt><trkpt lat="44.201592311924415" lon="10.021642115313117"><ele>95.33333333333333</ele><time>2026-04-11T15:32:08.989Z</time></trkpt><trkpt lat="44.20159656222717" lon="10.021342207620142"><ele>94.66666666666666</ele><time>2026-04-11T15:32:09.989Z</time></trkpt><trkpt lat="44.201601246096416" lon="10.021071732725302"><ele>94.0</ele><time>2026-04-11T15:32:10.989Z</time></trkpt><trkpt lat="44.20160496012803" lon="10.020827298300787"><ele>93.33333333333333</ele><time>2026-04-11T15:32:11.989Z</time></trkpt><trkpt lat="44.20159569250214" lon="10.020582234334647"><ele>92.66666666666667</ele><time>2026-04-11T15:32:12.986Z</time></trkpt><trkpt lat="44.201549324101165" lon="10.020323849924472"><ele>92.0</ele><time>2026-04-11T15:32:13.987Z</time></trkpt><trkpt lat="44.20150732473423" lon="10.020084035506033"><ele>97.0</ele><time>2026-04-11T15:32:14.987Z</time></trkpt><trkpt lat="44.20144775469243" lon="10.019850273105499"><ele>102.0</ele><time>2026-04-11T15:32:15.986Z</time></trkpt><trkpt lat="44.201427140177" lon="10.019630436661782"><ele>107.0</ele><time>2026-04-11T15:32:16.986Z</time></trkpt><trkpt lat="44.201411881024214" lon="10.019417003955924"><ele>107.0</ele><time>2026-04-11T15:32:17.986Z</time></trkpt><trkpt lat="44.20139880745197" lon="10.019207028998519"><ele>107.0</ele><time>2026-04-11T15:32:18.986Z</time></trkpt><trkpt lat="44.20138962053731" lon="10.018992973612061"><ele>107.0</ele><time>2026-04-11T15:32:19.986Z</time></trkpt><trkpt lat="44.201380414947906" lon="10.01877901020429"><ele>105.5</ele><time>2026-04-11T15:32:20.986Z</time></trkpt><trkpt lat="44.201371424139644" lon="10.018568564005337"><ele>104.0</ele><time>2026-04-11T15:32:21.986Z</time></trkpt><trkpt lat="44.20136607024379" lon="10.018369326117387"><ele>102.5</ele><time>2026-04-11T15:32:22.986Z</time></trkpt><trkpt lat="44.20135814914024" lon="10.018176518258246"><ele>101.0</ele><time>2026-04-11T15:32:23.986Z</time></trkpt><trkpt lat="44.201352110681434" lon="10.01799084924869"><ele>101.0</ele><time>2026-04-11T15:32:24.986Z</time></trkpt><trkpt lat="44.20134904551454" lon="10.017811822071165"><ele>101.0</ele><time>2026-04-11T15:32:25.986Z</time></trkpt><trkpt lat="44.20134739738724" lon="10.017647361523345"><ele>101.0</ele><time>2026-04-11T15:32:26.986Z</time></trkpt><trkpt lat="44.201366516200956" lon="10.017519690454423"><ele>101.0</ele><time>2026-04-11T15:32:27.986Z</time></trkpt><trkpt lat="44.20140996859186" lon="10.017399491655015"><ele>101.0</ele><time>2026-04-11T15:32:28.986Z</time></trkpt><trkpt lat="44.201490702275045" lon="10.017295760990772"><ele>99.5</ele><time>2026-04-11T15:32:29.986Z</time></trkpt><trkpt lat="44.20159327105959" lon="10.017222464598737"><ele>98.0</ele><time>2026-04-11T15:32:30.986Z</time></trkpt><trkpt lat="44.201707783133514" lon="10.01717529024263"><ele>96.5</ele><time>2026-04-11T15:32:31.986Z</time></trkpt><trkpt lat="44.201825689050686" lon="10.017133618351124"><ele>95.0</ele><time>2026-04-11T15:32:32.986Z</time></trkpt><trkpt lat="44.20195261867163" lon="10.017079701754456"><ele>95.0</ele><time>2026-04-11T15:32:33.986Z</time></trkpt><trkpt lat="44.20209643840352" lon="10.017015658248614"><ele>95.0</ele><time>2026-04-11T15:32:34.986Z</time></trkpt><trkpt lat="44.20224166641026" lon="10.016954154197517"><ele>95.0</ele><time>2026-04-11T15:32:35.986Z</time></trkpt><trkpt lat="44.202375131108674" lon="10.0169017463239"><ele>95.0</ele><time>2026-04-11T15:32:36.986Z</time></trkpt><trkpt lat="44.20250585470059" lon="10.016846770292142"><ele>93.5</ele><time>2026-04-11T15:32:37.986Z</time></trkpt><trkpt lat="44.20263285815043" lon="10.016794368627291"><ele>92.0</ele><time>2026-04-11T15:32:38.986Z</time></trkpt><trkpt lat="44.20275360601356" lon="10.016741032295359"><ele>90.5</ele><time>2026-04-11T15:32:39.986Z</time></trkpt><trkpt lat="44.202864229998774" lon="10.01669261806293"><ele>89.0</ele><time>2026-04-11T15:32:40.986Z</time></trkpt><trkpt lat="44.202960491366" lon="10.01665341360997"><ele>89.33333333333334</ele><time>2026-04-11T15:32:41.986Z</time></trkpt><trkpt lat="44.203038098611415" lon="10.01661993006463"><ele>89.66666666666667</ele><time>2026-04-11T15:32:42.986Z</time></trkpt><trkpt lat="44.20310837160896" lon="10.016586037705158"><ele>90.0</ele><time>2026-04-11T15:32:43.986Z</time></trkpt><trkpt lat="44.203182943657126" lon="10.016553804622626"><ele>90.33333333333333</ele><time>2026-04-11T15:32:44.986Z</time></trkpt><trkpt lat="44.20327099720677" lon="10.016515744495207"><ele>90.66666666666666</ele><time>2026-04-11T15:32:45.986Z</time></trkpt><trkpt lat="44.203366757983765" lon="10.016471477740438"><ele>91.0</ele><time>2026-04-11T15:32:46.986Z</time></trkpt><trkpt lat="44.20346980766553" lon="10.01642410108279"><ele>90.0</ele><time>2026-04-11T15:32:47.986Z</time></trkpt><trkpt lat="44.20358063245484" lon="10.016377385745812"><ele>89.0</ele><time>2026-04-11T15:32:48.986Z</time></trkpt><trkpt lat="44.20369602767758" lon="10.0163280937223"><ele>88.0</ele><time>2026-04-11T15:32:49.986Z</time></trkpt><trkpt lat="44.20381179199223" lon="10.016281515016052"><ele>87.0</ele><time>2026-04-11T15:32:50.986Z</time></trkpt><trkpt lat="44.20392651571173" lon="10.016236280297552"><ele>86.5</ele><time>2026-04-11T15:32:51.986Z</time></trkpt><trkpt lat="44.20404008214397" lon="10.01619277989819"><ele>86.0</ele><time>2026-04-11T15:32:52.986Z</time></trkpt><trkpt lat="44.20414854641964" lon="10.016150245116354"><ele>85.5</ele><time>2026-04-11T15:32:53.986Z</time></trkpt><trkpt lat="44.20425365001315" lon="10.016106119552743"><ele>85.0</ele><time>2026-04-11T15:32:54.986Z</time></trkpt><trkpt lat="44.20436213494997" lon="10.016061634305265"><ele>85.0</ele><time>2026-04-11T15:32:55.986Z</time></trkpt><trkpt lat="44.20446835089345" lon="10.016016789154715"><ele>85.0</ele><time>2026-04-11T15:32:56.986Z</time></trkpt><trkpt lat="44.204575179255464" lon="10.015971499697397"><ele>85.0</ele><time>2026-04-11T15:32:57.986Z</time></trkpt><trkpt lat="44.20468255287736" lon="10.01592912111018"><ele>85.0</ele><time>2026-04-11T15:32:58.986Z</time></trkpt><trkpt lat="44.20479116851493" lon="10.015887378333574"><ele>85.0</ele><time>2026-04-11T15:32:59.986Z</time></trkpt><trkpt lat="44.20490809793949" lon="10.015840782519659"><ele>84.5</ele><time>2026-04-11T15:33:00.986Z</time></trkpt><trkpt lat="44.205030271607164" lon="10.015789010270991"><ele>84.0</ele><time>2026-04-11T15:33:01.986Z</time></trkpt><trkpt lat="44.205165962839025" lon="10.015734487411413"><ele>83.5</ele><time>2026-04-11T15:33:02.986Z</time></trkpt><trkpt lat="44.20530370840276" lon="10.015672194344816"><ele>83.0</ele><time>2026-04-11T15:33:03.986Z</time></trkpt><trkpt lat="44.20543011665246" lon="10.015606635992432"><ele>83.0</ele><time>2026-04-11T15:33:04.986Z</time></trkpt><trkpt lat="44.205553915198564" lon="10.015536629470688"><ele>83.0</ele><time>2026-04-11T15:33:05.986Z</time></trkpt><trkpt lat="44.205681973204776" lon="10.015442336371176"><ele>83.0</ele><time>2026-04-11T15:33:06.986Z</time></trkpt><trkpt lat="44.2058014013453" lon="10.015319954530778"><ele>83.0</ele><time>2026-04-11T15:33:07.986Z</time></trkpt><trkpt lat="44.20591155847961" lon="10.015174762206225"><ele>82.75</ele><time>2026-04-11T15:33:08.986Z</time></trkpt><trkpt lat="44.20601109894689" lon="10.015016697496561"><ele>82.5</ele><time>2026-04-11T15:33:09.986Z</time></trkpt><trkpt lat="44.20609518996036" lon="10.014849976874721"><ele>82.25</ele><time>2026-04-11T15:33:10.986Z</time></trkpt><trkpt lat="44.206153826866434" lon="10.01468073426379"><ele>82.0</ele><time>2026-04-11T15:33:11.986Z</time></trkpt><trkpt lat="44.206203618668056" lon="10.014506137195758"><ele>82.0</ele><time>2026-04-11T15:33:12.986Z</time></trkpt><trkpt lat="44.20624177373313" lon="10.014328577284928"><ele>82.0</ele><time>2026-04-11T15:33:13.986Z</time></trkpt><trkpt lat="44.20626841109734" lon="10.014153521413897"><ele>82.0</ele><time>2026-04-11T15:33:14.986Z</time></trkpt><trkpt lat="44.20628604647048" lon="10.013985524005255"><ele>82.0</ele><time>2026-04-11T15:33:15.986Z</time></trkpt><trkpt lat="44.206292758425036" lon="10.013826582075554"><ele>81.75</ele><time>2026-04-11T15:33:16.986Z</time></trkpt><trkpt lat="44.20628412043072" lon="10.013661838640138"><ele>81.5</ele><time>2026-04-11T15:33:17.986Z</time></trkpt><trkpt lat="44.206274314711926" lon="10.01349454384106"><ele>81.25</ele><time>2026-04-11T15:33:18.986Z</time></trkpt><trkpt lat="44.20626048851809" lon="10.013317973706068"><ele>81.0</ele><time>2026-04-11T15:33:19.986Z</time></trkpt><trkpt lat="44.20624874082445" lon="10.013136256558942"><ele>81.0</ele><time>2026-04-11T15:33:20.986Z</time></trkpt><trkpt lat="44.20623091014266" lon="10.012959982403338"><ele>81.0</ele><time>2026-04-11T15:33:21.986Z</time></trkpt><trkpt lat="44.20622325226961" lon="10.012777977205184"><ele>81.0</ele><time>2026-04-11T15:33:22.986Z</time></trkpt><trkpt lat="44.20622434566154" lon="10.012597373991813"><ele>81.0</ele><time>2026-04-11T15:33:23.986Z</time></trkpt><trkpt lat="44.2062419280046" lon="10.01241783013747"><ele>81.25</ele><time>2026-04-11T15:33:24.986Z</time></trkpt><trkpt lat="44.206283148314476" lon="10.012240665399462"><ele>81.5</ele><time>2026-04-11T15:33:25.986Z</time></trkpt><trkpt lat="44.20633423733646" lon="10.012066348574754"><ele>81.75</ele><time>2026-04-11T15:33:26.986Z</time></trkpt><trkpt lat="44.20637803940574" lon="10.011889602011967"><ele>82.0</ele><time>2026-04-11T15:33:27.986Z</time></trkpt><trkpt lat="44.206403612269156" lon="10.011723051750753"><ele>82.0</ele><time>2026-04-11T15:33:28.986Z</time></trkpt><trkpt lat="44.206424220398546" lon="10.011543809250304"><ele>82.0</ele><time>2026-04-11T15:33:29.986Z</time></trkpt><trkpt lat="44.206448593429634" lon="10.011364611705684"><ele>82.0</ele><time>2026-04-11T15:33:30.986Z</time></trkpt><trkpt lat="44.20646423617143" lon="10.011190394991953"><ele>82.0</ele><time>2026-04-11T15:33:31.986Z</time></trkpt><trkpt lat="44.20647127946578" lon="10.011012949818612"><ele>82.0</ele><time>2026-04-11T15:33:32.986Z</time></trkpt><trkpt lat="44.20646201052295" lon="10.0108417408474"><ele>82.0</ele><time>2026-04-11T15:33:33.986Z</time></trkpt><trkpt lat="44.206446702039244" lon="10.010678259307792"><ele>82.0</ele><time>2026-04-11T15:33:34.986Z</time></trkpt><trkpt lat="44.20642638098167" lon="10.010515817067251"><ele>82.0</ele><time>2026-04-11T15:33:35.986Z</time></trkpt><trkpt lat="44.20640298928654" lon="10.01035056142427"><ele>81.75</ele><time>2026-04-11T15:33:36.986Z</time></trkpt><trkpt lat="44.20637707607872" lon="10.010183814588446"><ele>81.5</ele><time>2026-04-11T15:33:37.986Z</time></trkpt><trkpt lat="44.20634720899236" lon="10.010026186993457"><ele>81.25</ele><time>2026-04-11T15:33:38.986Z</time></trkpt><trkpt lat="44.20632210887985" lon="10.009861097404295"><ele>81.0</ele><time>2026-04-11T15:33:39.986Z</time></trkpt><trkpt lat="44.206299124529345" lon="10.00968786405536"><ele>80.75</ele><time>2026-04-11T15:33:40.986Z</time></trkpt><trkpt lat="44.206282182586754" lon="10.009508096301198"><ele>80.5</ele><time>2026-04-11T15:33:41.986Z</time></trkpt><trkpt lat="44.20626018236597" lon="10.009331566194353"><ele>80.25</ele><time>2026-04-11T15:33:42.986Z</time></trkpt><trkpt lat="44.20623835694406" lon="10.009142495304445"><ele>80.0</ele><time>2026-04-11T15:33:43.986Z</time></trkpt><trkpt lat="44.206216372403574" lon="10.008956087040621"><ele>80.0</ele><time>2026-04-11T15:33:44.986Z</time></trkpt><trkpt lat="44.206191225923405" lon="10.008760223731276"><ele>80.0</ele><time>2026-04-11T15:33:45.986Z</time></trkpt><trkpt lat="44.20617504895911" lon="10.008553391600346"><ele>80.0</ele><time>2026-04-11T15:33:46.986Z</time></trkpt><trkpt lat="44.206158742695756" lon="10.00834483389883"><ele>80.0</ele><time>2026-04-11T15:33:47.986Z</time></trkpt><trkpt lat="44.20615046649963" lon="10.008147008133175"><ele>80.0</ele><time>2026-04-11T15:33:48.986Z</time></trkpt><trkpt lat="44.20615402946021" lon="10.007956846005856"><ele>80.0</ele><time>2026-04-11T15:33:49.986Z</time></trkpt><trkpt lat="44.20614853044103" lon="10.007779355020844"><ele>80.0</ele><time>2026-04-11T15:33:50.986Z</time></trkpt><trkpt lat="44.20613742135279" lon="10.007592639614682"><ele>80.0</ele><time>2026-04-11T15:33:51.986Z</time></trkpt><trkpt lat="44.206122853277904" lon="10.007410028636043"><ele>80.0</ele><time>2026-04-11T15:33:52.986Z</time></trkpt><trkpt lat="44.20611775520109" lon="10.007246914659722"><ele>80.0</ele><time>2026-04-11T15:33:53.986Z</time></trkpt><trkpt lat="44.20607420512671" lon="10.007082723416513"><ele>80.0</ele><time>2026-04-11T15:33:54.986Z</time></trkpt><trkpt lat="44.206055467499695" lon="10.006922369089482"><ele>80.0</ele><time>2026-04-11T15:33:55.986Z</time></trkpt><trkpt lat="44.20601919180355" lon="10.006774617611592"><ele>80.0</ele><time>2026-04-11T15:33:56.986Z</time></trkpt><trkpt lat="44.20598624423925" lon="10.006616784960611"><ele>80.0</ele><time>2026-04-11T15:33:57.986Z</time></trkpt><trkpt lat="44.205941089306464" lon="10.00646517219283"><ele>80.0</ele><time>2026-04-11T15:33:58.986Z</time></trkpt><trkpt lat="44.205905238606746" lon="10.00631556933759"><ele>80.0</ele><time>2026-04-11T15:33:59.986Z</time></trkpt><trkpt lat="44.20587747822556" lon="10.006164773237417"><ele>80.0</ele><time>2026-04-11T15:34:00.986Z</time></trkpt><trkpt lat="44.2058536829552" lon="10.006014264163577"><ele>80.0</ele><time>2026-04-11T15:34:01.987Z</time></trkpt><trkpt lat="44.20583290490039" lon="10.005864319204337"><ele>80.0</ele><time>2026-04-11T15:34:02.987Z</time></trkpt><trkpt lat="44.205810025026636" lon="10.005715945440052"><ele>80.0</ele><time>2026-04-11T15:34:03.987Z</time></trkpt><trkpt lat="44.20578470247294" lon="10.005571187904225"><ele>80.0</ele><time>2026-04-11T15:34:04.987Z</time></trkpt><trkpt lat="44.205760998853776" lon="10.005421710862716"><ele>79.8</ele><time>2026-04-11T15:34:05.987Z</time></trkpt><trkpt lat="44.205738883864484" lon="10.005269068318436"><ele>79.6</ele><time>2026-04-11T15:34:06.987Z</time></trkpt><trkpt lat="44.205720758745294" lon="10.005125893053998"><ele>79.4</ele><time>2026-04-11T15:34:07.987Z</time></trkpt><trkpt lat="44.20569627443508" lon="10.004980385597873"><ele>79.2</ele><time>2026-04-11T15:34:08.987Z</time></trkpt><trkpt lat="44.20567338246581" lon="10.004846377778406"><ele>79.0</ele><time>2026-04-11T15:34:09.987Z</time></trkpt><trkpt lat="44.205627167881474" lon="10.004741668104861"><ele>79.0</ele><time>2026-04-11T15:34:10.987Z</time></trkpt><trkpt lat="44.20557272539847" lon="10.004673505588448"><ele>79.0</ele><time>2026-04-11T15:34:11.987Z</time></trkpt><trkpt lat="44.2055299111901" lon="10.004608879629329"><ele>79.0</ele><time>2026-04-11T15:34:12.987Z</time></trkpt><trkpt lat="44.20546729458417" lon="10.004540092404701"><ele>79.0</ele><time>2026-04-11T15:34:13.987Z</time></trkpt><trkpt lat="44.20531410967086" lon="10.00438985220694"><ele>79.0</ele><time>2026-04-11T15:34:14.987Z</time></trkpt><trkpt lat="44.20524889992011" lon="10.004330030962125"><ele>79.0</ele><time>2026-04-11T15:34:15.987Z</time></trkpt><trkpt lat="44.20519357004787" lon="10.004244712107836"><ele>79.0</ele><time>2026-04-11T15:34:16.987Z</time></trkpt><trkpt lat="44.20516314946392" lon="10.004125540410362"><ele>79.0</ele><time>2026-04-11T15:34:17.987Z</time></trkpt><trkpt lat="44.205165568354104" lon="10.003992994969042"><ele>79.0</ele><time>2026-04-11T15:34:18.985Z</time></trkpt><trkpt lat="44.20519290865548" lon="10.003858023529903"><ele>79.0</ele><time>2026-04-11T15:34:19.985Z</time></trkpt><trkpt lat="44.20521571073211" lon="10.003725302160229"><ele>78.83333333333333</ele><time>2026-04-11T15:34:20.985Z</time></trkpt><trkpt lat="44.20523165494902" lon="10.00360516885777"><ele>78.66666666666666</ele><time>2026-04-11T15:34:21.984Z</time></trkpt><trkpt lat="44.20525558210194" lon="10.003483474917664"><ele>78.5</ele><time>2026-04-11T15:34:22.984Z</time></trkpt><trkpt lat="44.20526527984699" lon="10.003350931266295"><ele>78.33333333333333</ele><time>2026-04-11T15:34:23.984Z</time></trkpt><trkpt lat="44.205283619414786" lon="10.003222740885716"><ele>78.16666666666667</ele><time>2026-04-11T15:34:24.985Z</time></trkpt><trkpt lat="44.205292314790654" lon="10.003108714093498"><ele>78.0</ele><time>2026-04-11T15:34:25.985Z</time></trkpt><trkpt lat="44.20530165763072" lon="10.003012523610284"><ele>78.0</ele><time>2026-04-11T15:34:26.985Z</time></trkpt><trkpt lat="44.205301783591715" lon="10.00292296998673"><ele>78.0</ele><time>2026-04-11T15:34:27.984Z</time></trkpt><trkpt lat="44.20530375859866" lon="10.002822291723787"><ele>78.0</ele><time>2026-04-11T15:34:28.984Z</time></trkpt><trkpt lat="44.20526611765367" lon="10.00268988054398"><ele>78.0</ele><time>2026-04-11T15:34:30.984Z</time></trkpt><trkpt lat="44.20520171317915" lon="10.002685137990737"><ele>78.0</ele><time>2026-04-11T15:34:38.985Z</time></trkpt><trkpt lat="44.20512474613313" lon="10.002596883030991"><ele>78.0</ele><time>2026-04-11T15:34:41.985Z</time></trkpt><trkpt lat="44.20504623782893" lon="10.002480639944483"><ele>77.83333333333333</ele><time>2026-04-11T15:34:43.985Z</time></trkpt><trkpt lat="44.20495033174211" lon="10.00241748733558"><ele>77.66666666666667</ele><time>2026-04-11T15:34:45.985Z</time></trkpt><trkpt lat="44.20484219976497" lon="10.002377297319816"><ele>77.5</ele><time>2026-04-11T15:34:47.985Z</time></trkpt><trkpt lat="44.20479012274268" lon="10.002325590895966"><ele>77.33333333333334</ele><time>2026-04-11T15:34:48.985Z</time></trkpt><trkpt lat="44.204741704999236" lon="10.00226171178488"><ele>77.16666666666667</ele><time>2026-04-11T15:34:49.985Z</time></trkpt><trkpt lat="44.20468389982312" lon="10.002163912574114"><ele>77.0</ele><time>2026-04-11T15:34:50.985Z</time></trkpt><trkpt lat="44.20467486886587" lon="10.001973250554038"><ele>77.0</ele><time>2026-04-11T15:34:51.985Z</time></trkpt><trkpt lat="44.20465884293692" lon="10.001850337565605"><ele>77.0</ele><time>2026-04-11T15:34:52.985Z</time></trkpt><trkpt lat="44.204645835522996" lon="10.001738600639047"><ele>77.0</ele><time>2026-04-11T15:34:53.985Z</time></trkpt><trkpt lat="44.2046249161036" lon="10.001620270190884"><ele>77.0</ele><time>2026-04-11T15:34:54.985Z</time></trkpt><trkpt lat="44.2046074208937" lon="10.001490306246149"><ele>77.0</ele><time>2026-04-11T15:34:55.985Z</time></trkpt><trkpt lat="44.20457615289073" lon="10.001365369341135"><ele>77.0</ele><time>2026-04-11T15:34:56.985Z</time></trkpt><trkpt lat="44.20455825570903" lon="10.001221187829092"><ele>77.0</ele><time>2026-04-11T15:34:57.985Z</time></trkpt><trkpt lat="44.204533043506544" lon="10.001076793234706"><ele>77.0</ele><time>2026-04-11T15:34:58.985Z</time></trkpt><trkpt lat="44.20450271548422" lon="10.00093061585751"><ele>77.0</ele><time>2026-04-11T15:34:59.985Z</time></trkpt><trkpt lat="44.204476889651616" lon="10.000784334054961"><ele>77.0</ele><time>2026-04-11T15:35:00.985Z</time></trkpt><trkpt lat="44.204450520313465" lon="10.000639279898126"><ele>77.0</ele><time>2026-04-11T15:35:01.985Z</time></trkpt><trkpt lat="44.2044251360577" lon="10.00049052575373"><ele>76.25</ele><time>2026-04-11T15:35:02.985Z</time></trkpt><trkpt lat="44.204408136512846" lon="10.000326095642787"><ele>75.5</ele><time>2026-04-11T15:35:03.985Z</time></trkpt><trkpt lat="44.20438543026714" lon="10.000152036972938"><ele>74.75</ele><time>2026-04-11T15:35:04.985Z</time></trkpt><trkpt lat="44.20435607383313" lon="9.999978132514409"><ele>74.0</ele><time>2026-04-11T15:35:05.985Z</time></trkpt><trkpt lat="44.204320594772035" lon="9.999805206931407"><ele>74.0</ele><time>2026-04-11T15:35:06.985Z</time></trkpt><trkpt lat="44.20429036796592" lon="9.999625296474402"><ele>74.0</ele><time>2026-04-11T15:35:07.985Z</time></trkpt><trkpt lat="44.20427161965981" lon="9.999446830829429"><ele>74.0</ele><time>2026-04-11T15:35:08.985Z</time></trkpt><trkpt lat="44.20425049830729" lon="9.999273826422511"><ele>74.0</ele><time>2026-04-11T15:35:09.985Z</time></trkpt><trkpt lat="44.20422553554836" lon="9.999099062554038"><ele>73.75</ele><time>2026-04-11T15:35:10.985Z</time></trkpt><trkpt lat="44.20418354586177" lon="9.998935933129486"><ele>73.5</ele><time>2026-04-11T15:35:11.985Z</time></trkpt><trkpt lat="44.20416201620266" lon="9.998774183008392"><ele>73.25</ele><time>2026-04-11T15:35:12.985Z</time></trkpt><trkpt lat="44.20413323102656" lon="9.998613772982633"><ele>73.0</ele><time>2026-04-11T15:35:13.985Z</time></trkpt><trkpt lat="44.20408842945742" lon="9.998452912752123"><ele>73.0</ele><time>2026-04-11T15:35:14.985Z</time></trkpt><trkpt lat="44.204049404041875" lon="9.998276523205291"><ele>73.0</ele><time>2026-04-11T15:35:15.985Z</time></trkpt><trkpt lat="44.204002155323195" lon="9.99810272067603"><ele>73.0</ele><time>2026-04-11T15:35:16.985Z</time></trkpt><trkpt lat="44.20393805464877" lon="9.997927124133446"><ele>73.0</ele><time>2026-04-11T15:35:17.985Z</time></trkpt><trkpt lat="44.20387411347478" lon="9.997753865833117"><ele>73.25</ele><time>2026-04-11T15:35:18.985Z</time></trkpt><trkpt lat="44.203808245531846" lon="9.99758172993715"><ele>73.5</ele><time>2026-04-11T15:35:19.985Z</time></trkpt><trkpt lat="44.20374320384302" lon="9.997412360216252"><ele>73.75</ele><time>2026-04-11T15:35:20.985Z</time></trkpt><trkpt lat="44.20367661832424" lon="9.997236125629481"><ele>74.0</ele><time>2026-04-11T15:35:21.985Z</time></trkpt><trkpt lat="44.203611345672975" lon="9.997056175524087"><ele>73.5</ele><time>2026-04-11T15:35:22.985Z</time></trkpt><trkpt lat="44.20354147481631" lon="9.99687764865354"><ele>73.0</ele><time>2026-04-11T15:35:23.985Z</time></trkpt><trkpt lat="44.20347379098493" lon="9.996704501682105"><ele>72.5</ele><time>2026-04-11T15:35:24.985Z</time></trkpt><trkpt lat="44.203404931958815" lon="9.996519085550604"><ele>72.0</ele><time>2026-04-11T15:35:25.985Z</time></trkpt><trkpt lat="44.20332969648055" lon="9.996331349619938"><ele>72.0</ele><time>2026-04-11T15:35:26.985Z</time></trkpt><trkpt lat="44.203250974162714" lon="9.996135493961713"><ele>72.0</ele><time>2026-04-11T15:35:27.985Z</time></trkpt><trkpt lat="44.20315826907914" lon="9.995918379275787"><ele>72.0</ele><time>2026-04-11T15:35:28.985Z</time></trkpt><trkpt lat="44.203051665336304" lon="9.995665122338716"><ele>72.5</ele><time>2026-04-11T15:35:29.985Z</time></trkpt><trkpt lat="44.20293420215583" lon="9.995384760384034"><ele>73.0</ele><time>2026-04-11T15:35:30.985Z</time></trkpt><trkpt lat="44.20283369125866" lon="9.995112618301944"><ele>72.33333333333333</ele><time>2026-04-11T15:35:31.985Z</time></trkpt><trkpt lat="44.20274489528352" lon="9.994866536568198"><ele>71.66666666666667</ele><time>2026-04-11T15:35:32.985Z</time></trkpt><trkpt lat="44.202665106692464" lon="9.994634408121865"><ele>71.0</ele><time>2026-04-11T15:35:33.985Z</time></trkpt><trkpt lat="44.2025944718087" lon="9.994430814429066"><ele>71.0</ele><time>2026-04-11T15:35:34.985Z</time></trkpt><trkpt lat="44.20252607084439" lon="9.994252330776293"><ele>71.0</ele><time>2026-04-11T15:35:35.985Z</time></trkpt><trkpt lat="44.202460988660185" lon="9.994098147599468"><ele>71.0</ele><time>2026-04-11T15:35:36.985Z</time></trkpt><trkpt lat="44.20240405559447" lon="9.99395318111906"><ele>71.0</ele><time>2026-04-11T15:35:37.985Z</time></trkpt><trkpt lat="44.20236018042153" lon="9.993800906852018"><ele>71.0</ele><time>2026-04-11T15:35:38.985Z</time></trkpt><trkpt lat="44.20233112206201" lon="9.993642411518385"><ele>71.0</ele><time>2026-04-11T15:35:39.985Z</time></trkpt><trkpt lat="44.20232075543154" lon="9.993472010149633"><ele>71.0</ele><time>2026-04-11T15:35:40.985Z</time></trkpt><trkpt lat="44.20232286317812" lon="9.993291151765385"><ele>71.0</ele><time>2026-04-11T15:35:41.985Z</time></trkpt><trkpt lat="44.20233426277068" lon="9.993104950102355"><ele>70.5</ele><time>2026-04-11T15:35:42.985Z</time></trkpt><trkpt lat="44.20235515345281" lon="9.992915975240392"><ele>70.0</ele><time>2026-04-11T15:35:43.985Z</time></trkpt><trkpt lat="44.20237979631586" lon="9.992723759174206"><ele>69.5</ele><time>2026-04-11T15:35:44.985Z</time></trkpt><trkpt lat="44.2023993738723" lon="9.992538572881491"><ele>69.0</ele><time>2026-04-11T15:35:45.985Z</time></trkpt><trkpt lat="44.20242244222492" lon="9.992358998768232"><ele>68.75</ele><time>2026-04-11T15:35:46.985Z</time></trkpt><trkpt lat="44.20244380034337" lon="9.992182832232503"><ele>68.5</ele><time>2026-04-11T15:35:47.985Z</time></trkpt><trkpt lat="44.202466962372874" lon="9.992012454675228"><ele>68.25</ele><time>2026-04-11T15:35:48.985Z</time></trkpt><trkpt lat="44.20248449345427" lon="9.991848074170223"><ele>68.0</ele><time>2026-04-11T15:35:49.985Z</time></trkpt><trkpt lat="44.202502152792775" lon="9.991679272551645"><ele>67.6</ele><time>2026-04-11T15:35:50.985Z</time></trkpt><trkpt lat="44.20252090074294" lon="9.99152582674366"><ele>67.19999999999999</ele><time>2026-04-11T15:35:51.985Z</time></trkpt><trkpt lat="44.20253799810171" lon="9.991387397570334"><ele>66.8</ele><time>2026-04-11T15:35:52.985Z</time></trkpt><trkpt lat="44.20255181742704" lon="9.991268214753623"><ele>66.39999999999999</ele><time>2026-04-11T15:35:53.985Z</time></trkpt><trkpt lat="44.20256247700997" lon="9.991164260932601"><ele>66.0</ele><time>2026-04-11T15:35:54.985Z</time></trkpt><trkpt lat="44.20255863086317" lon="9.99105119651736"><ele>66.0</ele><time>2026-04-11T15:35:55.985Z</time></trkpt><trkpt lat="44.202527035063795" lon="9.99094585649601"><ele>66.0</ele><time>2026-04-11T15:35:56.985Z</time></trkpt><trkpt lat="44.20247542255632" lon="9.990851592315103"><ele>66.0</ele><time>2026-04-11T15:35:57.985Z</time></trkpt><trkpt lat="44.20240209263241" lon="9.990763577927405"><ele>66.0</ele><time>2026-04-11T15:35:58.985Z</time></trkpt><trkpt lat="44.20230830540858" lon="9.990666542812832"><ele>66.0</ele><time>2026-04-11T15:35:59.985Z</time></trkpt><trkpt lat="44.202205928174145" lon="9.990563925862414"><ele>65.75</ele><time>2026-04-11T15:36:00.985Z</time></trkpt><trkpt lat="44.20210490178457" lon="9.990457060327813"><ele>65.5</ele><time>2026-04-11T15:36:01.985Z</time></trkpt><trkpt lat="44.20200164953232" lon="9.990338761655996"><ele>65.25</ele><time>2026-04-11T15:36:02.985Z</time></trkpt><trkpt lat="44.201891913563735" lon="9.990214590429668"><ele>65.0</ele><time>2026-04-11T15:36:03.985Z</time></trkpt><trkpt lat="44.20179414639991" lon="9.990096192498955"><ele>65.6</ele><time>2026-04-11T15:36:04.985Z</time></trkpt><trkpt lat="44.20170558440432" lon="9.989977794048025"><ele>66.2</ele><time>2026-04-11T15:36:05.985Z</time></trkpt><trkpt lat="44.20162649258488" lon="9.98984520357415"><ele>66.8</ele><time>2026-04-11T15:36:06.985Z</time></trkpt><trkpt lat="44.201573709494475" lon="9.989722419775"><ele>67.4</ele><time>2026-04-11T15:36:07.985Z</time></trkpt><trkpt lat="44.20154186427025" lon="9.989608014751198"><ele>68.0</ele><time>2026-04-11T15:36:08.985Z</time></trkpt><trkpt lat="44.20152167470455" lon="9.989477889939854"><ele>68.0</ele><time>2026-04-11T15:36:09.985Z</time></trkpt><trkpt lat="44.201502192741" lon="9.989331458569321"><ele>68.0</ele><time>2026-04-11T15:36:10.985Z</time></trkpt><trkpt lat="44.20147740963274" lon="9.989177959535747"><ele>68.0</ele><time>2026-04-11T15:36:11.985Z</time></trkpt><trkpt lat="44.201447727657325" lon="9.989014483393944"><ele>68.0</ele><time>2026-04-11T15:36:12.985Z</time></trkpt><trkpt lat="44.201411378040795" lon="9.988839842323145"><ele>67.75</ele><time>2026-04-11T15:36:13.985Z</time></trkpt><trkpt lat="44.201380189369374" lon="9.988665279950265"><ele>67.5</ele><time>2026-04-11T15:36:14.985Z</time></trkpt><trkpt lat="44.20135220700383" lon="9.988500984474781"><ele>67.25</ele><time>2026-04-11T15:36:15.985Z</time></trkpt><trkpt lat="44.20133074686913" lon="9.98831131471227"><ele>67.0</ele><time>2026-04-11T15:36:16.985Z</time></trkpt><trkpt lat="44.20131223411723" lon="9.988115307590798"><ele>67.0</ele><time>2026-04-11T15:36:17.985Z</time></trkpt><trkpt lat="44.20130266420197" lon="9.987918743415424"><ele>67.0</ele><time>2026-04-11T15:36:18.985Z</time></trkpt><trkpt lat="44.20130430393084" lon="9.987726338931383"><ele>67.0</ele><time>2026-04-11T15:36:19.986Z</time></trkpt><trkpt lat="44.20131813121843" lon="9.987535857775391"><ele>67.0</ele><time>2026-04-11T15:36:20.986Z</time></trkpt><trkpt lat="44.20133359263953" lon="9.987344957650645"><ele>67.0</ele><time>2026-04-11T15:36:21.986Z</time></trkpt><trkpt lat="44.20133685778576" lon="9.987151227103286"><ele>67.0</ele><time>2026-04-11T15:36:22.986Z</time></trkpt><trkpt lat="44.20133190579353" lon="9.986966536083028"><ele>67.0</ele><time>2026-04-11T15:36:23.986Z</time></trkpt><trkpt lat="44.20132029012996" lon="9.986789237741169"><ele>67.0</ele><time>2026-04-11T15:36:24.982Z</time></trkpt><trkpt lat="44.201319207605934" lon="9.986630296191525"><ele>66.75</ele><time>2026-04-11T15:36:25.983Z</time></trkpt><trkpt lat="44.20131973395311" lon="9.986463793690195"><ele>66.5</ele><time>2026-04-11T15:36:26.983Z</time></trkpt><trkpt lat="44.20132446004562" lon="9.986287937107038"><ele>66.25</ele><time>2026-04-11T15:36:27.983Z</time></trkpt><trkpt lat="44.20134313895819" lon="9.986109000600253"><ele>66.0</ele><time>2026-04-11T15:36:28.983Z</time></trkpt><trkpt lat="44.201368110577604" lon="9.985943965619768"><ele>65.8</ele><time>2026-04-11T15:36:29.983Z</time></trkpt><trkpt lat="44.20139535789909" lon="9.985801744789097"><ele>65.6</ele><time>2026-04-11T15:36:30.983Z</time></trkpt><trkpt lat="44.201415079549285" lon="9.985655536877871"><ele>65.4</ele><time>2026-04-11T15:36:31.983Z</time></trkpt><trkpt lat="44.201425547194575" lon="9.985503360258404"><ele>65.2</ele><time>2026-04-11T15:36:32.983Z</time></trkpt><trkpt lat="44.2014135243958" lon="9.985349265692685"><ele>65.0</ele><time>2026-04-11T15:36:33.983Z</time></trkpt><trkpt lat="44.201373323370504" lon="9.98519360240092"><ele>65.0</ele><time>2026-04-11T15:36:34.983Z</time></trkpt><trkpt lat="44.20132714299888" lon="9.98502859765336"><ele>65.0</ele><time>2026-04-11T15:36:35.983Z</time></trkpt><trkpt lat="44.20128697717637" lon="9.984854246755827"><ele>65.0</ele><time>2026-04-11T15:36:36.983Z</time></trkpt><trkpt lat="44.20123982499235" lon="9.984680286978108"><ele>65.0</ele><time>2026-04-11T15:36:37.983Z</time></trkpt><trkpt lat="44.201200565055025" lon="9.984499524372108"><ele>65.25</ele><time>2026-04-11T15:36:38.983Z</time></trkpt><trkpt lat="44.201154626775576" lon="9.984312366213517"><ele>65.5</ele><time>2026-04-11T15:36:39.983Z</time></trkpt><trkpt lat="44.201116278368154" lon="9.984129594561496"><ele>65.75</ele><time>2026-04-11T15:36:40.983Z</time></trkpt><trkpt lat="44.201083923828406" lon="9.983950967997387"><ele>66.0</ele><time>2026-04-11T15:36:41.983Z</time></trkpt><trkpt lat="44.20107650607519" lon="9.983776146992453"><ele>66.0</ele><time>2026-04-11T15:36:42.983Z</time></trkpt><trkpt lat="44.201091883963855" lon="9.983609176287226"><ele>66.0</ele><time>2026-04-11T15:36:43.983Z</time></trkpt><trkpt lat="44.20112795357213" lon="9.98344814315609"><ele>66.0</ele><time>2026-04-11T15:36:44.983Z</time></trkpt><trkpt lat="44.201183034319364" lon="9.983293557914445"><ele>66.0</ele><time>2026-04-11T15:36:45.983Z</time></trkpt><trkpt lat="44.2012490044661" lon="9.983149097948518"><ele>65.5</ele><time>2026-04-11T15:36:46.983Z</time></trkpt><trkpt lat="44.20132468154716" lon="9.982999044067379"><ele>65.0</ele><time>2026-04-11T15:36:47.983Z</time></trkpt><trkpt lat="44.20141125628023" lon="9.982853317140663"><ele>64.5</ele><time>2026-04-11T15:36:48.983Z</time></trkpt><trkpt lat="44.20150023768035" lon="9.982707405849002"><ele>64.0</ele><time>2026-04-11T15:36:49.983Z</time></trkpt><trkpt lat="44.2015916039515" lon="9.982572274490334"><ele>65.75</ele><time>2026-04-11T15:36:50.983Z</time></trkpt><trkpt lat="44.20168273639425" lon="9.982442147456197"><ele>67.5</ele><time>2026-04-11T15:36:51.983Z</time></trkpt><trkpt lat="44.20177753097475" lon="9.982329681744853"><ele>69.25</ele><time>2026-04-11T15:36:52.983Z</time></trkpt><trkpt lat="44.201878190836844" lon="9.982225378696596"><ele>71.0</ele><time>2026-04-11T15:36:53.983Z</time></trkpt><trkpt lat="44.20201008920216" lon="9.98213372861491"><ele>71.0</ele><time>2026-04-11T15:36:54.983Z</time></trkpt><trkpt lat="44.202143453230654" lon="9.98205637923335"><ele>71.0</ele><time>2026-04-11T15:36:55.983Z</time></trkpt><trkpt lat="44.20227609204836" lon="9.981967522721213"><ele>71.0</ele><time>2026-04-11T15:36:56.983Z</time></trkpt><trkpt lat="44.20240330841676" lon="9.981874444616864"><ele>71.0</ele><time>2026-04-11T15:36:57.983Z</time></trkpt><trkpt lat="44.20251261314179" lon="9.981767064822952"><ele>70.0</ele><time>2026-04-11T15:36:58.983Z</time></trkpt><trkpt lat="44.20262226620735" lon="9.981656566029173"><ele>69.0</ele><time>2026-04-11T15:36:59.983Z</time></trkpt><trkpt lat="44.20272527762616" lon="9.981544111832926"><ele>68.0</ele><time>2026-04-11T15:37:00.983Z</time></trkpt><trkpt lat="44.202827567016485" lon="9.981455496820818"><ele>67.0</ele><time>2026-04-11T15:37:01.983Z</time></trkpt><trkpt lat="44.20293959455858" lon="9.98139221577853"><ele>67.0</ele><time>2026-04-11T15:37:02.983Z</time></trkpt><trkpt lat="44.20306236965424" lon="9.981343536877315"><ele>67.0</ele><time>2026-04-11T15:37:03.983Z</time></trkpt><trkpt lat="44.20319190723529" lon="9.981310386307927"><ele>67.0</ele><time>2026-04-11T15:37:04.983Z</time></trkpt><trkpt lat="44.203322475979" lon="9.98128496364141"><ele>67.0</ele><time>2026-04-11T15:37:05.983Z</time></trkpt><trkpt lat="44.20345089412073" lon="9.981257854903903"><ele>69.25</ele><time>2026-04-11T15:37:06.983Z</time></trkpt><trkpt lat="44.20357543955801" lon="9.981234975815799"><ele>71.5</ele><time>2026-04-11T15:37:07.983Z</time></trkpt><trkpt lat="44.20369415190972" lon="9.981201894664295"><ele>73.75</ele><time>2026-04-11T15:37:08.983Z</time></trkpt><trkpt lat="44.20381460017048" lon="9.98114486246122"><ele>76.0</ele><time>2026-04-11T15:37:09.983Z</time></trkpt><trkpt lat="44.20391321436588" lon="9.981054876766745"><ele>76.2</ele><time>2026-04-11T15:37:10.983Z</time></trkpt><trkpt lat="44.203999087860694" lon="9.980957887229426"><ele>76.39999999999999</ele><time>2026-04-11T15:37:11.983Z</time></trkpt><trkpt lat="44.20407348908281" lon="9.980864487456762"><ele>76.6</ele><time>2026-04-11T15:37:12.983Z</time></trkpt><trkpt lat="44.20415169336226" lon="9.980771500127508"><ele>76.8</ele><time>2026-04-11T15:37:13.983Z</time></trkpt><trkpt lat="44.20423584135665" lon="9.980686013780087"><ele>77.0</ele><time>2026-04-11T15:37:14.983Z</time></trkpt><trkpt lat="44.20432528451386" lon="9.980607765129136"><ele>73.5</ele><time>2026-04-11T15:37:15.983Z</time></trkpt><trkpt lat="44.20442390050846" lon="9.980536168322008"><ele>70.0</ele><time>2026-04-11T15:37:16.983Z</time></trkpt><trkpt lat="44.20453562889905" lon="9.980478088492909"><ele>66.5</ele><time>2026-04-11T15:37:17.983Z</time></trkpt><trkpt lat="44.20465668039841" lon="9.980441232056869"><ele>63.0</ele><time>2026-04-11T15:37:18.983Z</time></trkpt><trkpt lat="44.204786398084465" lon="9.980381121076276"><ele>63.0</ele><time>2026-04-11T15:37:19.983Z</time></trkpt><trkpt lat="44.20491542357795" lon="9.980300591859525"><ele>63.0</ele><time>2026-04-11T15:37:20.983Z</time></trkpt><trkpt lat="44.20504815863832" lon="9.98020477117847"><ele>63.0</ele><time>2026-04-11T15:37:21.983Z</time></trkpt><trkpt lat="44.20519408146038" lon="9.980093911753347"><ele>62.66666666666667</ele><time>2026-04-11T15:37:22.983Z</time></trkpt><trkpt lat="44.205359611681175" lon="9.97999689993082"><ele>62.333333333333336</ele><time>2026-04-11T15:37:23.983Z</time></trkpt><trkpt lat="44.20552512009685" lon="9.97989702953216"><ele>62.0</ele><time>2026-04-11T15:37:24.983Z</time></trkpt><trkpt lat="44.20568716536945" lon="9.979802215017953"><ele>62.0</ele><time>2026-04-11T15:37:25.983Z</time></trkpt><trkpt lat="44.20585643038109" lon="9.979724680628875"><ele>62.0</ele><time>2026-04-11T15:37:26.983Z</time></trkpt><trkpt lat="44.20601977832395" lon="9.979636326072853"><ele>62.0</ele><time>2026-04-11T15:37:27.983Z</time></trkpt><trkpt lat="44.20580256689994" lon="9.97957926749697"><ele>62.0</ele><time>2026-04-11T15:37:28.983Z</time></trkpt><trkpt lat="44.2059207303166" lon="9.97952995102861"><ele>62.0</ele><time>2026-04-11T15:37:29.983Z</time></trkpt><trkpt lat="44.20604700462301" lon="9.979508947902954"><ele>62.0</ele><time>2026-04-11T15:37:30.983Z</time></trkpt><trkpt lat="44.2061819271312" lon="9.979511408515059"><ele>62.0</ele><time>2026-04-11T15:37:31.983Z</time></trkpt><trkpt lat="44.20640773782934" lon="9.979501443959272"><ele>62.0</ele><time>2026-04-11T15:37:33.983Z</time></trkpt><trkpt lat="44.2065044188725" lon="9.979486258339307"><ele>62.0</ele><time>2026-04-11T15:37:34.983Z</time></trkpt><trkpt lat="44.20658507486449" lon="9.979442471651357"><ele>62.0</ele><time>2026-04-11T15:37:35.983Z</time></trkpt><trkpt lat="44.20665285057476" lon="9.9793591325781"><ele>62.0</ele><time>2026-04-11T15:37:36.983Z</time></trkpt><trkpt lat="44.206699346550074" lon="9.979244796082224"><ele>62.0</ele><time>2026-04-11T15:37:37.983Z</time></trkpt><trkpt lat="44.20672740710904" lon="9.979122936949208"><ele>62.0</ele><time>2026-04-11T15:37:38.983Z</time></trkpt><trkpt lat="44.206771510374345" lon="9.978995821484318"><ele>62.0</ele><time>2026-04-11T15:37:39.983Z</time></trkpt><trkpt lat="44.20681386800506" lon="9.978857952459537"><ele>62.0</ele><time>2026-04-11T15:37:40.983Z</time></trkpt><trkpt lat="44.20686868779408" lon="9.978710180965882"><ele>62.0</ele><time>2026-04-11T15:37:41.983Z</time></trkpt><trkpt lat="44.2069174202997" lon="9.978562710235941"><ele>62.0</ele><time>2026-04-11T15:37:42.983Z</time></trkpt><trkpt lat="44.20697686108352" lon="9.978412105441706"><ele>61.6</ele><time>2026-04-11T15:37:43.983Z</time></trkpt><trkpt lat="44.207043975265016" lon="9.978275709630152"><ele>61.2</ele><time>2026-04-11T15:37:44.983Z</time></trkpt><trkpt lat="44.20711496117948" lon="9.978148195353336"><ele>60.8</ele><time>2026-04-11T15:37:45.983Z</time></trkpt><trkpt lat="44.20718013178314" lon="9.978034585163204"><ele>60.4</ele><time>2026-04-11T15:37:46.983Z</time></trkpt><trkpt lat="44.20724131971279" lon="9.977938450612118"><ele>60.0</ele><time>2026-04-11T15:37:47.983Z</time></trkpt><trkpt lat="44.20730553293251" lon="9.977834902731246"><ele>60.2</ele><time>2026-04-11T15:37:48.983Z</time></trkpt><trkpt lat="44.207365355853845" lon="9.977720834922025"><ele>60.4</ele><time>2026-04-11T15:37:49.983Z</time></trkpt><trkpt lat="44.20743776516735" lon="9.97760951239461"><ele>60.599999999999994</ele><time>2026-04-11T15:37:50.983Z</time></trkpt><trkpt lat="44.207514129275424" lon="9.977503452449417"><ele>60.8</ele><time>2026-04-11T15:37:51.983Z</time></trkpt><trkpt lat="44.20760964781516" lon="9.977416181466149"><ele>61.0</ele><time>2026-04-11T15:37:52.983Z</time></trkpt><trkpt lat="44.207724484455326" lon="9.977358326591263"><ele>61.0</ele><time>2026-04-11T15:37:53.983Z</time></trkpt><trkpt lat="44.2078446309878" lon="9.977301018662772"><ele>61.0</ele><time>2026-04-11T15:37:54.983Z</time></trkpt><trkpt lat="44.20796053540485" lon="9.977255619858994"><ele>61.0</ele><time>2026-04-11T15:37:55.983Z</time></trkpt><trkpt lat="44.20806717082375" lon="9.977203036787818"><ele>61.0</ele><time>2026-04-11T15:37:56.983Z</time></trkpt><trkpt lat="44.208165415373955" lon="9.97715629530636"><ele>62.8</ele><time>2026-04-11T15:37:57.983Z</time></trkpt><trkpt lat="44.208250514546755" lon="9.977108743260121"><ele>64.6</ele><time>2026-04-11T15:37:58.983Z</time></trkpt><trkpt lat="44.2083208082884" lon="9.977068150217539"><ele>66.4</ele><time>2026-04-11T15:37:59.983Z</time></trkpt><trkpt lat="44.208419534324996" lon="9.97699456775461"><ele>68.2</ele><time>2026-04-11T15:38:01.983Z</time></trkpt><trkpt lat="44.208485063832654" lon="9.97691223590906"><ele>70.0</ele><time>2026-04-11T15:38:03.983Z</time></trkpt><trkpt lat="44.20858761671271" lon="9.976817659998224"><ele>70.0</ele><time>2026-04-11T15:38:05.984Z</time></trkpt><trkpt lat="44.20869055834435" lon="9.976770831586824"><ele>70.0</ele><time>2026-04-11T15:38:06.984Z</time></trkpt><trkpt lat="44.20882347991784" lon="9.976770368697498"><ele>70.0</ele><time>2026-04-11T15:38:07.984Z</time></trkpt><trkpt lat="44.20896458763267" lon="9.976783483463256"><ele>70.0</ele><time>2026-04-11T15:38:08.984Z</time></trkpt><trkpt lat="44.20911481847814" lon="9.976808069715737"><ele>74.0</ele><time>2026-04-11T15:38:09.984Z</time></trkpt><trkpt lat="44.20927504447042" lon="9.97683060006429"><ele>78.0</ele><time>2026-04-11T15:38:10.984Z</time></trkpt><trkpt lat="44.20946712106001" lon="9.976880560401657"><ele>82.0</ele><time>2026-04-11T15:38:11.984Z</time></trkpt><trkpt lat="44.20966701820684" lon="9.976934149578836"><ele>81.33333333333333</ele><time>2026-04-11T15:38:12.984Z</time></trkpt><trkpt lat="44.20986786619284" lon="9.97698871279376"><ele>80.66666666666667</ele><time>2026-04-11T15:38:13.984Z</time></trkpt><trkpt lat="44.21006869903193" lon="9.977036705136785"><ele>80.0</ele><time>2026-04-11T15:38:14.984Z</time></trkpt><trkpt lat="44.21024428962949" lon="9.977088401925695"><ele>80.0</ele><time>2026-04-11T15:38:15.984Z</time></trkpt><trkpt lat="44.210398300149336" lon="9.977143121298075"><ele>80.0</ele><time>2026-04-11T15:38:16.984Z</time></trkpt><trkpt lat="44.210534053015934" lon="9.977221942595682"><ele>80.0</ele><time>2026-04-11T15:38:17.984Z</time></trkpt><trkpt lat="44.21064007556464" lon="9.977340738811701"><ele>80.0</ele><time>2026-04-11T15:38:18.984Z</time></trkpt><trkpt lat="44.21072915703636" lon="9.977479368571386"><ele>80.2</ele><time>2026-04-11T15:38:19.984Z</time></trkpt><trkpt lat="44.21079990043545" lon="9.977587081306122"><ele>80.4</ele><time>2026-04-11T15:38:20.984Z</time></trkpt><trkpt lat="44.21087928381948" lon="9.97765751452657"><ele>80.6</ele><time>2026-04-11T15:38:21.984Z</time></trkpt><trkpt lat="44.210975546814105" lon="9.977674669548657"><ele>80.8</ele><time>2026-04-11T15:38:22.984Z</time></trkpt><trkpt lat="44.211095091739594" lon="9.97764810908025"><ele>81.0</ele><time>2026-04-11T15:38:23.984Z</time></trkpt><trkpt lat="44.21124597510933" lon="9.977584773549971"><ele>81.0</ele><time>2026-04-11T15:38:24.984Z</time></trkpt><trkpt lat="44.21143601861515" lon="9.977567791317044"><ele>81.0</ele><time>2026-04-11T15:38:25.984Z</time></trkpt><trkpt lat="44.211612708312025" lon="9.977608967786992"><ele>81.0</ele><time>2026-04-11T15:38:26.984Z</time></trkpt><trkpt lat="44.211777126318566" lon="9.977681246797308"><ele>78.66666666666667</ele><time>2026-04-11T15:38:27.984Z</time></trkpt><trkpt lat="44.21194906839461" lon="9.977732091812753"><ele>76.33333333333334</ele><time>2026-04-11T15:38:28.984Z</time></trkpt><trkpt lat="44.21213986656828" lon="9.97773448094115"><ele>74.0</ele><time>2026-04-11T15:38:29.984Z</time></trkpt><trkpt lat="44.21236217995994" lon="9.977713757577618"><ele>72.66666666666667</ele><time>2026-04-11T15:38:30.981Z</time></trkpt><trkpt lat="44.21258607035565" lon="9.977703396117906"><ele>71.33333333333333</ele><time>2026-04-11T15:38:31.981Z</time></trkpt><trkpt lat="44.21280953413391" lon="9.977695549640597"><ele>70.0</ele><time>2026-04-11T15:38:32.981Z</time></trkpt><trkpt lat="44.21303364025501" lon="9.977697779925128"><ele>68.0</ele><time>2026-04-11T15:38:33.98Z</time></trkpt><trkpt lat="44.21327174570134" lon="9.977693388554103"><ele>66.0</ele><time>2026-04-11T15:38:34.98Z</time></trkpt><trkpt lat="44.21350648640462" lon="9.977696218963287"><ele>66.0</ele><time>2026-04-11T15:38:35.98Z</time></trkpt><trkpt lat="44.21370128470605" lon="9.977683492344037"><ele>66.0</ele><time>2026-04-11T15:38:36.981Z</time></trkpt><trkpt lat="44.213869123248145" lon="9.977635789909659"><ele>66.0</ele><time>2026-04-11T15:38:37.98Z</time></trkpt><trkpt lat="44.21404142967476" lon="9.97755559639476"><ele>66.66666666666667</ele><time>2026-04-11T15:38:38.98Z</time></trkpt><trkpt lat="44.214219939929414" lon="9.97747408238128"><ele>67.33333333333334</ele><time>2026-04-11T15:38:39.98Z</time></trkpt><trkpt lat="44.21442158735946" lon="9.977404215476861"><ele>68.0</ele><time>2026-04-11T15:38:40.981Z</time></trkpt><trkpt lat="44.21463663056512" lon="9.977375492841885"><ele>68.0</ele><time>2026-04-11T15:38:41.981Z</time></trkpt><trkpt lat="44.21485275673947" lon="9.97736933030155"><ele>68.0</ele><time>2026-04-11T15:38:42.981Z</time></trkpt><trkpt lat="44.215075170895226" lon="9.977375954336228"><ele>68.0</ele><time>2026-04-11T15:38:43.98Z</time></trkpt><trkpt lat="44.2153035993206" lon="9.977372123488223"><ele>68.0</ele><time>2026-04-11T15:38:44.98Z</time></trkpt><trkpt lat="44.21553088419756" lon="9.9773494757688"><ele>68.0</ele><time>2026-04-11T15:38:45.98Z</time></trkpt><trkpt lat="44.21575145786039" lon="9.977311391899745"><ele>68.66666666666667</ele><time>2026-04-11T15:38:46.98Z</time></trkpt><trkpt lat="44.21595867025285" lon="9.977262758554653"><ele>69.33333333333333</ele><time>2026-04-11T15:38:47.98Z</time></trkpt><trkpt lat="44.21615812209087" lon="9.977204248716944"><ele>70.0</ele><time>2026-04-11T15:38:48.98Z</time></trkpt><trkpt lat="44.2163539627257" lon="9.977141069198542"><ele>70.66666666666666</ele><time>2026-04-11T15:38:49.98Z</time></trkpt><trkpt lat="44.2165381227186" lon="9.977083246515749"><ele>71.33333333333333</ele><time>2026-04-11T15:38:50.98Z</time></trkpt><trkpt lat="44.21671462043397" lon="9.97702734361361"><ele>72.0</ele><time>2026-04-11T15:38:51.98Z</time></trkpt><trkpt lat="44.21688318125611" lon="9.97696893577805"><ele>72.0</ele><time>2026-04-11T15:38:52.981Z</time></trkpt><trkpt lat="44.21703482219664" lon="9.976919483719874"><ele>72.0</ele><time>2026-04-11T15:38:53.981Z</time></trkpt><trkpt lat="44.21717758735127" lon="9.976877059964224"><ele>72.0</ele><time>2026-04-11T15:38:54.981Z</time></trkpt><trkpt lat="44.217308640516315" lon="9.976837187995349"><ele>72.0</ele><time>2026-04-11T15:38:55.981Z</time></trkpt><trkpt lat="44.21743329250932" lon="9.976799803222328"><ele>72.0</ele><time>2026-04-11T15:38:56.981Z</time></trkpt><trkpt lat="44.21756254916673" lon="9.97676058097473"><ele>72.0</ele><time>2026-04-11T15:38:57.981Z</time></trkpt><trkpt lat="44.21768880241976" lon="9.976719911581162"><ele>72.0</ele><time>2026-04-11T15:38:58.981Z</time></trkpt><trkpt lat="44.21781169110836" lon="9.976680995861972"><ele>72.0</ele><time>2026-04-11T15:38:59.981Z</time></trkpt><trkpt lat="44.2179354974366" lon="9.976639175712476"><ele>73.0</ele><time>2026-04-11T15:39:00.981Z</time></trkpt><trkpt lat="44.21806159932502" lon="9.976595287882065"><ele>74.0</ele><time>2026-04-11T15:39:01.981Z</time></trkpt><trkpt lat="44.21818753783398" lon="9.976554945403088"><ele>75.0</ele><time>2026-04-11T15:39:02.981Z</time></trkpt><trkpt lat="44.218314760101826" lon="9.97651544291304"><ele>76.0</ele><time>2026-04-11T15:39:03.981Z</time></trkpt><trkpt lat="44.21843043182295" lon="9.976481956864024"><ele>76.39999999999999</ele><time>2026-04-11T15:39:04.981Z</time></trkpt><trkpt lat="44.21853858569416" lon="9.976450830759854"><ele>76.8</ele><time>2026-04-11T15:39:05.981Z</time></trkpt><trkpt lat="44.21864032910783" lon="9.976420141926603"><ele>77.19999999999999</ele><time>2026-04-11T15:39:06.981Z</time></trkpt><trkpt lat="44.218748095492046" lon="9.976382250403745"><ele>77.6</ele><time>2026-04-11T15:39:07.981Z</time></trkpt><trkpt lat="44.21885726567453" lon="9.97634320891739"><ele>78.0</ele><time>2026-04-11T15:39:08.981Z</time></trkpt><trkpt lat="44.218963224170146" lon="9.976305572967954"><ele>78.2</ele><time>2026-04-11T15:39:09.981Z</time></trkpt><trkpt lat="44.219068151715504" lon="9.976268866348741"><ele>78.4</ele><time>2026-04-11T15:39:10.981Z</time></trkpt><trkpt lat="44.21917420384301" lon="9.976234903425766"><ele>78.60000000000001</ele><time>2026-04-11T15:39:11.981Z</time></trkpt><trkpt lat="44.21928136625479" lon="9.976198919290011"><ele>78.8</ele><time>2026-04-11T15:39:12.981Z</time></trkpt><trkpt lat="44.21938898074461" lon="9.976162657744718"><ele>79.0</ele><time>2026-04-11T15:39:13.981Z</time></trkpt><trkpt lat="44.219500997512" lon="9.976128153637479"><ele>79.0</ele><time>2026-04-11T15:39:14.981Z</time></trkpt><trkpt lat="44.21960908304713" lon="9.97609708368462"><ele>79.0</ele><time>2026-04-11T15:39:15.981Z</time></trkpt><trkpt lat="44.21971976423321" lon="9.976066569108495"><ele>79.0</ele><time>2026-04-11T15:39:16.981Z</time></trkpt><trkpt lat="44.2198303157039" lon="9.976034550063472"><ele>79.0</ele><time>2026-04-11T15:39:17.981Z</time></trkpt><trkpt lat="44.21994176787389" lon="9.976003902852701"><ele>76.5</ele><time>2026-04-11T15:39:18.981Z</time></trkpt><trkpt lat="44.22005478785587" lon="9.975972237834922"><ele>74.0</ele><time>2026-04-11T15:39:19.981Z</time></trkpt><trkpt lat="44.220179200733355" lon="9.975933857012803"><ele>71.5</ele><time>2026-04-11T15:39:20.981Z</time></trkpt><trkpt lat="44.22033448118665" lon="9.975891700257062"><ele>69.0</ele><time>2026-04-11T15:39:21.981Z</time></trkpt><trkpt lat="44.22052816917366" lon="9.975862141351307"><ele>69.0</ele><time>2026-04-11T15:39:22.981Z</time></trkpt><trkpt lat="44.22072929858417" lon="9.975833572251437"><ele>69.0</ele><time>2026-04-11T15:39:23.981Z</time></trkpt><trkpt lat="44.22093846022773" lon="9.975806213711142"><ele>69.0</ele><time>2026-04-11T15:39:24.981Z</time></trkpt><trkpt lat="44.22117710693112" lon="9.97577129881856"><ele>69.0</ele><time>2026-04-11T15:39:25.981Z</time></trkpt><trkpt lat="44.221423153734" lon="9.975721090225578"><ele>69.0</ele><time>2026-04-11T15:39:26.981Z</time></trkpt><trkpt lat="44.221645612463504" lon="9.975645529850691"><ele>73.0</ele><time>2026-04-11T15:39:27.981Z</time></trkpt><trkpt lat="44.22187048954139" lon="9.975540568619136"><ele>77.0</ele><time>2026-04-11T15:39:28.981Z</time></trkpt><trkpt lat="44.2220916212542" lon="9.975429069321066"><ele>79.5</ele><time>2026-04-11T15:39:29.981Z</time></trkpt><trkpt lat="44.22231648639508" lon="9.975311597291114"><ele>82.0</ele><time>2026-04-11T15:39:30.981Z</time></trkpt><trkpt lat="44.22254534712352" lon="9.97518686157561"><ele>82.0</ele><time>2026-04-11T15:39:31.981Z</time></trkpt><trkpt lat="44.2227698919844" lon="9.975064667871422"><ele>82.0</ele><time>2026-04-11T15:39:32.981Z</time></trkpt><trkpt lat="44.22299030056478" lon="9.974939022329389"><ele>77.0</ele><time>2026-04-11T15:39:33.981Z</time></trkpt><trkpt lat="44.223197868433054" lon="9.97482093734303"><ele>72.0</ele><time>2026-04-11T15:39:34.981Z</time></trkpt><trkpt lat="44.22339249661141" lon="9.974708079287202"><ele>67.0</ele><time>2026-04-11T15:39:35.981Z</time></trkpt><trkpt lat="44.223573386688315" lon="9.97460141673784"><ele>67.0</ele><time>2026-04-11T15:39:36.981Z</time></trkpt><trkpt lat="44.223737357381" lon="9.974497087835086"><ele>67.0</ele><time>2026-04-11T15:39:37.981Z</time></trkpt><trkpt lat="44.22387631297419" lon="9.974406710995423"><ele>67.0</ele><time>2026-04-11T15:39:38.981Z</time></trkpt><trkpt lat="44.22399417613421" lon="9.974333104836866"><ele>66.8</ele><time>2026-04-11T15:39:39.981Z</time></trkpt><trkpt lat="44.22409832493365" lon="9.974270075174058"><ele>66.6</ele><time>2026-04-11T15:39:40.981Z</time></trkpt><trkpt lat="44.22418119038418" lon="9.974219675462276"><ele>66.39999999999999</ele><time>2026-04-11T15:39:41.981Z</time></trkpt><trkpt lat="44.22424786457745" lon="9.974184284163137"><ele>66.2</ele><time>2026-04-11T15:39:42.981Z</time></trkpt><trkpt lat="44.22431031932687" lon="9.974151368425986"><ele>66.0</ele><time>2026-04-11T15:39:44.981Z</time></trkpt><trkpt lat="44.22433842725922" lon="9.973984764154169"><ele>66.0</ele><time>2026-04-11T15:40:00.981Z</time></trkpt><trkpt lat="44.224312370264975" lon="9.973869507708914"><ele>66.0</ele><time>2026-04-11T15:40:01.981Z</time></trkpt><trkpt lat="44.22427238430522" lon="9.973726564125768"><ele>66.0</ele><time>2026-04-11T15:40:02.981Z</time></trkpt><trkpt lat="44.224231750039294" lon="9.973571372678943"><ele>66.0</ele><time>2026-04-11T15:40:03.981Z</time></trkpt><trkpt lat="44.22418965914084" lon="9.973394318133359"><ele>66.0</ele><time>2026-04-11T15:40:04.981Z</time></trkpt><trkpt lat="44.22414672345012" lon="9.973198712066642"><ele>65.33333333333333</ele><time>2026-04-11T15:40:05.981Z</time></trkpt><trkpt lat="44.2240961285844" lon="9.972963977376324"><ele>64.66666666666666</ele><time>2026-04-11T15:40:06.981Z</time></trkpt><trkpt lat="44.224039954951714" lon="9.972720817653602"><ele>64.0</ele><time>2026-04-11T15:40:07.981Z</time></trkpt><trkpt lat="44.22397529113593" lon="9.972451300948805"><ele>64.0</ele><time>2026-04-11T15:40:08.981Z</time></trkpt><trkpt lat="44.22391006214092" lon="9.972180251372867"><ele>64.0</ele><time>2026-04-11T15:40:09.981Z</time></trkpt><trkpt lat="44.22385037601481" lon="9.971918260837812"><ele>64.0</ele><time>2026-04-11T15:40:10.981Z</time></trkpt><trkpt lat="44.223791246079664" lon="9.971654973883451"><ele>64.0</ele><time>2026-04-11T15:40:11.981Z</time></trkpt><trkpt lat="44.22373048462621" lon="9.971398260587607"><ele>64.0</ele><time>2026-04-11T15:40:12.981Z</time></trkpt><trkpt lat="44.22367267154009" lon="9.97114242812117"><ele>64.0</ele><time>2026-04-11T15:40:13.981Z</time></trkpt><trkpt lat="44.22361100387811" lon="9.970905942616424"><ele>64.66666666666666</ele><time>2026-04-11T15:40:14.981Z</time></trkpt><trkpt lat="44.22355627173439" lon="9.970688832058105"><ele>65.33333333333333</ele><time>2026-04-11T15:40:15.981Z</time></trkpt><trkpt lat="44.223506568970514" lon="9.970489253816327"><ele>66.0</ele><time>2026-04-11T15:40:16.981Z</time></trkpt><trkpt lat="44.22346103025798" lon="9.970303358396391"><ele>66.0</ele><time>2026-04-11T15:40:17.981Z</time></trkpt><trkpt lat="44.223420396505475" lon="9.970139401636404"><ele>66.0</ele><time>2026-04-11T15:40:18.981Z</time></trkpt><trkpt lat="44.22338647512992" lon="9.970006169216171"><ele>66.0</ele><time>2026-04-11T15:40:19.981Z</time></trkpt><trkpt lat="44.22336238013478" lon="9.969901825498713"><ele>66.0</ele><time>2026-04-11T15:40:20.981Z</time></trkpt><trkpt lat="44.22334394794909" lon="9.969778247475595"><ele>66.0</ele><time>2026-04-11T15:40:22.981Z</time></trkpt><trkpt lat="44.22340908760723" lon="9.969659179394567"><ele>66.2</ele><time>2026-04-11T15:40:29.981Z</time></trkpt><trkpt lat="44.223491981701294" lon="9.969622205046903"><ele>66.39999999999999</ele><time>2026-04-11T15:40:30.981Z</time></trkpt><trkpt lat="44.22358227218039" lon="9.969582177952374"><ele>66.6</ele><time>2026-04-11T15:40:31.981Z</time></trkpt><trkpt lat="44.22368728949767" lon="9.969529624936484"><ele>66.8</ele><time>2026-04-11T15:40:32.981Z</time></trkpt><trkpt lat="44.2238027085255" lon="9.969472886826491"><ele>67.0</ele><time>2026-04-11T15:40:33.981Z</time></trkpt><trkpt lat="44.22392699952876" lon="9.969409535940505"><ele>66.75</ele><time>2026-04-11T15:40:34.981Z</time></trkpt><trkpt lat="44.2240529210048" lon="9.969344039217614"><ele>66.5</ele><time>2026-04-11T15:40:35.981Z</time></trkpt><trkpt lat="44.224170719910525" lon="9.969284121431816"><ele>66.25</ele><time>2026-04-11T15:40:36.978Z</time></trkpt><trkpt lat="44.22427613929074" lon="9.96923101165463"><ele>66.0</ele><time>2026-04-11T15:40:37.979Z</time></trkpt><trkpt lat="44.22437884315085" lon="9.96917587294538"><ele>66.0</ele><time>2026-04-11T15:40:38.979Z</time></trkpt><trkpt lat="44.22448550254734" lon="9.969115805976697"><ele>66.0</ele><time>2026-04-11T15:40:39.979Z</time></trkpt><trkpt lat="44.22458965571397" lon="9.96904735207455"><ele>66.0</ele><time>2026-04-11T15:40:40.978Z</time></trkpt><trkpt lat="44.22469769494454" lon="9.968976673698336"><ele>66.0</ele><time>2026-04-11T15:40:41.978Z</time></trkpt><trkpt lat="44.22480282338392" lon="9.968907278743437"><ele>66.25</ele><time>2026-04-11T15:40:42.978Z</time></trkpt><trkpt lat="44.224899293665324" lon="9.968838519660764"><ele>66.5</ele><time>2026-04-11T15:40:43.979Z</time></trkpt><trkpt lat="44.22499910791758" lon="9.96875873450239"><ele>66.75</ele><time>2026-04-11T15:40:44.979Z</time></trkpt><trkpt lat="44.22509782425254" lon="9.968676574350068"><ele>67.0</ele><time>2026-04-11T15:40:45.978Z</time></trkpt><trkpt lat="44.22519915037327" lon="9.968590017538508"><ele>67.0</ele><time>2026-04-11T15:40:46.979Z</time></trkpt><trkpt lat="44.225299292502896" lon="9.968504496405366"><ele>67.0</ele><time>2026-04-11T15:40:47.979Z</time></trkpt><trkpt lat="44.22539834087753" lon="9.968416550280569"><ele>67.0</ele><time>2026-04-11T15:40:48.979Z</time></trkpt><trkpt lat="44.22549067340436" lon="9.968330557594518"><ele>67.0</ele><time>2026-04-11T15:40:49.979Z</time></trkpt><trkpt lat="44.22557854355969" lon="9.968248986548621"><ele>67.0</ele><time>2026-04-11T15:40:50.979Z</time></trkpt><trkpt lat="44.22566277448341" lon="9.968166187292878"><ele>67.0</ele><time>2026-04-11T15:40:51.979Z</time></trkpt><trkpt lat="44.22574366723421" lon="9.96808330244831"><ele>67.0</ele><time>2026-04-11T15:40:52.979Z</time></trkpt><trkpt lat="44.225821384899646" lon="9.96798925009737"><ele>67.0</ele><time>2026-04-11T15:40:53.979Z</time></trkpt><trkpt lat="44.22589983781044" lon="9.967889500409564"><ele>67.0</ele><time>2026-04-11T15:40:54.979Z</time></trkpt><trkpt lat="44.22598001176336" lon="9.967784045351314"><ele>67.0</ele><time>2026-04-11T15:40:55.979Z</time></trkpt><trkpt lat="44.22605214540215" lon="9.967684548796473"><ele>67.0</ele><time>2026-04-11T15:40:56.979Z</time></trkpt><trkpt lat="44.22611841722395" lon="9.967593896803585"><ele>67.0</ele><time>2026-04-11T15:40:57.979Z</time></trkpt><trkpt lat="44.22618013895166" lon="9.967503384032604"><ele>67.0</ele><time>2026-04-11T15:40:58.979Z</time></trkpt><trkpt lat="44.22623931358224" lon="9.96741300824851"><ele>67.0</ele><time>2026-04-11T15:40:59.979Z</time></trkpt><trkpt lat="44.22631099829372" lon="9.96730271676656"><ele>66.75</ele><time>2026-04-11T15:41:00.979Z</time></trkpt><trkpt lat="44.22639202388671" lon="9.967175801608382"><ele>66.5</ele><time>2026-04-11T15:41:01.979Z</time></trkpt><trkpt lat="44.22647637309716" lon="9.967041357622925"><ele>66.25</ele><time>2026-04-11T15:41:02.979Z</time></trkpt><trkpt lat="44.226569863754115" lon="9.966892361537301"><ele>66.0</ele><time>2026-04-11T15:41:03.979Z</time></trkpt><trkpt lat="44.22666664442897" lon="9.9667291763709"><ele>65.33333333333333</ele><time>2026-04-11T15:41:04.979Z</time></trkpt><trkpt lat="44.226765956745076" lon="9.96655988126418"><ele>64.66666666666666</ele><time>2026-04-11T15:41:05.979Z</time></trkpt><trkpt lat="44.22686541862916" lon="9.966393364695994"><ele>64.0</ele><time>2026-04-11T15:41:06.979Z</time></trkpt><trkpt lat="44.226966346994814" lon="9.966234802366856"><ele>64.0</ele><time>2026-04-11T15:41:07.979Z</time></trkpt><trkpt lat="44.227076539254355" lon="9.966089012648014"><ele>64.0</ele><time>2026-04-11T15:41:08.979Z</time></trkpt><trkpt lat="44.227198676224944" lon="9.96595997041261"><ele>64.0</ele><time>2026-04-11T15:41:09.979Z</time></trkpt><trkpt lat="44.22733846356382" lon="9.965864003053385"><ele>64.66666666666666</ele><time>2026-04-11T15:41:10.979Z</time></trkpt><trkpt lat="44.22748769327234" lon="9.96579119698164"><ele>65.33333333333333</ele><time>2026-04-11T15:41:11.979Z</time></trkpt><trkpt lat="44.227640925040234" lon="9.965726338263778"><ele>66.0</ele><time>2026-04-11T15:41:12.979Z</time></trkpt><trkpt lat="44.22780527485437" lon="9.965663684107426"><ele>66.0</ele><time>2026-04-11T15:41:13.979Z</time></trkpt><trkpt lat="44.22797757018959" lon="9.965600197267646"><ele>66.0</ele><time>2026-04-11T15:41:14.979Z</time></trkpt><trkpt lat="44.228151907337605" lon="9.965533026487558"><ele>66.0</ele><time>2026-04-11T15:41:15.979Z</time></trkpt><trkpt lat="44.2283229405316" lon="9.965467364927038"><ele>66.33333333333333</ele><time>2026-04-11T15:41:16.979Z</time></trkpt><trkpt lat="44.22849066898029" lon="9.965403170056748"><ele>66.66666666666666</ele><time>2026-04-11T15:41:17.979Z</time></trkpt><trkpt lat="44.228653139071355" lon="9.965342712681768"><ele>67.0</ele><time>2026-04-11T15:41:18.979Z</time></trkpt><trkpt lat="44.22881474995858" lon="9.96527624358464"><ele>67.0</ele><time>2026-04-11T15:41:19.979Z</time></trkpt><trkpt lat="44.22896704308441" lon="9.965221514461245"><ele>67.0</ele><time>2026-04-11T15:41:20.979Z</time></trkpt><trkpt lat="44.22911609846888" lon="9.965166452421787"><ele>67.0</ele><time>2026-04-11T15:41:21.979Z</time></trkpt><trkpt lat="44.2292638740548" lon="9.965110966207375"><ele>67.0</ele><time>2026-04-11T15:41:22.979Z</time></trkpt><trkpt lat="44.229409717015564" lon="9.965058073808684"><ele>67.0</ele><time>2026-04-11T15:41:23.979Z</time></trkpt><trkpt lat="44.22955148470647" lon="9.965007192029734"><ele>67.0</ele><time>2026-04-11T15:41:24.979Z</time></trkpt><trkpt lat="44.22968766489942" lon="9.964958381874897"><ele>67.0</ele><time>2026-04-11T15:41:25.979Z</time></trkpt><trkpt lat="44.22981479855446" lon="9.964916194428987"><ele>68.75</ele><time>2026-04-11T15:41:26.979Z</time></trkpt><trkpt lat="44.22992891463095" lon="9.964874628535382"><ele>70.5</ele><time>2026-04-11T15:41:27.979Z</time></trkpt><trkpt lat="44.230038635326636" lon="9.964835033799195"><ele>72.25</ele><time>2026-04-11T15:41:28.979Z</time></trkpt><trkpt lat="44.23016347887506" lon="9.964778350244602"><ele>74.0</ele><time>2026-04-11T15:41:29.979Z</time></trkpt><trkpt lat="44.230296755560246" lon="9.9646979341532"><ele>74.0</ele><time>2026-04-11T15:41:30.979Z</time></trkpt><trkpt lat="44.23042072660544" lon="9.964592276641012"><ele>74.0</ele><time>2026-04-11T15:41:31.979Z</time></trkpt><trkpt lat="44.230540944466576" lon="9.964451083646795"><ele>74.0</ele><time>2026-04-11T15:41:32.979Z</time></trkpt><trkpt lat="44.23063794711409" lon="9.964279151784158"><ele>75.0</ele><time>2026-04-11T15:41:33.979Z</time></trkpt><trkpt lat="44.230721336352644" lon="9.964076426687276"><ele>76.0</ele><time>2026-04-11T15:41:34.979Z</time></trkpt><trkpt lat="44.230784846724816" lon="9.963867494377658"><ele>77.0</ele><time>2026-04-11T15:41:35.979Z</time></trkpt><trkpt lat="44.23082435239738" lon="9.963633433057984"><ele>77.0</ele><time>2026-04-11T15:41:36.979Z</time></trkpt><trkpt lat="44.230861350057296" lon="9.96339536191395"><ele>77.0</ele><time>2026-04-11T15:41:37.979Z</time></trkpt><trkpt lat="44.230903280823306" lon="9.963154772200063"><ele>77.0</ele><time>2026-04-11T15:41:38.979Z</time></trkpt><trkpt lat="44.23093569139883" lon="9.962923932543369"><ele>76.0</ele><time>2026-04-11T15:41:39.979Z</time></trkpt><trkpt lat="44.23097545100713" lon="9.96269441891393"><ele>75.0</ele><time>2026-04-11T15:41:40.979Z</time></trkpt><trkpt lat="44.23101465007714" lon="9.962472990506624"><ele>74.0</ele><time>2026-04-11T15:41:41.979Z</time></trkpt><trkpt lat="44.23105287977049" lon="9.962254817584592"><ele>73.66666666666667</ele><time>2026-04-11T15:41:42.979Z</time></trkpt><trkpt lat="44.23109434494193" lon="9.962042292139095"><ele>73.33333333333333</ele><time>2026-04-11T15:41:43.979Z</time></trkpt><trkpt lat="44.231153921302585" lon="9.961828902749154"><ele>73.0</ele><time>2026-04-11T15:41:44.979Z</time></trkpt><trkpt lat="44.23123538565345" lon="9.961618560241396"><ele>73.0</ele><time>2026-04-11T15:41:45.979Z</time></trkpt><trkpt lat="44.231329618837904" lon="9.961421330348896"><ele>73.0</ele><time>2026-04-11T15:41:46.979Z</time></trkpt><trkpt lat="44.23143869346969" lon="9.961243764595542"><ele>73.0</ele><time>2026-04-11T15:41:47.979Z</time></trkpt><trkpt lat="44.23156027293121" lon="9.96109067277196"><ele>73.66666666666666</ele><time>2026-04-11T15:41:48.979Z</time></trkpt><trkpt lat="44.231697408023415" lon="9.96094947199147"><ele>74.33333333333333</ele><time>2026-04-11T15:41:49.979Z</time></trkpt><trkpt lat="44.231846982868596" lon="9.960832191174875"><ele>75.0</ele><time>2026-04-11T15:41:50.979Z</time></trkpt><trkpt lat="44.23200410080913" lon="9.96072640824677"><ele>75.0</ele><time>2026-04-11T15:41:51.979Z</time></trkpt><trkpt lat="44.232155148857125" lon="9.960642868601216"><ele>75.0</ele><time>2026-04-11T15:41:52.979Z</time></trkpt><trkpt lat="44.232304974058216" lon="9.960587280862141"><ele>75.0</ele><time>2026-04-11T15:41:53.979Z</time></trkpt><trkpt lat="44.23245381144621" lon="9.960560515804413"><ele>76.66666666666667</ele><time>2026-04-11T15:41:54.979Z</time></trkpt><trkpt lat="44.232606643616606" lon="9.960537502460452"><ele>78.33333333333334</ele><time>2026-04-11T15:41:55.979Z</time></trkpt><trkpt lat="44.23277385426859" lon="9.96052003470259"><ele>80.0</ele><time>2026-04-11T15:41:56.979Z</time></trkpt><trkpt lat="44.232967547022795" lon="9.960480999289896"><ele>82.0</ele><time>2026-04-11T15:41:57.979Z</time></trkpt><trkpt lat="44.23318691645932" lon="9.960440775664559"><ele>84.0</ele><time>2026-04-11T15:41:58.979Z</time></trkpt><trkpt lat="44.23341999511046" lon="9.960409868319072"><ele>84.0</ele><time>2026-04-11T15:41:59.979Z</time></trkpt><trkpt lat="44.23365137929174" lon="9.960397686009975"><ele>84.0</ele><time>2026-04-11T15:42:00.979Z</time></trkpt><trkpt lat="44.23388367193906" lon="9.960383206979548"><ele>86.5</ele><time>2026-04-11T15:42:01.979Z</time></trkpt><trkpt lat="44.23411280418361" lon="9.960362880345803"><ele>89.0</ele><time>2026-04-11T15:42:02.979Z</time></trkpt><trkpt lat="44.23433571314121" lon="9.960338727501725"><ele>89.0</ele><time>2026-04-11T15:42:03.979Z</time></trkpt><trkpt lat="44.2345591471016" lon="9.960315986439245"><ele>89.0</ele><time>2026-04-11T15:42:04.979Z</time></trkpt><trkpt lat="44.234782865042625" lon="9.960291618144064"><ele>89.0</ele><time>2026-04-11T15:42:05.979Z</time></trkpt><trkpt lat="44.23501299507976" lon="9.960267054037908"><ele>90.0</ele><time>2026-04-11T15:42:06.979Z</time></trkpt><trkpt lat="44.2352420475134" lon="9.960236730955092"><ele>91.0</ele><time>2026-04-11T15:42:07.979Z</time></trkpt><trkpt lat="44.23546923714791" lon="9.960208163813906"><ele>92.66666666666666</ele><time>2026-04-11T15:42:08.979Z</time></trkpt><trkpt lat="44.23568838507043" lon="9.960179172747361"><ele>94.33333333333333</ele><time>2026-04-11T15:42:09.979Z</time></trkpt><trkpt lat="44.23590823515808" lon="9.96015618580452"><ele>96.0</ele><time>2026-04-11T15:42:10.979Z</time></trkpt><trkpt lat="44.2361221333581" lon="9.960134152321872"><ele>96.0</ele><time>2026-04-11T15:42:11.979Z</time></trkpt><trkpt lat="44.23634379899655" lon="9.960105331106474"><ele>96.0</ele><time>2026-04-11T15:42:12.979Z</time></trkpt><trkpt lat="44.23655528288315" lon="9.96008297294714"><ele>96.0</ele><time>2026-04-11T15:42:13.979Z</time></trkpt><trkpt lat="44.23676434264224" lon="9.960060274251891"><ele>91.33333333333333</ele><time>2026-04-11T15:42:14.979Z</time></trkpt><trkpt lat="44.23697338368863" lon="9.960032744527208"><ele>86.66666666666666</ele><time>2026-04-11T15:42:15.979Z</time></trkpt><trkpt lat="44.2371764392847" lon="9.960005221133345"><ele>82.0</ele><time>2026-04-11T15:42:16.979Z</time></trkpt><trkpt lat="44.237378030341254" lon="9.959980187561808"><ele>81.66666666666666</ele><time>2026-04-11T15:42:17.979Z</time></trkpt><trkpt lat="44.23757906548973" lon="9.959959589422908"><ele>81.33333333333333</ele><time>2026-04-11T15:42:18.979Z</time></trkpt><trkpt lat="44.23777109674433" lon="9.959936348902062"><ele>81.0</ele><time>2026-04-11T15:42:19.979Z</time></trkpt><trkpt lat="44.23796358946815" lon="9.959914601770597"><ele>81.33333333333333</ele><time>2026-04-11T15:42:20.979Z</time></trkpt><trkpt lat="44.238139824926925" lon="9.95989437768694"><ele>81.66666666666666</ele><time>2026-04-11T15:42:21.979Z</time></trkpt><trkpt lat="44.2383049350097" lon="9.959878399603964"><ele>82.0</ele><time>2026-04-11T15:42:22.979Z</time></trkpt><trkpt lat="44.23846761432344" lon="9.959866060018369"><ele>82.0</ele><time>2026-04-11T15:42:23.979Z</time></trkpt><trkpt lat="44.2386363213258" lon="9.959845032243459"><ele>82.0</ele><time>2026-04-11T15:42:24.979Z</time></trkpt><trkpt lat="44.23882019957029" lon="9.959809499848552"><ele>82.0</ele><time>2026-04-11T15:42:25.979Z</time></trkpt><trkpt lat="44.23904034929865" lon="9.959769040120948"><ele>82.0</ele><time>2026-04-11T15:42:26.979Z</time></trkpt><trkpt lat="44.23928085477665" lon="9.95973531631056"><ele>82.0</ele><time>2026-04-11T15:42:27.979Z</time></trkpt><trkpt lat="44.2395332421932" lon="9.959715087695518"><ele>82.0</ele><time>2026-04-11T15:42:28.979Z</time></trkpt><trkpt lat="44.2397738303541" lon="9.959695834423552"><ele>82.0</ele><time>2026-04-11T15:42:29.979Z</time></trkpt><trkpt lat="44.240006844456914" lon="9.959669935469604"><ele>82.66666666666666</ele><time>2026-04-11T15:42:30.979Z</time></trkpt><trkpt lat="44.24022673321681" lon="9.959642116785396"><ele>83.33333333333333</ele><time>2026-04-11T15:42:31.979Z</time></trkpt><trkpt lat="44.240438583708354" lon="9.959616238868302"><ele>84.0</ele><time>2026-04-11T15:42:32.979Z</time></trkpt><trkpt lat="44.240648943279595" lon="9.959593275618007"><ele>85.0</ele><time>2026-04-11T15:42:33.979Z</time></trkpt><trkpt lat="44.24085534733011" lon="9.959567067222604"><ele>86.0</ele><time>2026-04-11T15:42:34.979Z</time></trkpt><trkpt lat="44.24105316593385" lon="9.959541924190109"><ele>87.0</ele><time>2026-04-11T15:42:35.979Z</time></trkpt><trkpt lat="44.24124961998537" lon="9.95951631470598"><ele>87.0</ele><time>2026-04-11T15:42:36.979Z</time></trkpt><trkpt lat="44.241447424058634" lon="9.959492007538014"><ele>87.0</ele><time>2026-04-11T15:42:37.979Z</time></trkpt><trkpt lat="44.241644031747654" lon="9.959468316036737"><ele>87.0</ele><time>2026-04-11T15:42:38.979Z</time></trkpt><trkpt lat="44.24183626090811" lon="9.959443277526239"><ele>88.33333333333333</ele><time>2026-04-11T15:42:39.979Z</time></trkpt><trkpt lat="44.24202565722613" lon="9.959413196987573"><ele>89.66666666666666</ele><time>2026-04-11T15:42:40.979Z</time></trkpt><trkpt lat="44.242235370756916" lon="9.95938652686439"><ele>91.0</ele><time>2026-04-11T15:42:41.979Z</time></trkpt><trkpt lat="44.24243710483434" lon="9.959358354844975"><ele>92.66666666666666</ele><time>2026-04-11T15:42:42.977Z</time></trkpt><trkpt lat="44.242625203663245" lon="9.959335237215157"><ele>94.33333333333333</ele><time>2026-04-11T15:42:43.976Z</time></trkpt><trkpt lat="44.24279467204959" lon="9.959314609596413"><ele>96.0</ele><time>2026-04-11T15:42:44.976Z</time></trkpt><trkpt lat="44.24295239403979" lon="9.959296652960198"><ele>96.0</ele><time>2026-04-11T15:42:45.976Z</time></trkpt><trkpt lat="44.243094660177526" lon="9.959294093862573"><ele>96.0</ele><time>2026-04-11T15:42:46.976Z</time></trkpt><trkpt lat="44.24324263128341" lon="9.959334370295187"><ele>96.0</ele><time>2026-04-11T15:42:47.976Z</time></trkpt><trkpt lat="44.243377879245905" lon="9.959438231578144"><ele>96.0</ele><time>2026-04-11T15:42:48.976Z</time></trkpt><trkpt lat="44.243511140855944" lon="9.959595053193754"><ele>96.33333333333334</ele><time>2026-04-11T15:42:49.976Z</time></trkpt><trkpt lat="44.24364303688436" lon="9.95975283679088"><ele>96.66666666666667</ele><time>2026-04-11T15:42:50.976Z</time></trkpt><trkpt lat="44.243774831883364" lon="9.959897744299054"><ele>97.0</ele><time>2026-04-11T15:42:51.976Z</time></trkpt><trkpt lat="44.24391275911248" lon="9.960038754463417"><ele>97.33333333333334</ele><time>2026-04-11T15:42:52.976Z</time></trkpt><trkpt lat="44.2440415885959" lon="9.960181325619683"><ele>97.66666666666666</ele><time>2026-04-11T15:42:53.976Z</time></trkpt><trkpt lat="44.24417299474889" lon="9.960315656297011"><ele>98.0</ele><time>2026-04-11T15:42:54.976Z</time></trkpt><trkpt lat="44.24428843327929" lon="9.96044810282573"><ele>98.0</ele><time>2026-04-11T15:42:55.976Z</time></trkpt><trkpt lat="44.244403771198606" lon="9.960577473684424"><ele>98.0</ele><time>2026-04-11T15:42:56.976Z</time></trkpt><trkpt lat="44.24453043651744" lon="9.960683167557926"><ele>98.0</ele><time>2026-04-11T15:42:57.976Z</time></trkpt><trkpt lat="44.244677415925366" lon="9.960737818727422"><ele>98.0</ele><time>2026-04-11T15:42:58.976Z</time></trkpt><trkpt lat="44.24482409072662" lon="9.960742324969166"><ele>95.33333333333333</ele><time>2026-04-11T15:42:59.976Z</time></trkpt><trkpt lat="44.24498419995638" lon="9.960720050340091"><ele>92.66666666666666</ele><time>2026-04-11T15:43:00.976Z</time></trkpt><trkpt lat="44.245141569250826" lon="9.960681563563673"><ele>90.0</ele><time>2026-04-11T15:43:01.976Z</time></trkpt><trkpt lat="44.24530228327191" lon="9.960647533347773"><ele>90.0</ele><time>2026-04-11T15:43:02.976Z</time></trkpt><trkpt lat="44.24545694415844" lon="9.960616529752958"><ele>90.0</ele><time>2026-04-11T15:43:03.976Z</time></trkpt><trkpt lat="44.245608082678686" lon="9.960609411835348"><ele>90.0</ele><time>2026-04-11T15:43:04.976Z</time></trkpt><trkpt lat="44.2457547763675" lon="9.960619307118993"><ele>90.0</ele><time>2026-04-11T15:43:05.976Z</time></trkpt><trkpt lat="44.245901783192494" lon="9.960636841568265"><ele>90.0</ele><time>2026-04-11T15:43:06.976Z</time></trkpt><trkpt lat="44.24603851930037" lon="9.960631137118677"><ele>90.0</ele><time>2026-04-11T15:43:07.976Z</time></trkpt><trkpt lat="44.24616939976698" lon="9.960563620765038"><ele>90.0</ele><time>2026-04-11T15:43:08.976Z</time></trkpt><trkpt lat="44.24628692648017" lon="9.960458405946726"><ele>90.0</ele><time>2026-04-11T15:43:09.976Z</time></trkpt><trkpt lat="44.246392250733635" lon="9.960325685485827"><ele>90.0</ele><time>2026-04-11T15:43:10.976Z</time></trkpt><trkpt lat="44.24647217563493" lon="9.960161196300024"><ele>90.0</ele><time>2026-04-11T15:43:11.976Z</time></trkpt><trkpt lat="44.24652580571401" lon="9.959962847870008"><ele>90.0</ele><time>2026-04-11T15:43:12.976Z</time></trkpt><trkpt lat="44.24656555493226" lon="9.959753283062307"><ele>90.0</ele><time>2026-04-11T15:43:13.976Z</time></trkpt><trkpt lat="44.24660257678944" lon="9.959532262714534"><ele>90.0</ele><time>2026-04-11T15:43:14.976Z</time></trkpt><trkpt lat="44.246656119581054" lon="9.959322855945846"><ele>90.0</ele><time>2026-04-11T15:43:15.976Z</time></trkpt><trkpt lat="44.24673634856047" lon="9.95910428352845"><ele>91.33333333333333</ele><time>2026-04-11T15:43:16.976Z</time></trkpt><trkpt lat="44.24685043514382" lon="9.958900338562437"><ele>92.66666666666666</ele><time>2026-04-11T15:43:17.976Z</time></trkpt><trkpt lat="44.24698414185994" lon="9.958723605105124"><ele>94.0</ele><time>2026-04-11T15:43:18.976Z</time></trkpt><trkpt lat="44.24713041740114" lon="9.958582187585344"><ele>94.0</ele><time>2026-04-11T15:43:19.976Z</time></trkpt><trkpt lat="44.247289109190355" lon="9.95844802094116"><ele>94.0</ele><time>2026-04-11T15:43:20.976Z</time></trkpt><trkpt lat="44.24744300740107" lon="9.958271635794935"><ele>94.0</ele><time>2026-04-11T15:43:21.976Z</time></trkpt><trkpt lat="44.24761895887575" lon="9.958066019306957"><ele>97.0</ele><time>2026-04-11T15:43:22.976Z</time></trkpt><trkpt lat="44.24782139723967" lon="9.957850758297667"><ele>100.0</ele><time>2026-04-11T15:43:23.976Z</time></trkpt><trkpt lat="44.24803859153288" lon="9.957633399332332"><ele>100.0</ele><time>2026-04-11T15:43:24.976Z</time></trkpt><trkpt lat="44.24825137497951" lon="9.957428945943422"><ele>100.0</ele><time>2026-04-11T15:43:25.976Z</time></trkpt><trkpt lat="44.248436366170274" lon="9.957253938269067"><ele>100.0</ele><time>2026-04-11T15:43:26.976Z</time></trkpt><trkpt lat="44.248608171528865" lon="9.95709738405228"><ele>100.0</ele><time>2026-04-11T15:43:27.976Z</time></trkpt><trkpt lat="44.24877382457638" lon="9.956937084744027"><ele>100.0</ele><time>2026-04-11T15:43:28.976Z</time></trkpt><trkpt lat="44.24892413173257" lon="9.95678924540658"><ele>102.66666666666667</ele><time>2026-04-11T15:43:29.976Z</time></trkpt><trkpt lat="44.24905914981862" lon="9.956655202914042"><ele>105.33333333333334</ele><time>2026-04-11T15:43:30.976Z</time></trkpt><trkpt lat="44.249190768042105" lon="9.956536814190459"><ele>108.0</ele><time>2026-04-11T15:43:31.976Z</time></trkpt><trkpt lat="44.24932656669499" lon="9.956440450775672"><ele>108.0</ele><time>2026-04-11T15:43:32.977Z</time></trkpt><trkpt lat="44.24945762487967" lon="9.956352689947442"><ele>108.0</ele><time>2026-04-11T15:43:33.977Z</time></trkpt><trkpt lat="44.249586903355045" lon="9.956263682476688"><ele>108.0</ele><time>2026-04-11T15:43:34.977Z</time></trkpt><trkpt lat="44.249707871723054" lon="9.956161196910275"><ele>108.0</ele><time>2026-04-11T15:43:35.977Z</time></trkpt><trkpt lat="44.24982561945469" lon="9.95600532625434"><ele>108.33333333333334</ele><time>2026-04-11T15:43:36.977Z</time></trkpt><trkpt lat="44.24995560685482" lon="9.955812929120471"><ele>108.66666666666667</ele><time>2026-04-11T15:43:37.977Z</time></trkpt><trkpt lat="44.25010635714381" lon="9.955584743116557"><ele>109.0</ele><time>2026-04-11T15:43:38.977Z</time></trkpt><trkpt lat="44.250266759205644" lon="9.95535963471321"><ele>109.0</ele><time>2026-04-11T15:43:39.977Z</time></trkpt><trkpt lat="44.25042000303126" lon="9.955133844138894"><ele>109.0</ele><time>2026-04-11T15:43:40.977Z</time></trkpt><trkpt lat="44.25055501920882" lon="9.95492416642294"><ele>109.0</ele><time>2026-04-11T15:43:41.977Z</time></trkpt><trkpt lat="44.25068135574088" lon="9.954732214727626"><ele>111.66666666666667</ele><time>2026-04-11T15:43:42.977Z</time></trkpt><trkpt lat="44.25081633165124" lon="9.954556766006267"><ele>114.33333333333334</ele><time>2026-04-11T15:43:43.977Z</time></trkpt><trkpt lat="44.25097084717282" lon="9.954395436976325"><ele>117.0</ele><time>2026-04-11T15:43:44.977Z</time></trkpt><trkpt lat="44.25114601450243" lon="9.954265744056677"><ele>118.0</ele><time>2026-04-11T15:43:45.977Z</time></trkpt><trkpt lat="44.25133236348679" lon="9.954157074404343"><ele>119.0</ele><time>2026-04-11T15:43:46.977Z</time></trkpt><trkpt lat="44.25148942421589" lon="9.954047776851457"><ele>120.0</ele><time>2026-04-11T15:43:47.977Z</time></trkpt><trkpt lat="44.251628020153895" lon="9.953958759764673"><ele>120.0</ele><time>2026-04-11T15:43:48.977Z</time></trkpt><trkpt lat="44.25174999583547" lon="9.953890471605074"><ele>120.0</ele><time>2026-04-11T15:43:49.977Z</time></trkpt><trkpt lat="44.25184412857883" lon="9.953853796314911"><ele>120.0</ele><time>2026-04-11T15:43:50.977Z</time></trkpt><trkpt lat="44.25194511829373" lon="9.953848579053457"><ele>120.0</ele><time>2026-04-11T15:43:51.977Z</time></trkpt><trkpt lat="44.252044957918436" lon="9.953904090968265"><ele>120.0</ele><time>2026-04-11T15:43:52.977Z</time></trkpt><trkpt lat="44.25212873829945" lon="9.954032557930903"><ele>123.66666666666666</ele><time>2026-04-11T15:43:53.977Z</time></trkpt><trkpt lat="44.25218094756832" lon="9.954233991856109"><ele>127.33333333333333</ele><time>2026-04-11T15:43:54.977Z</time></trkpt><trkpt lat="44.25219332560347" lon="9.954466477702224"><ele>131.0</ele><time>2026-04-11T15:43:55.977Z</time></trkpt><trkpt lat="44.25218987386892" lon="9.954711206664179"><ele>131.0</ele><time>2026-04-11T15:43:56.977Z</time></trkpt><trkpt lat="44.25219460178862" lon="9.954955426504096"><ele>131.0</ele><time>2026-04-11T15:43:57.977Z</time></trkpt><trkpt lat="44.25223860625561" lon="9.955202806275413"><ele>131.0</ele><time>2026-04-11T15:43:58.977Z</time></trkpt><trkpt lat="44.252310067649056" lon="9.955430371618588"><ele>129.66666666666666</ele><time>2026-04-11T15:43:59.977Z</time></trkpt><trkpt lat="44.25236234138299" lon="9.955639765293892"><ele>128.33333333333334</ele><time>2026-04-11T15:44:00.977Z</time></trkpt><trkpt lat="44.25238438604878" lon="9.955865837085016"><ele>127.0</ele><time>2026-04-11T15:44:01.977Z</time></trkpt><trkpt lat="44.25238967370907" lon="9.956102041613452"><ele>127.0</ele><time>2026-04-11T15:44:02.977Z</time></trkpt><trkpt lat="44.252405233050716" lon="9.956325358287687"><ele>127.0</ele><time>2026-04-11T15:44:03.977Z</time></trkpt><trkpt lat="44.2524555920867" lon="9.95654931759345"><ele>127.0</ele><time>2026-04-11T15:44:04.977Z</time></trkpt><trkpt lat="44.2525549314191" lon="9.956770421210697"><ele>128.66666666666669</ele><time>2026-04-11T15:44:05.977Z</time></trkpt><trkpt lat="44.25266452016491" lon="9.95697736940203"><ele>130.33333333333334</ele><time>2026-04-11T15:44:06.977Z</time></trkpt><trkpt lat="44.25279583840097" lon="9.957176021556407"><ele>132.0</ele><time>2026-04-11T15:44:07.977Z</time></trkpt><trkpt lat="44.25295628032827" lon="9.957349979518018"><ele>132.0</ele><time>2026-04-11T15:44:08.977Z</time></trkpt><trkpt lat="44.25312230564934" lon="9.957528202812789"><ele>132.0</ele><time>2026-04-11T15:44:09.977Z</time></trkpt><trkpt lat="44.253280607362385" lon="9.957713517351033"><ele>132.0</ele><time>2026-04-11T15:44:10.977Z</time></trkpt><trkpt lat="44.253425610315084" lon="9.957881755869424"><ele>131.75</ele><time>2026-04-11T15:44:11.977Z</time></trkpt><trkpt lat="44.2535483189376" lon="9.958025713355719"><ele>131.5</ele><time>2026-04-11T15:44:12.977Z</time></trkpt><trkpt lat="44.25366023799821" lon="9.958139790027897"><ele>131.25</ele><time>2026-04-11T15:44:13.977Z</time></trkpt><trkpt lat="44.25378036436629" lon="9.958196264902398"><ele>131.0</ele><time>2026-04-11T15:44:14.977Z</time></trkpt><trkpt lat="44.25392048407267" lon="9.958195943096637"><ele>133.33333333333331</ele><time>2026-04-11T15:44:15.977Z</time></trkpt><trkpt lat="44.25408258708851" lon="9.958150866998936"><ele>135.66666666666666</ele><time>2026-04-11T15:44:16.977Z</time></trkpt><trkpt lat="44.254242820069926" lon="9.958057491395502"><ele>138.0</ele><time>2026-04-11T15:44:17.977Z</time></trkpt><trkpt lat="44.254386658294436" lon="9.957898183354942"><ele>138.0</ele><time>2026-04-11T15:44:18.977Z</time></trkpt><trkpt lat="44.25454391632794" lon="9.957725412296131"><ele>138.0</ele><time>2026-04-11T15:44:19.977Z</time></trkpt><trkpt lat="44.25472202592004" lon="9.957551625714258"><ele>138.0</ele><time>2026-04-11T15:44:20.977Z</time></trkpt><trkpt lat="44.254924138593445" lon="9.957398066642677"><ele>137.5</ele><time>2026-04-11T15:44:21.977Z</time></trkpt><trkpt lat="44.25514473892018" lon="9.95725123315936"><ele>137.0</ele><time>2026-04-11T15:44:22.977Z</time></trkpt><trkpt lat="44.25537155838343" lon="9.95709622757343"><ele>137.0</ele><time>2026-04-11T15:44:23.977Z</time></trkpt><trkpt lat="44.2555917508363" lon="9.956955848184966"><ele>137.0</ele><time>2026-04-11T15:44:24.977Z</time></trkpt><trkpt lat="44.25578436128708" lon="9.956822573643516"><ele>134.66666666666666</ele><time>2026-04-11T15:44:25.977Z</time></trkpt><trkpt lat="44.25596683537141" lon="9.956690930468666"><ele>132.33333333333334</ele><time>2026-04-11T15:44:26.977Z</time></trkpt><trkpt lat="44.25615320049936" lon="9.956571159870826"><ele>130.0</ele><time>2026-04-11T15:44:27.977Z</time></trkpt><trkpt lat="44.256343407593654" lon="9.956472116111556"><ele>134.0</ele><time>2026-04-11T15:44:28.977Z</time></trkpt><trkpt lat="44.256533008553355" lon="9.956413188332768"><ele>138.0</ele><time>2026-04-11T15:44:29.977Z</time></trkpt><trkpt lat="44.25670691271993" lon="9.956387717217881"><ele>142.0</ele><time>2026-04-11T15:44:30.977Z</time></trkpt><trkpt lat="44.25686230611623" lon="9.95632331425802"><ele>142.0</ele><time>2026-04-11T15:44:31.977Z</time></trkpt><trkpt lat="44.25700313575917" lon="9.956180640095546"><ele>142.0</ele><time>2026-04-11T15:44:32.977Z</time></trkpt><trkpt lat="44.25713526732161" lon="9.955969689622858"><ele>142.0</ele><time>2026-04-11T15:44:33.977Z</time></trkpt><trkpt lat="44.25726921501807" lon="9.955759340385141"><ele>141.0</ele><time>2026-04-11T15:44:34.977Z</time></trkpt><trkpt lat="44.257401418312" lon="9.955599906021847"><ele>140.0</ele><time>2026-04-11T15:44:35.977Z</time></trkpt><trkpt lat="44.257537497324854" lon="9.955475859489692"><ele>139.0</ele><time>2026-04-11T15:44:36.977Z</time></trkpt><trkpt lat="44.257700346990006" lon="9.955391402366596"><ele>139.0</ele><time>2026-04-11T15:44:37.977Z</time></trkpt><trkpt lat="44.25789030723945" lon="9.955350271444122"><ele>139.0</ele><time>2026-04-11T15:44:38.977Z</time></trkpt><trkpt lat="44.258097470676915" lon="9.95532172614715"><ele>139.0</ele><time>2026-04-11T15:44:39.977Z</time></trkpt><trkpt lat="44.25830877001773" lon="9.955242920390033"><ele>144.66666666666669</ele><time>2026-04-11T15:44:40.977Z</time></trkpt><trkpt lat="44.25851296751598" lon="9.955151510369344"><ele>150.33333333333334</ele><time>2026-04-11T15:44:41.977Z</time></trkpt><trkpt lat="44.258694648645594" lon="9.955065063316928"><ele>156.0</ele><time>2026-04-11T15:44:42.977Z</time></trkpt><trkpt lat="44.258860213130305" lon="9.954964563898951"><ele>151.0</ele><time>2026-04-11T15:44:43.977Z</time></trkpt><trkpt lat="44.25900229522471" lon="9.954785311011365"><ele>146.0</ele><time>2026-04-11T15:44:44.977Z</time></trkpt><trkpt lat="44.259137948156926" lon="9.954587683456424"><ele>141.0</ele><time>2026-04-11T15:44:45.977Z</time></trkpt><trkpt lat="44.25926810694141" lon="9.95438591972618"><ele>141.0</ele><time>2026-04-11T15:44:46.977Z</time></trkpt><trkpt lat="44.25941408905624" lon="9.954238581605459"><ele>141.0</ele><time>2026-04-11T15:44:47.977Z</time></trkpt><trkpt lat="44.25959080209103" lon="9.954121110961161"><ele>141.0</ele><time>2026-04-11T15:44:48.974Z</time></trkpt><trkpt lat="44.25977275595654" lon="9.954049551850932"><ele>137.66666666666666</ele><time>2026-04-11T15:44:49.974Z</time></trkpt><trkpt lat="44.25995433135552" lon="9.954012987991423"><ele>134.33333333333331</ele><time>2026-04-11T15:44:50.974Z</time></trkpt><trkpt lat="44.26012868643759" lon="9.954024521682621"><ele>131.0</ele><time>2026-04-11T15:44:51.974Z</time></trkpt><trkpt lat="44.26028224488801" lon="9.954035505922993"><ele>131.0</ele><time>2026-04-11T15:44:52.974Z</time></trkpt><trkpt lat="44.260416903979966" lon="9.954026108491716"><ele>131.0</ele><time>2026-04-11T15:44:53.974Z</time></trkpt><trkpt lat="44.26053512264933" lon="9.953885864718504"><ele>131.0</ele><time>2026-04-11T15:44:54.974Z</time></trkpt><trkpt lat="44.26067028163499" lon="9.95375682816784"><ele>133.33333333333331</ele><time>2026-04-11T15:44:55.974Z</time></trkpt><trkpt lat="44.260839746362706" lon="9.953644660780672"><ele>135.66666666666666</ele><time>2026-04-11T15:44:56.974Z</time></trkpt><trkpt lat="44.26102664791504" lon="9.953570814587833"><ele>138.0</ele><time>2026-04-11T15:44:57.974Z</time></trkpt><trkpt lat="44.26122828382347" lon="9.953559451507637"><ele>138.0</ele><time>2026-04-11T15:44:58.974Z</time></trkpt><trkpt lat="44.261436124843" lon="9.953541680432854"><ele>138.0</ele><time>2026-04-11T15:44:59.974Z</time></trkpt><trkpt lat="44.26165403710805" lon="9.953568135645526"><ele>138.0</ele><time>2026-04-11T15:45:00.974Z</time></trkpt><trkpt lat="44.261849920981504" lon="9.953611546543264"><ele>139.33333333333334</ele><time>2026-04-11T15:45:01.974Z</time></trkpt><trkpt lat="44.262038838575776" lon="9.953709668212227"><ele>140.66666666666669</ele><time>2026-04-11T15:45:02.974Z</time></trkpt><trkpt lat="44.26223168929844" lon="9.953833181325587"><ele>142.0</ele><time>2026-04-11T15:45:03.974Z</time></trkpt><trkpt lat="44.26242082764834" lon="9.953980596438385"><ele>146.0</ele><time>2026-04-11T15:45:04.974Z</time></trkpt><trkpt lat="44.26263263049059" lon="9.954102509338002"><ele>150.0</ele><time>2026-04-11T15:45:05.974Z</time></trkpt><trkpt lat="44.262837349407675" lon="9.95423573018824"><ele>150.0</ele><time>2026-04-11T15:45:06.974Z</time></trkpt><trkpt lat="44.263045814289256" lon="9.95436488997036"><ele>150.0</ele><time>2026-04-11T15:45:07.974Z</time></trkpt><trkpt lat="44.26324367324225" lon="9.954483078759905"><ele>150.0</ele><time>2026-04-11T15:45:08.974Z</time></trkpt><trkpt lat="44.263448138179726" lon="9.954570907026655"><ele>147.33333333333334</ele><time>2026-04-11T15:45:09.974Z</time></trkpt><trkpt lat="44.263651318445774" lon="9.954611071096295"><ele>144.66666666666669</ele><time>2026-04-11T15:45:10.974Z</time></trkpt><trkpt lat="44.263826699799196" lon="9.954645441369804"><ele>142.0</ele><time>2026-04-11T15:45:11.974Z</time></trkpt><trkpt lat="44.26399016244566" lon="9.95472180888895"><ele>140.66666666666669</ele><time>2026-04-11T15:45:12.974Z</time></trkpt><trkpt lat="44.26414308165661" lon="9.954823345342836"><ele>139.33333333333334</ele><time>2026-04-11T15:45:13.974Z</time></trkpt><trkpt lat="44.26427901716531" lon="9.954884968551312"><ele>138.0</ele><time>2026-04-11T15:45:14.974Z</time></trkpt><trkpt lat="44.26442325846454" lon="9.95487610207181"><ele>138.0</ele><time>2026-04-11T15:45:15.974Z</time></trkpt><trkpt lat="44.26456603476468" lon="9.954807110631563"><ele>138.0</ele><time>2026-04-11T15:45:16.974Z</time></trkpt><trkpt lat="44.26471495628383" lon="9.954703498466676"><ele>138.0</ele><time>2026-04-11T15:45:17.974Z</time></trkpt><trkpt lat="44.26489042738927" lon="9.954581207767095"><ele>140.66666666666666</ele><time>2026-04-11T15:45:18.974Z</time></trkpt><trkpt lat="44.26508271691136" lon="9.954472297712696"><ele>143.33333333333331</ele><time>2026-04-11T15:45:19.974Z</time></trkpt><trkpt lat="44.26526773350051" lon="9.954410244125063"><ele>146.0</ele><time>2026-04-11T15:45:20.974Z</time></trkpt><trkpt lat="44.265453655189894" lon="9.954373507725055"><ele>151.0</ele><time>2026-04-11T15:45:21.974Z</time></trkpt><trkpt lat="44.26564749954445" lon="9.954374453214983"><ele>156.0</ele><time>2026-04-11T15:45:22.974Z</time></trkpt><trkpt lat="44.26586319601324" lon="9.954404829494433"><ele>161.0</ele><time>2026-04-11T15:45:23.974Z</time></trkpt><trkpt lat="44.26608036501885" lon="9.954413845554658"><ele>161.0</ele><time>2026-04-11T15:45:24.974Z</time></trkpt><trkpt lat="44.266292150541965" lon="9.954380622291136"><ele>161.0</ele><time>2026-04-11T15:45:25.974Z</time></trkpt><trkpt lat="44.26648145815267" lon="9.95429845958446"><ele>161.0</ele><time>2026-04-11T15:45:26.974Z</time></trkpt><trkpt lat="44.26666413843166" lon="9.954217656003305"><ele>153.5</ele><time>2026-04-11T15:45:27.974Z</time></trkpt><trkpt lat="44.2668254993945" lon="9.954169595025784"><ele>146.0</ele><time>2026-04-11T15:45:28.974Z</time></trkpt><trkpt lat="44.2669627526134" lon="9.954117968523803"><ele>138.5</ele><time>2026-04-11T15:45:29.974Z</time></trkpt><trkpt lat="44.267081605813146" lon="9.954020202127266"><ele>131.0</ele><time>2026-04-11T15:45:30.974Z</time></trkpt><trkpt lat="44.26718562758975" lon="9.953858958603936"><ele>130.66666666666666</ele><time>2026-04-11T15:45:31.974Z</time></trkpt><trkpt lat="44.26729607463289" lon="9.953635957433749"><ele>130.33333333333334</ele><time>2026-04-11T15:45:32.974Z</time></trkpt><trkpt lat="44.26741650657953" lon="9.95341127877683"><ele>130.0</ele><time>2026-04-11T15:45:33.974Z</time></trkpt><trkpt lat="44.26754546089399" lon="9.953250141640174"><ele>130.0</ele><time>2026-04-11T15:45:34.974Z</time></trkpt><trkpt lat="44.26766492075683" lon="9.953109609024855"><ele>130.0</ele><time>2026-04-11T15:45:35.974Z</time></trkpt><trkpt lat="44.267780545929966" lon="9.953002527336864"><ele>130.0</ele><time>2026-04-11T15:45:36.974Z</time></trkpt><trkpt lat="44.26791463033565" lon="9.952945810455132"><ele>130.0</ele><time>2026-04-11T15:45:37.974Z</time></trkpt><trkpt lat="44.268065041007105" lon="9.952941787355986"><ele>132.66666666666669</ele><time>2026-04-11T15:45:38.974Z</time></trkpt><trkpt lat="44.26822193618354" lon="9.95301389437685"><ele>135.33333333333334</ele><time>2026-04-11T15:45:39.974Z</time></trkpt><trkpt lat="44.26838279977834" lon="9.953136522796028"><ele>138.0</ele><time>2026-04-11T15:45:40.974Z</time></trkpt><trkpt lat="44.26854023488335" lon="9.953280696237771"><ele>136.75</ele><time>2026-04-11T15:45:41.974Z</time></trkpt><trkpt lat="44.268693121144594" lon="9.953392864278904"><ele>135.5</ele><time>2026-04-11T15:45:42.974Z</time></trkpt><trkpt lat="44.26881726545994" lon="9.953468832026752"><ele>134.25</ele><time>2026-04-11T15:45:43.974Z</time></trkpt><trkpt lat="44.26894705422482" lon="9.953476720962088"><ele>133.0</ele><time>2026-04-11T15:45:44.974Z</time></trkpt><trkpt lat="44.269073598441246" lon="9.953363743944715"><ele>133.0</ele><time>2026-04-11T15:45:45.974Z</time></trkpt><trkpt lat="44.26920798001663" lon="9.95317591105527"><ele>133.0</ele><time>2026-04-11T15:45:46.974Z</time></trkpt><trkpt lat="44.26936812962239" lon="9.953027923976125"><ele>133.0</ele><time>2026-04-11T15:45:47.974Z</time></trkpt><trkpt lat="44.26953813521616" lon="9.95289199679204"><ele>133.0</ele><time>2026-04-11T15:45:48.974Z</time></trkpt><trkpt lat="44.26969765433767" lon="9.95280847408216"><ele>133.0</ele><time>2026-04-11T15:45:49.974Z</time></trkpt><trkpt lat="44.26986911198648" lon="9.95279238047594"><ele>133.0</ele><time>2026-04-11T15:45:50.974Z</time></trkpt><trkpt lat="44.270040771764336" lon="9.952841538344991"><ele>135.33333333333334</ele><time>2026-04-11T15:45:51.974Z</time></trkpt><trkpt lat="44.27020877038645" lon="9.952952238307514"><ele>137.66666666666666</ele><time>2026-04-11T15:45:52.974Z</time></trkpt><trkpt lat="44.27036992123813" lon="9.953094989876483"><ele>140.0</ele><time>2026-04-11T15:45:53.974Z</time></trkpt><trkpt lat="44.270507104655834" lon="9.953260351976422"><ele>146.0</ele><time>2026-04-11T15:45:54.974Z</time></trkpt><trkpt lat="44.27062745699589" lon="9.9533893712696"><ele>152.0</ele><time>2026-04-11T15:45:55.974Z</time></trkpt><trkpt lat="44.27074588839222" lon="9.953492639368617"><ele>158.0</ele><time>2026-04-11T15:45:56.974Z</time></trkpt><trkpt lat="44.270864139298446" lon="9.953580319751088"><ele>164.0</ele><time>2026-04-11T15:45:57.974Z</time></trkpt><trkpt lat="44.27099341214386" lon="9.953656639616264"><ele>164.0</ele><time>2026-04-11T15:45:58.974Z</time></trkpt><trkpt lat="44.27112289104479" lon="9.953725121186045"><ele>164.0</ele><time>2026-04-11T15:45:59.974Z</time></trkpt><trkpt lat="44.271240743235765" lon="9.953786179463753"><ele>164.0</ele><time>2026-04-11T15:46:00.974Z</time></trkpt><trkpt lat="44.27135160877428" lon="9.953835552075617"><ele>164.0</ele><time>2026-04-11T15:46:01.974Z</time></trkpt><trkpt lat="44.271459109974295" lon="9.953888972446316"><ele>159.2</ele><time>2026-04-11T15:46:02.974Z</time></trkpt><trkpt lat="44.27156191058847" lon="9.953955287216846"><ele>154.39999999999998</ele><time>2026-04-11T15:46:03.974Z</time></trkpt><trkpt lat="44.27166129739755" lon="9.954030220128491"><ele>149.6</ele><time>2026-04-11T15:46:04.974Z</time></trkpt><trkpt lat="44.2717317271028" lon="9.954140364919263"><ele>144.8</ele><time>2026-04-11T15:46:05.974Z</time></trkpt><trkpt lat="44.27177702773079" lon="9.954282076672824"><ele>140.0</ele><time>2026-04-11T15:46:06.974Z</time></trkpt><trkpt lat="44.27181028874136" lon="9.95444060733527"><ele>140.0</ele><time>2026-04-11T15:46:07.974Z</time></trkpt><trkpt lat="44.271873889647495" lon="9.954571681228128"><ele>140.0</ele><time>2026-04-11T15:46:08.974Z</time></trkpt><trkpt lat="44.271949507553835" lon="9.954655043353611"><ele>140.0</ele><time>2026-04-11T15:46:09.974Z</time></trkpt><trkpt lat="44.272065622539024" lon="9.954725700930137"><ele>140.0</ele><time>2026-04-11T15:46:10.974Z</time></trkpt><trkpt lat="44.27221269123615" lon="9.954766634335396"><ele>139.5</ele><time>2026-04-11T15:46:11.974Z</time></trkpt><trkpt lat="44.27235226979818" lon="9.95477408269873"><ele>139.0</ele><time>2026-04-11T15:46:12.974Z</time></trkpt><trkpt lat="44.27249210075498" lon="9.954786376107425"><ele>138.5</ele><time>2026-04-11T15:46:13.974Z</time></trkpt><trkpt lat="44.27262833723952" lon="9.954811029577753"><ele>138.0</ele><time>2026-04-11T15:46:14.974Z</time></trkpt><trkpt lat="44.27277795751342" lon="9.954835242802302"><ele>138.0</ele><time>2026-04-11T15:46:15.974Z</time></trkpt><trkpt lat="44.2729283314508" lon="9.954872210034921"><ele>138.0</ele><time>2026-04-11T15:46:16.974Z</time></trkpt><trkpt lat="44.27308702593645" lon="9.954892966692388"><ele>138.0</ele><time>2026-04-11T15:46:17.974Z</time></trkpt><trkpt lat="44.27324964981106" lon="9.954904982279277"><ele>137.33333333333334</ele><time>2026-04-11T15:46:18.974Z</time></trkpt><trkpt lat="44.27341625847938" lon="9.954923264941632"><ele>136.66666666666669</ele><time>2026-04-11T15:46:19.974Z</time></trkpt><trkpt lat="44.273568536227394" lon="9.954938161733702"><ele>136.0</ele><time>2026-04-11T15:46:20.974Z</time></trkpt><trkpt lat="44.27372688925569" lon="9.954929940097884"><ele>136.0</ele><time>2026-04-11T15:46:21.974Z</time></trkpt><trkpt lat="44.27387278655179" lon="9.954893794545438"><ele>136.0</ele><time>2026-04-11T15:46:22.974Z</time></trkpt><trkpt lat="44.27402379614845" lon="9.954837467086628"><ele>136.0</ele><time>2026-04-11T15:46:23.974Z</time></trkpt><trkpt lat="44.27418214945027" lon="9.954799859663803"><ele>135.0</ele><time>2026-04-11T15:46:24.974Z</time></trkpt><trkpt lat="44.27433627126607" lon="9.954742339903042"><ele>134.0</ele><time>2026-04-11T15:46:25.974Z</time></trkpt><trkpt lat="44.27448297155301" lon="9.95467635767328"><ele>133.0</ele><time>2026-04-11T15:46:26.974Z</time></trkpt><trkpt lat="44.274630214900796" lon="9.954598950349625"><ele>137.0</ele><time>2026-04-11T15:46:27.974Z</time></trkpt><trkpt lat="44.27477350292321" lon="9.954515091253164"><ele>141.0</ele><time>2026-04-11T15:46:28.974Z</time></trkpt><trkpt lat="44.274920672143544" lon="9.954430351777814"><ele>145.0</ele><time>2026-04-11T15:46:29.974Z</time></trkpt><trkpt lat="44.27506986822875" lon="9.954342131308579"><ele>145.0</ele><time>2026-04-11T15:46:30.974Z</time></trkpt><trkpt lat="44.27521801789115" lon="9.954259840757379"><ele>145.0</ele><time>2026-04-11T15:46:31.974Z</time></trkpt><trkpt lat="44.27537288797942" lon="9.954164354800358"><ele>145.0</ele><time>2026-04-11T15:46:32.974Z</time></trkpt><trkpt lat="44.275531026612406" lon="9.954067085161924"><ele>140.0</ele><time>2026-04-11T15:46:33.974Z</time></trkpt><trkpt lat="44.2756898901439" lon="9.953974607655395"><ele>135.0</ele><time>2026-04-11T15:46:34.974Z</time></trkpt><trkpt lat="44.27585303349961" lon="9.95386723682311"><ele>130.0</ele><time>2026-04-11T15:46:35.974Z</time></trkpt><trkpt lat="44.27603851021752" lon="9.953723170767415"><ele>130.0</ele><time>2026-04-11T15:46:36.974Z</time></trkpt><trkpt lat="44.27626746552628" lon="9.953572543255955"><ele>130.0</ele><time>2026-04-11T15:46:37.974Z</time></trkpt><trkpt lat="44.276516446114925" lon="9.953426848853779"><ele>123.5</ele><time>2026-04-11T15:46:38.974Z</time></trkpt><trkpt lat="44.27677814517631" lon="9.953274034087853"><ele>117.0</ele><time>2026-04-11T15:46:39.974Z</time></trkpt><trkpt lat="44.27705912096208" lon="9.95311714452988"><ele>122.5</ele><time>2026-04-11T15:46:40.974Z</time></trkpt><trkpt lat="44.2772978935959" lon="9.95300024858381"><ele>128.0</ele><time>2026-04-11T15:46:41.974Z</time></trkpt><trkpt lat="44.27759435619702" lon="9.952821746099739"><ele>128.0</ele><time>2026-04-11T15:46:42.974Z</time></trkpt><trkpt lat="44.277889375980074" lon="9.952651634650568"><ele>128.0</ele><time>2026-04-11T15:46:43.974Z</time></trkpt><trkpt lat="44.278153202671774" lon="9.952509691077168"><ele>126.0</ele><time>2026-04-11T15:46:44.974Z</time></trkpt><trkpt lat="44.278398238306515" lon="9.952377275485231"><ele>124.0</ele><time>2026-04-11T15:46:45.974Z</time></trkpt><trkpt lat="44.27862503647878" lon="9.952247289438995"><ele>124.0</ele><time>2026-04-11T15:46:46.974Z</time></trkpt><trkpt lat="44.27883977193516" lon="9.952135702721836"><ele>124.0</ele><time>2026-04-11T15:46:47.974Z</time></trkpt><trkpt lat="44.27905414887728" lon="9.952030508023206"><ele>126.0</ele><time>2026-04-11T15:46:48.974Z</time></trkpt><trkpt lat="44.27925508279111" lon="9.951926359998783"><ele>128.0</ele><time>2026-04-11T15:46:49.974Z</time></trkpt><trkpt lat="44.27945105779737" lon="9.951823277651489"><ele>130.0</ele><time>2026-04-11T15:46:50.974Z</time></trkpt><trkpt lat="44.279645662925994" lon="9.951729934415102"><ele>125.33333333333334</ele><time>2026-04-11T15:46:51.974Z</time></trkpt><trkpt lat="44.27984862904029" lon="9.951662287236433"><ele>120.66666666666666</ele><time>2026-04-11T15:46:52.974Z</time></trkpt><trkpt lat="44.28005603351956" lon="9.95163356418199"><ele>116.0</ele><time>2026-04-11T15:46:53.974Z</time></trkpt><trkpt lat="44.28025876106836" lon="9.951585875395724"><ele>116.0</ele><time>2026-04-11T15:46:54.972Z</time></trkpt><trkpt lat="44.28046675975122" lon="9.95148017297677"><ele>116.0</ele><time>2026-04-11T15:46:55.973Z</time></trkpt><trkpt lat="44.2806698092205" lon="9.95133449808864"><ele>118.5</ele><time>2026-04-11T15:46:56.973Z</time></trkpt><trkpt lat="44.2808832029407" lon="9.951196961309043"><ele>121.0</ele><time>2026-04-11T15:46:57.972Z</time></trkpt><trkpt lat="44.28109082082335" lon="9.951054741320862"><ele>121.0</ele><time>2026-04-11T15:46:58.972Z</time></trkpt><trkpt lat="44.28128577788677" lon="9.950927136968545"><ele>121.0</ele><time>2026-04-11T15:46:59.972Z</time></trkpt><trkpt lat="44.281470851755955" lon="9.950834059220346"><ele>121.0</ele><time>2026-04-11T15:47:00.972Z</time></trkpt><trkpt lat="44.28165946315952" lon="9.95077239244626"><ele>119.66666666666667</ele><time>2026-04-11T15:47:01.973Z</time></trkpt><trkpt lat="44.28185875728827" lon="9.950750559261797"><ele>118.33333333333334</ele><time>2026-04-11T15:47:02.973Z</time></trkpt><trkpt lat="44.282052799369716" lon="9.950736437316106"><ele>117.0</ele><time>2026-04-11T15:47:03.972Z</time></trkpt><trkpt lat="44.282222404646326" lon="9.950756412831524"><ele>117.0</ele><time>2026-04-11T15:47:04.972Z</time></trkpt><trkpt lat="44.28239010958777" lon="9.950724859563627"><ele>117.0</ele><time>2026-04-11T15:47:05.972Z</time></trkpt><trkpt lat="44.282561415417675" lon="9.950638308362914"><ele>117.0</ele><time>2026-04-11T15:47:06.972Z</time></trkpt><trkpt lat="44.28272703562975" lon="9.950509312275592"><ele>117.0</ele><time>2026-04-11T15:47:07.972Z</time></trkpt><trkpt lat="44.282875876653314" lon="9.950345565600736"><ele>117.0</ele><time>2026-04-11T15:47:08.972Z</time></trkpt><trkpt lat="44.28302113676111" lon="9.95016227160979"><ele>117.0</ele><time>2026-04-11T15:47:09.972Z</time></trkpt><trkpt lat="44.28316257442649" lon="9.950019248305022"><ele>118.25</ele><time>2026-04-11T15:47:10.972Z</time></trkpt><trkpt lat="44.28329715607431" lon="9.94990179407291"><ele>119.5</ele><time>2026-04-11T15:47:11.972Z</time></trkpt><trkpt lat="44.2834184276504" lon="9.949808431882538"><ele>120.75</ele><time>2026-04-11T15:47:12.972Z</time></trkpt><trkpt lat="44.28354214447555" lon="9.9497363500772"><ele>122.0</ele><time>2026-04-11T15:47:13.972Z</time></trkpt><trkpt lat="44.28366638131962" lon="9.949676913053244"><ele>122.0</ele><time>2026-04-11T15:47:14.972Z</time></trkpt><trkpt lat="44.28377934030743" lon="9.949629627159753"><ele>121.99999999999999</ele><time>2026-04-11T15:47:15.972Z</time></trkpt><trkpt lat="44.28388812763388" lon="9.94958016196134"><ele>121.99999999999999</ele><time>2026-04-11T15:47:16.972Z</time></trkpt><trkpt lat="44.28399447412403" lon="9.949535871413083"><ele>122.0</ele><time>2026-04-11T15:47:17.972Z</time></trkpt><trkpt lat="44.28409585796251" lon="9.949492701607173"><ele>122.0</ele><time>2026-04-11T15:47:18.972Z</time></trkpt><trkpt lat="44.28420160955422" lon="9.949455188980462"><ele>123.39999999999999</ele><time>2026-04-11T15:47:19.972Z</time></trkpt><trkpt lat="44.284308303595736" lon="9.949414196135685"><ele>124.79999999999998</ele><time>2026-04-11T15:47:20.972Z</time></trkpt><trkpt lat="44.284415173221056" lon="9.949371315374027"><ele>126.2</ele><time>2026-04-11T15:47:21.972Z</time></trkpt><trkpt lat="44.284522173093876" lon="9.949326549088783"><ele>127.6</ele><time>2026-04-11T15:47:22.972Z</time></trkpt><trkpt lat="44.284628238907615" lon="9.949286812425388"><ele>129.0</ele><time>2026-04-11T15:47:23.972Z</time></trkpt><trkpt lat="44.28473593173545" lon="9.94924859960075"><ele>129.25</ele><time>2026-04-11T15:47:24.972Z</time></trkpt><trkpt lat="44.284847225381796" lon="9.949200205571028"><ele>129.5</ele><time>2026-04-11T15:47:25.972Z</time></trkpt><trkpt lat="44.28495708926431" lon="9.949154722698623"><ele>129.75</ele><time>2026-04-11T15:47:26.972Z</time></trkpt><trkpt lat="44.28507072722256" lon="9.9491153752998"><ele>130.0</ele><time>2026-04-11T15:47:27.972Z</time></trkpt><trkpt lat="44.285182804898355" lon="9.949072144840223"><ele>130.0</ele><time>2026-04-11T15:47:28.972Z</time></trkpt><trkpt lat="44.28529788845138" lon="9.949024930268532"><ele>130.0</ele><time>2026-04-11T15:47:29.972Z</time></trkpt><trkpt lat="44.28541316027704" lon="9.948978965969053"><ele>130.0</ele><time>2026-04-11T15:47:30.972Z</time></trkpt><trkpt lat="44.28553108131688" lon="9.9489347542139"><ele>130.0</ele><time>2026-04-11T15:47:31.973Z</time></trkpt><trkpt lat="44.285654861802755" lon="9.948892317137608"><ele>131.75</ele><time>2026-04-11T15:47:32.973Z</time></trkpt><trkpt lat="44.285780434302154" lon="9.948848295208665"><ele>133.5</ele><time>2026-04-11T15:47:33.973Z</time></trkpt><trkpt lat="44.285916314985876" lon="9.948802056592305"><ele>135.25</ele><time>2026-04-11T15:47:34.973Z</time></trkpt><trkpt lat="44.286068533333776" lon="9.948762117516962"><ele>137.0</ele><time>2026-04-11T15:47:35.973Z</time></trkpt><trkpt lat="44.28624155546045" lon="9.948721298891588"><ele>140.66666666666666</ele><time>2026-04-11T15:47:36.973Z</time></trkpt><trkpt lat="44.28642987959581" lon="9.948683943663635"><ele>144.33333333333334</ele><time>2026-04-11T15:47:37.973Z</time></trkpt><trkpt lat="44.286632293680896" lon="9.948636024854753"><ele>148.0</ele><time>2026-04-11T15:47:38.973Z</time></trkpt><trkpt lat="44.28684503501632" lon="9.948594963006236"><ele>148.0</ele><time>2026-04-11T15:47:39.973Z</time></trkpt><trkpt lat="44.28706573242389" lon="9.948538375071232"><ele>148.0</ele><time>2026-04-11T15:47:40.973Z</time></trkpt><trkpt lat="44.287276463065176" lon="9.948501399037035"><ele>148.0</ele><time>2026-04-11T15:47:41.973Z</time></trkpt><trkpt lat="44.2874801029946" lon="9.948465172511332"><ele>151.66666666666669</ele><time>2026-04-11T15:47:42.973Z</time></trkpt><trkpt lat="44.28767243935905" lon="9.948396430068918"><ele>155.33333333333334</ele><time>2026-04-11T15:47:43.973Z</time></trkpt><trkpt lat="44.287862740199245" lon="9.948319219978371"><ele>159.0</ele><time>2026-04-11T15:47:44.973Z</time></trkpt><trkpt lat="44.288050677738454" lon="9.948246634822631"><ele>152.33333333333334</ele><time>2026-04-11T15:47:45.973Z</time></trkpt><trkpt lat="44.288225961898796" lon="9.948170665189835"><ele>145.66666666666669</ele><time>2026-04-11T15:47:46.973Z</time></trkpt><trkpt lat="44.28838531832611" lon="9.948111392331336"><ele>139.0</ele><time>2026-04-11T15:47:47.973Z</time></trkpt><trkpt lat="44.288530614694196" lon="9.948051847872122"><ele>139.0</ele><time>2026-04-11T15:47:48.973Z</time></trkpt><trkpt lat="44.28866406282514" lon="9.948004506611154"><ele>139.0</ele><time>2026-04-11T15:47:49.973Z</time></trkpt><trkpt lat="44.28879538767724" lon="9.947980365305977"><ele>139.0</ele><time>2026-04-11T15:47:50.973Z</time></trkpt><trkpt lat="44.28892915180018" lon="9.947980165755927"><ele>139.0</ele><time>2026-04-11T15:47:51.973Z</time></trkpt><trkpt lat="44.289059284363525" lon="9.948036101953234"><ele>137.75</ele><time>2026-04-11T15:47:52.973Z</time></trkpt><trkpt lat="44.28918324435073" lon="9.948136217442574"><ele>136.5</ele><time>2026-04-11T15:47:53.973Z</time></trkpt><trkpt lat="44.28928713394463" lon="9.948271281873156"><ele>135.25</ele><time>2026-04-11T15:47:54.973Z</time></trkpt><trkpt lat="44.28937999104365" lon="9.948425049168693"><ele>134.0</ele><time>2026-04-11T15:47:55.973Z</time></trkpt><trkpt lat="44.28944812532198" lon="9.948597601347528"><ele>134.0</ele><time>2026-04-11T15:47:56.973Z</time></trkpt><trkpt lat="44.289515281235346" lon="9.948779233974454"><ele>134.0</ele><time>2026-04-11T15:47:57.973Z</time></trkpt><trkpt lat="44.28958640667957" lon="9.948956672349432"><ele>134.0</ele><time>2026-04-11T15:47:58.973Z</time></trkpt><trkpt lat="44.289656275968085" lon="9.949136153331981"><ele>134.0</ele><time>2026-04-11T15:47:59.973Z</time></trkpt><trkpt lat="44.28973281921494" lon="9.94931790777355"><ele>133.75</ele><time>2026-04-11T15:48:00.973Z</time></trkpt><trkpt lat="44.28981380823424" lon="9.949493577853207"><ele>133.5</ele><time>2026-04-11T15:48:01.973Z</time></trkpt><trkpt lat="44.2899012930265" lon="9.949663010107765"><ele>133.25</ele><time>2026-04-11T15:48:02.973Z</time></trkpt><trkpt lat="44.28997416572256" lon="9.949836509709202"><ele>133.0</ele><time>2026-04-11T15:48:03.973Z</time></trkpt><trkpt lat="44.29005130766185" lon="9.950010001652203"><ele>133.75</ele><time>2026-04-11T15:48:04.973Z</time></trkpt><trkpt lat="44.29012334869474" lon="9.950174382057455"><ele>134.5</ele><time>2026-04-11T15:48:05.973Z</time></trkpt><trkpt lat="44.29018584755587" lon="9.950319373577049"><ele>135.25</ele><time>2026-04-11T15:48:06.973Z</time></trkpt><trkpt lat="44.29024991704241" lon="9.950445722581554"><ele>136.0</ele><time>2026-04-11T15:48:07.973Z</time></trkpt><trkpt lat="44.29029429345078" lon="9.950555326385455"><ele>136.0</ele><time>2026-04-11T15:48:08.973Z</time></trkpt><trkpt lat="44.290342793101615" lon="9.950624679661823"><ele>136.0</ele><time>2026-04-11T15:48:09.973Z</time></trkpt><trkpt lat="44.2903770758483" lon="9.950772304710714"><ele>136.0</ele><time>2026-04-11T15:50:32.971Z</time></trkpt><trkpt lat="44.29039818765443" lon="9.950890690578232"><ele>136.0</ele><time>2026-04-11T15:50:46.971Z</time></trkpt><trkpt lat="44.29046818122628" lon="9.951050038798595"><ele>136.0</ele><time>2026-04-11T15:50:48.971Z</time></trkpt><trkpt lat="44.29050462940412" lon="9.951180321547675"><ele>135.4</ele><time>2026-04-11T15:50:49.971Z</time></trkpt><trkpt lat="44.290560280632725" lon="9.951278020565272"><ele>134.8</ele><time>2026-04-11T15:50:50.971Z</time></trkpt><trkpt lat="44.29061025275571" lon="9.951376813590171"><ele>134.20000000000002</ele><time>2026-04-11T15:50:51.971Z</time></trkpt><trkpt lat="44.290674482283904" lon="9.951469897357548"><ele>133.6</ele><time>2026-04-11T15:50:52.971Z</time></trkpt><trkpt lat="44.290749366206214" lon="9.951548307190698"><ele>133.0</ele><time>2026-04-11T15:50:53.971Z</time></trkpt><trkpt lat="44.29082902462996" lon="9.951612839016603"><ele>133.0</ele><time>2026-04-11T15:50:54.971Z</time></trkpt><trkpt lat="44.29090878365092" lon="9.951665310766407"><ele>133.0</ele><time>2026-04-11T15:50:55.971Z</time></trkpt><trkpt lat="44.290998134243644" lon="9.951696106776486"><ele>133.0</ele><time>2026-04-11T15:50:56.971Z</time></trkpt><trkpt lat="44.29108479693376" lon="9.951722523066962"><ele>133.0</ele><time>2026-04-11T15:50:57.971Z</time></trkpt><trkpt lat="44.29117140876273" lon="9.951742237666668"><ele>133.0</ele><time>2026-04-11T15:50:58.971Z</time></trkpt><trkpt lat="44.29128517379583" lon="9.951752148792753"><ele>133.5</ele><time>2026-04-11T15:50:59.971Z</time></trkpt><trkpt lat="44.291390275606986" lon="9.951762209005121"><ele>134.0</ele><time>2026-04-11T15:51:00.971Z</time></trkpt><trkpt lat="44.2914823310509" lon="9.951774909275297"><ele>134.5</ele><time>2026-04-11T15:51:01.971Z</time></trkpt><trkpt lat="44.29155753563483" lon="9.951786979252136"><ele>135.0</ele><time>2026-04-11T15:51:02.971Z</time></trkpt><trkpt lat="44.29162233281551" lon="9.951797822381398"><ele>135.5</ele><time>2026-04-11T15:51:03.971Z</time></trkpt><trkpt lat="44.291695743471045" lon="9.951815978896166"><ele>136.0</ele><time>2026-04-11T15:51:04.971Z</time></trkpt><trkpt lat="44.29178778048757" lon="9.951830810305983"><ele>133.75</ele><time>2026-04-11T15:51:05.971Z</time></trkpt><trkpt lat="44.291896431079564" lon="9.95183079765645"><ele>131.5</ele><time>2026-04-11T15:51:06.97Z</time></trkpt><trkpt lat="44.29201743456268" lon="9.95183039652763"><ele>129.25</ele><time>2026-04-11T15:51:07.97Z</time></trkpt><trkpt lat="44.29214879697687" lon="9.951822441080138"><ele>127.0</ele><time>2026-04-11T15:51:08.97Z</time></trkpt><trkpt lat="44.29228199979994" lon="9.951803302279208"><ele>127.0</ele><time>2026-04-11T15:51:09.97Z</time></trkpt><trkpt lat="44.29241345481439" lon="9.951772829905266"><ele>127.0</ele><time>2026-04-11T15:51:10.97Z</time></trkpt><trkpt lat="44.292542618323445" lon="9.951733685678436"><ele>127.0</ele><time>2026-04-11T15:51:11.97Z</time></trkpt><trkpt lat="44.29267117831959" lon="9.951695149188975"><ele>127.0</ele><time>2026-04-11T15:51:12.97Z</time></trkpt><trkpt lat="44.29280364184783" lon="9.951647240988676"><ele>127.25</ele><time>2026-04-11T15:51:13.971Z</time></trkpt><trkpt lat="44.29293300806306" lon="9.951602964972615"><ele>127.5</ele><time>2026-04-11T15:51:14.971Z</time></trkpt><trkpt lat="44.293073024676886" lon="9.951554571455054"><ele>127.75</ele><time>2026-04-11T15:51:15.971Z</time></trkpt><trkpt lat="44.29321398196674" lon="9.95149440855613"><ele>128.0</ele><time>2026-04-11T15:51:16.971Z</time></trkpt><trkpt lat="44.293359407103566" lon="9.951434226840059"><ele>128.33333333333331</ele><time>2026-04-11T15:51:17.971Z</time></trkpt><trkpt lat="44.293508326408876" lon="9.951377587129265"><ele>128.66666666666666</ele><time>2026-04-11T15:51:18.971Z</time></trkpt><trkpt lat="44.293660863778115" lon="9.95132712843875"><ele>129.0</ele><time>2026-04-11T15:51:19.971Z</time></trkpt><trkpt lat="44.293816104765995" lon="9.951270748941992"><ele>130.0</ele><time>2026-04-11T15:51:20.971Z</time></trkpt><trkpt lat="44.29396504975975" lon="9.951219595034948"><ele>131.0</ele><time>2026-04-11T15:51:21.971Z</time></trkpt><trkpt lat="44.29410811553932" lon="9.95116468460223"><ele>132.0</ele><time>2026-04-11T15:51:22.971Z</time></trkpt><trkpt lat="44.294248398885244" lon="9.951109879296656"><ele>133.0</ele><time>2026-04-11T15:51:23.971Z</time></trkpt><trkpt lat="44.29438852895858" lon="9.951057333085132"><ele>133.0</ele><time>2026-04-11T15:51:24.971Z</time></trkpt><trkpt lat="44.29452067737849" lon="9.951006021180495"><ele>133.0</ele><time>2026-04-11T15:51:25.971Z</time></trkpt><trkpt lat="44.29463556060694" lon="9.950963595066243"><ele>133.0</ele><time>2026-04-11T15:51:26.971Z</time></trkpt><trkpt lat="44.29473485538881" lon="9.950925088044901"><ele>133.0</ele><time>2026-04-11T15:51:27.971Z</time></trkpt><trkpt lat="44.29482642241874" lon="9.950894010803914"><ele>133.5</ele><time>2026-04-11T15:51:28.971Z</time></trkpt><trkpt lat="44.29490993341042" lon="9.950861971605665"><ele>134.0</ele><time>2026-04-11T15:51:29.971Z</time></trkpt><trkpt lat="44.29499567356415" lon="9.950831810245951"><ele>134.5</ele><time>2026-04-11T15:51:30.971Z</time></trkpt><trkpt lat="44.295071461336704" lon="9.950809675726916"><ele>135.0</ele><time>2026-04-11T15:51:31.971Z</time></trkpt><trkpt lat="44.29514310809171" lon="9.950788762853255"><ele>135.5</ele><time>2026-04-11T15:51:32.971Z</time></trkpt><trkpt lat="44.29521502085317" lon="9.950763038864759"><ele>136.0</ele><time>2026-04-11T15:51:33.971Z</time></trkpt><trkpt lat="44.29530061060166" lon="9.950735423595118"><ele>136.0</ele><time>2026-04-11T15:51:34.971Z</time></trkpt><trkpt lat="44.29538843382556" lon="9.95069902130345"><ele>136.0</ele><time>2026-04-11T15:51:35.971Z</time></trkpt><trkpt lat="44.295480620363556" lon="9.95066324608225"><ele>136.0</ele><time>2026-04-11T15:51:36.971Z</time></trkpt><trkpt lat="44.29556765953076" lon="9.95062712622777"><ele>136.0</ele><time>2026-04-11T15:51:37.971Z</time></trkpt><trkpt lat="44.29565881491697" lon="9.950585675525646"><ele>136.0</ele><time>2026-04-11T15:51:38.971Z</time></trkpt><trkpt lat="44.29575043554683" lon="9.950538708920213"><ele>136.8</ele><time>2026-04-11T15:51:39.971Z</time></trkpt><trkpt lat="44.29583330676462" lon="9.950481589913709"><ele>137.6</ele><time>2026-04-11T15:51:40.971Z</time></trkpt><trkpt lat="44.295914571432846" lon="9.950407753644127"><ele>138.4</ele><time>2026-04-11T15:51:41.971Z</time></trkpt><trkpt lat="44.29600061604608" lon="9.950333603088396"><ele>139.2</ele><time>2026-04-11T15:51:42.971Z</time></trkpt><trkpt lat="44.29607885192299" lon="9.950251902972624"><ele>140.0</ele><time>2026-04-11T15:51:43.971Z</time></trkpt><trkpt lat="44.29615400272084" lon="9.950167999483003"><ele>140.0</ele><time>2026-04-11T15:51:44.971Z</time></trkpt><trkpt lat="44.296235457271024" lon="9.950080341519346"><ele>140.0</ele><time>2026-04-11T15:51:45.971Z</time></trkpt><trkpt lat="44.29632007093997" lon="9.949988701240743"><ele>140.0</ele><time>2026-04-11T15:51:46.971Z</time></trkpt><trkpt lat="44.296406207819366" lon="9.949898869918275"><ele>140.0</ele><time>2026-04-11T15:51:47.971Z</time></trkpt><trkpt lat="44.296505545565644" lon="9.94981363283937"><ele>140.0</ele><time>2026-04-11T15:51:48.971Z</time></trkpt><trkpt lat="44.296611244303804" lon="9.949738939519788"><ele>140.5</ele><time>2026-04-11T15:51:49.971Z</time></trkpt><trkpt lat="44.29672269328769" lon="9.949671522321704"><ele>141.0</ele><time>2026-04-11T15:51:50.971Z</time></trkpt><trkpt lat="44.29684415789703" lon="9.949609772684699"><ele>141.5</ele><time>2026-04-11T15:51:51.971Z</time></trkpt><trkpt lat="44.296973495182584" lon="9.949547165353172"><ele>142.0</ele><time>2026-04-11T15:51:52.971Z</time></trkpt><trkpt lat="44.29710636374903" lon="9.94948234634161"><ele>142.0</ele><time>2026-04-11T15:51:53.971Z</time></trkpt><trkpt lat="44.297234012362985" lon="9.949418558810837"><ele>142.0</ele><time>2026-04-11T15:51:54.971Z</time></trkpt><trkpt lat="44.29736292082152" lon="9.949360746461139"><ele>142.0</ele><time>2026-04-11T15:51:55.971Z</time></trkpt><trkpt lat="44.29749149424696" lon="9.94929863774599"><ele>142.0</ele><time>2026-04-11T15:51:56.971Z</time></trkpt><trkpt lat="44.29761961364102" lon="9.949238500921957"><ele>142.25</ele><time>2026-04-11T15:51:57.971Z</time></trkpt><trkpt lat="44.29775133856336" lon="9.949173325878814"><ele>142.5</ele><time>2026-04-11T15:51:58.971Z</time></trkpt><trkpt lat="44.2978842516783" lon="9.949120440008182"><ele>142.75</ele><time>2026-04-11T15:51:59.971Z</time></trkpt><trkpt lat="44.29802151197208" lon="9.94909268225157"><ele>143.0</ele><time>2026-04-11T15:52:00.971Z</time></trkpt><trkpt lat="44.29816544874457" lon="9.94907334854795"><ele>143.0</ele><time>2026-04-11T15:52:01.971Z</time></trkpt><trkpt lat="44.29831202551755" lon="9.94905678098482"><ele>143.0</ele><time>2026-04-11T15:52:02.971Z</time></trkpt><trkpt lat="44.2984582923328" lon="9.94903553394747"><ele>143.0</ele><time>2026-04-11T15:52:03.971Z</time></trkpt><trkpt lat="44.29860746971657" lon="9.949017677664445"><ele>143.0</ele><time>2026-04-11T15:52:04.971Z</time></trkpt><trkpt lat="44.29875245990245" lon="9.94900174476012"><ele>143.0</ele><time>2026-04-11T15:52:05.971Z</time></trkpt><trkpt lat="44.29889935887198" lon="9.948990471442775"><ele>143.0</ele><time>2026-04-11T15:52:06.971Z</time></trkpt><trkpt lat="44.29904135071795" lon="9.94897649012746"><ele>143.0</ele><time>2026-04-11T15:52:07.971Z</time></trkpt><trkpt lat="44.29918867964978" lon="9.94896452543559"><ele>143.0</ele><time>2026-04-11T15:52:08.971Z</time></trkpt><trkpt lat="44.29933703187273" lon="9.948951341646811"><ele>142.75</ele><time>2026-04-11T15:52:09.971Z</time></trkpt><trkpt lat="44.299485034759314" lon="9.94893193910058"><ele>142.5</ele><time>2026-04-11T15:52:10.971Z</time></trkpt><trkpt lat="44.29963345174174" lon="9.948913674726322"><ele>142.25</ele><time>2026-04-11T15:52:11.971Z</time></trkpt><trkpt lat="44.29977986651787" lon="9.948883865214558"><ele>142.0</ele><time>2026-04-11T15:52:12.971Z</time></trkpt><trkpt lat="44.2999273252609" lon="9.948845158878484"><ele>141.66666666666669</ele><time>2026-04-11T15:52:13.971Z</time></trkpt><trkpt lat="44.3000765650375" lon="9.948808805261592"><ele>141.33333333333334</ele><time>2026-04-11T15:52:14.971Z</time></trkpt><trkpt lat="44.30022647386994" lon="9.948765960032102"><ele>141.0</ele><time>2026-04-11T15:52:15.971Z</time></trkpt><trkpt lat="44.3003768862604" lon="9.948723327835364"><ele>141.0</ele><time>2026-04-11T15:52:16.971Z</time></trkpt><trkpt lat="44.30052491880386" lon="9.948671393919524"><ele>141.0</ele><time>2026-04-11T15:52:17.971Z</time></trkpt><trkpt lat="44.30067452971253" lon="9.948612492226363"><ele>141.0</ele><time>2026-04-11T15:52:18.971Z</time></trkpt><trkpt lat="44.30082409335266" lon="9.948551574689327"><ele>141.33333333333334</ele><time>2026-04-11T15:52:19.971Z</time></trkpt><trkpt lat="44.3009781243841" lon="9.948487788914854"><ele>141.66666666666669</ele><time>2026-04-11T15:52:20.971Z</time></trkpt><trkpt lat="44.3011330908047" lon="9.948431279040342"><ele>142.0</ele><time>2026-04-11T15:52:21.971Z</time></trkpt><trkpt lat="44.30128589221676" lon="9.948372580661873"><ele>143.33333333333334</ele><time>2026-04-11T15:52:22.971Z</time></trkpt><trkpt lat="44.30143679842748" lon="9.948311137263381"><ele>144.66666666666666</ele><time>2026-04-11T15:52:23.971Z</time></trkpt><trkpt lat="44.30158521453628" lon="9.948250180445616"><ele>146.0</ele><time>2026-04-11T15:52:24.971Z</time></trkpt><trkpt lat="44.301735853913" lon="9.948191869112968"><ele>146.0</ele><time>2026-04-11T15:52:25.971Z</time></trkpt><trkpt lat="44.30188382875124" lon="9.94813975331585"><ele>146.0</ele><time>2026-04-11T15:52:26.971Z</time></trkpt><trkpt lat="44.30203273557961" lon="9.948083320889786"><ele>146.0</ele><time>2026-04-11T15:52:27.971Z</time></trkpt><trkpt lat="44.30217758046783" lon="9.948027331133412"><ele>145.75</ele><time>2026-04-11T15:52:28.971Z</time></trkpt><trkpt lat="44.30232296998257" lon="9.947979802645758"><ele>145.5</ele><time>2026-04-11T15:52:29.971Z</time></trkpt><trkpt lat="44.30246092109453" lon="9.947936092829524"><ele>145.25</ele><time>2026-04-11T15:52:30.971Z</time></trkpt><trkpt lat="44.30259665261169" lon="9.947890731160957"><ele>145.0</ele><time>2026-04-11T15:52:31.971Z</time></trkpt><trkpt lat="44.302733461884515" lon="9.947848184916843"><ele>145.0</ele><time>2026-04-11T15:52:32.971Z</time></trkpt><trkpt lat="44.30287693935177" lon="9.947803801350062"><ele>145.0</ele><time>2026-04-11T15:52:33.971Z</time></trkpt><trkpt lat="44.30303096202996" lon="9.94776096078065"><ele>145.0</ele><time>2026-04-11T15:52:34.971Z</time></trkpt><trkpt lat="44.30319975091431" lon="9.94771892600456"><ele>145.33333333333334</ele><time>2026-04-11T15:52:35.971Z</time></trkpt><trkpt lat="44.30338047567143" lon="9.947669168906616"><ele>145.66666666666666</ele><time>2026-04-11T15:52:36.971Z</time></trkpt><trkpt lat="44.303570129892094" lon="9.947613715337459"><ele>146.0</ele><time>2026-04-11T15:52:37.971Z</time></trkpt><trkpt lat="44.30375227930026" lon="9.947560744470401"><ele>145.33333333333331</ele><time>2026-04-11T15:52:38.971Z</time></trkpt><trkpt lat="44.303924650177095" lon="9.947513139533184"><ele>144.66666666666666</ele><time>2026-04-11T15:52:39.971Z</time></trkpt><trkpt lat="44.30408981487488" lon="9.947469463420047"><ele>144.0</ele><time>2026-04-11T15:52:40.971Z</time></trkpt><trkpt lat="44.30424813430056" lon="9.94743033077978"><ele>144.0</ele><time>2026-04-11T15:52:41.971Z</time></trkpt><trkpt lat="44.304406345739395" lon="9.947388858262906"><ele>144.0</ele><time>2026-04-11T15:52:42.971Z</time></trkpt><trkpt lat="44.304562838581354" lon="9.947349362262868"><ele>144.0</ele><time>2026-04-11T15:52:43.971Z</time></trkpt><trkpt lat="44.30471878996622" lon="9.947306534113627"><ele>144.66666666666666</ele><time>2026-04-11T15:52:44.972Z</time></trkpt><trkpt lat="44.30487259720008" lon="9.94725857599714"><ele>145.33333333333331</ele><time>2026-04-11T15:52:45.972Z</time></trkpt><trkpt lat="44.305020789376286" lon="9.947217644793195"><ele>146.0</ele><time>2026-04-11T15:52:46.972Z</time></trkpt><trkpt lat="44.30516852573525" lon="9.947176242203104"><ele>146.0</ele><time>2026-04-11T15:52:47.972Z</time></trkpt><trkpt lat="44.30532268173753" lon="9.947129310612018"><ele>146.0</ele><time>2026-04-11T15:52:48.972Z</time></trkpt><trkpt lat="44.305472673879564" lon="9.947075735231056"><ele>146.0</ele><time>2026-04-11T15:52:49.972Z</time></trkpt><trkpt lat="44.305622006832564" lon="9.947006602129028"><ele>146.0</ele><time>2026-04-11T15:52:50.972Z</time></trkpt><trkpt lat="44.30576474778748" lon="9.946929418228397"><ele>146.0</ele><time>2026-04-11T15:52:51.972Z</time></trkpt><trkpt lat="44.30590709291493" lon="9.946849693934366"><ele>146.0</ele><time>2026-04-11T15:52:52.972Z</time></trkpt><trkpt lat="44.30604952007708" lon="9.946769357055517"><ele>145.5</ele><time>2026-04-11T15:52:53.972Z</time></trkpt><trkpt lat="44.30618785795633" lon="9.946690651755727"><ele>145.0</ele><time>2026-04-11T15:52:54.972Z</time></trkpt><trkpt lat="44.30631867275405" lon="9.94661478574926"><ele>144.5</ele><time>2026-04-11T15:52:55.972Z</time></trkpt><trkpt lat="44.30645752299659" lon="9.946556920540196"><ele>144.0</ele><time>2026-04-11T15:52:56.972Z</time></trkpt><trkpt lat="44.30661118046461" lon="9.94653433174053"><ele>143.66666666666666</ele><time>2026-04-11T15:52:57.972Z</time></trkpt><trkpt lat="44.306773052545225" lon="9.946548875514047"><ele>143.33333333333331</ele><time>2026-04-11T15:52:58.972Z</time></trkpt><trkpt lat="44.30693943362153" lon="9.946579336269322"><ele>143.0</ele><time>2026-04-11T15:52:59.972Z</time></trkpt><trkpt lat="44.3071153477866" lon="9.94659773937274"><ele>143.0</ele><time>2026-04-11T15:53:00.972Z</time></trkpt><trkpt lat="44.30728924473511" lon="9.946614399911645"><ele>143.0</ele><time>2026-04-11T15:53:01.972Z</time></trkpt><trkpt lat="44.307461704443476" lon="9.946629211644026"><ele>143.0</ele><time>2026-04-11T15:53:02.972Z</time></trkpt><trkpt lat="44.30763102150135" lon="9.946642619667095"><ele>143.0</ele><time>2026-04-11T15:53:03.972Z</time></trkpt><trkpt lat="44.30780515189189" lon="9.946647264749267"><ele>143.0</ele><time>2026-04-11T15:53:04.972Z</time></trkpt><trkpt lat="44.30798503745097" lon="9.946635879651277"><ele>143.0</ele><time>2026-04-11T15:53:05.972Z</time></trkpt><trkpt lat="44.308151004942445" lon="9.946607081299145"><ele>143.0</ele><time>2026-04-11T15:53:06.972Z</time></trkpt><trkpt lat="44.308301232103396" lon="9.946573700791516"><ele>143.0</ele><time>2026-04-11T15:53:07.972Z</time></trkpt><trkpt lat="44.30844762968502" lon="9.946538491095971"><ele>143.0</ele><time>2026-04-11T15:53:08.972Z</time></trkpt><trkpt lat="44.30859990536204" lon="9.9465089319702"><ele>143.0</ele><time>2026-04-11T15:53:09.972Z</time></trkpt><trkpt lat="44.308756085580434" lon="9.946481859055927"><ele>143.0</ele><time>2026-04-11T15:53:10.972Z</time></trkpt><trkpt lat="44.3089154155472" lon="9.946465568530375"><ele>143.0</ele><time>2026-04-11T15:53:11.972Z</time></trkpt><trkpt lat="44.309084971160104" lon="9.946459996095594"><ele>142.66666666666666</ele><time>2026-04-11T15:53:12.969Z</time></trkpt><trkpt lat="44.3092829126611" lon="9.946463192681284"><ele>142.33333333333334</ele><time>2026-04-11T15:53:13.969Z</time></trkpt><trkpt lat="44.30950916329799" lon="9.946485049437888"><ele>142.0</ele><time>2026-04-11T15:53:14.969Z</time></trkpt><trkpt lat="44.309740022974005" lon="9.946519450546571"><ele>142.0</ele><time>2026-04-11T15:53:15.97Z</time></trkpt><trkpt lat="44.30995402045032" lon="9.94657039655387"><ele>142.0</ele><time>2026-04-11T15:53:16.969Z</time></trkpt><trkpt lat="44.310147084468944" lon="9.946618318496647"><ele>142.0</ele><time>2026-04-11T15:53:17.969Z</time></trkpt><trkpt lat="44.3103326781209" lon="9.946658415128065"><ele>142.0</ele><time>2026-04-11T15:53:18.969Z</time></trkpt><trkpt lat="44.31050512680228" lon="9.946692859464942"><ele>142.0</ele><time>2026-04-11T15:53:19.969Z</time></trkpt><trkpt lat="44.3106571212765" lon="9.946718088062196"><ele>142.0</ele><time>2026-04-11T15:53:20.969Z</time></trkpt><trkpt lat="44.310796662484336" lon="9.946744321412531"><ele>142.5</ele><time>2026-04-11T15:53:21.97Z</time></trkpt><trkpt lat="44.31093288497336" lon="9.946758221469365"><ele>143.0</ele><time>2026-04-11T15:53:22.969Z</time></trkpt><trkpt lat="44.311068427564116" lon="9.946744211694957"><ele>143.5</ele><time>2026-04-11T15:53:23.969Z</time></trkpt><trkpt lat="44.31121884246974" lon="9.946673794745795"><ele>144.0</ele><time>2026-04-11T15:53:24.969Z</time></trkpt><trkpt lat="44.31135936647441" lon="9.946581183892667"><ele>143.0</ele><time>2026-04-11T15:53:25.969Z</time></trkpt><trkpt lat="44.311485305466555" lon="9.94644472492527"><ele>142.0</ele><time>2026-04-11T15:53:26.969Z</time></trkpt><trkpt lat="44.31160235817764" lon="9.946322354336536"><ele>141.0</ele><time>2026-04-11T15:53:27.969Z</time></trkpt><trkpt lat="44.311721252328134" lon="9.946227777959919"><ele>140.0</ele><time>2026-04-11T15:53:28.969Z</time></trkpt><trkpt lat="44.311848258379186" lon="9.946137861431074"><ele>140.0</ele><time>2026-04-11T15:53:29.969Z</time></trkpt><trkpt lat="44.31198388201161" lon="9.946052284224894"><ele>140.0</ele><time>2026-04-11T15:53:30.969Z</time></trkpt><trkpt lat="44.312123428643794" lon="9.945983318316891"><ele>140.0</ele><time>2026-04-11T15:53:31.969Z</time></trkpt><trkpt lat="44.3122752743549" lon="9.945920735303824"><ele>139.66666666666666</ele><time>2026-04-11T15:53:32.969Z</time></trkpt><trkpt lat="44.31243031913471" lon="9.945857578089996"><ele>139.33333333333334</ele><time>2026-04-11T15:53:33.969Z</time></trkpt><trkpt lat="44.31258658269604" lon="9.945794127277665"><ele>139.0</ele><time>2026-04-11T15:53:34.969Z</time></trkpt><trkpt lat="44.31274499757895" lon="9.945726585202278"><ele>139.0</ele><time>2026-04-11T15:53:35.969Z</time></trkpt><trkpt lat="44.31290635524391" lon="9.945654978190104"><ele>139.0</ele><time>2026-04-11T15:53:36.969Z</time></trkpt><trkpt lat="44.31306149380765" lon="9.945587844688392"><ele>139.0</ele><time>2026-04-11T15:53:37.969Z</time></trkpt><trkpt lat="44.31321282641726" lon="9.945520142924488"><ele>139.33333333333334</ele><time>2026-04-11T15:53:38.969Z</time></trkpt><trkpt lat="44.313361789760954" lon="9.945453010860504"><ele>139.66666666666666</ele><time>2026-04-11T15:53:39.969Z</time></trkpt><trkpt lat="44.31351415778826" lon="9.945387028411266"><ele>140.0</ele><time>2026-04-11T15:53:40.969Z</time></trkpt><trkpt lat="44.31366423285051" lon="9.945318977212052"><ele>140.0</ele><time>2026-04-11T15:53:41.969Z</time></trkpt><trkpt lat="44.313818565980604" lon="9.945254237277465"><ele>140.0</ele><time>2026-04-11T15:53:42.969Z</time></trkpt><trkpt lat="44.31397880413817" lon="9.94518788906451"><ele>140.0</ele><time>2026-04-11T15:53:43.969Z</time></trkpt><trkpt lat="44.314139320348396" lon="9.945115402679944"><ele>139.0</ele><time>2026-04-11T15:53:44.969Z</time></trkpt><trkpt lat="44.3143128229084" lon="9.945026422797559"><ele>138.0</ele><time>2026-04-11T15:53:45.969Z</time></trkpt><trkpt lat="44.31452173094656" lon="9.944919833850536"><ele>137.0</ele><time>2026-04-11T15:53:46.969Z</time></trkpt><trkpt lat="44.31474534659471" lon="9.944828385885621"><ele>137.0</ele><time>2026-04-11T15:53:47.969Z</time></trkpt><trkpt lat="44.31496950176859" lon="9.944747451513255"><ele>137.0</ele><time>2026-04-11T15:53:48.969Z</time></trkpt><trkpt lat="44.3151807915152" lon="9.944665422227576"><ele>137.0</ele><time>2026-04-11T15:53:49.969Z</time></trkpt><trkpt lat="44.31538710594404" lon="9.94458027120298"><ele>137.0</ele><time>2026-04-11T15:53:50.969Z</time></trkpt><trkpt lat="44.315586153591404" lon="9.94449078325393"><ele>137.0</ele><time>2026-04-11T15:53:51.969Z</time></trkpt><trkpt lat="44.315786886955856" lon="9.944399929561829"><ele>137.33333333333331</ele><time>2026-04-11T15:53:52.969Z</time></trkpt><trkpt lat="44.31598631499419" lon="9.944301087485718"><ele>137.66666666666666</ele><time>2026-04-11T15:53:53.969Z</time></trkpt><trkpt lat="44.31620351755648" lon="9.944195339535467"><ele>138.0</ele><time>2026-04-11T15:53:54.969Z</time></trkpt><trkpt lat="44.31642282490528" lon="9.944093108521598"><ele>138.0</ele><time>2026-04-11T15:53:55.97Z</time></trkpt><trkpt lat="44.31664660597383" lon="9.943989768127018"><ele>138.0</ele><time>2026-04-11T15:53:56.97Z</time></trkpt><trkpt lat="44.31687934021715" lon="9.943891087588412"><ele>138.0</ele><time>2026-04-11T15:53:57.97Z</time></trkpt><trkpt lat="44.317111950867535" lon="9.94379153054357"><ele>138.0</ele><time>2026-04-11T15:53:58.97Z</time></trkpt><trkpt lat="44.317345552309725" lon="9.943682699872209"><ele>139.5</ele><time>2026-04-11T15:53:59.97Z</time></trkpt><trkpt lat="44.317569852569704" lon="9.943579231635978"><ele>141.0</ele><time>2026-04-11T15:54:00.97Z</time></trkpt><trkpt lat="44.317788056347005" lon="9.943476473380104"><ele>141.0</ele><time>2026-04-11T15:54:01.97Z</time></trkpt><trkpt lat="44.31800213156569" lon="9.94337979361191"><ele>141.0</ele><time>2026-04-11T15:54:02.97Z</time></trkpt><trkpt lat="44.31821508351811" lon="9.94328062931196"><ele>141.0</ele><time>2026-04-11T15:54:03.97Z</time></trkpt><trkpt lat="44.31841815328495" lon="9.943181080995304"><ele>141.0</ele><time>2026-04-11T15:54:04.97Z</time></trkpt><trkpt lat="44.318612717767266" lon="9.943082570906478"><ele>141.0</ele><time>2026-04-11T15:54:05.97Z</time></trkpt><trkpt lat="44.31881031092612" lon="9.942989279010325"><ele>141.0</ele><time>2026-04-11T15:54:06.97Z</time></trkpt><trkpt lat="44.319014402605504" lon="9.94288935901631"><ele>141.5</ele><time>2026-04-11T15:54:07.97Z</time></trkpt><trkpt lat="44.319236544205836" lon="9.942777047448848"><ele>142.0</ele><time>2026-04-11T15:54:08.97Z</time></trkpt><trkpt lat="44.319483078061324" lon="9.942647447712062"><ele>142.0</ele><time>2026-04-11T15:54:09.97Z</time></trkpt><trkpt lat="44.31974612745771" lon="9.942522402447764"><ele>142.0</ele><time>2026-04-11T15:54:10.97Z</time></trkpt><trkpt lat="44.32001091970344" lon="9.942412160803013"><ele>142.0</ele><time>2026-04-11T15:54:11.97Z</time></trkpt><trkpt lat="44.320273907226166" lon="9.942302073537164"><ele>142.0</ele><time>2026-04-11T15:54:12.97Z</time></trkpt><trkpt lat="44.32052931380623" lon="9.94218795732424"><ele>142.0</ele><time>2026-04-11T15:54:13.97Z</time></trkpt><trkpt lat="44.320773598943354" lon="9.942074533163296"><ele>142.0</ele><time>2026-04-11T15:54:14.97Z</time></trkpt><trkpt lat="44.321008871805624" lon="9.941966416355758"><ele>142.0</ele><time>2026-04-11T15:54:15.97Z</time></trkpt><trkpt lat="44.32123274485165" lon="9.94186651558641"><ele>142.0</ele><time>2026-04-11T15:54:16.97Z</time></trkpt><trkpt lat="44.32145492803494" lon="9.941761578758635"><ele>142.5</ele><time>2026-04-11T15:54:17.97Z</time></trkpt><trkpt lat="44.32167101881785" lon="9.941657116693289"><ele>143.0</ele><time>2026-04-11T15:54:18.97Z</time></trkpt><trkpt lat="44.321880692816116" lon="9.941553572763626"><ele>143.0</ele><time>2026-04-11T15:54:19.97Z</time></trkpt><trkpt lat="44.32208503456904" lon="9.94145454706049"><ele>143.0</ele><time>2026-04-11T15:54:20.97Z</time></trkpt><trkpt lat="44.32229222063061" lon="9.941358801908127"><ele>143.0</ele><time>2026-04-11T15:54:21.97Z</time></trkpt><trkpt lat="44.322492648040495" lon="9.941264277270966"><ele>143.33333333333331</ele><time>2026-04-11T15:54:22.97Z</time></trkpt><trkpt lat="44.32267988188229" lon="9.941179093477555"><ele>143.66666666666666</ele><time>2026-04-11T15:54:23.97Z</time></trkpt><trkpt lat="44.3228553637315" lon="9.941098211425151"><ele>144.0</ele><time>2026-04-11T15:54:24.97Z</time></trkpt><trkpt lat="44.323025900851206" lon="9.941020042959373"><ele>144.66666666666666</ele><time>2026-04-11T15:54:25.97Z</time></trkpt><trkpt lat="44.32320454679205" lon="9.940934057178586"><ele>145.33333333333331</ele><time>2026-04-11T15:54:26.97Z</time></trkpt><trkpt lat="44.32339612992299" lon="9.940834152474967"><ele>146.0</ele><time>2026-04-11T15:54:27.97Z</time></trkpt><trkpt lat="44.32360201888118" lon="9.940727442129576"><ele>146.0</ele><time>2026-04-11T15:54:28.97Z</time></trkpt><trkpt lat="44.32382269666465" lon="9.940606885236107"><ele>146.0</ele><time>2026-04-11T15:54:29.97Z</time></trkpt><trkpt lat="44.32404837154519" lon="9.94051175313822"><ele>146.0</ele><time>2026-04-11T15:54:30.97Z</time></trkpt><trkpt lat="44.32426700300421" lon="9.940427008268102"><ele>146.0</ele><time>2026-04-11T15:54:31.97Z</time></trkpt><trkpt lat="44.32447705172073" lon="9.940336967443239"><ele>146.0</ele><time>2026-04-11T15:54:32.97Z</time></trkpt><trkpt lat="44.324674587442914" lon="9.940242761111055"><ele>146.0</ele><time>2026-04-11T15:54:33.97Z</time></trkpt><trkpt lat="44.32487069293039" lon="9.940150403122175"><ele>146.0</ele><time>2026-04-11T15:54:34.97Z</time></trkpt><trkpt lat="44.32505162766566" lon="9.940059964307666"><ele>146.0</ele><time>2026-04-11T15:54:35.97Z</time></trkpt><trkpt lat="44.325228844285185" lon="9.9399702114166"><ele>146.0</ele><time>2026-04-11T15:54:36.97Z</time></trkpt><trkpt lat="44.325399273713586" lon="9.939876127369784"><ele>146.0</ele><time>2026-04-11T15:54:37.97Z</time></trkpt><trkpt lat="44.32556504274351" lon="9.939783963605674"><ele>146.0</ele><time>2026-04-11T15:54:38.97Z</time></trkpt><trkpt lat="44.325716407331164" lon="9.939698631980939"><ele>148.0</ele><time>2026-04-11T15:54:39.97Z</time></trkpt><trkpt lat="44.32586277720066" lon="9.93961720227479"><ele>150.0</ele><time>2026-04-11T15:54:40.97Z</time></trkpt><trkpt lat="44.325997063254626" lon="9.939543370174732"><ele>152.0</ele><time>2026-04-11T15:54:41.97Z</time></trkpt><trkpt lat="44.32612138171253" lon="9.939472509437175"><ele>154.0</ele><time>2026-04-11T15:54:42.97Z</time></trkpt><trkpt lat="44.32624580980293" lon="9.939401940716246"><ele>154.0</ele><time>2026-04-11T15:54:43.97Z</time></trkpt><trkpt lat="44.326370543246775" lon="9.93932890714043"><ele>154.0</ele><time>2026-04-11T15:54:44.97Z</time></trkpt><trkpt lat="44.326497476997886" lon="9.93925863425407"><ele>154.0</ele><time>2026-04-11T15:54:45.97Z</time></trkpt><trkpt lat="44.3266231578079" lon="9.939190910923033"><ele>154.0</ele><time>2026-04-11T15:54:46.97Z</time></trkpt><trkpt lat="44.32674759463225" lon="9.939120063658489"><ele>153.25</ele><time>2026-04-11T15:54:47.97Z</time></trkpt><trkpt lat="44.32687251091282" lon="9.939050181574073"><ele>152.5</ele><time>2026-04-11T15:54:48.97Z</time></trkpt><trkpt lat="44.3269933565227" lon="9.938980951536577"><ele>151.75</ele><time>2026-04-11T15:54:49.97Z</time></trkpt><trkpt lat="44.327101267001034" lon="9.938908374074796"><ele>151.0</ele><time>2026-04-11T15:54:50.97Z</time></trkpt><trkpt lat="44.32721083606729" lon="9.938835253660486"><ele>151.75</ele><time>2026-04-11T15:54:51.97Z</time></trkpt><trkpt lat="44.327327128368985" lon="9.93875116695595"><ele>152.5</ele><time>2026-04-11T15:54:52.97Z</time></trkpt><trkpt lat="44.32743093766179" lon="9.938649342736419"><ele>153.25</ele><time>2026-04-11T15:54:53.97Z</time></trkpt><trkpt lat="44.32752560487967" lon="9.938535160591647"><ele>154.0</ele><time>2026-04-11T15:54:54.97Z</time></trkpt><trkpt lat="44.32761500353066" lon="9.938397277309894"><ele>153.33333333333334</ele><time>2026-04-11T15:54:55.97Z</time></trkpt><trkpt lat="44.327703727142314" lon="9.938248041455669"><ele>152.66666666666666</ele><time>2026-04-11T15:54:56.97Z</time></trkpt><trkpt lat="44.32780052275009" lon="9.938065733663016"><ele>152.0</ele><time>2026-04-11T15:54:57.97Z</time></trkpt><trkpt lat="44.327913514095854" lon="9.937852266992978"><ele>152.0</ele><time>2026-04-11T15:54:58.97Z</time></trkpt><trkpt lat="44.328039446541865" lon="9.937626571379754"><ele>152.0</ele><time>2026-04-11T15:54:59.97Z</time></trkpt><trkpt lat="44.32818611312315" lon="9.93738096059637"><ele>152.0</ele><time>2026-04-11T15:55:00.97Z</time></trkpt><trkpt lat="44.328335170281534" lon="9.937126699987518"><ele>152.0</ele><time>2026-04-11T15:55:01.97Z</time></trkpt><trkpt lat="44.32848136372443" lon="9.936853697551411"><ele>152.0</ele><time>2026-04-11T15:55:02.97Z</time></trkpt><trkpt lat="44.32863043543753" lon="9.936588402306851"><ele>152.0</ele><time>2026-04-11T15:55:03.97Z</time></trkpt><trkpt lat="44.328765709721466" lon="9.93638714157024"><ele>152.0</ele><time>2026-04-11T15:55:04.97Z</time></trkpt><trkpt lat="44.32890488821258" lon="9.936145799781613"><ele>152.0</ele><time>2026-04-11T15:55:05.97Z</time></trkpt><trkpt lat="44.32904565768062" lon="9.935910992452376"><ele>152.33333333333331</ele><time>2026-04-11T15:55:06.97Z</time></trkpt><trkpt lat="44.32918358993032" lon="9.935680439817506"><ele>152.66666666666666</ele><time>2026-04-11T15:55:07.97Z</time></trkpt><trkpt lat="44.32931627980188" lon="9.935449419901136"><ele>153.0</ele><time>2026-04-11T15:55:08.97Z</time></trkpt><trkpt lat="44.329447344513476" lon="9.935217220035295"><ele>152.66666666666666</ele><time>2026-04-11T15:55:09.97Z</time></trkpt><trkpt lat="44.329576307877375" lon="9.934993442007755"><ele>152.33333333333331</ele><time>2026-04-11T15:55:10.97Z</time></trkpt><trkpt lat="44.32970514419891" lon="9.934772059185542"><ele>152.0</ele><time>2026-04-11T15:55:11.97Z</time></trkpt><trkpt lat="44.32982857390414" lon="9.934548123671327"><ele>153.33333333333331</ele><time>2026-04-11T15:55:12.97Z</time></trkpt><trkpt lat="44.32995253105784" lon="9.934321257263035"><ele>154.66666666666666</ele><time>2026-04-11T15:55:13.97Z</time></trkpt><trkpt lat="44.330066875012264" lon="9.934087075355974"><ele>156.0</ele><time>2026-04-11T15:55:14.97Z</time></trkpt><trkpt lat="44.33017634250277" lon="9.933850015913299"><ele>156.0</ele><time>2026-04-11T15:55:15.97Z</time></trkpt><trkpt lat="44.330285262599794" lon="9.933616262651768"><ele>156.0</ele><time>2026-04-11T15:55:16.97Z</time></trkpt><trkpt lat="44.3303939886877" lon="9.933382044233843"><ele>156.0</ele><time>2026-04-11T15:55:17.97Z</time></trkpt><trkpt lat="44.33050815855535" lon="9.933150912711612"><ele>156.33333333333334</ele><time>2026-04-11T15:55:18.968Z</time></trkpt><trkpt lat="44.33061644523303" lon="9.932918137671125"><ele>156.66666666666669</ele><time>2026-04-11T15:55:19.968Z</time></trkpt><trkpt lat="44.330723503097005" lon="9.932673152759879"><ele>157.0</ele><time>2026-04-11T15:55:20.968Z</time></trkpt><trkpt lat="44.33083583858638" lon="9.932440267149941"><ele>156.33333333333334</ele><time>2026-04-11T15:55:21.967Z</time></trkpt><trkpt lat="44.33094546798459" lon="9.93220319172886"><ele>155.66666666666666</ele><time>2026-04-11T15:55:22.968Z</time></trkpt><trkpt lat="44.33105452220159" lon="9.931971510976869"><ele>155.0</ele><time>2026-04-11T15:55:23.968Z</time></trkpt><trkpt lat="44.331160555683624" lon="9.931738280018891"><ele>154.66666666666666</ele><time>2026-04-11T15:55:24.968Z</time></trkpt><trkpt lat="44.33127022640125" lon="9.931504773076073"><ele>154.33333333333334</ele><time>2026-04-11T15:55:25.968Z</time></trkpt><trkpt lat="44.33137590546451" lon="9.931277731150724"><ele>154.0</ele><time>2026-04-11T15:55:26.968Z</time></trkpt><trkpt lat="44.33147596968737" lon="9.93106255560341"><ele>154.0</ele><time>2026-04-11T15:55:27.968Z</time></trkpt><trkpt lat="44.33157017028185" lon="9.930857173735507"><ele>154.0</ele><time>2026-04-11T15:55:28.967Z</time></trkpt><trkpt lat="44.331656440793026" lon="9.93067920576164"><ele>154.0</ele><time>2026-04-11T15:55:29.967Z</time></trkpt><trkpt lat="44.331732958267715" lon="9.930523722735389"><ele>154.0</ele><time>2026-04-11T15:55:30.967Z</time></trkpt><trkpt lat="44.331793021987764" lon="9.930401207940733"><ele>154.0</ele><time>2026-04-11T15:55:31.968Z</time></trkpt><trkpt lat="44.33184845347377" lon="9.930308749815485"><ele>154.0</ele><time>2026-04-11T15:55:32.968Z</time></trkpt><trkpt lat="44.3319173173573" lon="9.930248937381956"><ele>154.0</ele><time>2026-04-11T15:55:33.968Z</time></trkpt><trkpt lat="44.33201510626603" lon="9.930206354337232"><ele>154.0</ele><time>2026-04-11T15:55:34.968Z</time></trkpt><trkpt lat="44.332097639432085" lon="9.930096359034735"><ele>154.0</ele><time>2026-04-11T15:55:35.968Z</time></trkpt><trkpt lat="44.33211130790573" lon="9.929958273807044"><ele>154.0</ele><time>2026-04-11T15:55:36.968Z</time></trkpt><trkpt lat="44.332139292676366" lon="9.929806802304316"><ele>154.0</ele><time>2026-04-11T15:55:37.968Z</time></trkpt><trkpt lat="44.33220696190463" lon="9.929631311325071"><ele>154.0</ele><time>2026-04-11T15:55:38.968Z</time></trkpt><trkpt lat="44.332271178082614" lon="9.929414568984628"><ele>155.66666666666669</ele><time>2026-04-11T15:55:39.968Z</time></trkpt><trkpt lat="44.33236585474836" lon="9.929216383567542"><ele>157.33333333333334</ele><time>2026-04-11T15:55:40.968Z</time></trkpt><trkpt lat="44.33246441099142" lon="9.929000311891716"><ele>159.0</ele><time>2026-04-11T15:55:41.968Z</time></trkpt><trkpt lat="44.33255989731281" lon="9.928773888062187"><ele>159.0</ele><time>2026-04-11T15:55:42.968Z</time></trkpt><trkpt lat="44.332651419786856" lon="9.928536014184376"><ele>159.0</ele><time>2026-04-11T15:55:43.968Z</time></trkpt><trkpt lat="44.33274166843932" lon="9.928292478199435"><ele>159.0</ele><time>2026-04-11T15:55:44.968Z</time></trkpt><trkpt lat="44.33283332791146" lon="9.928050926792206"><ele>158.66666666666666</ele><time>2026-04-11T15:55:45.968Z</time></trkpt><trkpt lat="44.332915932909316" lon="9.927833670349333"><ele>158.33333333333331</ele><time>2026-04-11T15:55:46.968Z</time></trkpt><trkpt lat="44.33298479158181" lon="9.927625471375157"><ele>158.0</ele><time>2026-04-11T15:55:47.968Z</time></trkpt><trkpt lat="44.33304039780574" lon="9.927420775237048"><ele>158.33333333333331</ele><time>2026-04-11T15:55:48.968Z</time></trkpt><trkpt lat="44.333081993338844" lon="9.927198448462313"><ele>158.66666666666666</ele><time>2026-04-11T15:55:49.968Z</time></trkpt><trkpt lat="44.33310156922249" lon="9.926957406374854"><ele>159.0</ele><time>2026-04-11T15:55:50.968Z</time></trkpt><trkpt lat="44.333106509352994" lon="9.926732642589554"><ele>159.25</ele><time>2026-04-11T15:55:51.968Z</time></trkpt><trkpt lat="44.333110144553984" lon="9.926531304131268"><ele>159.5</ele><time>2026-04-11T15:55:52.968Z</time></trkpt><trkpt lat="44.3331132182964" lon="9.926345477054339"><ele>159.75</ele><time>2026-04-11T15:55:53.968Z</time></trkpt><trkpt lat="44.333118340114154" lon="9.926173334987846"><ele>160.0</ele><time>2026-04-11T15:55:54.968Z</time></trkpt><trkpt lat="44.33312660322231" lon="9.92600584688646"><ele>160.0</ele><time>2026-04-11T15:55:55.968Z</time></trkpt><trkpt lat="44.33313187129855" lon="9.925836150688157"><ele>160.0</ele><time>2026-04-11T15:55:56.968Z</time></trkpt><trkpt lat="44.333141252260155" lon="9.925665232986015"><ele>160.0</ele><time>2026-04-11T15:55:57.968Z</time></trkpt><trkpt lat="44.333161997596704" lon="9.925501158290688"><ele>160.0</ele><time>2026-04-11T15:55:58.968Z</time></trkpt><trkpt lat="44.33319648324005" lon="9.92534484828432"><ele>160.0</ele><time>2026-04-11T15:55:59.968Z</time></trkpt><trkpt lat="44.33324069592607" lon="9.925191103152706"><ele>160.0</ele><time>2026-04-11T15:56:00.968Z</time></trkpt><trkpt lat="44.33329337579058" lon="9.925040414071155"><ele>160.0</ele><time>2026-04-11T15:56:01.968Z</time></trkpt><trkpt lat="44.33335105702742" lon="9.924892931978032"><ele>160.0</ele><time>2026-04-11T15:56:02.968Z</time></trkpt><trkpt lat="44.33340728722316" lon="9.924742001193133"><ele>160.0</ele><time>2026-04-11T15:56:03.968Z</time></trkpt><trkpt lat="44.33346722136454" lon="9.924595497211989"><ele>160.0</ele><time>2026-04-11T15:56:04.968Z</time></trkpt><trkpt lat="44.33352703265638" lon="9.924444350342249"><ele>160.0</ele><time>2026-04-11T15:56:05.968Z</time></trkpt><trkpt lat="44.333584828235374" lon="9.924294309728614"><ele>160.0</ele><time>2026-04-11T15:56:06.968Z</time></trkpt><trkpt lat="44.33364191937137" lon="9.924142004845205"><ele>160.0</ele><time>2026-04-11T15:56:07.968Z</time></trkpt><trkpt lat="44.33369886181062" lon="9.923992460965572"><ele>160.0</ele><time>2026-04-11T15:56:08.968Z</time></trkpt><trkpt lat="44.33375021233239" lon="9.923832700130157"><ele>160.0</ele><time>2026-04-11T15:56:09.968Z</time></trkpt><trkpt lat="44.33379766392532" lon="9.923673586008794"><ele>160.0</ele><time>2026-04-11T15:56:10.968Z</time></trkpt><trkpt lat="44.33386056036095" lon="9.92351998971371"><ele>161.0</ele><time>2026-04-11T15:56:11.968Z</time></trkpt><trkpt lat="44.33394671413854" lon="9.923382240425905"><ele>162.0</ele><time>2026-04-11T15:56:12.968Z</time></trkpt><trkpt lat="44.33405220101193" lon="9.923264832852965"><ele>163.0</ele><time>2026-04-11T15:56:13.968Z</time></trkpt><trkpt lat="44.33415338933336" lon="9.923150457492838"><ele>164.0</ele><time>2026-04-11T15:56:14.968Z</time></trkpt><trkpt lat="44.334246287939656" lon="9.923032507389165"><ele>164.0</ele><time>2026-04-11T15:56:15.968Z</time></trkpt><trkpt lat="44.3343331032272" lon="9.922907594458588"><ele>164.0</ele><time>2026-04-11T15:56:16.968Z</time></trkpt><trkpt lat="44.33441995022768" lon="9.922771800913742"><ele>164.0</ele><time>2026-04-11T15:56:17.968Z</time></trkpt><trkpt lat="44.33451128700477" lon="9.922633503282858"><ele>164.0</ele><time>2026-04-11T15:56:18.968Z</time></trkpt><trkpt lat="44.33460297422642" lon="9.922494366106491"><ele>164.0</ele><time>2026-04-11T15:56:19.968Z</time></trkpt><trkpt lat="44.334692677288054" lon="9.922346573836561"><ele>164.0</ele><time>2026-04-11T15:56:20.968Z</time></trkpt><trkpt lat="44.33478425132309" lon="9.922195663582066"><ele>164.0</ele><time>2026-04-11T15:56:21.968Z</time></trkpt><trkpt lat="44.334878556063366" lon="9.922048246164954"><ele>164.0</ele><time>2026-04-11T15:56:22.968Z</time></trkpt><trkpt lat="44.33497364366547" lon="9.921898000900006"><ele>164.0</ele><time>2026-04-11T15:56:23.968Z</time></trkpt><trkpt lat="44.33507093054322" lon="9.921752648834028"><ele>164.0</ele><time>2026-04-11T15:56:24.968Z</time></trkpt><trkpt lat="44.3351634259242" lon="9.921602853702716"><ele>164.0</ele><time>2026-04-11T15:56:25.968Z</time></trkpt><trkpt lat="44.335250865022005" lon="9.921452608938706"><ele>164.0</ele><time>2026-04-11T15:56:26.968Z</time></trkpt><trkpt lat="44.335338576204265" lon="9.921307279175645"><ele>164.0</ele><time>2026-04-11T15:56:27.968Z</time></trkpt><trkpt lat="44.33542417177947" lon="9.921162529055643"><ele>164.0</ele><time>2026-04-11T15:56:28.968Z</time></trkpt><trkpt lat="44.335503588239554" lon="9.92102556593388"><ele>164.0</ele><time>2026-04-11T15:56:29.968Z</time></trkpt><trkpt lat="44.33557574797759" lon="9.920888370618036"><ele>164.0</ele><time>2026-04-11T15:56:30.968Z</time></trkpt><trkpt lat="44.335648685562205" lon="9.920742154802985"><ele>164.0</ele><time>2026-04-11T15:56:31.968Z</time></trkpt><trkpt lat="44.33572222707888" lon="9.920572449743895"><ele>164.0</ele><time>2026-04-11T15:56:32.968Z</time></trkpt><trkpt lat="44.33579255244294" lon="9.92039790403914"><ele>164.0</ele><time>2026-04-11T15:56:33.968Z</time></trkpt><trkpt lat="44.33586037003667" lon="9.92021782160914"><ele>164.0</ele><time>2026-04-11T15:56:34.968Z</time></trkpt><trkpt lat="44.33591990078085" lon="9.920038176177936"><ele>163.75</ele><time>2026-04-11T15:56:35.968Z</time></trkpt><trkpt lat="44.33597978580821" lon="9.919858962612"><ele>163.5</ele><time>2026-04-11T15:56:36.968Z</time></trkpt><trkpt lat="44.33603950882603" lon="9.91967313833092"><ele>163.25</ele><time>2026-04-11T15:56:37.968Z</time></trkpt><trkpt lat="44.336097788221835" lon="9.919485542110996"><ele>163.0</ele><time>2026-04-11T15:56:38.968Z</time></trkpt><trkpt lat="44.336157534665546" lon="9.919301064418567"><ele>163.0</ele><time>2026-04-11T15:56:39.968Z</time></trkpt><trkpt lat="44.33622183909792" lon="9.919111923715871"><ele>163.0</ele><time>2026-04-11T15:56:40.968Z</time></trkpt><trkpt lat="44.33628729143858" lon="9.918918944007325"><ele>163.0</ele><time>2026-04-11T15:56:41.968Z</time></trkpt><trkpt lat="44.336351674932004" lon="9.918725710424395"><ele>163.0</ele><time>2026-04-11T15:56:42.968Z</time></trkpt><trkpt lat="44.33641694536746" lon="9.918536311193217"><ele>163.0</ele><time>2026-04-11T15:56:43.968Z</time></trkpt><trkpt lat="44.336484221768956" lon="9.918333314293191"><ele>163.0</ele><time>2026-04-11T15:56:44.968Z</time></trkpt><trkpt lat="44.33655640600924" lon="9.918098308946472"><ele>163.33333333333334</ele><time>2026-04-11T15:56:45.968Z</time></trkpt><trkpt lat="44.336642117273676" lon="9.917832270597195"><ele>163.66666666666666</ele><time>2026-04-11T15:56:46.968Z</time></trkpt><trkpt lat="44.33673703741208" lon="9.917551257760453"><ele>164.0</ele><time>2026-04-11T15:56:47.968Z</time></trkpt><trkpt lat="44.336835249496716" lon="9.917271343585252"><ele>164.33333333333331</ele><time>2026-04-11T15:56:48.968Z</time></trkpt><trkpt lat="44.33693397247313" lon="9.916992380550504"><ele>164.66666666666666</ele><time>2026-04-11T15:56:49.968Z</time></trkpt><trkpt lat="44.337028006605436" lon="9.91671325328817"><ele>165.0</ele><time>2026-04-11T15:56:50.968Z</time></trkpt><trkpt lat="44.337124913283674" lon="9.916442054090872"><ele>166.33333333333334</ele><time>2026-04-11T15:56:51.968Z</time></trkpt><trkpt lat="44.33723211060134" lon="9.916176961820643"><ele>167.66666666666669</ele><time>2026-04-11T15:56:52.968Z</time></trkpt><trkpt lat="44.337357393481305" lon="9.915920627784455"><ele>169.0</ele><time>2026-04-11T15:56:53.968Z</time></trkpt><trkpt lat="44.33749596407398" lon="9.91567972111705"><ele>169.0</ele><time>2026-04-11T15:56:54.968Z</time></trkpt><trkpt lat="44.337632905133084" lon="9.915442407404452"><ele>169.0</ele><time>2026-04-11T15:56:55.968Z</time></trkpt><trkpt lat="44.33776433181926" lon="9.915199646148555"><ele>169.0</ele><time>2026-04-11T15:56:56.968Z</time></trkpt><trkpt lat="44.33789696701986" lon="9.914953062474801"><ele>169.33333333333334</ele><time>2026-04-11T15:56:57.968Z</time></trkpt><trkpt lat="44.33803350303035" lon="9.914712165738086"><ele>169.66666666666666</ele><time>2026-04-11T15:56:58.968Z</time></trkpt><trkpt lat="44.33817186434094" lon="9.91446766536961"><ele>170.0</ele><time>2026-04-11T15:56:59.968Z</time></trkpt><trkpt lat="44.33830567604306" lon="9.914224016076297"><ele>171.66666666666666</ele><time>2026-04-11T15:57:00.968Z</time></trkpt><trkpt lat="44.33844344870963" lon="9.91397751398593"><ele>173.33333333333334</ele><time>2026-04-11T15:57:01.968Z</time></trkpt><trkpt lat="44.33858008107702" lon="9.913735582414473"><ele>175.0</ele><time>2026-04-11T15:57:02.968Z</time></trkpt><trkpt lat="44.33871542700434" lon="9.913493418950988"><ele>175.0</ele><time>2026-04-11T15:57:03.968Z</time></trkpt><trkpt lat="44.33884957096817" lon="9.913251124420125"><ele>175.0</ele><time>2026-04-11T15:57:04.968Z</time></trkpt><trkpt lat="44.338983327806595" lon="9.913011788069605"><ele>175.0</ele><time>2026-04-11T15:57:05.968Z</time></trkpt><trkpt lat="44.33911658865219" lon="9.912784334911272"><ele>176.66666666666669</ele><time>2026-04-11T15:57:06.968Z</time></trkpt><trkpt lat="44.33926131248451" lon="9.912570121202162"><ele>178.33333333333334</ele><time>2026-04-11T15:57:07.968Z</time></trkpt><trkpt lat="44.33942312443313" lon="9.912376543531016"><ele>180.0</ele><time>2026-04-11T15:57:08.968Z</time></trkpt><trkpt lat="44.339602572013064" lon="9.912213489886582"><ele>181.0</ele><time>2026-04-11T15:57:09.968Z</time></trkpt><trkpt lat="44.339786690019494" lon="9.912067822762065"><ele>182.0</ele><time>2026-04-11T15:57:10.968Z</time></trkpt><trkpt lat="44.33997358810671" lon="9.911921786479287"><ele>183.0</ele><time>2026-04-11T15:57:11.968Z</time></trkpt><trkpt lat="44.340169273958324" lon="9.91178263598407"><ele>182.66666666666666</ele><time>2026-04-11T15:57:12.968Z</time></trkpt><trkpt lat="44.34037094241193" lon="9.911660667993628"><ele>182.33333333333331</ele><time>2026-04-11T15:57:13.968Z</time></trkpt><trkpt lat="44.340583289659435" lon="9.911548970961304"><ele>182.0</ele><time>2026-04-11T15:57:14.968Z</time></trkpt><trkpt lat="44.34079284178499" lon="9.911448860015849"><ele>182.0</ele><time>2026-04-11T15:57:15.968Z</time></trkpt><trkpt lat="44.34100823994279" lon="9.911357047965792"><ele>182.0</ele><time>2026-04-11T15:57:16.968Z</time></trkpt><trkpt lat="44.341225505982074" lon="9.9112783850178"><ele>182.0</ele><time>2026-04-11T15:57:17.968Z</time></trkpt><trkpt lat="44.34144626926725" lon="9.911216705891508"><ele>182.0</ele><time>2026-04-11T15:57:18.968Z</time></trkpt><trkpt lat="44.34167040466477" lon="9.911173692141395"><ele>182.0</ele><time>2026-04-11T15:57:19.968Z</time></trkpt><trkpt lat="44.34189687985585" lon="9.911143441302764"><ele>182.0</ele><time>2026-04-11T15:57:20.968Z</time></trkpt><trkpt lat="44.34212469619289" lon="9.911120432965559"><ele>183.0</ele><time>2026-04-11T15:57:21.968Z</time></trkpt><trkpt lat="44.34235385211251" lon="9.911121353611826"><ele>184.0</ele><time>2026-04-11T15:57:22.969Z</time></trkpt><trkpt lat="44.34258115118486" lon="9.911139041493728"><ele>184.0</ele><time>2026-04-11T15:57:23.969Z</time></trkpt><trkpt lat="44.34280956039479" lon="9.911183287566661"><ele>184.0</ele><time>2026-04-11T15:57:24.966Z</time></trkpt><trkpt lat="44.34303336701632" lon="9.91125245567336"><ele>184.0</ele><time>2026-04-11T15:57:25.967Z</time></trkpt><trkpt lat="44.3432522843792" lon="9.911330591726745"><ele>184.0</ele><time>2026-04-11T15:57:26.967Z</time></trkpt><trkpt lat="44.34347162138143" lon="9.911401964432237"><ele>184.0</ele><time>2026-04-11T15:57:27.966Z</time></trkpt><trkpt lat="44.3436877881852" lon="9.911471881839391"><ele>184.0</ele><time>2026-04-11T15:57:28.966Z</time></trkpt><trkpt lat="44.34389603755645" lon="9.911535514661688"><ele>184.0</ele><time>2026-04-11T15:57:29.966Z</time></trkpt><trkpt lat="44.3440899482386" lon="9.911595946988097"><ele>185.0</ele><time>2026-04-11T15:57:30.967Z</time></trkpt><trkpt lat="44.34427000098749" lon="9.911652553413568"><ele>186.0</ele><time>2026-04-11T15:57:31.966Z</time></trkpt><trkpt lat="44.344446214127274" lon="9.911706846737639"><ele>187.0</ele><time>2026-04-11T15:57:32.966Z</time></trkpt><trkpt lat="44.3446233119594" lon="9.911750960926248"><ele>187.75</ele><time>2026-04-11T15:57:33.967Z</time></trkpt><trkpt lat="44.344787218980045" lon="9.911770178394594"><ele>188.5</ele><time>2026-04-11T15:57:34.966Z</time></trkpt><trkpt lat="44.344934428185155" lon="9.911774325491349"><ele>189.25</ele><time>2026-04-11T15:57:35.966Z</time></trkpt><trkpt lat="44.34506825559211" lon="9.911769900551414"><ele>190.0</ele><time>2026-04-11T15:57:36.966Z</time></trkpt><trkpt lat="44.34518824690729" lon="9.911768112795865"><ele>190.0</ele><time>2026-04-11T15:57:37.966Z</time></trkpt><trkpt lat="44.345283570766306" lon="9.911763979556083"><ele>190.0</ele><time>2026-04-11T15:57:38.966Z</time></trkpt><trkpt lat="44.34536032919402" lon="9.91176697345441"><ele>190.0</ele><time>2026-04-11T15:57:39.966Z</time></trkpt><trkpt lat="44.345462111401275" lon="9.91181859368309"><ele>190.0</ele><time>2026-04-11T15:57:41.966Z</time></trkpt><trkpt lat="44.34547957169232" lon="9.91197765283143"><ele>190.0</ele><time>2026-04-11T15:57:43.966Z</time></trkpt><trkpt lat="44.34541452704657" lon="9.91212549915087"><ele>190.0</ele><time>2026-04-11T15:57:45.966Z</time></trkpt><trkpt lat="44.345319743480076" lon="9.912246770471102"><ele>190.0</ele><time>2026-04-11T15:57:47.966Z</time></trkpt><trkpt lat="44.34523498272399" lon="9.912343425860676"><ele>190.0</ele><time>2026-04-11T15:57:49.966Z</time></trkpt><trkpt lat="44.3451342680437" lon="9.912398030479961"><ele>190.0</ele><time>2026-04-11T15:57:51.966Z</time></trkpt><trkpt lat="44.3450565688626" lon="9.912442333615905"><ele>190.0</ele><time>2026-04-11T15:57:53.966Z</time></trkpt></trkseg></trk></gpx>